<?xml version="1.0" encoding="UTF-8" standalone="no" ?>
<gpx xmlns="http://www.topografix.com/GPX/1/1" xmlns:xsi="http://www.w3.org/2001/XMLSchema-instance" xsi:schemaLocation="http://www.topografix.com/GPX/1/1 http://www.topografix.com/GPX/1/1/gpx.xsd" version="1.1" creator="VisuGPX - https://www.visugpx.com">
  <metadata>
    <name>Rando en pays d\'auge : Vimoutiers</name>
    <desc><![CDATA[boucle de 39 km : vimoutiers-camembert-canapville-vimoutiers]]></desc>
  </metadata>
  <trk>
    <name><![CDATA[2015-11-08 09:35]]></name>
    <desc><![CDATA[<h1>OruxMaps</h1><br /><hr align="center" width="480" style="height: 2px; width: 517px"/><h2>Nom: 2015-11-08 09:35</h2><br /><p>Temps de départ: 11/08/2015 09:35</p><p>Temps d'arrivée: 11/08/2015 16:22</p><p>Distance: 38,9km (06:47)</p><p>Temps déplacement: 03:57</p><p>Vitesse moyenne: 5,7km/h</p><p>Vitesse moyenne: 9,9km/h</p><p>Vitess Max.: 48,9km/h</p><p>Altitude minimale: 95m</p><p>Altitude maximale: 248m</p><p>Vitesse d'élévation: 540,5m/h</p><p>Vitesse de descente: -476,9m/h</p><p>Gain Altitude: 1492m</p><p>Perte Altitude: -1490m</p><p>Temps d'élévation: 02:45</p><p>Temps de descente: 03:07</p><hr align="center" width="480" style="height: 2px; width: 517px"/>]]></desc>
    <trkseg>
      <trkpt lat="48.92122" lon="0.18362">
        <ele>158.99</ele>
        <time>2015-11-08T08:35:53Z</time>
      </trkpt>
      <trkpt lat="48.9212" lon="0.18365">
        <ele>159.29</ele>
        <time>2015-11-08T08:36:35Z</time>
      </trkpt>
      <trkpt lat="48.92119" lon="0.18369">
        <ele>159.56</ele>
        <time>2015-11-08T08:37:33Z</time>
      </trkpt>
      <trkpt lat="48.92116" lon="0.18372">
        <ele>159.6</ele>
        <time>2015-11-08T08:39:45Z</time>
      </trkpt>
      <trkpt lat="48.92118" lon="0.18368">
        <ele>159.32</ele>
        <time>2015-11-08T08:40:25Z</time>
      </trkpt>
      <trkpt lat="48.92121" lon="0.18368">
        <ele>159.72</ele>
        <time>2015-11-08T08:41:05Z</time>
      </trkpt>
      <trkpt lat="48.92124" lon="0.18368">
        <ele>160.17</ele>
        <time>2015-11-08T08:41:40Z</time>
      </trkpt>
      <trkpt lat="48.92126" lon="0.18365">
        <ele>160.18</ele>
        <time>2015-11-08T08:41:42Z</time>
      </trkpt>
      <trkpt lat="48.92129" lon="0.18361">
        <ele>160.17</ele>
        <time>2015-11-08T08:41:44Z</time>
      </trkpt>
      <trkpt lat="48.92132" lon="0.18357">
        <ele>160.08</ele>
        <time>2015-11-08T08:41:46Z</time>
      </trkpt>
      <trkpt lat="48.92135" lon="0.1835">
        <ele>159.63</ele>
        <time>2015-11-08T08:41:48Z</time>
      </trkpt>
      <trkpt lat="48.92136" lon="0.18346">
        <ele>159.29</ele>
        <time>2015-11-08T08:41:49Z</time>
      </trkpt>
      <trkpt lat="48.92138" lon="0.18342">
        <ele>158.99</ele>
        <time>2015-11-08T08:41:50Z</time>
      </trkpt>
      <trkpt lat="48.92139" lon="0.18338">
        <ele>158.79</ele>
        <time>2015-11-08T08:41:51Z</time>
      </trkpt>
      <trkpt lat="48.92142" lon="0.18332">
        <ele>158.42</ele>
        <time>2015-11-08T08:41:53Z</time>
      </trkpt>
      <trkpt lat="48.92144" lon="0.18329">
        <ele>158.07</ele>
        <time>2015-11-08T08:41:54Z</time>
      </trkpt>
      <trkpt lat="48.92145" lon="0.18325">
        <ele>157.74</ele>
        <time>2015-11-08T08:41:55Z</time>
      </trkpt>
      <trkpt lat="48.92147" lon="0.18321">
        <ele>157.46</ele>
        <time>2015-11-08T08:41:56Z</time>
      </trkpt>
      <trkpt lat="48.92149" lon="0.18317">
        <ele>157.18</ele>
        <time>2015-11-08T08:41:57Z</time>
      </trkpt>
      <trkpt lat="48.9215" lon="0.18312">
        <ele>156.9</ele>
        <time>2015-11-08T08:41:58Z</time>
      </trkpt>
      <trkpt lat="48.92151" lon="0.18308">
        <ele>156.77</ele>
        <time>2015-11-08T08:41:59Z</time>
      </trkpt>
      <trkpt lat="48.92153" lon="0.18304">
        <ele>156.83</ele>
        <time>2015-11-08T08:42:00Z</time>
      </trkpt>
      <trkpt lat="48.92154" lon="0.183">
        <ele>156.96</ele>
        <time>2015-11-08T08:42:01Z</time>
      </trkpt>
      <trkpt lat="48.92157" lon="0.18294">
        <ele>157.27</ele>
        <time>2015-11-08T08:42:03Z</time>
      </trkpt>
      <trkpt lat="48.9216" lon="0.18288">
        <ele>157.93</ele>
        <time>2015-11-08T08:42:05Z</time>
      </trkpt>
      <trkpt lat="48.92164" lon="0.18284">
        <ele>158.54</ele>
        <time>2015-11-08T08:42:07Z</time>
      </trkpt>
      <trkpt lat="48.92167" lon="0.18281">
        <ele>159.34</ele>
        <time>2015-11-08T08:42:09Z</time>
      </trkpt>
      <trkpt lat="48.9217" lon="0.18276">
        <ele>159.09</ele>
        <time>2015-11-08T08:42:11Z</time>
      </trkpt>
      <trkpt lat="48.92172" lon="0.18273">
        <ele>158.4</ele>
        <time>2015-11-08T08:42:13Z</time>
      </trkpt>
      <trkpt lat="48.92173" lon="0.18268">
        <ele>157.49</ele>
        <time>2015-11-08T08:42:42Z</time>
      </trkpt>
      <trkpt lat="48.92174" lon="0.18264">
        <ele>156.39</ele>
        <time>2015-11-08T08:42:44Z</time>
      </trkpt>
      <trkpt lat="48.92174" lon="0.18258">
        <ele>155.02</ele>
        <time>2015-11-08T08:42:46Z</time>
      </trkpt>
      <trkpt lat="48.92175" lon="0.18252">
        <ele>153.41</ele>
        <time>2015-11-08T08:42:48Z</time>
      </trkpt>
      <trkpt lat="48.92176" lon="0.18245">
        <ele>151.87</ele>
        <time>2015-11-08T08:42:50Z</time>
      </trkpt>
      <trkpt lat="48.92177" lon="0.18237">
        <ele>150.31</ele>
        <time>2015-11-08T08:42:52Z</time>
      </trkpt>
      <trkpt lat="48.92178" lon="0.18232">
        <ele>149.35</ele>
        <time>2015-11-08T08:42:53Z</time>
      </trkpt>
      <trkpt lat="48.92179" lon="0.18227">
        <ele>148.25</ele>
        <time>2015-11-08T08:42:54Z</time>
      </trkpt>
      <trkpt lat="48.9218" lon="0.1822">
        <ele>147.33</ele>
        <time>2015-11-08T08:42:55Z</time>
      </trkpt>
      <trkpt lat="48.92182" lon="0.18214">
        <ele>146.89</ele>
        <time>2015-11-08T08:42:56Z</time>
      </trkpt>
      <trkpt lat="48.92184" lon="0.18208">
        <ele>146.38</ele>
        <time>2015-11-08T08:42:57Z</time>
      </trkpt>
      <trkpt lat="48.92185" lon="0.18202">
        <ele>145.77</ele>
        <time>2015-11-08T08:42:58Z</time>
      </trkpt>
      <trkpt lat="48.92187" lon="0.18195">
        <ele>145.1</ele>
        <time>2015-11-08T08:42:59Z</time>
      </trkpt>
      <trkpt lat="48.92188" lon="0.18189">
        <ele>144.85</ele>
        <time>2015-11-08T08:43:00Z</time>
      </trkpt>
      <trkpt lat="48.92189" lon="0.18183">
        <ele>144.68</ele>
        <time>2015-11-08T08:43:01Z</time>
      </trkpt>
      <trkpt lat="48.92189" lon="0.18177">
        <ele>144.52</ele>
        <time>2015-11-08T08:43:02Z</time>
      </trkpt>
      <trkpt lat="48.92188" lon="0.18172">
        <ele>144.38</ele>
        <time>2015-11-08T08:43:03Z</time>
      </trkpt>
      <trkpt lat="48.92187" lon="0.18167">
        <ele>144.3</ele>
        <time>2015-11-08T08:43:04Z</time>
      </trkpt>
      <trkpt lat="48.92185" lon="0.18163">
        <ele>144.48</ele>
        <time>2015-11-08T08:43:05Z</time>
      </trkpt>
      <trkpt lat="48.92183" lon="0.18159">
        <ele>144.71</ele>
        <time>2015-11-08T08:43:06Z</time>
      </trkpt>
      <trkpt lat="48.9218" lon="0.18155">
        <ele>144.93</ele>
        <time>2015-11-08T08:43:07Z</time>
      </trkpt>
      <trkpt lat="48.92178" lon="0.18151">
        <ele>145.15</ele>
        <time>2015-11-08T08:43:08Z</time>
      </trkpt>
      <trkpt lat="48.92175" lon="0.18148">
        <ele>145.36</ele>
        <time>2015-11-08T08:43:09Z</time>
      </trkpt>
      <trkpt lat="48.92173" lon="0.18145">
        <ele>145.57</ele>
        <time>2015-11-08T08:43:10Z</time>
      </trkpt>
      <trkpt lat="48.9217" lon="0.18142">
        <ele>145.8</ele>
        <time>2015-11-08T08:43:11Z</time>
      </trkpt>
      <trkpt lat="48.92167" lon="0.18138">
        <ele>145.96</ele>
        <time>2015-11-08T08:43:12Z</time>
      </trkpt>
      <trkpt lat="48.92164" lon="0.18134">
        <ele>146.11</ele>
        <time>2015-11-08T08:43:13Z</time>
      </trkpt>
      <trkpt lat="48.92161" lon="0.1813">
        <ele>146.3</ele>
        <time>2015-11-08T08:43:14Z</time>
      </trkpt>
      <trkpt lat="48.92158" lon="0.18127">
        <ele>146.48</ele>
        <time>2015-11-08T08:43:15Z</time>
      </trkpt>
      <trkpt lat="48.92155" lon="0.18123">
        <ele>146.66</ele>
        <time>2015-11-08T08:43:16Z</time>
      </trkpt>
      <trkpt lat="48.92153" lon="0.18119">
        <ele>146.81</ele>
        <time>2015-11-08T08:43:17Z</time>
      </trkpt>
      <trkpt lat="48.9215" lon="0.18115">
        <ele>146.94</ele>
        <time>2015-11-08T08:43:18Z</time>
      </trkpt>
      <trkpt lat="48.92147" lon="0.18111">
        <ele>147.11</ele>
        <time>2015-11-08T08:43:19Z</time>
      </trkpt>
      <trkpt lat="48.92146" lon="0.18106">
        <ele>147.63</ele>
        <time>2015-11-08T08:43:20Z</time>
      </trkpt>
      <trkpt lat="48.92146" lon="0.18101">
        <ele>148.03</ele>
        <time>2015-11-08T08:43:21Z</time>
      </trkpt>
      <trkpt lat="48.92147" lon="0.18096">
        <ele>148.26</ele>
        <time>2015-11-08T08:43:22Z</time>
      </trkpt>
      <trkpt lat="48.92149" lon="0.18092">
        <ele>148.32</ele>
        <time>2015-11-08T08:43:23Z</time>
      </trkpt>
      <trkpt lat="48.92152" lon="0.18088">
        <ele>148.26</ele>
        <time>2015-11-08T08:43:24Z</time>
      </trkpt>
      <trkpt lat="48.92155" lon="0.18086">
        <ele>148.06</ele>
        <time>2015-11-08T08:43:25Z</time>
      </trkpt>
      <trkpt lat="48.92159" lon="0.18084">
        <ele>147.8</ele>
        <time>2015-11-08T08:43:26Z</time>
      </trkpt>
      <trkpt lat="48.92162" lon="0.18083">
        <ele>147.6</ele>
        <time>2015-11-08T08:43:27Z</time>
      </trkpt>
      <trkpt lat="48.92164" lon="0.1808">
        <ele>147.58</ele>
        <time>2015-11-08T08:43:28Z</time>
      </trkpt>
      <trkpt lat="48.92166" lon="0.18077">
        <ele>147.7</ele>
        <time>2015-11-08T08:43:29Z</time>
      </trkpt>
      <trkpt lat="48.92168" lon="0.18074">
        <ele>147.96</ele>
        <time>2015-11-08T08:43:30Z</time>
      </trkpt>
      <trkpt lat="48.9217" lon="0.1807">
        <ele>148.28</ele>
        <time>2015-11-08T08:43:31Z</time>
      </trkpt>
      <trkpt lat="48.92172" lon="0.18067">
        <ele>148.55</ele>
        <time>2015-11-08T08:43:32Z</time>
      </trkpt>
      <trkpt lat="48.92175" lon="0.18061">
        <ele>149.06</ele>
        <time>2015-11-08T08:43:34Z</time>
      </trkpt>
      <trkpt lat="48.92177" lon="0.18059">
        <ele>149.25</ele>
        <time>2015-11-08T08:43:35Z</time>
      </trkpt>
      <trkpt lat="48.9218" lon="0.18057">
        <ele>149.41</ele>
        <time>2015-11-08T08:43:36Z</time>
      </trkpt>
      <trkpt lat="48.92182" lon="0.18054">
        <ele>149.59</ele>
        <time>2015-11-08T08:43:37Z</time>
      </trkpt>
      <trkpt lat="48.92186" lon="0.18049">
        <ele>150.15</ele>
        <time>2015-11-08T08:43:39Z</time>
      </trkpt>
      <trkpt lat="48.92188" lon="0.18041">
        <ele>150.9</ele>
        <time>2015-11-08T08:43:41Z</time>
      </trkpt>
      <trkpt lat="48.92189" lon="0.18035">
        <ele>151.59</ele>
        <time>2015-11-08T08:43:43Z</time>
      </trkpt>
      <trkpt lat="48.92191" lon="0.18029">
        <ele>152.09</ele>
        <time>2015-11-08T08:43:45Z</time>
      </trkpt>
      <trkpt lat="48.92193" lon="0.18024">
        <ele>152.51</ele>
        <time>2015-11-08T08:43:47Z</time>
      </trkpt>
      <trkpt lat="48.92194" lon="0.1802">
        <ele>152.88</ele>
        <time>2015-11-08T08:43:49Z</time>
      </trkpt>
      <trkpt lat="48.92196" lon="0.18015">
        <ele>153.42</ele>
        <time>2015-11-08T08:43:51Z</time>
      </trkpt>
      <trkpt lat="48.92198" lon="0.1801">
        <ele>153.93</ele>
        <time>2015-11-08T08:43:53Z</time>
      </trkpt>
      <trkpt lat="48.922" lon="0.18005">
        <ele>154.51</ele>
        <time>2015-11-08T08:43:55Z</time>
      </trkpt>
      <trkpt lat="48.92199" lon="0.17997">
        <ele>155.16</ele>
        <time>2015-11-08T08:43:57Z</time>
      </trkpt>
      <trkpt lat="48.92199" lon="0.1799">
        <ele>155.62</ele>
        <time>2015-11-08T08:43:59Z</time>
      </trkpt>
      <trkpt lat="48.92201" lon="0.17983">
        <ele>155.91</ele>
        <time>2015-11-08T08:44:01Z</time>
      </trkpt>
      <trkpt lat="48.92203" lon="0.17977">
        <ele>156.12</ele>
        <time>2015-11-08T08:44:03Z</time>
      </trkpt>
      <trkpt lat="48.92204" lon="0.17972">
        <ele>156.21</ele>
        <time>2015-11-08T08:44:05Z</time>
      </trkpt>
      <trkpt lat="48.92205" lon="0.17965">
        <ele>155.18</ele>
        <time>2015-11-08T08:44:07Z</time>
      </trkpt>
      <trkpt lat="48.92207" lon="0.1796">
        <ele>154.19</ele>
        <time>2015-11-08T08:44:09Z</time>
      </trkpt>
      <trkpt lat="48.92208" lon="0.17956">
        <ele>153.32</ele>
        <time>2015-11-08T08:44:11Z</time>
      </trkpt>
      <trkpt lat="48.92211" lon="0.17953">
        <ele>152.59</ele>
        <time>2015-11-08T08:44:13Z</time>
      </trkpt>
      <trkpt lat="48.92214" lon="0.17951">
        <ele>151.98</ele>
        <time>2015-11-08T08:44:15Z</time>
      </trkpt>
      <trkpt lat="48.92217" lon="0.17947">
        <ele>150.96</ele>
        <time>2015-11-08T08:44:17Z</time>
      </trkpt>
      <trkpt lat="48.92219" lon="0.17941">
        <ele>150.45</ele>
        <time>2015-11-08T08:44:19Z</time>
      </trkpt>
      <trkpt lat="48.92221" lon="0.17936">
        <ele>150.4</ele>
        <time>2015-11-08T08:44:21Z</time>
      </trkpt>
      <trkpt lat="48.92222" lon="0.17931">
        <ele>150.48</ele>
        <time>2015-11-08T08:44:23Z</time>
      </trkpt>
      <trkpt lat="48.92223" lon="0.17925">
        <ele>150.75</ele>
        <time>2015-11-08T08:44:25Z</time>
      </trkpt>
      <trkpt lat="48.92225" lon="0.1792">
        <ele>151.03</ele>
        <time>2015-11-08T08:44:27Z</time>
      </trkpt>
      <trkpt lat="48.92228" lon="0.17915">
        <ele>151.26</ele>
        <time>2015-11-08T08:44:29Z</time>
      </trkpt>
      <trkpt lat="48.9223" lon="0.1791">
        <ele>151.52</ele>
        <time>2015-11-08T08:44:31Z</time>
      </trkpt>
      <trkpt lat="48.92232" lon="0.17905">
        <ele>151.74</ele>
        <time>2015-11-08T08:44:33Z</time>
      </trkpt>
      <trkpt lat="48.92233" lon="0.17902">
        <ele>151.94</ele>
        <time>2015-11-08T08:44:35Z</time>
      </trkpt>
      <trkpt lat="48.92235" lon="0.17898">
        <ele>152.14</ele>
        <time>2015-11-08T08:44:37Z</time>
      </trkpt>
      <trkpt lat="48.92236" lon="0.17893">
        <ele>152.35</ele>
        <time>2015-11-08T08:44:39Z</time>
      </trkpt>
      <trkpt lat="48.92237" lon="0.17887">
        <ele>152.61</ele>
        <time>2015-11-08T08:44:41Z</time>
      </trkpt>
      <trkpt lat="48.92238" lon="0.1788">
        <ele>152.9</ele>
        <time>2015-11-08T08:44:43Z</time>
      </trkpt>
      <trkpt lat="48.92239" lon="0.17872">
        <ele>153.2</ele>
        <time>2015-11-08T08:44:45Z</time>
      </trkpt>
      <trkpt lat="48.92239" lon="0.17864">
        <ele>153.5</ele>
        <time>2015-11-08T08:44:47Z</time>
      </trkpt>
      <trkpt lat="48.9224" lon="0.17857">
        <ele>154.16</ele>
        <time>2015-11-08T08:44:49Z</time>
      </trkpt>
      <trkpt lat="48.92241" lon="0.1785">
        <ele>155.09</ele>
        <time>2015-11-08T08:44:51Z</time>
      </trkpt>
      <trkpt lat="48.92242" lon="0.17844">
        <ele>155.99</ele>
        <time>2015-11-08T08:44:53Z</time>
      </trkpt>
      <trkpt lat="48.92243" lon="0.17709">
        <ele>164.62</ele>
        <time>2015-11-08T08:45:24Z</time>
      </trkpt>
      <trkpt lat="48.92245" lon="0.17707">
        <ele>163.93</ele>
        <time>2015-11-08T08:45:28Z</time>
      </trkpt>
      <trkpt lat="48.92246" lon="0.17702">
        <ele>163.26</ele>
        <time>2015-11-08T08:45:30Z</time>
      </trkpt>
      <trkpt lat="48.92247" lon="0.17698">
        <ele>162.79</ele>
        <time>2015-11-08T08:45:31Z</time>
      </trkpt>
      <trkpt lat="48.92248" lon="0.17693">
        <ele>162.36</ele>
        <time>2015-11-08T08:45:32Z</time>
      </trkpt>
      <trkpt lat="48.92248" lon="0.17688">
        <ele>162.07</ele>
        <time>2015-11-08T08:45:33Z</time>
      </trkpt>
      <trkpt lat="48.92248" lon="0.17683">
        <ele>161.79</ele>
        <time>2015-11-08T08:45:34Z</time>
      </trkpt>
      <trkpt lat="48.92248" lon="0.17677">
        <ele>161.52</ele>
        <time>2015-11-08T08:45:35Z</time>
      </trkpt>
      <trkpt lat="48.92248" lon="0.17672">
        <ele>161.31</ele>
        <time>2015-11-08T08:45:36Z</time>
      </trkpt>
      <trkpt lat="48.92248" lon="0.17667">
        <ele>161.09</ele>
        <time>2015-11-08T08:45:37Z</time>
      </trkpt>
      <trkpt lat="48.92247" lon="0.17661">
        <ele>160.85</ele>
        <time>2015-11-08T08:45:38Z</time>
      </trkpt>
      <trkpt lat="48.92247" lon="0.17656">
        <ele>160.58</ele>
        <time>2015-11-08T08:45:39Z</time>
      </trkpt>
      <trkpt lat="48.92247" lon="0.1765">
        <ele>160.3</ele>
        <time>2015-11-08T08:45:40Z</time>
      </trkpt>
      <trkpt lat="48.92246" lon="0.17644">
        <ele>159.99</ele>
        <time>2015-11-08T08:45:41Z</time>
      </trkpt>
      <trkpt lat="48.92246" lon="0.17639">
        <ele>159.69</ele>
        <time>2015-11-08T08:45:42Z</time>
      </trkpt>
      <trkpt lat="48.92246" lon="0.17633">
        <ele>159.34</ele>
        <time>2015-11-08T08:45:43Z</time>
      </trkpt>
      <trkpt lat="48.92247" lon="0.17628">
        <ele>158.99</ele>
        <time>2015-11-08T08:45:44Z</time>
      </trkpt>
      <trkpt lat="48.92247" lon="0.17622">
        <ele>158.64</ele>
        <time>2015-11-08T08:45:45Z</time>
      </trkpt>
      <trkpt lat="48.92247" lon="0.17616">
        <ele>158.28</ele>
        <time>2015-11-08T08:45:46Z</time>
      </trkpt>
      <trkpt lat="48.92248" lon="0.17611">
        <ele>157.91</ele>
        <time>2015-11-08T08:45:47Z</time>
      </trkpt>
      <trkpt lat="48.92249" lon="0.17605">
        <ele>157.53</ele>
        <time>2015-11-08T08:45:48Z</time>
      </trkpt>
      <trkpt lat="48.9225" lon="0.17599">
        <ele>157.14</ele>
        <time>2015-11-08T08:45:49Z</time>
      </trkpt>
      <trkpt lat="48.92251" lon="0.17593">
        <ele>156.82</ele>
        <time>2015-11-08T08:45:50Z</time>
      </trkpt>
      <trkpt lat="48.92252" lon="0.17588">
        <ele>156.58</ele>
        <time>2015-11-08T08:45:51Z</time>
      </trkpt>
      <trkpt lat="48.92253" lon="0.17582">
        <ele>156.56</ele>
        <time>2015-11-08T08:45:52Z</time>
      </trkpt>
      <trkpt lat="48.92254" lon="0.17575">
        <ele>156.87</ele>
        <time>2015-11-08T08:45:53Z</time>
      </trkpt>
      <trkpt lat="48.92254" lon="0.17569">
        <ele>157.12</ele>
        <time>2015-11-08T08:45:54Z</time>
      </trkpt>
      <trkpt lat="48.92254" lon="0.17563">
        <ele>157.28</ele>
        <time>2015-11-08T08:45:55Z</time>
      </trkpt>
      <trkpt lat="48.92253" lon="0.17557">
        <ele>157.42</ele>
        <time>2015-11-08T08:45:56Z</time>
      </trkpt>
      <trkpt lat="48.92252" lon="0.17551">
        <ele>157.87</ele>
        <time>2015-11-08T08:45:57Z</time>
      </trkpt>
      <trkpt lat="48.92252" lon="0.17544">
        <ele>158.4</ele>
        <time>2015-11-08T08:45:58Z</time>
      </trkpt>
      <trkpt lat="48.92251" lon="0.17538">
        <ele>158.96</ele>
        <time>2015-11-08T08:45:59Z</time>
      </trkpt>
      <trkpt lat="48.92251" lon="0.17532">
        <ele>159.54</ele>
        <time>2015-11-08T08:46:00Z</time>
      </trkpt>
      <trkpt lat="48.9225" lon="0.17527">
        <ele>160.07</ele>
        <time>2015-11-08T08:46:01Z</time>
      </trkpt>
      <trkpt lat="48.92249" lon="0.17522">
        <ele>160.39</ele>
        <time>2015-11-08T08:46:02Z</time>
      </trkpt>
      <trkpt lat="48.92248" lon="0.17516">
        <ele>160.71</ele>
        <time>2015-11-08T08:46:03Z</time>
      </trkpt>
      <trkpt lat="48.92248" lon="0.17511">
        <ele>161.04</ele>
        <time>2015-11-08T08:46:04Z</time>
      </trkpt>
      <trkpt lat="48.92248" lon="0.17506">
        <ele>161.39</ele>
        <time>2015-11-08T08:46:05Z</time>
      </trkpt>
      <trkpt lat="48.92248" lon="0.17501">
        <ele>161.75</ele>
        <time>2015-11-08T08:46:06Z</time>
      </trkpt>
      <trkpt lat="48.92248" lon="0.17497">
        <ele>161.84</ele>
        <time>2015-11-08T08:46:07Z</time>
      </trkpt>
      <trkpt lat="48.92248" lon="0.17493">
        <ele>161.82</ele>
        <time>2015-11-08T08:46:08Z</time>
      </trkpt>
      <trkpt lat="48.92248" lon="0.17488">
        <ele>161.8</ele>
        <time>2015-11-08T08:46:09Z</time>
      </trkpt>
      <trkpt lat="48.92248" lon="0.17481">
        <ele>161.82</ele>
        <time>2015-11-08T08:46:11Z</time>
      </trkpt>
      <trkpt lat="48.92249" lon="0.17473">
        <ele>161.94</ele>
        <time>2015-11-08T08:46:13Z</time>
      </trkpt>
      <trkpt lat="48.92251" lon="0.17466">
        <ele>161.61</ele>
        <time>2015-11-08T08:46:15Z</time>
      </trkpt>
      <trkpt lat="48.9225" lon="0.17459">
        <ele>161.08</ele>
        <time>2015-11-08T08:46:17Z</time>
      </trkpt>
      <trkpt lat="48.92248" lon="0.17454">
        <ele>160.38</ele>
        <time>2015-11-08T08:46:19Z</time>
      </trkpt>
      <trkpt lat="48.92245" lon="0.17448">
        <ele>159.54</ele>
        <time>2015-11-08T08:46:21Z</time>
      </trkpt>
      <trkpt lat="48.92241" lon="0.17443">
        <ele>158.6</ele>
        <time>2015-11-08T08:46:23Z</time>
      </trkpt>
      <trkpt lat="48.92239" lon="0.17437">
        <ele>157.69</ele>
        <time>2015-11-08T08:46:25Z</time>
      </trkpt>
      <trkpt lat="48.92236" lon="0.17432">
        <ele>156.83</ele>
        <time>2015-11-08T08:46:27Z</time>
      </trkpt>
      <trkpt lat="48.92233" lon="0.17427">
        <ele>156.09</ele>
        <time>2015-11-08T08:46:29Z</time>
      </trkpt>
      <trkpt lat="48.92235" lon="0.1743">
        <ele>156.58</ele>
        <time>2015-11-08T08:46:33Z</time>
      </trkpt>
      <trkpt lat="48.92233" lon="0.17427">
        <ele>156.09</ele>
        <time>2015-11-08T08:46:52Z</time>
      </trkpt>
      <trkpt lat="48.9223" lon="0.17424">
        <ele>155.48</ele>
        <time>2015-11-08T08:46:54Z</time>
      </trkpt>
      <trkpt lat="48.92227" lon="0.1742">
        <ele>154.75</ele>
        <time>2015-11-08T08:46:56Z</time>
      </trkpt>
      <trkpt lat="48.92223" lon="0.17414">
        <ele>153.97</ele>
        <time>2015-11-08T08:46:58Z</time>
      </trkpt>
      <trkpt lat="48.92221" lon="0.17411">
        <ele>153.93</ele>
        <time>2015-11-08T08:46:59Z</time>
      </trkpt>
      <trkpt lat="48.92218" lon="0.17407">
        <ele>154.05</ele>
        <time>2015-11-08T08:47:00Z</time>
      </trkpt>
      <trkpt lat="48.92216" lon="0.17404">
        <ele>154.19</ele>
        <time>2015-11-08T08:47:01Z</time>
      </trkpt>
      <trkpt lat="48.92214" lon="0.174">
        <ele>154.35</ele>
        <time>2015-11-08T08:47:02Z</time>
      </trkpt>
      <trkpt lat="48.92212" lon="0.17397">
        <ele>154.55</ele>
        <time>2015-11-08T08:47:03Z</time>
      </trkpt>
      <trkpt lat="48.9221" lon="0.17393">
        <ele>154.78</ele>
        <time>2015-11-08T08:47:04Z</time>
      </trkpt>
      <trkpt lat="48.92208" lon="0.17391">
        <ele>155.05</ele>
        <time>2015-11-08T08:47:05Z</time>
      </trkpt>
      <trkpt lat="48.92206" lon="0.17387">
        <ele>155.32</ele>
        <time>2015-11-08T08:47:06Z</time>
      </trkpt>
      <trkpt lat="48.92203" lon="0.17382">
        <ele>155.84</ele>
        <time>2015-11-08T08:47:08Z</time>
      </trkpt>
      <trkpt lat="48.922" lon="0.17379">
        <ele>156.24</ele>
        <time>2015-11-08T08:47:10Z</time>
      </trkpt>
      <trkpt lat="48.92198" lon="0.17374">
        <ele>156.55</ele>
        <time>2015-11-08T08:47:42Z</time>
      </trkpt>
      <trkpt lat="48.92195" lon="0.1737">
        <ele>156.91</ele>
        <time>2015-11-08T08:47:44Z</time>
      </trkpt>
      <trkpt lat="48.92192" lon="0.17366">
        <ele>157</ele>
        <time>2015-11-08T08:47:46Z</time>
      </trkpt>
      <trkpt lat="48.92189" lon="0.17361">
        <ele>157.01</ele>
        <time>2015-11-08T08:47:48Z</time>
      </trkpt>
      <trkpt lat="48.92186" lon="0.17357">
        <ele>157.06</ele>
        <time>2015-11-08T08:47:50Z</time>
      </trkpt>
      <trkpt lat="48.92182" lon="0.17354">
        <ele>157.03</ele>
        <time>2015-11-08T08:47:52Z</time>
      </trkpt>
      <trkpt lat="48.92179" lon="0.17352">
        <ele>156.95</ele>
        <time>2015-11-08T08:47:54Z</time>
      </trkpt>
      <trkpt lat="48.92176" lon="0.1735">
        <ele>156.86</ele>
        <time>2015-11-08T08:47:56Z</time>
      </trkpt>
      <trkpt lat="48.92173" lon="0.17348">
        <ele>156.73</ele>
        <time>2015-11-08T08:47:58Z</time>
      </trkpt>
      <trkpt lat="48.92169" lon="0.17347">
        <ele>156.6</ele>
        <time>2015-11-08T08:48:00Z</time>
      </trkpt>
      <trkpt lat="48.92166" lon="0.17347">
        <ele>156.52</ele>
        <time>2015-11-08T08:48:02Z</time>
      </trkpt>
      <trkpt lat="48.92162" lon="0.17347">
        <ele>156.88</ele>
        <time>2015-11-08T08:48:05Z</time>
      </trkpt>
      <trkpt lat="48.92159" lon="0.17347">
        <ele>157.14</ele>
        <time>2015-11-08T08:48:07Z</time>
      </trkpt>
      <trkpt lat="48.92157" lon="0.17346">
        <ele>157.38</ele>
        <time>2015-11-08T08:48:09Z</time>
      </trkpt>
      <trkpt lat="48.92153" lon="0.17346">
        <ele>157.68</ele>
        <time>2015-11-08T08:48:11Z</time>
      </trkpt>
      <trkpt lat="48.9215" lon="0.17346">
        <ele>158.01</ele>
        <time>2015-11-08T08:48:13Z</time>
      </trkpt>
      <trkpt lat="48.92147" lon="0.17346">
        <ele>158.28</ele>
        <time>2015-11-08T08:48:15Z</time>
      </trkpt>
      <trkpt lat="48.92144" lon="0.17346">
        <ele>158.56</ele>
        <time>2015-11-08T08:48:17Z</time>
      </trkpt>
      <trkpt lat="48.92141" lon="0.17346">
        <ele>158.82</ele>
        <time>2015-11-08T08:48:19Z</time>
      </trkpt>
      <trkpt lat="48.92138" lon="0.17345">
        <ele>159.23</ele>
        <time>2015-11-08T08:48:21Z</time>
      </trkpt>
      <trkpt lat="48.92134" lon="0.17344">
        <ele>160.48</ele>
        <time>2015-11-08T08:48:24Z</time>
      </trkpt>
      <trkpt lat="48.92132" lon="0.17342">
        <ele>161.42</ele>
        <time>2015-11-08T08:48:27Z</time>
      </trkpt>
      <trkpt lat="48.92129" lon="0.17343">
        <ele>162.37</ele>
        <time>2015-11-08T08:48:30Z</time>
      </trkpt>
      <trkpt lat="48.92127" lon="0.17348">
        <ele>162.92</ele>
        <time>2015-11-08T08:48:33Z</time>
      </trkpt>
      <trkpt lat="48.92124" lon="0.17352">
        <ele>163.73</ele>
        <time>2015-11-08T08:48:36Z</time>
      </trkpt>
      <trkpt lat="48.92121" lon="0.17355">
        <ele>164.45</ele>
        <time>2015-11-08T08:48:38Z</time>
      </trkpt>
      <trkpt lat="48.92118" lon="0.17357">
        <ele>165.29</ele>
        <time>2015-11-08T08:48:40Z</time>
      </trkpt>
      <trkpt lat="48.92115" lon="0.17359">
        <ele>166.02</ele>
        <time>2015-11-08T08:48:42Z</time>
      </trkpt>
      <trkpt lat="48.92112" lon="0.17361">
        <ele>166.65</ele>
        <time>2015-11-08T08:48:44Z</time>
      </trkpt>
      <trkpt lat="48.92111" lon="0.17365">
        <ele>167.05</ele>
        <time>2015-11-08T08:48:46Z</time>
      </trkpt>
      <trkpt lat="48.9211" lon="0.17369">
        <ele>167.22</ele>
        <time>2015-11-08T08:48:48Z</time>
      </trkpt>
      <trkpt lat="48.92107" lon="0.17371">
        <ele>167.84</ele>
        <time>2015-11-08T08:48:51Z</time>
      </trkpt>
      <trkpt lat="48.92104" lon="0.17371">
        <ele>168.34</ele>
        <time>2015-11-08T08:48:53Z</time>
      </trkpt>
      <trkpt lat="48.92101" lon="0.17373">
        <ele>168.93</ele>
        <time>2015-11-08T08:48:56Z</time>
      </trkpt>
      <trkpt lat="48.92098" lon="0.17376">
        <ele>169.34</ele>
        <time>2015-11-08T08:48:59Z</time>
      </trkpt>
      <trkpt lat="48.92095" lon="0.1738">
        <ele>169.68</ele>
        <time>2015-11-08T08:49:02Z</time>
      </trkpt>
      <trkpt lat="48.92093" lon="0.17382">
        <ele>170.02</ele>
        <time>2015-11-08T08:49:04Z</time>
      </trkpt>
      <trkpt lat="48.9209" lon="0.17383">
        <ele>170.42</ele>
        <time>2015-11-08T08:49:06Z</time>
      </trkpt>
      <trkpt lat="48.92087" lon="0.17384">
        <ele>170.78</ele>
        <time>2015-11-08T08:49:08Z</time>
      </trkpt>
      <trkpt lat="48.92083" lon="0.17385">
        <ele>171.26</ele>
        <time>2015-11-08T08:49:11Z</time>
      </trkpt>
      <trkpt lat="48.9208" lon="0.17386">
        <ele>171.08</ele>
        <time>2015-11-08T08:49:13Z</time>
      </trkpt>
      <trkpt lat="48.92077" lon="0.17386">
        <ele>170.95</ele>
        <time>2015-11-08T08:49:15Z</time>
      </trkpt>
      <trkpt lat="48.92075" lon="0.17385">
        <ele>170.82</ele>
        <time>2015-11-08T08:49:17Z</time>
      </trkpt>
      <trkpt lat="48.92072" lon="0.17384">
        <ele>170.71</ele>
        <time>2015-11-08T08:49:19Z</time>
      </trkpt>
      <trkpt lat="48.92068" lon="0.17383">
        <ele>170.53</ele>
        <time>2015-11-08T08:49:22Z</time>
      </trkpt>
      <trkpt lat="48.92065" lon="0.17382">
        <ele>170.36</ele>
        <time>2015-11-08T08:49:24Z</time>
      </trkpt>
      <trkpt lat="48.92063" lon="0.17382">
        <ele>170.19</ele>
        <time>2015-11-08T08:49:26Z</time>
      </trkpt>
      <trkpt lat="48.92058" lon="0.17383">
        <ele>169.96</ele>
        <time>2015-11-08T08:49:29Z</time>
      </trkpt>
      <trkpt lat="48.92056" lon="0.17383">
        <ele>169.81</ele>
        <time>2015-11-08T08:49:31Z</time>
      </trkpt>
      <trkpt lat="48.92053" lon="0.17384">
        <ele>170.69</ele>
        <time>2015-11-08T08:49:33Z</time>
      </trkpt>
      <trkpt lat="48.9205" lon="0.17384">
        <ele>171.48</ele>
        <time>2015-11-08T08:49:35Z</time>
      </trkpt>
      <trkpt lat="48.92046" lon="0.17385">
        <ele>172.65</ele>
        <time>2015-11-08T08:49:38Z</time>
      </trkpt>
      <trkpt lat="48.92043" lon="0.17387">
        <ele>173.46</ele>
        <time>2015-11-08T08:49:40Z</time>
      </trkpt>
      <trkpt lat="48.9204" lon="0.17388">
        <ele>174.33</ele>
        <time>2015-11-08T08:49:42Z</time>
      </trkpt>
      <trkpt lat="48.92037" lon="0.17388">
        <ele>175.2</ele>
        <time>2015-11-08T08:49:44Z</time>
      </trkpt>
      <trkpt lat="48.92034" lon="0.17389">
        <ele>176.13</ele>
        <time>2015-11-08T08:49:46Z</time>
      </trkpt>
      <trkpt lat="48.92031" lon="0.17389">
        <ele>177.07</ele>
        <time>2015-11-08T08:49:48Z</time>
      </trkpt>
      <trkpt lat="48.92028" lon="0.17389">
        <ele>177.87</ele>
        <time>2015-11-08T08:49:50Z</time>
      </trkpt>
      <trkpt lat="48.92025" lon="0.17388">
        <ele>178.99</ele>
        <time>2015-11-08T08:49:52Z</time>
      </trkpt>
      <trkpt lat="48.92023" lon="0.1739">
        <ele>180.17</ele>
        <time>2015-11-08T08:49:54Z</time>
      </trkpt>
      <trkpt lat="48.91982" lon="0.17393">
        <ele>195.43</ele>
        <time>2015-11-08T08:50:25Z</time>
      </trkpt>
      <trkpt lat="48.91979" lon="0.17392">
        <ele>196.55</ele>
        <time>2015-11-08T08:50:27Z</time>
      </trkpt>
      <trkpt lat="48.91976" lon="0.1739">
        <ele>197.61</ele>
        <time>2015-11-08T08:50:30Z</time>
      </trkpt>
      <trkpt lat="48.91974" lon="0.17388">
        <ele>198.52</ele>
        <time>2015-11-08T08:50:33Z</time>
      </trkpt>
      <trkpt lat="48.91971" lon="0.17386">
        <ele>198.99</ele>
        <time>2015-11-08T08:50:36Z</time>
      </trkpt>
      <trkpt lat="48.91968" lon="0.17384">
        <ele>199.09</ele>
        <time>2015-11-08T08:50:39Z</time>
      </trkpt>
      <trkpt lat="48.91965" lon="0.17381">
        <ele>199.21</ele>
        <time>2015-11-08T08:50:42Z</time>
      </trkpt>
      <trkpt lat="48.91961" lon="0.17379">
        <ele>199.3</ele>
        <time>2015-11-08T08:50:45Z</time>
      </trkpt>
      <trkpt lat="48.91957" lon="0.17378">
        <ele>199.47</ele>
        <time>2015-11-08T08:50:48Z</time>
      </trkpt>
      <trkpt lat="48.91955" lon="0.17377">
        <ele>199.59</ele>
        <time>2015-11-08T08:50:50Z</time>
      </trkpt>
      <trkpt lat="48.91951" lon="0.17376">
        <ele>199.73</ele>
        <time>2015-11-08T08:50:53Z</time>
      </trkpt>
      <trkpt lat="48.91948" lon="0.17375">
        <ele>199.76</ele>
        <time>2015-11-08T08:50:55Z</time>
      </trkpt>
      <trkpt lat="48.91944" lon="0.17373">
        <ele>199.83</ele>
        <time>2015-11-08T08:50:58Z</time>
      </trkpt>
      <trkpt lat="48.91941" lon="0.17372">
        <ele>199.28</ele>
        <time>2015-11-08T08:51:00Z</time>
      </trkpt>
      <trkpt lat="48.91938" lon="0.1737">
        <ele>198.51</ele>
        <time>2015-11-08T08:51:03Z</time>
      </trkpt>
      <trkpt lat="48.91935" lon="0.17369">
        <ele>197.94</ele>
        <time>2015-11-08T08:51:05Z</time>
      </trkpt>
      <trkpt lat="48.91932" lon="0.17368">
        <ele>197.4</ele>
        <time>2015-11-08T08:51:07Z</time>
      </trkpt>
      <trkpt lat="48.91929" lon="0.17367">
        <ele>196.85</ele>
        <time>2015-11-08T08:51:09Z</time>
      </trkpt>
      <trkpt lat="48.91927" lon="0.17367">
        <ele>196.32</ele>
        <time>2015-11-08T08:51:11Z</time>
      </trkpt>
      <trkpt lat="48.91924" lon="0.17366">
        <ele>195.81</ele>
        <time>2015-11-08T08:51:13Z</time>
      </trkpt>
      <trkpt lat="48.91921" lon="0.17366">
        <ele>195.32</ele>
        <time>2015-11-08T08:51:15Z</time>
      </trkpt>
      <trkpt lat="48.91918" lon="0.17366">
        <ele>194.82</ele>
        <time>2015-11-08T08:51:17Z</time>
      </trkpt>
      <trkpt lat="48.91915" lon="0.17367">
        <ele>194.82</ele>
        <time>2015-11-08T08:51:19Z</time>
      </trkpt>
      <trkpt lat="48.91912" lon="0.17367">
        <ele>195.24</ele>
        <time>2015-11-08T08:51:21Z</time>
      </trkpt>
      <trkpt lat="48.91909" lon="0.17368">
        <ele>195.69</ele>
        <time>2015-11-08T08:51:23Z</time>
      </trkpt>
      <trkpt lat="48.91906" lon="0.17369">
        <ele>196.11</ele>
        <time>2015-11-08T08:51:25Z</time>
      </trkpt>
      <trkpt lat="48.91902" lon="0.1737">
        <ele>196.69</ele>
        <time>2015-11-08T08:51:28Z</time>
      </trkpt>
      <trkpt lat="48.919" lon="0.17371">
        <ele>197.11</ele>
        <time>2015-11-08T08:51:30Z</time>
      </trkpt>
      <trkpt lat="48.91897" lon="0.17373">
        <ele>197.52</ele>
        <time>2015-11-08T08:51:32Z</time>
      </trkpt>
      <trkpt lat="48.91894" lon="0.17374">
        <ele>197.91</ele>
        <time>2015-11-08T08:51:34Z</time>
      </trkpt>
      <trkpt lat="48.91891" lon="0.17376">
        <ele>198.33</ele>
        <time>2015-11-08T08:51:36Z</time>
      </trkpt>
      <trkpt lat="48.91888" lon="0.17378">
        <ele>198.65</ele>
        <time>2015-11-08T08:51:38Z</time>
      </trkpt>
      <trkpt lat="48.91884" lon="0.17379">
        <ele>198.81</ele>
        <time>2015-11-08T08:51:40Z</time>
      </trkpt>
      <trkpt lat="48.91881" lon="0.17381">
        <ele>198.98</ele>
        <time>2015-11-08T08:51:42Z</time>
      </trkpt>
      <trkpt lat="48.91878" lon="0.17383">
        <ele>199.16</ele>
        <time>2015-11-08T08:51:44Z</time>
      </trkpt>
      <trkpt lat="48.91875" lon="0.17385">
        <ele>199.36</ele>
        <time>2015-11-08T08:51:46Z</time>
      </trkpt>
      <trkpt lat="48.91872" lon="0.17386">
        <ele>199.53</ele>
        <time>2015-11-08T08:51:48Z</time>
      </trkpt>
      <trkpt lat="48.91869" lon="0.17388">
        <ele>199.68</ele>
        <time>2015-11-08T08:51:50Z</time>
      </trkpt>
      <trkpt lat="48.91866" lon="0.1739">
        <ele>199.89</ele>
        <time>2015-11-08T08:51:52Z</time>
      </trkpt>
      <trkpt lat="48.91862" lon="0.17392">
        <ele>200.15</ele>
        <time>2015-11-08T08:51:54Z</time>
      </trkpt>
      <trkpt lat="48.9186" lon="0.17393">
        <ele>200.46</ele>
        <time>2015-11-08T08:51:56Z</time>
      </trkpt>
      <trkpt lat="48.91857" lon="0.17394">
        <ele>200.82</ele>
        <time>2015-11-08T08:51:58Z</time>
      </trkpt>
      <trkpt lat="48.91853" lon="0.17395">
        <ele>201.24</ele>
        <time>2015-11-08T08:52:01Z</time>
      </trkpt>
      <trkpt lat="48.9185" lon="0.17397">
        <ele>201.64</ele>
        <time>2015-11-08T08:52:04Z</time>
      </trkpt>
      <trkpt lat="48.91847" lon="0.17399">
        <ele>202.05</ele>
        <time>2015-11-08T08:52:07Z</time>
      </trkpt>
      <trkpt lat="48.91843" lon="0.174">
        <ele>202.47</ele>
        <time>2015-11-08T08:52:10Z</time>
      </trkpt>
      <trkpt lat="48.9184" lon="0.17403">
        <ele>202.9</ele>
        <time>2015-11-08T08:52:13Z</time>
      </trkpt>
      <trkpt lat="48.91837" lon="0.17404">
        <ele>203.23</ele>
        <time>2015-11-08T08:52:16Z</time>
      </trkpt>
      <trkpt lat="48.91834" lon="0.17407">
        <ele>203.63</ele>
        <time>2015-11-08T08:52:19Z</time>
      </trkpt>
      <trkpt lat="48.91831" lon="0.17409">
        <ele>203.7</ele>
        <time>2015-11-08T08:52:21Z</time>
      </trkpt>
      <trkpt lat="48.91828" lon="0.17411">
        <ele>203.71</ele>
        <time>2015-11-08T08:52:23Z</time>
      </trkpt>
      <trkpt lat="48.91825" lon="0.17412">
        <ele>203.68</ele>
        <time>2015-11-08T08:52:25Z</time>
      </trkpt>
      <trkpt lat="48.91822" lon="0.17413">
        <ele>203.61</ele>
        <time>2015-11-08T08:52:27Z</time>
      </trkpt>
      <trkpt lat="48.91818" lon="0.17415">
        <ele>203.49</ele>
        <time>2015-11-08T08:52:30Z</time>
      </trkpt>
      <trkpt lat="48.91815" lon="0.17417">
        <ele>203.33</ele>
        <time>2015-11-08T08:52:33Z</time>
      </trkpt>
      <trkpt lat="48.91812" lon="0.17419">
        <ele>203.09</ele>
        <time>2015-11-08T08:52:36Z</time>
      </trkpt>
      <trkpt lat="48.91809" lon="0.17421">
        <ele>202.87</ele>
        <time>2015-11-08T08:52:38Z</time>
      </trkpt>
      <trkpt lat="48.91807" lon="0.17423">
        <ele>202.63</ele>
        <time>2015-11-08T08:52:40Z</time>
      </trkpt>
      <trkpt lat="48.91803" lon="0.17425">
        <ele>202.41</ele>
        <time>2015-11-08T08:52:43Z</time>
      </trkpt>
      <trkpt lat="48.91801" lon="0.17426">
        <ele>202.3</ele>
        <time>2015-11-08T08:52:45Z</time>
      </trkpt>
      <trkpt lat="48.91798" lon="0.17428">
        <ele>202.19</ele>
        <time>2015-11-08T08:52:47Z</time>
      </trkpt>
      <trkpt lat="48.91795" lon="0.17429">
        <ele>202.08</ele>
        <time>2015-11-08T08:52:49Z</time>
      </trkpt>
      <trkpt lat="48.91793" lon="0.17431">
        <ele>202</ele>
        <time>2015-11-08T08:52:51Z</time>
      </trkpt>
      <trkpt lat="48.91789" lon="0.17432">
        <ele>201.92</ele>
        <time>2015-11-08T08:52:54Z</time>
      </trkpt>
      <trkpt lat="48.91787" lon="0.17434">
        <ele>201.76</ele>
        <time>2015-11-08T08:52:59Z</time>
      </trkpt>
      <trkpt lat="48.91787" lon="0.17438">
        <ele>201.46</ele>
        <time>2015-11-08T08:53:19Z</time>
      </trkpt>
      <trkpt lat="48.91785" lon="0.17442">
        <ele>201.21</ele>
        <time>2015-11-08T08:54:13Z</time>
      </trkpt>
      <trkpt lat="48.91783" lon="0.17445">
        <ele>200.97</ele>
        <time>2015-11-08T08:54:23Z</time>
      </trkpt>
      <trkpt lat="48.91785" lon="0.17427">
        <ele>202.26</ele>
        <time>2015-11-08T08:55:25Z</time>
      </trkpt>
      <trkpt lat="48.91788" lon="0.17429">
        <ele>202.14</ele>
        <time>2015-11-08T08:55:29Z</time>
      </trkpt>
      <trkpt lat="48.91789" lon="0.17433">
        <ele>201.85</ele>
        <time>2015-11-08T08:55:33Z</time>
      </trkpt>
      <trkpt lat="48.91787" lon="0.17436">
        <ele>201.61</ele>
        <time>2015-11-08T08:56:25Z</time>
      </trkpt>
      <trkpt lat="48.91784" lon="0.17438">
        <ele>201.47</ele>
        <time>2015-11-08T08:56:56Z</time>
      </trkpt>
      <trkpt lat="48.91782" lon="0.1744">
        <ele>201.32</ele>
        <time>2015-11-08T08:57:21Z</time>
      </trkpt>
      <trkpt lat="48.91779" lon="0.17441">
        <ele>201.21</ele>
        <time>2015-11-08T08:57:36Z</time>
      </trkpt>
      <trkpt lat="48.91775" lon="0.17443">
        <ele>201.09</ele>
        <time>2015-11-08T08:57:39Z</time>
      </trkpt>
      <trkpt lat="48.91772" lon="0.17444">
        <ele>201</ele>
        <time>2015-11-08T08:57:41Z</time>
      </trkpt>
      <trkpt lat="48.91769" lon="0.17446">
        <ele>200.96</ele>
        <time>2015-11-08T08:57:43Z</time>
      </trkpt>
      <trkpt lat="48.91765" lon="0.17448">
        <ele>200.93</ele>
        <time>2015-11-08T08:57:45Z</time>
      </trkpt>
      <trkpt lat="48.91761" lon="0.1745">
        <ele>200.92</ele>
        <time>2015-11-08T08:57:47Z</time>
      </trkpt>
      <trkpt lat="48.91757" lon="0.17453">
        <ele>200.92</ele>
        <time>2015-11-08T08:57:49Z</time>
      </trkpt>
      <trkpt lat="48.91753" lon="0.17456">
        <ele>200.96</ele>
        <time>2015-11-08T08:57:51Z</time>
      </trkpt>
      <trkpt lat="48.91748" lon="0.1746">
        <ele>201.07</ele>
        <time>2015-11-08T08:57:53Z</time>
      </trkpt>
      <trkpt lat="48.91746" lon="0.17462">
        <ele>201.16</ele>
        <time>2015-11-08T08:57:54Z</time>
      </trkpt>
      <trkpt lat="48.91743" lon="0.17463">
        <ele>201.26</ele>
        <time>2015-11-08T08:57:55Z</time>
      </trkpt>
      <trkpt lat="48.9174" lon="0.17465">
        <ele>201.36</ele>
        <time>2015-11-08T08:57:56Z</time>
      </trkpt>
      <trkpt lat="48.91737" lon="0.17467">
        <ele>201.47</ele>
        <time>2015-11-08T08:57:57Z</time>
      </trkpt>
      <trkpt lat="48.91734" lon="0.17469">
        <ele>201.58</ele>
        <time>2015-11-08T08:57:58Z</time>
      </trkpt>
      <trkpt lat="48.91731" lon="0.17471">
        <ele>201.69</ele>
        <time>2015-11-08T08:57:59Z</time>
      </trkpt>
      <trkpt lat="48.91728" lon="0.17472">
        <ele>201.81</ele>
        <time>2015-11-08T08:58:00Z</time>
      </trkpt>
      <trkpt lat="48.91724" lon="0.17474">
        <ele>201.96</ele>
        <time>2015-11-08T08:58:01Z</time>
      </trkpt>
      <trkpt lat="48.91722" lon="0.17475">
        <ele>202.13</ele>
        <time>2015-11-08T08:58:02Z</time>
      </trkpt>
      <trkpt lat="48.91719" lon="0.17477">
        <ele>202.29</ele>
        <time>2015-11-08T08:58:03Z</time>
      </trkpt>
      <trkpt lat="48.91716" lon="0.17479">
        <ele>202.45</ele>
        <time>2015-11-08T08:58:04Z</time>
      </trkpt>
      <trkpt lat="48.91714" lon="0.1748">
        <ele>202.6</ele>
        <time>2015-11-08T08:58:05Z</time>
      </trkpt>
      <trkpt lat="48.91711" lon="0.17482">
        <ele>202.74</ele>
        <time>2015-11-08T08:58:06Z</time>
      </trkpt>
      <trkpt lat="48.91706" lon="0.17485">
        <ele>203.02</ele>
        <time>2015-11-08T08:58:08Z</time>
      </trkpt>
      <trkpt lat="48.91702" lon="0.17487">
        <ele>203.28</ele>
        <time>2015-11-08T08:58:10Z</time>
      </trkpt>
      <trkpt lat="48.91697" lon="0.1749">
        <ele>203.54</ele>
        <time>2015-11-08T08:58:12Z</time>
      </trkpt>
      <trkpt lat="48.91692" lon="0.17492">
        <ele>203.56</ele>
        <time>2015-11-08T08:58:14Z</time>
      </trkpt>
      <trkpt lat="48.91688" lon="0.17494">
        <ele>203.32</ele>
        <time>2015-11-08T08:58:16Z</time>
      </trkpt>
      <trkpt lat="48.91683" lon="0.17496">
        <ele>203.07</ele>
        <time>2015-11-08T08:58:18Z</time>
      </trkpt>
      <trkpt lat="48.91679" lon="0.17499">
        <ele>202.83</ele>
        <time>2015-11-08T08:58:20Z</time>
      </trkpt>
      <trkpt lat="48.91674" lon="0.17501">
        <ele>202.62</ele>
        <time>2015-11-08T08:58:22Z</time>
      </trkpt>
      <trkpt lat="48.9167" lon="0.17504">
        <ele>202.42</ele>
        <time>2015-11-08T08:58:24Z</time>
      </trkpt>
      <trkpt lat="48.91667" lon="0.17506">
        <ele>202.29</ele>
        <time>2015-11-08T08:58:25Z</time>
      </trkpt>
      <trkpt lat="48.91665" lon="0.17508">
        <ele>202.18</ele>
        <time>2015-11-08T08:58:26Z</time>
      </trkpt>
      <trkpt lat="48.91662" lon="0.17509">
        <ele>202.05</ele>
        <time>2015-11-08T08:58:27Z</time>
      </trkpt>
      <trkpt lat="48.91659" lon="0.1751">
        <ele>201.91</ele>
        <time>2015-11-08T08:58:28Z</time>
      </trkpt>
      <trkpt lat="48.91656" lon="0.17511">
        <ele>201.74</ele>
        <time>2015-11-08T08:58:29Z</time>
      </trkpt>
      <trkpt lat="48.91654" lon="0.17513">
        <ele>201.56</ele>
        <time>2015-11-08T08:58:30Z</time>
      </trkpt>
      <trkpt lat="48.91651" lon="0.17514">
        <ele>201.36</ele>
        <time>2015-11-08T08:58:31Z</time>
      </trkpt>
      <trkpt lat="48.91646" lon="0.17516">
        <ele>200.98</ele>
        <time>2015-11-08T08:58:33Z</time>
      </trkpt>
      <trkpt lat="48.91641" lon="0.1752">
        <ele>200.48</ele>
        <time>2015-11-08T08:58:35Z</time>
      </trkpt>
      <trkpt lat="48.91639" lon="0.17523">
        <ele>200.19</ele>
        <time>2015-11-08T08:58:36Z</time>
      </trkpt>
      <trkpt lat="48.91637" lon="0.17525">
        <ele>200.56</ele>
        <time>2015-11-08T08:58:37Z</time>
      </trkpt>
      <trkpt lat="48.91635" lon="0.17528">
        <ele>200.92</ele>
        <time>2015-11-08T08:58:38Z</time>
      </trkpt>
      <trkpt lat="48.91632" lon="0.1753">
        <ele>201.35</ele>
        <time>2015-11-08T08:58:39Z</time>
      </trkpt>
      <trkpt lat="48.9163" lon="0.17532">
        <ele>201.79</ele>
        <time>2015-11-08T08:58:40Z</time>
      </trkpt>
      <trkpt lat="48.91626" lon="0.17533">
        <ele>202.34</ele>
        <time>2015-11-08T08:58:41Z</time>
      </trkpt>
      <trkpt lat="48.91623" lon="0.17534">
        <ele>202.93</ele>
        <time>2015-11-08T08:58:42Z</time>
      </trkpt>
      <trkpt lat="48.9162" lon="0.17535">
        <ele>203.45</ele>
        <time>2015-11-08T08:58:43Z</time>
      </trkpt>
      <trkpt lat="48.91616" lon="0.17536">
        <ele>203.93</ele>
        <time>2015-11-08T08:58:44Z</time>
      </trkpt>
      <trkpt lat="48.91613" lon="0.17538">
        <ele>204.27</ele>
        <time>2015-11-08T08:58:45Z</time>
      </trkpt>
      <trkpt lat="48.9161" lon="0.17539">
        <ele>204.36</ele>
        <time>2015-11-08T08:58:46Z</time>
      </trkpt>
      <trkpt lat="48.91607" lon="0.1754">
        <ele>204.11</ele>
        <time>2015-11-08T08:58:47Z</time>
      </trkpt>
      <trkpt lat="48.91604" lon="0.17541">
        <ele>203.92</ele>
        <time>2015-11-08T08:58:48Z</time>
      </trkpt>
      <trkpt lat="48.916" lon="0.17542">
        <ele>203.74</ele>
        <time>2015-11-08T08:58:49Z</time>
      </trkpt>
      <trkpt lat="48.91597" lon="0.17543">
        <ele>203.56</ele>
        <time>2015-11-08T08:58:50Z</time>
      </trkpt>
      <trkpt lat="48.91594" lon="0.17544">
        <ele>203.36</ele>
        <time>2015-11-08T08:58:51Z</time>
      </trkpt>
      <trkpt lat="48.91591" lon="0.17546">
        <ele>203.16</ele>
        <time>2015-11-08T08:58:52Z</time>
      </trkpt>
      <trkpt lat="48.91589" lon="0.17547">
        <ele>202.95</ele>
        <time>2015-11-08T08:58:53Z</time>
      </trkpt>
      <trkpt lat="48.91586" lon="0.17549">
        <ele>202.71</ele>
        <time>2015-11-08T08:58:54Z</time>
      </trkpt>
      <trkpt lat="48.91583" lon="0.17551">
        <ele>202.53</ele>
        <time>2015-11-08T08:58:55Z</time>
      </trkpt>
      <trkpt lat="48.91578" lon="0.17554">
        <ele>202.5</ele>
        <time>2015-11-08T08:58:57Z</time>
      </trkpt>
      <trkpt lat="48.91573" lon="0.17558">
        <ele>202.44</ele>
        <time>2015-11-08T08:58:59Z</time>
      </trkpt>
      <trkpt lat="48.91571" lon="0.1756">
        <ele>202.41</ele>
        <time>2015-11-08T08:59:00Z</time>
      </trkpt>
      <trkpt lat="48.91568" lon="0.17562">
        <ele>202.4</ele>
        <time>2015-11-08T08:59:01Z</time>
      </trkpt>
      <trkpt lat="48.91565" lon="0.17564">
        <ele>202.41</ele>
        <time>2015-11-08T08:59:02Z</time>
      </trkpt>
      <trkpt lat="48.91562" lon="0.17565">
        <ele>202.47</ele>
        <time>2015-11-08T08:59:03Z</time>
      </trkpt>
      <trkpt lat="48.9156" lon="0.17566">
        <ele>202.53</ele>
        <time>2015-11-08T08:59:04Z</time>
      </trkpt>
      <trkpt lat="48.91557" lon="0.17568">
        <ele>202.58</ele>
        <time>2015-11-08T08:59:05Z</time>
      </trkpt>
      <trkpt lat="48.91554" lon="0.1757">
        <ele>202.17</ele>
        <time>2015-11-08T08:59:06Z</time>
      </trkpt>
      <trkpt lat="48.9155" lon="0.17575">
        <ele>200.77</ele>
        <time>2015-11-08T08:59:08Z</time>
      </trkpt>
      <trkpt lat="48.91549" lon="0.17579">
        <ele>199.88</ele>
        <time>2015-11-08T08:59:10Z</time>
      </trkpt>
      <trkpt lat="48.91548" lon="0.17584">
        <ele>199.34</ele>
        <time>2015-11-08T09:00:25Z</time>
      </trkpt>
      <trkpt lat="48.91546" lon="0.1758">
        <ele>199.24</ele>
        <time>2015-11-08T09:02:29Z</time>
      </trkpt>
      <trkpt lat="48.91543" lon="0.17582">
        <ele>198.44</ele>
        <time>2015-11-08T09:02:54Z</time>
      </trkpt>
      <trkpt lat="48.91539" lon="0.17583">
        <ele>197.5</ele>
        <time>2015-11-08T09:02:57Z</time>
      </trkpt>
      <trkpt lat="48.91536" lon="0.17584">
        <ele>196.83</ele>
        <time>2015-11-08T09:02:59Z</time>
      </trkpt>
      <trkpt lat="48.91533" lon="0.17584">
        <ele>196.04</ele>
        <time>2015-11-08T09:03:01Z</time>
      </trkpt>
      <trkpt lat="48.91528" lon="0.17586">
        <ele>195.13</ele>
        <time>2015-11-08T09:03:03Z</time>
      </trkpt>
      <trkpt lat="48.91525" lon="0.17587">
        <ele>195.21</ele>
        <time>2015-11-08T09:03:04Z</time>
      </trkpt>
      <trkpt lat="48.91522" lon="0.17589">
        <ele>195.32</ele>
        <time>2015-11-08T09:03:05Z</time>
      </trkpt>
      <trkpt lat="48.9152" lon="0.17591">
        <ele>195.41</ele>
        <time>2015-11-08T09:03:06Z</time>
      </trkpt>
      <trkpt lat="48.91517" lon="0.17593">
        <ele>195.47</ele>
        <time>2015-11-08T09:03:07Z</time>
      </trkpt>
      <trkpt lat="48.91514" lon="0.17594">
        <ele>195.5</ele>
        <time>2015-11-08T09:03:08Z</time>
      </trkpt>
      <trkpt lat="48.91512" lon="0.17595">
        <ele>195.51</ele>
        <time>2015-11-08T09:03:09Z</time>
      </trkpt>
      <trkpt lat="48.91509" lon="0.17596">
        <ele>195.52</ele>
        <time>2015-11-08T09:03:10Z</time>
      </trkpt>
      <trkpt lat="48.91506" lon="0.17597">
        <ele>195.51</ele>
        <time>2015-11-08T09:03:11Z</time>
      </trkpt>
      <trkpt lat="48.91503" lon="0.17598">
        <ele>195.48</ele>
        <time>2015-11-08T09:03:12Z</time>
      </trkpt>
      <trkpt lat="48.91501" lon="0.17599">
        <ele>195.44</ele>
        <time>2015-11-08T09:03:13Z</time>
      </trkpt>
      <trkpt lat="48.91498" lon="0.176">
        <ele>195.45</ele>
        <time>2015-11-08T09:03:14Z</time>
      </trkpt>
      <trkpt lat="48.91495" lon="0.17601">
        <ele>195.48</ele>
        <time>2015-11-08T09:03:15Z</time>
      </trkpt>
      <trkpt lat="48.91492" lon="0.17602">
        <ele>195.52</ele>
        <time>2015-11-08T09:03:16Z</time>
      </trkpt>
      <trkpt lat="48.91489" lon="0.17603">
        <ele>195.58</ele>
        <time>2015-11-08T09:03:17Z</time>
      </trkpt>
      <trkpt lat="48.91486" lon="0.17603">
        <ele>195.66</ele>
        <time>2015-11-08T09:03:18Z</time>
      </trkpt>
      <trkpt lat="48.91483" lon="0.17604">
        <ele>195.72</ele>
        <time>2015-11-08T09:03:19Z</time>
      </trkpt>
      <trkpt lat="48.9148" lon="0.17606">
        <ele>195.77</ele>
        <time>2015-11-08T09:03:20Z</time>
      </trkpt>
      <trkpt lat="48.91478" lon="0.17609">
        <ele>195.82</ele>
        <time>2015-11-08T09:03:21Z</time>
      </trkpt>
      <trkpt lat="48.91475" lon="0.17612">
        <ele>195.9</ele>
        <time>2015-11-08T09:03:22Z</time>
      </trkpt>
      <trkpt lat="48.91472" lon="0.17615">
        <ele>196</ele>
        <time>2015-11-08T09:03:23Z</time>
      </trkpt>
      <trkpt lat="48.9147" lon="0.17617">
        <ele>195.83</ele>
        <time>2015-11-08T09:03:24Z</time>
      </trkpt>
      <trkpt lat="48.91466" lon="0.1762">
        <ele>195.64</ele>
        <time>2015-11-08T09:03:25Z</time>
      </trkpt>
      <trkpt lat="48.91459" lon="0.17627">
        <ele>195.3</ele>
        <time>2015-11-08T09:03:26Z</time>
      </trkpt>
      <trkpt lat="48.91454" lon="0.17631">
        <ele>195.13</ele>
        <time>2015-11-08T09:03:27Z</time>
      </trkpt>
      <trkpt lat="48.91449" lon="0.17632">
        <ele>194.98</ele>
        <time>2015-11-08T09:03:28Z</time>
      </trkpt>
      <trkpt lat="48.91445" lon="0.17634">
        <ele>194.87</ele>
        <time>2015-11-08T09:03:29Z</time>
      </trkpt>
      <trkpt lat="48.91441" lon="0.17637">
        <ele>194.28</ele>
        <time>2015-11-08T09:03:30Z</time>
      </trkpt>
      <trkpt lat="48.91437" lon="0.17638">
        <ele>193.62</ele>
        <time>2015-11-08T09:03:31Z</time>
      </trkpt>
      <trkpt lat="48.91432" lon="0.1764">
        <ele>192.89</ele>
        <time>2015-11-08T09:03:32Z</time>
      </trkpt>
      <trkpt lat="48.91428" lon="0.17639">
        <ele>192.14</ele>
        <time>2015-11-08T09:03:33Z</time>
      </trkpt>
      <trkpt lat="48.91424" lon="0.17642">
        <ele>191.41</ele>
        <time>2015-11-08T09:03:34Z</time>
      </trkpt>
      <trkpt lat="48.91419" lon="0.17644">
        <ele>190.58</ele>
        <time>2015-11-08T09:03:35Z</time>
      </trkpt>
      <trkpt lat="48.91414" lon="0.17647">
        <ele>189.16</ele>
        <time>2015-11-08T09:03:36Z</time>
      </trkpt>
      <trkpt lat="48.9141" lon="0.17649">
        <ele>187.82</ele>
        <time>2015-11-08T09:03:37Z</time>
      </trkpt>
      <trkpt lat="48.91405" lon="0.1765">
        <ele>186.26</ele>
        <time>2015-11-08T09:03:38Z</time>
      </trkpt>
      <trkpt lat="48.91402" lon="0.17651">
        <ele>185.27</ele>
        <time>2015-11-08T09:03:39Z</time>
      </trkpt>
      <trkpt lat="48.91399" lon="0.17654">
        <ele>184.31</ele>
        <time>2015-11-08T09:03:40Z</time>
      </trkpt>
      <trkpt lat="48.91396" lon="0.17658">
        <ele>183.34</ele>
        <time>2015-11-08T09:03:41Z</time>
      </trkpt>
      <trkpt lat="48.91392" lon="0.17664">
        <ele>181.88</ele>
        <time>2015-11-08T09:03:42Z</time>
      </trkpt>
      <trkpt lat="48.91388" lon="0.17668">
        <ele>180.93</ele>
        <time>2015-11-08T09:03:43Z</time>
      </trkpt>
      <trkpt lat="48.91385" lon="0.1767">
        <ele>180.25</ele>
        <time>2015-11-08T09:03:44Z</time>
      </trkpt>
      <trkpt lat="48.91382" lon="0.17672">
        <ele>179.33</ele>
        <time>2015-11-08T09:03:46Z</time>
      </trkpt>
      <trkpt lat="48.91379" lon="0.17675">
        <ele>178.63</ele>
        <time>2015-11-08T09:03:48Z</time>
      </trkpt>
      <trkpt lat="48.91376" lon="0.17678">
        <ele>178.05</ele>
        <time>2015-11-08T09:03:49Z</time>
      </trkpt>
      <trkpt lat="48.91373" lon="0.17681">
        <ele>177.54</ele>
        <time>2015-11-08T09:03:50Z</time>
      </trkpt>
      <trkpt lat="48.91371" lon="0.17685">
        <ele>177.21</ele>
        <time>2015-11-08T09:03:51Z</time>
      </trkpt>
      <trkpt lat="48.91368" lon="0.17688">
        <ele>176.52</ele>
        <time>2015-11-08T09:03:52Z</time>
      </trkpt>
      <trkpt lat="48.91365" lon="0.1769">
        <ele>175.8</ele>
        <time>2015-11-08T09:03:53Z</time>
      </trkpt>
      <trkpt lat="48.91362" lon="0.17692">
        <ele>175.2</ele>
        <time>2015-11-08T09:03:54Z</time>
      </trkpt>
      <trkpt lat="48.9136" lon="0.17694">
        <ele>174.78</ele>
        <time>2015-11-08T09:03:55Z</time>
      </trkpt>
      <trkpt lat="48.91357" lon="0.17696">
        <ele>174.38</ele>
        <time>2015-11-08T09:03:56Z</time>
      </trkpt>
      <trkpt lat="48.91355" lon="0.17698">
        <ele>173.94</ele>
        <time>2015-11-08T09:03:57Z</time>
      </trkpt>
      <trkpt lat="48.9135" lon="0.17702">
        <ele>173.04</ele>
        <time>2015-11-08T09:03:59Z</time>
      </trkpt>
      <trkpt lat="48.91347" lon="0.17704">
        <ele>172.5</ele>
        <time>2015-11-08T09:04:00Z</time>
      </trkpt>
      <trkpt lat="48.91345" lon="0.17706">
        <ele>171.95</ele>
        <time>2015-11-08T09:04:01Z</time>
      </trkpt>
      <trkpt lat="48.91342" lon="0.17708">
        <ele>171.39</ele>
        <time>2015-11-08T09:04:02Z</time>
      </trkpt>
      <trkpt lat="48.91339" lon="0.1771">
        <ele>170.79</ele>
        <time>2015-11-08T09:04:03Z</time>
      </trkpt>
      <trkpt lat="48.91337" lon="0.17712">
        <ele>170.09</ele>
        <time>2015-11-08T09:04:04Z</time>
      </trkpt>
      <trkpt lat="48.91334" lon="0.17714">
        <ele>169.36</ele>
        <time>2015-11-08T09:04:05Z</time>
      </trkpt>
      <trkpt lat="48.91331" lon="0.17716">
        <ele>168.97</ele>
        <time>2015-11-08T09:04:06Z</time>
      </trkpt>
      <trkpt lat="48.91328" lon="0.17718">
        <ele>168.67</ele>
        <time>2015-11-08T09:04:07Z</time>
      </trkpt>
      <trkpt lat="48.91325" lon="0.1772">
        <ele>168.43</ele>
        <time>2015-11-08T09:04:08Z</time>
      </trkpt>
      <trkpt lat="48.91323" lon="0.17723">
        <ele>168.25</ele>
        <time>2015-11-08T09:04:09Z</time>
      </trkpt>
      <trkpt lat="48.91321" lon="0.17726">
        <ele>168.12</ele>
        <time>2015-11-08T09:04:10Z</time>
      </trkpt>
      <trkpt lat="48.91318" lon="0.17728">
        <ele>168.06</ele>
        <time>2015-11-08T09:04:11Z</time>
      </trkpt>
      <trkpt lat="48.91316" lon="0.1773">
        <ele>168.06</ele>
        <time>2015-11-08T09:04:12Z</time>
      </trkpt>
      <trkpt lat="48.91313" lon="0.17731">
        <ele>168.07</ele>
        <time>2015-11-08T09:04:13Z</time>
      </trkpt>
      <trkpt lat="48.91307" lon="0.17731">
        <ele>167.99</ele>
        <time>2015-11-08T09:04:15Z</time>
      </trkpt>
      <trkpt lat="48.91304" lon="0.17731">
        <ele>167.62</ele>
        <time>2015-11-08T09:04:16Z</time>
      </trkpt>
      <trkpt lat="48.91301" lon="0.17731">
        <ele>166.84</ele>
        <time>2015-11-08T09:04:17Z</time>
      </trkpt>
      <trkpt lat="48.91298" lon="0.17731">
        <ele>166.11</ele>
        <time>2015-11-08T09:04:18Z</time>
      </trkpt>
      <trkpt lat="48.91295" lon="0.17732">
        <ele>165.36</ele>
        <time>2015-11-08T09:04:19Z</time>
      </trkpt>
      <trkpt lat="48.91292" lon="0.17731">
        <ele>164.54</ele>
        <time>2015-11-08T09:04:20Z</time>
      </trkpt>
      <trkpt lat="48.91289" lon="0.17731">
        <ele>163.71</ele>
        <time>2015-11-08T09:04:21Z</time>
      </trkpt>
      <trkpt lat="48.91285" lon="0.1773">
        <ele>162.82</ele>
        <time>2015-11-08T09:04:22Z</time>
      </trkpt>
      <trkpt lat="48.91282" lon="0.17729">
        <ele>161.83</ele>
        <time>2015-11-08T09:04:23Z</time>
      </trkpt>
      <trkpt lat="48.91279" lon="0.17727">
        <ele>160.78</ele>
        <time>2015-11-08T09:04:24Z</time>
      </trkpt>
      <trkpt lat="48.91275" lon="0.17725">
        <ele>160.02</ele>
        <time>2015-11-08T09:04:25Z</time>
      </trkpt>
      <trkpt lat="48.91272" lon="0.17723">
        <ele>159.45</ele>
        <time>2015-11-08T09:04:26Z</time>
      </trkpt>
      <trkpt lat="48.91268" lon="0.17721">
        <ele>158.88</ele>
        <time>2015-11-08T09:04:27Z</time>
      </trkpt>
      <trkpt lat="48.91265" lon="0.17718">
        <ele>158.34</ele>
        <time>2015-11-08T09:04:28Z</time>
      </trkpt>
      <trkpt lat="48.91262" lon="0.17716">
        <ele>157.82</ele>
        <time>2015-11-08T09:04:29Z</time>
      </trkpt>
      <trkpt lat="48.91258" lon="0.17712">
        <ele>157.33</ele>
        <time>2015-11-08T09:04:30Z</time>
      </trkpt>
      <trkpt lat="48.91256" lon="0.17708">
        <ele>156.91</ele>
        <time>2015-11-08T09:04:31Z</time>
      </trkpt>
      <trkpt lat="48.91253" lon="0.17705">
        <ele>156.55</ele>
        <time>2015-11-08T09:04:32Z</time>
      </trkpt>
      <trkpt lat="48.91251" lon="0.17701">
        <ele>156.26</ele>
        <time>2015-11-08T09:04:33Z</time>
      </trkpt>
      <trkpt lat="48.91248" lon="0.17697">
        <ele>156.05</ele>
        <time>2015-11-08T09:04:34Z</time>
      </trkpt>
      <trkpt lat="48.91246" lon="0.17695">
        <ele>155.86</ele>
        <time>2015-11-08T09:04:35Z</time>
      </trkpt>
      <trkpt lat="48.91243" lon="0.17692">
        <ele>155.58</ele>
        <time>2015-11-08T09:04:36Z</time>
      </trkpt>
      <trkpt lat="48.91241" lon="0.17689">
        <ele>155.33</ele>
        <time>2015-11-08T09:04:37Z</time>
      </trkpt>
      <trkpt lat="48.91238" lon="0.17686">
        <ele>155.11</ele>
        <time>2015-11-08T09:04:38Z</time>
      </trkpt>
      <trkpt lat="48.91235" lon="0.17684">
        <ele>154.94</ele>
        <time>2015-11-08T09:04:39Z</time>
      </trkpt>
      <trkpt lat="48.91232" lon="0.17683">
        <ele>154.82</ele>
        <time>2015-11-08T09:04:40Z</time>
      </trkpt>
      <trkpt lat="48.9123" lon="0.17682">
        <ele>154.72</ele>
        <time>2015-11-08T09:04:43Z</time>
      </trkpt>
      <trkpt lat="48.91227" lon="0.1768">
        <ele>154.56</ele>
        <time>2015-11-08T09:05:26Z</time>
      </trkpt>
      <trkpt lat="48.91224" lon="0.17683">
        <ele>154.61</ele>
        <time>2015-11-08T09:06:10Z</time>
      </trkpt>
      <trkpt lat="48.91222" lon="0.17686">
        <ele>154.72</ele>
        <time>2015-11-08T09:06:12Z</time>
      </trkpt>
      <trkpt lat="48.91219" lon="0.17694">
        <ele>155.09</ele>
        <time>2015-11-08T09:06:14Z</time>
      </trkpt>
      <trkpt lat="48.91218" lon="0.17699">
        <ele>155.42</ele>
        <time>2015-11-08T09:06:15Z</time>
      </trkpt>
      <trkpt lat="48.91217" lon="0.17704">
        <ele>155.72</ele>
        <time>2015-11-08T09:06:16Z</time>
      </trkpt>
      <trkpt lat="48.91216" lon="0.17708">
        <ele>155.99</ele>
        <time>2015-11-08T09:06:17Z</time>
      </trkpt>
      <trkpt lat="48.91216" lon="0.17712">
        <ele>156.22</ele>
        <time>2015-11-08T09:06:18Z</time>
      </trkpt>
      <trkpt lat="48.91215" lon="0.17716">
        <ele>156.43</ele>
        <time>2015-11-08T09:06:19Z</time>
      </trkpt>
      <trkpt lat="48.91214" lon="0.1772">
        <ele>156.6</ele>
        <time>2015-11-08T09:06:20Z</time>
      </trkpt>
      <trkpt lat="48.91212" lon="0.17724">
        <ele>156.66</ele>
        <time>2015-11-08T09:06:21Z</time>
      </trkpt>
      <trkpt lat="48.91209" lon="0.17726">
        <ele>156.62</ele>
        <time>2015-11-08T09:06:22Z</time>
      </trkpt>
      <trkpt lat="48.91205" lon="0.17729">
        <ele>156.45</ele>
        <time>2015-11-08T09:06:24Z</time>
      </trkpt>
      <trkpt lat="48.912" lon="0.17731">
        <ele>156.26</ele>
        <time>2015-11-08T09:06:26Z</time>
      </trkpt>
      <trkpt lat="48.91197" lon="0.17731">
        <ele>156.12</ele>
        <time>2015-11-08T09:06:32Z</time>
      </trkpt>
      <trkpt lat="48.91193" lon="0.17733">
        <ele>156.33</ele>
        <time>2015-11-08T09:06:36Z</time>
      </trkpt>
      <trkpt lat="48.9119" lon="0.17735">
        <ele>157.2</ele>
        <time>2015-11-08T09:06:39Z</time>
      </trkpt>
      <trkpt lat="48.91187" lon="0.17736">
        <ele>157.93</ele>
        <time>2015-11-08T09:06:43Z</time>
      </trkpt>
      <trkpt lat="48.91184" lon="0.17736">
        <ele>158.82</ele>
        <time>2015-11-08T09:06:49Z</time>
      </trkpt>
      <trkpt lat="48.9118" lon="0.17736">
        <ele>159.95</ele>
        <time>2015-11-08T09:06:51Z</time>
      </trkpt>
      <trkpt lat="48.91175" lon="0.17736">
        <ele>161.25</ele>
        <time>2015-11-08T09:06:53Z</time>
      </trkpt>
      <trkpt lat="48.91171" lon="0.17737">
        <ele>162.49</ele>
        <time>2015-11-08T09:06:55Z</time>
      </trkpt>
      <trkpt lat="48.91167" lon="0.1774">
        <ele>163.72</ele>
        <time>2015-11-08T09:06:57Z</time>
      </trkpt>
      <trkpt lat="48.91164" lon="0.17742">
        <ele>164.84</ele>
        <time>2015-11-08T09:06:59Z</time>
      </trkpt>
      <trkpt lat="48.91161" lon="0.17742">
        <ele>165.83</ele>
        <time>2015-11-08T09:07:01Z</time>
      </trkpt>
      <trkpt lat="48.91158" lon="0.17743">
        <ele>166.79</ele>
        <time>2015-11-08T09:07:03Z</time>
      </trkpt>
      <trkpt lat="48.91155" lon="0.17742">
        <ele>167.76</ele>
        <time>2015-11-08T09:07:05Z</time>
      </trkpt>
      <trkpt lat="48.91153" lon="0.17742">
        <ele>168.6</ele>
        <time>2015-11-08T09:07:08Z</time>
      </trkpt>
      <trkpt lat="48.91149" lon="0.17741">
        <ele>169.47</ele>
        <time>2015-11-08T09:07:14Z</time>
      </trkpt>
      <trkpt lat="48.91146" lon="0.1774">
        <ele>170.15</ele>
        <time>2015-11-08T09:07:18Z</time>
      </trkpt>
      <trkpt lat="48.91144" lon="0.1774">
        <ele>171.09</ele>
        <time>2015-11-08T09:07:21Z</time>
      </trkpt>
      <trkpt lat="48.91141" lon="0.17742">
        <ele>172.22</ele>
        <time>2015-11-08T09:07:24Z</time>
      </trkpt>
      <trkpt lat="48.91138" lon="0.17743">
        <ele>173.18</ele>
        <time>2015-11-08T09:07:27Z</time>
      </trkpt>
      <trkpt lat="48.91135" lon="0.17743">
        <ele>173.8</ele>
        <time>2015-11-08T09:07:30Z</time>
      </trkpt>
      <trkpt lat="48.91132" lon="0.17742">
        <ele>174.39</ele>
        <time>2015-11-08T09:07:34Z</time>
      </trkpt>
      <trkpt lat="48.9113" lon="0.17742">
        <ele>175.05</ele>
        <time>2015-11-08T09:07:39Z</time>
      </trkpt>
      <trkpt lat="48.91127" lon="0.17743">
        <ele>175.8</ele>
        <time>2015-11-08T09:07:53Z</time>
      </trkpt>
      <trkpt lat="48.91123" lon="0.17743">
        <ele>176.62</ele>
        <time>2015-11-08T09:07:56Z</time>
      </trkpt>
      <trkpt lat="48.9112" lon="0.17743">
        <ele>177.34</ele>
        <time>2015-11-08T09:07:58Z</time>
      </trkpt>
      <trkpt lat="48.91118" lon="0.17742">
        <ele>177.92</ele>
        <time>2015-11-08T09:08:00Z</time>
      </trkpt>
      <trkpt lat="48.91114" lon="0.17742">
        <ele>178.62</ele>
        <time>2015-11-08T09:08:02Z</time>
      </trkpt>
      <trkpt lat="48.91111" lon="0.17741">
        <ele>179.31</ele>
        <time>2015-11-08T09:08:04Z</time>
      </trkpt>
      <trkpt lat="48.91108" lon="0.17741">
        <ele>179.76</ele>
        <time>2015-11-08T09:08:08Z</time>
      </trkpt>
      <trkpt lat="48.91105" lon="0.17741">
        <ele>180.11</ele>
        <time>2015-11-08T09:08:11Z</time>
      </trkpt>
      <trkpt lat="48.91103" lon="0.1774">
        <ele>180.41</ele>
        <time>2015-11-08T09:08:14Z</time>
      </trkpt>
      <trkpt lat="48.91099" lon="0.17738">
        <ele>180.85</ele>
        <time>2015-11-08T09:08:17Z</time>
      </trkpt>
      <trkpt lat="48.91096" lon="0.17738">
        <ele>181.25</ele>
        <time>2015-11-08T09:08:20Z</time>
      </trkpt>
      <trkpt lat="48.91093" lon="0.17737">
        <ele>181.67</ele>
        <time>2015-11-08T09:08:39Z</time>
      </trkpt>
      <trkpt lat="48.91089" lon="0.17738">
        <ele>182.15</ele>
        <time>2015-11-08T09:08:43Z</time>
      </trkpt>
      <trkpt lat="48.91087" lon="0.17739">
        <ele>182.54</ele>
        <time>2015-11-08T09:08:46Z</time>
      </trkpt>
      <trkpt lat="48.91083" lon="0.17738">
        <ele>183.07</ele>
        <time>2015-11-08T09:08:49Z</time>
      </trkpt>
      <trkpt lat="48.91079" lon="0.17739">
        <ele>183.74</ele>
        <time>2015-11-08T09:08:51Z</time>
      </trkpt>
      <trkpt lat="48.91075" lon="0.17741">
        <ele>184.42</ele>
        <time>2015-11-08T09:08:53Z</time>
      </trkpt>
      <trkpt lat="48.91073" lon="0.17742">
        <ele>184.96</ele>
        <time>2015-11-08T09:08:55Z</time>
      </trkpt>
      <trkpt lat="48.91069" lon="0.17742">
        <ele>185.61</ele>
        <time>2015-11-08T09:08:57Z</time>
      </trkpt>
      <trkpt lat="48.91066" lon="0.17743">
        <ele>186.35</ele>
        <time>2015-11-08T09:08:59Z</time>
      </trkpt>
      <trkpt lat="48.91063" lon="0.17744">
        <ele>186.92</ele>
        <time>2015-11-08T09:09:01Z</time>
      </trkpt>
      <trkpt lat="48.9106" lon="0.17745">
        <ele>187.59</ele>
        <time>2015-11-08T09:09:03Z</time>
      </trkpt>
      <trkpt lat="48.91057" lon="0.17744">
        <ele>188.09</ele>
        <time>2015-11-08T09:09:10Z</time>
      </trkpt>
      <trkpt lat="48.91054" lon="0.17745">
        <ele>188.74</ele>
        <time>2015-11-08T09:09:17Z</time>
      </trkpt>
      <trkpt lat="48.91051" lon="0.17745">
        <ele>189.37</ele>
        <time>2015-11-08T09:09:20Z</time>
      </trkpt>
      <trkpt lat="48.91048" lon="0.17745">
        <ele>190.21</ele>
        <time>2015-11-08T09:09:25Z</time>
      </trkpt>
      <trkpt lat="48.91045" lon="0.17746">
        <ele>190.94</ele>
        <time>2015-11-08T09:09:28Z</time>
      </trkpt>
      <trkpt lat="48.91041" lon="0.17747">
        <ele>191.77</ele>
        <time>2015-11-08T09:09:31Z</time>
      </trkpt>
      <trkpt lat="48.91039" lon="0.17748">
        <ele>192.46</ele>
        <time>2015-11-08T09:09:34Z</time>
      </trkpt>
      <trkpt lat="48.91036" lon="0.17749">
        <ele>193.17</ele>
        <time>2015-11-08T09:09:37Z</time>
      </trkpt>
      <trkpt lat="48.91033" lon="0.17748">
        <ele>193.77</ele>
        <time>2015-11-08T09:09:40Z</time>
      </trkpt>
      <trkpt lat="48.9103" lon="0.17748">
        <ele>194.42</ele>
        <time>2015-11-08T09:09:43Z</time>
      </trkpt>
      <trkpt lat="48.91027" lon="0.17746">
        <ele>194.73</ele>
        <time>2015-11-08T09:09:46Z</time>
      </trkpt>
      <trkpt lat="48.91021" lon="0.17742">
        <ele>194.37</ele>
        <time>2015-11-08T09:10:26Z</time>
      </trkpt>
      <trkpt lat="48.91024" lon="0.17741">
        <ele>194.36</ele>
        <time>2015-11-08T09:10:29Z</time>
      </trkpt>
      <trkpt lat="48.91021" lon="0.17738">
        <ele>194.22</ele>
        <time>2015-11-08T09:11:30Z</time>
      </trkpt>
      <trkpt lat="48.91019" lon="0.17733">
        <ele>194.06</ele>
        <time>2015-11-08T09:11:32Z</time>
      </trkpt>
      <trkpt lat="48.91017" lon="0.17727">
        <ele>193.92</ele>
        <time>2015-11-08T09:11:34Z</time>
      </trkpt>
      <trkpt lat="48.91015" lon="0.17721">
        <ele>193.9</ele>
        <time>2015-11-08T09:11:36Z</time>
      </trkpt>
      <trkpt lat="48.91013" lon="0.17716">
        <ele>194.08</ele>
        <time>2015-11-08T09:11:38Z</time>
      </trkpt>
      <trkpt lat="48.9101" lon="0.17713">
        <ele>194.39</ele>
        <time>2015-11-08T09:11:40Z</time>
      </trkpt>
      <trkpt lat="48.91005" lon="0.17713">
        <ele>194.83</ele>
        <time>2015-11-08T09:11:42Z</time>
      </trkpt>
      <trkpt lat="48.91" lon="0.17714">
        <ele>195.26</ele>
        <time>2015-11-08T09:11:44Z</time>
      </trkpt>
      <trkpt lat="48.90995" lon="0.17715">
        <ele>195.44</ele>
        <time>2015-11-08T09:11:46Z</time>
      </trkpt>
      <trkpt lat="48.90991" lon="0.17714">
        <ele>195.64</ele>
        <time>2015-11-08T09:11:48Z</time>
      </trkpt>
      <trkpt lat="48.90986" lon="0.17713">
        <ele>195.86</ele>
        <time>2015-11-08T09:11:50Z</time>
      </trkpt>
      <trkpt lat="48.90981" lon="0.17711">
        <ele>196.05</ele>
        <time>2015-11-08T09:11:52Z</time>
      </trkpt>
      <trkpt lat="48.90977" lon="0.1771">
        <ele>196.25</ele>
        <time>2015-11-08T09:11:54Z</time>
      </trkpt>
      <trkpt lat="48.90974" lon="0.17709">
        <ele>196.41</ele>
        <time>2015-11-08T09:11:56Z</time>
      </trkpt>
      <trkpt lat="48.90971" lon="0.17707">
        <ele>196.57</ele>
        <time>2015-11-08T09:12:02Z</time>
      </trkpt>
      <trkpt lat="48.90972" lon="0.17703">
        <ele>196.71</ele>
        <time>2015-11-08T09:13:00Z</time>
      </trkpt>
      <trkpt lat="48.90972" lon="0.17699">
        <ele>196.85</ele>
        <time>2015-11-08T09:13:04Z</time>
      </trkpt>
      <trkpt lat="48.90972" lon="0.17694">
        <ele>196.97</ele>
        <time>2015-11-08T09:13:10Z</time>
      </trkpt>
      <trkpt lat="48.90972" lon="0.17689">
        <ele>196.37</ele>
        <time>2015-11-08T09:13:12Z</time>
      </trkpt>
      <trkpt lat="48.90973" lon="0.17682">
        <ele>195.67</ele>
        <time>2015-11-08T09:13:14Z</time>
      </trkpt>
      <trkpt lat="48.90974" lon="0.17675">
        <ele>194.93</ele>
        <time>2015-11-08T09:13:16Z</time>
      </trkpt>
      <trkpt lat="48.90975" lon="0.17667">
        <ele>194.15</ele>
        <time>2015-11-08T09:13:18Z</time>
      </trkpt>
      <trkpt lat="48.90975" lon="0.17659">
        <ele>193.59</ele>
        <time>2015-11-08T09:13:20Z</time>
      </trkpt>
      <trkpt lat="48.90975" lon="0.17651">
        <ele>193.11</ele>
        <time>2015-11-08T09:13:22Z</time>
      </trkpt>
      <trkpt lat="48.90976" lon="0.17647">
        <ele>192.9</ele>
        <time>2015-11-08T09:13:23Z</time>
      </trkpt>
      <trkpt lat="48.90977" lon="0.17639">
        <ele>192.48</ele>
        <time>2015-11-08T09:13:25Z</time>
      </trkpt>
      <trkpt lat="48.90977" lon="0.17631">
        <ele>192.34</ele>
        <time>2015-11-08T09:13:27Z</time>
      </trkpt>
      <trkpt lat="48.90978" lon="0.17623">
        <ele>192.26</ele>
        <time>2015-11-08T09:13:29Z</time>
      </trkpt>
      <trkpt lat="48.90978" lon="0.17616">
        <ele>192.18</ele>
        <time>2015-11-08T09:13:31Z</time>
      </trkpt>
      <trkpt lat="48.90978" lon="0.17608">
        <ele>192.18</ele>
        <time>2015-11-08T09:13:33Z</time>
      </trkpt>
      <trkpt lat="48.90979" lon="0.176">
        <ele>192.37</ele>
        <time>2015-11-08T09:13:35Z</time>
      </trkpt>
      <trkpt lat="48.90979" lon="0.17592">
        <ele>192.55</ele>
        <time>2015-11-08T09:13:37Z</time>
      </trkpt>
      <trkpt lat="48.90979" lon="0.17588">
        <ele>192.6</ele>
        <time>2015-11-08T09:13:38Z</time>
      </trkpt>
      <trkpt lat="48.90978" lon="0.17584">
        <ele>192.63</ele>
        <time>2015-11-08T09:13:39Z</time>
      </trkpt>
      <trkpt lat="48.90978" lon="0.1758">
        <ele>193.33</ele>
        <time>2015-11-08T09:13:40Z</time>
      </trkpt>
      <trkpt lat="48.90978" lon="0.17572">
        <ele>195.02</ele>
        <time>2015-11-08T09:13:42Z</time>
      </trkpt>
      <trkpt lat="48.90978" lon="0.17564">
        <ele>196.6</ele>
        <time>2015-11-08T09:13:44Z</time>
      </trkpt>
      <trkpt lat="48.90979" lon="0.17556">
        <ele>198.2</ele>
        <time>2015-11-08T09:13:46Z</time>
      </trkpt>
      <trkpt lat="48.90979" lon="0.17549">
        <ele>199.54</ele>
        <time>2015-11-08T09:13:48Z</time>
      </trkpt>
      <trkpt lat="48.90979" lon="0.17541">
        <ele>200.89</ele>
        <time>2015-11-08T09:13:50Z</time>
      </trkpt>
      <trkpt lat="48.90979" lon="0.17533">
        <ele>202.21</ele>
        <time>2015-11-08T09:13:52Z</time>
      </trkpt>
      <trkpt lat="48.90979" lon="0.17525">
        <ele>202.61</ele>
        <time>2015-11-08T09:13:54Z</time>
      </trkpt>
      <trkpt lat="48.9098" lon="0.17517">
        <ele>201.51</ele>
        <time>2015-11-08T09:13:56Z</time>
      </trkpt>
      <trkpt lat="48.90979" lon="0.1751">
        <ele>200.58</ele>
        <time>2015-11-08T09:13:58Z</time>
      </trkpt>
      <trkpt lat="48.90979" lon="0.17502">
        <ele>199.57</ele>
        <time>2015-11-08T09:14:00Z</time>
      </trkpt>
      <trkpt lat="48.90979" lon="0.17494">
        <ele>199.28</ele>
        <time>2015-11-08T09:14:02Z</time>
      </trkpt>
      <trkpt lat="48.90979" lon="0.17487">
        <ele>199.34</ele>
        <time>2015-11-08T09:14:04Z</time>
      </trkpt>
      <trkpt lat="48.90979" lon="0.17479">
        <ele>199.35</ele>
        <time>2015-11-08T09:14:06Z</time>
      </trkpt>
      <trkpt lat="48.90979" lon="0.17471">
        <ele>199.31</ele>
        <time>2015-11-08T09:14:08Z</time>
      </trkpt>
      <trkpt lat="48.90978" lon="0.17463">
        <ele>198.92</ele>
        <time>2015-11-08T09:14:10Z</time>
      </trkpt>
      <trkpt lat="48.90978" lon="0.17459">
        <ele>198.71</ele>
        <time>2015-11-08T09:14:11Z</time>
      </trkpt>
      <trkpt lat="48.90978" lon="0.17454">
        <ele>198.54</ele>
        <time>2015-11-08T09:14:12Z</time>
      </trkpt>
      <trkpt lat="48.90978" lon="0.1745">
        <ele>198.38</ele>
        <time>2015-11-08T09:14:13Z</time>
      </trkpt>
      <trkpt lat="48.90977" lon="0.17445">
        <ele>198.22</ele>
        <time>2015-11-08T09:14:14Z</time>
      </trkpt>
      <trkpt lat="48.90977" lon="0.1744">
        <ele>198.32</ele>
        <time>2015-11-08T09:14:15Z</time>
      </trkpt>
      <trkpt lat="48.90977" lon="0.17435">
        <ele>198.49</ele>
        <time>2015-11-08T09:14:16Z</time>
      </trkpt>
      <trkpt lat="48.90976" lon="0.1743">
        <ele>198.67</ele>
        <time>2015-11-08T09:14:17Z</time>
      </trkpt>
      <trkpt lat="48.90976" lon="0.17424">
        <ele>198.86</ele>
        <time>2015-11-08T09:14:18Z</time>
      </trkpt>
      <trkpt lat="48.90976" lon="0.17419">
        <ele>199.05</ele>
        <time>2015-11-08T09:14:19Z</time>
      </trkpt>
      <trkpt lat="48.90976" lon="0.17414">
        <ele>199.21</ele>
        <time>2015-11-08T09:14:20Z</time>
      </trkpt>
      <trkpt lat="48.90976" lon="0.17409">
        <ele>199.34</ele>
        <time>2015-11-08T09:14:21Z</time>
      </trkpt>
      <trkpt lat="48.90976" lon="0.17404">
        <ele>199.48</ele>
        <time>2015-11-08T09:14:22Z</time>
      </trkpt>
      <trkpt lat="48.90975" lon="0.17398">
        <ele>199.62</ele>
        <time>2015-11-08T09:14:23Z</time>
      </trkpt>
      <trkpt lat="48.90975" lon="0.17393">
        <ele>199.76</ele>
        <time>2015-11-08T09:14:24Z</time>
      </trkpt>
      <trkpt lat="48.90976" lon="0.17388">
        <ele>199.81</ele>
        <time>2015-11-08T09:14:25Z</time>
      </trkpt>
      <trkpt lat="48.90976" lon="0.17383">
        <ele>199.42</ele>
        <time>2015-11-08T09:14:26Z</time>
      </trkpt>
      <trkpt lat="48.90976" lon="0.17377">
        <ele>199.03</ele>
        <time>2015-11-08T09:14:27Z</time>
      </trkpt>
      <trkpt lat="48.90976" lon="0.17372">
        <ele>198.65</ele>
        <time>2015-11-08T09:14:28Z</time>
      </trkpt>
      <trkpt lat="48.90976" lon="0.17366">
        <ele>198.26</ele>
        <time>2015-11-08T09:14:29Z</time>
      </trkpt>
      <trkpt lat="48.90975" lon="0.17361">
        <ele>197.89</ele>
        <time>2015-11-08T09:14:30Z</time>
      </trkpt>
      <trkpt lat="48.90975" lon="0.17355">
        <ele>198.12</ele>
        <time>2015-11-08T09:14:31Z</time>
      </trkpt>
      <trkpt lat="48.90975" lon="0.1735">
        <ele>198.34</ele>
        <time>2015-11-08T09:14:32Z</time>
      </trkpt>
      <trkpt lat="48.90975" lon="0.17345">
        <ele>198.55</ele>
        <time>2015-11-08T09:14:33Z</time>
      </trkpt>
      <trkpt lat="48.90975" lon="0.17339">
        <ele>198.76</ele>
        <time>2015-11-08T09:14:34Z</time>
      </trkpt>
      <trkpt lat="48.90975" lon="0.17334">
        <ele>198.95</ele>
        <time>2015-11-08T09:14:35Z</time>
      </trkpt>
      <trkpt lat="48.90975" lon="0.1733">
        <ele>199</ele>
        <time>2015-11-08T09:14:36Z</time>
      </trkpt>
      <trkpt lat="48.90975" lon="0.17324">
        <ele>199</ele>
        <time>2015-11-08T09:14:37Z</time>
      </trkpt>
      <trkpt lat="48.90974" lon="0.17319">
        <ele>199</ele>
        <time>2015-11-08T09:14:38Z</time>
      </trkpt>
      <trkpt lat="48.90973" lon="0.17314">
        <ele>199</ele>
        <time>2015-11-08T09:14:39Z</time>
      </trkpt>
      <trkpt lat="48.90973" lon="0.17309">
        <ele>199</ele>
        <time>2015-11-08T09:14:40Z</time>
      </trkpt>
      <trkpt lat="48.90973" lon="0.17303">
        <ele>198.91</ele>
        <time>2015-11-08T09:14:41Z</time>
      </trkpt>
      <trkpt lat="48.90973" lon="0.17298">
        <ele>198.71</ele>
        <time>2015-11-08T09:14:42Z</time>
      </trkpt>
      <trkpt lat="48.90973" lon="0.17293">
        <ele>198.53</ele>
        <time>2015-11-08T09:14:43Z</time>
      </trkpt>
      <trkpt lat="48.90973" lon="0.17288">
        <ele>198.34</ele>
        <time>2015-11-08T09:14:44Z</time>
      </trkpt>
      <trkpt lat="48.90973" lon="0.17283">
        <ele>198.17</ele>
        <time>2015-11-08T09:14:45Z</time>
      </trkpt>
      <trkpt lat="48.90974" lon="0.17279">
        <ele>197.99</ele>
        <time>2015-11-08T09:14:46Z</time>
      </trkpt>
      <trkpt lat="48.90974" lon="0.17275">
        <ele>197.93</ele>
        <time>2015-11-08T09:14:47Z</time>
      </trkpt>
      <trkpt lat="48.90974" lon="0.17271">
        <ele>197.92</ele>
        <time>2015-11-08T09:14:48Z</time>
      </trkpt>
      <trkpt lat="48.90975" lon="0.17266">
        <ele>197.92</ele>
        <time>2015-11-08T09:14:49Z</time>
      </trkpt>
      <trkpt lat="48.90975" lon="0.17262">
        <ele>197.91</ele>
        <time>2015-11-08T09:14:50Z</time>
      </trkpt>
      <trkpt lat="48.90974" lon="0.17257">
        <ele>197.92</ele>
        <time>2015-11-08T09:14:51Z</time>
      </trkpt>
      <trkpt lat="48.90974" lon="0.17252">
        <ele>197.93</ele>
        <time>2015-11-08T09:14:52Z</time>
      </trkpt>
      <trkpt lat="48.90974" lon="0.17247">
        <ele>197.72</ele>
        <time>2015-11-08T09:14:53Z</time>
      </trkpt>
      <trkpt lat="48.90974" lon="0.17242">
        <ele>197.35</ele>
        <time>2015-11-08T09:14:54Z</time>
      </trkpt>
      <trkpt lat="48.90974" lon="0.17236">
        <ele>196.97</ele>
        <time>2015-11-08T09:14:55Z</time>
      </trkpt>
      <trkpt lat="48.90974" lon="0.17231">
        <ele>196.58</ele>
        <time>2015-11-08T09:14:56Z</time>
      </trkpt>
      <trkpt lat="48.90956" lon="0.17086">
        <ele>198.29</ele>
        <time>2015-11-08T09:15:25Z</time>
      </trkpt>
      <trkpt lat="48.90957" lon="0.17081">
        <ele>198.2</ele>
        <time>2015-11-08T09:15:27Z</time>
      </trkpt>
      <trkpt lat="48.90957" lon="0.17076">
        <ele>198.37</ele>
        <time>2015-11-08T09:15:28Z</time>
      </trkpt>
      <trkpt lat="48.90956" lon="0.17072">
        <ele>198.58</ele>
        <time>2015-11-08T09:15:29Z</time>
      </trkpt>
      <trkpt lat="48.90956" lon="0.17067">
        <ele>198.8</ele>
        <time>2015-11-08T09:15:30Z</time>
      </trkpt>
      <trkpt lat="48.90955" lon="0.17062">
        <ele>199.05</ele>
        <time>2015-11-08T09:15:31Z</time>
      </trkpt>
      <trkpt lat="48.90955" lon="0.17058">
        <ele>199.25</ele>
        <time>2015-11-08T09:15:32Z</time>
      </trkpt>
      <trkpt lat="48.90954" lon="0.17054">
        <ele>199.52</ele>
        <time>2015-11-08T09:15:33Z</time>
      </trkpt>
      <trkpt lat="48.90956" lon="0.1705">
        <ele>199.27</ele>
        <time>2015-11-08T09:15:39Z</time>
      </trkpt>
      <trkpt lat="48.90955" lon="0.17045">
        <ele>199.42</ele>
        <time>2015-11-08T09:15:58Z</time>
      </trkpt>
      <trkpt lat="48.90955" lon="0.1704">
        <ele>199.63</ele>
        <time>2015-11-08T09:16:00Z</time>
      </trkpt>
      <trkpt lat="48.90954" lon="0.17035">
        <ele>199.83</ele>
        <time>2015-11-08T09:16:02Z</time>
      </trkpt>
      <trkpt lat="48.90953" lon="0.17029">
        <ele>200.08</ele>
        <time>2015-11-08T09:16:04Z</time>
      </trkpt>
      <trkpt lat="48.90953" lon="0.17023">
        <ele>201.61</ele>
        <time>2015-11-08T09:16:06Z</time>
      </trkpt>
      <trkpt lat="48.90953" lon="0.17016">
        <ele>203.7</ele>
        <time>2015-11-08T09:16:08Z</time>
      </trkpt>
      <trkpt lat="48.90952" lon="0.17009">
        <ele>206.11</ele>
        <time>2015-11-08T09:16:10Z</time>
      </trkpt>
      <trkpt lat="48.90951" lon="0.17001">
        <ele>208.74</ele>
        <time>2015-11-08T09:16:12Z</time>
      </trkpt>
      <trkpt lat="48.9095" lon="0.16993">
        <ele>208.77</ele>
        <time>2015-11-08T09:16:14Z</time>
      </trkpt>
      <trkpt lat="48.9095" lon="0.16986">
        <ele>208.45</ele>
        <time>2015-11-08T09:16:16Z</time>
      </trkpt>
      <trkpt lat="48.90949" lon="0.16978">
        <ele>208.04</ele>
        <time>2015-11-08T09:16:18Z</time>
      </trkpt>
      <trkpt lat="48.90949" lon="0.1697">
        <ele>207.55</ele>
        <time>2015-11-08T09:16:20Z</time>
      </trkpt>
      <trkpt lat="48.90949" lon="0.16966">
        <ele>207.25</ele>
        <time>2015-11-08T09:16:21Z</time>
      </trkpt>
      <trkpt lat="48.90949" lon="0.16959">
        <ele>206.66</ele>
        <time>2015-11-08T09:16:23Z</time>
      </trkpt>
      <trkpt lat="48.9095" lon="0.16951">
        <ele>205.96</ele>
        <time>2015-11-08T09:16:25Z</time>
      </trkpt>
      <trkpt lat="48.9095" lon="0.16943">
        <ele>205.31</ele>
        <time>2015-11-08T09:16:27Z</time>
      </trkpt>
      <trkpt lat="48.9095" lon="0.16935">
        <ele>204.65</ele>
        <time>2015-11-08T09:16:29Z</time>
      </trkpt>
      <trkpt lat="48.90951" lon="0.16927">
        <ele>203.84</ele>
        <time>2015-11-08T09:16:31Z</time>
      </trkpt>
      <trkpt lat="48.90952" lon="0.16919">
        <ele>203.1</ele>
        <time>2015-11-08T09:16:33Z</time>
      </trkpt>
      <trkpt lat="48.90952" lon="0.16911">
        <ele>202.44</ele>
        <time>2015-11-08T09:16:35Z</time>
      </trkpt>
      <trkpt lat="48.90952" lon="0.16907">
        <ele>202.15</ele>
        <time>2015-11-08T09:16:36Z</time>
      </trkpt>
      <trkpt lat="48.90952" lon="0.16903">
        <ele>201.84</ele>
        <time>2015-11-08T09:16:37Z</time>
      </trkpt>
      <trkpt lat="48.90951" lon="0.16898">
        <ele>201.51</ele>
        <time>2015-11-08T09:16:38Z</time>
      </trkpt>
      <trkpt lat="48.90951" lon="0.16894">
        <ele>201.13</ele>
        <time>2015-11-08T09:16:39Z</time>
      </trkpt>
      <trkpt lat="48.90952" lon="0.16889">
        <ele>200.73</ele>
        <time>2015-11-08T09:16:40Z</time>
      </trkpt>
      <trkpt lat="48.90952" lon="0.16885">
        <ele>200.37</ele>
        <time>2015-11-08T09:16:41Z</time>
      </trkpt>
      <trkpt lat="48.90952" lon="0.1688">
        <ele>200.04</ele>
        <time>2015-11-08T09:16:42Z</time>
      </trkpt>
      <trkpt lat="48.90952" lon="0.16875">
        <ele>199.65</ele>
        <time>2015-11-08T09:16:43Z</time>
      </trkpt>
      <trkpt lat="48.90953" lon="0.16871">
        <ele>199.19</ele>
        <time>2015-11-08T09:16:44Z</time>
      </trkpt>
      <trkpt lat="48.90954" lon="0.16867">
        <ele>198.67</ele>
        <time>2015-11-08T09:16:45Z</time>
      </trkpt>
      <trkpt lat="48.90957" lon="0.1686">
        <ele>197.81</ele>
        <time>2015-11-08T09:16:47Z</time>
      </trkpt>
      <trkpt lat="48.90957" lon="0.16853">
        <ele>197.76</ele>
        <time>2015-11-08T09:16:49Z</time>
      </trkpt>
      <trkpt lat="48.90956" lon="0.16848">
        <ele>197.81</ele>
        <time>2015-11-08T09:16:50Z</time>
      </trkpt>
      <trkpt lat="48.90956" lon="0.16844">
        <ele>197.83</ele>
        <time>2015-11-08T09:16:51Z</time>
      </trkpt>
      <trkpt lat="48.90956" lon="0.16839">
        <ele>197.81</ele>
        <time>2015-11-08T09:16:52Z</time>
      </trkpt>
      <trkpt lat="48.90956" lon="0.16834">
        <ele>197.78</ele>
        <time>2015-11-08T09:16:53Z</time>
      </trkpt>
      <trkpt lat="48.90956" lon="0.16829">
        <ele>198.24</ele>
        <time>2015-11-08T09:16:54Z</time>
      </trkpt>
      <trkpt lat="48.90956" lon="0.16824">
        <ele>198.74</ele>
        <time>2015-11-08T09:16:55Z</time>
      </trkpt>
      <trkpt lat="48.90956" lon="0.16819">
        <ele>199.22</ele>
        <time>2015-11-08T09:16:56Z</time>
      </trkpt>
      <trkpt lat="48.90956" lon="0.16814">
        <ele>199.7</ele>
        <time>2015-11-08T09:16:57Z</time>
      </trkpt>
      <trkpt lat="48.90956" lon="0.16809">
        <ele>200.17</ele>
        <time>2015-11-08T09:16:58Z</time>
      </trkpt>
      <trkpt lat="48.90956" lon="0.16805">
        <ele>200.51</ele>
        <time>2015-11-08T09:16:59Z</time>
      </trkpt>
      <trkpt lat="48.90956" lon="0.168">
        <ele>200.21</ele>
        <time>2015-11-08T09:17:00Z</time>
      </trkpt>
      <trkpt lat="48.90956" lon="0.16796">
        <ele>199.89</ele>
        <time>2015-11-08T09:17:01Z</time>
      </trkpt>
      <trkpt lat="48.90956" lon="0.16791">
        <ele>199.58</ele>
        <time>2015-11-08T09:17:02Z</time>
      </trkpt>
      <trkpt lat="48.90956" lon="0.16786">
        <ele>199.26</ele>
        <time>2015-11-08T09:17:03Z</time>
      </trkpt>
      <trkpt lat="48.90956" lon="0.16782">
        <ele>198.97</ele>
        <time>2015-11-08T09:17:04Z</time>
      </trkpt>
      <trkpt lat="48.90957" lon="0.16777">
        <ele>198.68</ele>
        <time>2015-11-08T09:17:05Z</time>
      </trkpt>
      <trkpt lat="48.90957" lon="0.16772">
        <ele>198.4</ele>
        <time>2015-11-08T09:17:06Z</time>
      </trkpt>
      <trkpt lat="48.90957" lon="0.16768">
        <ele>198.1</ele>
        <time>2015-11-08T09:17:07Z</time>
      </trkpt>
      <trkpt lat="48.90957" lon="0.16763">
        <ele>197.79</ele>
        <time>2015-11-08T09:17:08Z</time>
      </trkpt>
      <trkpt lat="48.90958" lon="0.16759">
        <ele>197.55</ele>
        <time>2015-11-08T09:17:09Z</time>
      </trkpt>
      <trkpt lat="48.90959" lon="0.16752">
        <ele>197.28</ele>
        <time>2015-11-08T09:17:11Z</time>
      </trkpt>
      <trkpt lat="48.90962" lon="0.16746">
        <ele>197.33</ele>
        <time>2015-11-08T09:17:13Z</time>
      </trkpt>
      <trkpt lat="48.90964" lon="0.1674">
        <ele>197.39</ele>
        <time>2015-11-08T09:17:15Z</time>
      </trkpt>
      <trkpt lat="48.90966" lon="0.16734">
        <ele>197.33</ele>
        <time>2015-11-08T09:17:17Z</time>
      </trkpt>
      <trkpt lat="48.90968" lon="0.16727">
        <ele>197.11</ele>
        <time>2015-11-08T09:17:19Z</time>
      </trkpt>
      <trkpt lat="48.90969" lon="0.1672">
        <ele>196.9</ele>
        <time>2015-11-08T09:17:21Z</time>
      </trkpt>
      <trkpt lat="48.90971" lon="0.16713">
        <ele>196.94</ele>
        <time>2015-11-08T09:17:23Z</time>
      </trkpt>
      <trkpt lat="48.90972" lon="0.16707">
        <ele>197.02</ele>
        <time>2015-11-08T09:17:25Z</time>
      </trkpt>
      <trkpt lat="48.90975" lon="0.16701">
        <ele>197.2</ele>
        <time>2015-11-08T09:17:27Z</time>
      </trkpt>
      <trkpt lat="48.90977" lon="0.16695">
        <ele>197.36</ele>
        <time>2015-11-08T09:17:29Z</time>
      </trkpt>
      <trkpt lat="48.90979" lon="0.16689">
        <ele>197.69</ele>
        <time>2015-11-08T09:17:31Z</time>
      </trkpt>
      <trkpt lat="48.9098" lon="0.16682">
        <ele>198.02</ele>
        <time>2015-11-08T09:17:33Z</time>
      </trkpt>
      <trkpt lat="48.90981" lon="0.16676">
        <ele>198.3</ele>
        <time>2015-11-08T09:17:35Z</time>
      </trkpt>
      <trkpt lat="48.90982" lon="0.1667">
        <ele>198.6</ele>
        <time>2015-11-08T09:17:37Z</time>
      </trkpt>
      <trkpt lat="48.90983" lon="0.16663">
        <ele>198.85</ele>
        <time>2015-11-08T09:17:39Z</time>
      </trkpt>
      <trkpt lat="48.90984" lon="0.16657">
        <ele>199.03</ele>
        <time>2015-11-08T09:17:41Z</time>
      </trkpt>
      <trkpt lat="48.90984" lon="0.16651">
        <ele>199.19</ele>
        <time>2015-11-08T09:17:43Z</time>
      </trkpt>
      <trkpt lat="48.90985" lon="0.16645">
        <ele>199.35</ele>
        <time>2015-11-08T09:17:45Z</time>
      </trkpt>
      <trkpt lat="48.90986" lon="0.16638">
        <ele>199.5</ele>
        <time>2015-11-08T09:17:47Z</time>
      </trkpt>
      <trkpt lat="48.90987" lon="0.16632">
        <ele>199.64</ele>
        <time>2015-11-08T09:17:49Z</time>
      </trkpt>
      <trkpt lat="48.90986" lon="0.16626">
        <ele>199.72</ele>
        <time>2015-11-08T09:17:51Z</time>
      </trkpt>
      <trkpt lat="48.90981" lon="0.16623">
        <ele>199.7</ele>
        <time>2015-11-08T09:17:53Z</time>
      </trkpt>
      <trkpt lat="48.90976" lon="0.16623">
        <ele>199.63</ele>
        <time>2015-11-08T09:17:55Z</time>
      </trkpt>
      <trkpt lat="48.90973" lon="0.16624">
        <ele>199.55</ele>
        <time>2015-11-08T09:17:58Z</time>
      </trkpt>
      <trkpt lat="48.90971" lon="0.16628">
        <ele>199.46</ele>
        <time>2015-11-08T09:18:05Z</time>
      </trkpt>
      <trkpt lat="48.90967" lon="0.16633">
        <ele>199.62</ele>
        <time>2015-11-08T09:18:07Z</time>
      </trkpt>
      <trkpt lat="48.90964" lon="0.16636">
        <ele>199.73</ele>
        <time>2015-11-08T09:18:08Z</time>
      </trkpt>
      <trkpt lat="48.90961" lon="0.16639">
        <ele>199.82</ele>
        <time>2015-11-08T09:18:09Z</time>
      </trkpt>
      <trkpt lat="48.90958" lon="0.16643">
        <ele>199.67</ele>
        <time>2015-11-08T09:18:10Z</time>
      </trkpt>
      <trkpt lat="48.90956" lon="0.16647">
        <ele>199.42</ele>
        <time>2015-11-08T09:18:11Z</time>
      </trkpt>
      <trkpt lat="48.90954" lon="0.1665">
        <ele>199.18</ele>
        <time>2015-11-08T09:18:12Z</time>
      </trkpt>
      <trkpt lat="48.9095" lon="0.16655">
        <ele>198.66</ele>
        <time>2015-11-08T09:18:14Z</time>
      </trkpt>
      <trkpt lat="48.90948" lon="0.16658">
        <ele>198.26</ele>
        <time>2015-11-08T09:18:15Z</time>
      </trkpt>
      <trkpt lat="48.90944" lon="0.16664">
        <ele>197.35</ele>
        <time>2015-11-08T09:18:17Z</time>
      </trkpt>
      <trkpt lat="48.90941" lon="0.16667">
        <ele>197.1</ele>
        <time>2015-11-08T09:18:18Z</time>
      </trkpt>
      <trkpt lat="48.90938" lon="0.16669">
        <ele>197.13</ele>
        <time>2015-11-08T09:18:19Z</time>
      </trkpt>
      <trkpt lat="48.90934" lon="0.16671">
        <ele>197.16</ele>
        <time>2015-11-08T09:18:20Z</time>
      </trkpt>
      <trkpt lat="48.90928" lon="0.16673">
        <ele>197.21</ele>
        <time>2015-11-08T09:18:21Z</time>
      </trkpt>
      <trkpt lat="48.90923" lon="0.16674">
        <ele>197.28</ele>
        <time>2015-11-08T09:18:22Z</time>
      </trkpt>
      <trkpt lat="48.90917" lon="0.16675">
        <ele>197.39</ele>
        <time>2015-11-08T09:18:23Z</time>
      </trkpt>
      <trkpt lat="48.90912" lon="0.16674">
        <ele>196.53</ele>
        <time>2015-11-08T09:18:24Z</time>
      </trkpt>
      <trkpt lat="48.90907" lon="0.16672">
        <ele>195.68</ele>
        <time>2015-11-08T09:18:25Z</time>
      </trkpt>
      <trkpt lat="48.90901" lon="0.16665">
        <ele>194.63</ele>
        <time>2015-11-08T09:18:26Z</time>
      </trkpt>
      <trkpt lat="48.90898" lon="0.16659">
        <ele>194.34</ele>
        <time>2015-11-08T09:18:27Z</time>
      </trkpt>
      <trkpt lat="48.90897" lon="0.16652">
        <ele>194.33</ele>
        <time>2015-11-08T09:18:28Z</time>
      </trkpt>
      <trkpt lat="48.90895" lon="0.16646">
        <ele>194.21</ele>
        <time>2015-11-08T09:18:29Z</time>
      </trkpt>
      <trkpt lat="48.90893" lon="0.16638">
        <ele>194.08</ele>
        <time>2015-11-08T09:18:30Z</time>
      </trkpt>
      <trkpt lat="48.90891" lon="0.16629">
        <ele>194.23</ele>
        <time>2015-11-08T09:18:31Z</time>
      </trkpt>
      <trkpt lat="48.90889" lon="0.16621">
        <ele>194.34</ele>
        <time>2015-11-08T09:18:32Z</time>
      </trkpt>
      <trkpt lat="48.90887" lon="0.16611">
        <ele>194.61</ele>
        <time>2015-11-08T09:18:33Z</time>
      </trkpt>
      <trkpt lat="48.90886" lon="0.16603">
        <ele>195.23</ele>
        <time>2015-11-08T09:18:34Z</time>
      </trkpt>
      <trkpt lat="48.90884" lon="0.16596">
        <ele>195.59</ele>
        <time>2015-11-08T09:18:35Z</time>
      </trkpt>
      <trkpt lat="48.90882" lon="0.16586">
        <ele>195.99</ele>
        <time>2015-11-08T09:18:36Z</time>
      </trkpt>
      <trkpt lat="48.90879" lon="0.16579">
        <ele>196.09</ele>
        <time>2015-11-08T09:18:37Z</time>
      </trkpt>
      <trkpt lat="48.90877" lon="0.16573">
        <ele>196.04</ele>
        <time>2015-11-08T09:18:38Z</time>
      </trkpt>
      <trkpt lat="48.90874" lon="0.16566">
        <ele>196.04</ele>
        <time>2015-11-08T09:18:39Z</time>
      </trkpt>
      <trkpt lat="48.9087" lon="0.1656">
        <ele>195.77</ele>
        <time>2015-11-08T09:18:40Z</time>
      </trkpt>
      <trkpt lat="48.90867" lon="0.16555">
        <ele>195.47</ele>
        <time>2015-11-08T09:18:41Z</time>
      </trkpt>
      <trkpt lat="48.90862" lon="0.16552">
        <ele>194.39</ele>
        <time>2015-11-08T09:18:42Z</time>
      </trkpt>
      <trkpt lat="48.90857" lon="0.16549">
        <ele>193.61</ele>
        <time>2015-11-08T09:18:43Z</time>
      </trkpt>
      <trkpt lat="48.90853" lon="0.16547">
        <ele>193.09</ele>
        <time>2015-11-08T09:18:44Z</time>
      </trkpt>
      <trkpt lat="48.90848" lon="0.16544">
        <ele>192.45</ele>
        <time>2015-11-08T09:18:45Z</time>
      </trkpt>
      <trkpt lat="48.90844" lon="0.16538">
        <ele>192.33</ele>
        <time>2015-11-08T09:18:46Z</time>
      </trkpt>
      <trkpt lat="48.9084" lon="0.16534">
        <ele>192.23</ele>
        <time>2015-11-08T09:18:47Z</time>
      </trkpt>
      <trkpt lat="48.90836" lon="0.1653">
        <ele>192.14</ele>
        <time>2015-11-08T09:18:48Z</time>
      </trkpt>
      <trkpt lat="48.90833" lon="0.16526">
        <ele>191.96</ele>
        <time>2015-11-08T09:18:49Z</time>
      </trkpt>
      <trkpt lat="48.9083" lon="0.16523">
        <ele>191.34</ele>
        <time>2015-11-08T09:18:50Z</time>
      </trkpt>
      <trkpt lat="48.90825" lon="0.16516">
        <ele>190.38</ele>
        <time>2015-11-08T09:18:52Z</time>
      </trkpt>
      <trkpt lat="48.90822" lon="0.16514">
        <ele>189.71</ele>
        <time>2015-11-08T09:18:53Z</time>
      </trkpt>
      <trkpt lat="48.90819" lon="0.16511">
        <ele>189.13</ele>
        <time>2015-11-08T09:18:54Z</time>
      </trkpt>
      <trkpt lat="48.90815" lon="0.1651">
        <ele>188.49</ele>
        <time>2015-11-08T09:18:55Z</time>
      </trkpt>
      <trkpt lat="48.90812" lon="0.16508">
        <ele>187.85</ele>
        <time>2015-11-08T09:18:56Z</time>
      </trkpt>
      <trkpt lat="48.90805" lon="0.16503">
        <ele>186.59</ele>
        <time>2015-11-08T09:18:58Z</time>
      </trkpt>
      <trkpt lat="48.90801" lon="0.165">
        <ele>185.57</ele>
        <time>2015-11-08T09:18:59Z</time>
      </trkpt>
      <trkpt lat="48.90797" lon="0.16497">
        <ele>184.23</ele>
        <time>2015-11-08T09:19:00Z</time>
      </trkpt>
      <trkpt lat="48.90793" lon="0.16493">
        <ele>182.88</ele>
        <time>2015-11-08T09:19:01Z</time>
      </trkpt>
      <trkpt lat="48.9079" lon="0.16489">
        <ele>181.65</ele>
        <time>2015-11-08T09:19:02Z</time>
      </trkpt>
      <trkpt lat="48.90787" lon="0.16485">
        <ele>180.47</ele>
        <time>2015-11-08T09:19:03Z</time>
      </trkpt>
      <trkpt lat="48.90785" lon="0.16481">
        <ele>179.39</ele>
        <time>2015-11-08T09:19:04Z</time>
      </trkpt>
      <trkpt lat="48.90782" lon="0.16476">
        <ele>178.44</ele>
        <time>2015-11-08T09:19:05Z</time>
      </trkpt>
      <trkpt lat="48.9078" lon="0.16471">
        <ele>177.58</ele>
        <time>2015-11-08T09:19:06Z</time>
      </trkpt>
      <trkpt lat="48.9078" lon="0.16466">
        <ele>176.94</ele>
        <time>2015-11-08T09:19:07Z</time>
      </trkpt>
      <trkpt lat="48.90779" lon="0.1646">
        <ele>176.43</ele>
        <time>2015-11-08T09:19:08Z</time>
      </trkpt>
      <trkpt lat="48.90779" lon="0.16455">
        <ele>175.98</ele>
        <time>2015-11-08T09:19:09Z</time>
      </trkpt>
      <trkpt lat="48.90779" lon="0.16449">
        <ele>175.56</ele>
        <time>2015-11-08T09:19:10Z</time>
      </trkpt>
      <trkpt lat="48.9078" lon="0.16444">
        <ele>175.27</ele>
        <time>2015-11-08T09:19:11Z</time>
      </trkpt>
      <trkpt lat="48.90781" lon="0.16438">
        <ele>175.16</ele>
        <time>2015-11-08T09:19:12Z</time>
      </trkpt>
      <trkpt lat="48.90782" lon="0.16433">
        <ele>175.08</ele>
        <time>2015-11-08T09:19:13Z</time>
      </trkpt>
      <trkpt lat="48.90783" lon="0.16428">
        <ele>175</ele>
        <time>2015-11-08T09:19:14Z</time>
      </trkpt>
      <trkpt lat="48.90785" lon="0.16424">
        <ele>174.9</ele>
        <time>2015-11-08T09:19:15Z</time>
      </trkpt>
      <trkpt lat="48.90786" lon="0.16419">
        <ele>174.79</ele>
        <time>2015-11-08T09:19:16Z</time>
      </trkpt>
      <trkpt lat="48.90788" lon="0.16415">
        <ele>174.76</ele>
        <time>2015-11-08T09:19:17Z</time>
      </trkpt>
      <trkpt lat="48.9079" lon="0.1641">
        <ele>174.91</ele>
        <time>2015-11-08T09:19:18Z</time>
      </trkpt>
      <trkpt lat="48.90793" lon="0.16406">
        <ele>175.06</ele>
        <time>2015-11-08T09:19:19Z</time>
      </trkpt>
      <trkpt lat="48.90795" lon="0.16402">
        <ele>175.22</ele>
        <time>2015-11-08T09:19:20Z</time>
      </trkpt>
      <trkpt lat="48.90797" lon="0.16398">
        <ele>175.36</ele>
        <time>2015-11-08T09:19:21Z</time>
      </trkpt>
      <trkpt lat="48.90799" lon="0.16395">
        <ele>175.52</ele>
        <time>2015-11-08T09:19:22Z</time>
      </trkpt>
      <trkpt lat="48.908" lon="0.1639">
        <ele>175.63</ele>
        <time>2015-11-08T09:19:24Z</time>
      </trkpt>
      <trkpt lat="48.90802" lon="0.16383">
        <ele>175.75</ele>
        <time>2015-11-08T09:19:26Z</time>
      </trkpt>
      <trkpt lat="48.90804" lon="0.16375">
        <ele>175.89</ele>
        <time>2015-11-08T09:19:28Z</time>
      </trkpt>
      <trkpt lat="48.90804" lon="0.16371">
        <ele>175.95</ele>
        <time>2015-11-08T09:19:29Z</time>
      </trkpt>
      <trkpt lat="48.90805" lon="0.16365">
        <ele>175.98</ele>
        <time>2015-11-08T09:19:30Z</time>
      </trkpt>
      <trkpt lat="48.90805" lon="0.16359">
        <ele>175.99</ele>
        <time>2015-11-08T09:19:31Z</time>
      </trkpt>
      <trkpt lat="48.90806" lon="0.16344">
        <ele>176.05</ele>
        <time>2015-11-08T09:19:32Z</time>
      </trkpt>
      <trkpt lat="48.90805" lon="0.16339">
        <ele>175.92</ele>
        <time>2015-11-08T09:19:33Z</time>
      </trkpt>
      <trkpt lat="48.90804" lon="0.16334">
        <ele>175.84</ele>
        <time>2015-11-08T09:19:34Z</time>
      </trkpt>
      <trkpt lat="48.90802" lon="0.16329">
        <ele>175.58</ele>
        <time>2015-11-08T09:19:35Z</time>
      </trkpt>
      <trkpt lat="48.90803" lon="0.16326">
        <ele>175.73</ele>
        <time>2015-11-08T09:19:36Z</time>
      </trkpt>
      <trkpt lat="48.90805" lon="0.16322">
        <ele>175.94</ele>
        <time>2015-11-08T09:19:37Z</time>
      </trkpt>
      <trkpt lat="48.90808" lon="0.16321">
        <ele>176.41</ele>
        <time>2015-11-08T09:19:38Z</time>
      </trkpt>
      <trkpt lat="48.90807" lon="0.16316">
        <ele>176.22</ele>
        <time>2015-11-08T09:19:41Z</time>
      </trkpt>
      <trkpt lat="48.90803" lon="0.16308">
        <ele>175.65</ele>
        <time>2015-11-08T09:20:27Z</time>
      </trkpt>
      <trkpt lat="48.90801" lon="0.163">
        <ele>175.59</ele>
        <time>2015-11-08T09:20:29Z</time>
      </trkpt>
      <trkpt lat="48.90801" lon="0.16296">
        <ele>175.8</ele>
        <time>2015-11-08T09:20:30Z</time>
      </trkpt>
      <trkpt lat="48.90801" lon="0.16292">
        <ele>175.93</ele>
        <time>2015-11-08T09:20:32Z</time>
      </trkpt>
      <trkpt lat="48.90798" lon="0.16291">
        <ele>175.56</ele>
        <time>2015-11-08T09:21:16Z</time>
      </trkpt>
      <trkpt lat="48.90795" lon="0.16288">
        <ele>175.37</ele>
        <time>2015-11-08T09:21:24Z</time>
      </trkpt>
      <trkpt lat="48.90794" lon="0.16284">
        <ele>175.38</ele>
        <time>2015-11-08T09:21:26Z</time>
      </trkpt>
      <trkpt lat="48.90792" lon="0.1628">
        <ele>175.35</ele>
        <time>2015-11-08T09:21:28Z</time>
      </trkpt>
      <trkpt lat="48.90789" lon="0.16279">
        <ele>175.1</ele>
        <time>2015-11-08T09:21:31Z</time>
      </trkpt>
      <trkpt lat="48.90785" lon="0.1628">
        <ele>174.66</ele>
        <time>2015-11-08T09:21:36Z</time>
      </trkpt>
      <trkpt lat="48.90783" lon="0.16283">
        <ele>174.19</ele>
        <time>2015-11-08T09:21:38Z</time>
      </trkpt>
      <trkpt lat="48.9078" lon="0.16288">
        <ele>173.47</ele>
        <time>2015-11-08T09:21:40Z</time>
      </trkpt>
      <trkpt lat="48.90778" lon="0.16292">
        <ele>173.03</ele>
        <time>2015-11-08T09:21:41Z</time>
      </trkpt>
      <trkpt lat="48.90777" lon="0.16295">
        <ele>172.56</ele>
        <time>2015-11-08T09:21:42Z</time>
      </trkpt>
      <trkpt lat="48.90775" lon="0.16299">
        <ele>172.01</ele>
        <time>2015-11-08T09:21:43Z</time>
      </trkpt>
      <trkpt lat="48.90773" lon="0.16303">
        <ele>171.41</ele>
        <time>2015-11-08T09:21:44Z</time>
      </trkpt>
      <trkpt lat="48.9077" lon="0.16308">
        <ele>171</ele>
        <time>2015-11-08T09:21:45Z</time>
      </trkpt>
      <trkpt lat="48.90768" lon="0.16312">
        <ele>170.79</ele>
        <time>2015-11-08T09:21:46Z</time>
      </trkpt>
      <trkpt lat="48.90766" lon="0.16316">
        <ele>170.49</ele>
        <time>2015-11-08T09:21:47Z</time>
      </trkpt>
      <trkpt lat="48.90763" lon="0.16319">
        <ele>170.09</ele>
        <time>2015-11-08T09:21:48Z</time>
      </trkpt>
      <trkpt lat="48.9076" lon="0.16322">
        <ele>169.62</ele>
        <time>2015-11-08T09:21:49Z</time>
      </trkpt>
      <trkpt lat="48.90756" lon="0.16325">
        <ele>169.06</ele>
        <time>2015-11-08T09:21:50Z</time>
      </trkpt>
      <trkpt lat="48.90753" lon="0.16328">
        <ele>168.51</ele>
        <time>2015-11-08T09:21:51Z</time>
      </trkpt>
      <trkpt lat="48.9075" lon="0.16332">
        <ele>167.99</ele>
        <time>2015-11-08T09:21:52Z</time>
      </trkpt>
      <trkpt lat="48.90748" lon="0.16335">
        <ele>167.94</ele>
        <time>2015-11-08T09:21:53Z</time>
      </trkpt>
      <trkpt lat="48.90744" lon="0.16339">
        <ele>167.94</ele>
        <time>2015-11-08T09:21:54Z</time>
      </trkpt>
      <trkpt lat="48.90742" lon="0.16342">
        <ele>167.95</ele>
        <time>2015-11-08T09:21:55Z</time>
      </trkpt>
      <trkpt lat="48.90738" lon="0.1634">
        <ele>167.27</ele>
        <time>2015-11-08T09:21:57Z</time>
      </trkpt>
      <trkpt lat="48.90734" lon="0.1634">
        <ele>166.87</ele>
        <time>2015-11-08T09:21:59Z</time>
      </trkpt>
      <trkpt lat="48.90731" lon="0.1634">
        <ele>166.5</ele>
        <time>2015-11-08T09:22:01Z</time>
      </trkpt>
      <trkpt lat="48.90728" lon="0.1634">
        <ele>166.13</ele>
        <time>2015-11-08T09:22:03Z</time>
      </trkpt>
      <trkpt lat="48.90723" lon="0.16341">
        <ele>165.68</ele>
        <time>2015-11-08T09:22:05Z</time>
      </trkpt>
      <trkpt lat="48.9072" lon="0.16342">
        <ele>165.43</ele>
        <time>2015-11-08T09:22:07Z</time>
      </trkpt>
      <trkpt lat="48.90716" lon="0.16344">
        <ele>165.29</ele>
        <time>2015-11-08T09:22:09Z</time>
      </trkpt>
      <trkpt lat="48.90711" lon="0.16344">
        <ele>164.99</ele>
        <time>2015-11-08T09:22:11Z</time>
      </trkpt>
      <trkpt lat="48.90705" lon="0.16346">
        <ele>164.67</ele>
        <time>2015-11-08T09:22:13Z</time>
      </trkpt>
      <trkpt lat="48.90702" lon="0.16347">
        <ele>164.54</ele>
        <time>2015-11-08T09:22:14Z</time>
      </trkpt>
      <trkpt lat="48.90699" lon="0.16348">
        <ele>164.39</ele>
        <time>2015-11-08T09:22:15Z</time>
      </trkpt>
      <trkpt lat="48.90696" lon="0.16349">
        <ele>164.25</ele>
        <time>2015-11-08T09:22:16Z</time>
      </trkpt>
      <trkpt lat="48.90693" lon="0.16349">
        <ele>164.28</ele>
        <time>2015-11-08T09:22:17Z</time>
      </trkpt>
      <trkpt lat="48.9069" lon="0.16349">
        <ele>164.71</ele>
        <time>2015-11-08T09:22:18Z</time>
      </trkpt>
      <trkpt lat="48.90688" lon="0.1635">
        <ele>165.16</ele>
        <time>2015-11-08T09:22:19Z</time>
      </trkpt>
      <trkpt lat="48.90685" lon="0.16352">
        <ele>165.6</ele>
        <time>2015-11-08T09:22:20Z</time>
      </trkpt>
      <trkpt lat="48.90681" lon="0.16356">
        <ele>166.27</ele>
        <time>2015-11-08T09:22:22Z</time>
      </trkpt>
      <trkpt lat="48.90678" lon="0.16359">
        <ele>166.73</ele>
        <time>2015-11-08T09:22:24Z</time>
      </trkpt>
      <trkpt lat="48.90675" lon="0.16362">
        <ele>167.12</ele>
        <time>2015-11-08T09:22:26Z</time>
      </trkpt>
      <trkpt lat="48.90672" lon="0.16364">
        <ele>167.52</ele>
        <time>2015-11-08T09:22:28Z</time>
      </trkpt>
      <trkpt lat="48.90669" lon="0.16367">
        <ele>167.81</ele>
        <time>2015-11-08T09:22:30Z</time>
      </trkpt>
      <trkpt lat="48.90665" lon="0.16371">
        <ele>168.24</ele>
        <time>2015-11-08T09:22:32Z</time>
      </trkpt>
      <trkpt lat="48.90661" lon="0.16374">
        <ele>168.77</ele>
        <time>2015-11-08T09:22:34Z</time>
      </trkpt>
      <trkpt lat="48.90657" lon="0.16377">
        <ele>169.29</ele>
        <time>2015-11-08T09:22:36Z</time>
      </trkpt>
      <trkpt lat="48.90654" lon="0.16381">
        <ele>169.65</ele>
        <time>2015-11-08T09:22:38Z</time>
      </trkpt>
      <trkpt lat="48.90651" lon="0.16383">
        <ele>169.95</ele>
        <time>2015-11-08T09:22:40Z</time>
      </trkpt>
      <trkpt lat="48.90647" lon="0.16386">
        <ele>170.25</ele>
        <time>2015-11-08T09:22:42Z</time>
      </trkpt>
      <trkpt lat="48.90644" lon="0.16389">
        <ele>170.45</ele>
        <time>2015-11-08T09:22:44Z</time>
      </trkpt>
      <trkpt lat="48.9064" lon="0.1639">
        <ele>170.62</ele>
        <time>2015-11-08T09:22:46Z</time>
      </trkpt>
      <trkpt lat="48.90637" lon="0.16392">
        <ele>170.76</ele>
        <time>2015-11-08T09:22:48Z</time>
      </trkpt>
      <trkpt lat="48.90635" lon="0.16395">
        <ele>170.9</ele>
        <time>2015-11-08T09:22:50Z</time>
      </trkpt>
      <trkpt lat="48.90632" lon="0.16398">
        <ele>171.16</ele>
        <time>2015-11-08T09:22:52Z</time>
      </trkpt>
      <trkpt lat="48.90629" lon="0.16401">
        <ele>171.35</ele>
        <time>2015-11-08T09:22:54Z</time>
      </trkpt>
      <trkpt lat="48.90627" lon="0.16404">
        <ele>171.53</ele>
        <time>2015-11-08T09:22:56Z</time>
      </trkpt>
      <trkpt lat="48.90623" lon="0.16407">
        <ele>171.88</ele>
        <time>2015-11-08T09:22:58Z</time>
      </trkpt>
      <trkpt lat="48.90619" lon="0.1641">
        <ele>172.59</ele>
        <time>2015-11-08T09:23:00Z</time>
      </trkpt>
      <trkpt lat="48.90614" lon="0.16413">
        <ele>173.57</ele>
        <time>2015-11-08T09:23:02Z</time>
      </trkpt>
      <trkpt lat="48.90609" lon="0.16413">
        <ele>174.23</ele>
        <time>2015-11-08T09:23:04Z</time>
      </trkpt>
      <trkpt lat="48.90606" lon="0.16412">
        <ele>174.35</ele>
        <time>2015-11-08T09:23:06Z</time>
      </trkpt>
      <trkpt lat="48.90604" lon="0.16408">
        <ele>174.6</ele>
        <time>2015-11-08T09:23:08Z</time>
      </trkpt>
      <trkpt lat="48.90602" lon="0.16405">
        <ele>174.82</ele>
        <time>2015-11-08T09:23:10Z</time>
      </trkpt>
      <trkpt lat="48.90599" lon="0.16402">
        <ele>175.04</ele>
        <time>2015-11-08T09:23:12Z</time>
      </trkpt>
      <trkpt lat="48.90597" lon="0.16399">
        <ele>175.28</ele>
        <time>2015-11-08T09:23:14Z</time>
      </trkpt>
      <trkpt lat="48.90594" lon="0.16396">
        <ele>175.5</ele>
        <time>2015-11-08T09:23:16Z</time>
      </trkpt>
      <trkpt lat="48.90592" lon="0.16393">
        <ele>175.7</ele>
        <time>2015-11-08T09:23:18Z</time>
      </trkpt>
      <trkpt lat="48.90589" lon="0.1639">
        <ele>175.93</ele>
        <time>2015-11-08T09:23:20Z</time>
      </trkpt>
      <trkpt lat="48.90587" lon="0.16387">
        <ele>176.09</ele>
        <time>2015-11-08T09:23:22Z</time>
      </trkpt>
      <trkpt lat="48.90585" lon="0.16383">
        <ele>176.21</ele>
        <time>2015-11-08T09:23:24Z</time>
      </trkpt>
      <trkpt lat="48.90583" lon="0.16378">
        <ele>176.39</ele>
        <time>2015-11-08T09:23:27Z</time>
      </trkpt>
      <trkpt lat="48.90582" lon="0.16373">
        <ele>176.55</ele>
        <time>2015-11-08T09:23:30Z</time>
      </trkpt>
      <trkpt lat="48.9058" lon="0.1637">
        <ele>176.67</ele>
        <time>2015-11-08T09:23:32Z</time>
      </trkpt>
      <trkpt lat="48.90577" lon="0.16367">
        <ele>176.84</ele>
        <time>2015-11-08T09:23:34Z</time>
      </trkpt>
      <trkpt lat="48.90575" lon="0.16365">
        <ele>177.06</ele>
        <time>2015-11-08T09:23:36Z</time>
      </trkpt>
      <trkpt lat="48.90572" lon="0.16362">
        <ele>177.36</ele>
        <time>2015-11-08T09:23:39Z</time>
      </trkpt>
      <trkpt lat="48.9057" lon="0.16359">
        <ele>177.83</ele>
        <time>2015-11-08T09:23:41Z</time>
      </trkpt>
      <trkpt lat="48.90567" lon="0.16355">
        <ele>178.44</ele>
        <time>2015-11-08T09:23:43Z</time>
      </trkpt>
      <trkpt lat="48.90565" lon="0.16351">
        <ele>179.16</ele>
        <time>2015-11-08T09:23:45Z</time>
      </trkpt>
      <trkpt lat="48.90563" lon="0.16347">
        <ele>179.79</ele>
        <time>2015-11-08T09:23:47Z</time>
      </trkpt>
      <trkpt lat="48.9056" lon="0.16343">
        <ele>180.38</ele>
        <time>2015-11-08T09:23:49Z</time>
      </trkpt>
      <trkpt lat="48.90558" lon="0.1634">
        <ele>180.94</ele>
        <time>2015-11-08T09:23:51Z</time>
      </trkpt>
      <trkpt lat="48.90556" lon="0.16337">
        <ele>181.49</ele>
        <time>2015-11-08T09:23:53Z</time>
      </trkpt>
      <trkpt lat="48.90554" lon="0.16333">
        <ele>181.96</ele>
        <time>2015-11-08T09:23:55Z</time>
      </trkpt>
      <trkpt lat="48.90553" lon="0.16329">
        <ele>182.42</ele>
        <time>2015-11-08T09:23:57Z</time>
      </trkpt>
      <trkpt lat="48.90551" lon="0.16326">
        <ele>182.77</ele>
        <time>2015-11-08T09:23:59Z</time>
      </trkpt>
      <trkpt lat="48.90549" lon="0.16322">
        <ele>183.09</ele>
        <time>2015-11-08T09:24:01Z</time>
      </trkpt>
      <trkpt lat="48.90546" lon="0.16318">
        <ele>183.35</ele>
        <time>2015-11-08T09:24:03Z</time>
      </trkpt>
      <trkpt lat="48.90544" lon="0.16314">
        <ele>183.54</ele>
        <time>2015-11-08T09:24:05Z</time>
      </trkpt>
      <trkpt lat="48.90543" lon="0.1631">
        <ele>183.73</ele>
        <time>2015-11-08T09:24:07Z</time>
      </trkpt>
      <trkpt lat="48.90541" lon="0.16305">
        <ele>183.89</ele>
        <time>2015-11-08T09:24:10Z</time>
      </trkpt>
      <trkpt lat="48.90539" lon="0.16302">
        <ele>183.88</ele>
        <time>2015-11-08T09:24:12Z</time>
      </trkpt>
      <trkpt lat="48.90538" lon="0.16298">
        <ele>183.86</ele>
        <time>2015-11-08T09:24:14Z</time>
      </trkpt>
      <trkpt lat="48.90535" lon="0.16295">
        <ele>183.7</ele>
        <time>2015-11-08T09:24:16Z</time>
      </trkpt>
      <trkpt lat="48.90532" lon="0.16292">
        <ele>183.48</ele>
        <time>2015-11-08T09:24:18Z</time>
      </trkpt>
      <trkpt lat="48.90529" lon="0.16292">
        <ele>183.14</ele>
        <time>2015-11-08T09:24:20Z</time>
      </trkpt>
      <trkpt lat="48.90526" lon="0.16292">
        <ele>182.82</ele>
        <time>2015-11-08T09:24:22Z</time>
      </trkpt>
      <trkpt lat="48.90523" lon="0.16294">
        <ele>182.51</ele>
        <time>2015-11-08T09:24:24Z</time>
      </trkpt>
      <trkpt lat="48.90525" lon="0.16298">
        <ele>182.36</ele>
        <time>2015-11-08T09:25:40Z</time>
      </trkpt>
      <trkpt lat="48.90527" lon="0.16293">
        <ele>182.81</ele>
        <time>2015-11-08T09:25:45Z</time>
      </trkpt>
      <trkpt lat="48.90528" lon="0.16289">
        <ele>183.19</ele>
        <time>2015-11-08T09:25:47Z</time>
      </trkpt>
      <trkpt lat="48.90525" lon="0.16291">
        <ele>182.83</ele>
        <time>2015-11-08T09:26:04Z</time>
      </trkpt>
      <trkpt lat="48.90523" lon="0.16295">
        <ele>182.37</ele>
        <time>2015-11-08T09:26:06Z</time>
      </trkpt>
      <trkpt lat="48.9052" lon="0.16299">
        <ele>181.96</ele>
        <time>2015-11-08T09:26:07Z</time>
      </trkpt>
      <trkpt lat="48.90517" lon="0.16303">
        <ele>181.41</ele>
        <time>2015-11-08T09:26:08Z</time>
      </trkpt>
      <trkpt lat="48.90514" lon="0.16308">
        <ele>180.85</ele>
        <time>2015-11-08T09:26:09Z</time>
      </trkpt>
      <trkpt lat="48.9051" lon="0.16313">
        <ele>180.31</ele>
        <time>2015-11-08T09:26:10Z</time>
      </trkpt>
      <trkpt lat="48.90506" lon="0.16317">
        <ele>179.74</ele>
        <time>2015-11-08T09:26:11Z</time>
      </trkpt>
      <trkpt lat="48.90502" lon="0.1632">
        <ele>179.16</ele>
        <time>2015-11-08T09:26:12Z</time>
      </trkpt>
      <trkpt lat="48.90498" lon="0.16323">
        <ele>178.65</ele>
        <time>2015-11-08T09:26:13Z</time>
      </trkpt>
      <trkpt lat="48.90494" lon="0.16326">
        <ele>178.27</ele>
        <time>2015-11-08T09:26:14Z</time>
      </trkpt>
      <trkpt lat="48.9049" lon="0.16328">
        <ele>177.95</ele>
        <time>2015-11-08T09:26:15Z</time>
      </trkpt>
      <trkpt lat="48.90485" lon="0.16329">
        <ele>177.68</ele>
        <time>2015-11-08T09:26:16Z</time>
      </trkpt>
      <trkpt lat="48.90481" lon="0.16331">
        <ele>177.45</ele>
        <time>2015-11-08T09:26:17Z</time>
      </trkpt>
      <trkpt lat="48.90477" lon="0.16332">
        <ele>177.24</ele>
        <time>2015-11-08T09:26:18Z</time>
      </trkpt>
      <trkpt lat="48.90473" lon="0.16333">
        <ele>177.04</ele>
        <time>2015-11-08T09:26:19Z</time>
      </trkpt>
      <trkpt lat="48.90468" lon="0.16333">
        <ele>176.6</ele>
        <time>2015-11-08T09:26:20Z</time>
      </trkpt>
      <trkpt lat="48.90464" lon="0.16333">
        <ele>176.13</ele>
        <time>2015-11-08T09:26:21Z</time>
      </trkpt>
      <trkpt lat="48.9046" lon="0.16334">
        <ele>175.68</ele>
        <time>2015-11-08T09:26:22Z</time>
      </trkpt>
      <trkpt lat="48.90456" lon="0.16335">
        <ele>175.28</ele>
        <time>2015-11-08T09:26:23Z</time>
      </trkpt>
      <trkpt lat="48.90453" lon="0.16337">
        <ele>174.97</ele>
        <time>2015-11-08T09:26:24Z</time>
      </trkpt>
      <trkpt lat="48.90451" lon="0.16343">
        <ele>174.7</ele>
        <time>2015-11-08T09:26:26Z</time>
      </trkpt>
      <trkpt lat="48.90449" lon="0.16348">
        <ele>174.52</ele>
        <time>2015-11-08T09:26:28Z</time>
      </trkpt>
      <trkpt lat="48.90447" lon="0.16353">
        <ele>174.29</ele>
        <time>2015-11-08T09:26:31Z</time>
      </trkpt>
      <trkpt lat="48.90445" lon="0.16359">
        <ele>174.11</ele>
        <time>2015-11-08T09:26:33Z</time>
      </trkpt>
      <trkpt lat="48.90442" lon="0.16366">
        <ele>173.83</ele>
        <time>2015-11-08T09:26:35Z</time>
      </trkpt>
      <trkpt lat="48.90437" lon="0.16372">
        <ele>173.45</ele>
        <time>2015-11-08T09:26:36Z</time>
      </trkpt>
      <trkpt lat="48.90435" lon="0.16375">
        <ele>173.28</ele>
        <time>2015-11-08T09:26:37Z</time>
      </trkpt>
      <trkpt lat="48.90431" lon="0.16379">
        <ele>173.06</ele>
        <time>2015-11-08T09:26:38Z</time>
      </trkpt>
      <trkpt lat="48.90429" lon="0.16382">
        <ele>172.9</ele>
        <time>2015-11-08T09:26:39Z</time>
      </trkpt>
      <trkpt lat="48.90427" lon="0.16385">
        <ele>172.85</ele>
        <time>2015-11-08T09:26:40Z</time>
      </trkpt>
      <trkpt lat="48.90424" lon="0.1639">
        <ele>172.74</ele>
        <time>2015-11-08T09:26:42Z</time>
      </trkpt>
      <trkpt lat="48.90421" lon="0.16393">
        <ele>172.47</ele>
        <time>2015-11-08T09:26:43Z</time>
      </trkpt>
      <trkpt lat="48.90418" lon="0.16399">
        <ele>172.14</ele>
        <time>2015-11-08T09:26:45Z</time>
      </trkpt>
      <trkpt lat="48.90413" lon="0.16405">
        <ele>171.35</ele>
        <time>2015-11-08T09:26:47Z</time>
      </trkpt>
      <trkpt lat="48.9041" lon="0.16408">
        <ele>170.87</ele>
        <time>2015-11-08T09:26:48Z</time>
      </trkpt>
      <trkpt lat="48.90407" lon="0.16411">
        <ele>170.31</ele>
        <time>2015-11-08T09:26:49Z</time>
      </trkpt>
      <trkpt lat="48.90403" lon="0.16414">
        <ele>169.62</ele>
        <time>2015-11-08T09:26:50Z</time>
      </trkpt>
      <trkpt lat="48.90398" lon="0.16417">
        <ele>168.71</ele>
        <time>2015-11-08T09:26:51Z</time>
      </trkpt>
      <trkpt lat="48.9039" lon="0.16426">
        <ele>167.22</ele>
        <time>2015-11-08T09:26:52Z</time>
      </trkpt>
      <trkpt lat="48.90387" lon="0.16428">
        <ele>166.7</ele>
        <time>2015-11-08T09:26:53Z</time>
      </trkpt>
      <trkpt lat="48.90383" lon="0.16437">
        <ele>165.94</ele>
        <time>2015-11-08T09:26:54Z</time>
      </trkpt>
      <trkpt lat="48.90381" lon="0.16441">
        <ele>165.33</ele>
        <time>2015-11-08T09:26:56Z</time>
      </trkpt>
      <trkpt lat="48.90377" lon="0.16444">
        <ele>164.37</ele>
        <time>2015-11-08T09:28:28Z</time>
      </trkpt>
      <trkpt lat="48.90372" lon="0.16446">
        <ele>163.4</ele>
        <time>2015-11-08T09:28:30Z</time>
      </trkpt>
      <trkpt lat="48.90366" lon="0.1645">
        <ele>161.85</ele>
        <time>2015-11-08T09:28:32Z</time>
      </trkpt>
      <trkpt lat="48.90362" lon="0.16452">
        <ele>160.96</ele>
        <time>2015-11-08T09:28:33Z</time>
      </trkpt>
      <trkpt lat="48.90359" lon="0.16454">
        <ele>160.1</ele>
        <time>2015-11-08T09:28:34Z</time>
      </trkpt>
      <trkpt lat="48.90356" lon="0.16456">
        <ele>159.38</ele>
        <time>2015-11-08T09:28:35Z</time>
      </trkpt>
      <trkpt lat="48.90353" lon="0.16458">
        <ele>158.68</ele>
        <time>2015-11-08T09:28:36Z</time>
      </trkpt>
      <trkpt lat="48.9035" lon="0.16461">
        <ele>158.09</ele>
        <time>2015-11-08T09:28:37Z</time>
      </trkpt>
      <trkpt lat="48.90347" lon="0.16465">
        <ele>157.5</ele>
        <time>2015-11-08T09:28:38Z</time>
      </trkpt>
      <trkpt lat="48.90344" lon="0.16469">
        <ele>156.88</ele>
        <time>2015-11-08T09:28:39Z</time>
      </trkpt>
      <trkpt lat="48.9034" lon="0.16472">
        <ele>156.25</ele>
        <time>2015-11-08T09:28:40Z</time>
      </trkpt>
      <trkpt lat="48.90337" lon="0.16475">
        <ele>155.55</ele>
        <time>2015-11-08T09:28:41Z</time>
      </trkpt>
      <trkpt lat="48.90333" lon="0.16477">
        <ele>154.98</ele>
        <time>2015-11-08T09:28:42Z</time>
      </trkpt>
      <trkpt lat="48.90329" lon="0.16482">
        <ele>154.37</ele>
        <time>2015-11-08T09:28:43Z</time>
      </trkpt>
      <trkpt lat="48.90326" lon="0.16486">
        <ele>153.79</ele>
        <time>2015-11-08T09:28:44Z</time>
      </trkpt>
      <trkpt lat="48.90323" lon="0.1649">
        <ele>153.24</ele>
        <time>2015-11-08T09:28:45Z</time>
      </trkpt>
      <trkpt lat="48.9032" lon="0.16495">
        <ele>152.69</ele>
        <time>2015-11-08T09:28:46Z</time>
      </trkpt>
      <trkpt lat="48.90317" lon="0.16499">
        <ele>152.12</ele>
        <time>2015-11-08T09:28:47Z</time>
      </trkpt>
      <trkpt lat="48.90314" lon="0.16503">
        <ele>151.55</ele>
        <time>2015-11-08T09:28:48Z</time>
      </trkpt>
      <trkpt lat="48.90311" lon="0.16506">
        <ele>150.96</ele>
        <time>2015-11-08T09:28:49Z</time>
      </trkpt>
      <trkpt lat="48.90308" lon="0.1651">
        <ele>150.42</ele>
        <time>2015-11-08T09:28:50Z</time>
      </trkpt>
      <trkpt lat="48.90305" lon="0.16513">
        <ele>149.92</ele>
        <time>2015-11-08T09:28:51Z</time>
      </trkpt>
      <trkpt lat="48.90302" lon="0.16515">
        <ele>149.39</ele>
        <time>2015-11-08T09:28:52Z</time>
      </trkpt>
      <trkpt lat="48.90299" lon="0.16518">
        <ele>148.9</ele>
        <time>2015-11-08T09:28:53Z</time>
      </trkpt>
      <trkpt lat="48.90296" lon="0.16521">
        <ele>148.49</ele>
        <time>2015-11-08T09:28:54Z</time>
      </trkpt>
      <trkpt lat="48.90293" lon="0.16524">
        <ele>148.12</ele>
        <time>2015-11-08T09:28:55Z</time>
      </trkpt>
      <trkpt lat="48.90291" lon="0.16527">
        <ele>147.81</ele>
        <time>2015-11-08T09:28:56Z</time>
      </trkpt>
      <trkpt lat="48.90288" lon="0.1653">
        <ele>147.57</ele>
        <time>2015-11-08T09:28:57Z</time>
      </trkpt>
      <trkpt lat="48.90286" lon="0.16534">
        <ele>147.4</ele>
        <time>2015-11-08T09:28:58Z</time>
      </trkpt>
      <trkpt lat="48.90284" lon="0.16537">
        <ele>147.3</ele>
        <time>2015-11-08T09:28:59Z</time>
      </trkpt>
      <trkpt lat="48.90282" lon="0.1654">
        <ele>147.23</ele>
        <time>2015-11-08T09:29:00Z</time>
      </trkpt>
      <trkpt lat="48.90278" lon="0.16544">
        <ele>147.18</ele>
        <time>2015-11-08T09:29:02Z</time>
      </trkpt>
      <trkpt lat="48.90275" lon="0.16548">
        <ele>147.55</ele>
        <time>2015-11-08T09:29:04Z</time>
      </trkpt>
      <trkpt lat="48.90273" lon="0.16552">
        <ele>147.94</ele>
        <time>2015-11-08T09:29:06Z</time>
      </trkpt>
      <trkpt lat="48.90271" lon="0.16556">
        <ele>148.26</ele>
        <time>2015-11-08T09:29:08Z</time>
      </trkpt>
      <trkpt lat="48.90268" lon="0.1656">
        <ele>148.48</ele>
        <time>2015-11-08T09:29:10Z</time>
      </trkpt>
      <trkpt lat="48.90263" lon="0.16566">
        <ele>148.9</ele>
        <time>2015-11-08T09:29:12Z</time>
      </trkpt>
      <trkpt lat="48.90261" lon="0.16569">
        <ele>149.18</ele>
        <time>2015-11-08T09:29:13Z</time>
      </trkpt>
      <trkpt lat="48.90259" lon="0.16573">
        <ele>149.5</ele>
        <time>2015-11-08T09:29:14Z</time>
      </trkpt>
      <trkpt lat="48.90257" lon="0.16577">
        <ele>149.84</ele>
        <time>2015-11-08T09:29:15Z</time>
      </trkpt>
      <trkpt lat="48.90256" lon="0.1658">
        <ele>150.19</ele>
        <time>2015-11-08T09:29:16Z</time>
      </trkpt>
      <trkpt lat="48.90253" lon="0.16586">
        <ele>150.48</ele>
        <time>2015-11-08T09:29:18Z</time>
      </trkpt>
      <trkpt lat="48.9025" lon="0.16592">
        <ele>150.36</ele>
        <time>2015-11-08T09:29:20Z</time>
      </trkpt>
      <trkpt lat="48.90248" lon="0.16599">
        <ele>149.78</ele>
        <time>2015-11-08T09:29:22Z</time>
      </trkpt>
      <trkpt lat="48.90246" lon="0.16606">
        <ele>149.28</ele>
        <time>2015-11-08T09:29:24Z</time>
      </trkpt>
      <trkpt lat="48.90244" lon="0.16613">
        <ele>149.08</ele>
        <time>2015-11-08T09:29:26Z</time>
      </trkpt>
      <trkpt lat="48.90243" lon="0.1662">
        <ele>149.32</ele>
        <time>2015-11-08T09:29:28Z</time>
      </trkpt>
      <trkpt lat="48.90241" lon="0.16626">
        <ele>149.53</ele>
        <time>2015-11-08T09:29:30Z</time>
      </trkpt>
      <trkpt lat="48.9024" lon="0.16631">
        <ele>149.71</ele>
        <time>2015-11-08T09:29:32Z</time>
      </trkpt>
      <trkpt lat="48.90239" lon="0.16635">
        <ele>149.87</ele>
        <time>2015-11-08T09:29:34Z</time>
      </trkpt>
      <trkpt lat="48.90238" lon="0.16641">
        <ele>150.21</ele>
        <time>2015-11-08T09:29:37Z</time>
      </trkpt>
      <trkpt lat="48.90239" lon="0.16646">
        <ele>150.69</ele>
        <time>2015-11-08T09:29:40Z</time>
      </trkpt>
      <trkpt lat="48.90238" lon="0.1665">
        <ele>151.18</ele>
        <time>2015-11-08T09:29:44Z</time>
      </trkpt>
      <trkpt lat="48.90236" lon="0.16656">
        <ele>151.82</ele>
        <time>2015-11-08T09:29:47Z</time>
      </trkpt>
      <trkpt lat="48.90235" lon="0.1666">
        <ele>152.33</ele>
        <time>2015-11-08T09:29:49Z</time>
      </trkpt>
      <trkpt lat="48.90233" lon="0.16664">
        <ele>153</ele>
        <time>2015-11-08T09:29:51Z</time>
      </trkpt>
      <trkpt lat="48.9023" lon="0.1667">
        <ele>153.86</ele>
        <time>2015-11-08T09:29:53Z</time>
      </trkpt>
      <trkpt lat="48.90227" lon="0.16675">
        <ele>154.73</ele>
        <time>2015-11-08T09:29:55Z</time>
      </trkpt>
      <trkpt lat="48.90223" lon="0.16678">
        <ele>155.54</ele>
        <time>2015-11-08T09:29:57Z</time>
      </trkpt>
      <trkpt lat="48.90214" lon="0.1669">
        <ele>157.48</ele>
        <time>2015-11-08T09:30:28Z</time>
      </trkpt>
      <trkpt lat="48.90219" lon="0.1669">
        <ele>157.44</ele>
        <time>2015-11-08T09:30:30Z</time>
      </trkpt>
      <trkpt lat="48.90223" lon="0.16691">
        <ele>157.33</ele>
        <time>2015-11-08T09:30:31Z</time>
      </trkpt>
      <trkpt lat="48.90226" lon="0.16691">
        <ele>156.95</ele>
        <time>2015-11-08T09:30:33Z</time>
      </trkpt>
      <trkpt lat="48.90226" lon="0.16686">
        <ele>156.32</ele>
        <time>2015-11-08T09:30:36Z</time>
      </trkpt>
      <trkpt lat="48.90225" lon="0.16682">
        <ele>155.85</ele>
        <time>2015-11-08T09:30:40Z</time>
      </trkpt>
      <trkpt lat="48.90222" lon="0.16682">
        <ele>156.18</ele>
        <time>2015-11-08T09:32:10Z</time>
      </trkpt>
      <trkpt lat="48.90219" lon="0.16682">
        <ele>156.35</ele>
        <time>2015-11-08T09:32:35Z</time>
      </trkpt>
      <trkpt lat="48.90217" lon="0.16681">
        <ele>156.31</ele>
        <time>2015-11-08T09:33:07Z</time>
      </trkpt>
      <trkpt lat="48.90217" lon="0.16675">
        <ele>155.63</ele>
        <time>2015-11-08T09:33:10Z</time>
      </trkpt>
      <trkpt lat="48.90216" lon="0.16671">
        <ele>155.12</ele>
        <time>2015-11-08T09:33:12Z</time>
      </trkpt>
      <trkpt lat="48.90215" lon="0.16666">
        <ele>154.68</ele>
        <time>2015-11-08T09:33:14Z</time>
      </trkpt>
      <trkpt lat="48.90213" lon="0.16661">
        <ele>154.1</ele>
        <time>2015-11-08T09:33:16Z</time>
      </trkpt>
      <trkpt lat="48.90211" lon="0.16656">
        <ele>153.46</ele>
        <time>2015-11-08T09:33:18Z</time>
      </trkpt>
      <trkpt lat="48.90207" lon="0.16652">
        <ele>153.18</ele>
        <time>2015-11-08T09:33:20Z</time>
      </trkpt>
      <trkpt lat="48.90203" lon="0.16649">
        <ele>153.08</ele>
        <time>2015-11-08T09:33:22Z</time>
      </trkpt>
      <trkpt lat="48.90199" lon="0.16647">
        <ele>153.12</ele>
        <time>2015-11-08T09:33:24Z</time>
      </trkpt>
      <trkpt lat="48.90195" lon="0.16647">
        <ele>153.46</ele>
        <time>2015-11-08T09:33:26Z</time>
      </trkpt>
      <trkpt lat="48.90191" lon="0.16648">
        <ele>153.85</ele>
        <time>2015-11-08T09:33:28Z</time>
      </trkpt>
      <trkpt lat="48.90187" lon="0.16649">
        <ele>154.22</ele>
        <time>2015-11-08T09:33:30Z</time>
      </trkpt>
      <trkpt lat="48.90183" lon="0.16651">
        <ele>154.58</ele>
        <time>2015-11-08T09:33:32Z</time>
      </trkpt>
      <trkpt lat="48.90179" lon="0.16651">
        <ele>154.83</ele>
        <time>2015-11-08T09:33:34Z</time>
      </trkpt>
      <trkpt lat="48.90176" lon="0.16651">
        <ele>155</ele>
        <time>2015-11-08T09:33:36Z</time>
      </trkpt>
      <trkpt lat="48.90172" lon="0.1665">
        <ele>154.98</ele>
        <time>2015-11-08T09:33:38Z</time>
      </trkpt>
      <trkpt lat="48.9017" lon="0.16648">
        <ele>154.8</ele>
        <time>2015-11-08T09:33:40Z</time>
      </trkpt>
      <trkpt lat="48.90168" lon="0.16644">
        <ele>154.52</ele>
        <time>2015-11-08T09:33:42Z</time>
      </trkpt>
      <trkpt lat="48.90167" lon="0.16641">
        <ele>154.18</ele>
        <time>2015-11-08T09:33:44Z</time>
      </trkpt>
      <trkpt lat="48.90165" lon="0.16637">
        <ele>154.2</ele>
        <time>2015-11-08T09:33:46Z</time>
      </trkpt>
      <trkpt lat="48.90163" lon="0.16632">
        <ele>154.33</ele>
        <time>2015-11-08T09:33:48Z</time>
      </trkpt>
      <trkpt lat="48.9016" lon="0.16627">
        <ele>154.53</ele>
        <time>2015-11-08T09:33:50Z</time>
      </trkpt>
      <trkpt lat="48.90157" lon="0.16622">
        <ele>154.72</ele>
        <time>2015-11-08T09:33:52Z</time>
      </trkpt>
      <trkpt lat="48.90154" lon="0.16616">
        <ele>154.97</ele>
        <time>2015-11-08T09:33:54Z</time>
      </trkpt>
      <trkpt lat="48.90152" lon="0.16612">
        <ele>155.11</ele>
        <time>2015-11-08T09:33:55Z</time>
      </trkpt>
      <trkpt lat="48.90151" lon="0.16608">
        <ele>154.96</ele>
        <time>2015-11-08T09:33:56Z</time>
      </trkpt>
      <trkpt lat="48.90149" lon="0.16605">
        <ele>154.64</ele>
        <time>2015-11-08T09:33:57Z</time>
      </trkpt>
      <trkpt lat="48.90148" lon="0.16601">
        <ele>154.32</ele>
        <time>2015-11-08T09:33:58Z</time>
      </trkpt>
      <trkpt lat="48.90146" lon="0.16597">
        <ele>154.05</ele>
        <time>2015-11-08T09:33:59Z</time>
      </trkpt>
      <trkpt lat="48.90144" lon="0.16594">
        <ele>153.86</ele>
        <time>2015-11-08T09:34:00Z</time>
      </trkpt>
      <trkpt lat="48.90142" lon="0.16591">
        <ele>153.68</ele>
        <time>2015-11-08T09:34:01Z</time>
      </trkpt>
      <trkpt lat="48.90141" lon="0.16588">
        <ele>153.44</ele>
        <time>2015-11-08T09:34:02Z</time>
      </trkpt>
      <trkpt lat="48.90139" lon="0.16584">
        <ele>153.14</ele>
        <time>2015-11-08T09:34:03Z</time>
      </trkpt>
      <trkpt lat="48.90136" lon="0.16578">
        <ele>152.85</ele>
        <time>2015-11-08T09:34:05Z</time>
      </trkpt>
      <trkpt lat="48.90132" lon="0.16572">
        <ele>152.77</ele>
        <time>2015-11-08T09:34:07Z</time>
      </trkpt>
      <trkpt lat="48.90131" lon="0.16569">
        <ele>152.76</ele>
        <time>2015-11-08T09:34:08Z</time>
      </trkpt>
      <trkpt lat="48.90129" lon="0.16565">
        <ele>152.71</ele>
        <time>2015-11-08T09:34:09Z</time>
      </trkpt>
      <trkpt lat="48.90127" lon="0.16562">
        <ele>152.67</ele>
        <time>2015-11-08T09:34:10Z</time>
      </trkpt>
      <trkpt lat="48.90126" lon="0.16558">
        <ele>152.64</ele>
        <time>2015-11-08T09:34:11Z</time>
      </trkpt>
      <trkpt lat="48.90122" lon="0.16552">
        <ele>152.44</ele>
        <time>2015-11-08T09:34:13Z</time>
      </trkpt>
      <trkpt lat="48.90121" lon="0.16549">
        <ele>152.24</ele>
        <time>2015-11-08T09:34:14Z</time>
      </trkpt>
      <trkpt lat="48.90118" lon="0.16542">
        <ele>151.64</ele>
        <time>2015-11-08T09:34:16Z</time>
      </trkpt>
      <trkpt lat="48.90115" lon="0.16535">
        <ele>150.84</ele>
        <time>2015-11-08T09:34:18Z</time>
      </trkpt>
      <trkpt lat="48.90113" lon="0.16531">
        <ele>150.4</ele>
        <time>2015-11-08T09:34:19Z</time>
      </trkpt>
      <trkpt lat="48.90112" lon="0.16528">
        <ele>149.91</ele>
        <time>2015-11-08T09:34:20Z</time>
      </trkpt>
      <trkpt lat="48.90111" lon="0.16524">
        <ele>149.74</ele>
        <time>2015-11-08T09:34:21Z</time>
      </trkpt>
      <trkpt lat="48.90108" lon="0.16517">
        <ele>149.63</ele>
        <time>2015-11-08T09:34:23Z</time>
      </trkpt>
      <trkpt lat="48.90106" lon="0.1651">
        <ele>149.4</ele>
        <time>2015-11-08T09:34:25Z</time>
      </trkpt>
      <trkpt lat="48.90105" lon="0.16502">
        <ele>149.14</ele>
        <time>2015-11-08T09:34:27Z</time>
      </trkpt>
      <trkpt lat="48.90104" lon="0.16498">
        <ele>149.15</ele>
        <time>2015-11-08T09:34:28Z</time>
      </trkpt>
      <trkpt lat="48.90103" lon="0.16493">
        <ele>149.26</ele>
        <time>2015-11-08T09:34:29Z</time>
      </trkpt>
      <trkpt lat="48.90101" lon="0.16489">
        <ele>149.45</ele>
        <time>2015-11-08T09:34:30Z</time>
      </trkpt>
      <trkpt lat="48.90099" lon="0.16484">
        <ele>149.65</ele>
        <time>2015-11-08T09:34:31Z</time>
      </trkpt>
      <trkpt lat="48.90098" lon="0.16479">
        <ele>149.82</ele>
        <time>2015-11-08T09:34:32Z</time>
      </trkpt>
      <trkpt lat="48.90096" lon="0.16474">
        <ele>149.88</ele>
        <time>2015-11-08T09:34:33Z</time>
      </trkpt>
      <trkpt lat="48.90095" lon="0.16468">
        <ele>149.65</ele>
        <time>2015-11-08T09:34:34Z</time>
      </trkpt>
      <trkpt lat="48.90094" lon="0.16463">
        <ele>149.32</ele>
        <time>2015-11-08T09:34:35Z</time>
      </trkpt>
      <trkpt lat="48.90093" lon="0.16459">
        <ele>149</ele>
        <time>2015-11-08T09:34:36Z</time>
      </trkpt>
      <trkpt lat="48.90092" lon="0.16455">
        <ele>148.67</ele>
        <time>2015-11-08T09:34:37Z</time>
      </trkpt>
      <trkpt lat="48.90091" lon="0.16451">
        <ele>148.33</ele>
        <time>2015-11-08T09:34:38Z</time>
      </trkpt>
      <trkpt lat="48.9009" lon="0.16446">
        <ele>147.89</ele>
        <time>2015-11-08T09:34:39Z</time>
      </trkpt>
      <trkpt lat="48.90089" lon="0.16442">
        <ele>147.49</ele>
        <time>2015-11-08T09:34:40Z</time>
      </trkpt>
      <trkpt lat="48.90088" lon="0.16438">
        <ele>147.13</ele>
        <time>2015-11-08T09:34:41Z</time>
      </trkpt>
      <trkpt lat="48.90087" lon="0.16433">
        <ele>146.7</ele>
        <time>2015-11-08T09:34:42Z</time>
      </trkpt>
      <trkpt lat="48.90086" lon="0.1643">
        <ele>146.39</ele>
        <time>2015-11-08T09:34:43Z</time>
      </trkpt>
      <trkpt lat="48.90085" lon="0.16426">
        <ele>146.05</ele>
        <time>2015-11-08T09:34:44Z</time>
      </trkpt>
      <trkpt lat="48.90084" lon="0.16422">
        <ele>145.68</ele>
        <time>2015-11-08T09:34:45Z</time>
      </trkpt>
      <trkpt lat="48.90082" lon="0.16414">
        <ele>145.47</ele>
        <time>2015-11-08T09:34:47Z</time>
      </trkpt>
      <trkpt lat="48.9008" lon="0.16408">
        <ele>146.14</ele>
        <time>2015-11-08T09:34:49Z</time>
      </trkpt>
      <trkpt lat="48.90077" lon="0.16402">
        <ele>146.71</ele>
        <time>2015-11-08T09:34:51Z</time>
      </trkpt>
      <trkpt lat="48.90076" lon="0.16395">
        <ele>146.81</ele>
        <time>2015-11-08T09:34:53Z</time>
      </trkpt>
      <trkpt lat="48.90075" lon="0.16389">
        <ele>147.12</ele>
        <time>2015-11-08T09:34:55Z</time>
      </trkpt>
      <trkpt lat="48.90073" lon="0.16383">
        <ele>147.72</ele>
        <time>2015-11-08T09:34:57Z</time>
      </trkpt>
      <trkpt lat="48.90036" lon="0.16302">
        <ele>150.3</ele>
        <time>2015-11-08T09:35:27Z</time>
      </trkpt>
      <trkpt lat="48.90035" lon="0.16296">
        <ele>150.27</ele>
        <time>2015-11-08T09:35:29Z</time>
      </trkpt>
      <trkpt lat="48.90032" lon="0.16292">
        <ele>150.17</ele>
        <time>2015-11-08T09:35:31Z</time>
      </trkpt>
      <trkpt lat="48.90029" lon="0.16289">
        <ele>150.06</ele>
        <time>2015-11-08T09:35:33Z</time>
      </trkpt>
      <trkpt lat="48.90027" lon="0.16287">
        <ele>150.31</ele>
        <time>2015-11-08T09:35:35Z</time>
      </trkpt>
      <trkpt lat="48.90024" lon="0.16283">
        <ele>151.02</ele>
        <time>2015-11-08T09:35:37Z</time>
      </trkpt>
      <trkpt lat="48.90021" lon="0.1628">
        <ele>151.81</ele>
        <time>2015-11-08T09:35:39Z</time>
      </trkpt>
      <trkpt lat="48.90017" lon="0.16278">
        <ele>152.7</ele>
        <time>2015-11-08T09:35:41Z</time>
      </trkpt>
      <trkpt lat="48.90014" lon="0.16275">
        <ele>153.15</ele>
        <time>2015-11-08T09:35:43Z</time>
      </trkpt>
      <trkpt lat="48.90011" lon="0.16272">
        <ele>153.65</ele>
        <time>2015-11-08T09:35:45Z</time>
      </trkpt>
      <trkpt lat="48.90008" lon="0.16269">
        <ele>154</ele>
        <time>2015-11-08T09:35:47Z</time>
      </trkpt>
      <trkpt lat="48.90006" lon="0.16265">
        <ele>154.18</ele>
        <time>2015-11-08T09:35:49Z</time>
      </trkpt>
      <trkpt lat="48.90003" lon="0.16261">
        <ele>154.34</ele>
        <time>2015-11-08T09:35:51Z</time>
      </trkpt>
      <trkpt lat="48.90001" lon="0.16257">
        <ele>154.56</ele>
        <time>2015-11-08T09:35:53Z</time>
      </trkpt>
      <trkpt lat="48.89998" lon="0.16253">
        <ele>154.62</ele>
        <time>2015-11-08T09:35:55Z</time>
      </trkpt>
      <trkpt lat="48.89996" lon="0.16249">
        <ele>154.51</ele>
        <time>2015-11-08T09:35:57Z</time>
      </trkpt>
      <trkpt lat="48.89993" lon="0.16245">
        <ele>154.49</ele>
        <time>2015-11-08T09:35:59Z</time>
      </trkpt>
      <trkpt lat="48.89991" lon="0.16241">
        <ele>154.41</ele>
        <time>2015-11-08T09:36:01Z</time>
      </trkpt>
      <trkpt lat="48.89989" lon="0.16237">
        <ele>154.3</ele>
        <time>2015-11-08T09:36:03Z</time>
      </trkpt>
      <trkpt lat="48.89986" lon="0.16233">
        <ele>154.19</ele>
        <time>2015-11-08T09:36:05Z</time>
      </trkpt>
      <trkpt lat="48.89983" lon="0.1623">
        <ele>154.11</ele>
        <time>2015-11-08T09:36:07Z</time>
      </trkpt>
      <trkpt lat="48.8998" lon="0.16227">
        <ele>154.04</ele>
        <time>2015-11-08T09:36:09Z</time>
      </trkpt>
      <trkpt lat="48.89976" lon="0.16224">
        <ele>154.02</ele>
        <time>2015-11-08T09:36:11Z</time>
      </trkpt>
      <trkpt lat="48.89972" lon="0.16224">
        <ele>154.33</ele>
        <time>2015-11-08T09:36:13Z</time>
      </trkpt>
      <trkpt lat="48.89968" lon="0.16226">
        <ele>155.6</ele>
        <time>2015-11-08T09:36:15Z</time>
      </trkpt>
      <trkpt lat="48.89965" lon="0.16228">
        <ele>156.83</ele>
        <time>2015-11-08T09:36:17Z</time>
      </trkpt>
      <trkpt lat="48.89962" lon="0.16229">
        <ele>157.89</ele>
        <time>2015-11-08T09:36:19Z</time>
      </trkpt>
      <trkpt lat="48.89959" lon="0.1623">
        <ele>158.86</ele>
        <time>2015-11-08T09:36:21Z</time>
      </trkpt>
      <trkpt lat="48.89956" lon="0.16231">
        <ele>159.86</ele>
        <time>2015-11-08T09:36:23Z</time>
      </trkpt>
      <trkpt lat="48.89953" lon="0.16232">
        <ele>160.85</ele>
        <time>2015-11-08T09:36:25Z</time>
      </trkpt>
      <trkpt lat="48.8995" lon="0.16234">
        <ele>161.85</ele>
        <time>2015-11-08T09:36:27Z</time>
      </trkpt>
      <trkpt lat="48.89947" lon="0.16236">
        <ele>162.9</ele>
        <time>2015-11-08T09:36:29Z</time>
      </trkpt>
      <trkpt lat="48.89944" lon="0.16238">
        <ele>163.89</ele>
        <time>2015-11-08T09:36:31Z</time>
      </trkpt>
      <trkpt lat="48.8994" lon="0.16239">
        <ele>164.92</ele>
        <time>2015-11-08T09:36:33Z</time>
      </trkpt>
      <trkpt lat="48.89937" lon="0.1624">
        <ele>165.82</ele>
        <time>2015-11-08T09:36:35Z</time>
      </trkpt>
      <trkpt lat="48.89934" lon="0.16242">
        <ele>166.72</ele>
        <time>2015-11-08T09:36:37Z</time>
      </trkpt>
      <trkpt lat="48.89932" lon="0.16243">
        <ele>167.5</ele>
        <time>2015-11-08T09:36:39Z</time>
      </trkpt>
      <trkpt lat="48.89929" lon="0.16245">
        <ele>168.23</ele>
        <time>2015-11-08T09:36:41Z</time>
      </trkpt>
      <trkpt lat="48.89926" lon="0.16247">
        <ele>168.88</ele>
        <time>2015-11-08T09:36:43Z</time>
      </trkpt>
      <trkpt lat="48.89922" lon="0.16248">
        <ele>169.8</ele>
        <time>2015-11-08T09:36:46Z</time>
      </trkpt>
      <trkpt lat="48.89919" lon="0.16249">
        <ele>170.57</ele>
        <time>2015-11-08T09:36:49Z</time>
      </trkpt>
      <trkpt lat="48.89916" lon="0.16252">
        <ele>171.67</ele>
        <time>2015-11-08T09:36:52Z</time>
      </trkpt>
      <trkpt lat="48.89893" lon="0.16253">
        <ele>181.27</ele>
        <time>2015-11-08T09:40:31Z</time>
      </trkpt>
      <trkpt lat="48.89891" lon="0.16256">
        <ele>182.17</ele>
        <time>2015-11-08T09:40:41Z</time>
      </trkpt>
      <trkpt lat="48.8989" lon="0.1626">
        <ele>182.67</ele>
        <time>2015-11-08T09:40:51Z</time>
      </trkpt>
      <trkpt lat="48.89887" lon="0.16262">
        <ele>183.44</ele>
        <time>2015-11-08T09:40:54Z</time>
      </trkpt>
      <trkpt lat="48.89885" lon="0.16264">
        <ele>184.05</ele>
        <time>2015-11-08T09:40:57Z</time>
      </trkpt>
      <trkpt lat="48.89882" lon="0.16267">
        <ele>184.72</ele>
        <time>2015-11-08T09:41:13Z</time>
      </trkpt>
      <trkpt lat="48.8988" lon="0.1627">
        <ele>185.3</ele>
        <time>2015-11-08T09:41:18Z</time>
      </trkpt>
      <trkpt lat="48.89878" lon="0.16274">
        <ele>185.68</ele>
        <time>2015-11-08T09:41:31Z</time>
      </trkpt>
      <trkpt lat="48.89875" lon="0.16274">
        <ele>186.55</ele>
        <time>2015-11-08T09:41:36Z</time>
      </trkpt>
      <trkpt lat="48.89872" lon="0.16276">
        <ele>187.36</ele>
        <time>2015-11-08T09:42:06Z</time>
      </trkpt>
      <trkpt lat="48.89869" lon="0.16278">
        <ele>187.97</ele>
        <time>2015-11-08T09:42:12Z</time>
      </trkpt>
      <trkpt lat="48.89867" lon="0.16281">
        <ele>188.76</ele>
        <time>2015-11-08T09:42:17Z</time>
      </trkpt>
      <trkpt lat="48.89865" lon="0.16284">
        <ele>189.52</ele>
        <time>2015-11-08T09:42:21Z</time>
      </trkpt>
      <trkpt lat="48.89863" lon="0.16286">
        <ele>190.25</ele>
        <time>2015-11-08T09:42:25Z</time>
      </trkpt>
      <trkpt lat="48.8986" lon="0.16288">
        <ele>191.45</ele>
        <time>2015-11-08T09:42:30Z</time>
      </trkpt>
      <trkpt lat="48.89857" lon="0.1629">
        <ele>192.79</ele>
        <time>2015-11-08T09:42:37Z</time>
      </trkpt>
      <trkpt lat="48.89855" lon="0.16292">
        <ele>194.12</ele>
        <time>2015-11-08T09:42:44Z</time>
      </trkpt>
      <trkpt lat="48.89852" lon="0.16293">
        <ele>195.52</ele>
        <time>2015-11-08T09:43:04Z</time>
      </trkpt>
      <trkpt lat="48.89849" lon="0.16295">
        <ele>197.3</ele>
        <time>2015-11-08T09:43:10Z</time>
      </trkpt>
      <trkpt lat="48.89846" lon="0.16297">
        <ele>198.88</ele>
        <time>2015-11-08T09:43:15Z</time>
      </trkpt>
      <trkpt lat="48.89844" lon="0.163">
        <ele>200.5</ele>
        <time>2015-11-08T09:43:40Z</time>
      </trkpt>
      <trkpt lat="48.89841" lon="0.16302">
        <ele>202.18</ele>
        <time>2015-11-08T09:43:50Z</time>
      </trkpt>
      <trkpt lat="48.89838" lon="0.16303">
        <ele>204.23</ele>
        <time>2015-11-08T09:44:12Z</time>
      </trkpt>
      <trkpt lat="48.89835" lon="0.16305">
        <ele>206.26</ele>
        <time>2015-11-08T09:44:21Z</time>
      </trkpt>
      <trkpt lat="48.89832" lon="0.16308">
        <ele>207.26</ele>
        <time>2015-11-08T09:44:24Z</time>
      </trkpt>
      <trkpt lat="48.89829" lon="0.16311">
        <ele>207.59</ele>
        <time>2015-11-08T09:44:26Z</time>
      </trkpt>
      <trkpt lat="48.89827" lon="0.16314">
        <ele>207.83</ele>
        <time>2015-11-08T09:44:31Z</time>
      </trkpt>
      <trkpt lat="48.89825" lon="0.16317">
        <ele>208.06</ele>
        <time>2015-11-08T09:44:34Z</time>
      </trkpt>
      <trkpt lat="48.89822" lon="0.16321">
        <ele>208.23</ele>
        <time>2015-11-08T09:44:37Z</time>
      </trkpt>
      <trkpt lat="48.8982" lon="0.16324">
        <ele>208.33</ele>
        <time>2015-11-08T09:44:40Z</time>
      </trkpt>
      <trkpt lat="48.89818" lon="0.16327">
        <ele>208.37</ele>
        <time>2015-11-08T09:44:42Z</time>
      </trkpt>
      <trkpt lat="48.89816" lon="0.16331">
        <ele>208.37</ele>
        <time>2015-11-08T09:44:47Z</time>
      </trkpt>
      <trkpt lat="48.89814" lon="0.16334">
        <ele>208.32</ele>
        <time>2015-11-08T09:44:54Z</time>
      </trkpt>
      <trkpt lat="48.89782" lon="0.16359">
        <ele>214.97</ele>
        <time>2015-11-08T09:45:30Z</time>
      </trkpt>
      <trkpt lat="48.89785" lon="0.16358">
        <ele>214.43</ele>
        <time>2015-11-08T09:45:33Z</time>
      </trkpt>
      <trkpt lat="48.89782" lon="0.16358">
        <ele>214.93</ele>
        <time>2015-11-08T09:46:44Z</time>
      </trkpt>
      <trkpt lat="48.8978" lon="0.16361">
        <ele>215.64</ele>
        <time>2015-11-08T09:46:51Z</time>
      </trkpt>
      <trkpt lat="48.89777" lon="0.16362">
        <ele>216.11</ele>
        <time>2015-11-08T09:46:55Z</time>
      </trkpt>
      <trkpt lat="48.89774" lon="0.16362">
        <ele>216.41</ele>
        <time>2015-11-08T09:47:00Z</time>
      </trkpt>
      <trkpt lat="48.89771" lon="0.16363">
        <ele>216.7</ele>
        <time>2015-11-08T09:47:04Z</time>
      </trkpt>
      <trkpt lat="48.89767" lon="0.16364">
        <ele>217.04</ele>
        <time>2015-11-08T09:47:09Z</time>
      </trkpt>
      <trkpt lat="48.89764" lon="0.16366">
        <ele>217.31</ele>
        <time>2015-11-08T09:47:11Z</time>
      </trkpt>
      <trkpt lat="48.89761" lon="0.16368">
        <ele>217.59</ele>
        <time>2015-11-08T09:47:14Z</time>
      </trkpt>
      <trkpt lat="48.89758" lon="0.16371">
        <ele>217.8</ele>
        <time>2015-11-08T09:47:17Z</time>
      </trkpt>
      <trkpt lat="48.89755" lon="0.16372">
        <ele>218.06</ele>
        <time>2015-11-08T09:47:23Z</time>
      </trkpt>
      <trkpt lat="48.89753" lon="0.16374">
        <ele>218.27</ele>
        <time>2015-11-08T09:47:37Z</time>
      </trkpt>
      <trkpt lat="48.8975" lon="0.16374">
        <ele>218.57</ele>
        <time>2015-11-08T09:47:39Z</time>
      </trkpt>
      <trkpt lat="48.89746" lon="0.16376">
        <ele>218.81</ele>
        <time>2015-11-08T09:47:41Z</time>
      </trkpt>
      <trkpt lat="48.89742" lon="0.16378">
        <ele>219</ele>
        <time>2015-11-08T09:47:43Z</time>
      </trkpt>
      <trkpt lat="48.89738" lon="0.1638">
        <ele>219.15</ele>
        <time>2015-11-08T09:47:45Z</time>
      </trkpt>
      <trkpt lat="48.89735" lon="0.16381">
        <ele>219.28</ele>
        <time>2015-11-08T09:47:47Z</time>
      </trkpt>
      <trkpt lat="48.89731" lon="0.16383">
        <ele>219.35</ele>
        <time>2015-11-08T09:47:49Z</time>
      </trkpt>
      <trkpt lat="48.89728" lon="0.16382">
        <ele>219.58</ele>
        <time>2015-11-08T09:47:51Z</time>
      </trkpt>
      <trkpt lat="48.89724" lon="0.16383">
        <ele>219.76</ele>
        <time>2015-11-08T09:47:54Z</time>
      </trkpt>
      <trkpt lat="48.89721" lon="0.16385">
        <ele>219.77</ele>
        <time>2015-11-08T09:47:56Z</time>
      </trkpt>
      <trkpt lat="48.89719" lon="0.16389">
        <ele>220.04</ele>
        <time>2015-11-08T09:47:58Z</time>
      </trkpt>
      <trkpt lat="48.89715" lon="0.16392">
        <ele>221.75</ele>
        <time>2015-11-08T09:48:01Z</time>
      </trkpt>
      <trkpt lat="48.89712" lon="0.16393">
        <ele>222.85</ele>
        <time>2015-11-08T09:48:03Z</time>
      </trkpt>
      <trkpt lat="48.89709" lon="0.16396">
        <ele>224.01</ele>
        <time>2015-11-08T09:48:05Z</time>
      </trkpt>
      <trkpt lat="48.89705" lon="0.164">
        <ele>224.93</ele>
        <time>2015-11-08T09:48:07Z</time>
      </trkpt>
      <trkpt lat="48.89701" lon="0.16402">
        <ele>225.74</ele>
        <time>2015-11-08T09:48:09Z</time>
      </trkpt>
      <trkpt lat="48.89697" lon="0.16404">
        <ele>226.38</ele>
        <time>2015-11-08T09:48:11Z</time>
      </trkpt>
      <trkpt lat="48.89692" lon="0.16406">
        <ele>226.18</ele>
        <time>2015-11-08T09:48:13Z</time>
      </trkpt>
      <trkpt lat="48.89688" lon="0.16409">
        <ele>225.35</ele>
        <time>2015-11-08T09:48:15Z</time>
      </trkpt>
      <trkpt lat="48.89685" lon="0.16409">
        <ele>224.82</ele>
        <time>2015-11-08T09:48:17Z</time>
      </trkpt>
      <trkpt lat="48.89682" lon="0.16408">
        <ele>224.52</ele>
        <time>2015-11-08T09:48:19Z</time>
      </trkpt>
      <trkpt lat="48.89679" lon="0.1641">
        <ele>223.99</ele>
        <time>2015-11-08T09:48:22Z</time>
      </trkpt>
      <trkpt lat="48.89675" lon="0.16413">
        <ele>223.62</ele>
        <time>2015-11-08T09:48:25Z</time>
      </trkpt>
      <trkpt lat="48.89671" lon="0.16415">
        <ele>223.28</ele>
        <time>2015-11-08T09:48:28Z</time>
      </trkpt>
      <trkpt lat="48.89668" lon="0.16416">
        <ele>223.09</ele>
        <time>2015-11-08T09:48:30Z</time>
      </trkpt>
      <trkpt lat="48.89665" lon="0.16418">
        <ele>223.3</ele>
        <time>2015-11-08T09:48:32Z</time>
      </trkpt>
      <trkpt lat="48.89662" lon="0.16419">
        <ele>223.67</ele>
        <time>2015-11-08T09:48:34Z</time>
      </trkpt>
      <trkpt lat="48.89659" lon="0.16421">
        <ele>224.13</ele>
        <time>2015-11-08T09:48:36Z</time>
      </trkpt>
      <trkpt lat="48.89655" lon="0.16424">
        <ele>224.71</ele>
        <time>2015-11-08T09:48:38Z</time>
      </trkpt>
      <trkpt lat="48.8965" lon="0.16426">
        <ele>225.27</ele>
        <time>2015-11-08T09:48:40Z</time>
      </trkpt>
      <trkpt lat="48.89646" lon="0.16428">
        <ele>225.78</ele>
        <time>2015-11-08T09:48:42Z</time>
      </trkpt>
      <trkpt lat="48.89642" lon="0.16428">
        <ele>226.14</ele>
        <time>2015-11-08T09:48:44Z</time>
      </trkpt>
      <trkpt lat="48.89639" lon="0.16426">
        <ele>226.34</ele>
        <time>2015-11-08T09:48:46Z</time>
      </trkpt>
      <trkpt lat="48.89636" lon="0.16424">
        <ele>226.25</ele>
        <time>2015-11-08T09:48:49Z</time>
      </trkpt>
      <trkpt lat="48.89634" lon="0.16421">
        <ele>226.13</ele>
        <time>2015-11-08T09:48:52Z</time>
      </trkpt>
      <trkpt lat="48.89635" lon="0.16415">
        <ele>226</ele>
        <time>2015-11-08T09:48:55Z</time>
      </trkpt>
      <trkpt lat="48.89637" lon="0.16413">
        <ele>226</ele>
        <time>2015-11-08T09:48:59Z</time>
      </trkpt>
      <trkpt lat="48.89639" lon="0.16409">
        <ele>226</ele>
        <time>2015-11-08T09:49:10Z</time>
      </trkpt>
      <trkpt lat="48.89637" lon="0.16404">
        <ele>226</ele>
        <time>2015-11-08T09:49:13Z</time>
      </trkpt>
      <trkpt lat="48.89635" lon="0.16401">
        <ele>226</ele>
        <time>2015-11-08T09:49:15Z</time>
      </trkpt>
      <trkpt lat="48.89632" lon="0.16398">
        <ele>226</ele>
        <time>2015-11-08T09:49:17Z</time>
      </trkpt>
      <trkpt lat="48.89629" lon="0.16394">
        <ele>226</ele>
        <time>2015-11-08T09:49:19Z</time>
      </trkpt>
      <trkpt lat="48.89625" lon="0.16389">
        <ele>226</ele>
        <time>2015-11-08T09:49:21Z</time>
      </trkpt>
      <trkpt lat="48.89623" lon="0.16386">
        <ele>226</ele>
        <time>2015-11-08T09:49:22Z</time>
      </trkpt>
      <trkpt lat="48.89621" lon="0.16383">
        <ele>226</ele>
        <time>2015-11-08T09:49:23Z</time>
      </trkpt>
      <trkpt lat="48.89618" lon="0.16377">
        <ele>226</ele>
        <time>2015-11-08T09:49:25Z</time>
      </trkpt>
      <trkpt lat="48.89615" lon="0.16371">
        <ele>226</ele>
        <time>2015-11-08T09:49:27Z</time>
      </trkpt>
      <trkpt lat="48.89612" lon="0.16365">
        <ele>226</ele>
        <time>2015-11-08T09:49:29Z</time>
      </trkpt>
      <trkpt lat="48.8961" lon="0.16359">
        <ele>225.96</ele>
        <time>2015-11-08T09:49:31Z</time>
      </trkpt>
      <trkpt lat="48.89607" lon="0.16354">
        <ele>225.82</ele>
        <time>2015-11-08T09:49:33Z</time>
      </trkpt>
      <trkpt lat="48.89603" lon="0.16349">
        <ele>225.53</ele>
        <time>2015-11-08T09:49:35Z</time>
      </trkpt>
      <trkpt lat="48.89599" lon="0.16345">
        <ele>225.26</ele>
        <time>2015-11-08T09:49:37Z</time>
      </trkpt>
      <trkpt lat="48.89596" lon="0.16341">
        <ele>225.05</ele>
        <time>2015-11-08T09:49:39Z</time>
      </trkpt>
      <trkpt lat="48.89593" lon="0.16338">
        <ele>224.9</ele>
        <time>2015-11-08T09:49:42Z</time>
      </trkpt>
      <trkpt lat="48.8959" lon="0.16333">
        <ele>224.77</ele>
        <time>2015-11-08T09:49:45Z</time>
      </trkpt>
      <trkpt lat="48.89588" lon="0.16329">
        <ele>224.41</ele>
        <time>2015-11-08T09:49:47Z</time>
      </trkpt>
      <trkpt lat="48.89586" lon="0.16323">
        <ele>224.03</ele>
        <time>2015-11-08T09:49:49Z</time>
      </trkpt>
      <trkpt lat="48.89584" lon="0.16318">
        <ele>223.5</ele>
        <time>2015-11-08T09:49:51Z</time>
      </trkpt>
      <trkpt lat="48.8958" lon="0.16313">
        <ele>224.01</ele>
        <time>2015-11-08T09:49:53Z</time>
      </trkpt>
      <trkpt lat="48.89578" lon="0.1631">
        <ele>224.35</ele>
        <time>2015-11-08T09:49:54Z</time>
      </trkpt>
      <trkpt lat="48.89575" lon="0.16304">
        <ele>224.82</ele>
        <time>2015-11-08T09:49:56Z</time>
      </trkpt>
      <trkpt lat="48.89572" lon="0.16299">
        <ele>225.19</ele>
        <time>2015-11-08T09:49:58Z</time>
      </trkpt>
      <trkpt lat="48.89569" lon="0.16294">
        <ele>225.38</ele>
        <time>2015-11-08T09:50:00Z</time>
      </trkpt>
      <trkpt lat="48.89517" lon="0.16171">
        <ele>225.28</ele>
        <time>2015-11-08T09:50:32Z</time>
      </trkpt>
      <trkpt lat="48.89519" lon="0.16174">
        <ele>225.12</ele>
        <time>2015-11-08T09:50:36Z</time>
      </trkpt>
      <trkpt lat="48.89516" lon="0.16172">
        <ele>225.3</ele>
        <time>2015-11-08T09:50:39Z</time>
      </trkpt>
      <trkpt lat="48.89514" lon="0.16169">
        <ele>225.46</ele>
        <time>2015-11-08T09:50:41Z</time>
      </trkpt>
      <trkpt lat="48.89511" lon="0.16166">
        <ele>225.62</ele>
        <time>2015-11-08T09:50:43Z</time>
      </trkpt>
      <trkpt lat="48.89508" lon="0.16162">
        <ele>225.77</ele>
        <time>2015-11-08T09:50:45Z</time>
      </trkpt>
      <trkpt lat="48.89504" lon="0.16158">
        <ele>225.89</ele>
        <time>2015-11-08T09:50:47Z</time>
      </trkpt>
      <trkpt lat="48.89501" lon="0.16154">
        <ele>225.98</ele>
        <time>2015-11-08T09:50:49Z</time>
      </trkpt>
      <trkpt lat="48.89498" lon="0.1615">
        <ele>226.2</ele>
        <time>2015-11-08T09:50:51Z</time>
      </trkpt>
      <trkpt lat="48.89495" lon="0.16146">
        <ele>226.49</ele>
        <time>2015-11-08T09:50:53Z</time>
      </trkpt>
      <trkpt lat="48.89493" lon="0.16143">
        <ele>226.74</ele>
        <time>2015-11-08T09:50:55Z</time>
      </trkpt>
      <trkpt lat="48.89489" lon="0.16141">
        <ele>227.15</ele>
        <time>2015-11-08T09:50:57Z</time>
      </trkpt>
      <trkpt lat="48.89486" lon="0.16137">
        <ele>227.52</ele>
        <time>2015-11-08T09:50:59Z</time>
      </trkpt>
      <trkpt lat="48.89483" lon="0.16134">
        <ele>227.94</ele>
        <time>2015-11-08T09:51:01Z</time>
      </trkpt>
      <trkpt lat="48.8948" lon="0.16131">
        <ele>228.36</ele>
        <time>2015-11-08T09:51:03Z</time>
      </trkpt>
      <trkpt lat="48.89477" lon="0.16128">
        <ele>228.82</ele>
        <time>2015-11-08T09:51:05Z</time>
      </trkpt>
      <trkpt lat="48.89473" lon="0.16125">
        <ele>229.44</ele>
        <time>2015-11-08T09:51:07Z</time>
      </trkpt>
      <trkpt lat="48.89469" lon="0.16122">
        <ele>230.43</ele>
        <time>2015-11-08T09:51:09Z</time>
      </trkpt>
      <trkpt lat="48.89466" lon="0.16119">
        <ele>231.49</ele>
        <time>2015-11-08T09:51:11Z</time>
      </trkpt>
      <trkpt lat="48.89462" lon="0.16115">
        <ele>232.61</ele>
        <time>2015-11-08T09:51:13Z</time>
      </trkpt>
      <trkpt lat="48.8946" lon="0.16112">
        <ele>233.52</ele>
        <time>2015-11-08T09:51:15Z</time>
      </trkpt>
      <trkpt lat="48.89458" lon="0.16108">
        <ele>234.17</ele>
        <time>2015-11-08T09:51:17Z</time>
      </trkpt>
      <trkpt lat="48.89455" lon="0.16105">
        <ele>235.05</ele>
        <time>2015-11-08T09:51:19Z</time>
      </trkpt>
      <trkpt lat="48.89452" lon="0.16102">
        <ele>236.08</ele>
        <time>2015-11-08T09:51:21Z</time>
      </trkpt>
      <trkpt lat="48.8945" lon="0.16096">
        <ele>236.77</ele>
        <time>2015-11-08T09:51:23Z</time>
      </trkpt>
      <trkpt lat="48.89448" lon="0.16091">
        <ele>237.67</ele>
        <time>2015-11-08T09:51:25Z</time>
      </trkpt>
      <trkpt lat="48.89445" lon="0.16086">
        <ele>238.6</ele>
        <time>2015-11-08T09:51:27Z</time>
      </trkpt>
      <trkpt lat="48.89442" lon="0.16084">
        <ele>239.29</ele>
        <time>2015-11-08T09:51:29Z</time>
      </trkpt>
      <trkpt lat="48.89438" lon="0.1608">
        <ele>239.29</ele>
        <time>2015-11-08T09:51:31Z</time>
      </trkpt>
      <trkpt lat="48.89436" lon="0.16075">
        <ele>239.12</ele>
        <time>2015-11-08T09:51:33Z</time>
      </trkpt>
      <trkpt lat="48.89433" lon="0.16071">
        <ele>239.39</ele>
        <time>2015-11-08T09:51:35Z</time>
      </trkpt>
      <trkpt lat="48.89429" lon="0.1607">
        <ele>240.09</ele>
        <time>2015-11-08T09:51:37Z</time>
      </trkpt>
      <trkpt lat="48.89425" lon="0.16068">
        <ele>240.84</ele>
        <time>2015-11-08T09:51:39Z</time>
      </trkpt>
      <trkpt lat="48.89421" lon="0.16065">
        <ele>241.65</ele>
        <time>2015-11-08T09:51:41Z</time>
      </trkpt>
      <trkpt lat="48.89418" lon="0.16061">
        <ele>242.45</ele>
        <time>2015-11-08T09:51:43Z</time>
      </trkpt>
      <trkpt lat="48.89416" lon="0.16057">
        <ele>242.92</ele>
        <time>2015-11-08T09:51:45Z</time>
      </trkpt>
      <trkpt lat="48.89414" lon="0.16053">
        <ele>242.55</ele>
        <time>2015-11-08T09:51:47Z</time>
      </trkpt>
      <trkpt lat="48.89411" lon="0.16051">
        <ele>242.1</ele>
        <time>2015-11-08T09:51:49Z</time>
      </trkpt>
      <trkpt lat="48.89408" lon="0.16049">
        <ele>241.88</ele>
        <time>2015-11-08T09:51:51Z</time>
      </trkpt>
      <trkpt lat="48.89405" lon="0.16047">
        <ele>241.65</ele>
        <time>2015-11-08T09:51:53Z</time>
      </trkpt>
      <trkpt lat="48.89401" lon="0.16043">
        <ele>241.45</ele>
        <time>2015-11-08T09:51:55Z</time>
      </trkpt>
      <trkpt lat="48.89399" lon="0.16039">
        <ele>241.27</ele>
        <time>2015-11-08T09:51:57Z</time>
      </trkpt>
      <trkpt lat="48.89397" lon="0.16035">
        <ele>241.2</ele>
        <time>2015-11-08T09:51:59Z</time>
      </trkpt>
      <trkpt lat="48.89394" lon="0.16032">
        <ele>241.41</ele>
        <time>2015-11-08T09:52:01Z</time>
      </trkpt>
      <trkpt lat="48.89391" lon="0.16027">
        <ele>241.69</ele>
        <time>2015-11-08T09:52:03Z</time>
      </trkpt>
      <trkpt lat="48.89389" lon="0.16022">
        <ele>241.77</ele>
        <time>2015-11-08T09:52:05Z</time>
      </trkpt>
      <trkpt lat="48.89386" lon="0.16017">
        <ele>241.47</ele>
        <time>2015-11-08T09:52:07Z</time>
      </trkpt>
      <trkpt lat="48.89384" lon="0.16013">
        <ele>241.18</ele>
        <time>2015-11-08T09:52:09Z</time>
      </trkpt>
      <trkpt lat="48.8938" lon="0.16009">
        <ele>240.89</ele>
        <time>2015-11-08T09:52:11Z</time>
      </trkpt>
      <trkpt lat="48.89376" lon="0.16005">
        <ele>240.65</ele>
        <time>2015-11-08T09:52:13Z</time>
      </trkpt>
      <trkpt lat="48.89373" lon="0.16001">
        <ele>240.44</ele>
        <time>2015-11-08T09:52:15Z</time>
      </trkpt>
      <trkpt lat="48.89371" lon="0.15996">
        <ele>239.9</ele>
        <time>2015-11-08T09:52:17Z</time>
      </trkpt>
      <trkpt lat="48.89371" lon="0.1599">
        <ele>239.22</ele>
        <time>2015-11-08T09:52:19Z</time>
      </trkpt>
      <trkpt lat="48.8937" lon="0.15984">
        <ele>238.64</ele>
        <time>2015-11-08T09:52:21Z</time>
      </trkpt>
      <trkpt lat="48.89367" lon="0.15979">
        <ele>238.22</ele>
        <time>2015-11-08T09:52:23Z</time>
      </trkpt>
      <trkpt lat="48.89366" lon="0.15974">
        <ele>237.81</ele>
        <time>2015-11-08T09:52:25Z</time>
      </trkpt>
      <trkpt lat="48.89364" lon="0.15968">
        <ele>237.22</ele>
        <time>2015-11-08T09:52:27Z</time>
      </trkpt>
      <trkpt lat="48.89363" lon="0.15963">
        <ele>236.51</ele>
        <time>2015-11-08T09:52:29Z</time>
      </trkpt>
      <trkpt lat="48.8936" lon="0.15958">
        <ele>235.93</ele>
        <time>2015-11-08T09:52:31Z</time>
      </trkpt>
      <trkpt lat="48.89356" lon="0.15953">
        <ele>235.23</ele>
        <time>2015-11-08T09:52:33Z</time>
      </trkpt>
      <trkpt lat="48.89352" lon="0.15948">
        <ele>234.58</ele>
        <time>2015-11-08T09:52:35Z</time>
      </trkpt>
      <trkpt lat="48.89348" lon="0.15945">
        <ele>234.01</ele>
        <time>2015-11-08T09:52:37Z</time>
      </trkpt>
      <trkpt lat="48.89345" lon="0.15942">
        <ele>233.66</ele>
        <time>2015-11-08T09:52:38Z</time>
      </trkpt>
      <trkpt lat="48.89342" lon="0.15939">
        <ele>233.29</ele>
        <time>2015-11-08T09:52:39Z</time>
      </trkpt>
      <trkpt lat="48.8934" lon="0.15936">
        <ele>232.93</ele>
        <time>2015-11-08T09:52:40Z</time>
      </trkpt>
      <trkpt lat="48.89338" lon="0.1593">
        <ele>232.3</ele>
        <time>2015-11-08T09:52:42Z</time>
      </trkpt>
      <trkpt lat="48.89334" lon="0.15927">
        <ele>232.09</ele>
        <time>2015-11-08T09:52:44Z</time>
      </trkpt>
      <trkpt lat="48.89331" lon="0.15926">
        <ele>231.99</ele>
        <time>2015-11-08T09:52:45Z</time>
      </trkpt>
      <trkpt lat="48.89329" lon="0.15924">
        <ele>231.89</ele>
        <time>2015-11-08T09:52:47Z</time>
      </trkpt>
      <trkpt lat="48.89326" lon="0.15922">
        <ele>231.76</ele>
        <time>2015-11-08T09:52:52Z</time>
      </trkpt>
      <trkpt lat="48.89324" lon="0.15922">
        <ele>231.76</ele>
        <time>2015-11-08T09:53:01Z</time>
      </trkpt>
      <trkpt lat="48.8932" lon="0.15923">
        <ele>231.94</ele>
        <time>2015-11-08T09:53:33Z</time>
      </trkpt>
      <trkpt lat="48.89317" lon="0.15924">
        <ele>232.04</ele>
        <time>2015-11-08T09:53:35Z</time>
      </trkpt>
      <trkpt lat="48.89313" lon="0.15923">
        <ele>232.09</ele>
        <time>2015-11-08T09:53:37Z</time>
      </trkpt>
      <trkpt lat="48.89309" lon="0.15922">
        <ele>232.15</ele>
        <time>2015-11-08T09:53:39Z</time>
      </trkpt>
      <trkpt lat="48.89304" lon="0.15922">
        <ele>232.12</ele>
        <time>2015-11-08T09:53:41Z</time>
      </trkpt>
      <trkpt lat="48.893" lon="0.15922">
        <ele>232</ele>
        <time>2015-11-08T09:53:43Z</time>
      </trkpt>
      <trkpt lat="48.89297" lon="0.15921">
        <ele>231.84</ele>
        <time>2015-11-08T09:53:45Z</time>
      </trkpt>
      <trkpt lat="48.89293" lon="0.1592">
        <ele>231.69</ele>
        <time>2015-11-08T09:53:48Z</time>
      </trkpt>
      <trkpt lat="48.89289" lon="0.15921">
        <ele>231.55</ele>
        <time>2015-11-08T09:53:50Z</time>
      </trkpt>
      <trkpt lat="48.89286" lon="0.15922">
        <ele>231.48</ele>
        <time>2015-11-08T09:53:51Z</time>
      </trkpt>
      <trkpt lat="48.89283" lon="0.15923">
        <ele>231.4</ele>
        <time>2015-11-08T09:53:52Z</time>
      </trkpt>
      <trkpt lat="48.8928" lon="0.15923">
        <ele>231.32</ele>
        <time>2015-11-08T09:53:53Z</time>
      </trkpt>
      <trkpt lat="48.89277" lon="0.15924">
        <ele>231.1</ele>
        <time>2015-11-08T09:53:54Z</time>
      </trkpt>
      <trkpt lat="48.89274" lon="0.15924">
        <ele>230.58</ele>
        <time>2015-11-08T09:53:55Z</time>
      </trkpt>
      <trkpt lat="48.89271" lon="0.15924">
        <ele>230.09</ele>
        <time>2015-11-08T09:53:56Z</time>
      </trkpt>
      <trkpt lat="48.89268" lon="0.15924">
        <ele>229.69</ele>
        <time>2015-11-08T09:53:57Z</time>
      </trkpt>
      <trkpt lat="48.89265" lon="0.15925">
        <ele>229.33</ele>
        <time>2015-11-08T09:53:58Z</time>
      </trkpt>
      <trkpt lat="48.89262" lon="0.15926">
        <ele>229.15</ele>
        <time>2015-11-08T09:53:59Z</time>
      </trkpt>
      <trkpt lat="48.8926" lon="0.15928">
        <ele>229.23</ele>
        <time>2015-11-08T09:54:00Z</time>
      </trkpt>
      <trkpt lat="48.89257" lon="0.15929">
        <ele>229.29</ele>
        <time>2015-11-08T09:54:01Z</time>
      </trkpt>
      <trkpt lat="48.89254" lon="0.1593">
        <ele>229.4</ele>
        <time>2015-11-08T09:54:02Z</time>
      </trkpt>
      <trkpt lat="48.89251" lon="0.15931">
        <ele>229.53</ele>
        <time>2015-11-08T09:54:03Z</time>
      </trkpt>
      <trkpt lat="48.89248" lon="0.15932">
        <ele>229.64</ele>
        <time>2015-11-08T09:54:04Z</time>
      </trkpt>
      <trkpt lat="48.89245" lon="0.15933">
        <ele>229.41</ele>
        <time>2015-11-08T09:54:05Z</time>
      </trkpt>
      <trkpt lat="48.89242" lon="0.15933">
        <ele>228.95</ele>
        <time>2015-11-08T09:54:06Z</time>
      </trkpt>
      <trkpt lat="48.89239" lon="0.15933">
        <ele>228.43</ele>
        <time>2015-11-08T09:54:07Z</time>
      </trkpt>
      <trkpt lat="48.89236" lon="0.15934">
        <ele>227.87</ele>
        <time>2015-11-08T09:54:08Z</time>
      </trkpt>
      <trkpt lat="48.89233" lon="0.15934">
        <ele>227.28</ele>
        <time>2015-11-08T09:54:09Z</time>
      </trkpt>
      <trkpt lat="48.89228" lon="0.15934">
        <ele>226.2</ele>
        <time>2015-11-08T09:54:11Z</time>
      </trkpt>
      <trkpt lat="48.89223" lon="0.15935">
        <ele>225.26</ele>
        <time>2015-11-08T09:54:13Z</time>
      </trkpt>
      <trkpt lat="48.89221" lon="0.15937">
        <ele>225.12</ele>
        <time>2015-11-08T09:54:14Z</time>
      </trkpt>
      <trkpt lat="48.89218" lon="0.15939">
        <ele>225.2</ele>
        <time>2015-11-08T09:54:15Z</time>
      </trkpt>
      <trkpt lat="48.89216" lon="0.15942">
        <ele>225.29</ele>
        <time>2015-11-08T09:54:16Z</time>
      </trkpt>
      <trkpt lat="48.89211" lon="0.15945">
        <ele>225.26</ele>
        <time>2015-11-08T09:54:18Z</time>
      </trkpt>
      <trkpt lat="48.89206" lon="0.15947">
        <ele>225.16</ele>
        <time>2015-11-08T09:54:20Z</time>
      </trkpt>
      <trkpt lat="48.89203" lon="0.15947">
        <ele>225.01</ele>
        <time>2015-11-08T09:54:21Z</time>
      </trkpt>
      <trkpt lat="48.892" lon="0.15947">
        <ele>224.82</ele>
        <time>2015-11-08T09:54:22Z</time>
      </trkpt>
      <trkpt lat="48.89197" lon="0.15947">
        <ele>224.64</ele>
        <time>2015-11-08T09:54:23Z</time>
      </trkpt>
      <trkpt lat="48.89194" lon="0.15948">
        <ele>224.6</ele>
        <time>2015-11-08T09:54:24Z</time>
      </trkpt>
      <trkpt lat="48.89191" lon="0.15949">
        <ele>224.83</ele>
        <time>2015-11-08T09:54:25Z</time>
      </trkpt>
      <trkpt lat="48.89189" lon="0.15951">
        <ele>225.16</ele>
        <time>2015-11-08T09:54:26Z</time>
      </trkpt>
      <trkpt lat="48.89186" lon="0.15953">
        <ele>225.48</ele>
        <time>2015-11-08T09:54:27Z</time>
      </trkpt>
      <trkpt lat="48.89183" lon="0.15954">
        <ele>225.74</ele>
        <time>2015-11-08T09:54:28Z</time>
      </trkpt>
      <trkpt lat="48.8918" lon="0.15956">
        <ele>226.12</ele>
        <time>2015-11-08T09:54:29Z</time>
      </trkpt>
      <trkpt lat="48.89177" lon="0.15958">
        <ele>226.49</ele>
        <time>2015-11-08T09:54:30Z</time>
      </trkpt>
      <trkpt lat="48.89174" lon="0.1596">
        <ele>226.81</ele>
        <time>2015-11-08T09:54:31Z</time>
      </trkpt>
      <trkpt lat="48.89171" lon="0.15962">
        <ele>227.08</ele>
        <time>2015-11-08T09:54:32Z</time>
      </trkpt>
      <trkpt lat="48.89168" lon="0.15963">
        <ele>227.32</ele>
        <time>2015-11-08T09:54:33Z</time>
      </trkpt>
      <trkpt lat="48.89165" lon="0.15964">
        <ele>227.4</ele>
        <time>2015-11-08T09:54:34Z</time>
      </trkpt>
      <trkpt lat="48.89163" lon="0.15966">
        <ele>227.47</ele>
        <time>2015-11-08T09:54:35Z</time>
      </trkpt>
      <trkpt lat="48.8916" lon="0.15968">
        <ele>227.49</ele>
        <time>2015-11-08T09:54:36Z</time>
      </trkpt>
      <trkpt lat="48.89158" lon="0.1597">
        <ele>227.42</ele>
        <time>2015-11-08T09:54:37Z</time>
      </trkpt>
      <trkpt lat="48.89155" lon="0.15972">
        <ele>227.25</ele>
        <time>2015-11-08T09:54:38Z</time>
      </trkpt>
      <trkpt lat="48.89152" lon="0.15973">
        <ele>227.01</ele>
        <time>2015-11-08T09:54:39Z</time>
      </trkpt>
      <trkpt lat="48.8915" lon="0.15974">
        <ele>226.74</ele>
        <time>2015-11-08T09:54:40Z</time>
      </trkpt>
      <trkpt lat="48.89147" lon="0.15975">
        <ele>226.45</ele>
        <time>2015-11-08T09:54:41Z</time>
      </trkpt>
      <trkpt lat="48.89144" lon="0.15976">
        <ele>226.23</ele>
        <time>2015-11-08T09:54:42Z</time>
      </trkpt>
      <trkpt lat="48.89141" lon="0.15977">
        <ele>225.98</ele>
        <time>2015-11-08T09:54:43Z</time>
      </trkpt>
      <trkpt lat="48.89138" lon="0.15978">
        <ele>225.79</ele>
        <time>2015-11-08T09:54:44Z</time>
      </trkpt>
      <trkpt lat="48.89134" lon="0.1598">
        <ele>225.85</ele>
        <time>2015-11-08T09:54:46Z</time>
      </trkpt>
      <trkpt lat="48.89131" lon="0.15986">
        <ele>226.19</ele>
        <time>2015-11-08T09:54:48Z</time>
      </trkpt>
      <trkpt lat="48.89129" lon="0.15992">
        <ele>226.28</ele>
        <time>2015-11-08T09:54:50Z</time>
      </trkpt>
      <trkpt lat="48.89129" lon="0.15998">
        <ele>226.8</ele>
        <time>2015-11-08T09:54:52Z</time>
      </trkpt>
      <trkpt lat="48.89133" lon="0.16003">
        <ele>228.28</ele>
        <time>2015-11-08T09:54:54Z</time>
      </trkpt>
      <trkpt lat="48.89136" lon="0.16007">
        <ele>229.86</ele>
        <time>2015-11-08T09:54:56Z</time>
      </trkpt>
      <trkpt lat="48.89139" lon="0.1601">
        <ele>231.21</ele>
        <time>2015-11-08T09:54:58Z</time>
      </trkpt>
      <trkpt lat="48.89141" lon="0.16013">
        <ele>232.27</ele>
        <time>2015-11-08T09:55:00Z</time>
      </trkpt>
      <trkpt lat="48.89143" lon="0.16017">
        <ele>233.44</ele>
        <time>2015-11-08T09:56:49Z</time>
      </trkpt>
      <trkpt lat="48.89144" lon="0.16023">
        <ele>234.8</ele>
        <time>2015-11-08T09:56:52Z</time>
      </trkpt>
      <trkpt lat="48.89145" lon="0.16027">
        <ele>236.06</ele>
        <time>2015-11-08T09:56:54Z</time>
      </trkpt>
      <trkpt lat="48.89148" lon="0.16034">
        <ele>236.17</ele>
        <time>2015-11-08T09:56:56Z</time>
      </trkpt>
      <trkpt lat="48.8915" lon="0.16038">
        <ele>236.09</ele>
        <time>2015-11-08T09:56:57Z</time>
      </trkpt>
      <trkpt lat="48.89152" lon="0.16043">
        <ele>235.97</ele>
        <time>2015-11-08T09:56:58Z</time>
      </trkpt>
      <trkpt lat="48.89154" lon="0.16048">
        <ele>235.88</ele>
        <time>2015-11-08T09:56:59Z</time>
      </trkpt>
      <trkpt lat="48.89157" lon="0.16053">
        <ele>235.81</ele>
        <time>2015-11-08T09:57:00Z</time>
      </trkpt>
      <trkpt lat="48.8916" lon="0.16059">
        <ele>235.53</ele>
        <time>2015-11-08T09:57:01Z</time>
      </trkpt>
      <trkpt lat="48.89165" lon="0.16071">
        <ele>234.63</ele>
        <time>2015-11-08T09:57:02Z</time>
      </trkpt>
      <trkpt lat="48.89168" lon="0.16077">
        <ele>234.1</ele>
        <time>2015-11-08T09:57:03Z</time>
      </trkpt>
      <trkpt lat="48.89171" lon="0.16082">
        <ele>233.89</ele>
        <time>2015-11-08T09:57:04Z</time>
      </trkpt>
      <trkpt lat="48.89173" lon="0.16088">
        <ele>233.22</ele>
        <time>2015-11-08T09:57:05Z</time>
      </trkpt>
      <trkpt lat="48.89175" lon="0.16093">
        <ele>232.87</ele>
        <time>2015-11-08T09:57:06Z</time>
      </trkpt>
      <trkpt lat="48.89178" lon="0.161">
        <ele>232.43</ele>
        <time>2015-11-08T09:57:07Z</time>
      </trkpt>
      <trkpt lat="48.8918" lon="0.16107">
        <ele>232.02</ele>
        <time>2015-11-08T09:57:08Z</time>
      </trkpt>
      <trkpt lat="48.89183" lon="0.16114">
        <ele>231.75</ele>
        <time>2015-11-08T09:57:09Z</time>
      </trkpt>
      <trkpt lat="48.89186" lon="0.1612">
        <ele>231.55</ele>
        <time>2015-11-08T09:57:10Z</time>
      </trkpt>
      <trkpt lat="48.89188" lon="0.16127">
        <ele>231.23</ele>
        <time>2015-11-08T09:57:11Z</time>
      </trkpt>
      <trkpt lat="48.8919" lon="0.16133">
        <ele>230.62</ele>
        <time>2015-11-08T09:57:12Z</time>
      </trkpt>
      <trkpt lat="48.89192" lon="0.1614">
        <ele>230.02</ele>
        <time>2015-11-08T09:57:13Z</time>
      </trkpt>
      <trkpt lat="48.89196" lon="0.16146">
        <ele>230.5</ele>
        <time>2015-11-08T09:57:14Z</time>
      </trkpt>
      <trkpt lat="48.89199" lon="0.16153">
        <ele>230.26</ele>
        <time>2015-11-08T09:57:15Z</time>
      </trkpt>
      <trkpt lat="48.89201" lon="0.1616">
        <ele>230.09</ele>
        <time>2015-11-08T09:57:16Z</time>
      </trkpt>
      <trkpt lat="48.89203" lon="0.16164">
        <ele>230.19</ele>
        <time>2015-11-08T09:57:17Z</time>
      </trkpt>
      <trkpt lat="48.89204" lon="0.1617">
        <ele>229.86</ele>
        <time>2015-11-08T09:57:18Z</time>
      </trkpt>
      <trkpt lat="48.89206" lon="0.16173">
        <ele>229.85</ele>
        <time>2015-11-08T09:57:19Z</time>
      </trkpt>
      <trkpt lat="48.89209" lon="0.16181">
        <ele>229.87</ele>
        <time>2015-11-08T09:57:21Z</time>
      </trkpt>
      <trkpt lat="48.89211" lon="0.16187">
        <ele>229.74</ele>
        <time>2015-11-08T09:57:22Z</time>
      </trkpt>
      <trkpt lat="48.89212" lon="0.16193">
        <ele>229.65</ele>
        <time>2015-11-08T09:57:23Z</time>
      </trkpt>
      <trkpt lat="48.89214" lon="0.16199">
        <ele>229.53</ele>
        <time>2015-11-08T09:57:24Z</time>
      </trkpt>
      <trkpt lat="48.89216" lon="0.16205">
        <ele>229.38</ele>
        <time>2015-11-08T09:57:25Z</time>
      </trkpt>
      <trkpt lat="48.89218" lon="0.16211">
        <ele>229.2</ele>
        <time>2015-11-08T09:57:26Z</time>
      </trkpt>
      <trkpt lat="48.89219" lon="0.16217">
        <ele>228.97</ele>
        <time>2015-11-08T09:57:27Z</time>
      </trkpt>
      <trkpt lat="48.89221" lon="0.16223">
        <ele>228.76</ele>
        <time>2015-11-08T09:57:28Z</time>
      </trkpt>
      <trkpt lat="48.89223" lon="0.16229">
        <ele>228.89</ele>
        <time>2015-11-08T09:57:29Z</time>
      </trkpt>
      <trkpt lat="48.89224" lon="0.16236">
        <ele>229.07</ele>
        <time>2015-11-08T09:57:30Z</time>
      </trkpt>
      <trkpt lat="48.89225" lon="0.16242">
        <ele>229.09</ele>
        <time>2015-11-08T09:57:31Z</time>
      </trkpt>
      <trkpt lat="48.89226" lon="0.16248">
        <ele>228.97</ele>
        <time>2015-11-08T09:57:32Z</time>
      </trkpt>
      <trkpt lat="48.89226" lon="0.16255">
        <ele>228.51</ele>
        <time>2015-11-08T09:57:33Z</time>
      </trkpt>
      <trkpt lat="48.89227" lon="0.16262">
        <ele>227.94</ele>
        <time>2015-11-08T09:57:34Z</time>
      </trkpt>
      <trkpt lat="48.89227" lon="0.16269">
        <ele>227.25</ele>
        <time>2015-11-08T09:57:35Z</time>
      </trkpt>
      <trkpt lat="48.89227" lon="0.16276">
        <ele>226.52</ele>
        <time>2015-11-08T09:57:36Z</time>
      </trkpt>
      <trkpt lat="48.89227" lon="0.16283">
        <ele>225.56</ele>
        <time>2015-11-08T09:57:37Z</time>
      </trkpt>
      <trkpt lat="48.89227" lon="0.1629">
        <ele>224.54</ele>
        <time>2015-11-08T09:57:38Z</time>
      </trkpt>
      <trkpt lat="48.89227" lon="0.16297">
        <ele>223.48</ele>
        <time>2015-11-08T09:57:39Z</time>
      </trkpt>
      <trkpt lat="48.89226" lon="0.16303">
        <ele>222.44</ele>
        <time>2015-11-08T09:57:40Z</time>
      </trkpt>
      <trkpt lat="48.89226" lon="0.16309">
        <ele>221.48</ele>
        <time>2015-11-08T09:57:41Z</time>
      </trkpt>
      <trkpt lat="48.89226" lon="0.16315">
        <ele>220.59</ele>
        <time>2015-11-08T09:57:42Z</time>
      </trkpt>
      <trkpt lat="48.89226" lon="0.16319">
        <ele>219.83</ele>
        <time>2015-11-08T09:57:43Z</time>
      </trkpt>
      <trkpt lat="48.89226" lon="0.16324">
        <ele>219.11</ele>
        <time>2015-11-08T09:57:44Z</time>
      </trkpt>
      <trkpt lat="48.89225" lon="0.16328">
        <ele>218.41</ele>
        <time>2015-11-08T09:57:45Z</time>
      </trkpt>
      <trkpt lat="48.89225" lon="0.16332">
        <ele>217.7</ele>
        <time>2015-11-08T09:57:46Z</time>
      </trkpt>
      <trkpt lat="48.89225" lon="0.16336">
        <ele>217.5</ele>
        <time>2015-11-08T09:57:47Z</time>
      </trkpt>
      <trkpt lat="48.89224" lon="0.16341">
        <ele>217.55</ele>
        <time>2015-11-08T09:57:48Z</time>
      </trkpt>
      <trkpt lat="48.89224" lon="0.16345">
        <ele>217.62</ele>
        <time>2015-11-08T09:57:49Z</time>
      </trkpt>
      <trkpt lat="48.89223" lon="0.1635">
        <ele>217.7</ele>
        <time>2015-11-08T09:57:50Z</time>
      </trkpt>
      <trkpt lat="48.89223" lon="0.16354">
        <ele>217.81</ele>
        <time>2015-11-08T09:57:51Z</time>
      </trkpt>
      <trkpt lat="48.89223" lon="0.16359">
        <ele>217.94</ele>
        <time>2015-11-08T09:57:52Z</time>
      </trkpt>
      <trkpt lat="48.89223" lon="0.16364">
        <ele>218.01</ele>
        <time>2015-11-08T09:57:53Z</time>
      </trkpt>
      <trkpt lat="48.89222" lon="0.16368">
        <ele>218</ele>
        <time>2015-11-08T09:57:54Z</time>
      </trkpt>
      <trkpt lat="48.89222" lon="0.16373">
        <ele>217.96</ele>
        <time>2015-11-08T09:57:55Z</time>
      </trkpt>
      <trkpt lat="48.89222" lon="0.16378">
        <ele>217.89</ele>
        <time>2015-11-08T09:57:56Z</time>
      </trkpt>
      <trkpt lat="48.89221" lon="0.16383">
        <ele>217.8</ele>
        <time>2015-11-08T09:57:57Z</time>
      </trkpt>
      <trkpt lat="48.89221" lon="0.16387">
        <ele>217.71</ele>
        <time>2015-11-08T09:57:58Z</time>
      </trkpt>
      <trkpt lat="48.89221" lon="0.16392">
        <ele>217.63</ele>
        <time>2015-11-08T09:57:59Z</time>
      </trkpt>
      <trkpt lat="48.8922" lon="0.16397">
        <ele>217.54</ele>
        <time>2015-11-08T09:58:00Z</time>
      </trkpt>
      <trkpt lat="48.8922" lon="0.16402">
        <ele>217.5</ele>
        <time>2015-11-08T09:58:01Z</time>
      </trkpt>
      <trkpt lat="48.8922" lon="0.16408">
        <ele>217.52</ele>
        <time>2015-11-08T09:58:02Z</time>
      </trkpt>
      <trkpt lat="48.89219" lon="0.16413">
        <ele>217.55</ele>
        <time>2015-11-08T09:58:03Z</time>
      </trkpt>
      <trkpt lat="48.89219" lon="0.16418">
        <ele>217.5</ele>
        <time>2015-11-08T09:58:04Z</time>
      </trkpt>
      <trkpt lat="48.89219" lon="0.16424">
        <ele>217.31</ele>
        <time>2015-11-08T09:58:05Z</time>
      </trkpt>
      <trkpt lat="48.89219" lon="0.16429">
        <ele>217.15</ele>
        <time>2015-11-08T09:58:06Z</time>
      </trkpt>
      <trkpt lat="48.89218" lon="0.16434">
        <ele>217</ele>
        <time>2015-11-08T09:58:07Z</time>
      </trkpt>
      <trkpt lat="48.89218" lon="0.1644">
        <ele>216.83</ele>
        <time>2015-11-08T09:58:08Z</time>
      </trkpt>
      <trkpt lat="48.89218" lon="0.16445">
        <ele>216.62</ele>
        <time>2015-11-08T09:58:09Z</time>
      </trkpt>
      <trkpt lat="48.89217" lon="0.16451">
        <ele>216.14</ele>
        <time>2015-11-08T09:58:10Z</time>
      </trkpt>
      <trkpt lat="48.89217" lon="0.16456">
        <ele>215.68</ele>
        <time>2015-11-08T09:58:11Z</time>
      </trkpt>
      <trkpt lat="48.89217" lon="0.16461">
        <ele>215.25</ele>
        <time>2015-11-08T09:58:12Z</time>
      </trkpt>
      <trkpt lat="48.89216" lon="0.16467">
        <ele>214.84</ele>
        <time>2015-11-08T09:58:13Z</time>
      </trkpt>
      <trkpt lat="48.89216" lon="0.16472">
        <ele>214.43</ele>
        <time>2015-11-08T09:58:14Z</time>
      </trkpt>
      <trkpt lat="48.89217" lon="0.16477">
        <ele>214.41</ele>
        <time>2015-11-08T09:58:15Z</time>
      </trkpt>
      <trkpt lat="48.89216" lon="0.16482">
        <ele>214.42</ele>
        <time>2015-11-08T09:58:16Z</time>
      </trkpt>
      <trkpt lat="48.89216" lon="0.16488">
        <ele>214.42</ele>
        <time>2015-11-08T09:58:17Z</time>
      </trkpt>
      <trkpt lat="48.89216" lon="0.16493">
        <ele>214.42</ele>
        <time>2015-11-08T09:58:18Z</time>
      </trkpt>
      <trkpt lat="48.89216" lon="0.16498">
        <ele>214.42</ele>
        <time>2015-11-08T09:58:19Z</time>
      </trkpt>
      <trkpt lat="48.89216" lon="0.16504">
        <ele>214.35</ele>
        <time>2015-11-08T09:58:20Z</time>
      </trkpt>
      <trkpt lat="48.89216" lon="0.16509">
        <ele>214.23</ele>
        <time>2015-11-08T09:58:21Z</time>
      </trkpt>
      <trkpt lat="48.89216" lon="0.16515">
        <ele>214.1</ele>
        <time>2015-11-08T09:58:22Z</time>
      </trkpt>
      <trkpt lat="48.89215" lon="0.1652">
        <ele>213.96</ele>
        <time>2015-11-08T09:58:23Z</time>
      </trkpt>
      <trkpt lat="48.89215" lon="0.16525">
        <ele>213.8</ele>
        <time>2015-11-08T09:58:24Z</time>
      </trkpt>
      <trkpt lat="48.89215" lon="0.16531">
        <ele>213.72</ele>
        <time>2015-11-08T09:58:25Z</time>
      </trkpt>
      <trkpt lat="48.89215" lon="0.16536">
        <ele>213.69</ele>
        <time>2015-11-08T09:58:26Z</time>
      </trkpt>
      <trkpt lat="48.89215" lon="0.16541">
        <ele>213.69</ele>
        <time>2015-11-08T09:58:27Z</time>
      </trkpt>
      <trkpt lat="48.89215" lon="0.16546">
        <ele>213.71</ele>
        <time>2015-11-08T09:58:28Z</time>
      </trkpt>
      <trkpt lat="48.89215" lon="0.16552">
        <ele>213.77</ele>
        <time>2015-11-08T09:58:29Z</time>
      </trkpt>
      <trkpt lat="48.89216" lon="0.16557">
        <ele>213.94</ele>
        <time>2015-11-08T09:58:30Z</time>
      </trkpt>
      <trkpt lat="48.89217" lon="0.16562">
        <ele>214.26</ele>
        <time>2015-11-08T09:58:31Z</time>
      </trkpt>
      <trkpt lat="48.89219" lon="0.16567">
        <ele>214.65</ele>
        <time>2015-11-08T09:58:32Z</time>
      </trkpt>
      <trkpt lat="48.8922" lon="0.16572">
        <ele>215.06</ele>
        <time>2015-11-08T09:58:33Z</time>
      </trkpt>
      <trkpt lat="48.89221" lon="0.16578">
        <ele>215.53</ele>
        <time>2015-11-08T09:58:34Z</time>
      </trkpt>
      <trkpt lat="48.89223" lon="0.16583">
        <ele>215.99</ele>
        <time>2015-11-08T09:58:35Z</time>
      </trkpt>
      <trkpt lat="48.89224" lon="0.16588">
        <ele>216.36</ele>
        <time>2015-11-08T09:58:36Z</time>
      </trkpt>
      <trkpt lat="48.89225" lon="0.16593">
        <ele>216.71</ele>
        <time>2015-11-08T09:58:37Z</time>
      </trkpt>
      <trkpt lat="48.89227" lon="0.16598">
        <ele>217.04</ele>
        <time>2015-11-08T09:58:38Z</time>
      </trkpt>
      <trkpt lat="48.89228" lon="0.16603">
        <ele>217.35</ele>
        <time>2015-11-08T09:58:39Z</time>
      </trkpt>
      <trkpt lat="48.89229" lon="0.16609">
        <ele>217.64</ele>
        <time>2015-11-08T09:58:40Z</time>
      </trkpt>
      <trkpt lat="48.8923" lon="0.16614">
        <ele>217.57</ele>
        <time>2015-11-08T09:58:41Z</time>
      </trkpt>
      <trkpt lat="48.89231" lon="0.1662">
        <ele>217.26</ele>
        <time>2015-11-08T09:58:42Z</time>
      </trkpt>
      <trkpt lat="48.89232" lon="0.16625">
        <ele>216.95</ele>
        <time>2015-11-08T09:58:43Z</time>
      </trkpt>
      <trkpt lat="48.89233" lon="0.16631">
        <ele>216.62</ele>
        <time>2015-11-08T09:58:44Z</time>
      </trkpt>
      <trkpt lat="48.89234" lon="0.16636">
        <ele>216.27</ele>
        <time>2015-11-08T09:58:45Z</time>
      </trkpt>
      <trkpt lat="48.89235" lon="0.16642">
        <ele>215.9</ele>
        <time>2015-11-08T09:58:46Z</time>
      </trkpt>
      <trkpt lat="48.89236" lon="0.16647">
        <ele>215.53</ele>
        <time>2015-11-08T09:58:47Z</time>
      </trkpt>
      <trkpt lat="48.89237" lon="0.16653">
        <ele>215.21</ele>
        <time>2015-11-08T09:58:48Z</time>
      </trkpt>
      <trkpt lat="48.89238" lon="0.16659">
        <ele>214.94</ele>
        <time>2015-11-08T09:58:49Z</time>
      </trkpt>
      <trkpt lat="48.89239" lon="0.16664">
        <ele>214.71</ele>
        <time>2015-11-08T09:58:50Z</time>
      </trkpt>
      <trkpt lat="48.8924" lon="0.1667">
        <ele>214.02</ele>
        <time>2015-11-08T09:58:51Z</time>
      </trkpt>
      <trkpt lat="48.89241" lon="0.16676">
        <ele>212.95</ele>
        <time>2015-11-08T09:58:52Z</time>
      </trkpt>
      <trkpt lat="48.89242" lon="0.16681">
        <ele>211.86</ele>
        <time>2015-11-08T09:58:53Z</time>
      </trkpt>
      <trkpt lat="48.89243" lon="0.16687">
        <ele>210.77</ele>
        <time>2015-11-08T09:58:54Z</time>
      </trkpt>
      <trkpt lat="48.89244" lon="0.16692">
        <ele>209.64</ele>
        <time>2015-11-08T09:58:55Z</time>
      </trkpt>
      <trkpt lat="48.89245" lon="0.16698">
        <ele>208.83</ele>
        <time>2015-11-08T09:58:56Z</time>
      </trkpt>
      <trkpt lat="48.89246" lon="0.16703">
        <ele>208.24</ele>
        <time>2015-11-08T09:58:57Z</time>
      </trkpt>
      <trkpt lat="48.89247" lon="0.16709">
        <ele>207.64</ele>
        <time>2015-11-08T09:58:58Z</time>
      </trkpt>
      <trkpt lat="48.89248" lon="0.16714">
        <ele>207.02</ele>
        <time>2015-11-08T09:58:59Z</time>
      </trkpt>
      <trkpt lat="48.89249" lon="0.16719">
        <ele>206.39</ele>
        <time>2015-11-08T09:59:00Z</time>
      </trkpt>
      <trkpt lat="48.89251" lon="0.16724">
        <ele>206.12</ele>
        <time>2015-11-08T09:59:01Z</time>
      </trkpt>
      <trkpt lat="48.89252" lon="0.1673">
        <ele>206.34</ele>
        <time>2015-11-08T09:59:02Z</time>
      </trkpt>
      <trkpt lat="48.89253" lon="0.16735">
        <ele>206.52</ele>
        <time>2015-11-08T09:59:03Z</time>
      </trkpt>
      <trkpt lat="48.89254" lon="0.16741">
        <ele>206.62</ele>
        <time>2015-11-08T09:59:04Z</time>
      </trkpt>
      <trkpt lat="48.89256" lon="0.16746">
        <ele>206.68</ele>
        <time>2015-11-08T09:59:05Z</time>
      </trkpt>
      <trkpt lat="48.89257" lon="0.16752">
        <ele>206.7</ele>
        <time>2015-11-08T09:59:06Z</time>
      </trkpt>
      <trkpt lat="48.89258" lon="0.16757">
        <ele>206.71</ele>
        <time>2015-11-08T09:59:07Z</time>
      </trkpt>
      <trkpt lat="48.8926" lon="0.16763">
        <ele>206.75</ele>
        <time>2015-11-08T09:59:08Z</time>
      </trkpt>
      <trkpt lat="48.89261" lon="0.16769">
        <ele>206.81</ele>
        <time>2015-11-08T09:59:09Z</time>
      </trkpt>
      <trkpt lat="48.89263" lon="0.16775">
        <ele>206.9</ele>
        <time>2015-11-08T09:59:10Z</time>
      </trkpt>
      <trkpt lat="48.89264" lon="0.16781">
        <ele>207.12</ele>
        <time>2015-11-08T09:59:11Z</time>
      </trkpt>
      <trkpt lat="48.89267" lon="0.16791">
        <ele>207.57</ele>
        <time>2015-11-08T09:59:12Z</time>
      </trkpt>
      <trkpt lat="48.89268" lon="0.16797">
        <ele>207.83</ele>
        <time>2015-11-08T09:59:13Z</time>
      </trkpt>
      <trkpt lat="48.8927" lon="0.16804">
        <ele>208.18</ele>
        <time>2015-11-08T09:59:14Z</time>
      </trkpt>
      <trkpt lat="48.89272" lon="0.1681">
        <ele>208.49</ele>
        <time>2015-11-08T09:59:15Z</time>
      </trkpt>
      <trkpt lat="48.89273" lon="0.16817">
        <ele>208.82</ele>
        <time>2015-11-08T09:59:16Z</time>
      </trkpt>
      <trkpt lat="48.89275" lon="0.16824">
        <ele>209.26</ele>
        <time>2015-11-08T09:59:17Z</time>
      </trkpt>
      <trkpt lat="48.89276" lon="0.16831">
        <ele>209.67</ele>
        <time>2015-11-08T09:59:18Z</time>
      </trkpt>
      <trkpt lat="48.89278" lon="0.16838">
        <ele>210.32</ele>
        <time>2015-11-08T09:59:19Z</time>
      </trkpt>
      <trkpt lat="48.89279" lon="0.16845">
        <ele>210.65</ele>
        <time>2015-11-08T09:59:20Z</time>
      </trkpt>
      <trkpt lat="48.8928" lon="0.16852">
        <ele>210.95</ele>
        <time>2015-11-08T09:59:21Z</time>
      </trkpt>
      <trkpt lat="48.89282" lon="0.1686">
        <ele>211.22</ele>
        <time>2015-11-08T09:59:22Z</time>
      </trkpt>
      <trkpt lat="48.89284" lon="0.16867">
        <ele>211.14</ele>
        <time>2015-11-08T09:59:23Z</time>
      </trkpt>
      <trkpt lat="48.89285" lon="0.16875">
        <ele>211.01</ele>
        <time>2015-11-08T09:59:24Z</time>
      </trkpt>
      <trkpt lat="48.89287" lon="0.16882">
        <ele>210.82</ele>
        <time>2015-11-08T09:59:25Z</time>
      </trkpt>
      <trkpt lat="48.89289" lon="0.1689">
        <ele>210.56</ele>
        <time>2015-11-08T09:59:26Z</time>
      </trkpt>
      <trkpt lat="48.8929" lon="0.16897">
        <ele>209.93</ele>
        <time>2015-11-08T09:59:27Z</time>
      </trkpt>
      <trkpt lat="48.89292" lon="0.16906">
        <ele>209.23</ele>
        <time>2015-11-08T09:59:28Z</time>
      </trkpt>
      <trkpt lat="48.89293" lon="0.16915">
        <ele>208.83</ele>
        <time>2015-11-08T09:59:29Z</time>
      </trkpt>
      <trkpt lat="48.89295" lon="0.16922">
        <ele>207.96</ele>
        <time>2015-11-08T09:59:30Z</time>
      </trkpt>
      <trkpt lat="48.89296" lon="0.16927">
        <ele>207.26</ele>
        <time>2015-11-08T09:59:31Z</time>
      </trkpt>
      <trkpt lat="48.89297" lon="0.16932">
        <ele>206.68</ele>
        <time>2015-11-08T09:59:32Z</time>
      </trkpt>
      <trkpt lat="48.89298" lon="0.16938">
        <ele>205.91</ele>
        <time>2015-11-08T09:59:34Z</time>
      </trkpt>
      <trkpt lat="48.89299" lon="0.16943">
        <ele>205.36</ele>
        <time>2015-11-08T09:59:36Z</time>
      </trkpt>
      <trkpt lat="48.89299" lon="0.16948">
        <ele>204.75</ele>
        <time>2015-11-08T09:59:38Z</time>
      </trkpt>
      <trkpt lat="48.89301" lon="0.16956">
        <ele>203.8</ele>
        <time>2015-11-08T09:59:40Z</time>
      </trkpt>
      <trkpt lat="48.89302" lon="0.1696">
        <ele>203.27</ele>
        <time>2015-11-08T09:59:41Z</time>
      </trkpt>
      <trkpt lat="48.89302" lon="0.16965">
        <ele>202.71</ele>
        <time>2015-11-08T09:59:42Z</time>
      </trkpt>
      <trkpt lat="48.89303" lon="0.1697">
        <ele>202.15</ele>
        <time>2015-11-08T09:59:43Z</time>
      </trkpt>
      <trkpt lat="48.89304" lon="0.16976">
        <ele>201.8</ele>
        <time>2015-11-08T09:59:44Z</time>
      </trkpt>
      <trkpt lat="48.89305" lon="0.16983">
        <ele>201.61</ele>
        <time>2015-11-08T09:59:45Z</time>
      </trkpt>
      <trkpt lat="48.89306" lon="0.16989">
        <ele>201.36</ele>
        <time>2015-11-08T09:59:46Z</time>
      </trkpt>
      <trkpt lat="48.89307" lon="0.16996">
        <ele>201.09</ele>
        <time>2015-11-08T09:59:47Z</time>
      </trkpt>
      <trkpt lat="48.89308" lon="0.17003">
        <ele>201.03</ele>
        <time>2015-11-08T09:59:48Z</time>
      </trkpt>
      <trkpt lat="48.89309" lon="0.1701">
        <ele>201.22</ele>
        <time>2015-11-08T09:59:49Z</time>
      </trkpt>
      <trkpt lat="48.8931" lon="0.17017">
        <ele>201.44</ele>
        <time>2015-11-08T09:59:50Z</time>
      </trkpt>
      <trkpt lat="48.89311" lon="0.17024">
        <ele>201.67</ele>
        <time>2015-11-08T09:59:51Z</time>
      </trkpt>
      <trkpt lat="48.89312" lon="0.17032">
        <ele>201.59</ele>
        <time>2015-11-08T09:59:52Z</time>
      </trkpt>
      <trkpt lat="48.89313" lon="0.1704">
        <ele>201.29</ele>
        <time>2015-11-08T09:59:53Z</time>
      </trkpt>
      <trkpt lat="48.89314" lon="0.17046">
        <ele>201.02</ele>
        <time>2015-11-08T09:59:54Z</time>
      </trkpt>
      <trkpt lat="48.89315" lon="0.17054">
        <ele>200.74</ele>
        <time>2015-11-08T09:59:55Z</time>
      </trkpt>
      <trkpt lat="48.89316" lon="0.1706">
        <ele>200.37</ele>
        <time>2015-11-08T09:59:56Z</time>
      </trkpt>
      <trkpt lat="48.89318" lon="0.17067">
        <ele>199.96</ele>
        <time>2015-11-08T09:59:57Z</time>
      </trkpt>
      <trkpt lat="48.89318" lon="0.17074">
        <ele>199.57</ele>
        <time>2015-11-08T09:59:58Z</time>
      </trkpt>
      <trkpt lat="48.8932" lon="0.1708">
        <ele>199.14</ele>
        <time>2015-11-08T09:59:59Z</time>
      </trkpt>
      <trkpt lat="48.8932" lon="0.17088">
        <ele>198.4</ele>
        <time>2015-11-08T10:00:00Z</time>
      </trkpt>
      <trkpt lat="48.89322" lon="0.17094">
        <ele>197.6</ele>
        <time>2015-11-08T10:00:01Z</time>
      </trkpt>
      <trkpt lat="48.89358" lon="0.17384">
        <ele>191.38</ele>
        <time>2015-11-08T10:00:32Z</time>
      </trkpt>
      <trkpt lat="48.89362" lon="0.17395">
        <ele>189.74</ele>
        <time>2015-11-08T10:00:33Z</time>
      </trkpt>
      <trkpt lat="48.89362" lon="0.17407">
        <ele>187.45</ele>
        <time>2015-11-08T10:00:34Z</time>
      </trkpt>
      <trkpt lat="48.89364" lon="0.17418">
        <ele>185.17</ele>
        <time>2015-11-08T10:00:35Z</time>
      </trkpt>
      <trkpt lat="48.89366" lon="0.17428">
        <ele>182.88</ele>
        <time>2015-11-08T10:00:36Z</time>
      </trkpt>
      <trkpt lat="48.89367" lon="0.17437">
        <ele>181.08</ele>
        <time>2015-11-08T10:00:37Z</time>
      </trkpt>
      <trkpt lat="48.89369" lon="0.17445">
        <ele>179.37</ele>
        <time>2015-11-08T10:00:38Z</time>
      </trkpt>
      <trkpt lat="48.8937" lon="0.17451">
        <ele>178.57</ele>
        <time>2015-11-08T10:00:39Z</time>
      </trkpt>
      <trkpt lat="48.89371" lon="0.17456">
        <ele>177.92</ele>
        <time>2015-11-08T10:00:40Z</time>
      </trkpt>
      <trkpt lat="48.89372" lon="0.17461">
        <ele>177.26</ele>
        <time>2015-11-08T10:00:41Z</time>
      </trkpt>
      <trkpt lat="48.89374" lon="0.17465">
        <ele>176.77</ele>
        <time>2015-11-08T10:00:42Z</time>
      </trkpt>
      <trkpt lat="48.89376" lon="0.17469">
        <ele>176.29</ele>
        <time>2015-11-08T10:00:43Z</time>
      </trkpt>
      <trkpt lat="48.89378" lon="0.17473">
        <ele>175.94</ele>
        <time>2015-11-08T10:00:44Z</time>
      </trkpt>
      <trkpt lat="48.8938" lon="0.17476">
        <ele>175.67</ele>
        <time>2015-11-08T10:00:45Z</time>
      </trkpt>
      <trkpt lat="48.89383" lon="0.1748">
        <ele>175.41</ele>
        <time>2015-11-08T10:00:46Z</time>
      </trkpt>
      <trkpt lat="48.89385" lon="0.17486">
        <ele>174.95</ele>
        <time>2015-11-08T10:00:48Z</time>
      </trkpt>
      <trkpt lat="48.89385" lon="0.1749">
        <ele>174.6</ele>
        <time>2015-11-08T10:00:52Z</time>
      </trkpt>
      <trkpt lat="48.89387" lon="0.17495">
        <ele>174.32</ele>
        <time>2015-11-08T10:00:54Z</time>
      </trkpt>
      <trkpt lat="48.89391" lon="0.17502">
        <ele>173.78</ele>
        <time>2015-11-08T10:00:56Z</time>
      </trkpt>
      <trkpt lat="48.89393" lon="0.17507">
        <ele>173.34</ele>
        <time>2015-11-08T10:00:57Z</time>
      </trkpt>
      <trkpt lat="48.89396" lon="0.17512">
        <ele>172.89</ele>
        <time>2015-11-08T10:00:58Z</time>
      </trkpt>
      <trkpt lat="48.89398" lon="0.17519">
        <ele>172.44</ele>
        <time>2015-11-08T10:00:59Z</time>
      </trkpt>
      <trkpt lat="48.89402" lon="0.1753">
        <ele>171.79</ele>
        <time>2015-11-08T10:01:00Z</time>
      </trkpt>
      <trkpt lat="48.89406" lon="0.17537">
        <ele>171.66</ele>
        <time>2015-11-08T10:01:01Z</time>
      </trkpt>
      <trkpt lat="48.89409" lon="0.17544">
        <ele>171.85</ele>
        <time>2015-11-08T10:01:02Z</time>
      </trkpt>
      <trkpt lat="48.89412" lon="0.17551">
        <ele>172.19</ele>
        <time>2015-11-08T10:01:03Z</time>
      </trkpt>
      <trkpt lat="48.89415" lon="0.17558">
        <ele>172.41</ele>
        <time>2015-11-08T10:01:04Z</time>
      </trkpt>
      <trkpt lat="48.89418" lon="0.17565">
        <ele>172.24</ele>
        <time>2015-11-08T10:01:05Z</time>
      </trkpt>
      <trkpt lat="48.8942" lon="0.17573">
        <ele>171.59</ele>
        <time>2015-11-08T10:01:06Z</time>
      </trkpt>
      <trkpt lat="48.89423" lon="0.1758">
        <ele>170.96</ele>
        <time>2015-11-08T10:01:07Z</time>
      </trkpt>
      <trkpt lat="48.89426" lon="0.17589">
        <ele>169.91</ele>
        <time>2015-11-08T10:01:08Z</time>
      </trkpt>
      <trkpt lat="48.89428" lon="0.17596">
        <ele>168.94</ele>
        <time>2015-11-08T10:01:09Z</time>
      </trkpt>
      <trkpt lat="48.8943" lon="0.17603">
        <ele>168.08</ele>
        <time>2015-11-08T10:01:10Z</time>
      </trkpt>
      <trkpt lat="48.89432" lon="0.17609">
        <ele>167.31</ele>
        <time>2015-11-08T10:01:11Z</time>
      </trkpt>
      <trkpt lat="48.89434" lon="0.17616">
        <ele>166.34</ele>
        <time>2015-11-08T10:01:12Z</time>
      </trkpt>
      <trkpt lat="48.89435" lon="0.17625">
        <ele>165.37</ele>
        <time>2015-11-08T10:01:13Z</time>
      </trkpt>
      <trkpt lat="48.89436" lon="0.17631">
        <ele>164.61</ele>
        <time>2015-11-08T10:01:14Z</time>
      </trkpt>
      <trkpt lat="48.89435" lon="0.17636">
        <ele>163.96</ele>
        <time>2015-11-08T10:01:15Z</time>
      </trkpt>
      <trkpt lat="48.89433" lon="0.17641">
        <ele>163.43</ele>
        <time>2015-11-08T10:01:16Z</time>
      </trkpt>
      <trkpt lat="48.8943" lon="0.17645">
        <ele>162.99</ele>
        <time>2015-11-08T10:01:17Z</time>
      </trkpt>
      <trkpt lat="48.89427" lon="0.17646">
        <ele>162.75</ele>
        <time>2015-11-08T10:01:18Z</time>
      </trkpt>
      <trkpt lat="48.89423" lon="0.17648">
        <ele>162.5</ele>
        <time>2015-11-08T10:01:19Z</time>
      </trkpt>
      <trkpt lat="48.89421" lon="0.17651">
        <ele>162.25</ele>
        <time>2015-11-08T10:01:21Z</time>
      </trkpt>
      <trkpt lat="48.89419" lon="0.17655">
        <ele>161.89</ele>
        <time>2015-11-08T10:01:24Z</time>
      </trkpt>
      <trkpt lat="48.89421" lon="0.17652">
        <ele>162.17</ele>
        <time>2015-11-08T10:01:54Z</time>
      </trkpt>
      <trkpt lat="48.89358" lon="0.17743">
        <ele>146.57</ele>
        <time>2015-11-08T10:05:30Z</time>
      </trkpt>
      <trkpt lat="48.8936" lon="0.17747">
        <ele>146.24</ele>
        <time>2015-11-08T10:05:38Z</time>
      </trkpt>
      <trkpt lat="48.89364" lon="0.17746">
        <ele>146.52</ele>
        <time>2015-11-08T10:05:41Z</time>
      </trkpt>
      <trkpt lat="48.89366" lon="0.17741">
        <ele>147.03</ele>
        <time>2015-11-08T10:05:44Z</time>
      </trkpt>
      <trkpt lat="48.89364" lon="0.17738">
        <ele>147.13</ele>
        <time>2015-11-08T10:05:57Z</time>
      </trkpt>
      <trkpt lat="48.89367" lon="0.17735">
        <ele>147.46</ele>
        <time>2015-11-08T10:06:14Z</time>
      </trkpt>
      <trkpt lat="48.89369" lon="0.17737">
        <ele>147.51</ele>
        <time>2015-11-08T10:06:20Z</time>
      </trkpt>
      <trkpt lat="48.89366" lon="0.17738">
        <ele>147.21</ele>
        <time>2015-11-08T10:06:39Z</time>
      </trkpt>
      <trkpt lat="48.89363" lon="0.17737">
        <ele>147.06</ele>
        <time>2015-11-08T10:06:42Z</time>
      </trkpt>
      <trkpt lat="48.8936" lon="0.17736">
        <ele>147.07</ele>
        <time>2015-11-08T10:10:35Z</time>
      </trkpt>
      <trkpt lat="48.89363" lon="0.17737">
        <ele>147.11</ele>
        <time>2015-11-08T10:13:19Z</time>
      </trkpt>
      <trkpt lat="48.8936" lon="0.17736">
        <ele>147.04</ele>
        <time>2015-11-08T10:15:02Z</time>
      </trkpt>
      <trkpt lat="48.8932" lon="0.17745">
        <ele>147.43</ele>
        <time>2015-11-08T10:15:31Z</time>
      </trkpt>
      <trkpt lat="48.89317" lon="0.17747">
        <ele>147.08</ele>
        <time>2015-11-08T10:15:36Z</time>
      </trkpt>
      <trkpt lat="48.89315" lon="0.17743">
        <ele>147.9</ele>
        <time>2015-11-08T10:16:01Z</time>
      </trkpt>
      <trkpt lat="48.89314" lon="0.17739">
        <ele>148.76</ele>
        <time>2015-11-08T10:16:08Z</time>
      </trkpt>
      <trkpt lat="48.89316" lon="0.17741">
        <ele>148.24</ele>
        <time>2015-11-08T10:16:43Z</time>
      </trkpt>
      <trkpt lat="48.89319" lon="0.17743">
        <ele>147.83</ele>
        <time>2015-11-08T10:16:50Z</time>
      </trkpt>
      <trkpt lat="48.89317" lon="0.17746">
        <ele>147.39</ele>
        <time>2015-11-08T10:19:01Z</time>
      </trkpt>
      <trkpt lat="48.8932" lon="0.17749">
        <ele>146.7</ele>
        <time>2015-11-08T10:19:09Z</time>
      </trkpt>
      <trkpt lat="48.89321" lon="0.17754">
        <ele>145.85</ele>
        <time>2015-11-08T10:19:12Z</time>
      </trkpt>
      <trkpt lat="48.89317" lon="0.17756">
        <ele>145.59</ele>
        <time>2015-11-08T10:19:15Z</time>
      </trkpt>
      <trkpt lat="48.89314" lon="0.17755">
        <ele>145.99</ele>
        <time>2015-11-08T10:19:17Z</time>
      </trkpt>
      <trkpt lat="48.8931" lon="0.17754">
        <ele>146.27</ele>
        <time>2015-11-08T10:19:19Z</time>
      </trkpt>
      <trkpt lat="48.89307" lon="0.17754">
        <ele>146.42</ele>
        <time>2015-11-08T10:19:20Z</time>
      </trkpt>
      <trkpt lat="48.89304" lon="0.17754">
        <ele>146.28</ele>
        <time>2015-11-08T10:19:21Z</time>
      </trkpt>
      <trkpt lat="48.893" lon="0.17754">
        <ele>145.76</ele>
        <time>2015-11-08T10:19:22Z</time>
      </trkpt>
      <trkpt lat="48.89296" lon="0.17755">
        <ele>145.13</ele>
        <time>2015-11-08T10:19:23Z</time>
      </trkpt>
      <trkpt lat="48.89292" lon="0.17757">
        <ele>144.41</ele>
        <time>2015-11-08T10:19:24Z</time>
      </trkpt>
      <trkpt lat="48.89285" lon="0.1776">
        <ele>143.09</ele>
        <time>2015-11-08T10:19:25Z</time>
      </trkpt>
      <trkpt lat="48.89281" lon="0.17763">
        <ele>141.98</ele>
        <time>2015-11-08T10:19:26Z</time>
      </trkpt>
      <trkpt lat="48.89277" lon="0.17766">
        <ele>140.99</ele>
        <time>2015-11-08T10:19:27Z</time>
      </trkpt>
      <trkpt lat="48.89272" lon="0.17769">
        <ele>140.07</ele>
        <time>2015-11-08T10:19:28Z</time>
      </trkpt>
      <trkpt lat="48.89268" lon="0.17773">
        <ele>138.98</ele>
        <time>2015-11-08T10:19:29Z</time>
      </trkpt>
      <trkpt lat="48.89263" lon="0.17778">
        <ele>137.91</ele>
        <time>2015-11-08T10:19:30Z</time>
      </trkpt>
      <trkpt lat="48.89257" lon="0.17783">
        <ele>137.01</ele>
        <time>2015-11-08T10:19:31Z</time>
      </trkpt>
      <trkpt lat="48.89251" lon="0.17788">
        <ele>136.27</ele>
        <time>2015-11-08T10:19:32Z</time>
      </trkpt>
      <trkpt lat="48.89245" lon="0.17795">
        <ele>135.8</ele>
        <time>2015-11-08T10:19:33Z</time>
      </trkpt>
      <trkpt lat="48.89238" lon="0.178">
        <ele>135.83</ele>
        <time>2015-11-08T10:19:34Z</time>
      </trkpt>
      <trkpt lat="48.8923" lon="0.17806">
        <ele>136.42</ele>
        <time>2015-11-08T10:19:35Z</time>
      </trkpt>
      <trkpt lat="48.89222" lon="0.17812">
        <ele>137.2</ele>
        <time>2015-11-08T10:19:36Z</time>
      </trkpt>
      <trkpt lat="48.89214" lon="0.17817">
        <ele>136.94</ele>
        <time>2015-11-08T10:19:37Z</time>
      </trkpt>
      <trkpt lat="48.89204" lon="0.17822">
        <ele>136.71</ele>
        <time>2015-11-08T10:19:38Z</time>
      </trkpt>
      <trkpt lat="48.89195" lon="0.17827">
        <ele>136.58</ele>
        <time>2015-11-08T10:19:39Z</time>
      </trkpt>
      <trkpt lat="48.89186" lon="0.17831">
        <ele>134.47</ele>
        <time>2015-11-08T10:19:40Z</time>
      </trkpt>
      <trkpt lat="48.89177" lon="0.17837">
        <ele>132.31</ele>
        <time>2015-11-08T10:19:41Z</time>
      </trkpt>
      <trkpt lat="48.89169" lon="0.17844">
        <ele>130.19</ele>
        <time>2015-11-08T10:19:42Z</time>
      </trkpt>
      <trkpt lat="48.89162" lon="0.17851">
        <ele>128.55</ele>
        <time>2015-11-08T10:19:43Z</time>
      </trkpt>
      <trkpt lat="48.89156" lon="0.17857">
        <ele>127.3</ele>
        <time>2015-11-08T10:19:44Z</time>
      </trkpt>
      <trkpt lat="48.89152" lon="0.17863">
        <ele>126.44</ele>
        <time>2015-11-08T10:19:45Z</time>
      </trkpt>
      <trkpt lat="48.89148" lon="0.17868">
        <ele>125.54</ele>
        <time>2015-11-08T10:19:46Z</time>
      </trkpt>
      <trkpt lat="48.89145" lon="0.17871">
        <ele>124.84</ele>
        <time>2015-11-08T10:19:47Z</time>
      </trkpt>
      <trkpt lat="48.89143" lon="0.17874">
        <ele>124.42</ele>
        <time>2015-11-08T10:19:48Z</time>
      </trkpt>
      <trkpt lat="48.89141" lon="0.17877">
        <ele>124.1</ele>
        <time>2015-11-08T10:19:49Z</time>
      </trkpt>
      <trkpt lat="48.89141" lon="0.17885">
        <ele>124.36</ele>
        <time>2015-11-08T10:19:51Z</time>
      </trkpt>
      <trkpt lat="48.89141" lon="0.17889">
        <ele>124.55</ele>
        <time>2015-11-08T10:19:52Z</time>
      </trkpt>
      <trkpt lat="48.89143" lon="0.17893">
        <ele>124.87</ele>
        <time>2015-11-08T10:19:53Z</time>
      </trkpt>
      <trkpt lat="48.89145" lon="0.17898">
        <ele>125.25</ele>
        <time>2015-11-08T10:19:54Z</time>
      </trkpt>
      <trkpt lat="48.89147" lon="0.17901">
        <ele>125.58</ele>
        <time>2015-11-08T10:19:55Z</time>
      </trkpt>
      <trkpt lat="48.8915" lon="0.17905">
        <ele>125.89</ele>
        <time>2015-11-08T10:19:56Z</time>
      </trkpt>
      <trkpt lat="48.89152" lon="0.17908">
        <ele>126.19</ele>
        <time>2015-11-08T10:19:57Z</time>
      </trkpt>
      <trkpt lat="48.89154" lon="0.17911">
        <ele>126.45</ele>
        <time>2015-11-08T10:19:58Z</time>
      </trkpt>
      <trkpt lat="48.89157" lon="0.17914">
        <ele>126.7</ele>
        <time>2015-11-08T10:19:59Z</time>
      </trkpt>
      <trkpt lat="48.89159" lon="0.17917">
        <ele>126.92</ele>
        <time>2015-11-08T10:20:00Z</time>
      </trkpt>
      <trkpt lat="48.89162" lon="0.1792">
        <ele>127.07</ele>
        <time>2015-11-08T10:20:01Z</time>
      </trkpt>
      <trkpt lat="48.89164" lon="0.17922">
        <ele>127.23</ele>
        <time>2015-11-08T10:20:02Z</time>
      </trkpt>
      <trkpt lat="48.89242" lon="0.17988">
        <ele>127.42</ele>
        <time>2015-11-08T10:20:33Z</time>
      </trkpt>
      <trkpt lat="48.8924" lon="0.17985">
        <ele>128.34</ele>
        <time>2015-11-08T10:20:36Z</time>
      </trkpt>
      <trkpt lat="48.89237" lon="0.17983">
        <ele>129.51</ele>
        <time>2015-11-08T10:20:39Z</time>
      </trkpt>
      <trkpt lat="48.89233" lon="0.17982">
        <ele>130.7</ele>
        <time>2015-11-08T10:20:41Z</time>
      </trkpt>
      <trkpt lat="48.89229" lon="0.17979">
        <ele>132.13</ele>
        <time>2015-11-08T10:20:43Z</time>
      </trkpt>
      <trkpt lat="48.89225" lon="0.17975">
        <ele>133.83</ele>
        <time>2015-11-08T10:20:45Z</time>
      </trkpt>
      <trkpt lat="48.89221" lon="0.17971">
        <ele>134.95</ele>
        <time>2015-11-08T10:20:47Z</time>
      </trkpt>
      <trkpt lat="48.89217" lon="0.17967">
        <ele>134.61</ele>
        <time>2015-11-08T10:20:49Z</time>
      </trkpt>
      <trkpt lat="48.89213" lon="0.17964">
        <ele>134.27</ele>
        <time>2015-11-08T10:20:51Z</time>
      </trkpt>
      <trkpt lat="48.89209" lon="0.17961">
        <ele>133.95</ele>
        <time>2015-11-08T10:20:53Z</time>
      </trkpt>
      <trkpt lat="48.89206" lon="0.17957">
        <ele>133.79</ele>
        <time>2015-11-08T10:20:55Z</time>
      </trkpt>
      <trkpt lat="48.89203" lon="0.17954">
        <ele>133.6</ele>
        <time>2015-11-08T10:20:57Z</time>
      </trkpt>
      <trkpt lat="48.892" lon="0.17951">
        <ele>133.34</ele>
        <time>2015-11-08T10:20:59Z</time>
      </trkpt>
      <trkpt lat="48.89197" lon="0.17948">
        <ele>133.15</ele>
        <time>2015-11-08T10:21:01Z</time>
      </trkpt>
      <trkpt lat="48.89195" lon="0.17945">
        <ele>133.01</ele>
        <time>2015-11-08T10:21:03Z</time>
      </trkpt>
      <trkpt lat="48.89197" lon="0.17948">
        <ele>133.11</ele>
        <time>2015-11-08T10:22:04Z</time>
      </trkpt>
      <trkpt lat="48.89199" lon="0.17952">
        <ele>133.18</ele>
        <time>2015-11-08T10:22:07Z</time>
      </trkpt>
      <trkpt lat="48.89202" lon="0.17956">
        <ele>133.28</ele>
        <time>2015-11-08T10:22:10Z</time>
      </trkpt>
      <trkpt lat="48.89205" lon="0.17959">
        <ele>133.47</ele>
        <time>2015-11-08T10:22:12Z</time>
      </trkpt>
      <trkpt lat="48.89207" lon="0.17961">
        <ele>133.68</ele>
        <time>2015-11-08T10:22:14Z</time>
      </trkpt>
      <trkpt lat="48.89211" lon="0.17964">
        <ele>133.92</ele>
        <time>2015-11-08T10:22:16Z</time>
      </trkpt>
      <trkpt lat="48.89214" lon="0.17968">
        <ele>134.14</ele>
        <time>2015-11-08T10:22:18Z</time>
      </trkpt>
      <trkpt lat="48.89218" lon="0.17972">
        <ele>134.43</ele>
        <time>2015-11-08T10:22:20Z</time>
      </trkpt>
      <trkpt lat="48.89222" lon="0.17976">
        <ele>134.46</ele>
        <time>2015-11-08T10:22:22Z</time>
      </trkpt>
      <trkpt lat="48.89226" lon="0.17979">
        <ele>132.87</ele>
        <time>2015-11-08T10:22:24Z</time>
      </trkpt>
      <trkpt lat="48.8923" lon="0.17983">
        <ele>131.31</ele>
        <time>2015-11-08T10:22:26Z</time>
      </trkpt>
      <trkpt lat="48.89234" lon="0.17987">
        <ele>129.65</ele>
        <time>2015-11-08T10:22:28Z</time>
      </trkpt>
      <trkpt lat="48.89238" lon="0.17991">
        <ele>128.02</ele>
        <time>2015-11-08T10:22:30Z</time>
      </trkpt>
      <trkpt lat="48.89243" lon="0.17995">
        <ele>126.35</ele>
        <time>2015-11-08T10:22:32Z</time>
      </trkpt>
      <trkpt lat="48.89247" lon="0.18">
        <ele>124.72</ele>
        <time>2015-11-08T10:22:34Z</time>
      </trkpt>
      <trkpt lat="48.89252" lon="0.18004">
        <ele>123.85</ele>
        <time>2015-11-08T10:22:36Z</time>
      </trkpt>
      <trkpt lat="48.89254" lon="0.18006">
        <ele>124.03</ele>
        <time>2015-11-08T10:22:37Z</time>
      </trkpt>
      <trkpt lat="48.89257" lon="0.18009">
        <ele>124.25</ele>
        <time>2015-11-08T10:22:38Z</time>
      </trkpt>
      <trkpt lat="48.89259" lon="0.18011">
        <ele>124.51</ele>
        <time>2015-11-08T10:22:39Z</time>
      </trkpt>
      <trkpt lat="48.89262" lon="0.18013">
        <ele>124.83</ele>
        <time>2015-11-08T10:22:40Z</time>
      </trkpt>
      <trkpt lat="48.89264" lon="0.18016">
        <ele>125.2</ele>
        <time>2015-11-08T10:22:41Z</time>
      </trkpt>
      <trkpt lat="48.89267" lon="0.18018">
        <ele>125.63</ele>
        <time>2015-11-08T10:22:42Z</time>
      </trkpt>
      <trkpt lat="48.89269" lon="0.1802">
        <ele>126.09</ele>
        <time>2015-11-08T10:22:43Z</time>
      </trkpt>
      <trkpt lat="48.89272" lon="0.18022">
        <ele>126.6</ele>
        <time>2015-11-08T10:22:44Z</time>
      </trkpt>
      <trkpt lat="48.89274" lon="0.18024">
        <ele>127.17</ele>
        <time>2015-11-08T10:22:45Z</time>
      </trkpt>
      <trkpt lat="48.89277" lon="0.18027">
        <ele>127.79</ele>
        <time>2015-11-08T10:22:46Z</time>
      </trkpt>
      <trkpt lat="48.8928" lon="0.18029">
        <ele>127.95</ele>
        <time>2015-11-08T10:22:47Z</time>
      </trkpt>
      <trkpt lat="48.89282" lon="0.18031">
        <ele>127.8</ele>
        <time>2015-11-08T10:22:48Z</time>
      </trkpt>
      <trkpt lat="48.89285" lon="0.18034">
        <ele>127.65</ele>
        <time>2015-11-08T10:22:49Z</time>
      </trkpt>
      <trkpt lat="48.89288" lon="0.18036">
        <ele>127.51</ele>
        <time>2015-11-08T10:22:50Z</time>
      </trkpt>
      <trkpt lat="48.89291" lon="0.18037">
        <ele>127.38</ele>
        <time>2015-11-08T10:22:51Z</time>
      </trkpt>
      <trkpt lat="48.89294" lon="0.18039">
        <ele>127.26</ele>
        <time>2015-11-08T10:22:52Z</time>
      </trkpt>
      <trkpt lat="48.89297" lon="0.18041">
        <ele>127.15</ele>
        <time>2015-11-08T10:22:53Z</time>
      </trkpt>
      <trkpt lat="48.893" lon="0.18043">
        <ele>127.04</ele>
        <time>2015-11-08T10:22:54Z</time>
      </trkpt>
      <trkpt lat="48.89304" lon="0.18044">
        <ele>126.94</ele>
        <time>2015-11-08T10:22:55Z</time>
      </trkpt>
      <trkpt lat="48.89307" lon="0.18046">
        <ele>126.6</ele>
        <time>2015-11-08T10:22:56Z</time>
      </trkpt>
      <trkpt lat="48.89311" lon="0.18048">
        <ele>125.92</ele>
        <time>2015-11-08T10:22:57Z</time>
      </trkpt>
      <trkpt lat="48.89315" lon="0.1805">
        <ele>125.16</ele>
        <time>2015-11-08T10:22:58Z</time>
      </trkpt>
      <trkpt lat="48.89319" lon="0.18052">
        <ele>124.32</ele>
        <time>2015-11-08T10:22:59Z</time>
      </trkpt>
      <trkpt lat="48.89324" lon="0.18054">
        <ele>123.46</ele>
        <time>2015-11-08T10:23:00Z</time>
      </trkpt>
      <trkpt lat="48.89328" lon="0.18055">
        <ele>122.62</ele>
        <time>2015-11-08T10:23:01Z</time>
      </trkpt>
      <trkpt lat="48.89332" lon="0.18057">
        <ele>121.88</ele>
        <time>2015-11-08T10:23:02Z</time>
      </trkpt>
      <trkpt lat="48.89336" lon="0.18059">
        <ele>121.67</ele>
        <time>2015-11-08T10:23:03Z</time>
      </trkpt>
      <trkpt lat="48.8934" lon="0.18062">
        <ele>121.66</ele>
        <time>2015-11-08T10:23:04Z</time>
      </trkpt>
      <trkpt lat="48.89345" lon="0.18064">
        <ele>121.67</ele>
        <time>2015-11-08T10:23:05Z</time>
      </trkpt>
      <trkpt lat="48.8935" lon="0.18069">
        <ele>121.6</ele>
        <time>2015-11-08T10:23:06Z</time>
      </trkpt>
      <trkpt lat="48.89354" lon="0.18071">
        <ele>121.74</ele>
        <time>2015-11-08T10:23:07Z</time>
      </trkpt>
      <trkpt lat="48.89358" lon="0.18072">
        <ele>121.9</ele>
        <time>2015-11-08T10:23:08Z</time>
      </trkpt>
      <trkpt lat="48.89362" lon="0.18074">
        <ele>122.42</ele>
        <time>2015-11-08T10:23:09Z</time>
      </trkpt>
      <trkpt lat="48.89366" lon="0.18075">
        <ele>123.52</ele>
        <time>2015-11-08T10:23:10Z</time>
      </trkpt>
      <trkpt lat="48.8937" lon="0.18078">
        <ele>124.63</ele>
        <time>2015-11-08T10:23:11Z</time>
      </trkpt>
      <trkpt lat="48.89375" lon="0.1808">
        <ele>126</ele>
        <time>2015-11-08T10:23:12Z</time>
      </trkpt>
      <trkpt lat="48.89378" lon="0.18083">
        <ele>127.19</ele>
        <time>2015-11-08T10:23:13Z</time>
      </trkpt>
      <trkpt lat="48.89383" lon="0.18084">
        <ele>128.76</ele>
        <time>2015-11-08T10:23:14Z</time>
      </trkpt>
      <trkpt lat="48.89387" lon="0.18087">
        <ele>130.28</ele>
        <time>2015-11-08T10:23:15Z</time>
      </trkpt>
      <trkpt lat="48.89391" lon="0.18089">
        <ele>131.08</ele>
        <time>2015-11-08T10:23:16Z</time>
      </trkpt>
      <trkpt lat="48.89395" lon="0.18092">
        <ele>131.21</ele>
        <time>2015-11-08T10:23:17Z</time>
      </trkpt>
      <trkpt lat="48.89398" lon="0.18095">
        <ele>131.34</ele>
        <time>2015-11-08T10:23:18Z</time>
      </trkpt>
      <trkpt lat="48.89403" lon="0.18097">
        <ele>131.5</ele>
        <time>2015-11-08T10:23:19Z</time>
      </trkpt>
      <trkpt lat="48.89407" lon="0.181">
        <ele>131.65</ele>
        <time>2015-11-08T10:23:20Z</time>
      </trkpt>
      <trkpt lat="48.89411" lon="0.18102">
        <ele>131.8</ele>
        <time>2015-11-08T10:23:21Z</time>
      </trkpt>
      <trkpt lat="48.89415" lon="0.18104">
        <ele>131.94</ele>
        <time>2015-11-08T10:23:22Z</time>
      </trkpt>
      <trkpt lat="48.89419" lon="0.18108">
        <ele>131.99</ele>
        <time>2015-11-08T10:23:23Z</time>
      </trkpt>
      <trkpt lat="48.89423" lon="0.1811">
        <ele>131.99</ele>
        <time>2015-11-08T10:23:24Z</time>
      </trkpt>
      <trkpt lat="48.89427" lon="0.18113">
        <ele>131.87</ele>
        <time>2015-11-08T10:23:25Z</time>
      </trkpt>
      <trkpt lat="48.8943" lon="0.18116">
        <ele>131.75</ele>
        <time>2015-11-08T10:23:26Z</time>
      </trkpt>
      <trkpt lat="48.89434" lon="0.18119">
        <ele>131.68</ele>
        <time>2015-11-08T10:23:27Z</time>
      </trkpt>
      <trkpt lat="48.89437" lon="0.18122">
        <ele>131.69</ele>
        <time>2015-11-08T10:23:28Z</time>
      </trkpt>
      <trkpt lat="48.89441" lon="0.18125">
        <ele>131.83</ele>
        <time>2015-11-08T10:23:29Z</time>
      </trkpt>
      <trkpt lat="48.89445" lon="0.18128">
        <ele>131.89</ele>
        <time>2015-11-08T10:23:30Z</time>
      </trkpt>
      <trkpt lat="48.89449" lon="0.18131">
        <ele>131.34</ele>
        <time>2015-11-08T10:23:31Z</time>
      </trkpt>
      <trkpt lat="48.89453" lon="0.18134">
        <ele>130.78</ele>
        <time>2015-11-08T10:23:32Z</time>
      </trkpt>
      <trkpt lat="48.89457" lon="0.18137">
        <ele>130.21</ele>
        <time>2015-11-08T10:23:33Z</time>
      </trkpt>
      <trkpt lat="48.89461" lon="0.1814">
        <ele>129.57</ele>
        <time>2015-11-08T10:23:34Z</time>
      </trkpt>
      <trkpt lat="48.89465" lon="0.18143">
        <ele>128.85</ele>
        <time>2015-11-08T10:23:35Z</time>
      </trkpt>
      <trkpt lat="48.89468" lon="0.18145">
        <ele>128.23</ele>
        <time>2015-11-08T10:23:36Z</time>
      </trkpt>
      <trkpt lat="48.89472" lon="0.18148">
        <ele>127.7</ele>
        <time>2015-11-08T10:23:37Z</time>
      </trkpt>
      <trkpt lat="48.89475" lon="0.18152">
        <ele>127.42</ele>
        <time>2015-11-08T10:23:38Z</time>
      </trkpt>
      <trkpt lat="48.89479" lon="0.18155">
        <ele>127.18</ele>
        <time>2015-11-08T10:23:39Z</time>
      </trkpt>
      <trkpt lat="48.89482" lon="0.18159">
        <ele>126.93</ele>
        <time>2015-11-08T10:23:40Z</time>
      </trkpt>
      <trkpt lat="48.89486" lon="0.18162">
        <ele>126.68</ele>
        <time>2015-11-08T10:23:41Z</time>
      </trkpt>
      <trkpt lat="48.89489" lon="0.18165">
        <ele>126.45</ele>
        <time>2015-11-08T10:23:42Z</time>
      </trkpt>
      <trkpt lat="48.89493" lon="0.18168">
        <ele>126.13</ele>
        <time>2015-11-08T10:23:43Z</time>
      </trkpt>
      <trkpt lat="48.89496" lon="0.18171">
        <ele>125.78</ele>
        <time>2015-11-08T10:23:44Z</time>
      </trkpt>
      <trkpt lat="48.895" lon="0.18174">
        <ele>125.45</ele>
        <time>2015-11-08T10:23:45Z</time>
      </trkpt>
      <trkpt lat="48.89503" lon="0.18178">
        <ele>125.2</ele>
        <time>2015-11-08T10:23:46Z</time>
      </trkpt>
      <trkpt lat="48.89506" lon="0.18182">
        <ele>124.9</ele>
        <time>2015-11-08T10:23:47Z</time>
      </trkpt>
      <trkpt lat="48.89509" lon="0.18185">
        <ele>124.55</ele>
        <time>2015-11-08T10:23:48Z</time>
      </trkpt>
      <trkpt lat="48.89512" lon="0.18189">
        <ele>124.18</ele>
        <time>2015-11-08T10:23:49Z</time>
      </trkpt>
      <trkpt lat="48.89515" lon="0.18192">
        <ele>123.75</ele>
        <time>2015-11-08T10:23:50Z</time>
      </trkpt>
      <trkpt lat="48.89518" lon="0.18195">
        <ele>123.3</ele>
        <time>2015-11-08T10:23:51Z</time>
      </trkpt>
      <trkpt lat="48.89521" lon="0.18198">
        <ele>122.89</ele>
        <time>2015-11-08T10:23:52Z</time>
      </trkpt>
      <trkpt lat="48.89524" lon="0.18202">
        <ele>122.42</ele>
        <time>2015-11-08T10:23:53Z</time>
      </trkpt>
      <trkpt lat="48.89527" lon="0.18205">
        <ele>121.9</ele>
        <time>2015-11-08T10:23:54Z</time>
      </trkpt>
      <trkpt lat="48.8953" lon="0.18209">
        <ele>121.75</ele>
        <time>2015-11-08T10:23:55Z</time>
      </trkpt>
      <trkpt lat="48.89533" lon="0.18213">
        <ele>121.7</ele>
        <time>2015-11-08T10:23:56Z</time>
      </trkpt>
      <trkpt lat="48.89536" lon="0.18217">
        <ele>121.67</ele>
        <time>2015-11-08T10:23:57Z</time>
      </trkpt>
      <trkpt lat="48.89538" lon="0.1822">
        <ele>121.71</ele>
        <time>2015-11-08T10:23:58Z</time>
      </trkpt>
      <trkpt lat="48.89542" lon="0.18224">
        <ele>121.99</ele>
        <time>2015-11-08T10:23:59Z</time>
      </trkpt>
      <trkpt lat="48.89545" lon="0.18227">
        <ele>122.45</ele>
        <time>2015-11-08T10:24:00Z</time>
      </trkpt>
      <trkpt lat="48.89548" lon="0.18231">
        <ele>122.87</ele>
        <time>2015-11-08T10:24:01Z</time>
      </trkpt>
      <trkpt lat="48.8955" lon="0.18235">
        <ele>123.24</ele>
        <time>2015-11-08T10:24:02Z</time>
      </trkpt>
      <trkpt lat="48.89553" lon="0.18239">
        <ele>123.62</ele>
        <time>2015-11-08T10:24:03Z</time>
      </trkpt>
      <trkpt lat="48.89556" lon="0.18242">
        <ele>124</ele>
        <time>2015-11-08T10:24:04Z</time>
      </trkpt>
      <trkpt lat="48.89558" lon="0.18245">
        <ele>124.02</ele>
        <time>2015-11-08T10:24:05Z</time>
      </trkpt>
      <trkpt lat="48.89561" lon="0.18248">
        <ele>124.01</ele>
        <time>2015-11-08T10:24:06Z</time>
      </trkpt>
      <trkpt lat="48.89564" lon="0.18251">
        <ele>123.9</ele>
        <time>2015-11-08T10:24:07Z</time>
      </trkpt>
      <trkpt lat="48.89567" lon="0.18254">
        <ele>123.62</ele>
        <time>2015-11-08T10:24:08Z</time>
      </trkpt>
      <trkpt lat="48.8957" lon="0.18257">
        <ele>123.32</ele>
        <time>2015-11-08T10:24:09Z</time>
      </trkpt>
      <trkpt lat="48.89572" lon="0.18261">
        <ele>123.01</ele>
        <time>2015-11-08T10:24:10Z</time>
      </trkpt>
      <trkpt lat="48.89575" lon="0.18264">
        <ele>122.64</ele>
        <time>2015-11-08T10:24:11Z</time>
      </trkpt>
      <trkpt lat="48.89578" lon="0.18267">
        <ele>122.25</ele>
        <time>2015-11-08T10:24:12Z</time>
      </trkpt>
      <trkpt lat="48.89581" lon="0.18271">
        <ele>121.82</ele>
        <time>2015-11-08T10:24:13Z</time>
      </trkpt>
      <trkpt lat="48.89583" lon="0.18274">
        <ele>121.4</ele>
        <time>2015-11-08T10:24:14Z</time>
      </trkpt>
      <trkpt lat="48.89586" lon="0.18277">
        <ele>121.69</ele>
        <time>2015-11-08T10:24:15Z</time>
      </trkpt>
      <trkpt lat="48.89589" lon="0.1828">
        <ele>122.1</ele>
        <time>2015-11-08T10:24:16Z</time>
      </trkpt>
      <trkpt lat="48.89592" lon="0.18284">
        <ele>122.49</ele>
        <time>2015-11-08T10:24:17Z</time>
      </trkpt>
      <trkpt lat="48.89595" lon="0.18287">
        <ele>122.79</ele>
        <time>2015-11-08T10:24:18Z</time>
      </trkpt>
      <trkpt lat="48.89598" lon="0.1829">
        <ele>122.99</ele>
        <time>2015-11-08T10:24:19Z</time>
      </trkpt>
      <trkpt lat="48.89601" lon="0.18294">
        <ele>123.1</ele>
        <time>2015-11-08T10:24:20Z</time>
      </trkpt>
      <trkpt lat="48.89604" lon="0.18297">
        <ele>123.13</ele>
        <time>2015-11-08T10:24:21Z</time>
      </trkpt>
      <trkpt lat="48.89606" lon="0.18301">
        <ele>123.1</ele>
        <time>2015-11-08T10:24:22Z</time>
      </trkpt>
      <trkpt lat="48.89609" lon="0.18304">
        <ele>122.96</ele>
        <time>2015-11-08T10:24:23Z</time>
      </trkpt>
      <trkpt lat="48.89612" lon="0.18308">
        <ele>122.63</ele>
        <time>2015-11-08T10:24:24Z</time>
      </trkpt>
      <trkpt lat="48.89615" lon="0.18312">
        <ele>122.14</ele>
        <time>2015-11-08T10:24:25Z</time>
      </trkpt>
      <trkpt lat="48.89617" lon="0.18315">
        <ele>121.66</ele>
        <time>2015-11-08T10:24:26Z</time>
      </trkpt>
      <trkpt lat="48.8962" lon="0.18318">
        <ele>121.19</ele>
        <time>2015-11-08T10:24:27Z</time>
      </trkpt>
      <trkpt lat="48.89623" lon="0.18322">
        <ele>120.7</ele>
        <time>2015-11-08T10:24:28Z</time>
      </trkpt>
      <trkpt lat="48.89626" lon="0.18325">
        <ele>120.2</ele>
        <time>2015-11-08T10:24:29Z</time>
      </trkpt>
      <trkpt lat="48.89629" lon="0.18328">
        <ele>119.68</ele>
        <time>2015-11-08T10:24:30Z</time>
      </trkpt>
      <trkpt lat="48.89632" lon="0.18331">
        <ele>119.14</ele>
        <time>2015-11-08T10:24:31Z</time>
      </trkpt>
      <trkpt lat="48.89635" lon="0.18335">
        <ele>118.75</ele>
        <time>2015-11-08T10:24:32Z</time>
      </trkpt>
      <trkpt lat="48.89638" lon="0.18338">
        <ele>118.61</ele>
        <time>2015-11-08T10:24:33Z</time>
      </trkpt>
      <trkpt lat="48.89641" lon="0.18342">
        <ele>118.58</ele>
        <time>2015-11-08T10:24:34Z</time>
      </trkpt>
      <trkpt lat="48.89644" lon="0.18345">
        <ele>118.63</ele>
        <time>2015-11-08T10:24:35Z</time>
      </trkpt>
      <trkpt lat="48.89647" lon="0.18348">
        <ele>118.69</ele>
        <time>2015-11-08T10:24:36Z</time>
      </trkpt>
      <trkpt lat="48.8965" lon="0.18351">
        <ele>118.75</ele>
        <time>2015-11-08T10:24:37Z</time>
      </trkpt>
      <trkpt lat="48.89652" lon="0.18355">
        <ele>118.82</ele>
        <time>2015-11-08T10:24:38Z</time>
      </trkpt>
      <trkpt lat="48.89655" lon="0.18358">
        <ele>118.92</ele>
        <time>2015-11-08T10:24:39Z</time>
      </trkpt>
      <trkpt lat="48.89658" lon="0.18361">
        <ele>119.05</ele>
        <time>2015-11-08T10:24:40Z</time>
      </trkpt>
      <trkpt lat="48.89661" lon="0.18364">
        <ele>119.19</ele>
        <time>2015-11-08T10:24:41Z</time>
      </trkpt>
      <trkpt lat="48.89664" lon="0.18368">
        <ele>119.37</ele>
        <time>2015-11-08T10:24:42Z</time>
      </trkpt>
      <trkpt lat="48.89666" lon="0.18371">
        <ele>119.61</ele>
        <time>2015-11-08T10:24:43Z</time>
      </trkpt>
      <trkpt lat="48.89669" lon="0.18374">
        <ele>119.72</ele>
        <time>2015-11-08T10:24:44Z</time>
      </trkpt>
      <trkpt lat="48.89672" lon="0.18378">
        <ele>119.86</ele>
        <time>2015-11-08T10:24:45Z</time>
      </trkpt>
      <trkpt lat="48.89675" lon="0.18381">
        <ele>120.03</ele>
        <time>2015-11-08T10:24:46Z</time>
      </trkpt>
      <trkpt lat="48.89678" lon="0.18384">
        <ele>120.23</ele>
        <time>2015-11-08T10:24:47Z</time>
      </trkpt>
      <trkpt lat="48.8968" lon="0.18388">
        <ele>120.47</ele>
        <time>2015-11-08T10:24:48Z</time>
      </trkpt>
      <trkpt lat="48.89683" lon="0.18391">
        <ele>120.65</ele>
        <time>2015-11-08T10:24:49Z</time>
      </trkpt>
      <trkpt lat="48.89686" lon="0.18394">
        <ele>120.82</ele>
        <time>2015-11-08T10:24:50Z</time>
      </trkpt>
      <trkpt lat="48.89688" lon="0.18397">
        <ele>121.1</ele>
        <time>2015-11-08T10:24:51Z</time>
      </trkpt>
      <trkpt lat="48.89691" lon="0.184">
        <ele>121.44</ele>
        <time>2015-11-08T10:24:52Z</time>
      </trkpt>
      <trkpt lat="48.89693" lon="0.18403">
        <ele>121.81</ele>
        <time>2015-11-08T10:24:53Z</time>
      </trkpt>
      <trkpt lat="48.89695" lon="0.18406">
        <ele>122</ele>
        <time>2015-11-08T10:24:54Z</time>
      </trkpt>
      <trkpt lat="48.89695" lon="0.18411">
        <ele>122</ele>
        <time>2015-11-08T10:24:56Z</time>
      </trkpt>
      <trkpt lat="48.8969" lon="0.18413">
        <ele>121</ele>
        <time>2015-11-08T10:24:58Z</time>
      </trkpt>
      <trkpt lat="48.89686" lon="0.18415">
        <ele>119.89</ele>
        <time>2015-11-08T10:25:00Z</time>
      </trkpt>
      <trkpt lat="48.89683" lon="0.18419">
        <ele>119.19</ele>
        <time>2015-11-08T10:25:02Z</time>
      </trkpt>
      <trkpt lat="48.89652" lon="0.18494">
        <ele>124.05</ele>
        <time>2015-11-08T10:25:32Z</time>
      </trkpt>
      <trkpt lat="48.89654" lon="0.18499">
        <ele>124.47</ele>
        <time>2015-11-08T10:25:34Z</time>
      </trkpt>
      <trkpt lat="48.89653" lon="0.18505">
        <ele>124.62</ele>
        <time>2015-11-08T10:25:36Z</time>
      </trkpt>
      <trkpt lat="48.89653" lon="0.18512">
        <ele>124.7</ele>
        <time>2015-11-08T10:25:38Z</time>
      </trkpt>
      <trkpt lat="48.89652" lon="0.18517">
        <ele>124.74</ele>
        <time>2015-11-08T10:25:40Z</time>
      </trkpt>
      <trkpt lat="48.8965" lon="0.18523">
        <ele>124.76</ele>
        <time>2015-11-08T10:25:42Z</time>
      </trkpt>
      <trkpt lat="48.89649" lon="0.18529">
        <ele>124.8</ele>
        <time>2015-11-08T10:25:44Z</time>
      </trkpt>
      <trkpt lat="48.89648" lon="0.18535">
        <ele>124.92</ele>
        <time>2015-11-08T10:25:46Z</time>
      </trkpt>
      <trkpt lat="48.89647" lon="0.1854">
        <ele>125.01</ele>
        <time>2015-11-08T10:25:48Z</time>
      </trkpt>
      <trkpt lat="48.89645" lon="0.18545">
        <ele>125.06</ele>
        <time>2015-11-08T10:25:50Z</time>
      </trkpt>
      <trkpt lat="48.89644" lon="0.1855">
        <ele>125.15</ele>
        <time>2015-11-08T10:25:52Z</time>
      </trkpt>
      <trkpt lat="48.89643" lon="0.18554">
        <ele>125.24</ele>
        <time>2015-11-08T10:25:54Z</time>
      </trkpt>
      <trkpt lat="48.89641" lon="0.18559">
        <ele>125.28</ele>
        <time>2015-11-08T10:25:56Z</time>
      </trkpt>
      <trkpt lat="48.89639" lon="0.18564">
        <ele>125.33</ele>
        <time>2015-11-08T10:25:58Z</time>
      </trkpt>
      <trkpt lat="48.89637" lon="0.18569">
        <ele>125.64</ele>
        <time>2015-11-08T10:26:00Z</time>
      </trkpt>
      <trkpt lat="48.89635" lon="0.18574">
        <ele>126.01</ele>
        <time>2015-11-08T10:26:02Z</time>
      </trkpt>
      <trkpt lat="48.89634" lon="0.18579">
        <ele>126.38</ele>
        <time>2015-11-08T10:26:04Z</time>
      </trkpt>
      <trkpt lat="48.89631" lon="0.18583">
        <ele>126.77</ele>
        <time>2015-11-08T10:26:06Z</time>
      </trkpt>
      <trkpt lat="48.89629" lon="0.18586">
        <ele>127.38</ele>
        <time>2015-11-08T10:26:08Z</time>
      </trkpt>
      <trkpt lat="48.89628" lon="0.1859">
        <ele>128.01</ele>
        <time>2015-11-08T10:26:10Z</time>
      </trkpt>
      <trkpt lat="48.89626" lon="0.18594">
        <ele>128.6</ele>
        <time>2015-11-08T10:26:12Z</time>
      </trkpt>
      <trkpt lat="48.89624" lon="0.18598">
        <ele>129.14</ele>
        <time>2015-11-08T10:26:14Z</time>
      </trkpt>
      <trkpt lat="48.89622" lon="0.18602">
        <ele>129.69</ele>
        <time>2015-11-08T10:26:16Z</time>
      </trkpt>
      <trkpt lat="48.8962" lon="0.18606">
        <ele>130.18</ele>
        <time>2015-11-08T10:26:18Z</time>
      </trkpt>
      <trkpt lat="48.89619" lon="0.1861">
        <ele>130.61</ele>
        <time>2015-11-08T10:26:20Z</time>
      </trkpt>
      <trkpt lat="48.89617" lon="0.18613">
        <ele>131.08</ele>
        <time>2015-11-08T10:26:22Z</time>
      </trkpt>
      <trkpt lat="48.89615" lon="0.18617">
        <ele>131.53</ele>
        <time>2015-11-08T10:26:24Z</time>
      </trkpt>
      <trkpt lat="48.89613" lon="0.1862">
        <ele>131.96</ele>
        <time>2015-11-08T10:26:26Z</time>
      </trkpt>
      <trkpt lat="48.89612" lon="0.18624">
        <ele>132.39</ele>
        <time>2015-11-08T10:26:28Z</time>
      </trkpt>
      <trkpt lat="48.8961" lon="0.18627">
        <ele>132.68</ele>
        <time>2015-11-08T10:26:30Z</time>
      </trkpt>
      <trkpt lat="48.89608" lon="0.18631">
        <ele>132.98</ele>
        <time>2015-11-08T10:26:32Z</time>
      </trkpt>
      <trkpt lat="48.89606" lon="0.18634">
        <ele>133.26</ele>
        <time>2015-11-08T10:26:34Z</time>
      </trkpt>
      <trkpt lat="48.89604" lon="0.18637">
        <ele>133.56</ele>
        <time>2015-11-08T10:26:36Z</time>
      </trkpt>
      <trkpt lat="48.89602" lon="0.18642">
        <ele>133.94</ele>
        <time>2015-11-08T10:26:38Z</time>
      </trkpt>
      <trkpt lat="48.896" lon="0.18646">
        <ele>134.32</ele>
        <time>2015-11-08T10:26:40Z</time>
      </trkpt>
      <trkpt lat="48.89599" lon="0.1865">
        <ele>134.73</ele>
        <time>2015-11-08T10:26:42Z</time>
      </trkpt>
      <trkpt lat="48.89597" lon="0.18654">
        <ele>135.19</ele>
        <time>2015-11-08T10:26:44Z</time>
      </trkpt>
      <trkpt lat="48.89595" lon="0.18659">
        <ele>135.7</ele>
        <time>2015-11-08T10:26:46Z</time>
      </trkpt>
      <trkpt lat="48.89593" lon="0.18663">
        <ele>136.26</ele>
        <time>2015-11-08T10:26:48Z</time>
      </trkpt>
      <trkpt lat="48.89592" lon="0.18668">
        <ele>136.84</ele>
        <time>2015-11-08T10:26:50Z</time>
      </trkpt>
      <trkpt lat="48.89592" lon="0.18672">
        <ele>137.48</ele>
        <time>2015-11-08T10:26:52Z</time>
      </trkpt>
      <trkpt lat="48.89592" lon="0.18677">
        <ele>138.09</ele>
        <time>2015-11-08T10:26:54Z</time>
      </trkpt>
      <trkpt lat="48.89592" lon="0.18681">
        <ele>138.72</ele>
        <time>2015-11-08T10:26:56Z</time>
      </trkpt>
      <trkpt lat="48.89593" lon="0.18685">
        <ele>139.37</ele>
        <time>2015-11-08T10:26:58Z</time>
      </trkpt>
      <trkpt lat="48.89595" lon="0.18689">
        <ele>140.05</ele>
        <time>2015-11-08T10:27:00Z</time>
      </trkpt>
      <trkpt lat="48.89597" lon="0.18693">
        <ele>140.73</ele>
        <time>2015-11-08T10:27:02Z</time>
      </trkpt>
      <trkpt lat="48.896" lon="0.18696">
        <ele>141.49</ele>
        <time>2015-11-08T10:27:04Z</time>
      </trkpt>
      <trkpt lat="48.89603" lon="0.18699">
        <ele>142.2</ele>
        <time>2015-11-08T10:27:06Z</time>
      </trkpt>
      <trkpt lat="48.89605" lon="0.18702">
        <ele>142.99</ele>
        <time>2015-11-08T10:27:08Z</time>
      </trkpt>
      <trkpt lat="48.89607" lon="0.18706">
        <ele>143.79</ele>
        <time>2015-11-08T10:27:10Z</time>
      </trkpt>
      <trkpt lat="48.8961" lon="0.1871">
        <ele>144.64</ele>
        <time>2015-11-08T10:27:12Z</time>
      </trkpt>
      <trkpt lat="48.89613" lon="0.18713">
        <ele>145.17</ele>
        <time>2015-11-08T10:27:14Z</time>
      </trkpt>
      <trkpt lat="48.89616" lon="0.18717">
        <ele>145.62</ele>
        <time>2015-11-08T10:27:16Z</time>
      </trkpt>
      <trkpt lat="48.89618" lon="0.18721">
        <ele>146.1</ele>
        <time>2015-11-08T10:27:18Z</time>
      </trkpt>
      <trkpt lat="48.8962" lon="0.18725">
        <ele>145.94</ele>
        <time>2015-11-08T10:27:20Z</time>
      </trkpt>
      <trkpt lat="48.89623" lon="0.18729">
        <ele>145.6</ele>
        <time>2015-11-08T10:27:22Z</time>
      </trkpt>
      <trkpt lat="48.89624" lon="0.18735">
        <ele>145.34</ele>
        <time>2015-11-08T10:27:24Z</time>
      </trkpt>
      <trkpt lat="48.89625" lon="0.18741">
        <ele>145.13</ele>
        <time>2015-11-08T10:27:26Z</time>
      </trkpt>
      <trkpt lat="48.89626" lon="0.18746">
        <ele>145</ele>
        <time>2015-11-08T10:27:28Z</time>
      </trkpt>
      <trkpt lat="48.89626" lon="0.18751">
        <ele>144.83</ele>
        <time>2015-11-08T10:27:30Z</time>
      </trkpt>
      <trkpt lat="48.89626" lon="0.18756">
        <ele>144.38</ele>
        <time>2015-11-08T10:27:32Z</time>
      </trkpt>
      <trkpt lat="48.89627" lon="0.18761">
        <ele>143.98</ele>
        <time>2015-11-08T10:27:34Z</time>
      </trkpt>
      <trkpt lat="48.89627" lon="0.18765">
        <ele>143.6</ele>
        <time>2015-11-08T10:27:36Z</time>
      </trkpt>
      <trkpt lat="48.89628" lon="0.1877">
        <ele>143.26</ele>
        <time>2015-11-08T10:27:38Z</time>
      </trkpt>
      <trkpt lat="48.89629" lon="0.18774">
        <ele>142.93</ele>
        <time>2015-11-08T10:27:40Z</time>
      </trkpt>
      <trkpt lat="48.8963" lon="0.18779">
        <ele>142.61</ele>
        <time>2015-11-08T10:27:42Z</time>
      </trkpt>
      <trkpt lat="48.89631" lon="0.18784">
        <ele>142.25</ele>
        <time>2015-11-08T10:27:44Z</time>
      </trkpt>
      <trkpt lat="48.89633" lon="0.18788">
        <ele>141.93</ele>
        <time>2015-11-08T10:27:46Z</time>
      </trkpt>
      <trkpt lat="48.89634" lon="0.18793">
        <ele>141.62</ele>
        <time>2015-11-08T10:27:48Z</time>
      </trkpt>
      <trkpt lat="48.89635" lon="0.18798">
        <ele>141.33</ele>
        <time>2015-11-08T10:27:50Z</time>
      </trkpt>
      <trkpt lat="48.89636" lon="0.18802">
        <ele>141.02</ele>
        <time>2015-11-08T10:27:52Z</time>
      </trkpt>
      <trkpt lat="48.89637" lon="0.18806">
        <ele>140.73</ele>
        <time>2015-11-08T10:27:54Z</time>
      </trkpt>
      <trkpt lat="48.89638" lon="0.1881">
        <ele>140.25</ele>
        <time>2015-11-08T10:27:56Z</time>
      </trkpt>
      <trkpt lat="48.8964" lon="0.18814">
        <ele>139.75</ele>
        <time>2015-11-08T10:27:58Z</time>
      </trkpt>
      <trkpt lat="48.89641" lon="0.18818">
        <ele>139.1</ele>
        <time>2015-11-08T10:28:00Z</time>
      </trkpt>
      <trkpt lat="48.89642" lon="0.18822">
        <ele>138.52</ele>
        <time>2015-11-08T10:28:02Z</time>
      </trkpt>
      <trkpt lat="48.89643" lon="0.18827">
        <ele>137.96</ele>
        <time>2015-11-08T10:28:04Z</time>
      </trkpt>
      <trkpt lat="48.89644" lon="0.18831">
        <ele>137.5</ele>
        <time>2015-11-08T10:28:06Z</time>
      </trkpt>
      <trkpt lat="48.89645" lon="0.18835">
        <ele>137.27</ele>
        <time>2015-11-08T10:28:08Z</time>
      </trkpt>
      <trkpt lat="48.89647" lon="0.18839">
        <ele>137.42</ele>
        <time>2015-11-08T10:28:10Z</time>
      </trkpt>
      <trkpt lat="48.89648" lon="0.18843">
        <ele>137.57</ele>
        <time>2015-11-08T10:28:12Z</time>
      </trkpt>
      <trkpt lat="48.8965" lon="0.18848">
        <ele>137.73</ele>
        <time>2015-11-08T10:28:14Z</time>
      </trkpt>
      <trkpt lat="48.89651" lon="0.18854">
        <ele>137.85</ele>
        <time>2015-11-08T10:28:16Z</time>
      </trkpt>
      <trkpt lat="48.89652" lon="0.18859">
        <ele>137.97</ele>
        <time>2015-11-08T10:28:18Z</time>
      </trkpt>
      <trkpt lat="48.89653" lon="0.18865">
        <ele>138.52</ele>
        <time>2015-11-08T10:28:20Z</time>
      </trkpt>
      <trkpt lat="48.89654" lon="0.1887">
        <ele>139.28</ele>
        <time>2015-11-08T10:28:22Z</time>
      </trkpt>
      <trkpt lat="48.89655" lon="0.18875">
        <ele>140.03</ele>
        <time>2015-11-08T10:28:24Z</time>
      </trkpt>
      <trkpt lat="48.89655" lon="0.18881">
        <ele>140.8</ele>
        <time>2015-11-08T10:28:26Z</time>
      </trkpt>
      <trkpt lat="48.89655" lon="0.18886">
        <ele>141.59</ele>
        <time>2015-11-08T10:28:28Z</time>
      </trkpt>
      <trkpt lat="48.89654" lon="0.18892">
        <ele>142.1</ele>
        <time>2015-11-08T10:28:30Z</time>
      </trkpt>
      <trkpt lat="48.89654" lon="0.18897">
        <ele>142.3</ele>
        <time>2015-11-08T10:28:32Z</time>
      </trkpt>
      <trkpt lat="48.89654" lon="0.18903">
        <ele>142.51</ele>
        <time>2015-11-08T10:28:34Z</time>
      </trkpt>
      <trkpt lat="48.89654" lon="0.18908">
        <ele>142.7</ele>
        <time>2015-11-08T10:28:36Z</time>
      </trkpt>
      <trkpt lat="48.89653" lon="0.18914">
        <ele>142.89</ele>
        <time>2015-11-08T10:28:38Z</time>
      </trkpt>
      <trkpt lat="48.89653" lon="0.18918">
        <ele>143.13</ele>
        <time>2015-11-08T10:28:40Z</time>
      </trkpt>
      <trkpt lat="48.89651" lon="0.18923">
        <ele>143.46</ele>
        <time>2015-11-08T10:28:42Z</time>
      </trkpt>
      <trkpt lat="48.8965" lon="0.18927">
        <ele>143.77</ele>
        <time>2015-11-08T10:28:44Z</time>
      </trkpt>
      <trkpt lat="48.89648" lon="0.18931">
        <ele>144.06</ele>
        <time>2015-11-08T10:28:46Z</time>
      </trkpt>
      <trkpt lat="48.89646" lon="0.18936">
        <ele>144.36</ele>
        <time>2015-11-08T10:28:48Z</time>
      </trkpt>
      <trkpt lat="48.89645" lon="0.1894">
        <ele>144.68</ele>
        <time>2015-11-08T10:28:50Z</time>
      </trkpt>
      <trkpt lat="48.89643" lon="0.18944">
        <ele>144.96</ele>
        <time>2015-11-08T10:28:52Z</time>
      </trkpt>
      <trkpt lat="48.8964" lon="0.18947">
        <ele>145.26</ele>
        <time>2015-11-08T10:28:54Z</time>
      </trkpt>
      <trkpt lat="48.89638" lon="0.1895">
        <ele>145.78</ele>
        <time>2015-11-08T10:28:56Z</time>
      </trkpt>
      <trkpt lat="48.89636" lon="0.18955">
        <ele>146.42</ele>
        <time>2015-11-08T10:28:58Z</time>
      </trkpt>
      <trkpt lat="48.89634" lon="0.18959">
        <ele>147.03</ele>
        <time>2015-11-08T10:29:00Z</time>
      </trkpt>
      <trkpt lat="48.89632" lon="0.18964">
        <ele>147.64</ele>
        <time>2015-11-08T10:29:02Z</time>
      </trkpt>
      <trkpt lat="48.89631" lon="0.18969">
        <ele>148.26</ele>
        <time>2015-11-08T10:29:04Z</time>
      </trkpt>
      <trkpt lat="48.8963" lon="0.18974">
        <ele>148.73</ele>
        <time>2015-11-08T10:29:06Z</time>
      </trkpt>
      <trkpt lat="48.89629" lon="0.18979">
        <ele>148.95</ele>
        <time>2015-11-08T10:29:08Z</time>
      </trkpt>
      <trkpt lat="48.89628" lon="0.18983">
        <ele>149.11</ele>
        <time>2015-11-08T10:29:10Z</time>
      </trkpt>
      <trkpt lat="48.89627" lon="0.18987">
        <ele>149.24</ele>
        <time>2015-11-08T10:29:12Z</time>
      </trkpt>
      <trkpt lat="48.89627" lon="0.18992">
        <ele>149.36</ele>
        <time>2015-11-08T10:29:14Z</time>
      </trkpt>
      <trkpt lat="48.89627" lon="0.18996">
        <ele>149.48</ele>
        <time>2015-11-08T10:29:16Z</time>
      </trkpt>
      <trkpt lat="48.89644" lon="0.19181">
        <ele>150.84</ele>
        <time>2015-11-08T10:30:34Z</time>
      </trkpt>
      <trkpt lat="48.89648" lon="0.19181">
        <ele>151.06</ele>
        <time>2015-11-08T10:30:35Z</time>
      </trkpt>
      <trkpt lat="48.89652" lon="0.19182">
        <ele>151.4</ele>
        <time>2015-11-08T10:30:37Z</time>
      </trkpt>
      <trkpt lat="48.89655" lon="0.19185">
        <ele>151.94</ele>
        <time>2015-11-08T10:30:39Z</time>
      </trkpt>
      <trkpt lat="48.89657" lon="0.19188">
        <ele>152.44</ele>
        <time>2015-11-08T10:30:41Z</time>
      </trkpt>
      <trkpt lat="48.8966" lon="0.19192">
        <ele>153.15</ele>
        <time>2015-11-08T10:30:44Z</time>
      </trkpt>
      <trkpt lat="48.89662" lon="0.19196">
        <ele>153.79</ele>
        <time>2015-11-08T10:30:47Z</time>
      </trkpt>
      <trkpt lat="48.89665" lon="0.192">
        <ele>154.27</ele>
        <time>2015-11-08T10:30:50Z</time>
      </trkpt>
      <trkpt lat="48.89667" lon="0.19205">
        <ele>154.75</ele>
        <time>2015-11-08T10:30:53Z</time>
      </trkpt>
      <trkpt lat="48.8967" lon="0.19209">
        <ele>154.98</ele>
        <time>2015-11-08T10:30:55Z</time>
      </trkpt>
      <trkpt lat="48.89672" lon="0.19211">
        <ele>155.18</ele>
        <time>2015-11-08T10:30:57Z</time>
      </trkpt>
      <trkpt lat="48.89674" lon="0.19215">
        <ele>155.51</ele>
        <time>2015-11-08T10:30:59Z</time>
      </trkpt>
      <trkpt lat="48.89676" lon="0.19219">
        <ele>155.96</ele>
        <time>2015-11-08T10:31:01Z</time>
      </trkpt>
      <trkpt lat="48.89679" lon="0.19222">
        <ele>156.38</ele>
        <time>2015-11-08T10:31:03Z</time>
      </trkpt>
      <trkpt lat="48.89681" lon="0.19225">
        <ele>156.7</ele>
        <time>2015-11-08T10:31:05Z</time>
      </trkpt>
      <trkpt lat="48.89683" lon="0.19228">
        <ele>157.05</ele>
        <time>2015-11-08T10:31:07Z</time>
      </trkpt>
      <trkpt lat="48.89686" lon="0.19231">
        <ele>157.43</ele>
        <time>2015-11-08T10:31:09Z</time>
      </trkpt>
      <trkpt lat="48.89689" lon="0.19234">
        <ele>157.86</ele>
        <time>2015-11-08T10:31:11Z</time>
      </trkpt>
      <trkpt lat="48.89692" lon="0.19236">
        <ele>158.34</ele>
        <time>2015-11-08T10:31:13Z</time>
      </trkpt>
      <trkpt lat="48.89695" lon="0.19236">
        <ele>158.56</ele>
        <time>2015-11-08T10:31:23Z</time>
      </trkpt>
      <trkpt lat="48.89698" lon="0.19237">
        <ele>158.96</ele>
        <time>2015-11-08T10:31:34Z</time>
      </trkpt>
      <trkpt lat="48.89698" lon="0.19244">
        <ele>159.67</ele>
        <time>2015-11-08T10:31:37Z</time>
      </trkpt>
      <trkpt lat="48.89696" lon="0.19248">
        <ele>159.99</ele>
        <time>2015-11-08T10:31:39Z</time>
      </trkpt>
      <trkpt lat="48.89694" lon="0.19253">
        <ele>160.42</ele>
        <time>2015-11-08T10:31:41Z</time>
      </trkpt>
      <trkpt lat="48.89693" lon="0.19258">
        <ele>160.94</ele>
        <time>2015-11-08T10:31:43Z</time>
      </trkpt>
      <trkpt lat="48.89692" lon="0.19262">
        <ele>161.45</ele>
        <time>2015-11-08T10:31:45Z</time>
      </trkpt>
      <trkpt lat="48.89692" lon="0.19267">
        <ele>162</ele>
        <time>2015-11-08T10:31:47Z</time>
      </trkpt>
      <trkpt lat="48.89691" lon="0.19271">
        <ele>162.42</ele>
        <time>2015-11-08T10:31:49Z</time>
      </trkpt>
      <trkpt lat="48.89691" lon="0.19276">
        <ele>162.86</ele>
        <time>2015-11-08T10:31:51Z</time>
      </trkpt>
      <trkpt lat="48.89691" lon="0.1928">
        <ele>163.59</ele>
        <time>2015-11-08T10:32:01Z</time>
      </trkpt>
      <trkpt lat="48.89691" lon="0.19285">
        <ele>164.42</ele>
        <time>2015-11-08T10:32:06Z</time>
      </trkpt>
      <trkpt lat="48.89692" lon="0.19289">
        <ele>165.41</ele>
        <time>2015-11-08T10:32:28Z</time>
      </trkpt>
      <trkpt lat="48.89693" lon="0.19293">
        <ele>166.4</ele>
        <time>2015-11-08T10:32:40Z</time>
      </trkpt>
      <trkpt lat="48.89695" lon="0.19297">
        <ele>167.47</ele>
        <time>2015-11-08T10:32:45Z</time>
      </trkpt>
      <trkpt lat="48.89695" lon="0.19301">
        <ele>168.33</ele>
        <time>2015-11-08T10:32:54Z</time>
      </trkpt>
      <trkpt lat="48.89695" lon="0.19305">
        <ele>168.97</ele>
        <time>2015-11-08T10:32:59Z</time>
      </trkpt>
      <trkpt lat="48.89694" lon="0.19309">
        <ele>169.42</ele>
        <time>2015-11-08T10:33:05Z</time>
      </trkpt>
      <trkpt lat="48.89693" lon="0.19315">
        <ele>170</ele>
        <time>2015-11-08T10:33:09Z</time>
      </trkpt>
      <trkpt lat="48.89693" lon="0.1932">
        <ele>170.78</ele>
        <time>2015-11-08T10:33:13Z</time>
      </trkpt>
      <trkpt lat="48.89694" lon="0.19325">
        <ele>171.65</ele>
        <time>2015-11-08T10:33:17Z</time>
      </trkpt>
      <trkpt lat="48.89695" lon="0.19329">
        <ele>172.49</ele>
        <time>2015-11-08T10:33:21Z</time>
      </trkpt>
      <trkpt lat="48.89696" lon="0.19334">
        <ele>173.41</ele>
        <time>2015-11-08T10:33:25Z</time>
      </trkpt>
      <trkpt lat="48.89696" lon="0.19338">
        <ele>174.12</ele>
        <time>2015-11-08T10:33:31Z</time>
      </trkpt>
      <trkpt lat="48.89697" lon="0.19343">
        <ele>174.81</ele>
        <time>2015-11-08T10:33:36Z</time>
      </trkpt>
      <trkpt lat="48.89697" lon="0.19347">
        <ele>175.41</ele>
        <time>2015-11-08T10:33:41Z</time>
      </trkpt>
      <trkpt lat="48.89696" lon="0.19351">
        <ele>175.88</ele>
        <time>2015-11-08T10:33:46Z</time>
      </trkpt>
      <trkpt lat="48.89695" lon="0.19356">
        <ele>176.39</ele>
        <time>2015-11-08T10:33:51Z</time>
      </trkpt>
      <trkpt lat="48.89694" lon="0.1936">
        <ele>176.85</ele>
        <time>2015-11-08T10:33:55Z</time>
      </trkpt>
      <trkpt lat="48.89693" lon="0.19365">
        <ele>177.36</ele>
        <time>2015-11-08T10:33:59Z</time>
      </trkpt>
      <trkpt lat="48.89691" lon="0.19368">
        <ele>177.69</ele>
        <time>2015-11-08T10:34:03Z</time>
      </trkpt>
      <trkpt lat="48.89689" lon="0.19371">
        <ele>177.85</ele>
        <time>2015-11-08T10:34:06Z</time>
      </trkpt>
      <trkpt lat="48.89687" lon="0.19373">
        <ele>178.08</ele>
        <time>2015-11-08T10:34:18Z</time>
      </trkpt>
      <trkpt lat="48.89684" lon="0.19374">
        <ele>177.98</ele>
        <time>2015-11-08T10:34:22Z</time>
      </trkpt>
      <trkpt lat="48.8968" lon="0.19376">
        <ele>178.11</ele>
        <time>2015-11-08T10:34:26Z</time>
      </trkpt>
      <trkpt lat="48.89677" lon="0.19376">
        <ele>178.02</ele>
        <time>2015-11-08T10:34:29Z</time>
      </trkpt>
      <trkpt lat="48.89674" lon="0.19378">
        <ele>178.17</ele>
        <time>2015-11-08T10:34:32Z</time>
      </trkpt>
      <trkpt lat="48.89671" lon="0.1938">
        <ele>178.52</ele>
        <time>2015-11-08T10:34:35Z</time>
      </trkpt>
      <trkpt lat="48.89668" lon="0.19381">
        <ele>178.89</ele>
        <time>2015-11-08T10:34:38Z</time>
      </trkpt>
      <trkpt lat="48.89665" lon="0.19382">
        <ele>178.93</ele>
        <time>2015-11-08T10:34:41Z</time>
      </trkpt>
      <trkpt lat="48.89661" lon="0.19383">
        <ele>179.38</ele>
        <time>2015-11-08T10:34:45Z</time>
      </trkpt>
      <trkpt lat="48.89658" lon="0.19384">
        <ele>179.97</ele>
        <time>2015-11-08T10:34:49Z</time>
      </trkpt>
      <trkpt lat="48.89656" lon="0.19387">
        <ele>181.2</ele>
        <time>2015-11-08T10:34:53Z</time>
      </trkpt>
      <trkpt lat="48.89654" lon="0.19391">
        <ele>182.52</ele>
        <time>2015-11-08T10:34:57Z</time>
      </trkpt>
      <trkpt lat="48.89652" lon="0.19393">
        <ele>183.57</ele>
        <time>2015-11-08T10:35:01Z</time>
      </trkpt>
      <trkpt lat="48.89639" lon="0.19421">
        <ele>191.86</ele>
        <time>2015-11-08T10:35:35Z</time>
      </trkpt>
      <trkpt lat="48.89635" lon="0.19423">
        <ele>191.37</ele>
        <time>2015-11-08T10:35:37Z</time>
      </trkpt>
      <trkpt lat="48.89632" lon="0.19424">
        <ele>190.95</ele>
        <time>2015-11-08T10:35:40Z</time>
      </trkpt>
      <trkpt lat="48.89629" lon="0.19426">
        <ele>190.81</ele>
        <time>2015-11-08T10:35:43Z</time>
      </trkpt>
      <trkpt lat="48.89626" lon="0.19428">
        <ele>190.54</ele>
        <time>2015-11-08T10:35:47Z</time>
      </trkpt>
      <trkpt lat="48.89623" lon="0.19431">
        <ele>190.48</ele>
        <time>2015-11-08T10:35:51Z</time>
      </trkpt>
      <trkpt lat="48.89622" lon="0.19435">
        <ele>190.85</ele>
        <time>2015-11-08T10:35:55Z</time>
      </trkpt>
      <trkpt lat="48.89621" lon="0.1944">
        <ele>191.45</ele>
        <time>2015-11-08T10:36:00Z</time>
      </trkpt>
      <trkpt lat="48.89621" lon="0.19444">
        <ele>192.09</ele>
        <time>2015-11-08T10:36:06Z</time>
      </trkpt>
      <trkpt lat="48.89621" lon="0.19449">
        <ele>193.04</ele>
        <time>2015-11-08T10:36:12Z</time>
      </trkpt>
      <trkpt lat="48.89622" lon="0.19454">
        <ele>194.12</ele>
        <time>2015-11-08T10:36:17Z</time>
      </trkpt>
      <trkpt lat="48.89622" lon="0.19458">
        <ele>195.09</ele>
        <time>2015-11-08T10:36:21Z</time>
      </trkpt>
      <trkpt lat="48.89622" lon="0.19462">
        <ele>195.84</ele>
        <time>2015-11-08T10:36:25Z</time>
      </trkpt>
      <trkpt lat="48.89622" lon="0.19467">
        <ele>196.78</ele>
        <time>2015-11-08T10:36:37Z</time>
      </trkpt>
      <trkpt lat="48.89623" lon="0.19473">
        <ele>198.14</ele>
        <time>2015-11-08T10:36:40Z</time>
      </trkpt>
      <trkpt lat="48.89623" lon="0.19478">
        <ele>199.28</ele>
        <time>2015-11-08T10:36:42Z</time>
      </trkpt>
      <trkpt lat="48.89624" lon="0.19483">
        <ele>200.71</ele>
        <time>2015-11-08T10:36:44Z</time>
      </trkpt>
      <trkpt lat="48.89624" lon="0.19488">
        <ele>202.09</ele>
        <time>2015-11-08T10:36:46Z</time>
      </trkpt>
      <trkpt lat="48.89625" lon="0.19493">
        <ele>203.43</ele>
        <time>2015-11-08T10:36:48Z</time>
      </trkpt>
      <trkpt lat="48.89626" lon="0.19498">
        <ele>204.81</ele>
        <time>2015-11-08T10:36:50Z</time>
      </trkpt>
      <trkpt lat="48.89627" lon="0.19503">
        <ele>206.08</ele>
        <time>2015-11-08T10:36:52Z</time>
      </trkpt>
      <trkpt lat="48.89628" lon="0.19509">
        <ele>207.26</ele>
        <time>2015-11-08T10:36:54Z</time>
      </trkpt>
      <trkpt lat="48.89628" lon="0.19514">
        <ele>208.42</ele>
        <time>2015-11-08T10:36:56Z</time>
      </trkpt>
      <trkpt lat="48.89628" lon="0.1952">
        <ele>209.53</ele>
        <time>2015-11-08T10:36:58Z</time>
      </trkpt>
      <trkpt lat="48.8963" lon="0.19524">
        <ele>210.63</ele>
        <time>2015-11-08T10:37:00Z</time>
      </trkpt>
      <trkpt lat="48.89631" lon="0.19529">
        <ele>211.62</ele>
        <time>2015-11-08T10:37:02Z</time>
      </trkpt>
      <trkpt lat="48.89631" lon="0.19535">
        <ele>212.04</ele>
        <time>2015-11-08T10:37:04Z</time>
      </trkpt>
      <trkpt lat="48.89631" lon="0.19541">
        <ele>212.33</ele>
        <time>2015-11-08T10:37:06Z</time>
      </trkpt>
      <trkpt lat="48.89629" lon="0.19547">
        <ele>212.44</ele>
        <time>2015-11-08T10:37:08Z</time>
      </trkpt>
      <trkpt lat="48.89628" lon="0.19553">
        <ele>212.52</ele>
        <time>2015-11-08T10:37:10Z</time>
      </trkpt>
      <trkpt lat="48.89627" lon="0.19559">
        <ele>212.55</ele>
        <time>2015-11-08T10:37:12Z</time>
      </trkpt>
      <trkpt lat="48.89625" lon="0.19564">
        <ele>212.57</ele>
        <time>2015-11-08T10:37:14Z</time>
      </trkpt>
      <trkpt lat="48.89624" lon="0.19569">
        <ele>212.74</ele>
        <time>2015-11-08T10:37:16Z</time>
      </trkpt>
      <trkpt lat="48.89623" lon="0.19575">
        <ele>212.97</ele>
        <time>2015-11-08T10:37:18Z</time>
      </trkpt>
      <trkpt lat="48.89622" lon="0.1958">
        <ele>213.29</ele>
        <time>2015-11-08T10:37:20Z</time>
      </trkpt>
      <trkpt lat="48.89621" lon="0.19586">
        <ele>213.62</ele>
        <time>2015-11-08T10:37:22Z</time>
      </trkpt>
      <trkpt lat="48.8962" lon="0.19592">
        <ele>213.91</ele>
        <time>2015-11-08T10:37:24Z</time>
      </trkpt>
      <trkpt lat="48.8962" lon="0.19597">
        <ele>214.24</ele>
        <time>2015-11-08T10:37:26Z</time>
      </trkpt>
      <trkpt lat="48.89619" lon="0.19602">
        <ele>214.5</ele>
        <time>2015-11-08T10:37:28Z</time>
      </trkpt>
      <trkpt lat="48.89618" lon="0.19607">
        <ele>214.77</ele>
        <time>2015-11-08T10:37:30Z</time>
      </trkpt>
      <trkpt lat="48.89618" lon="0.19613">
        <ele>215.1</ele>
        <time>2015-11-08T10:37:32Z</time>
      </trkpt>
      <trkpt lat="48.89618" lon="0.19618">
        <ele>215.49</ele>
        <time>2015-11-08T10:37:34Z</time>
      </trkpt>
      <trkpt lat="48.89618" lon="0.19624">
        <ele>215.86</ele>
        <time>2015-11-08T10:37:36Z</time>
      </trkpt>
      <trkpt lat="48.89616" lon="0.19629">
        <ele>216.05</ele>
        <time>2015-11-08T10:37:38Z</time>
      </trkpt>
      <trkpt lat="48.89614" lon="0.19635">
        <ele>216.2</ele>
        <time>2015-11-08T10:37:40Z</time>
      </trkpt>
      <trkpt lat="48.89613" lon="0.1964">
        <ele>216.32</ele>
        <time>2015-11-08T10:37:42Z</time>
      </trkpt>
      <trkpt lat="48.89612" lon="0.19646">
        <ele>216.32</ele>
        <time>2015-11-08T10:37:44Z</time>
      </trkpt>
      <trkpt lat="48.8961" lon="0.19651">
        <ele>216.3</ele>
        <time>2015-11-08T10:37:46Z</time>
      </trkpt>
      <trkpt lat="48.89608" lon="0.19656">
        <ele>216.35</ele>
        <time>2015-11-08T10:37:48Z</time>
      </trkpt>
      <trkpt lat="48.89607" lon="0.1966">
        <ele>216.49</ele>
        <time>2015-11-08T10:37:50Z</time>
      </trkpt>
      <trkpt lat="48.89608" lon="0.19664">
        <ele>216.74</ele>
        <time>2015-11-08T10:41:53Z</time>
      </trkpt>
      <trkpt lat="48.89606" lon="0.19669">
        <ele>216.98</ele>
        <time>2015-11-08T10:41:56Z</time>
      </trkpt>
      <trkpt lat="48.89605" lon="0.19673">
        <ele>217.24</ele>
        <time>2015-11-08T10:41:58Z</time>
      </trkpt>
      <trkpt lat="48.89603" lon="0.19678">
        <ele>217.54</ele>
        <time>2015-11-08T10:42:00Z</time>
      </trkpt>
      <trkpt lat="48.89601" lon="0.19684">
        <ele>217.89</ele>
        <time>2015-11-08T10:42:02Z</time>
      </trkpt>
      <trkpt lat="48.89599" lon="0.1969">
        <ele>218.25</ele>
        <time>2015-11-08T10:42:04Z</time>
      </trkpt>
      <trkpt lat="48.89597" lon="0.19696">
        <ele>218.62</ele>
        <time>2015-11-08T10:42:06Z</time>
      </trkpt>
      <trkpt lat="48.89594" lon="0.19703">
        <ele>219</ele>
        <time>2015-11-08T10:42:08Z</time>
      </trkpt>
      <trkpt lat="48.89591" lon="0.19709">
        <ele>219.37</ele>
        <time>2015-11-08T10:42:10Z</time>
      </trkpt>
      <trkpt lat="48.89588" lon="0.19716">
        <ele>219.73</ele>
        <time>2015-11-08T10:42:12Z</time>
      </trkpt>
      <trkpt lat="48.89586" lon="0.19723">
        <ele>220.12</ele>
        <time>2015-11-08T10:42:14Z</time>
      </trkpt>
      <trkpt lat="48.89583" lon="0.1973">
        <ele>220.8</ele>
        <time>2015-11-08T10:42:16Z</time>
      </trkpt>
      <trkpt lat="48.89582" lon="0.19733">
        <ele>221.07</ele>
        <time>2015-11-08T10:42:17Z</time>
      </trkpt>
      <trkpt lat="48.89579" lon="0.1974">
        <ele>221.59</ele>
        <time>2015-11-08T10:42:19Z</time>
      </trkpt>
      <trkpt lat="48.89576" lon="0.19747">
        <ele>222.09</ele>
        <time>2015-11-08T10:42:21Z</time>
      </trkpt>
      <trkpt lat="48.89574" lon="0.1975">
        <ele>222.33</ele>
        <time>2015-11-08T10:42:22Z</time>
      </trkpt>
      <trkpt lat="48.89571" lon="0.19757">
        <ele>222.18</ele>
        <time>2015-11-08T10:42:24Z</time>
      </trkpt>
      <trkpt lat="48.89569" lon="0.1976">
        <ele>222.17</ele>
        <time>2015-11-08T10:42:25Z</time>
      </trkpt>
      <trkpt lat="48.89568" lon="0.19764">
        <ele>222.21</ele>
        <time>2015-11-08T10:42:26Z</time>
      </trkpt>
      <trkpt lat="48.89566" lon="0.19767">
        <ele>222.29</ele>
        <time>2015-11-08T10:42:27Z</time>
      </trkpt>
      <trkpt lat="48.89564" lon="0.19771">
        <ele>222.42</ele>
        <time>2015-11-08T10:42:28Z</time>
      </trkpt>
      <trkpt lat="48.89562" lon="0.19774">
        <ele>222.58</ele>
        <time>2015-11-08T10:42:29Z</time>
      </trkpt>
      <trkpt lat="48.89561" lon="0.19777">
        <ele>222.79</ele>
        <time>2015-11-08T10:42:30Z</time>
      </trkpt>
      <trkpt lat="48.89559" lon="0.19781">
        <ele>222.99</ele>
        <time>2015-11-08T10:42:31Z</time>
      </trkpt>
      <trkpt lat="48.89556" lon="0.19787">
        <ele>223.32</ele>
        <time>2015-11-08T10:42:33Z</time>
      </trkpt>
      <trkpt lat="48.89554" lon="0.1979">
        <ele>223.28</ele>
        <time>2015-11-08T10:42:34Z</time>
      </trkpt>
      <trkpt lat="48.89551" lon="0.19797">
        <ele>223.3</ele>
        <time>2015-11-08T10:42:36Z</time>
      </trkpt>
      <trkpt lat="48.8955" lon="0.19801">
        <ele>223.35</ele>
        <time>2015-11-08T10:42:37Z</time>
      </trkpt>
      <trkpt lat="48.89548" lon="0.19805">
        <ele>223.42</ele>
        <time>2015-11-08T10:42:38Z</time>
      </trkpt>
      <trkpt lat="48.89547" lon="0.19808">
        <ele>223.44</ele>
        <time>2015-11-08T10:42:39Z</time>
      </trkpt>
      <trkpt lat="48.89546" lon="0.19812">
        <ele>223.44</ele>
        <time>2015-11-08T10:42:40Z</time>
      </trkpt>
      <trkpt lat="48.89544" lon="0.1982">
        <ele>223.49</ele>
        <time>2015-11-08T10:42:42Z</time>
      </trkpt>
      <trkpt lat="48.89544" lon="0.19824">
        <ele>223.59</ele>
        <time>2015-11-08T10:42:44Z</time>
      </trkpt>
      <trkpt lat="48.89546" lon="0.19828">
        <ele>223.84</ele>
        <time>2015-11-08T10:43:21Z</time>
      </trkpt>
      <trkpt lat="48.89549" lon="0.19831">
        <ele>224.2</ele>
        <time>2015-11-08T10:43:24Z</time>
      </trkpt>
      <trkpt lat="48.89552" lon="0.19832">
        <ele>224.57</ele>
        <time>2015-11-08T10:43:26Z</time>
      </trkpt>
      <trkpt lat="48.89556" lon="0.19834">
        <ele>225</ele>
        <time>2015-11-08T10:43:28Z</time>
      </trkpt>
      <trkpt lat="48.89559" lon="0.19837">
        <ele>224.86</ele>
        <time>2015-11-08T10:43:30Z</time>
      </trkpt>
      <trkpt lat="48.89563" lon="0.1984">
        <ele>224.68</ele>
        <time>2015-11-08T10:43:32Z</time>
      </trkpt>
      <trkpt lat="48.89567" lon="0.19843">
        <ele>224.42</ele>
        <time>2015-11-08T10:43:34Z</time>
      </trkpt>
      <trkpt lat="48.8957" lon="0.19846">
        <ele>224.26</ele>
        <time>2015-11-08T10:43:35Z</time>
      </trkpt>
      <trkpt lat="48.89574" lon="0.19851">
        <ele>223.92</ele>
        <time>2015-11-08T10:43:37Z</time>
      </trkpt>
      <trkpt lat="48.89578" lon="0.19855">
        <ele>223.56</ele>
        <time>2015-11-08T10:43:39Z</time>
      </trkpt>
      <trkpt lat="48.89581" lon="0.1986">
        <ele>223.18</ele>
        <time>2015-11-08T10:43:41Z</time>
      </trkpt>
      <trkpt lat="48.89585" lon="0.19865">
        <ele>224.29</ele>
        <time>2015-11-08T10:43:43Z</time>
      </trkpt>
      <trkpt lat="48.8959" lon="0.1987">
        <ele>225.9</ele>
        <time>2015-11-08T10:43:45Z</time>
      </trkpt>
      <trkpt lat="48.89592" lon="0.19873">
        <ele>226.47</ele>
        <time>2015-11-08T10:43:46Z</time>
      </trkpt>
      <trkpt lat="48.89594" lon="0.19877">
        <ele>226.86</ele>
        <time>2015-11-08T10:43:47Z</time>
      </trkpt>
      <trkpt lat="48.89595" lon="0.19881">
        <ele>227.02</ele>
        <time>2015-11-08T10:43:48Z</time>
      </trkpt>
      <trkpt lat="48.89597" lon="0.19886">
        <ele>226.94</ele>
        <time>2015-11-08T10:43:49Z</time>
      </trkpt>
      <trkpt lat="48.89599" lon="0.1989">
        <ele>226.37</ele>
        <time>2015-11-08T10:43:50Z</time>
      </trkpt>
      <trkpt lat="48.89601" lon="0.19895">
        <ele>225.06</ele>
        <time>2015-11-08T10:43:51Z</time>
      </trkpt>
      <trkpt lat="48.89603" lon="0.19899">
        <ele>223.69</ele>
        <time>2015-11-08T10:43:52Z</time>
      </trkpt>
      <trkpt lat="48.89605" lon="0.19904">
        <ele>222.28</ele>
        <time>2015-11-08T10:43:53Z</time>
      </trkpt>
      <trkpt lat="48.89606" lon="0.19909">
        <ele>220.86</ele>
        <time>2015-11-08T10:43:54Z</time>
      </trkpt>
      <trkpt lat="48.89607" lon="0.19914">
        <ele>219.62</ele>
        <time>2015-11-08T10:43:55Z</time>
      </trkpt>
      <trkpt lat="48.89607" lon="0.19919">
        <ele>218.71</ele>
        <time>2015-11-08T10:43:56Z</time>
      </trkpt>
      <trkpt lat="48.89608" lon="0.19924">
        <ele>218.22</ele>
        <time>2015-11-08T10:43:57Z</time>
      </trkpt>
      <trkpt lat="48.89608" lon="0.19928">
        <ele>217.74</ele>
        <time>2015-11-08T10:43:58Z</time>
      </trkpt>
      <trkpt lat="48.89608" lon="0.19933">
        <ele>217.27</ele>
        <time>2015-11-08T10:43:59Z</time>
      </trkpt>
      <trkpt lat="48.89609" lon="0.19937">
        <ele>216.8</ele>
        <time>2015-11-08T10:44:00Z</time>
      </trkpt>
      <trkpt lat="48.8961" lon="0.19941">
        <ele>216.4</ele>
        <time>2015-11-08T10:44:01Z</time>
      </trkpt>
      <trkpt lat="48.8961" lon="0.19946">
        <ele>216.09</ele>
        <time>2015-11-08T10:44:02Z</time>
      </trkpt>
      <trkpt lat="48.8961" lon="0.1995">
        <ele>215.92</ele>
        <time>2015-11-08T10:44:03Z</time>
      </trkpt>
      <trkpt lat="48.89611" lon="0.19954">
        <ele>215.66</ele>
        <time>2015-11-08T10:44:04Z</time>
      </trkpt>
      <trkpt lat="48.89613" lon="0.19958">
        <ele>215.57</ele>
        <time>2015-11-08T10:44:05Z</time>
      </trkpt>
      <trkpt lat="48.89616" lon="0.19961">
        <ele>215.51</ele>
        <time>2015-11-08T10:44:06Z</time>
      </trkpt>
      <trkpt lat="48.89618" lon="0.19965">
        <ele>215.45</ele>
        <time>2015-11-08T10:44:07Z</time>
      </trkpt>
      <trkpt lat="48.89619" lon="0.19968">
        <ele>215.4</ele>
        <time>2015-11-08T10:44:08Z</time>
      </trkpt>
      <trkpt lat="48.89621" lon="0.19972">
        <ele>215.36</ele>
        <time>2015-11-08T10:44:09Z</time>
      </trkpt>
      <trkpt lat="48.89623" lon="0.19976">
        <ele>215.24</ele>
        <time>2015-11-08T10:44:10Z</time>
      </trkpt>
      <trkpt lat="48.89625" lon="0.1998">
        <ele>215.08</ele>
        <time>2015-11-08T10:44:11Z</time>
      </trkpt>
      <trkpt lat="48.89627" lon="0.19984">
        <ele>214.9</ele>
        <time>2015-11-08T10:44:12Z</time>
      </trkpt>
      <trkpt lat="48.89628" lon="0.19988">
        <ele>214.69</ele>
        <time>2015-11-08T10:44:13Z</time>
      </trkpt>
      <trkpt lat="48.8963" lon="0.19992">
        <ele>214.48</ele>
        <time>2015-11-08T10:44:14Z</time>
      </trkpt>
      <trkpt lat="48.89632" lon="0.19996">
        <ele>214.25</ele>
        <time>2015-11-08T10:44:15Z</time>
      </trkpt>
      <trkpt lat="48.89634" lon="0.2">
        <ele>213.97</ele>
        <time>2015-11-08T10:44:16Z</time>
      </trkpt>
      <trkpt lat="48.89636" lon="0.20004">
        <ele>213.32</ele>
        <time>2015-11-08T10:44:17Z</time>
      </trkpt>
      <trkpt lat="48.89638" lon="0.20008">
        <ele>212.66</ele>
        <time>2015-11-08T10:44:18Z</time>
      </trkpt>
      <trkpt lat="48.8964" lon="0.20011">
        <ele>211.85</ele>
        <time>2015-11-08T10:44:19Z</time>
      </trkpt>
      <trkpt lat="48.89643" lon="0.20014">
        <ele>211.03</ele>
        <time>2015-11-08T10:44:20Z</time>
      </trkpt>
      <trkpt lat="48.89644" lon="0.20018">
        <ele>210.29</ele>
        <time>2015-11-08T10:44:21Z</time>
      </trkpt>
      <trkpt lat="48.89646" lon="0.20022">
        <ele>209.65</ele>
        <time>2015-11-08T10:44:22Z</time>
      </trkpt>
      <trkpt lat="48.89647" lon="0.20025">
        <ele>209.07</ele>
        <time>2015-11-08T10:44:23Z</time>
      </trkpt>
      <trkpt lat="48.89649" lon="0.20028">
        <ele>208.61</ele>
        <time>2015-11-08T10:44:24Z</time>
      </trkpt>
      <trkpt lat="48.89651" lon="0.20032">
        <ele>208.39</ele>
        <time>2015-11-08T10:44:25Z</time>
      </trkpt>
      <trkpt lat="48.89654" lon="0.20035">
        <ele>208.22</ele>
        <time>2015-11-08T10:44:26Z</time>
      </trkpt>
      <trkpt lat="48.89657" lon="0.20038">
        <ele>208.09</ele>
        <time>2015-11-08T10:44:27Z</time>
      </trkpt>
      <trkpt lat="48.8966" lon="0.20041">
        <ele>208.01</ele>
        <time>2015-11-08T10:44:28Z</time>
      </trkpt>
      <trkpt lat="48.89662" lon="0.20044">
        <ele>207.97</ele>
        <time>2015-11-08T10:44:29Z</time>
      </trkpt>
      <trkpt lat="48.89665" lon="0.20048">
        <ele>207.97</ele>
        <time>2015-11-08T10:44:30Z</time>
      </trkpt>
      <trkpt lat="48.89667" lon="0.20051">
        <ele>208.02</ele>
        <time>2015-11-08T10:44:31Z</time>
      </trkpt>
      <trkpt lat="48.89669" lon="0.20054">
        <ele>208.35</ele>
        <time>2015-11-08T10:44:32Z</time>
      </trkpt>
      <trkpt lat="48.89671" lon="0.20057">
        <ele>208.69</ele>
        <time>2015-11-08T10:44:33Z</time>
      </trkpt>
      <trkpt lat="48.89674" lon="0.20062">
        <ele>209.16</ele>
        <time>2015-11-08T10:44:35Z</time>
      </trkpt>
      <trkpt lat="48.89677" lon="0.20068">
        <ele>209.72</ele>
        <time>2015-11-08T10:44:37Z</time>
      </trkpt>
      <trkpt lat="48.89681" lon="0.20073">
        <ele>210.7</ele>
        <time>2015-11-08T10:44:39Z</time>
      </trkpt>
      <trkpt lat="48.89685" lon="0.20077">
        <ele>211.88</ele>
        <time>2015-11-08T10:44:41Z</time>
      </trkpt>
      <trkpt lat="48.89689" lon="0.20081">
        <ele>213.05</ele>
        <time>2015-11-08T10:44:43Z</time>
      </trkpt>
      <trkpt lat="48.89692" lon="0.20085">
        <ele>214.22</ele>
        <time>2015-11-08T10:44:45Z</time>
      </trkpt>
      <trkpt lat="48.89697" lon="0.20089">
        <ele>214.44</ele>
        <time>2015-11-08T10:44:47Z</time>
      </trkpt>
      <trkpt lat="48.89699" lon="0.20091">
        <ele>214.02</ele>
        <time>2015-11-08T10:44:48Z</time>
      </trkpt>
      <trkpt lat="48.89702" lon="0.20094">
        <ele>213.71</ele>
        <time>2015-11-08T10:44:49Z</time>
      </trkpt>
      <trkpt lat="48.89704" lon="0.20096">
        <ele>213.57</ele>
        <time>2015-11-08T10:44:50Z</time>
      </trkpt>
      <trkpt lat="48.89707" lon="0.20099">
        <ele>213.57</ele>
        <time>2015-11-08T10:44:51Z</time>
      </trkpt>
      <trkpt lat="48.89709" lon="0.20102">
        <ele>213.67</ele>
        <time>2015-11-08T10:44:52Z</time>
      </trkpt>
      <trkpt lat="48.89713" lon="0.20106">
        <ele>214.06</ele>
        <time>2015-11-08T10:44:54Z</time>
      </trkpt>
      <trkpt lat="48.89717" lon="0.20111">
        <ele>214.71</ele>
        <time>2015-11-08T10:44:56Z</time>
      </trkpt>
      <trkpt lat="48.89721" lon="0.20115">
        <ele>214.82</ele>
        <time>2015-11-08T10:44:58Z</time>
      </trkpt>
      <trkpt lat="48.89723" lon="0.20117">
        <ele>214.77</ele>
        <time>2015-11-08T10:44:59Z</time>
      </trkpt>
      <trkpt lat="48.89726" lon="0.20119">
        <ele>214.63</ele>
        <time>2015-11-08T10:45:00Z</time>
      </trkpt>
      <trkpt lat="48.89728" lon="0.20121">
        <ele>214.5</ele>
        <time>2015-11-08T10:45:01Z</time>
      </trkpt>
      <trkpt lat="48.89732" lon="0.20126">
        <ele>214.29</ele>
        <time>2015-11-08T10:45:03Z</time>
      </trkpt>
      <trkpt lat="48.89737" lon="0.20131">
        <ele>214.14</ele>
        <time>2015-11-08T10:45:05Z</time>
      </trkpt>
      <trkpt lat="48.89784" lon="0.20145">
        <ele>203.74</ele>
        <time>2015-11-08T10:45:36Z</time>
      </trkpt>
      <trkpt lat="48.89785" lon="0.20148">
        <ele>204.03</ele>
        <time>2015-11-08T10:45:37Z</time>
      </trkpt>
      <trkpt lat="48.89789" lon="0.20153">
        <ele>204.31</ele>
        <time>2015-11-08T10:45:39Z</time>
      </trkpt>
      <trkpt lat="48.89792" lon="0.20157">
        <ele>204.67</ele>
        <time>2015-11-08T10:45:41Z</time>
      </trkpt>
      <trkpt lat="48.89796" lon="0.2016">
        <ele>205.03</ele>
        <time>2015-11-08T10:45:43Z</time>
      </trkpt>
      <trkpt lat="48.89801" lon="0.20164">
        <ele>205.58</ele>
        <time>2015-11-08T10:45:45Z</time>
      </trkpt>
      <trkpt lat="48.89805" lon="0.20168">
        <ele>206.3</ele>
        <time>2015-11-08T10:45:47Z</time>
      </trkpt>
      <trkpt lat="48.89809" lon="0.20171">
        <ele>206.78</ele>
        <time>2015-11-08T10:45:49Z</time>
      </trkpt>
      <trkpt lat="48.89814" lon="0.20175">
        <ele>206.93</ele>
        <time>2015-11-08T10:45:51Z</time>
      </trkpt>
      <trkpt lat="48.89818" lon="0.20179">
        <ele>206.95</ele>
        <time>2015-11-08T10:45:53Z</time>
      </trkpt>
      <trkpt lat="48.89822" lon="0.20184">
        <ele>206.67</ele>
        <time>2015-11-08T10:45:55Z</time>
      </trkpt>
      <trkpt lat="48.89826" lon="0.20189">
        <ele>206.04</ele>
        <time>2015-11-08T10:45:57Z</time>
      </trkpt>
      <trkpt lat="48.8983" lon="0.20193">
        <ele>205.26</ele>
        <time>2015-11-08T10:45:59Z</time>
      </trkpt>
      <trkpt lat="48.89833" lon="0.20197">
        <ele>204.45</ele>
        <time>2015-11-08T10:46:01Z</time>
      </trkpt>
      <trkpt lat="48.89837" lon="0.202">
        <ele>205.4</ele>
        <time>2015-11-08T10:46:03Z</time>
      </trkpt>
      <trkpt lat="48.89842" lon="0.20205">
        <ele>206.17</ele>
        <time>2015-11-08T10:46:05Z</time>
      </trkpt>
      <trkpt lat="48.89845" lon="0.20206">
        <ele>206.37</ele>
        <time>2015-11-08T10:46:06Z</time>
      </trkpt>
      <trkpt lat="48.89847" lon="0.20208">
        <ele>206.5</ele>
        <time>2015-11-08T10:46:07Z</time>
      </trkpt>
      <trkpt lat="48.8985" lon="0.2021">
        <ele>206.52</ele>
        <time>2015-11-08T10:46:08Z</time>
      </trkpt>
      <trkpt lat="48.89854" lon="0.20214">
        <ele>206.31</ele>
        <time>2015-11-08T10:46:10Z</time>
      </trkpt>
      <trkpt lat="48.89857" lon="0.20217">
        <ele>205.94</ele>
        <time>2015-11-08T10:46:12Z</time>
      </trkpt>
      <trkpt lat="48.8986" lon="0.20219">
        <ele>205.44</ele>
        <time>2015-11-08T10:46:15Z</time>
      </trkpt>
      <trkpt lat="48.89864" lon="0.2022">
        <ele>205.99</ele>
        <time>2015-11-08T10:46:17Z</time>
      </trkpt>
      <trkpt lat="48.89867" lon="0.20222">
        <ele>206.88</ele>
        <time>2015-11-08T10:46:19Z</time>
      </trkpt>
      <trkpt lat="48.8987" lon="0.20225">
        <ele>208.05</ele>
        <time>2015-11-08T10:46:21Z</time>
      </trkpt>
      <trkpt lat="48.89874" lon="0.20227">
        <ele>209.37</ele>
        <time>2015-11-08T10:46:23Z</time>
      </trkpt>
      <trkpt lat="48.89877" lon="0.20231">
        <ele>210.71</ele>
        <time>2015-11-08T10:46:25Z</time>
      </trkpt>
      <trkpt lat="48.89881" lon="0.20233">
        <ele>212.02</ele>
        <time>2015-11-08T10:46:27Z</time>
      </trkpt>
      <trkpt lat="48.89885" lon="0.20236">
        <ele>213.27</ele>
        <time>2015-11-08T10:46:29Z</time>
      </trkpt>
      <trkpt lat="48.89889" lon="0.2024">
        <ele>214.53</ele>
        <time>2015-11-08T10:46:31Z</time>
      </trkpt>
      <trkpt lat="48.89892" lon="0.20243">
        <ele>215.48</ele>
        <time>2015-11-08T10:46:33Z</time>
      </trkpt>
      <trkpt lat="48.89896" lon="0.20246">
        <ele>216.31</ele>
        <time>2015-11-08T10:46:35Z</time>
      </trkpt>
      <trkpt lat="48.89899" lon="0.20249">
        <ele>217.12</ele>
        <time>2015-11-08T10:46:37Z</time>
      </trkpt>
      <trkpt lat="48.89902" lon="0.20251">
        <ele>217.92</ele>
        <time>2015-11-08T10:46:39Z</time>
      </trkpt>
      <trkpt lat="48.89905" lon="0.20254">
        <ele>218.59</ele>
        <time>2015-11-08T10:46:41Z</time>
      </trkpt>
      <trkpt lat="48.89909" lon="0.20258">
        <ele>219.51</ele>
        <time>2015-11-08T10:46:43Z</time>
      </trkpt>
      <trkpt lat="48.89914" lon="0.2026">
        <ele>220.77</ele>
        <time>2015-11-08T10:46:45Z</time>
      </trkpt>
      <trkpt lat="48.89917" lon="0.20262">
        <ele>221.4</ele>
        <time>2015-11-08T10:46:46Z</time>
      </trkpt>
      <trkpt lat="48.89921" lon="0.20266">
        <ele>221.5</ele>
        <time>2015-11-08T10:46:48Z</time>
      </trkpt>
      <trkpt lat="48.89925" lon="0.20271">
        <ele>221.53</ele>
        <time>2015-11-08T10:46:50Z</time>
      </trkpt>
      <trkpt lat="48.89928" lon="0.20275">
        <ele>221.55</ele>
        <time>2015-11-08T10:46:52Z</time>
      </trkpt>
      <trkpt lat="48.89931" lon="0.20279">
        <ele>221.56</ele>
        <time>2015-11-08T10:46:54Z</time>
      </trkpt>
      <trkpt lat="48.89935" lon="0.20281">
        <ele>221.53</ele>
        <time>2015-11-08T10:46:56Z</time>
      </trkpt>
      <trkpt lat="48.8994" lon="0.20283">
        <ele>221.49</ele>
        <time>2015-11-08T10:46:58Z</time>
      </trkpt>
      <trkpt lat="48.89945" lon="0.20285">
        <ele>221.54</ele>
        <time>2015-11-08T10:47:00Z</time>
      </trkpt>
      <trkpt lat="48.89948" lon="0.20286">
        <ele>221.8</ele>
        <time>2015-11-08T10:47:01Z</time>
      </trkpt>
      <trkpt lat="48.8995" lon="0.20288">
        <ele>222.14</ele>
        <time>2015-11-08T10:47:02Z</time>
      </trkpt>
      <trkpt lat="48.89953" lon="0.2029">
        <ele>222.46</ele>
        <time>2015-11-08T10:47:03Z</time>
      </trkpt>
      <trkpt lat="48.89955" lon="0.20292">
        <ele>222.79</ele>
        <time>2015-11-08T10:47:04Z</time>
      </trkpt>
      <trkpt lat="48.89958" lon="0.20293">
        <ele>223.06</ele>
        <time>2015-11-08T10:47:05Z</time>
      </trkpt>
      <trkpt lat="48.8996" lon="0.20294">
        <ele>223.31</ele>
        <time>2015-11-08T10:47:06Z</time>
      </trkpt>
      <trkpt lat="48.89966" lon="0.20296">
        <ele>223.84</ele>
        <time>2015-11-08T10:47:08Z</time>
      </trkpt>
      <trkpt lat="48.89969" lon="0.20297">
        <ele>224.15</ele>
        <time>2015-11-08T10:47:09Z</time>
      </trkpt>
      <trkpt lat="48.89971" lon="0.20299">
        <ele>224.44</ele>
        <time>2015-11-08T10:47:10Z</time>
      </trkpt>
      <trkpt lat="48.89974" lon="0.203">
        <ele>224.33</ele>
        <time>2015-11-08T10:47:11Z</time>
      </trkpt>
      <trkpt lat="48.89977" lon="0.20301">
        <ele>224.05</ele>
        <time>2015-11-08T10:47:12Z</time>
      </trkpt>
      <trkpt lat="48.89982" lon="0.20304">
        <ele>223.47</ele>
        <time>2015-11-08T10:47:14Z</time>
      </trkpt>
      <trkpt lat="48.89985" lon="0.20305">
        <ele>223.16</ele>
        <time>2015-11-08T10:47:15Z</time>
      </trkpt>
      <trkpt lat="48.8999" lon="0.20307">
        <ele>222.57</ele>
        <time>2015-11-08T10:47:17Z</time>
      </trkpt>
      <trkpt lat="48.89995" lon="0.20309">
        <ele>221.92</ele>
        <time>2015-11-08T10:47:19Z</time>
      </trkpt>
      <trkpt lat="48.9" lon="0.2031">
        <ele>221.18</ele>
        <time>2015-11-08T10:47:21Z</time>
      </trkpt>
      <trkpt lat="48.90003" lon="0.20312">
        <ele>220.7</ele>
        <time>2015-11-08T10:47:22Z</time>
      </trkpt>
      <trkpt lat="48.90005" lon="0.20313">
        <ele>220.23</ele>
        <time>2015-11-08T10:47:23Z</time>
      </trkpt>
      <trkpt lat="48.90011" lon="0.20315">
        <ele>219.31</ele>
        <time>2015-11-08T10:47:25Z</time>
      </trkpt>
      <trkpt lat="48.90014" lon="0.20318">
        <ele>218.61</ele>
        <time>2015-11-08T10:47:27Z</time>
      </trkpt>
      <trkpt lat="48.90018" lon="0.20319">
        <ele>217.86</ele>
        <time>2015-11-08T10:47:29Z</time>
      </trkpt>
      <trkpt lat="48.90022" lon="0.2032">
        <ele>217.14</ele>
        <time>2015-11-08T10:47:31Z</time>
      </trkpt>
      <trkpt lat="48.90025" lon="0.20321">
        <ele>216.47</ele>
        <time>2015-11-08T10:47:33Z</time>
      </trkpt>
      <trkpt lat="48.90028" lon="0.20323">
        <ele>215.99</ele>
        <time>2015-11-08T10:47:35Z</time>
      </trkpt>
      <trkpt lat="48.90031" lon="0.20325">
        <ele>215.96</ele>
        <time>2015-11-08T10:47:38Z</time>
      </trkpt>
      <trkpt lat="48.90035" lon="0.20323">
        <ele>215.9</ele>
        <time>2015-11-08T10:47:40Z</time>
      </trkpt>
      <trkpt lat="48.90039" lon="0.20323">
        <ele>215.86</ele>
        <time>2015-11-08T10:47:45Z</time>
      </trkpt>
      <trkpt lat="48.90042" lon="0.20324">
        <ele>215.83</ele>
        <time>2015-11-08T10:47:48Z</time>
      </trkpt>
      <trkpt lat="48.90044" lon="0.20326">
        <ele>215.85</ele>
        <time>2015-11-08T10:47:52Z</time>
      </trkpt>
      <trkpt lat="48.90046" lon="0.20332">
        <ele>215.96</ele>
        <time>2015-11-08T10:47:55Z</time>
      </trkpt>
      <trkpt lat="48.90048" lon="0.20336">
        <ele>215.61</ele>
        <time>2015-11-08T10:47:57Z</time>
      </trkpt>
      <trkpt lat="48.9005" lon="0.2034">
        <ele>214.97</ele>
        <time>2015-11-08T10:47:59Z</time>
      </trkpt>
      <trkpt lat="48.90054" lon="0.20345">
        <ele>214.38</ele>
        <time>2015-11-08T10:48:01Z</time>
      </trkpt>
      <trkpt lat="48.90058" lon="0.20348">
        <ele>213.69</ele>
        <time>2015-11-08T10:48:03Z</time>
      </trkpt>
      <trkpt lat="48.90062" lon="0.20351">
        <ele>212.92</ele>
        <time>2015-11-08T10:48:05Z</time>
      </trkpt>
      <trkpt lat="48.90066" lon="0.20354">
        <ele>212.14</ele>
        <time>2015-11-08T10:48:07Z</time>
      </trkpt>
      <trkpt lat="48.9007" lon="0.20357">
        <ele>211.44</ele>
        <time>2015-11-08T10:48:09Z</time>
      </trkpt>
      <trkpt lat="48.90073" lon="0.20359">
        <ele>210.92</ele>
        <time>2015-11-08T10:48:11Z</time>
      </trkpt>
      <trkpt lat="48.90076" lon="0.20361">
        <ele>210.51</ele>
        <time>2015-11-08T10:48:14Z</time>
      </trkpt>
      <trkpt lat="48.90079" lon="0.20363">
        <ele>210.17</ele>
        <time>2015-11-08T10:48:19Z</time>
      </trkpt>
      <trkpt lat="48.90082" lon="0.20364">
        <ele>209.82</ele>
        <time>2015-11-08T10:49:01Z</time>
      </trkpt>
      <trkpt lat="48.90079" lon="0.2036">
        <ele>210.44</ele>
        <time>2015-11-08T10:49:57Z</time>
      </trkpt>
      <trkpt lat="48.90075" lon="0.20359">
        <ele>210.9</ele>
        <time>2015-11-08T10:49:59Z</time>
      </trkpt>
      <trkpt lat="48.90071" lon="0.20357">
        <ele>211.41</ele>
        <time>2015-11-08T10:50:01Z</time>
      </trkpt>
      <trkpt lat="48.90067" lon="0.20354">
        <ele>212.14</ele>
        <time>2015-11-08T10:50:03Z</time>
      </trkpt>
      <trkpt lat="48.90064" lon="0.2035">
        <ele>212.94</ele>
        <time>2015-11-08T10:50:05Z</time>
      </trkpt>
      <trkpt lat="48.90108" lon="0.20287">
        <ele>209.19</ele>
        <time>2015-11-08T10:50:37Z</time>
      </trkpt>
      <trkpt lat="48.90112" lon="0.20285">
        <ele>208.9</ele>
        <time>2015-11-08T10:50:38Z</time>
      </trkpt>
      <trkpt lat="48.90115" lon="0.20283">
        <ele>208.59</ele>
        <time>2015-11-08T10:50:39Z</time>
      </trkpt>
      <trkpt lat="48.9012" lon="0.20279">
        <ele>208.01</ele>
        <time>2015-11-08T10:50:41Z</time>
      </trkpt>
      <trkpt lat="48.90123" lon="0.20278">
        <ele>207.73</ele>
        <time>2015-11-08T10:50:42Z</time>
      </trkpt>
      <trkpt lat="48.90127" lon="0.20273">
        <ele>207.1</ele>
        <time>2015-11-08T10:50:44Z</time>
      </trkpt>
      <trkpt lat="48.90129" lon="0.20271">
        <ele>206.77</ele>
        <time>2015-11-08T10:50:45Z</time>
      </trkpt>
      <trkpt lat="48.90134" lon="0.20267">
        <ele>206.15</ele>
        <time>2015-11-08T10:50:47Z</time>
      </trkpt>
      <trkpt lat="48.90137" lon="0.20261">
        <ele>205.55</ele>
        <time>2015-11-08T10:50:49Z</time>
      </trkpt>
      <trkpt lat="48.90142" lon="0.20256">
        <ele>204.86</ele>
        <time>2015-11-08T10:50:51Z</time>
      </trkpt>
      <trkpt lat="48.90144" lon="0.20253">
        <ele>204.39</ele>
        <time>2015-11-08T10:50:52Z</time>
      </trkpt>
      <trkpt lat="48.90148" lon="0.20248">
        <ele>203.58</ele>
        <time>2015-11-08T10:50:54Z</time>
      </trkpt>
      <trkpt lat="48.9015" lon="0.20245">
        <ele>203.18</ele>
        <time>2015-11-08T10:50:55Z</time>
      </trkpt>
      <trkpt lat="48.90153" lon="0.20238">
        <ele>202.59</ele>
        <time>2015-11-08T10:50:57Z</time>
      </trkpt>
      <trkpt lat="48.90156" lon="0.20232">
        <ele>202.18</ele>
        <time>2015-11-08T10:50:59Z</time>
      </trkpt>
      <trkpt lat="48.90158" lon="0.20229">
        <ele>202.05</ele>
        <time>2015-11-08T10:51:00Z</time>
      </trkpt>
      <trkpt lat="48.90161" lon="0.20226">
        <ele>201.98</ele>
        <time>2015-11-08T10:51:01Z</time>
      </trkpt>
      <trkpt lat="48.90163" lon="0.20223">
        <ele>201.99</ele>
        <time>2015-11-08T10:51:02Z</time>
      </trkpt>
      <trkpt lat="48.90165" lon="0.2022">
        <ele>201.97</ele>
        <time>2015-11-08T10:51:03Z</time>
      </trkpt>
      <trkpt lat="48.90166" lon="0.20215">
        <ele>201.96</ele>
        <time>2015-11-08T10:51:04Z</time>
      </trkpt>
      <trkpt lat="48.90167" lon="0.2021">
        <ele>201.99</ele>
        <time>2015-11-08T10:51:05Z</time>
      </trkpt>
      <trkpt lat="48.90168" lon="0.20205">
        <ele>201.79</ele>
        <time>2015-11-08T10:51:06Z</time>
      </trkpt>
      <trkpt lat="48.90169" lon="0.20201">
        <ele>201.42</ele>
        <time>2015-11-08T10:51:07Z</time>
      </trkpt>
      <trkpt lat="48.90171" lon="0.20197">
        <ele>201.03</ele>
        <time>2015-11-08T10:51:08Z</time>
      </trkpt>
      <trkpt lat="48.90175" lon="0.20192">
        <ele>200.36</ele>
        <time>2015-11-08T10:51:10Z</time>
      </trkpt>
      <trkpt lat="48.90178" lon="0.20192">
        <ele>199.72</ele>
        <time>2015-11-08T10:51:18Z</time>
      </trkpt>
      <trkpt lat="48.9018" lon="0.20195">
        <ele>199.05</ele>
        <time>2015-11-08T10:51:23Z</time>
      </trkpt>
      <trkpt lat="48.90183" lon="0.20194">
        <ele>198.49</ele>
        <time>2015-11-08T10:51:39Z</time>
      </trkpt>
      <trkpt lat="48.90186" lon="0.20193">
        <ele>197.95</ele>
        <time>2015-11-08T10:51:41Z</time>
      </trkpt>
      <trkpt lat="48.9019" lon="0.20192">
        <ele>197.2</ele>
        <time>2015-11-08T10:51:43Z</time>
      </trkpt>
      <trkpt lat="48.90194" lon="0.20191">
        <ele>196.37</ele>
        <time>2015-11-08T10:51:45Z</time>
      </trkpt>
      <trkpt lat="48.90198" lon="0.20189">
        <ele>195.86</ele>
        <time>2015-11-08T10:51:47Z</time>
      </trkpt>
      <trkpt lat="48.90202" lon="0.20186">
        <ele>195.4</ele>
        <time>2015-11-08T10:51:49Z</time>
      </trkpt>
      <trkpt lat="48.90206" lon="0.20181">
        <ele>194.79</ele>
        <time>2015-11-08T10:51:51Z</time>
      </trkpt>
      <trkpt lat="48.9021" lon="0.20177">
        <ele>193.86</ele>
        <time>2015-11-08T10:51:53Z</time>
      </trkpt>
      <trkpt lat="48.90214" lon="0.20172">
        <ele>192.77</ele>
        <time>2015-11-08T10:51:55Z</time>
      </trkpt>
      <trkpt lat="48.90218" lon="0.20168">
        <ele>191.28</ele>
        <time>2015-11-08T10:51:57Z</time>
      </trkpt>
      <trkpt lat="48.90221" lon="0.20166">
        <ele>190.39</ele>
        <time>2015-11-08T10:51:58Z</time>
      </trkpt>
      <trkpt lat="48.90224" lon="0.20164">
        <ele>189.91</ele>
        <time>2015-11-08T10:51:59Z</time>
      </trkpt>
      <trkpt lat="48.90226" lon="0.20163">
        <ele>189.83</ele>
        <time>2015-11-08T10:52:00Z</time>
      </trkpt>
      <trkpt lat="48.90229" lon="0.20161">
        <ele>189.75</ele>
        <time>2015-11-08T10:52:01Z</time>
      </trkpt>
      <trkpt lat="48.90232" lon="0.20159">
        <ele>189.65</ele>
        <time>2015-11-08T10:52:02Z</time>
      </trkpt>
      <trkpt lat="48.90235" lon="0.20157">
        <ele>189.52</ele>
        <time>2015-11-08T10:52:03Z</time>
      </trkpt>
      <trkpt lat="48.90237" lon="0.20155">
        <ele>189.34</ele>
        <time>2015-11-08T10:52:04Z</time>
      </trkpt>
      <trkpt lat="48.9024" lon="0.20152">
        <ele>189.13</ele>
        <time>2015-11-08T10:52:05Z</time>
      </trkpt>
      <trkpt lat="48.90242" lon="0.20149">
        <ele>188.91</ele>
        <time>2015-11-08T10:52:06Z</time>
      </trkpt>
      <trkpt lat="48.90245" lon="0.20147">
        <ele>188.69</ele>
        <time>2015-11-08T10:52:07Z</time>
      </trkpt>
      <trkpt lat="48.90248" lon="0.20145">
        <ele>188.49</ele>
        <time>2015-11-08T10:52:08Z</time>
      </trkpt>
      <trkpt lat="48.90251" lon="0.20143">
        <ele>188.21</ele>
        <time>2015-11-08T10:52:09Z</time>
      </trkpt>
      <trkpt lat="48.90254" lon="0.20142">
        <ele>187.65</ele>
        <time>2015-11-08T10:52:10Z</time>
      </trkpt>
      <trkpt lat="48.90256" lon="0.20139">
        <ele>187.11</ele>
        <time>2015-11-08T10:52:11Z</time>
      </trkpt>
      <trkpt lat="48.90259" lon="0.20137">
        <ele>186.41</ele>
        <time>2015-11-08T10:52:12Z</time>
      </trkpt>
      <trkpt lat="48.90262" lon="0.20134">
        <ele>185.58</ele>
        <time>2015-11-08T10:52:13Z</time>
      </trkpt>
      <trkpt lat="48.90265" lon="0.20131">
        <ele>184.79</ele>
        <time>2015-11-08T10:52:14Z</time>
      </trkpt>
      <trkpt lat="48.90268" lon="0.20128">
        <ele>184.04</ele>
        <time>2015-11-08T10:52:15Z</time>
      </trkpt>
      <trkpt lat="48.90271" lon="0.20126">
        <ele>183.39</ele>
        <time>2015-11-08T10:52:16Z</time>
      </trkpt>
      <trkpt lat="48.90273" lon="0.20123">
        <ele>182.77</ele>
        <time>2015-11-08T10:52:17Z</time>
      </trkpt>
      <trkpt lat="48.90276" lon="0.20121">
        <ele>182.22</ele>
        <time>2015-11-08T10:52:18Z</time>
      </trkpt>
      <trkpt lat="48.90279" lon="0.20118">
        <ele>181.88</ele>
        <time>2015-11-08T10:52:19Z</time>
      </trkpt>
      <trkpt lat="48.90281" lon="0.20117">
        <ele>182.02</ele>
        <time>2015-11-08T10:52:20Z</time>
      </trkpt>
      <trkpt lat="48.90284" lon="0.20116">
        <ele>182.32</ele>
        <time>2015-11-08T10:52:21Z</time>
      </trkpt>
      <trkpt lat="48.90288" lon="0.20116">
        <ele>182.64</ele>
        <time>2015-11-08T10:52:22Z</time>
      </trkpt>
      <trkpt lat="48.90291" lon="0.20115">
        <ele>182.93</ele>
        <time>2015-11-08T10:52:23Z</time>
      </trkpt>
      <trkpt lat="48.90294" lon="0.20114">
        <ele>183.16</ele>
        <time>2015-11-08T10:52:24Z</time>
      </trkpt>
      <trkpt lat="48.90298" lon="0.20113">
        <ele>183.45</ele>
        <time>2015-11-08T10:52:25Z</time>
      </trkpt>
      <trkpt lat="48.903" lon="0.20112">
        <ele>183.57</ele>
        <time>2015-11-08T10:52:26Z</time>
      </trkpt>
      <trkpt lat="48.90303" lon="0.20109">
        <ele>183.48</ele>
        <time>2015-11-08T10:52:27Z</time>
      </trkpt>
      <trkpt lat="48.90305" lon="0.20106">
        <ele>183.29</ele>
        <time>2015-11-08T10:52:28Z</time>
      </trkpt>
      <trkpt lat="48.90308" lon="0.20103">
        <ele>182.7</ele>
        <time>2015-11-08T10:52:29Z</time>
      </trkpt>
      <trkpt lat="48.9031" lon="0.20099">
        <ele>182.1</ele>
        <time>2015-11-08T10:52:30Z</time>
      </trkpt>
      <trkpt lat="48.90312" lon="0.20096">
        <ele>181.51</ele>
        <time>2015-11-08T10:52:31Z</time>
      </trkpt>
      <trkpt lat="48.90314" lon="0.20093">
        <ele>180.93</ele>
        <time>2015-11-08T10:52:32Z</time>
      </trkpt>
      <trkpt lat="48.90316" lon="0.20091">
        <ele>180.39</ele>
        <time>2015-11-08T10:52:33Z</time>
      </trkpt>
      <trkpt lat="48.90321" lon="0.20087">
        <ele>179.53</ele>
        <time>2015-11-08T10:52:35Z</time>
      </trkpt>
      <trkpt lat="48.90325" lon="0.20085">
        <ele>178.9</ele>
        <time>2015-11-08T10:52:37Z</time>
      </trkpt>
      <trkpt lat="48.90329" lon="0.20083">
        <ele>178.22</ele>
        <time>2015-11-08T10:52:39Z</time>
      </trkpt>
      <trkpt lat="48.90333" lon="0.2008">
        <ele>177.57</ele>
        <time>2015-11-08T10:52:41Z</time>
      </trkpt>
      <trkpt lat="48.90338" lon="0.20078">
        <ele>177.44</ele>
        <time>2015-11-08T10:52:43Z</time>
      </trkpt>
      <trkpt lat="48.90343" lon="0.20077">
        <ele>177.49</ele>
        <time>2015-11-08T10:52:45Z</time>
      </trkpt>
      <trkpt lat="48.90348" lon="0.20075">
        <ele>177.16</ele>
        <time>2015-11-08T10:52:47Z</time>
      </trkpt>
      <trkpt lat="48.9035" lon="0.20074">
        <ele>176.98</ele>
        <time>2015-11-08T10:52:48Z</time>
      </trkpt>
      <trkpt lat="48.90353" lon="0.20073">
        <ele>176.88</ele>
        <time>2015-11-08T10:52:49Z</time>
      </trkpt>
      <trkpt lat="48.90356" lon="0.20073">
        <ele>176.84</ele>
        <time>2015-11-08T10:52:50Z</time>
      </trkpt>
      <trkpt lat="48.90362" lon="0.20073">
        <ele>177.04</ele>
        <time>2015-11-08T10:52:52Z</time>
      </trkpt>
      <trkpt lat="48.90364" lon="0.20073">
        <ele>177.14</ele>
        <time>2015-11-08T10:52:53Z</time>
      </trkpt>
      <trkpt lat="48.9037" lon="0.20074">
        <ele>177.18</ele>
        <time>2015-11-08T10:52:55Z</time>
      </trkpt>
      <trkpt lat="48.90372" lon="0.20074">
        <ele>177.12</ele>
        <time>2015-11-08T10:52:56Z</time>
      </trkpt>
      <trkpt lat="48.90376" lon="0.20073">
        <ele>177.02</ele>
        <time>2015-11-08T10:52:57Z</time>
      </trkpt>
      <trkpt lat="48.90379" lon="0.20072">
        <ele>176.91</ele>
        <time>2015-11-08T10:52:58Z</time>
      </trkpt>
      <trkpt lat="48.90382" lon="0.2007">
        <ele>176.83</ele>
        <time>2015-11-08T10:52:59Z</time>
      </trkpt>
      <trkpt lat="48.90386" lon="0.20069">
        <ele>176.87</ele>
        <time>2015-11-08T10:53:00Z</time>
      </trkpt>
      <trkpt lat="48.90389" lon="0.20067">
        <ele>177.12</ele>
        <time>2015-11-08T10:53:01Z</time>
      </trkpt>
      <trkpt lat="48.90393" lon="0.20065">
        <ele>177.84</ele>
        <time>2015-11-08T10:53:02Z</time>
      </trkpt>
      <trkpt lat="48.90397" lon="0.20064">
        <ele>178.47</ele>
        <time>2015-11-08T10:53:03Z</time>
      </trkpt>
      <trkpt lat="48.904" lon="0.20061">
        <ele>178.93</ele>
        <time>2015-11-08T10:53:04Z</time>
      </trkpt>
      <trkpt lat="48.90403" lon="0.20058">
        <ele>179.25</ele>
        <time>2015-11-08T10:53:05Z</time>
      </trkpt>
      <trkpt lat="48.90406" lon="0.20055">
        <ele>179.53</ele>
        <time>2015-11-08T10:53:06Z</time>
      </trkpt>
      <trkpt lat="48.9041" lon="0.20051">
        <ele>180.04</ele>
        <time>2015-11-08T10:53:07Z</time>
      </trkpt>
      <trkpt lat="48.90413" lon="0.20046">
        <ele>180.51</ele>
        <time>2015-11-08T10:53:08Z</time>
      </trkpt>
      <trkpt lat="48.90416" lon="0.20042">
        <ele>180.92</ele>
        <time>2015-11-08T10:53:09Z</time>
      </trkpt>
      <trkpt lat="48.90419" lon="0.20037">
        <ele>181.35</ele>
        <time>2015-11-08T10:53:10Z</time>
      </trkpt>
      <trkpt lat="48.90422" lon="0.20033">
        <ele>181.67</ele>
        <time>2015-11-08T10:53:11Z</time>
      </trkpt>
      <trkpt lat="48.90425" lon="0.20028">
        <ele>181.83</ele>
        <time>2015-11-08T10:53:12Z</time>
      </trkpt>
      <trkpt lat="48.90427" lon="0.20022">
        <ele>181.84</ele>
        <time>2015-11-08T10:53:13Z</time>
      </trkpt>
      <trkpt lat="48.9043" lon="0.20017">
        <ele>181.84</ele>
        <time>2015-11-08T10:53:14Z</time>
      </trkpt>
      <trkpt lat="48.90432" lon="0.20013">
        <ele>181.87</ele>
        <time>2015-11-08T10:53:15Z</time>
      </trkpt>
      <trkpt lat="48.90435" lon="0.20009">
        <ele>181.86</ele>
        <time>2015-11-08T10:53:16Z</time>
      </trkpt>
      <trkpt lat="48.90438" lon="0.20005">
        <ele>181.79</ele>
        <time>2015-11-08T10:53:17Z</time>
      </trkpt>
      <trkpt lat="48.9044" lon="0.2">
        <ele>181.57</ele>
        <time>2015-11-08T10:53:18Z</time>
      </trkpt>
      <trkpt lat="48.90442" lon="0.19994">
        <ele>180.48</ele>
        <time>2015-11-08T10:53:19Z</time>
      </trkpt>
      <trkpt lat="48.90444" lon="0.19988">
        <ele>179.4</ele>
        <time>2015-11-08T10:53:20Z</time>
      </trkpt>
      <trkpt lat="48.90446" lon="0.19983">
        <ele>178.23</ele>
        <time>2015-11-08T10:53:21Z</time>
      </trkpt>
      <trkpt lat="48.90448" lon="0.19977">
        <ele>177.13</ele>
        <time>2015-11-08T10:53:22Z</time>
      </trkpt>
      <trkpt lat="48.9045" lon="0.19972">
        <ele>176.21</ele>
        <time>2015-11-08T10:53:23Z</time>
      </trkpt>
      <trkpt lat="48.90453" lon="0.19967">
        <ele>175.24</ele>
        <time>2015-11-08T10:53:24Z</time>
      </trkpt>
      <trkpt lat="48.90455" lon="0.19962">
        <ele>174.52</ele>
        <time>2015-11-08T10:53:25Z</time>
      </trkpt>
      <trkpt lat="48.90462" lon="0.19955">
        <ele>174.18</ele>
        <time>2015-11-08T10:53:26Z</time>
      </trkpt>
      <trkpt lat="48.90465" lon="0.19951">
        <ele>174.19</ele>
        <time>2015-11-08T10:53:27Z</time>
      </trkpt>
      <trkpt lat="48.90468" lon="0.19946">
        <ele>174.24</ele>
        <time>2015-11-08T10:53:28Z</time>
      </trkpt>
      <trkpt lat="48.9047" lon="0.19941">
        <ele>173.85</ele>
        <time>2015-11-08T10:53:29Z</time>
      </trkpt>
      <trkpt lat="48.90472" lon="0.19937">
        <ele>173.69</ele>
        <time>2015-11-08T10:53:30Z</time>
      </trkpt>
      <trkpt lat="48.90475" lon="0.19932">
        <ele>173.67</ele>
        <time>2015-11-08T10:53:31Z</time>
      </trkpt>
      <trkpt lat="48.90478" lon="0.19928">
        <ele>173.88</ele>
        <time>2015-11-08T10:53:32Z</time>
      </trkpt>
      <trkpt lat="48.90481" lon="0.19923">
        <ele>174.25</ele>
        <time>2015-11-08T10:53:33Z</time>
      </trkpt>
      <trkpt lat="48.90485" lon="0.1992">
        <ele>175.38</ele>
        <time>2015-11-08T10:53:34Z</time>
      </trkpt>
      <trkpt lat="48.90489" lon="0.19917">
        <ele>176.64</ele>
        <time>2015-11-08T10:53:35Z</time>
      </trkpt>
      <trkpt lat="48.90492" lon="0.19913">
        <ele>177.31</ele>
        <time>2015-11-08T10:53:36Z</time>
      </trkpt>
      <trkpt lat="48.90497" lon="0.19909">
        <ele>178.22</ele>
        <time>2015-11-08T10:53:37Z</time>
      </trkpt>
      <trkpt lat="48.905" lon="0.19905">
        <ele>178.94</ele>
        <time>2015-11-08T10:53:38Z</time>
      </trkpt>
      <trkpt lat="48.90504" lon="0.19901">
        <ele>178.86</ele>
        <time>2015-11-08T10:53:39Z</time>
      </trkpt>
      <trkpt lat="48.90507" lon="0.19896">
        <ele>178.16</ele>
        <time>2015-11-08T10:53:40Z</time>
      </trkpt>
      <trkpt lat="48.9051" lon="0.1989">
        <ele>177.21</ele>
        <time>2015-11-08T10:53:41Z</time>
      </trkpt>
      <trkpt lat="48.90514" lon="0.19883">
        <ele>175.96</ele>
        <time>2015-11-08T10:53:42Z</time>
      </trkpt>
      <trkpt lat="48.90518" lon="0.19879">
        <ele>175.43</ele>
        <time>2015-11-08T10:53:43Z</time>
      </trkpt>
      <trkpt lat="48.9052" lon="0.19874">
        <ele>174.39</ele>
        <time>2015-11-08T10:53:44Z</time>
      </trkpt>
      <trkpt lat="48.90524" lon="0.1987">
        <ele>173.8</ele>
        <time>2015-11-08T10:53:45Z</time>
      </trkpt>
      <trkpt lat="48.90527" lon="0.19868">
        <ele>173.67</ele>
        <time>2015-11-08T10:53:46Z</time>
      </trkpt>
      <trkpt lat="48.90531" lon="0.19866">
        <ele>173.31</ele>
        <time>2015-11-08T10:53:47Z</time>
      </trkpt>
      <trkpt lat="48.90534" lon="0.19861">
        <ele>172.05</ele>
        <time>2015-11-08T10:53:48Z</time>
      </trkpt>
      <trkpt lat="48.90538" lon="0.19858">
        <ele>171.52</ele>
        <time>2015-11-08T10:53:49Z</time>
      </trkpt>
      <trkpt lat="48.90541" lon="0.19854">
        <ele>170.98</ele>
        <time>2015-11-08T10:53:50Z</time>
      </trkpt>
      <trkpt lat="48.90544" lon="0.19849">
        <ele>170.22</ele>
        <time>2015-11-08T10:53:51Z</time>
      </trkpt>
      <trkpt lat="48.90548" lon="0.19843">
        <ele>169.37</ele>
        <time>2015-11-08T10:53:52Z</time>
      </trkpt>
      <trkpt lat="48.90552" lon="0.19838">
        <ele>168.65</ele>
        <time>2015-11-08T10:53:53Z</time>
      </trkpt>
      <trkpt lat="48.90556" lon="0.19833">
        <ele>167.71</ele>
        <time>2015-11-08T10:53:54Z</time>
      </trkpt>
      <trkpt lat="48.90559" lon="0.19825">
        <ele>164.67</ele>
        <time>2015-11-08T10:53:55Z</time>
      </trkpt>
      <trkpt lat="48.90561" lon="0.19819">
        <ele>162.47</ele>
        <time>2015-11-08T10:53:56Z</time>
      </trkpt>
      <trkpt lat="48.90564" lon="0.19813">
        <ele>159.98</ele>
        <time>2015-11-08T10:53:57Z</time>
      </trkpt>
      <trkpt lat="48.90568" lon="0.19811">
        <ele>158.13</ele>
        <time>2015-11-08T10:53:58Z</time>
      </trkpt>
      <trkpt lat="48.90573" lon="0.19806">
        <ele>155.86</ele>
        <time>2015-11-08T10:53:59Z</time>
      </trkpt>
      <trkpt lat="48.90576" lon="0.19803">
        <ele>154.3</ele>
        <time>2015-11-08T10:54:00Z</time>
      </trkpt>
      <trkpt lat="48.9058" lon="0.19799">
        <ele>152.58</ele>
        <time>2015-11-08T10:54:01Z</time>
      </trkpt>
      <trkpt lat="48.90583" lon="0.19795">
        <ele>150.76</ele>
        <time>2015-11-08T10:54:02Z</time>
      </trkpt>
      <trkpt lat="48.90589" lon="0.19792">
        <ele>149.51</ele>
        <time>2015-11-08T10:54:03Z</time>
      </trkpt>
      <trkpt lat="48.90593" lon="0.19787">
        <ele>148.47</ele>
        <time>2015-11-08T10:54:04Z</time>
      </trkpt>
      <trkpt lat="48.90597" lon="0.19781">
        <ele>147.44</ele>
        <time>2015-11-08T10:54:05Z</time>
      </trkpt>
      <trkpt lat="48.90602" lon="0.19777">
        <ele>146.94</ele>
        <time>2015-11-08T10:54:06Z</time>
      </trkpt>
      <trkpt lat="48.90606" lon="0.19774">
        <ele>146.72</ele>
        <time>2015-11-08T10:54:07Z</time>
      </trkpt>
      <trkpt lat="48.9061" lon="0.19769">
        <ele>146.38</ele>
        <time>2015-11-08T10:54:08Z</time>
      </trkpt>
      <trkpt lat="48.90614" lon="0.19765">
        <ele>146.32</ele>
        <time>2015-11-08T10:54:09Z</time>
      </trkpt>
      <trkpt lat="48.90618" lon="0.19761">
        <ele>146.36</ele>
        <time>2015-11-08T10:54:10Z</time>
      </trkpt>
      <trkpt lat="48.90622" lon="0.19757">
        <ele>146.47</ele>
        <time>2015-11-08T10:54:11Z</time>
      </trkpt>
      <trkpt lat="48.90625" lon="0.19753">
        <ele>146.65</ele>
        <time>2015-11-08T10:54:12Z</time>
      </trkpt>
      <trkpt lat="48.90629" lon="0.19749">
        <ele>146.85</ele>
        <time>2015-11-08T10:54:13Z</time>
      </trkpt>
      <trkpt lat="48.90632" lon="0.19743">
        <ele>146.72</ele>
        <time>2015-11-08T10:54:14Z</time>
      </trkpt>
      <trkpt lat="48.90636" lon="0.19737">
        <ele>146.66</ele>
        <time>2015-11-08T10:54:15Z</time>
      </trkpt>
      <trkpt lat="48.90639" lon="0.19732">
        <ele>146.63</ele>
        <time>2015-11-08T10:54:16Z</time>
      </trkpt>
      <trkpt lat="48.90642" lon="0.19725">
        <ele>145.84</ele>
        <time>2015-11-08T10:54:17Z</time>
      </trkpt>
      <trkpt lat="48.90645" lon="0.19719">
        <ele>144.91</ele>
        <time>2015-11-08T10:54:18Z</time>
      </trkpt>
      <trkpt lat="48.90648" lon="0.19712">
        <ele>143.79</ele>
        <time>2015-11-08T10:54:19Z</time>
      </trkpt>
      <trkpt lat="48.90651" lon="0.19706">
        <ele>142.64</ele>
        <time>2015-11-08T10:54:20Z</time>
      </trkpt>
      <trkpt lat="48.90656" lon="0.19702">
        <ele>141.55</ele>
        <time>2015-11-08T10:54:21Z</time>
      </trkpt>
      <trkpt lat="48.90657" lon="0.19694">
        <ele>140.35</ele>
        <time>2015-11-08T10:54:22Z</time>
      </trkpt>
      <trkpt lat="48.9066" lon="0.19688">
        <ele>138.66</ele>
        <time>2015-11-08T10:54:23Z</time>
      </trkpt>
      <trkpt lat="48.90663" lon="0.19684">
        <ele>137.31</ele>
        <time>2015-11-08T10:54:24Z</time>
      </trkpt>
      <trkpt lat="48.90665" lon="0.19679">
        <ele>135.85</ele>
        <time>2015-11-08T10:54:25Z</time>
      </trkpt>
      <trkpt lat="48.90668" lon="0.19673">
        <ele>134.39</ele>
        <time>2015-11-08T10:54:26Z</time>
      </trkpt>
      <trkpt lat="48.9067" lon="0.19669">
        <ele>133.24</ele>
        <time>2015-11-08T10:54:27Z</time>
      </trkpt>
      <trkpt lat="48.90673" lon="0.19666">
        <ele>132.48</ele>
        <time>2015-11-08T10:54:28Z</time>
      </trkpt>
      <trkpt lat="48.90676" lon="0.19663">
        <ele>131.92</ele>
        <time>2015-11-08T10:54:29Z</time>
      </trkpt>
      <trkpt lat="48.90681" lon="0.1966">
        <ele>131.19</ele>
        <time>2015-11-08T10:54:31Z</time>
      </trkpt>
      <trkpt lat="48.90684" lon="0.1966">
        <ele>130.75</ele>
        <time>2015-11-08T10:54:33Z</time>
      </trkpt>
      <trkpt lat="48.90687" lon="0.19662">
        <ele>130.79</ele>
        <time>2015-11-08T10:54:46Z</time>
      </trkpt>
      <trkpt lat="48.90689" lon="0.19666">
        <ele>131.2</ele>
        <time>2015-11-08T10:55:58Z</time>
      </trkpt>
      <trkpt lat="48.90692" lon="0.19668">
        <ele>131.44</ele>
        <time>2015-11-08T10:56:00Z</time>
      </trkpt>
      <trkpt lat="48.90697" lon="0.19672">
        <ele>131.6</ele>
        <time>2015-11-08T10:56:02Z</time>
      </trkpt>
      <trkpt lat="48.907" lon="0.19675">
        <ele>131.51</ele>
        <time>2015-11-08T10:56:03Z</time>
      </trkpt>
      <trkpt lat="48.90703" lon="0.19678">
        <ele>131.35</ele>
        <time>2015-11-08T10:56:04Z</time>
      </trkpt>
      <trkpt lat="48.90706" lon="0.19681">
        <ele>131.2</ele>
        <time>2015-11-08T10:56:05Z</time>
      </trkpt>
      <trkpt lat="48.90709" lon="0.19683">
        <ele>130.98</ele>
        <time>2015-11-08T10:56:06Z</time>
      </trkpt>
      <trkpt lat="48.90713" lon="0.19685">
        <ele>130.68</ele>
        <time>2015-11-08T10:56:07Z</time>
      </trkpt>
      <trkpt lat="48.90716" lon="0.19688">
        <ele>130.34</ele>
        <time>2015-11-08T10:56:08Z</time>
      </trkpt>
      <trkpt lat="48.90719" lon="0.1969">
        <ele>130.03</ele>
        <time>2015-11-08T10:56:09Z</time>
      </trkpt>
      <trkpt lat="48.90722" lon="0.19692">
        <ele>129.69</ele>
        <time>2015-11-08T10:56:10Z</time>
      </trkpt>
      <trkpt lat="48.90725" lon="0.19694">
        <ele>129.31</ele>
        <time>2015-11-08T10:56:11Z</time>
      </trkpt>
      <trkpt lat="48.90729" lon="0.19697">
        <ele>128.95</ele>
        <time>2015-11-08T10:56:12Z</time>
      </trkpt>
      <trkpt lat="48.90732" lon="0.197">
        <ele>128.68</ele>
        <time>2015-11-08T10:56:13Z</time>
      </trkpt>
      <trkpt lat="48.90734" lon="0.19704">
        <ele>128.55</ele>
        <time>2015-11-08T10:56:14Z</time>
      </trkpt>
      <trkpt lat="48.90737" lon="0.19707">
        <ele>128.5</ele>
        <time>2015-11-08T10:56:15Z</time>
      </trkpt>
      <trkpt lat="48.90739" lon="0.19711">
        <ele>128.43</ele>
        <time>2015-11-08T10:56:16Z</time>
      </trkpt>
      <trkpt lat="48.90742" lon="0.19715">
        <ele>128.23</ele>
        <time>2015-11-08T10:56:17Z</time>
      </trkpt>
      <trkpt lat="48.90744" lon="0.19718">
        <ele>127.98</ele>
        <time>2015-11-08T10:56:18Z</time>
      </trkpt>
      <trkpt lat="48.90747" lon="0.19722">
        <ele>127.78</ele>
        <time>2015-11-08T10:56:19Z</time>
      </trkpt>
      <trkpt lat="48.90748" lon="0.19725">
        <ele>127.85</ele>
        <time>2015-11-08T10:56:20Z</time>
      </trkpt>
      <trkpt lat="48.9075" lon="0.19729">
        <ele>127.99</ele>
        <time>2015-11-08T10:56:21Z</time>
      </trkpt>
      <trkpt lat="48.90752" lon="0.19733">
        <ele>128.35</ele>
        <time>2015-11-08T10:56:22Z</time>
      </trkpt>
      <trkpt lat="48.90754" lon="0.19736">
        <ele>128.66</ele>
        <time>2015-11-08T10:56:23Z</time>
      </trkpt>
      <trkpt lat="48.90756" lon="0.1974">
        <ele>128.92</ele>
        <time>2015-11-08T10:56:24Z</time>
      </trkpt>
      <trkpt lat="48.90758" lon="0.19743">
        <ele>129.15</ele>
        <time>2015-11-08T10:56:25Z</time>
      </trkpt>
      <trkpt lat="48.9076" lon="0.19746">
        <ele>129.32</ele>
        <time>2015-11-08T10:56:26Z</time>
      </trkpt>
      <trkpt lat="48.90763" lon="0.19749">
        <ele>129.45</ele>
        <time>2015-11-08T10:56:27Z</time>
      </trkpt>
      <trkpt lat="48.90765" lon="0.19752">
        <ele>129.5</ele>
        <time>2015-11-08T10:56:28Z</time>
      </trkpt>
      <trkpt lat="48.90767" lon="0.19755">
        <ele>129.46</ele>
        <time>2015-11-08T10:56:29Z</time>
      </trkpt>
      <trkpt lat="48.9077" lon="0.19758">
        <ele>129.42</ele>
        <time>2015-11-08T10:56:30Z</time>
      </trkpt>
      <trkpt lat="48.90772" lon="0.19761">
        <ele>129.37</ele>
        <time>2015-11-08T10:56:31Z</time>
      </trkpt>
      <trkpt lat="48.90774" lon="0.19764">
        <ele>129.37</ele>
        <time>2015-11-08T10:56:32Z</time>
      </trkpt>
      <trkpt lat="48.90777" lon="0.19767">
        <ele>129.36</ele>
        <time>2015-11-08T10:56:33Z</time>
      </trkpt>
      <trkpt lat="48.90779" lon="0.19771">
        <ele>129.53</ele>
        <time>2015-11-08T10:56:34Z</time>
      </trkpt>
      <trkpt lat="48.90781" lon="0.19774">
        <ele>129.83</ele>
        <time>2015-11-08T10:56:35Z</time>
      </trkpt>
      <trkpt lat="48.90783" lon="0.19777">
        <ele>130.14</ele>
        <time>2015-11-08T10:56:36Z</time>
      </trkpt>
      <trkpt lat="48.90785" lon="0.1978">
        <ele>130.35</ele>
        <time>2015-11-08T10:56:37Z</time>
      </trkpt>
      <trkpt lat="48.90787" lon="0.19784">
        <ele>130.54</ele>
        <time>2015-11-08T10:56:38Z</time>
      </trkpt>
      <trkpt lat="48.90789" lon="0.19787">
        <ele>130.74</ele>
        <time>2015-11-08T10:56:39Z</time>
      </trkpt>
      <trkpt lat="48.90791" lon="0.1979">
        <ele>130.93</ele>
        <time>2015-11-08T10:56:40Z</time>
      </trkpt>
      <trkpt lat="48.90795" lon="0.19796">
        <ele>131.27</ele>
        <time>2015-11-08T10:56:42Z</time>
      </trkpt>
      <trkpt lat="48.90797" lon="0.19799">
        <ele>131.46</ele>
        <time>2015-11-08T10:56:43Z</time>
      </trkpt>
      <trkpt lat="48.90799" lon="0.19802">
        <ele>131.65</ele>
        <time>2015-11-08T10:56:44Z</time>
      </trkpt>
      <trkpt lat="48.90801" lon="0.19806">
        <ele>131.86</ele>
        <time>2015-11-08T10:56:45Z</time>
      </trkpt>
      <trkpt lat="48.90803" lon="0.19809">
        <ele>132.06</ele>
        <time>2015-11-08T10:56:46Z</time>
      </trkpt>
      <trkpt lat="48.90805" lon="0.19813">
        <ele>132.25</ele>
        <time>2015-11-08T10:56:47Z</time>
      </trkpt>
      <trkpt lat="48.90807" lon="0.19816">
        <ele>132.37</ele>
        <time>2015-11-08T10:56:48Z</time>
      </trkpt>
      <trkpt lat="48.90809" lon="0.1982">
        <ele>132.51</ele>
        <time>2015-11-08T10:56:49Z</time>
      </trkpt>
      <trkpt lat="48.90811" lon="0.19824">
        <ele>132.65</ele>
        <time>2015-11-08T10:56:50Z</time>
      </trkpt>
      <trkpt lat="48.90812" lon="0.19827">
        <ele>132.78</ele>
        <time>2015-11-08T10:56:51Z</time>
      </trkpt>
      <trkpt lat="48.90814" lon="0.19831">
        <ele>132.91</ele>
        <time>2015-11-08T10:56:52Z</time>
      </trkpt>
      <trkpt lat="48.90816" lon="0.19835">
        <ele>133.09</ele>
        <time>2015-11-08T10:56:53Z</time>
      </trkpt>
      <trkpt lat="48.90818" lon="0.19838">
        <ele>133.36</ele>
        <time>2015-11-08T10:56:54Z</time>
      </trkpt>
      <trkpt lat="48.90819" lon="0.19842">
        <ele>133.63</ele>
        <time>2015-11-08T10:56:55Z</time>
      </trkpt>
      <trkpt lat="48.9082" lon="0.19846">
        <ele>133.92</ele>
        <time>2015-11-08T10:56:56Z</time>
      </trkpt>
      <trkpt lat="48.90822" lon="0.19854">
        <ele>134.49</ele>
        <time>2015-11-08T10:56:58Z</time>
      </trkpt>
      <trkpt lat="48.90822" lon="0.19862">
        <ele>135.01</ele>
        <time>2015-11-08T10:57:00Z</time>
      </trkpt>
      <trkpt lat="48.90822" lon="0.19869">
        <ele>135.16</ele>
        <time>2015-11-08T10:57:02Z</time>
      </trkpt>
      <trkpt lat="48.90823" lon="0.19876">
        <ele>135.25</ele>
        <time>2015-11-08T10:57:04Z</time>
      </trkpt>
      <trkpt lat="48.90823" lon="0.19882">
        <ele>135.37</ele>
        <time>2015-11-08T10:57:06Z</time>
      </trkpt>
      <trkpt lat="48.90823" lon="0.19888">
        <ele>135.51</ele>
        <time>2015-11-08T10:57:08Z</time>
      </trkpt>
      <trkpt lat="48.90822" lon="0.19894">
        <ele>135.96</ele>
        <time>2015-11-08T10:57:10Z</time>
      </trkpt>
      <trkpt lat="48.9082" lon="0.19898">
        <ele>136.39</ele>
        <time>2015-11-08T10:57:12Z</time>
      </trkpt>
      <trkpt lat="48.90819" lon="0.19904">
        <ele>136.89</ele>
        <time>2015-11-08T10:57:15Z</time>
      </trkpt>
      <trkpt lat="48.90818" lon="0.19908">
        <ele>137.15</ele>
        <time>2015-11-08T10:57:17Z</time>
      </trkpt>
      <trkpt lat="48.90819" lon="0.19913">
        <ele>137.38</ele>
        <time>2015-11-08T10:57:19Z</time>
      </trkpt>
      <trkpt lat="48.9082" lon="0.19918">
        <ele>137.78</ele>
        <time>2015-11-08T10:57:21Z</time>
      </trkpt>
      <trkpt lat="48.90822" lon="0.19923">
        <ele>138.45</ele>
        <time>2015-11-08T10:57:23Z</time>
      </trkpt>
      <trkpt lat="48.90823" lon="0.19927">
        <ele>138.97</ele>
        <time>2015-11-08T10:57:28Z</time>
      </trkpt>
      <trkpt lat="48.90825" lon="0.19932">
        <ele>139.61</ele>
        <time>2015-11-08T10:57:46Z</time>
      </trkpt>
      <trkpt lat="48.90827" lon="0.19937">
        <ele>140.36</ele>
        <time>2015-11-08T10:57:49Z</time>
      </trkpt>
      <trkpt lat="48.9083" lon="0.19942">
        <ele>140.95</ele>
        <time>2015-11-08T10:57:51Z</time>
      </trkpt>
      <trkpt lat="48.90832" lon="0.19947">
        <ele>141.44</ele>
        <time>2015-11-08T10:57:53Z</time>
      </trkpt>
      <trkpt lat="48.90834" lon="0.19951">
        <ele>141.92</ele>
        <time>2015-11-08T10:57:55Z</time>
      </trkpt>
      <trkpt lat="48.90837" lon="0.19955">
        <ele>142.5</ele>
        <time>2015-11-08T10:57:57Z</time>
      </trkpt>
      <trkpt lat="48.9084" lon="0.19959">
        <ele>143.08</ele>
        <time>2015-11-08T10:57:59Z</time>
      </trkpt>
      <trkpt lat="48.90842" lon="0.19962">
        <ele>143.54</ele>
        <time>2015-11-08T10:58:01Z</time>
      </trkpt>
      <trkpt lat="48.90844" lon="0.19966">
        <ele>144.11</ele>
        <time>2015-11-08T10:58:03Z</time>
      </trkpt>
      <trkpt lat="48.90847" lon="0.1997">
        <ele>144.7</ele>
        <time>2015-11-08T10:58:05Z</time>
      </trkpt>
      <trkpt lat="48.9085" lon="0.19974">
        <ele>145.36</ele>
        <time>2015-11-08T10:58:07Z</time>
      </trkpt>
      <trkpt lat="48.90854" lon="0.19978">
        <ele>146.12</ele>
        <time>2015-11-08T10:58:09Z</time>
      </trkpt>
      <trkpt lat="48.90858" lon="0.19982">
        <ele>147.02</ele>
        <time>2015-11-08T10:58:11Z</time>
      </trkpt>
      <trkpt lat="48.9086" lon="0.19984">
        <ele>147.57</ele>
        <time>2015-11-08T10:58:12Z</time>
      </trkpt>
      <trkpt lat="48.90863" lon="0.19987">
        <ele>147.95</ele>
        <time>2015-11-08T10:58:13Z</time>
      </trkpt>
      <trkpt lat="48.90867" lon="0.19991">
        <ele>148.84</ele>
        <time>2015-11-08T10:58:15Z</time>
      </trkpt>
      <trkpt lat="48.9087" lon="0.19995">
        <ele>150.12</ele>
        <time>2015-11-08T10:58:17Z</time>
      </trkpt>
      <trkpt lat="48.90873" lon="0.2">
        <ele>151.78</ele>
        <time>2015-11-08T10:58:19Z</time>
      </trkpt>
      <trkpt lat="48.90876" lon="0.20005">
        <ele>152.5</ele>
        <time>2015-11-08T10:58:21Z</time>
      </trkpt>
      <trkpt lat="48.9088" lon="0.2001">
        <ele>153.03</ele>
        <time>2015-11-08T10:58:23Z</time>
      </trkpt>
      <trkpt lat="48.90884" lon="0.20013">
        <ele>153.39</ele>
        <time>2015-11-08T10:58:25Z</time>
      </trkpt>
      <trkpt lat="48.90888" lon="0.20017">
        <ele>153.62</ele>
        <time>2015-11-08T10:58:27Z</time>
      </trkpt>
      <trkpt lat="48.9089" lon="0.20022">
        <ele>153.67</ele>
        <time>2015-11-08T10:58:29Z</time>
      </trkpt>
      <trkpt lat="48.90894" lon="0.20027">
        <ele>153.54</ele>
        <time>2015-11-08T10:58:31Z</time>
      </trkpt>
      <trkpt lat="48.90897" lon="0.20029">
        <ele>153.44</ele>
        <time>2015-11-08T10:58:32Z</time>
      </trkpt>
      <trkpt lat="48.909" lon="0.20031">
        <ele>153.33</ele>
        <time>2015-11-08T10:58:33Z</time>
      </trkpt>
      <trkpt lat="48.90902" lon="0.20034">
        <ele>153.26</ele>
        <time>2015-11-08T10:58:34Z</time>
      </trkpt>
      <trkpt lat="48.90904" lon="0.20037">
        <ele>153.25</ele>
        <time>2015-11-08T10:58:35Z</time>
      </trkpt>
      <trkpt lat="48.90906" lon="0.2004">
        <ele>153.28</ele>
        <time>2015-11-08T10:58:36Z</time>
      </trkpt>
      <trkpt lat="48.90908" lon="0.20042">
        <ele>153.33</ele>
        <time>2015-11-08T10:58:37Z</time>
      </trkpt>
      <trkpt lat="48.90912" lon="0.20047">
        <ele>153.49</ele>
        <time>2015-11-08T10:58:39Z</time>
      </trkpt>
      <trkpt lat="48.90917" lon="0.20051">
        <ele>153.64</ele>
        <time>2015-11-08T10:58:41Z</time>
      </trkpt>
      <trkpt lat="48.90921" lon="0.20055">
        <ele>153.43</ele>
        <time>2015-11-08T10:58:43Z</time>
      </trkpt>
      <trkpt lat="48.90925" lon="0.2006">
        <ele>153.4</ele>
        <time>2015-11-08T10:58:45Z</time>
      </trkpt>
      <trkpt lat="48.90929" lon="0.20065">
        <ele>153.49</ele>
        <time>2015-11-08T10:58:47Z</time>
      </trkpt>
      <trkpt lat="48.90933" lon="0.20071">
        <ele>153.66</ele>
        <time>2015-11-08T10:58:49Z</time>
      </trkpt>
      <trkpt lat="48.90934" lon="0.20075">
        <ele>153.91</ele>
        <time>2015-11-08T10:58:50Z</time>
      </trkpt>
      <trkpt lat="48.90935" lon="0.20079">
        <ele>154.22</ele>
        <time>2015-11-08T10:58:51Z</time>
      </trkpt>
      <trkpt lat="48.90937" lon="0.20084">
        <ele>154.54</ele>
        <time>2015-11-08T10:58:52Z</time>
      </trkpt>
      <trkpt lat="48.90939" lon="0.20089">
        <ele>154.46</ele>
        <time>2015-11-08T10:58:53Z</time>
      </trkpt>
      <trkpt lat="48.9094" lon="0.20093">
        <ele>154.44</ele>
        <time>2015-11-08T10:58:54Z</time>
      </trkpt>
      <trkpt lat="48.90942" lon="0.20099">
        <ele>154.54</ele>
        <time>2015-11-08T10:58:56Z</time>
      </trkpt>
      <trkpt lat="48.90944" lon="0.20104">
        <ele>154.75</ele>
        <time>2015-11-08T10:58:58Z</time>
      </trkpt>
      <trkpt lat="48.90947" lon="0.20108">
        <ele>154.77</ele>
        <time>2015-11-08T10:59:00Z</time>
      </trkpt>
      <trkpt lat="48.90949" lon="0.20113">
        <ele>155.02</ele>
        <time>2015-11-08T10:59:02Z</time>
      </trkpt>
      <trkpt lat="48.90952" lon="0.20118">
        <ele>155.49</ele>
        <time>2015-11-08T10:59:04Z</time>
      </trkpt>
      <trkpt lat="48.90955" lon="0.20124">
        <ele>156.2</ele>
        <time>2015-11-08T10:59:06Z</time>
      </trkpt>
      <trkpt lat="48.90957" lon="0.20127">
        <ele>156.68</ele>
        <time>2015-11-08T10:59:07Z</time>
      </trkpt>
      <trkpt lat="48.9096" lon="0.20129">
        <ele>157.2</ele>
        <time>2015-11-08T10:59:08Z</time>
      </trkpt>
      <trkpt lat="48.90962" lon="0.20132">
        <ele>157.74</ele>
        <time>2015-11-08T10:59:09Z</time>
      </trkpt>
      <trkpt lat="48.90965" lon="0.20134">
        <ele>158.29</ele>
        <time>2015-11-08T10:59:10Z</time>
      </trkpt>
      <trkpt lat="48.90968" lon="0.20135">
        <ele>158.81</ele>
        <time>2015-11-08T10:59:11Z</time>
      </trkpt>
      <trkpt lat="48.90972" lon="0.20136">
        <ele>159.24</ele>
        <time>2015-11-08T10:59:12Z</time>
      </trkpt>
      <trkpt lat="48.90975" lon="0.20136">
        <ele>158.88</ele>
        <time>2015-11-08T10:59:13Z</time>
      </trkpt>
      <trkpt lat="48.90978" lon="0.20136">
        <ele>158.42</ele>
        <time>2015-11-08T10:59:14Z</time>
      </trkpt>
      <trkpt lat="48.90982" lon="0.20138">
        <ele>157.94</ele>
        <time>2015-11-08T10:59:16Z</time>
      </trkpt>
      <trkpt lat="48.90985" lon="0.20137">
        <ele>157.38</ele>
        <time>2015-11-08T10:59:22Z</time>
      </trkpt>
      <trkpt lat="48.90987" lon="0.2014">
        <ele>157.35</ele>
        <time>2015-11-08T10:59:42Z</time>
      </trkpt>
      <trkpt lat="48.9099" lon="0.20141">
        <ele>156.91</ele>
        <time>2015-11-08T11:00:05Z</time>
      </trkpt>
      <trkpt lat="48.91051" lon="0.20275">
        <ele>135.38</ele>
        <time>2015-11-08T11:00:37Z</time>
      </trkpt>
      <trkpt lat="48.91051" lon="0.2028">
        <ele>135.07</ele>
        <time>2015-11-08T11:00:38Z</time>
      </trkpt>
      <trkpt lat="48.9105" lon="0.20286">
        <ele>135.12</ele>
        <time>2015-11-08T11:00:39Z</time>
      </trkpt>
      <trkpt lat="48.91049" lon="0.20292">
        <ele>135.1</ele>
        <time>2015-11-08T11:00:40Z</time>
      </trkpt>
      <trkpt lat="48.91049" lon="0.20297">
        <ele>134.92</ele>
        <time>2015-11-08T11:00:41Z</time>
      </trkpt>
      <trkpt lat="48.91049" lon="0.20303">
        <ele>134.68</ele>
        <time>2015-11-08T11:00:42Z</time>
      </trkpt>
      <trkpt lat="48.91049" lon="0.20308">
        <ele>134.75</ele>
        <time>2015-11-08T11:00:43Z</time>
      </trkpt>
      <trkpt lat="48.91049" lon="0.20315">
        <ele>134.92</ele>
        <time>2015-11-08T11:00:44Z</time>
      </trkpt>
      <trkpt lat="48.91049" lon="0.2032">
        <ele>135.13</ele>
        <time>2015-11-08T11:00:45Z</time>
      </trkpt>
      <trkpt lat="48.91049" lon="0.20325">
        <ele>135.35</ele>
        <time>2015-11-08T11:00:46Z</time>
      </trkpt>
      <trkpt lat="48.91049" lon="0.2033">
        <ele>135.59</ele>
        <time>2015-11-08T11:00:47Z</time>
      </trkpt>
      <trkpt lat="48.91048" lon="0.20335">
        <ele>135.75</ele>
        <time>2015-11-08T11:00:48Z</time>
      </trkpt>
      <trkpt lat="48.91047" lon="0.2034">
        <ele>135.68</ele>
        <time>2015-11-08T11:00:49Z</time>
      </trkpt>
      <trkpt lat="48.91047" lon="0.20346">
        <ele>135.52</ele>
        <time>2015-11-08T11:00:50Z</time>
      </trkpt>
      <trkpt lat="48.91047" lon="0.20351">
        <ele>135.29</ele>
        <time>2015-11-08T11:00:51Z</time>
      </trkpt>
      <trkpt lat="48.91047" lon="0.20357">
        <ele>135.04</ele>
        <time>2015-11-08T11:00:52Z</time>
      </trkpt>
      <trkpt lat="48.91048" lon="0.20362">
        <ele>134.71</ele>
        <time>2015-11-08T11:00:53Z</time>
      </trkpt>
      <trkpt lat="48.91048" lon="0.20369">
        <ele>134.05</ele>
        <time>2015-11-08T11:00:54Z</time>
      </trkpt>
      <trkpt lat="48.91049" lon="0.20374">
        <ele>133.49</ele>
        <time>2015-11-08T11:00:55Z</time>
      </trkpt>
      <trkpt lat="48.9105" lon="0.20378">
        <ele>133.02</ele>
        <time>2015-11-08T11:00:56Z</time>
      </trkpt>
      <trkpt lat="48.91052" lon="0.20381">
        <ele>132.69</ele>
        <time>2015-11-08T11:01:07Z</time>
      </trkpt>
      <trkpt lat="48.91054" lon="0.20384">
        <ele>132.4</ele>
        <time>2015-11-08T11:01:46Z</time>
      </trkpt>
      <trkpt lat="48.91058" lon="0.20384">
        <ele>132.13</ele>
        <time>2015-11-08T11:01:50Z</time>
      </trkpt>
      <trkpt lat="48.91063" lon="0.2038">
        <ele>132</ele>
        <time>2015-11-08T11:01:52Z</time>
      </trkpt>
      <trkpt lat="48.91065" lon="0.20377">
        <ele>131.87</ele>
        <time>2015-11-08T11:01:53Z</time>
      </trkpt>
      <trkpt lat="48.91068" lon="0.20374">
        <ele>131.66</ele>
        <time>2015-11-08T11:01:54Z</time>
      </trkpt>
      <trkpt lat="48.91071" lon="0.20372">
        <ele>131.39</ele>
        <time>2015-11-08T11:01:55Z</time>
      </trkpt>
      <trkpt lat="48.91075" lon="0.20368">
        <ele>131.1</ele>
        <time>2015-11-08T11:01:56Z</time>
      </trkpt>
      <trkpt lat="48.91078" lon="0.20364">
        <ele>130.73</ele>
        <time>2015-11-08T11:01:57Z</time>
      </trkpt>
      <trkpt lat="48.91082" lon="0.20359">
        <ele>130.27</ele>
        <time>2015-11-08T11:01:58Z</time>
      </trkpt>
      <trkpt lat="48.91089" lon="0.20353">
        <ele>128.99</ele>
        <time>2015-11-08T11:01:59Z</time>
      </trkpt>
      <trkpt lat="48.91093" lon="0.20348">
        <ele>128.17</ele>
        <time>2015-11-08T11:02:00Z</time>
      </trkpt>
      <trkpt lat="48.91098" lon="0.20345">
        <ele>127.01</ele>
        <time>2015-11-08T11:02:01Z</time>
      </trkpt>
      <trkpt lat="48.91104" lon="0.20343">
        <ele>125.76</ele>
        <time>2015-11-08T11:02:02Z</time>
      </trkpt>
      <trkpt lat="48.91109" lon="0.20339">
        <ele>124.49</ele>
        <time>2015-11-08T11:02:03Z</time>
      </trkpt>
      <trkpt lat="48.91115" lon="0.20336">
        <ele>123.38</ele>
        <time>2015-11-08T11:02:04Z</time>
      </trkpt>
      <trkpt lat="48.91121" lon="0.20333">
        <ele>122.53</ele>
        <time>2015-11-08T11:02:05Z</time>
      </trkpt>
      <trkpt lat="48.91128" lon="0.20329">
        <ele>121.61</ele>
        <time>2015-11-08T11:02:06Z</time>
      </trkpt>
      <trkpt lat="48.91134" lon="0.20326">
        <ele>120.57</ele>
        <time>2015-11-08T11:02:07Z</time>
      </trkpt>
      <trkpt lat="48.9114" lon="0.20323">
        <ele>119.68</ele>
        <time>2015-11-08T11:02:08Z</time>
      </trkpt>
      <trkpt lat="48.91146" lon="0.2032">
        <ele>120.01</ele>
        <time>2015-11-08T11:02:09Z</time>
      </trkpt>
      <trkpt lat="48.91152" lon="0.20317">
        <ele>120.42</ele>
        <time>2015-11-08T11:02:10Z</time>
      </trkpt>
      <trkpt lat="48.91157" lon="0.20313">
        <ele>120.88</ele>
        <time>2015-11-08T11:02:11Z</time>
      </trkpt>
      <trkpt lat="48.91163" lon="0.20309">
        <ele>121.5</ele>
        <time>2015-11-08T11:02:12Z</time>
      </trkpt>
      <trkpt lat="48.91169" lon="0.20305">
        <ele>121.82</ele>
        <time>2015-11-08T11:02:13Z</time>
      </trkpt>
      <trkpt lat="48.91175" lon="0.20301">
        <ele>121.5</ele>
        <time>2015-11-08T11:02:14Z</time>
      </trkpt>
      <trkpt lat="48.91181" lon="0.20297">
        <ele>120.98</ele>
        <time>2015-11-08T11:02:15Z</time>
      </trkpt>
      <trkpt lat="48.91187" lon="0.20293">
        <ele>120.36</ele>
        <time>2015-11-08T11:02:16Z</time>
      </trkpt>
      <trkpt lat="48.91193" lon="0.20288">
        <ele>119.53</ele>
        <time>2015-11-08T11:02:17Z</time>
      </trkpt>
      <trkpt lat="48.91199" lon="0.20283">
        <ele>118.59</ele>
        <time>2015-11-08T11:02:18Z</time>
      </trkpt>
      <trkpt lat="48.91206" lon="0.20279">
        <ele>117.8</ele>
        <time>2015-11-08T11:02:19Z</time>
      </trkpt>
      <trkpt lat="48.91212" lon="0.20275">
        <ele>117.11</ele>
        <time>2015-11-08T11:02:20Z</time>
      </trkpt>
      <trkpt lat="48.91217" lon="0.2027">
        <ele>116.49</ele>
        <time>2015-11-08T11:02:21Z</time>
      </trkpt>
      <trkpt lat="48.91224" lon="0.20265">
        <ele>115.71</ele>
        <time>2015-11-08T11:02:22Z</time>
      </trkpt>
      <trkpt lat="48.91231" lon="0.2026">
        <ele>114.7</ele>
        <time>2015-11-08T11:02:23Z</time>
      </trkpt>
      <trkpt lat="48.91236" lon="0.20255">
        <ele>113.95</ele>
        <time>2015-11-08T11:02:24Z</time>
      </trkpt>
      <trkpt lat="48.91242" lon="0.2025">
        <ele>113.18</ele>
        <time>2015-11-08T11:02:25Z</time>
      </trkpt>
      <trkpt lat="48.91247" lon="0.20246">
        <ele>112.34</ele>
        <time>2015-11-08T11:02:26Z</time>
      </trkpt>
      <trkpt lat="48.91253" lon="0.20242">
        <ele>112.17</ele>
        <time>2015-11-08T11:02:27Z</time>
      </trkpt>
      <trkpt lat="48.91258" lon="0.20239">
        <ele>112.45</ele>
        <time>2015-11-08T11:02:28Z</time>
      </trkpt>
      <trkpt lat="48.91263" lon="0.20234">
        <ele>112.69</ele>
        <time>2015-11-08T11:02:29Z</time>
      </trkpt>
      <trkpt lat="48.91268" lon="0.2023">
        <ele>112.85</ele>
        <time>2015-11-08T11:02:30Z</time>
      </trkpt>
      <trkpt lat="48.91273" lon="0.20226">
        <ele>112.97</ele>
        <time>2015-11-08T11:02:31Z</time>
      </trkpt>
      <trkpt lat="48.91278" lon="0.20222">
        <ele>113</ele>
        <time>2015-11-08T11:02:32Z</time>
      </trkpt>
      <trkpt lat="48.91282" lon="0.20219">
        <ele>112.6</ele>
        <time>2015-11-08T11:02:33Z</time>
      </trkpt>
      <trkpt lat="48.91287" lon="0.20216">
        <ele>112.12</ele>
        <time>2015-11-08T11:02:34Z</time>
      </trkpt>
      <trkpt lat="48.9129" lon="0.20212">
        <ele>111.61</ele>
        <time>2015-11-08T11:02:35Z</time>
      </trkpt>
      <trkpt lat="48.91293" lon="0.20209">
        <ele>111.01</ele>
        <time>2015-11-08T11:02:36Z</time>
      </trkpt>
      <trkpt lat="48.91296" lon="0.2021">
        <ele>111.07</ele>
        <time>2015-11-08T11:02:37Z</time>
      </trkpt>
      <trkpt lat="48.91298" lon="0.20214">
        <ele>111.75</ele>
        <time>2015-11-08T11:02:38Z</time>
      </trkpt>
      <trkpt lat="48.913" lon="0.20219">
        <ele>112.52</ele>
        <time>2015-11-08T11:02:39Z</time>
      </trkpt>
      <trkpt lat="48.91303" lon="0.20227">
        <ele>113.47</ele>
        <time>2015-11-08T11:02:41Z</time>
      </trkpt>
      <trkpt lat="48.91304" lon="0.20231">
        <ele>113.88</ele>
        <time>2015-11-08T11:02:42Z</time>
      </trkpt>
      <trkpt lat="48.91302" lon="0.20234">
        <ele>114.16</ele>
        <time>2015-11-08T11:02:44Z</time>
      </trkpt>
      <trkpt lat="48.91304" lon="0.20237">
        <ele>114.55</ele>
        <time>2015-11-08T11:02:58Z</time>
      </trkpt>
      <trkpt lat="48.91305" lon="0.20242">
        <ele>115.07</ele>
        <time>2015-11-08T11:03:01Z</time>
      </trkpt>
      <trkpt lat="48.91306" lon="0.20247">
        <ele>115.64</ele>
        <time>2015-11-08T11:03:03Z</time>
      </trkpt>
      <trkpt lat="48.91308" lon="0.20253">
        <ele>116.31</ele>
        <time>2015-11-08T11:03:05Z</time>
      </trkpt>
      <trkpt lat="48.9131" lon="0.2026">
        <ele>116.84</ele>
        <time>2015-11-08T11:03:07Z</time>
      </trkpt>
      <trkpt lat="48.91311" lon="0.20267">
        <ele>117.28</ele>
        <time>2015-11-08T11:03:09Z</time>
      </trkpt>
      <trkpt lat="48.91314" lon="0.20274">
        <ele>117.98</ele>
        <time>2015-11-08T11:03:11Z</time>
      </trkpt>
      <trkpt lat="48.91315" lon="0.20278">
        <ele>118.37</ele>
        <time>2015-11-08T11:03:12Z</time>
      </trkpt>
      <trkpt lat="48.91316" lon="0.20282">
        <ele>118.46</ele>
        <time>2015-11-08T11:03:13Z</time>
      </trkpt>
      <trkpt lat="48.91318" lon="0.20286">
        <ele>118.59</ele>
        <time>2015-11-08T11:03:14Z</time>
      </trkpt>
      <trkpt lat="48.91319" lon="0.20291">
        <ele>118.73</ele>
        <time>2015-11-08T11:03:15Z</time>
      </trkpt>
      <trkpt lat="48.9132" lon="0.20295">
        <ele>118.8</ele>
        <time>2015-11-08T11:03:16Z</time>
      </trkpt>
      <trkpt lat="48.91321" lon="0.20299">
        <ele>118.85</ele>
        <time>2015-11-08T11:03:17Z</time>
      </trkpt>
      <trkpt lat="48.91322" lon="0.20304">
        <ele>118.91</ele>
        <time>2015-11-08T11:03:18Z</time>
      </trkpt>
      <trkpt lat="48.91323" lon="0.20308">
        <ele>118.83</ele>
        <time>2015-11-08T11:03:19Z</time>
      </trkpt>
      <trkpt lat="48.91324" lon="0.20313">
        <ele>118.66</ele>
        <time>2015-11-08T11:03:20Z</time>
      </trkpt>
      <trkpt lat="48.91325" lon="0.20317">
        <ele>118.46</ele>
        <time>2015-11-08T11:03:21Z</time>
      </trkpt>
      <trkpt lat="48.91327" lon="0.20321">
        <ele>118.25</ele>
        <time>2015-11-08T11:03:22Z</time>
      </trkpt>
      <trkpt lat="48.91328" lon="0.20325">
        <ele>118.06</ele>
        <time>2015-11-08T11:03:23Z</time>
      </trkpt>
      <trkpt lat="48.91329" lon="0.20329">
        <ele>117.83</ele>
        <time>2015-11-08T11:03:24Z</time>
      </trkpt>
      <trkpt lat="48.91331" lon="0.20333">
        <ele>117.65</ele>
        <time>2015-11-08T11:03:25Z</time>
      </trkpt>
      <trkpt lat="48.91332" lon="0.20338">
        <ele>117.71</ele>
        <time>2015-11-08T11:03:26Z</time>
      </trkpt>
      <trkpt lat="48.91334" lon="0.20342">
        <ele>117.79</ele>
        <time>2015-11-08T11:03:27Z</time>
      </trkpt>
      <trkpt lat="48.91335" lon="0.20346">
        <ele>117.88</ele>
        <time>2015-11-08T11:03:28Z</time>
      </trkpt>
      <trkpt lat="48.91336" lon="0.20353">
        <ele>117.94</ele>
        <time>2015-11-08T11:03:30Z</time>
      </trkpt>
      <trkpt lat="48.91338" lon="0.2036">
        <ele>118.08</ele>
        <time>2015-11-08T11:03:32Z</time>
      </trkpt>
      <trkpt lat="48.9134" lon="0.20366">
        <ele>117.95</ele>
        <time>2015-11-08T11:03:34Z</time>
      </trkpt>
      <trkpt lat="48.91342" lon="0.20371">
        <ele>117.99</ele>
        <time>2015-11-08T11:03:36Z</time>
      </trkpt>
      <trkpt lat="48.91344" lon="0.20376">
        <ele>118.08</ele>
        <time>2015-11-08T11:03:38Z</time>
      </trkpt>
      <trkpt lat="48.91345" lon="0.20383">
        <ele>117.81</ele>
        <time>2015-11-08T11:03:40Z</time>
      </trkpt>
      <trkpt lat="48.91346" lon="0.20389">
        <ele>117.63</ele>
        <time>2015-11-08T11:03:42Z</time>
      </trkpt>
      <trkpt lat="48.91347" lon="0.20395">
        <ele>117.58</ele>
        <time>2015-11-08T11:03:44Z</time>
      </trkpt>
      <trkpt lat="48.91348" lon="0.20403">
        <ele>117.53</ele>
        <time>2015-11-08T11:03:46Z</time>
      </trkpt>
      <trkpt lat="48.91349" lon="0.20407">
        <ele>117.43</ele>
        <time>2015-11-08T11:03:47Z</time>
      </trkpt>
      <trkpt lat="48.91349" lon="0.20412">
        <ele>117.27</ele>
        <time>2015-11-08T11:03:48Z</time>
      </trkpt>
      <trkpt lat="48.9135" lon="0.20416">
        <ele>117.19</ele>
        <time>2015-11-08T11:03:49Z</time>
      </trkpt>
      <trkpt lat="48.91351" lon="0.2042">
        <ele>117.3</ele>
        <time>2015-11-08T11:03:50Z</time>
      </trkpt>
      <trkpt lat="48.91352" lon="0.20424">
        <ele>117.45</ele>
        <time>2015-11-08T11:03:51Z</time>
      </trkpt>
      <trkpt lat="48.91353" lon="0.20429">
        <ele>117.51</ele>
        <time>2015-11-08T11:03:52Z</time>
      </trkpt>
      <trkpt lat="48.91354" lon="0.20433">
        <ele>117.51</ele>
        <time>2015-11-08T11:03:53Z</time>
      </trkpt>
      <trkpt lat="48.91355" lon="0.20437">
        <ele>117.5</ele>
        <time>2015-11-08T11:03:54Z</time>
      </trkpt>
      <trkpt lat="48.91356" lon="0.20441">
        <ele>117.45</ele>
        <time>2015-11-08T11:03:55Z</time>
      </trkpt>
      <trkpt lat="48.91357" lon="0.20445">
        <ele>117.4</ele>
        <time>2015-11-08T11:03:56Z</time>
      </trkpt>
      <trkpt lat="48.91358" lon="0.20449">
        <ele>117.52</ele>
        <time>2015-11-08T11:03:57Z</time>
      </trkpt>
      <trkpt lat="48.91359" lon="0.20453">
        <ele>117.69</ele>
        <time>2015-11-08T11:03:58Z</time>
      </trkpt>
      <trkpt lat="48.91361" lon="0.20457">
        <ele>117.93</ele>
        <time>2015-11-08T11:03:59Z</time>
      </trkpt>
      <trkpt lat="48.91362" lon="0.20461">
        <ele>118.11</ele>
        <time>2015-11-08T11:04:00Z</time>
      </trkpt>
      <trkpt lat="48.91364" lon="0.20464">
        <ele>118.24</ele>
        <time>2015-11-08T11:04:01Z</time>
      </trkpt>
      <trkpt lat="48.91365" lon="0.20468">
        <ele>118.31</ele>
        <time>2015-11-08T11:04:02Z</time>
      </trkpt>
      <trkpt lat="48.91366" lon="0.20472">
        <ele>118.35</ele>
        <time>2015-11-08T11:04:03Z</time>
      </trkpt>
      <trkpt lat="48.91367" lon="0.20476">
        <ele>117.95</ele>
        <time>2015-11-08T11:04:04Z</time>
      </trkpt>
      <trkpt lat="48.91368" lon="0.2048">
        <ele>117.59</ele>
        <time>2015-11-08T11:04:05Z</time>
      </trkpt>
      <trkpt lat="48.9137" lon="0.20484">
        <ele>117.24</ele>
        <time>2015-11-08T11:04:06Z</time>
      </trkpt>
      <trkpt lat="48.91371" lon="0.20487">
        <ele>116.94</ele>
        <time>2015-11-08T11:04:07Z</time>
      </trkpt>
      <trkpt lat="48.91372" lon="0.20491">
        <ele>116.65</ele>
        <time>2015-11-08T11:04:08Z</time>
      </trkpt>
      <trkpt lat="48.91374" lon="0.20495">
        <ele>116.43</ele>
        <time>2015-11-08T11:04:09Z</time>
      </trkpt>
      <trkpt lat="48.91375" lon="0.20498">
        <ele>116.24</ele>
        <time>2015-11-08T11:04:10Z</time>
      </trkpt>
      <trkpt lat="48.91377" lon="0.20502">
        <ele>116.07</ele>
        <time>2015-11-08T11:04:11Z</time>
      </trkpt>
      <trkpt lat="48.91378" lon="0.20505">
        <ele>115.89</ele>
        <time>2015-11-08T11:04:12Z</time>
      </trkpt>
      <trkpt lat="48.9138" lon="0.20509">
        <ele>115.67</ele>
        <time>2015-11-08T11:04:13Z</time>
      </trkpt>
      <trkpt lat="48.91382" lon="0.20512">
        <ele>115.45</ele>
        <time>2015-11-08T11:04:14Z</time>
      </trkpt>
      <trkpt lat="48.91384" lon="0.20516">
        <ele>115.15</ele>
        <time>2015-11-08T11:04:15Z</time>
      </trkpt>
      <trkpt lat="48.91385" lon="0.2052">
        <ele>114.76</ele>
        <time>2015-11-08T11:04:16Z</time>
      </trkpt>
      <trkpt lat="48.91386" lon="0.20527">
        <ele>113.89</ele>
        <time>2015-11-08T11:04:18Z</time>
      </trkpt>
      <trkpt lat="48.91386" lon="0.20533">
        <ele>113.59</ele>
        <time>2015-11-08T11:04:20Z</time>
      </trkpt>
      <trkpt lat="48.91388" lon="0.20539">
        <ele>113.46</ele>
        <time>2015-11-08T11:04:22Z</time>
      </trkpt>
      <trkpt lat="48.91388" lon="0.20546">
        <ele>113.2</ele>
        <time>2015-11-08T11:04:24Z</time>
      </trkpt>
      <trkpt lat="48.91387" lon="0.20552">
        <ele>112.85</ele>
        <time>2015-11-08T11:04:26Z</time>
      </trkpt>
      <trkpt lat="48.91388" lon="0.20559">
        <ele>112.52</ele>
        <time>2015-11-08T11:04:28Z</time>
      </trkpt>
      <trkpt lat="48.91388" lon="0.20568">
        <ele>112.08</ele>
        <time>2015-11-08T11:04:30Z</time>
      </trkpt>
      <trkpt lat="48.91389" lon="0.20572">
        <ele>111.83</ele>
        <time>2015-11-08T11:04:31Z</time>
      </trkpt>
      <trkpt lat="48.9139" lon="0.20576">
        <ele>111.53</ele>
        <time>2015-11-08T11:04:32Z</time>
      </trkpt>
      <trkpt lat="48.9139" lon="0.2058">
        <ele>111.25</ele>
        <time>2015-11-08T11:04:33Z</time>
      </trkpt>
      <trkpt lat="48.91391" lon="0.20585">
        <ele>111.03</ele>
        <time>2015-11-08T11:04:34Z</time>
      </trkpt>
      <trkpt lat="48.91391" lon="0.20589">
        <ele>110.9</ele>
        <time>2015-11-08T11:04:35Z</time>
      </trkpt>
      <trkpt lat="48.91393" lon="0.20596">
        <ele>110.66</ele>
        <time>2015-11-08T11:04:37Z</time>
      </trkpt>
      <trkpt lat="48.91394" lon="0.20604">
        <ele>110.45</ele>
        <time>2015-11-08T11:04:39Z</time>
      </trkpt>
      <trkpt lat="48.91396" lon="0.20611">
        <ele>110.25</ele>
        <time>2015-11-08T11:04:41Z</time>
      </trkpt>
      <trkpt lat="48.91397" lon="0.20618">
        <ele>110.23</ele>
        <time>2015-11-08T11:04:43Z</time>
      </trkpt>
      <trkpt lat="48.91399" lon="0.20625">
        <ele>110.19</ele>
        <time>2015-11-08T11:04:45Z</time>
      </trkpt>
      <trkpt lat="48.91401" lon="0.20632">
        <ele>110.12</ele>
        <time>2015-11-08T11:04:47Z</time>
      </trkpt>
      <trkpt lat="48.91404" lon="0.20638">
        <ele>110.02</ele>
        <time>2015-11-08T11:04:49Z</time>
      </trkpt>
      <trkpt lat="48.91408" lon="0.20643">
        <ele>109.85</ele>
        <time>2015-11-08T11:04:51Z</time>
      </trkpt>
      <trkpt lat="48.91411" lon="0.20648">
        <ele>109.67</ele>
        <time>2015-11-08T11:04:53Z</time>
      </trkpt>
      <trkpt lat="48.91414" lon="0.20653">
        <ele>109.51</ele>
        <time>2015-11-08T11:04:55Z</time>
      </trkpt>
      <trkpt lat="48.91418" lon="0.20657">
        <ele>109.31</ele>
        <time>2015-11-08T11:04:57Z</time>
      </trkpt>
      <trkpt lat="48.91421" lon="0.20662">
        <ele>109.1</ele>
        <time>2015-11-08T11:04:59Z</time>
      </trkpt>
      <trkpt lat="48.91424" lon="0.20666">
        <ele>109</ele>
        <time>2015-11-08T11:05:01Z</time>
      </trkpt>
      <trkpt lat="48.91427" lon="0.20672">
        <ele>109.07</ele>
        <time>2015-11-08T11:05:03Z</time>
      </trkpt>
      <trkpt lat="48.9143" lon="0.20677">
        <ele>109.17</ele>
        <time>2015-11-08T11:05:05Z</time>
      </trkpt>
      <trkpt lat="48.91469" lon="0.20739">
        <ele>114.39</ele>
        <time>2015-11-08T11:05:35Z</time>
      </trkpt>
      <trkpt lat="48.91472" lon="0.20741">
        <ele>114.64</ele>
        <time>2015-11-08T11:05:37Z</time>
      </trkpt>
      <trkpt lat="48.91476" lon="0.20744">
        <ele>114.47</ele>
        <time>2015-11-08T11:05:39Z</time>
      </trkpt>
      <trkpt lat="48.9148" lon="0.20747">
        <ele>114.35</ele>
        <time>2015-11-08T11:05:41Z</time>
      </trkpt>
      <trkpt lat="48.91483" lon="0.2075">
        <ele>114.24</ele>
        <time>2015-11-08T11:05:43Z</time>
      </trkpt>
      <trkpt lat="48.91485" lon="0.20755">
        <ele>113.98</ele>
        <time>2015-11-08T11:05:45Z</time>
      </trkpt>
      <trkpt lat="48.91488" lon="0.20759">
        <ele>113.67</ele>
        <time>2015-11-08T11:05:47Z</time>
      </trkpt>
      <trkpt lat="48.9149" lon="0.20764">
        <ele>113.38</ele>
        <time>2015-11-08T11:05:49Z</time>
      </trkpt>
      <trkpt lat="48.91492" lon="0.20769">
        <ele>113.07</ele>
        <time>2015-11-08T11:05:51Z</time>
      </trkpt>
      <trkpt lat="48.91493" lon="0.20774">
        <ele>112.82</ele>
        <time>2015-11-08T11:05:53Z</time>
      </trkpt>
      <trkpt lat="48.91495" lon="0.20779">
        <ele>112.7</ele>
        <time>2015-11-08T11:05:55Z</time>
      </trkpt>
      <trkpt lat="48.91496" lon="0.20784">
        <ele>113.06</ele>
        <time>2015-11-08T11:05:57Z</time>
      </trkpt>
      <trkpt lat="48.91498" lon="0.20789">
        <ele>113.46</ele>
        <time>2015-11-08T11:05:59Z</time>
      </trkpt>
      <trkpt lat="48.91499" lon="0.20795">
        <ele>113.89</ele>
        <time>2015-11-08T11:06:01Z</time>
      </trkpt>
      <trkpt lat="48.91501" lon="0.20799">
        <ele>114.35</ele>
        <time>2015-11-08T11:06:03Z</time>
      </trkpt>
      <trkpt lat="48.91505" lon="0.20803">
        <ele>114.83</ele>
        <time>2015-11-08T11:06:05Z</time>
      </trkpt>
      <trkpt lat="48.91509" lon="0.20805">
        <ele>115.25</ele>
        <time>2015-11-08T11:06:07Z</time>
      </trkpt>
      <trkpt lat="48.91513" lon="0.20806">
        <ele>115.59</ele>
        <time>2015-11-08T11:06:09Z</time>
      </trkpt>
      <trkpt lat="48.91517" lon="0.20808">
        <ele>116.03</ele>
        <time>2015-11-08T11:06:11Z</time>
      </trkpt>
      <trkpt lat="48.91521" lon="0.2081">
        <ele>116.53</ele>
        <time>2015-11-08T11:06:13Z</time>
      </trkpt>
      <trkpt lat="48.91524" lon="0.20812">
        <ele>117.06</ele>
        <time>2015-11-08T11:06:15Z</time>
      </trkpt>
      <trkpt lat="48.91528" lon="0.20812">
        <ele>117.5</ele>
        <time>2015-11-08T11:06:17Z</time>
      </trkpt>
      <trkpt lat="48.91532" lon="0.20814">
        <ele>117.94</ele>
        <time>2015-11-08T11:06:19Z</time>
      </trkpt>
      <trkpt lat="48.91535" lon="0.20816">
        <ele>118.58</ele>
        <time>2015-11-08T11:06:21Z</time>
      </trkpt>
      <trkpt lat="48.91538" lon="0.20819">
        <ele>119.36</ele>
        <time>2015-11-08T11:06:23Z</time>
      </trkpt>
      <trkpt lat="48.9154" lon="0.20824">
        <ele>120.21</ele>
        <time>2015-11-08T11:06:25Z</time>
      </trkpt>
      <trkpt lat="48.91542" lon="0.20829">
        <ele>121.25</ele>
        <time>2015-11-08T11:06:27Z</time>
      </trkpt>
      <trkpt lat="48.91543" lon="0.20835">
        <ele>122.17</ele>
        <time>2015-11-08T11:06:29Z</time>
      </trkpt>
      <trkpt lat="48.91544" lon="0.2084">
        <ele>122.76</ele>
        <time>2015-11-08T11:06:31Z</time>
      </trkpt>
      <trkpt lat="48.91546" lon="0.20845">
        <ele>123.4</ele>
        <time>2015-11-08T11:06:33Z</time>
      </trkpt>
      <trkpt lat="48.91548" lon="0.2085">
        <ele>124.02</ele>
        <time>2015-11-08T11:06:35Z</time>
      </trkpt>
      <trkpt lat="48.9155" lon="0.20853">
        <ele>124.6</ele>
        <time>2015-11-08T11:06:37Z</time>
      </trkpt>
      <trkpt lat="48.91553" lon="0.20856">
        <ele>125.05</ele>
        <time>2015-11-08T11:06:39Z</time>
      </trkpt>
      <trkpt lat="48.91556" lon="0.20858">
        <ele>125.53</ele>
        <time>2015-11-08T11:06:41Z</time>
      </trkpt>
      <trkpt lat="48.91559" lon="0.2086">
        <ele>125.86</ele>
        <time>2015-11-08T11:06:43Z</time>
      </trkpt>
      <trkpt lat="48.91562" lon="0.20863">
        <ele>126.17</ele>
        <time>2015-11-08T11:06:45Z</time>
      </trkpt>
      <trkpt lat="48.91564" lon="0.20866">
        <ele>126.58</ele>
        <time>2015-11-08T11:06:47Z</time>
      </trkpt>
      <trkpt lat="48.91567" lon="0.2087">
        <ele>126.99</ele>
        <time>2015-11-08T11:06:49Z</time>
      </trkpt>
      <trkpt lat="48.9157" lon="0.20874">
        <ele>127.38</ele>
        <time>2015-11-08T11:06:51Z</time>
      </trkpt>
      <trkpt lat="48.91572" lon="0.20877">
        <ele>127.7</ele>
        <time>2015-11-08T11:06:53Z</time>
      </trkpt>
      <trkpt lat="48.91575" lon="0.2088">
        <ele>128.06</ele>
        <time>2015-11-08T11:06:55Z</time>
      </trkpt>
      <trkpt lat="48.91578" lon="0.20883">
        <ele>128.34</ele>
        <time>2015-11-08T11:06:57Z</time>
      </trkpt>
      <trkpt lat="48.9158" lon="0.20886">
        <ele>128.71</ele>
        <time>2015-11-08T11:06:59Z</time>
      </trkpt>
      <trkpt lat="48.91582" lon="0.2089">
        <ele>129.13</ele>
        <time>2015-11-08T11:07:01Z</time>
      </trkpt>
      <trkpt lat="48.91584" lon="0.20894">
        <ele>129.6</ele>
        <time>2015-11-08T11:07:03Z</time>
      </trkpt>
      <trkpt lat="48.91586" lon="0.20898">
        <ele>130.08</ele>
        <time>2015-11-08T11:07:05Z</time>
      </trkpt>
      <trkpt lat="48.91587" lon="0.20902">
        <ele>130.59</ele>
        <time>2015-11-08T11:07:07Z</time>
      </trkpt>
      <trkpt lat="48.91589" lon="0.20905">
        <ele>131.07</ele>
        <time>2015-11-08T11:07:09Z</time>
      </trkpt>
      <trkpt lat="48.91591" lon="0.20909">
        <ele>131.52</ele>
        <time>2015-11-08T11:07:11Z</time>
      </trkpt>
      <trkpt lat="48.91593" lon="0.20913">
        <ele>131.97</ele>
        <time>2015-11-08T11:07:13Z</time>
      </trkpt>
      <trkpt lat="48.91594" lon="0.20917">
        <ele>132.41</ele>
        <time>2015-11-08T11:07:15Z</time>
      </trkpt>
      <trkpt lat="48.91596" lon="0.20921">
        <ele>132.82</ele>
        <time>2015-11-08T11:07:17Z</time>
      </trkpt>
      <trkpt lat="48.91598" lon="0.20925">
        <ele>133.28</ele>
        <time>2015-11-08T11:07:19Z</time>
      </trkpt>
      <trkpt lat="48.916" lon="0.20929">
        <ele>133.75</ele>
        <time>2015-11-08T11:07:21Z</time>
      </trkpt>
      <trkpt lat="48.91602" lon="0.20933">
        <ele>134.25</ele>
        <time>2015-11-08T11:07:23Z</time>
      </trkpt>
      <trkpt lat="48.91604" lon="0.20937">
        <ele>134.73</ele>
        <time>2015-11-08T11:07:25Z</time>
      </trkpt>
      <trkpt lat="48.91604" lon="0.20941">
        <ele>135.17</ele>
        <time>2015-11-08T11:07:27Z</time>
      </trkpt>
      <trkpt lat="48.91606" lon="0.20944">
        <ele>135.64</ele>
        <time>2015-11-08T11:07:35Z</time>
      </trkpt>
      <trkpt lat="48.91609" lon="0.20947">
        <ele>136.36</ele>
        <time>2015-11-08T11:07:39Z</time>
      </trkpt>
      <trkpt lat="48.91611" lon="0.20951">
        <ele>137.17</ele>
        <time>2015-11-08T11:07:43Z</time>
      </trkpt>
      <trkpt lat="48.91613" lon="0.20954">
        <ele>137.96</ele>
        <time>2015-11-08T11:07:47Z</time>
      </trkpt>
      <trkpt lat="48.91616" lon="0.20957">
        <ele>138.82</ele>
        <time>2015-11-08T11:07:51Z</time>
      </trkpt>
      <trkpt lat="48.91619" lon="0.2096">
        <ele>139.67</ele>
        <time>2015-11-08T11:07:55Z</time>
      </trkpt>
      <trkpt lat="48.91622" lon="0.20958">
        <ele>139.88</ele>
        <time>2015-11-08T11:07:59Z</time>
      </trkpt>
      <trkpt lat="48.91624" lon="0.20962">
        <ele>140.78</ele>
        <time>2015-11-08T11:09:52Z</time>
      </trkpt>
      <trkpt lat="48.91625" lon="0.20967">
        <ele>141.72</ele>
        <time>2015-11-08T11:09:55Z</time>
      </trkpt>
      <trkpt lat="48.91626" lon="0.20971">
        <ele>142.44</ele>
        <time>2015-11-08T11:09:58Z</time>
      </trkpt>
      <trkpt lat="48.91627" lon="0.20976">
        <ele>143.16</ele>
        <time>2015-11-08T11:10:06Z</time>
      </trkpt>
      <trkpt lat="48.9163" lon="0.2099">
        <ele>144.97</ele>
        <time>2015-11-08T11:10:37Z</time>
      </trkpt>
      <trkpt lat="48.91626" lon="0.20992">
        <ele>144.99</ele>
        <time>2015-11-08T11:10:39Z</time>
      </trkpt>
      <trkpt lat="48.91629" lon="0.20995">
        <ele>145.45</ele>
        <time>2015-11-08T11:10:56Z</time>
      </trkpt>
      <trkpt lat="48.91629" lon="0.21">
        <ele>146.02</ele>
        <time>2015-11-08T11:10:59Z</time>
      </trkpt>
      <trkpt lat="48.9163" lon="0.21005">
        <ele>146.25</ele>
        <time>2015-11-08T11:11:02Z</time>
      </trkpt>
      <trkpt lat="48.91631" lon="0.21011">
        <ele>146.49</ele>
        <time>2015-11-08T11:11:05Z</time>
      </trkpt>
      <trkpt lat="48.91632" lon="0.21016">
        <ele>146.7</ele>
        <time>2015-11-08T11:11:08Z</time>
      </trkpt>
      <trkpt lat="48.91632" lon="0.21021">
        <ele>146.92</ele>
        <time>2015-11-08T11:11:11Z</time>
      </trkpt>
      <trkpt lat="48.91632" lon="0.21025">
        <ele>147.13</ele>
        <time>2015-11-08T11:11:14Z</time>
      </trkpt>
      <trkpt lat="48.91631" lon="0.2103">
        <ele>147.36</ele>
        <time>2015-11-08T11:11:17Z</time>
      </trkpt>
      <trkpt lat="48.91631" lon="0.21035">
        <ele>147.55</ele>
        <time>2015-11-08T11:11:20Z</time>
      </trkpt>
      <trkpt lat="48.91629" lon="0.2104">
        <ele>147.8</ele>
        <time>2015-11-08T11:11:23Z</time>
      </trkpt>
      <trkpt lat="48.91627" lon="0.21046">
        <ele>148.06</ele>
        <time>2015-11-08T11:11:26Z</time>
      </trkpt>
      <trkpt lat="48.91632" lon="0.21044">
        <ele>147.82</ele>
        <time>2015-11-08T11:11:38Z</time>
      </trkpt>
      <trkpt lat="48.91636" lon="0.21043">
        <ele>147.65</ele>
        <time>2015-11-08T11:11:40Z</time>
      </trkpt>
      <trkpt lat="48.9164" lon="0.21045">
        <ele>147.47</ele>
        <time>2015-11-08T11:11:42Z</time>
      </trkpt>
      <trkpt lat="48.91643" lon="0.21048">
        <ele>147.15</ele>
        <time>2015-11-08T11:11:44Z</time>
      </trkpt>
      <trkpt lat="48.91645" lon="0.21051">
        <ele>147</ele>
        <time>2015-11-08T11:11:46Z</time>
      </trkpt>
      <trkpt lat="48.91647" lon="0.21056">
        <ele>147.07</ele>
        <time>2015-11-08T11:11:49Z</time>
      </trkpt>
      <trkpt lat="48.91649" lon="0.21059">
        <ele>147.35</ele>
        <time>2015-11-08T11:11:52Z</time>
      </trkpt>
      <trkpt lat="48.9165" lon="0.21064">
        <ele>147.85</ele>
        <time>2015-11-08T11:11:55Z</time>
      </trkpt>
      <trkpt lat="48.91652" lon="0.21068">
        <ele>148.29</ele>
        <time>2015-11-08T11:11:58Z</time>
      </trkpt>
      <trkpt lat="48.91654" lon="0.21073">
        <ele>148.93</ele>
        <time>2015-11-08T11:12:01Z</time>
      </trkpt>
      <trkpt lat="48.91656" lon="0.21075">
        <ele>149.34</ele>
        <time>2015-11-08T11:12:03Z</time>
      </trkpt>
      <trkpt lat="48.91659" lon="0.21079">
        <ele>149.89</ele>
        <time>2015-11-08T11:12:05Z</time>
      </trkpt>
      <trkpt lat="48.91661" lon="0.21081">
        <ele>150.41</ele>
        <time>2015-11-08T11:12:07Z</time>
      </trkpt>
      <trkpt lat="48.91664" lon="0.21085">
        <ele>151.25</ele>
        <time>2015-11-08T11:12:12Z</time>
      </trkpt>
      <trkpt lat="48.91666" lon="0.21089">
        <ele>152.15</ele>
        <time>2015-11-08T11:12:15Z</time>
      </trkpt>
      <trkpt lat="48.91669" lon="0.21093">
        <ele>152.99</ele>
        <time>2015-11-08T11:12:18Z</time>
      </trkpt>
      <trkpt lat="48.91671" lon="0.21096">
        <ele>153.55</ele>
        <time>2015-11-08T11:12:20Z</time>
      </trkpt>
      <trkpt lat="48.91673" lon="0.211">
        <ele>154.45</ele>
        <time>2015-11-08T11:12:23Z</time>
      </trkpt>
      <trkpt lat="48.91675" lon="0.21104">
        <ele>155.2</ele>
        <time>2015-11-08T11:12:26Z</time>
      </trkpt>
      <trkpt lat="48.91677" lon="0.21107">
        <ele>155.81</ele>
        <time>2015-11-08T11:12:29Z</time>
      </trkpt>
      <trkpt lat="48.91679" lon="0.21111">
        <ele>156.43</ele>
        <time>2015-11-08T11:12:31Z</time>
      </trkpt>
      <trkpt lat="48.91682" lon="0.21114">
        <ele>156.96</ele>
        <time>2015-11-08T11:12:33Z</time>
      </trkpt>
      <trkpt lat="48.91685" lon="0.21118">
        <ele>157.58</ele>
        <time>2015-11-08T11:12:35Z</time>
      </trkpt>
      <trkpt lat="48.91688" lon="0.21122">
        <ele>158.37</ele>
        <time>2015-11-08T11:12:37Z</time>
      </trkpt>
      <trkpt lat="48.91692" lon="0.21126">
        <ele>159.29</ele>
        <time>2015-11-08T11:12:39Z</time>
      </trkpt>
      <trkpt lat="48.91696" lon="0.2113">
        <ele>160.28</ele>
        <time>2015-11-08T11:12:41Z</time>
      </trkpt>
      <trkpt lat="48.91698" lon="0.21134">
        <ele>161.34</ele>
        <time>2015-11-08T11:12:43Z</time>
      </trkpt>
      <trkpt lat="48.91702" lon="0.21139">
        <ele>162.46</ele>
        <time>2015-11-08T11:12:47Z</time>
      </trkpt>
      <trkpt lat="48.91704" lon="0.21142">
        <ele>163.2</ele>
        <time>2015-11-08T11:12:49Z</time>
      </trkpt>
      <trkpt lat="48.91706" lon="0.21145">
        <ele>163.83</ele>
        <time>2015-11-08T11:12:51Z</time>
      </trkpt>
      <trkpt lat="48.91708" lon="0.21148">
        <ele>164.4</ele>
        <time>2015-11-08T11:12:53Z</time>
      </trkpt>
      <trkpt lat="48.91711" lon="0.2115">
        <ele>164.95</ele>
        <time>2015-11-08T11:12:55Z</time>
      </trkpt>
      <trkpt lat="48.91714" lon="0.21153">
        <ele>165.57</ele>
        <time>2015-11-08T11:12:57Z</time>
      </trkpt>
      <trkpt lat="48.91717" lon="0.21156">
        <ele>166.25</ele>
        <time>2015-11-08T11:12:59Z</time>
      </trkpt>
      <trkpt lat="48.9172" lon="0.21159">
        <ele>166.86</ele>
        <time>2015-11-08T11:13:01Z</time>
      </trkpt>
      <trkpt lat="48.91723" lon="0.21163">
        <ele>167.49</ele>
        <time>2015-11-08T11:13:03Z</time>
      </trkpt>
      <trkpt lat="48.91726" lon="0.21166">
        <ele>167.99</ele>
        <time>2015-11-08T11:13:05Z</time>
      </trkpt>
      <trkpt lat="48.91729" lon="0.21167">
        <ele>168.33</ele>
        <time>2015-11-08T11:13:07Z</time>
      </trkpt>
      <trkpt lat="48.91731" lon="0.21169">
        <ele>168.62</ele>
        <time>2015-11-08T11:13:09Z</time>
      </trkpt>
      <trkpt lat="48.91734" lon="0.21171">
        <ele>168.95</ele>
        <time>2015-11-08T11:13:11Z</time>
      </trkpt>
      <trkpt lat="48.91738" lon="0.21173">
        <ele>169.35</ele>
        <time>2015-11-08T11:13:14Z</time>
      </trkpt>
      <trkpt lat="48.9174" lon="0.21176">
        <ele>169.83</ele>
        <time>2015-11-08T11:13:18Z</time>
      </trkpt>
      <trkpt lat="48.91744" lon="0.21179">
        <ele>170.2</ele>
        <time>2015-11-08T11:13:21Z</time>
      </trkpt>
      <trkpt lat="48.91746" lon="0.21181">
        <ele>170.49</ele>
        <time>2015-11-08T11:13:23Z</time>
      </trkpt>
      <trkpt lat="48.91749" lon="0.21183">
        <ele>170.75</ele>
        <time>2015-11-08T11:13:25Z</time>
      </trkpt>
      <trkpt lat="48.91752" lon="0.21187">
        <ele>171.03</ele>
        <time>2015-11-08T11:13:28Z</time>
      </trkpt>
      <trkpt lat="48.91754" lon="0.2119">
        <ele>171.17</ele>
        <time>2015-11-08T11:13:30Z</time>
      </trkpt>
      <trkpt lat="48.91758" lon="0.21194">
        <ele>171.33</ele>
        <time>2015-11-08T11:13:32Z</time>
      </trkpt>
      <trkpt lat="48.91762" lon="0.21197">
        <ele>171.34</ele>
        <time>2015-11-08T11:13:34Z</time>
      </trkpt>
      <trkpt lat="48.91765" lon="0.212">
        <ele>171.44</ele>
        <time>2015-11-08T11:13:36Z</time>
      </trkpt>
      <trkpt lat="48.91767" lon="0.21204">
        <ele>171.74</ele>
        <time>2015-11-08T11:13:38Z</time>
      </trkpt>
      <trkpt lat="48.91769" lon="0.21207">
        <ele>172.06</ele>
        <time>2015-11-08T11:13:40Z</time>
      </trkpt>
      <trkpt lat="48.91771" lon="0.2121">
        <ele>172.29</ele>
        <time>2015-11-08T11:13:42Z</time>
      </trkpt>
      <trkpt lat="48.91774" lon="0.21212">
        <ele>172.52</ele>
        <time>2015-11-08T11:13:44Z</time>
      </trkpt>
      <trkpt lat="48.91777" lon="0.21215">
        <ele>172.99</ele>
        <time>2015-11-08T11:13:47Z</time>
      </trkpt>
      <trkpt lat="48.91779" lon="0.21218">
        <ele>173.53</ele>
        <time>2015-11-08T11:13:49Z</time>
      </trkpt>
      <trkpt lat="48.91782" lon="0.2122">
        <ele>174.13</ele>
        <time>2015-11-08T11:13:51Z</time>
      </trkpt>
      <trkpt lat="48.91785" lon="0.21221">
        <ele>174.62</ele>
        <time>2015-11-08T11:13:56Z</time>
      </trkpt>
      <trkpt lat="48.91788" lon="0.21224">
        <ele>175.3</ele>
        <time>2015-11-08T11:14:01Z</time>
      </trkpt>
      <trkpt lat="48.91789" lon="0.21227">
        <ele>175.98</ele>
        <time>2015-11-08T11:14:03Z</time>
      </trkpt>
      <trkpt lat="48.91792" lon="0.21231">
        <ele>177.01</ele>
        <time>2015-11-08T11:14:05Z</time>
      </trkpt>
      <trkpt lat="48.91794" lon="0.21237">
        <ele>178.18</ele>
        <time>2015-11-08T11:14:07Z</time>
      </trkpt>
      <trkpt lat="48.91796" lon="0.21241">
        <ele>178.98</ele>
        <time>2015-11-08T11:14:09Z</time>
      </trkpt>
      <trkpt lat="48.91797" lon="0.21244">
        <ele>179.8</ele>
        <time>2015-11-08T11:14:17Z</time>
      </trkpt>
      <trkpt lat="48.91798" lon="0.2124">
        <ele>179.19</ele>
        <time>2015-11-08T11:15:40Z</time>
      </trkpt>
      <trkpt lat="48.91801" lon="0.21239">
        <ele>179.37</ele>
        <time>2015-11-08T11:16:14Z</time>
      </trkpt>
      <trkpt lat="48.91803" lon="0.21242">
        <ele>180.13</ele>
        <time>2015-11-08T11:16:17Z</time>
      </trkpt>
      <trkpt lat="48.918" lon="0.21245">
        <ele>180.39</ele>
        <time>2015-11-08T11:16:20Z</time>
      </trkpt>
      <trkpt lat="48.91798" lon="0.21246">
        <ele>180.24</ele>
        <time>2015-11-08T11:16:22Z</time>
      </trkpt>
      <trkpt lat="48.91795" lon="0.21246">
        <ele>179.82</ele>
        <time>2015-11-08T11:16:25Z</time>
      </trkpt>
      <trkpt lat="48.91792" lon="0.21243">
        <ele>178.88</ele>
        <time>2015-11-08T11:16:29Z</time>
      </trkpt>
      <trkpt lat="48.91789" lon="0.21242">
        <ele>178.44</ele>
        <time>2015-11-08T11:16:34Z</time>
      </trkpt>
      <trkpt lat="48.91787" lon="0.2124">
        <ele>177.78</ele>
        <time>2015-11-08T11:16:42Z</time>
      </trkpt>
      <trkpt lat="48.91785" lon="0.21238">
        <ele>177.17</ele>
        <time>2015-11-08T11:16:47Z</time>
      </trkpt>
      <trkpt lat="48.91782" lon="0.21237">
        <ele>176.67</ele>
        <time>2015-11-08T11:16:51Z</time>
      </trkpt>
      <trkpt lat="48.91779" lon="0.21236">
        <ele>176.13</ele>
        <time>2015-11-08T11:16:58Z</time>
      </trkpt>
      <trkpt lat="48.91776" lon="0.21238">
        <ele>176.18</ele>
        <time>2015-11-08T11:17:38Z</time>
      </trkpt>
      <trkpt lat="48.91774" lon="0.2124">
        <ele>176.28</ele>
        <time>2015-11-08T11:17:40Z</time>
      </trkpt>
      <trkpt lat="48.91771" lon="0.21243">
        <ele>176.4</ele>
        <time>2015-11-08T11:17:42Z</time>
      </trkpt>
      <trkpt lat="48.91768" lon="0.21245">
        <ele>176.43</ele>
        <time>2015-11-08T11:17:44Z</time>
      </trkpt>
      <trkpt lat="48.91765" lon="0.21247">
        <ele>176.24</ele>
        <time>2015-11-08T11:17:46Z</time>
      </trkpt>
      <trkpt lat="48.91761" lon="0.21249">
        <ele>176.02</ele>
        <time>2015-11-08T11:17:48Z</time>
      </trkpt>
      <trkpt lat="48.91757" lon="0.21252">
        <ele>175.98</ele>
        <time>2015-11-08T11:17:50Z</time>
      </trkpt>
      <trkpt lat="48.91753" lon="0.21254">
        <ele>175.94</ele>
        <time>2015-11-08T11:17:52Z</time>
      </trkpt>
      <trkpt lat="48.91749" lon="0.21257">
        <ele>176.03</ele>
        <time>2015-11-08T11:17:54Z</time>
      </trkpt>
      <trkpt lat="48.91745" lon="0.21259">
        <ele>176.6</ele>
        <time>2015-11-08T11:17:56Z</time>
      </trkpt>
      <trkpt lat="48.91741" lon="0.21263">
        <ele>177.34</ele>
        <time>2015-11-08T11:17:58Z</time>
      </trkpt>
      <trkpt lat="48.91738" lon="0.21268">
        <ele>178.14</ele>
        <time>2015-11-08T11:18:00Z</time>
      </trkpt>
      <trkpt lat="48.91735" lon="0.21273">
        <ele>178.94</ele>
        <time>2015-11-08T11:18:02Z</time>
      </trkpt>
      <trkpt lat="48.91732" lon="0.21277">
        <ele>179.59</ele>
        <time>2015-11-08T11:18:04Z</time>
      </trkpt>
      <trkpt lat="48.91729" lon="0.21281">
        <ele>180.07</ele>
        <time>2015-11-08T11:18:06Z</time>
      </trkpt>
      <trkpt lat="48.91727" lon="0.21284">
        <ele>180.5</ele>
        <time>2015-11-08T11:18:08Z</time>
      </trkpt>
      <trkpt lat="48.91725" lon="0.21288">
        <ele>181.03</ele>
        <time>2015-11-08T11:18:10Z</time>
      </trkpt>
      <trkpt lat="48.91722" lon="0.21292">
        <ele>181.36</ele>
        <time>2015-11-08T11:18:12Z</time>
      </trkpt>
      <trkpt lat="48.91719" lon="0.21297">
        <ele>180.98</ele>
        <time>2015-11-08T11:18:14Z</time>
      </trkpt>
      <trkpt lat="48.91717" lon="0.21301">
        <ele>180.93</ele>
        <time>2015-11-08T11:18:16Z</time>
      </trkpt>
      <trkpt lat="48.91715" lon="0.21306">
        <ele>180.82</ele>
        <time>2015-11-08T11:18:18Z</time>
      </trkpt>
      <trkpt lat="48.91711" lon="0.2131">
        <ele>180.32</ele>
        <time>2015-11-08T11:18:20Z</time>
      </trkpt>
      <trkpt lat="48.91707" lon="0.21315">
        <ele>179.76</ele>
        <time>2015-11-08T11:18:22Z</time>
      </trkpt>
      <trkpt lat="48.91705" lon="0.21318">
        <ele>179.5</ele>
        <time>2015-11-08T11:18:23Z</time>
      </trkpt>
      <trkpt lat="48.917" lon="0.21322">
        <ele>179.02</ele>
        <time>2015-11-08T11:18:25Z</time>
      </trkpt>
      <trkpt lat="48.91697" lon="0.21328">
        <ele>178.9</ele>
        <time>2015-11-08T11:18:27Z</time>
      </trkpt>
      <trkpt lat="48.91695" lon="0.21331">
        <ele>178.87</ele>
        <time>2015-11-08T11:18:28Z</time>
      </trkpt>
      <trkpt lat="48.91692" lon="0.21337">
        <ele>179.25</ele>
        <time>2015-11-08T11:18:30Z</time>
      </trkpt>
      <trkpt lat="48.9169" lon="0.21344">
        <ele>180</ele>
        <time>2015-11-08T11:18:32Z</time>
      </trkpt>
      <trkpt lat="48.91688" lon="0.21351">
        <ele>180.56</ele>
        <time>2015-11-08T11:18:34Z</time>
      </trkpt>
      <trkpt lat="48.91685" lon="0.21357">
        <ele>181.05</ele>
        <time>2015-11-08T11:18:36Z</time>
      </trkpt>
      <trkpt lat="48.91682" lon="0.21363">
        <ele>181.46</ele>
        <time>2015-11-08T11:18:38Z</time>
      </trkpt>
      <trkpt lat="48.91679" lon="0.21369">
        <ele>182.02</ele>
        <time>2015-11-08T11:18:40Z</time>
      </trkpt>
      <trkpt lat="48.91677" lon="0.21372">
        <ele>182.28</ele>
        <time>2015-11-08T11:18:41Z</time>
      </trkpt>
      <trkpt lat="48.91675" lon="0.21375">
        <ele>182.44</ele>
        <time>2015-11-08T11:18:42Z</time>
      </trkpt>
      <trkpt lat="48.91673" lon="0.21378">
        <ele>182.65</ele>
        <time>2015-11-08T11:18:43Z</time>
      </trkpt>
      <trkpt lat="48.91671" lon="0.21382">
        <ele>182.89</ele>
        <time>2015-11-08T11:18:44Z</time>
      </trkpt>
      <trkpt lat="48.9167" lon="0.21385">
        <ele>183.08</ele>
        <time>2015-11-08T11:18:45Z</time>
      </trkpt>
      <trkpt lat="48.91668" lon="0.21389">
        <ele>183.38</ele>
        <time>2015-11-08T11:18:46Z</time>
      </trkpt>
      <trkpt lat="48.91667" lon="0.21393">
        <ele>183.7</ele>
        <time>2015-11-08T11:18:47Z</time>
      </trkpt>
      <trkpt lat="48.91667" lon="0.21397">
        <ele>184.11</ele>
        <time>2015-11-08T11:18:48Z</time>
      </trkpt>
      <trkpt lat="48.91664" lon="0.21404">
        <ele>184.73</ele>
        <time>2015-11-08T11:18:50Z</time>
      </trkpt>
      <trkpt lat="48.91662" lon="0.21411">
        <ele>185.26</ele>
        <time>2015-11-08T11:18:52Z</time>
      </trkpt>
      <trkpt lat="48.9166" lon="0.21415">
        <ele>185.6</ele>
        <time>2015-11-08T11:18:53Z</time>
      </trkpt>
      <trkpt lat="48.91658" lon="0.21422">
        <ele>186.43</ele>
        <time>2015-11-08T11:18:55Z</time>
      </trkpt>
      <trkpt lat="48.91655" lon="0.21428">
        <ele>186.89</ele>
        <time>2015-11-08T11:18:57Z</time>
      </trkpt>
      <trkpt lat="48.91652" lon="0.21435">
        <ele>187.33</ele>
        <time>2015-11-08T11:18:59Z</time>
      </trkpt>
      <trkpt lat="48.91651" lon="0.21439">
        <ele>187.74</ele>
        <time>2015-11-08T11:19:00Z</time>
      </trkpt>
      <trkpt lat="48.91651" lon="0.21447">
        <ele>188.63</ele>
        <time>2015-11-08T11:19:02Z</time>
      </trkpt>
      <trkpt lat="48.91649" lon="0.21454">
        <ele>189.12</ele>
        <time>2015-11-08T11:19:04Z</time>
      </trkpt>
      <trkpt lat="48.91648" lon="0.21462">
        <ele>189.41</ele>
        <time>2015-11-08T11:19:06Z</time>
      </trkpt>
      <trkpt lat="48.91647" lon="0.21466">
        <ele>189.58</ele>
        <time>2015-11-08T11:19:07Z</time>
      </trkpt>
      <trkpt lat="48.91646" lon="0.2147">
        <ele>189.74</ele>
        <time>2015-11-08T11:19:08Z</time>
      </trkpt>
      <trkpt lat="48.91645" lon="0.21478">
        <ele>189.34</ele>
        <time>2015-11-08T11:19:10Z</time>
      </trkpt>
      <trkpt lat="48.91643" lon="0.21485">
        <ele>188.79</ele>
        <time>2015-11-08T11:19:12Z</time>
      </trkpt>
      <trkpt lat="48.91643" lon="0.21492">
        <ele>188.53</ele>
        <time>2015-11-08T11:19:14Z</time>
      </trkpt>
      <trkpt lat="48.91643" lon="0.21501">
        <ele>188.59</ele>
        <time>2015-11-08T11:19:16Z</time>
      </trkpt>
      <trkpt lat="48.91642" lon="0.21508">
        <ele>188.5</ele>
        <time>2015-11-08T11:19:18Z</time>
      </trkpt>
      <trkpt lat="48.91641" lon="0.21515">
        <ele>188.29</ele>
        <time>2015-11-08T11:19:20Z</time>
      </trkpt>
      <trkpt lat="48.9164" lon="0.21521">
        <ele>188.04</ele>
        <time>2015-11-08T11:19:22Z</time>
      </trkpt>
      <trkpt lat="48.91638" lon="0.21529">
        <ele>187.4</ele>
        <time>2015-11-08T11:19:24Z</time>
      </trkpt>
      <trkpt lat="48.91637" lon="0.21536">
        <ele>186.93</ele>
        <time>2015-11-08T11:19:26Z</time>
      </trkpt>
      <trkpt lat="48.91637" lon="0.2154">
        <ele>186.9</ele>
        <time>2015-11-08T11:19:27Z</time>
      </trkpt>
      <trkpt lat="48.91637" lon="0.21545">
        <ele>186.96</ele>
        <time>2015-11-08T11:19:28Z</time>
      </trkpt>
      <trkpt lat="48.91637" lon="0.21549">
        <ele>187.06</ele>
        <time>2015-11-08T11:19:29Z</time>
      </trkpt>
      <trkpt lat="48.91637" lon="0.21554">
        <ele>187.13</ele>
        <time>2015-11-08T11:19:30Z</time>
      </trkpt>
      <trkpt lat="48.91637" lon="0.21559">
        <ele>187.06</ele>
        <time>2015-11-08T11:19:31Z</time>
      </trkpt>
      <trkpt lat="48.91636" lon="0.21563">
        <ele>186.84</ele>
        <time>2015-11-08T11:19:32Z</time>
      </trkpt>
      <trkpt lat="48.91636" lon="0.21568">
        <ele>186.48</ele>
        <time>2015-11-08T11:19:33Z</time>
      </trkpt>
      <trkpt lat="48.91635" lon="0.21573">
        <ele>186.38</ele>
        <time>2015-11-08T11:19:34Z</time>
      </trkpt>
      <trkpt lat="48.91636" lon="0.21578">
        <ele>186.43</ele>
        <time>2015-11-08T11:19:35Z</time>
      </trkpt>
      <trkpt lat="48.91636" lon="0.21582">
        <ele>186.54</ele>
        <time>2015-11-08T11:19:36Z</time>
      </trkpt>
      <trkpt lat="48.91636" lon="0.21587">
        <ele>186.4</ele>
        <time>2015-11-08T11:19:37Z</time>
      </trkpt>
      <trkpt lat="48.91636" lon="0.21595">
        <ele>185.82</ele>
        <time>2015-11-08T11:19:39Z</time>
      </trkpt>
      <trkpt lat="48.91636" lon="0.216">
        <ele>185.6</ele>
        <time>2015-11-08T11:19:40Z</time>
      </trkpt>
      <trkpt lat="48.91637" lon="0.21604">
        <ele>185.51</ele>
        <time>2015-11-08T11:19:41Z</time>
      </trkpt>
      <trkpt lat="48.91637" lon="0.21612">
        <ele>185.33</ele>
        <time>2015-11-08T11:19:43Z</time>
      </trkpt>
      <trkpt lat="48.91637" lon="0.21616">
        <ele>185.21</ele>
        <time>2015-11-08T11:19:44Z</time>
      </trkpt>
      <trkpt lat="48.91638" lon="0.21621">
        <ele>185.26</ele>
        <time>2015-11-08T11:19:45Z</time>
      </trkpt>
      <trkpt lat="48.91639" lon="0.21626">
        <ele>185.45</ele>
        <time>2015-11-08T11:19:46Z</time>
      </trkpt>
      <trkpt lat="48.91639" lon="0.2163">
        <ele>185.42</ele>
        <time>2015-11-08T11:19:47Z</time>
      </trkpt>
      <trkpt lat="48.9164" lon="0.21635">
        <ele>185.37</ele>
        <time>2015-11-08T11:19:48Z</time>
      </trkpt>
      <trkpt lat="48.9164" lon="0.2164">
        <ele>185.07</ele>
        <time>2015-11-08T11:19:49Z</time>
      </trkpt>
      <trkpt lat="48.9164" lon="0.21645">
        <ele>184.18</ele>
        <time>2015-11-08T11:19:50Z</time>
      </trkpt>
      <trkpt lat="48.9164" lon="0.2165">
        <ele>183.43</ele>
        <time>2015-11-08T11:19:51Z</time>
      </trkpt>
      <trkpt lat="48.91641" lon="0.21654">
        <ele>182.81</ele>
        <time>2015-11-08T11:19:52Z</time>
      </trkpt>
      <trkpt lat="48.91642" lon="0.21658">
        <ele>182.29</ele>
        <time>2015-11-08T11:19:53Z</time>
      </trkpt>
      <trkpt lat="48.91642" lon="0.21662">
        <ele>181.76</ele>
        <time>2015-11-08T11:19:54Z</time>
      </trkpt>
      <trkpt lat="48.91642" lon="0.21667">
        <ele>181.08</ele>
        <time>2015-11-08T11:19:55Z</time>
      </trkpt>
      <trkpt lat="48.91642" lon="0.21674">
        <ele>180.37</ele>
        <time>2015-11-08T11:19:57Z</time>
      </trkpt>
      <trkpt lat="48.91643" lon="0.21681">
        <ele>179.96</ele>
        <time>2015-11-08T11:19:59Z</time>
      </trkpt>
      <trkpt lat="48.91644" lon="0.21688">
        <ele>179.73</ele>
        <time>2015-11-08T11:20:01Z</time>
      </trkpt>
      <trkpt lat="48.91646" lon="0.21694">
        <ele>179.97</ele>
        <time>2015-11-08T11:20:03Z</time>
      </trkpt>
      <trkpt lat="48.91648" lon="0.21702">
        <ele>180.55</ele>
        <time>2015-11-08T11:20:05Z</time>
      </trkpt>
      <trkpt lat="48.91649" lon="0.21706">
        <ele>180.87</ele>
        <time>2015-11-08T11:20:06Z</time>
      </trkpt>
      <trkpt lat="48.9165" lon="0.21709">
        <ele>181.25</ele>
        <time>2015-11-08T11:20:07Z</time>
      </trkpt>
      <trkpt lat="48.91652" lon="0.21713">
        <ele>181.48</ele>
        <time>2015-11-08T11:20:08Z</time>
      </trkpt>
      <trkpt lat="48.91684" lon="0.21839">
        <ele>191.47</ele>
        <time>2015-11-08T11:20:39Z</time>
      </trkpt>
      <trkpt lat="48.91687" lon="0.21842">
        <ele>192.48</ele>
        <time>2015-11-08T11:20:40Z</time>
      </trkpt>
      <trkpt lat="48.9169" lon="0.21846">
        <ele>193.07</ele>
        <time>2015-11-08T11:20:41Z</time>
      </trkpt>
      <trkpt lat="48.91692" lon="0.21849">
        <ele>193.61</ele>
        <time>2015-11-08T11:20:42Z</time>
      </trkpt>
      <trkpt lat="48.91694" lon="0.21855">
        <ele>193.53</ele>
        <time>2015-11-08T11:20:44Z</time>
      </trkpt>
      <trkpt lat="48.91697" lon="0.21861">
        <ele>193.66</ele>
        <time>2015-11-08T11:20:46Z</time>
      </trkpt>
      <trkpt lat="48.917" lon="0.21867">
        <ele>193.38</ele>
        <time>2015-11-08T11:20:48Z</time>
      </trkpt>
      <trkpt lat="48.91703" lon="0.21874">
        <ele>193.05</ele>
        <time>2015-11-08T11:20:50Z</time>
      </trkpt>
      <trkpt lat="48.91706" lon="0.21881">
        <ele>192.68</ele>
        <time>2015-11-08T11:20:52Z</time>
      </trkpt>
      <trkpt lat="48.91708" lon="0.21887">
        <ele>192.27</ele>
        <time>2015-11-08T11:20:54Z</time>
      </trkpt>
      <trkpt lat="48.91711" lon="0.21894">
        <ele>191.95</ele>
        <time>2015-11-08T11:20:56Z</time>
      </trkpt>
      <trkpt lat="48.91713" lon="0.21897">
        <ele>191.9</ele>
        <time>2015-11-08T11:20:57Z</time>
      </trkpt>
      <trkpt lat="48.91716" lon="0.21903">
        <ele>191.71</ele>
        <time>2015-11-08T11:20:59Z</time>
      </trkpt>
      <trkpt lat="48.91719" lon="0.2191">
        <ele>191.35</ele>
        <time>2015-11-08T11:21:01Z</time>
      </trkpt>
      <trkpt lat="48.91721" lon="0.21917">
        <ele>190.75</ele>
        <time>2015-11-08T11:21:03Z</time>
      </trkpt>
      <trkpt lat="48.91723" lon="0.21925">
        <ele>190.23</ele>
        <time>2015-11-08T11:21:05Z</time>
      </trkpt>
      <trkpt lat="48.91724" lon="0.21929">
        <ele>189.96</ele>
        <time>2015-11-08T11:21:06Z</time>
      </trkpt>
      <trkpt lat="48.91725" lon="0.21933">
        <ele>189.79</ele>
        <time>2015-11-08T11:21:07Z</time>
      </trkpt>
      <trkpt lat="48.91726" lon="0.21936">
        <ele>189.71</ele>
        <time>2015-11-08T11:21:08Z</time>
      </trkpt>
      <trkpt lat="48.91729" lon="0.21943">
        <ele>189.45</ele>
        <time>2015-11-08T11:21:10Z</time>
      </trkpt>
      <trkpt lat="48.91732" lon="0.2195">
        <ele>189.61</ele>
        <time>2015-11-08T11:21:12Z</time>
      </trkpt>
      <trkpt lat="48.91733" lon="0.21958">
        <ele>189.75</ele>
        <time>2015-11-08T11:21:14Z</time>
      </trkpt>
      <trkpt lat="48.91734" lon="0.21965">
        <ele>190.08</ele>
        <time>2015-11-08T11:21:16Z</time>
      </trkpt>
      <trkpt lat="48.91738" lon="0.21971">
        <ele>191.02</ele>
        <time>2015-11-08T11:21:18Z</time>
      </trkpt>
      <trkpt lat="48.9174" lon="0.21974">
        <ele>191.48</ele>
        <time>2015-11-08T11:21:19Z</time>
      </trkpt>
      <trkpt lat="48.91742" lon="0.21977">
        <ele>191.81</ele>
        <time>2015-11-08T11:21:20Z</time>
      </trkpt>
      <trkpt lat="48.91745" lon="0.21984">
        <ele>192.4</ele>
        <time>2015-11-08T11:21:22Z</time>
      </trkpt>
      <trkpt lat="48.91747" lon="0.21987">
        <ele>192.78</ele>
        <time>2015-11-08T11:21:23Z</time>
      </trkpt>
      <trkpt lat="48.91749" lon="0.2199">
        <ele>193.13</ele>
        <time>2015-11-08T11:21:24Z</time>
      </trkpt>
      <trkpt lat="48.91751" lon="0.21993">
        <ele>193.31</ele>
        <time>2015-11-08T11:21:25Z</time>
      </trkpt>
      <trkpt lat="48.91753" lon="0.22001">
        <ele>193.4</ele>
        <time>2015-11-08T11:21:27Z</time>
      </trkpt>
      <trkpt lat="48.91755" lon="0.22008">
        <ele>193.35</ele>
        <time>2015-11-08T11:21:29Z</time>
      </trkpt>
      <trkpt lat="48.91757" lon="0.22015">
        <ele>193.21</ele>
        <time>2015-11-08T11:21:31Z</time>
      </trkpt>
      <trkpt lat="48.91759" lon="0.22019">
        <ele>193.16</ele>
        <time>2015-11-08T11:21:32Z</time>
      </trkpt>
      <trkpt lat="48.91761" lon="0.22025">
        <ele>192.94</ele>
        <time>2015-11-08T11:21:34Z</time>
      </trkpt>
      <trkpt lat="48.91764" lon="0.22025">
        <ele>193.21</ele>
        <time>2015-11-08T11:21:42Z</time>
      </trkpt>
      <trkpt lat="48.91767" lon="0.22027">
        <ele>193.23</ele>
        <time>2015-11-08T11:21:49Z</time>
      </trkpt>
      <trkpt lat="48.91766" lon="0.22031">
        <ele>192.74</ele>
        <time>2015-11-08T11:21:53Z</time>
      </trkpt>
      <trkpt lat="48.91763" lon="0.2203">
        <ele>192.74</ele>
        <time>2015-11-08T11:21:56Z</time>
      </trkpt>
      <trkpt lat="48.91763" lon="0.22034">
        <ele>192.25</ele>
        <time>2015-11-08T11:22:19Z</time>
      </trkpt>
      <trkpt lat="48.91764" lon="0.22038">
        <ele>191.82</ele>
        <time>2015-11-08T11:22:36Z</time>
      </trkpt>
      <trkpt lat="48.91763" lon="0.22043">
        <ele>191.28</ele>
        <time>2015-11-08T11:22:41Z</time>
      </trkpt>
      <trkpt lat="48.9176" lon="0.22045">
        <ele>190.84</ele>
        <time>2015-11-08T11:22:44Z</time>
      </trkpt>
      <trkpt lat="48.91756" lon="0.22044">
        <ele>190.61</ele>
        <time>2015-11-08T11:22:46Z</time>
      </trkpt>
      <trkpt lat="48.91751" lon="0.22042">
        <ele>190.51</ele>
        <time>2015-11-08T11:22:48Z</time>
      </trkpt>
      <trkpt lat="48.91748" lon="0.22042">
        <ele>190.49</ele>
        <time>2015-11-08T11:22:49Z</time>
      </trkpt>
      <trkpt lat="48.91745" lon="0.22041">
        <ele>190.51</ele>
        <time>2015-11-08T11:22:50Z</time>
      </trkpt>
      <trkpt lat="48.91742" lon="0.2204">
        <ele>190.51</ele>
        <time>2015-11-08T11:22:51Z</time>
      </trkpt>
      <trkpt lat="48.91738" lon="0.22038">
        <ele>190.51</ele>
        <time>2015-11-08T11:22:52Z</time>
      </trkpt>
      <trkpt lat="48.91735" lon="0.22037">
        <ele>190.47</ele>
        <time>2015-11-08T11:22:53Z</time>
      </trkpt>
      <trkpt lat="48.91732" lon="0.22038">
        <ele>190.32</ele>
        <time>2015-11-08T11:22:54Z</time>
      </trkpt>
      <trkpt lat="48.91729" lon="0.22041">
        <ele>190.15</ele>
        <time>2015-11-08T11:22:55Z</time>
      </trkpt>
      <trkpt lat="48.91728" lon="0.22046">
        <ele>190.01</ele>
        <time>2015-11-08T11:22:56Z</time>
      </trkpt>
      <trkpt lat="48.91727" lon="0.22052">
        <ele>189.89</ele>
        <time>2015-11-08T11:22:57Z</time>
      </trkpt>
      <trkpt lat="48.91727" lon="0.22059">
        <ele>189.29</ele>
        <time>2015-11-08T11:22:58Z</time>
      </trkpt>
      <trkpt lat="48.91729" lon="0.22071">
        <ele>187.38</ele>
        <time>2015-11-08T11:22:59Z</time>
      </trkpt>
      <trkpt lat="48.91731" lon="0.22078">
        <ele>186.11</ele>
        <time>2015-11-08T11:23:00Z</time>
      </trkpt>
      <trkpt lat="48.91733" lon="0.22088">
        <ele>184.36</ele>
        <time>2015-11-08T11:23:01Z</time>
      </trkpt>
      <trkpt lat="48.91736" lon="0.22097">
        <ele>182.49</ele>
        <time>2015-11-08T11:23:02Z</time>
      </trkpt>
      <trkpt lat="48.91737" lon="0.22105">
        <ele>181.14</ele>
        <time>2015-11-08T11:23:03Z</time>
      </trkpt>
      <trkpt lat="48.91737" lon="0.22111">
        <ele>180.11</ele>
        <time>2015-11-08T11:23:04Z</time>
      </trkpt>
      <trkpt lat="48.91736" lon="0.22115">
        <ele>179.19</ele>
        <time>2015-11-08T11:23:05Z</time>
      </trkpt>
      <trkpt lat="48.91734" lon="0.22125">
        <ele>177.08</ele>
        <time>2015-11-08T11:23:06Z</time>
      </trkpt>
      <trkpt lat="48.91732" lon="0.22133">
        <ele>175.29</ele>
        <time>2015-11-08T11:23:07Z</time>
      </trkpt>
      <trkpt lat="48.9173" lon="0.22142">
        <ele>173.5</ele>
        <time>2015-11-08T11:23:08Z</time>
      </trkpt>
      <trkpt lat="48.91726" lon="0.22147">
        <ele>172.6</ele>
        <time>2015-11-08T11:23:09Z</time>
      </trkpt>
      <trkpt lat="48.9172" lon="0.22153">
        <ele>171.03</ele>
        <time>2015-11-08T11:23:10Z</time>
      </trkpt>
      <trkpt lat="48.91715" lon="0.22155">
        <ele>169.26</ele>
        <time>2015-11-08T11:23:11Z</time>
      </trkpt>
      <trkpt lat="48.91709" lon="0.22159">
        <ele>167.36</ele>
        <time>2015-11-08T11:23:12Z</time>
      </trkpt>
      <trkpt lat="48.91704" lon="0.2216">
        <ele>165.67</ele>
        <time>2015-11-08T11:23:13Z</time>
      </trkpt>
      <trkpt lat="48.91699" lon="0.22163">
        <ele>163.95</ele>
        <time>2015-11-08T11:23:14Z</time>
      </trkpt>
      <trkpt lat="48.91691" lon="0.22168">
        <ele>161.4</ele>
        <time>2015-11-08T11:23:15Z</time>
      </trkpt>
      <trkpt lat="48.91686" lon="0.22168">
        <ele>160.7</ele>
        <time>2015-11-08T11:23:16Z</time>
      </trkpt>
      <trkpt lat="48.91682" lon="0.22169">
        <ele>160.01</ele>
        <time>2015-11-08T11:23:17Z</time>
      </trkpt>
      <trkpt lat="48.91676" lon="0.22173">
        <ele>158.99</ele>
        <time>2015-11-08T11:23:18Z</time>
      </trkpt>
      <trkpt lat="48.91673" lon="0.22176">
        <ele>158.37</ele>
        <time>2015-11-08T11:23:19Z</time>
      </trkpt>
      <trkpt lat="48.91671" lon="0.22175">
        <ele>158.05</ele>
        <time>2015-11-08T11:23:21Z</time>
      </trkpt>
      <trkpt lat="48.91667" lon="0.22175">
        <ele>157.42</ele>
        <time>2015-11-08T11:23:25Z</time>
      </trkpt>
      <trkpt lat="48.91666" lon="0.2217">
        <ele>157.67</ele>
        <time>2015-11-08T11:23:26Z</time>
      </trkpt>
      <trkpt lat="48.91662" lon="0.22172">
        <ele>157.33</ele>
        <time>2015-11-08T11:23:28Z</time>
      </trkpt>
      <trkpt lat="48.9166" lon="0.22179">
        <ele>156.62</ele>
        <time>2015-11-08T11:23:30Z</time>
      </trkpt>
      <trkpt lat="48.91659" lon="0.22187">
        <ele>155.98</ele>
        <time>2015-11-08T11:23:31Z</time>
      </trkpt>
      <trkpt lat="48.91657" lon="0.22194">
        <ele>155.31</ele>
        <time>2015-11-08T11:23:32Z</time>
      </trkpt>
      <trkpt lat="48.91652" lon="0.22201">
        <ele>154.38</ele>
        <time>2015-11-08T11:23:33Z</time>
      </trkpt>
      <trkpt lat="48.91648" lon="0.22207">
        <ele>153.41</ele>
        <time>2015-11-08T11:23:34Z</time>
      </trkpt>
      <trkpt lat="48.91643" lon="0.22214">
        <ele>152.31</ele>
        <time>2015-11-08T11:23:35Z</time>
      </trkpt>
      <trkpt lat="48.91637" lon="0.22218">
        <ele>151.48</ele>
        <time>2015-11-08T11:23:36Z</time>
      </trkpt>
      <trkpt lat="48.91631" lon="0.2222">
        <ele>151.21</ele>
        <time>2015-11-08T11:23:37Z</time>
      </trkpt>
      <trkpt lat="48.91626" lon="0.22221">
        <ele>151.07</ele>
        <time>2015-11-08T11:23:38Z</time>
      </trkpt>
      <trkpt lat="48.91621" lon="0.22219">
        <ele>151.22</ele>
        <time>2015-11-08T11:23:39Z</time>
      </trkpt>
      <trkpt lat="48.91616" lon="0.22215">
        <ele>151.33</ele>
        <time>2015-11-08T11:23:40Z</time>
      </trkpt>
      <trkpt lat="48.91611" lon="0.22212">
        <ele>151.25</ele>
        <time>2015-11-08T11:23:41Z</time>
      </trkpt>
      <trkpt lat="48.91606" lon="0.22208">
        <ele>150.66</ele>
        <time>2015-11-08T11:23:42Z</time>
      </trkpt>
      <trkpt lat="48.91601" lon="0.22201">
        <ele>150</ele>
        <time>2015-11-08T11:23:43Z</time>
      </trkpt>
      <trkpt lat="48.91599" lon="0.22195">
        <ele>149.77</ele>
        <time>2015-11-08T11:23:44Z</time>
      </trkpt>
      <trkpt lat="48.91595" lon="0.2219">
        <ele>149.07</ele>
        <time>2015-11-08T11:23:45Z</time>
      </trkpt>
      <trkpt lat="48.91591" lon="0.22185">
        <ele>148.47</ele>
        <time>2015-11-08T11:23:46Z</time>
      </trkpt>
      <trkpt lat="48.91589" lon="0.2218">
        <ele>148.02</ele>
        <time>2015-11-08T11:23:47Z</time>
      </trkpt>
      <trkpt lat="48.91587" lon="0.22176">
        <ele>147.64</ele>
        <time>2015-11-08T11:23:48Z</time>
      </trkpt>
      <trkpt lat="48.91585" lon="0.22172">
        <ele>147.25</ele>
        <time>2015-11-08T11:23:49Z</time>
      </trkpt>
      <trkpt lat="48.91581" lon="0.22169">
        <ele>146.84</ele>
        <time>2015-11-08T11:23:51Z</time>
      </trkpt>
      <trkpt lat="48.91576" lon="0.22165">
        <ele>146.52</ele>
        <time>2015-11-08T11:23:53Z</time>
      </trkpt>
      <trkpt lat="48.91572" lon="0.2216">
        <ele>146.24</ele>
        <time>2015-11-08T11:23:55Z</time>
      </trkpt>
      <trkpt lat="48.91568" lon="0.22157">
        <ele>145.87</ele>
        <time>2015-11-08T11:23:57Z</time>
      </trkpt>
      <trkpt lat="48.91563" lon="0.22155">
        <ele>145.38</ele>
        <time>2015-11-08T11:23:59Z</time>
      </trkpt>
      <trkpt lat="48.91559" lon="0.22153">
        <ele>144.92</ele>
        <time>2015-11-08T11:24:01Z</time>
      </trkpt>
      <trkpt lat="48.91556" lon="0.22151">
        <ele>144.48</ele>
        <time>2015-11-08T11:24:03Z</time>
      </trkpt>
      <trkpt lat="48.91553" lon="0.22149">
        <ele>144.54</ele>
        <time>2015-11-08T11:24:05Z</time>
      </trkpt>
      <trkpt lat="48.9155" lon="0.22146">
        <ele>144.56</ele>
        <time>2015-11-08T11:24:07Z</time>
      </trkpt>
      <trkpt lat="48.91548" lon="0.22142">
        <ele>144.47</ele>
        <time>2015-11-08T11:24:09Z</time>
      </trkpt>
      <trkpt lat="48.91545" lon="0.22139">
        <ele>144.39</ele>
        <time>2015-11-08T11:24:11Z</time>
      </trkpt>
      <trkpt lat="48.91542" lon="0.22136">
        <ele>144.35</ele>
        <time>2015-11-08T11:24:13Z</time>
      </trkpt>
      <trkpt lat="48.91539" lon="0.22134">
        <ele>144.32</ele>
        <time>2015-11-08T11:24:15Z</time>
      </trkpt>
      <trkpt lat="48.91535" lon="0.22132">
        <ele>144.29</ele>
        <time>2015-11-08T11:24:17Z</time>
      </trkpt>
      <trkpt lat="48.91531" lon="0.22129">
        <ele>144.24</ele>
        <time>2015-11-08T11:24:19Z</time>
      </trkpt>
      <trkpt lat="48.91527" lon="0.22126">
        <ele>144.16</ele>
        <time>2015-11-08T11:24:21Z</time>
      </trkpt>
      <trkpt lat="48.91525" lon="0.22124">
        <ele>144.87</ele>
        <time>2015-11-08T11:24:23Z</time>
      </trkpt>
      <trkpt lat="48.91521" lon="0.22123">
        <ele>145.73</ele>
        <time>2015-11-08T11:24:25Z</time>
      </trkpt>
      <trkpt lat="48.91518" lon="0.22122">
        <ele>146.59</ele>
        <time>2015-11-08T11:24:27Z</time>
      </trkpt>
      <trkpt lat="48.91515" lon="0.22121">
        <ele>147.52</ele>
        <time>2015-11-08T11:24:29Z</time>
      </trkpt>
      <trkpt lat="48.91511" lon="0.22121">
        <ele>148.39</ele>
        <time>2015-11-08T11:24:31Z</time>
      </trkpt>
      <trkpt lat="48.91508" lon="0.2212">
        <ele>149.28</ele>
        <time>2015-11-08T11:24:33Z</time>
      </trkpt>
      <trkpt lat="48.91504" lon="0.22119">
        <ele>150.3</ele>
        <time>2015-11-08T11:24:35Z</time>
      </trkpt>
      <trkpt lat="48.91501" lon="0.22119">
        <ele>151.36</ele>
        <time>2015-11-08T11:24:37Z</time>
      </trkpt>
      <trkpt lat="48.91497" lon="0.22118">
        <ele>151.96</ele>
        <time>2015-11-08T11:24:39Z</time>
      </trkpt>
      <trkpt lat="48.91493" lon="0.22118">
        <ele>152.47</ele>
        <time>2015-11-08T11:24:41Z</time>
      </trkpt>
      <trkpt lat="48.9149" lon="0.22118">
        <ele>152.98</ele>
        <time>2015-11-08T11:24:43Z</time>
      </trkpt>
      <trkpt lat="48.91486" lon="0.22118">
        <ele>153.53</ele>
        <time>2015-11-08T11:24:45Z</time>
      </trkpt>
      <trkpt lat="48.91482" lon="0.22119">
        <ele>154.11</ele>
        <time>2015-11-08T11:24:47Z</time>
      </trkpt>
      <trkpt lat="48.91479" lon="0.2212">
        <ele>154.69</ele>
        <time>2015-11-08T11:24:49Z</time>
      </trkpt>
      <trkpt lat="48.91475" lon="0.22119">
        <ele>155.19</ele>
        <time>2015-11-08T11:24:51Z</time>
      </trkpt>
      <trkpt lat="48.91471" lon="0.22119">
        <ele>155.76</ele>
        <time>2015-11-08T11:24:53Z</time>
      </trkpt>
      <trkpt lat="48.91467" lon="0.22118">
        <ele>156.51</ele>
        <time>2015-11-08T11:24:55Z</time>
      </trkpt>
      <trkpt lat="48.91464" lon="0.22116">
        <ele>157.12</ele>
        <time>2015-11-08T11:24:57Z</time>
      </trkpt>
      <trkpt lat="48.9146" lon="0.22115">
        <ele>157.89</ele>
        <time>2015-11-08T11:24:59Z</time>
      </trkpt>
      <trkpt lat="48.91456" lon="0.22115">
        <ele>158.69</ele>
        <time>2015-11-08T11:25:01Z</time>
      </trkpt>
      <trkpt lat="48.91453" lon="0.22116">
        <ele>159.37</ele>
        <time>2015-11-08T11:25:03Z</time>
      </trkpt>
      <trkpt lat="48.9145" lon="0.22117">
        <ele>160.01</ele>
        <time>2015-11-08T11:25:05Z</time>
      </trkpt>
      <trkpt lat="48.91447" lon="0.22117">
        <ele>160.75</ele>
        <time>2015-11-08T11:25:08Z</time>
      </trkpt>
      <trkpt lat="48.91445" lon="0.22138">
        <ele>161.95</ele>
        <time>2015-11-08T11:25:39Z</time>
      </trkpt>
      <trkpt lat="48.91439" lon="0.22137">
        <ele>162.7</ele>
        <time>2015-11-08T11:25:40Z</time>
      </trkpt>
      <trkpt lat="48.91436" lon="0.22138">
        <ele>163.12</ele>
        <time>2015-11-08T11:25:41Z</time>
      </trkpt>
      <trkpt lat="48.91433" lon="0.22138">
        <ele>163.56</ele>
        <time>2015-11-08T11:25:42Z</time>
      </trkpt>
      <trkpt lat="48.91431" lon="0.22139">
        <ele>164.01</ele>
        <time>2015-11-08T11:25:46Z</time>
      </trkpt>
      <trkpt lat="48.91431" lon="0.22145">
        <ele>164.24</ele>
        <time>2015-11-08T11:25:49Z</time>
      </trkpt>
      <trkpt lat="48.91432" lon="0.2215">
        <ele>164.39</ele>
        <time>2015-11-08T11:25:51Z</time>
      </trkpt>
      <trkpt lat="48.91433" lon="0.22156">
        <ele>164.61</ele>
        <time>2015-11-08T11:25:53Z</time>
      </trkpt>
      <trkpt lat="48.91434" lon="0.22163">
        <ele>164.88</ele>
        <time>2015-11-08T11:25:55Z</time>
      </trkpt>
      <trkpt lat="48.91435" lon="0.22169">
        <ele>165.19</ele>
        <time>2015-11-08T11:25:57Z</time>
      </trkpt>
      <trkpt lat="48.91437" lon="0.22174">
        <ele>165.52</ele>
        <time>2015-11-08T11:25:59Z</time>
      </trkpt>
      <trkpt lat="48.91438" lon="0.2218">
        <ele>165.91</ele>
        <time>2015-11-08T11:26:01Z</time>
      </trkpt>
      <trkpt lat="48.91439" lon="0.22185">
        <ele>166.31</ele>
        <time>2015-11-08T11:26:03Z</time>
      </trkpt>
      <trkpt lat="48.91441" lon="0.22191">
        <ele>166.84</ele>
        <time>2015-11-08T11:26:05Z</time>
      </trkpt>
      <trkpt lat="48.91442" lon="0.22197">
        <ele>167.68</ele>
        <time>2015-11-08T11:26:07Z</time>
      </trkpt>
      <trkpt lat="48.91443" lon="0.22203">
        <ele>168.77</ele>
        <time>2015-11-08T11:26:09Z</time>
      </trkpt>
      <trkpt lat="48.91446" lon="0.22205">
        <ele>169.17</ele>
        <time>2015-11-08T11:26:11Z</time>
      </trkpt>
      <trkpt lat="48.91449" lon="0.22206">
        <ele>169.32</ele>
        <time>2015-11-08T11:26:13Z</time>
      </trkpt>
      <trkpt lat="48.9145" lon="0.2221">
        <ele>170.14</ele>
        <time>2015-11-08T11:26:15Z</time>
      </trkpt>
      <trkpt lat="48.91451" lon="0.22215">
        <ele>171.27</ele>
        <time>2015-11-08T11:26:17Z</time>
      </trkpt>
      <trkpt lat="48.91451" lon="0.2222">
        <ele>172.56</ele>
        <time>2015-11-08T11:26:19Z</time>
      </trkpt>
      <trkpt lat="48.91453" lon="0.22226">
        <ele>173.58</ele>
        <time>2015-11-08T11:26:21Z</time>
      </trkpt>
      <trkpt lat="48.91454" lon="0.2223">
        <ele>174.51</ele>
        <time>2015-11-08T11:26:23Z</time>
      </trkpt>
      <trkpt lat="48.91456" lon="0.22235">
        <ele>175.48</ele>
        <time>2015-11-08T11:26:25Z</time>
      </trkpt>
      <trkpt lat="48.91457" lon="0.2224">
        <ele>176.54</ele>
        <time>2015-11-08T11:26:27Z</time>
      </trkpt>
      <trkpt lat="48.91459" lon="0.22246">
        <ele>177.7</ele>
        <time>2015-11-08T11:26:29Z</time>
      </trkpt>
      <trkpt lat="48.9146" lon="0.22251">
        <ele>178.67</ele>
        <time>2015-11-08T11:26:31Z</time>
      </trkpt>
      <trkpt lat="48.91462" lon="0.22257">
        <ele>178.73</ele>
        <time>2015-11-08T11:26:33Z</time>
      </trkpt>
      <trkpt lat="48.91464" lon="0.22262">
        <ele>178.78</ele>
        <time>2015-11-08T11:26:35Z</time>
      </trkpt>
      <trkpt lat="48.91465" lon="0.22267">
        <ele>178.75</ele>
        <time>2015-11-08T11:26:37Z</time>
      </trkpt>
      <trkpt lat="48.91466" lon="0.22273">
        <ele>178.73</ele>
        <time>2015-11-08T11:26:39Z</time>
      </trkpt>
      <trkpt lat="48.91468" lon="0.22278">
        <ele>178.66</ele>
        <time>2015-11-08T11:26:41Z</time>
      </trkpt>
      <trkpt lat="48.91469" lon="0.22284">
        <ele>178.51</ele>
        <time>2015-11-08T11:26:43Z</time>
      </trkpt>
      <trkpt lat="48.9147" lon="0.22289">
        <ele>178.36</ele>
        <time>2015-11-08T11:26:45Z</time>
      </trkpt>
      <trkpt lat="48.91471" lon="0.22295">
        <ele>178.26</ele>
        <time>2015-11-08T11:26:47Z</time>
      </trkpt>
      <trkpt lat="48.91472" lon="0.223">
        <ele>178.18</ele>
        <time>2015-11-08T11:26:49Z</time>
      </trkpt>
      <trkpt lat="48.91473" lon="0.22306">
        <ele>177.88</ele>
        <time>2015-11-08T11:26:51Z</time>
      </trkpt>
      <trkpt lat="48.91474" lon="0.22311">
        <ele>177.77</ele>
        <time>2015-11-08T11:26:53Z</time>
      </trkpt>
      <trkpt lat="48.91475" lon="0.22317">
        <ele>177.68</ele>
        <time>2015-11-08T11:26:55Z</time>
      </trkpt>
      <trkpt lat="48.91476" lon="0.22322">
        <ele>177.58</ele>
        <time>2015-11-08T11:26:57Z</time>
      </trkpt>
      <trkpt lat="48.91477" lon="0.22328">
        <ele>177.5</ele>
        <time>2015-11-08T11:26:59Z</time>
      </trkpt>
      <trkpt lat="48.91477" lon="0.22334">
        <ele>177.46</ele>
        <time>2015-11-08T11:27:01Z</time>
      </trkpt>
      <trkpt lat="48.91477" lon="0.22341">
        <ele>177.25</ele>
        <time>2015-11-08T11:27:03Z</time>
      </trkpt>
      <trkpt lat="48.91477" lon="0.22347">
        <ele>177.06</ele>
        <time>2015-11-08T11:27:05Z</time>
      </trkpt>
      <trkpt lat="48.91477" lon="0.22353">
        <ele>176.94</ele>
        <time>2015-11-08T11:27:07Z</time>
      </trkpt>
      <trkpt lat="48.91476" lon="0.22358">
        <ele>176.84</ele>
        <time>2015-11-08T11:27:09Z</time>
      </trkpt>
      <trkpt lat="48.91475" lon="0.22364">
        <ele>176.82</ele>
        <time>2015-11-08T11:27:11Z</time>
      </trkpt>
      <trkpt lat="48.91473" lon="0.22369">
        <ele>176.92</ele>
        <time>2015-11-08T11:27:13Z</time>
      </trkpt>
      <trkpt lat="48.91472" lon="0.22365">
        <ele>176.99</ele>
        <time>2015-11-08T11:28:50Z</time>
      </trkpt>
      <trkpt lat="48.91471" lon="0.2237">
        <ele>176.86</ele>
        <time>2015-11-08T11:29:06Z</time>
      </trkpt>
      <trkpt lat="48.9147" lon="0.22374">
        <ele>176.62</ele>
        <time>2015-11-08T11:29:08Z</time>
      </trkpt>
      <trkpt lat="48.91467" lon="0.22379">
        <ele>176.29</ele>
        <time>2015-11-08T11:29:10Z</time>
      </trkpt>
      <trkpt lat="48.91465" lon="0.22384">
        <ele>175.99</ele>
        <time>2015-11-08T11:29:12Z</time>
      </trkpt>
      <trkpt lat="48.91463" lon="0.22388">
        <ele>175.69</ele>
        <time>2015-11-08T11:29:14Z</time>
      </trkpt>
      <trkpt lat="48.91461" lon="0.22393">
        <ele>175.68</ele>
        <time>2015-11-08T11:29:16Z</time>
      </trkpt>
      <trkpt lat="48.91458" lon="0.22398">
        <ele>175.65</ele>
        <time>2015-11-08T11:29:18Z</time>
      </trkpt>
      <trkpt lat="48.91456" lon="0.22402">
        <ele>175.61</ele>
        <time>2015-11-08T11:29:20Z</time>
      </trkpt>
      <trkpt lat="48.91454" lon="0.22406">
        <ele>175.58</ele>
        <time>2015-11-08T11:29:22Z</time>
      </trkpt>
      <trkpt lat="48.91451" lon="0.2241">
        <ele>175.5</ele>
        <time>2015-11-08T11:29:24Z</time>
      </trkpt>
      <trkpt lat="48.91449" lon="0.22414">
        <ele>175.49</ele>
        <time>2015-11-08T11:29:26Z</time>
      </trkpt>
      <trkpt lat="48.91447" lon="0.22418">
        <ele>175.58</ele>
        <time>2015-11-08T11:29:28Z</time>
      </trkpt>
      <trkpt lat="48.91446" lon="0.22422">
        <ele>175.78</ele>
        <time>2015-11-08T11:29:30Z</time>
      </trkpt>
      <trkpt lat="48.91444" lon="0.22427">
        <ele>176.2</ele>
        <time>2015-11-08T11:29:33Z</time>
      </trkpt>
      <trkpt lat="48.91441" lon="0.22432">
        <ele>176.87</ele>
        <time>2015-11-08T11:29:36Z</time>
      </trkpt>
      <trkpt lat="48.91439" lon="0.22437">
        <ele>177.54</ele>
        <time>2015-11-08T11:29:39Z</time>
      </trkpt>
      <trkpt lat="48.91437" lon="0.2244">
        <ele>178.04</ele>
        <time>2015-11-08T11:29:41Z</time>
      </trkpt>
      <trkpt lat="48.91436" lon="0.22444">
        <ele>178.61</ele>
        <time>2015-11-08T11:29:43Z</time>
      </trkpt>
      <trkpt lat="48.91434" lon="0.22449">
        <ele>178.96</ele>
        <time>2015-11-08T11:29:45Z</time>
      </trkpt>
      <trkpt lat="48.91433" lon="0.22453">
        <ele>179.31</ele>
        <time>2015-11-08T11:29:47Z</time>
      </trkpt>
      <trkpt lat="48.91431" lon="0.22456">
        <ele>179.65</ele>
        <time>2015-11-08T11:29:49Z</time>
      </trkpt>
      <trkpt lat="48.91429" lon="0.22461">
        <ele>179.98</ele>
        <time>2015-11-08T11:29:51Z</time>
      </trkpt>
      <trkpt lat="48.91427" lon="0.22466">
        <ele>180.29</ele>
        <time>2015-11-08T11:29:53Z</time>
      </trkpt>
      <trkpt lat="48.91425" lon="0.2247">
        <ele>180.58</ele>
        <time>2015-11-08T11:29:55Z</time>
      </trkpt>
      <trkpt lat="48.91424" lon="0.22474">
        <ele>180.89</ele>
        <time>2015-11-08T11:29:57Z</time>
      </trkpt>
      <trkpt lat="48.91423" lon="0.22478">
        <ele>181.22</ele>
        <time>2015-11-08T11:29:59Z</time>
      </trkpt>
      <trkpt lat="48.91421" lon="0.22484">
        <ele>181.66</ele>
        <time>2015-11-08T11:30:02Z</time>
      </trkpt>
      <trkpt lat="48.9142" lon="0.22489">
        <ele>182.11</ele>
        <time>2015-11-08T11:30:05Z</time>
      </trkpt>
      <trkpt lat="48.91419" lon="0.22494">
        <ele>182.44</ele>
        <time>2015-11-08T11:30:07Z</time>
      </trkpt>
      <trkpt lat="48.91418" lon="0.22498">
        <ele>182.78</ele>
        <time>2015-11-08T11:30:09Z</time>
      </trkpt>
      <trkpt lat="48.91401" lon="0.22547">
        <ele>189.85</ele>
        <time>2015-11-08T11:30:40Z</time>
      </trkpt>
      <trkpt lat="48.91402" lon="0.22554">
        <ele>190.81</ele>
        <time>2015-11-08T11:30:41Z</time>
      </trkpt>
      <trkpt lat="48.91403" lon="0.22562">
        <ele>191.14</ele>
        <time>2015-11-08T11:30:42Z</time>
      </trkpt>
      <trkpt lat="48.91403" lon="0.22569">
        <ele>191.25</ele>
        <time>2015-11-08T11:30:44Z</time>
      </trkpt>
      <trkpt lat="48.91402" lon="0.22575">
        <ele>191.33</ele>
        <time>2015-11-08T11:30:46Z</time>
      </trkpt>
      <trkpt lat="48.91402" lon="0.22581">
        <ele>191.42</ele>
        <time>2015-11-08T11:30:48Z</time>
      </trkpt>
      <trkpt lat="48.91402" lon="0.22586">
        <ele>191.57</ele>
        <time>2015-11-08T11:30:50Z</time>
      </trkpt>
      <trkpt lat="48.91401" lon="0.22591">
        <ele>191.72</ele>
        <time>2015-11-08T11:30:52Z</time>
      </trkpt>
      <trkpt lat="48.914" lon="0.22596">
        <ele>191.83</ele>
        <time>2015-11-08T11:30:54Z</time>
      </trkpt>
      <trkpt lat="48.91398" lon="0.22601">
        <ele>192</ele>
        <time>2015-11-08T11:30:57Z</time>
      </trkpt>
      <trkpt lat="48.91398" lon="0.22606">
        <ele>192.13</ele>
        <time>2015-11-08T11:30:59Z</time>
      </trkpt>
      <trkpt lat="48.91398" lon="0.22611">
        <ele>192.3</ele>
        <time>2015-11-08T11:31:01Z</time>
      </trkpt>
      <trkpt lat="48.91398" lon="0.22615">
        <ele>191.95</ele>
        <time>2015-11-08T11:31:03Z</time>
      </trkpt>
      <trkpt lat="48.91398" lon="0.2262">
        <ele>191.58</ele>
        <time>2015-11-08T11:31:05Z</time>
      </trkpt>
      <trkpt lat="48.91397" lon="0.22626">
        <ele>191.05</ele>
        <time>2015-11-08T11:31:08Z</time>
      </trkpt>
      <trkpt lat="48.91395" lon="0.22631">
        <ele>190.45</ele>
        <time>2015-11-08T11:31:11Z</time>
      </trkpt>
      <trkpt lat="48.91395" lon="0.22635">
        <ele>190</ele>
        <time>2015-11-08T11:31:13Z</time>
      </trkpt>
      <trkpt lat="48.91395" lon="0.22639">
        <ele>189.54</ele>
        <time>2015-11-08T11:31:15Z</time>
      </trkpt>
      <trkpt lat="48.91395" lon="0.22644">
        <ele>188.61</ele>
        <time>2015-11-08T11:31:17Z</time>
      </trkpt>
      <trkpt lat="48.91394" lon="0.22649">
        <ele>187.69</ele>
        <time>2015-11-08T11:31:19Z</time>
      </trkpt>
      <trkpt lat="48.91395" lon="0.22653">
        <ele>186.84</ele>
        <time>2015-11-08T11:31:21Z</time>
      </trkpt>
      <trkpt lat="48.91396" lon="0.22658">
        <ele>186.12</ele>
        <time>2015-11-08T11:31:23Z</time>
      </trkpt>
      <trkpt lat="48.91395" lon="0.22662">
        <ele>185.22</ele>
        <time>2015-11-08T11:31:25Z</time>
      </trkpt>
      <trkpt lat="48.91394" lon="0.22667">
        <ele>184.14</ele>
        <time>2015-11-08T11:31:27Z</time>
      </trkpt>
      <trkpt lat="48.91394" lon="0.22671">
        <ele>184.25</ele>
        <time>2015-11-08T11:31:29Z</time>
      </trkpt>
      <trkpt lat="48.91393" lon="0.22677">
        <ele>184.39</ele>
        <time>2015-11-08T11:31:31Z</time>
      </trkpt>
      <trkpt lat="48.91392" lon="0.22682">
        <ele>184.54</ele>
        <time>2015-11-08T11:31:33Z</time>
      </trkpt>
      <trkpt lat="48.9139" lon="0.22687">
        <ele>184.61</ele>
        <time>2015-11-08T11:31:35Z</time>
      </trkpt>
      <trkpt lat="48.91388" lon="0.22692">
        <ele>184.83</ele>
        <time>2015-11-08T11:31:37Z</time>
      </trkpt>
      <trkpt lat="48.91386" lon="0.22698">
        <ele>185.46</ele>
        <time>2015-11-08T11:31:39Z</time>
      </trkpt>
      <trkpt lat="48.91385" lon="0.22704">
        <ele>186.3</ele>
        <time>2015-11-08T11:31:41Z</time>
      </trkpt>
      <trkpt lat="48.91383" lon="0.2271">
        <ele>187.06</ele>
        <time>2015-11-08T11:31:43Z</time>
      </trkpt>
      <trkpt lat="48.91382" lon="0.22715">
        <ele>187.76</ele>
        <time>2015-11-08T11:31:45Z</time>
      </trkpt>
      <trkpt lat="48.9138" lon="0.2272">
        <ele>188.43</ele>
        <time>2015-11-08T11:31:47Z</time>
      </trkpt>
      <trkpt lat="48.91378" lon="0.22726">
        <ele>188.96</ele>
        <time>2015-11-08T11:31:49Z</time>
      </trkpt>
      <trkpt lat="48.91377" lon="0.22731">
        <ele>189.44</ele>
        <time>2015-11-08T11:31:51Z</time>
      </trkpt>
      <trkpt lat="48.91376" lon="0.22737">
        <ele>189.9</ele>
        <time>2015-11-08T11:31:53Z</time>
      </trkpt>
      <trkpt lat="48.91375" lon="0.22742">
        <ele>190.26</ele>
        <time>2015-11-08T11:31:55Z</time>
      </trkpt>
      <trkpt lat="48.91373" lon="0.22746">
        <ele>190.48</ele>
        <time>2015-11-08T11:31:57Z</time>
      </trkpt>
      <trkpt lat="48.9137" lon="0.2275">
        <ele>190.63</ele>
        <time>2015-11-08T11:31:59Z</time>
      </trkpt>
      <trkpt lat="48.91368" lon="0.22754">
        <ele>191.26</ele>
        <time>2015-11-08T11:32:01Z</time>
      </trkpt>
      <trkpt lat="48.91367" lon="0.22758">
        <ele>192.21</ele>
        <time>2015-11-08T11:32:03Z</time>
      </trkpt>
      <trkpt lat="48.91366" lon="0.22763">
        <ele>193.27</ele>
        <time>2015-11-08T11:32:05Z</time>
      </trkpt>
      <trkpt lat="48.91364" lon="0.22768">
        <ele>194.43</ele>
        <time>2015-11-08T11:32:07Z</time>
      </trkpt>
      <trkpt lat="48.91362" lon="0.22773">
        <ele>195.77</ele>
        <time>2015-11-08T11:32:09Z</time>
      </trkpt>
      <trkpt lat="48.9136" lon="0.22778">
        <ele>198.11</ele>
        <time>2015-11-08T11:32:11Z</time>
      </trkpt>
      <trkpt lat="48.91357" lon="0.22783">
        <ele>201.79</ele>
        <time>2015-11-08T11:32:13Z</time>
      </trkpt>
      <trkpt lat="48.91353" lon="0.22786">
        <ele>205.09</ele>
        <time>2015-11-08T11:32:15Z</time>
      </trkpt>
      <trkpt lat="48.9135" lon="0.2279">
        <ele>207.97</ele>
        <time>2015-11-08T11:32:17Z</time>
      </trkpt>
      <trkpt lat="48.91347" lon="0.22793">
        <ele>210.53</ele>
        <time>2015-11-08T11:32:19Z</time>
      </trkpt>
      <trkpt lat="48.91344" lon="0.22796">
        <ele>212.72</ele>
        <time>2015-11-08T11:32:21Z</time>
      </trkpt>
      <trkpt lat="48.91341" lon="0.22799">
        <ele>214.76</ele>
        <time>2015-11-08T11:32:23Z</time>
      </trkpt>
      <trkpt lat="48.91339" lon="0.22801">
        <ele>216.19</ele>
        <time>2015-11-08T11:32:25Z</time>
      </trkpt>
      <trkpt lat="48.91336" lon="0.22805">
        <ele>218.04</ele>
        <time>2015-11-08T11:32:28Z</time>
      </trkpt>
      <trkpt lat="48.91333" lon="0.22806">
        <ele>219.12</ele>
        <time>2015-11-08T11:32:30Z</time>
      </trkpt>
      <trkpt lat="48.91329" lon="0.22808">
        <ele>219.37</ele>
        <time>2015-11-08T11:32:32Z</time>
      </trkpt>
      <trkpt lat="48.91326" lon="0.22808">
        <ele>219.51</ele>
        <time>2015-11-08T11:32:34Z</time>
      </trkpt>
      <trkpt lat="48.91323" lon="0.22809">
        <ele>219.7</ele>
        <time>2015-11-08T11:32:36Z</time>
      </trkpt>
      <trkpt lat="48.91319" lon="0.22811">
        <ele>219.88</ele>
        <time>2015-11-08T11:32:38Z</time>
      </trkpt>
      <trkpt lat="48.91316" lon="0.22813">
        <ele>220.1</ele>
        <time>2015-11-08T11:32:40Z</time>
      </trkpt>
      <trkpt lat="48.91312" lon="0.22816">
        <ele>220.29</ele>
        <time>2015-11-08T11:32:42Z</time>
      </trkpt>
      <trkpt lat="48.91309" lon="0.22817">
        <ele>220.41</ele>
        <time>2015-11-08T11:32:44Z</time>
      </trkpt>
      <trkpt lat="48.91306" lon="0.22819">
        <ele>220.48</ele>
        <time>2015-11-08T11:32:46Z</time>
      </trkpt>
      <trkpt lat="48.91302" lon="0.2282">
        <ele>220.02</ele>
        <time>2015-11-08T11:32:48Z</time>
      </trkpt>
      <trkpt lat="48.91299" lon="0.22821">
        <ele>219.45</ele>
        <time>2015-11-08T11:32:50Z</time>
      </trkpt>
      <trkpt lat="48.91296" lon="0.22822">
        <ele>218.93</ele>
        <time>2015-11-08T11:32:52Z</time>
      </trkpt>
      <trkpt lat="48.91292" lon="0.22824">
        <ele>218.45</ele>
        <time>2015-11-08T11:32:54Z</time>
      </trkpt>
      <trkpt lat="48.91289" lon="0.22825">
        <ele>217.96</ele>
        <time>2015-11-08T11:32:56Z</time>
      </trkpt>
      <trkpt lat="48.91286" lon="0.22827">
        <ele>217.43</ele>
        <time>2015-11-08T11:32:58Z</time>
      </trkpt>
      <trkpt lat="48.91283" lon="0.22828">
        <ele>216.92</ele>
        <time>2015-11-08T11:33:00Z</time>
      </trkpt>
      <trkpt lat="48.9128" lon="0.22831">
        <ele>216.42</ele>
        <time>2015-11-08T11:33:02Z</time>
      </trkpt>
      <trkpt lat="48.91277" lon="0.22834">
        <ele>215.87</ele>
        <time>2015-11-08T11:33:04Z</time>
      </trkpt>
      <trkpt lat="48.91274" lon="0.22835">
        <ele>215.42</ele>
        <time>2015-11-08T11:33:06Z</time>
      </trkpt>
      <trkpt lat="48.91271" lon="0.22834">
        <ele>215.23</ele>
        <time>2015-11-08T11:33:12Z</time>
      </trkpt>
      <trkpt lat="48.91268" lon="0.22833">
        <ele>214.93</ele>
        <time>2015-11-08T11:33:21Z</time>
      </trkpt>
      <trkpt lat="48.91266" lon="0.22835">
        <ele>214.56</ele>
        <time>2015-11-08T11:33:24Z</time>
      </trkpt>
      <trkpt lat="48.91264" lon="0.22831">
        <ele>214.52</ele>
        <time>2015-11-08T11:33:35Z</time>
      </trkpt>
      <trkpt lat="48.91264" lon="0.22827">
        <ele>214.51</ele>
        <time>2015-11-08T11:34:29Z</time>
      </trkpt>
      <trkpt lat="48.91264" lon="0.22831">
        <ele>214.51</ele>
        <time>2015-11-08T11:36:44Z</time>
      </trkpt>
      <trkpt lat="48.91266" lon="0.22834">
        <ele>214.73</ele>
        <time>2015-11-08T11:37:49Z</time>
      </trkpt>
      <trkpt lat="48.91263" lon="0.22833">
        <ele>214.44</ele>
        <time>2015-11-08T11:44:54Z</time>
      </trkpt>
      <trkpt lat="48.91262" lon="0.22829">
        <ele>214.35</ele>
        <time>2015-11-08T11:45:45Z</time>
      </trkpt>
      <trkpt lat="48.9126" lon="0.22827">
        <ele>214.05</ele>
        <time>2015-11-08T11:50:49Z</time>
      </trkpt>
      <trkpt lat="48.91262" lon="0.2283">
        <ele>214.29</ele>
        <time>2015-11-08T11:55:09Z</time>
      </trkpt>
      <trkpt lat="48.91265" lon="0.22832">
        <ele>214.57</ele>
        <time>2015-11-08T11:56:00Z</time>
      </trkpt>
      <trkpt lat="48.91263" lon="0.22829">
        <ele>214.39</ele>
        <time>2015-11-08T12:08:58Z</time>
      </trkpt>
      <trkpt lat="48.91265" lon="0.22832">
        <ele>214.6</ele>
        <time>2015-11-08T12:10:50Z</time>
      </trkpt>
      <trkpt lat="48.91268" lon="0.22832">
        <ele>214.89</ele>
        <time>2015-11-08T12:11:35Z</time>
      </trkpt>
      <trkpt lat="48.91265" lon="0.22835">
        <ele>214.57</ele>
        <time>2015-11-08T12:12:36Z</time>
      </trkpt>
      <trkpt lat="48.91263" lon="0.22837">
        <ele>214.21</ele>
        <time>2015-11-08T12:12:51Z</time>
      </trkpt>
      <trkpt lat="48.91264" lon="0.22833">
        <ele>214.5</ele>
        <time>2015-11-08T12:13:20Z</time>
      </trkpt>
      <trkpt lat="48.91267" lon="0.22833">
        <ele>214.81</ele>
        <time>2015-11-08T12:14:15Z</time>
      </trkpt>
      <trkpt lat="48.91265" lon="0.22836">
        <ele>214.45</ele>
        <time>2015-11-08T12:17:05Z</time>
      </trkpt>
      <trkpt lat="48.91264" lon="0.2284">
        <ele>214.12</ele>
        <time>2015-11-08T12:17:26Z</time>
      </trkpt>
      <trkpt lat="48.91262" lon="0.22844">
        <ele>213.77</ele>
        <time>2015-11-08T12:17:30Z</time>
      </trkpt>
      <trkpt lat="48.9126" lon="0.22847">
        <ele>213.39</ele>
        <time>2015-11-08T12:17:40Z</time>
      </trkpt>
      <trkpt lat="48.91257" lon="0.22846">
        <ele>213.21</ele>
        <time>2015-11-08T12:17:57Z</time>
      </trkpt>
      <trkpt lat="48.9126" lon="0.22842">
        <ele>213.64</ele>
        <time>2015-11-08T12:18:08Z</time>
      </trkpt>
      <trkpt lat="48.91263" lon="0.22839">
        <ele>214.11</ele>
        <time>2015-11-08T12:18:11Z</time>
      </trkpt>
      <trkpt lat="48.91265" lon="0.22835">
        <ele>214.56</ele>
        <time>2015-11-08T12:18:14Z</time>
      </trkpt>
      <trkpt lat="48.91267" lon="0.22839">
        <ele>214.51</ele>
        <time>2015-11-08T12:19:04Z</time>
      </trkpt>
      <trkpt lat="48.91268" lon="0.22842">
        <ele>214.45</ele>
        <time>2015-11-08T12:21:33Z</time>
      </trkpt>
      <trkpt lat="48.91266" lon="0.2284">
        <ele>214.4</ele>
        <time>2015-11-08T12:22:08Z</time>
      </trkpt>
      <trkpt lat="48.91268" lon="0.22843">
        <ele>214.31</ele>
        <time>2015-11-08T12:28:06Z</time>
      </trkpt>
      <trkpt lat="48.91266" lon="0.2284">
        <ele>214.38</ele>
        <time>2015-11-08T12:28:56Z</time>
      </trkpt>
      <trkpt lat="48.9127" lon="0.22839">
        <ele>214.79</ele>
        <time>2015-11-08T12:32:57Z</time>
      </trkpt>
      <trkpt lat="48.91267" lon="0.22839">
        <ele>214.55</ele>
        <time>2015-11-08T12:34:17Z</time>
      </trkpt>
      <trkpt lat="48.91265" lon="0.22837">
        <ele>214.35</ele>
        <time>2015-11-08T12:34:22Z</time>
      </trkpt>
      <trkpt lat="48.91263" lon="0.22841">
        <ele>213.98</ele>
        <time>2015-11-08T12:34:30Z</time>
      </trkpt>
      <trkpt lat="48.9126" lon="0.22843">
        <ele>213.6</ele>
        <time>2015-11-08T12:34:32Z</time>
      </trkpt>
      <trkpt lat="48.91257" lon="0.22845">
        <ele>213.2</ele>
        <time>2015-11-08T12:34:34Z</time>
      </trkpt>
      <trkpt lat="48.91254" lon="0.22847">
        <ele>212.86</ele>
        <time>2015-11-08T12:34:36Z</time>
      </trkpt>
      <trkpt lat="48.9125" lon="0.22848">
        <ele>212.5</ele>
        <time>2015-11-08T12:34:38Z</time>
      </trkpt>
      <trkpt lat="48.91247" lon="0.2285">
        <ele>212.28</ele>
        <time>2015-11-08T12:34:40Z</time>
      </trkpt>
      <trkpt lat="48.91244" lon="0.22852">
        <ele>212.03</ele>
        <time>2015-11-08T12:34:42Z</time>
      </trkpt>
      <trkpt lat="48.9124" lon="0.22855">
        <ele>211.65</ele>
        <time>2015-11-08T12:34:44Z</time>
      </trkpt>
      <trkpt lat="48.91237" lon="0.22859">
        <ele>211.2</ele>
        <time>2015-11-08T12:34:46Z</time>
      </trkpt>
      <trkpt lat="48.91233" lon="0.22862">
        <ele>210.72</ele>
        <time>2015-11-08T12:34:48Z</time>
      </trkpt>
      <trkpt lat="48.91229" lon="0.22864">
        <ele>210.29</ele>
        <time>2015-11-08T12:34:50Z</time>
      </trkpt>
      <trkpt lat="48.91225" lon="0.22866">
        <ele>209.84</ele>
        <time>2015-11-08T12:34:52Z</time>
      </trkpt>
      <trkpt lat="48.91221" lon="0.22869">
        <ele>209.65</ele>
        <time>2015-11-08T12:34:54Z</time>
      </trkpt>
      <trkpt lat="48.91218" lon="0.22873">
        <ele>209.83</ele>
        <time>2015-11-08T12:34:56Z</time>
      </trkpt>
      <trkpt lat="48.91214" lon="0.22875">
        <ele>210.14</ele>
        <time>2015-11-08T12:34:58Z</time>
      </trkpt>
      <trkpt lat="48.91211" lon="0.22876">
        <ele>210.57</ele>
        <time>2015-11-08T12:35:00Z</time>
      </trkpt>
      <trkpt lat="48.91207" lon="0.22874">
        <ele>211.2</ele>
        <time>2015-11-08T12:35:02Z</time>
      </trkpt>
      <trkpt lat="48.91204" lon="0.22874">
        <ele>211.69</ele>
        <time>2015-11-08T12:35:04Z</time>
      </trkpt>
      <trkpt lat="48.91201" lon="0.22875">
        <ele>212.12</ele>
        <time>2015-11-08T12:35:06Z</time>
      </trkpt>
      <trkpt lat="48.91197" lon="0.22876">
        <ele>212.58</ele>
        <time>2015-11-08T12:35:08Z</time>
      </trkpt>
      <trkpt lat="48.91193" lon="0.22878">
        <ele>212.78</ele>
        <time>2015-11-08T12:35:10Z</time>
      </trkpt>
      <trkpt lat="48.91189" lon="0.22879">
        <ele>212.62</ele>
        <time>2015-11-08T12:35:12Z</time>
      </trkpt>
      <trkpt lat="48.91185" lon="0.22881">
        <ele>212.53</ele>
        <time>2015-11-08T12:35:14Z</time>
      </trkpt>
      <trkpt lat="48.91182" lon="0.22884">
        <ele>212.49</ele>
        <time>2015-11-08T12:35:16Z</time>
      </trkpt>
      <trkpt lat="48.91178" lon="0.22884">
        <ele>212.53</ele>
        <time>2015-11-08T12:35:18Z</time>
      </trkpt>
      <trkpt lat="48.91174" lon="0.22884">
        <ele>212.56</ele>
        <time>2015-11-08T12:35:20Z</time>
      </trkpt>
      <trkpt lat="48.9117" lon="0.22885">
        <ele>212.69</ele>
        <time>2015-11-08T12:35:22Z</time>
      </trkpt>
      <trkpt lat="48.91166" lon="0.22887">
        <ele>212.94</ele>
        <time>2015-11-08T12:35:24Z</time>
      </trkpt>
      <trkpt lat="48.91162" lon="0.22889">
        <ele>213.32</ele>
        <time>2015-11-08T12:35:26Z</time>
      </trkpt>
      <trkpt lat="48.91159" lon="0.22892">
        <ele>213.63</ele>
        <time>2015-11-08T12:35:28Z</time>
      </trkpt>
      <trkpt lat="48.91155" lon="0.22894">
        <ele>214</ele>
        <time>2015-11-08T12:35:30Z</time>
      </trkpt>
      <trkpt lat="48.91151" lon="0.22898">
        <ele>214.45</ele>
        <time>2015-11-08T12:35:32Z</time>
      </trkpt>
      <trkpt lat="48.91147" lon="0.22901">
        <ele>214.99</ele>
        <time>2015-11-08T12:35:34Z</time>
      </trkpt>
      <trkpt lat="48.91144" lon="0.22904">
        <ele>215.54</ele>
        <time>2015-11-08T12:35:36Z</time>
      </trkpt>
      <trkpt lat="48.9114" lon="0.22904">
        <ele>215.99</ele>
        <time>2015-11-08T12:35:38Z</time>
      </trkpt>
      <trkpt lat="48.91136" lon="0.22904">
        <ele>216.13</ele>
        <time>2015-11-08T12:35:40Z</time>
      </trkpt>
      <trkpt lat="48.91133" lon="0.22904">
        <ele>216.21</ele>
        <time>2015-11-08T12:35:42Z</time>
      </trkpt>
      <trkpt lat="48.91129" lon="0.22905">
        <ele>216.39</ele>
        <time>2015-11-08T12:35:44Z</time>
      </trkpt>
      <trkpt lat="48.91126" lon="0.22907">
        <ele>216.62</ele>
        <time>2015-11-08T12:35:46Z</time>
      </trkpt>
      <trkpt lat="48.91122" lon="0.22907">
        <ele>216.67</ele>
        <time>2015-11-08T12:35:48Z</time>
      </trkpt>
      <trkpt lat="48.91118" lon="0.22906">
        <ele>216.73</ele>
        <time>2015-11-08T12:35:50Z</time>
      </trkpt>
      <trkpt lat="48.91115" lon="0.22909">
        <ele>217.09</ele>
        <time>2015-11-08T12:35:52Z</time>
      </trkpt>
      <trkpt lat="48.91111" lon="0.22912">
        <ele>217.46</ele>
        <time>2015-11-08T12:35:54Z</time>
      </trkpt>
      <trkpt lat="48.91107" lon="0.22913">
        <ele>217.37</ele>
        <time>2015-11-08T12:35:56Z</time>
      </trkpt>
      <trkpt lat="48.91103" lon="0.22915">
        <ele>217.29</ele>
        <time>2015-11-08T12:35:58Z</time>
      </trkpt>
      <trkpt lat="48.91099" lon="0.22917">
        <ele>217.18</ele>
        <time>2015-11-08T12:36:00Z</time>
      </trkpt>
      <trkpt lat="48.91095" lon="0.22918">
        <ele>216.95</ele>
        <time>2015-11-08T12:36:02Z</time>
      </trkpt>
      <trkpt lat="48.91091" lon="0.22917">
        <ele>216.61</ele>
        <time>2015-11-08T12:36:04Z</time>
      </trkpt>
      <trkpt lat="48.91087" lon="0.22915">
        <ele>216.21</ele>
        <time>2015-11-08T12:36:06Z</time>
      </trkpt>
      <trkpt lat="48.91084" lon="0.22914">
        <ele>215.94</ele>
        <time>2015-11-08T12:36:08Z</time>
      </trkpt>
      <trkpt lat="48.9108" lon="0.22913">
        <ele>215.9</ele>
        <time>2015-11-08T12:36:10Z</time>
      </trkpt>
      <trkpt lat="48.91077" lon="0.22911">
        <ele>215.89</ele>
        <time>2015-11-08T12:36:12Z</time>
      </trkpt>
      <trkpt lat="48.91073" lon="0.22909">
        <ele>215.93</ele>
        <time>2015-11-08T12:36:14Z</time>
      </trkpt>
      <trkpt lat="48.91069" lon="0.22907">
        <ele>216</ele>
        <time>2015-11-08T12:36:16Z</time>
      </trkpt>
      <trkpt lat="48.91065" lon="0.22904">
        <ele>216.14</ele>
        <time>2015-11-08T12:36:18Z</time>
      </trkpt>
      <trkpt lat="48.91061" lon="0.22901">
        <ele>216.32</ele>
        <time>2015-11-08T12:36:20Z</time>
      </trkpt>
      <trkpt lat="48.91057" lon="0.22899">
        <ele>216.54</ele>
        <time>2015-11-08T12:36:22Z</time>
      </trkpt>
      <trkpt lat="48.91053" lon="0.22897">
        <ele>216.94</ele>
        <time>2015-11-08T12:36:24Z</time>
      </trkpt>
      <trkpt lat="48.91049" lon="0.22894">
        <ele>217.5</ele>
        <time>2015-11-08T12:36:26Z</time>
      </trkpt>
      <trkpt lat="48.91045" lon="0.2289">
        <ele>218.11</ele>
        <time>2015-11-08T12:36:28Z</time>
      </trkpt>
      <trkpt lat="48.9104" lon="0.22887">
        <ele>218.53</ele>
        <time>2015-11-08T12:36:30Z</time>
      </trkpt>
      <trkpt lat="48.91036" lon="0.22884">
        <ele>218.65</ele>
        <time>2015-11-08T12:36:32Z</time>
      </trkpt>
      <trkpt lat="48.91031" lon="0.22881">
        <ele>218.76</ele>
        <time>2015-11-08T12:36:34Z</time>
      </trkpt>
      <trkpt lat="48.91027" lon="0.22878">
        <ele>218.97</ele>
        <time>2015-11-08T12:36:36Z</time>
      </trkpt>
      <trkpt lat="48.91022" lon="0.22875">
        <ele>219.48</ele>
        <time>2015-11-08T12:36:38Z</time>
      </trkpt>
      <trkpt lat="48.91017" lon="0.22873">
        <ele>219.96</ele>
        <time>2015-11-08T12:36:40Z</time>
      </trkpt>
      <trkpt lat="48.91013" lon="0.22871">
        <ele>220.45</ele>
        <time>2015-11-08T12:36:42Z</time>
      </trkpt>
      <trkpt lat="48.91008" lon="0.22869">
        <ele>220.77</ele>
        <time>2015-11-08T12:36:44Z</time>
      </trkpt>
      <trkpt lat="48.91005" lon="0.22865">
        <ele>220.85</ele>
        <time>2015-11-08T12:36:46Z</time>
      </trkpt>
      <trkpt lat="48.91" lon="0.22862">
        <ele>221.02</ele>
        <time>2015-11-08T12:36:48Z</time>
      </trkpt>
      <trkpt lat="48.90995" lon="0.22858">
        <ele>220.11</ele>
        <time>2015-11-08T12:36:50Z</time>
      </trkpt>
      <trkpt lat="48.90993" lon="0.22857">
        <ele>219.67</ele>
        <time>2015-11-08T12:36:51Z</time>
      </trkpt>
      <trkpt lat="48.90988" lon="0.22855">
        <ele>218.96</ele>
        <time>2015-11-08T12:36:53Z</time>
      </trkpt>
      <trkpt lat="48.90983" lon="0.22854">
        <ele>218.28</ele>
        <time>2015-11-08T12:36:55Z</time>
      </trkpt>
      <trkpt lat="48.90979" lon="0.22851">
        <ele>217.59</ele>
        <time>2015-11-08T12:36:57Z</time>
      </trkpt>
      <trkpt lat="48.90974" lon="0.22849">
        <ele>216.91</ele>
        <time>2015-11-08T12:36:59Z</time>
      </trkpt>
      <trkpt lat="48.9097" lon="0.22845">
        <ele>216.38</ele>
        <time>2015-11-08T12:37:01Z</time>
      </trkpt>
      <trkpt lat="48.90966" lon="0.22842">
        <ele>216.43</ele>
        <time>2015-11-08T12:37:03Z</time>
      </trkpt>
      <trkpt lat="48.90962" lon="0.2284">
        <ele>216.72</ele>
        <time>2015-11-08T12:37:05Z</time>
      </trkpt>
      <trkpt lat="48.90957" lon="0.22841">
        <ele>217.1</ele>
        <time>2015-11-08T12:37:07Z</time>
      </trkpt>
      <trkpt lat="48.90954" lon="0.22844">
        <ele>217.25</ele>
        <time>2015-11-08T12:37:09Z</time>
      </trkpt>
      <trkpt lat="48.90952" lon="0.2285">
        <ele>217.07</ele>
        <time>2015-11-08T12:37:11Z</time>
      </trkpt>
      <trkpt lat="48.90951" lon="0.22856">
        <ele>216.79</ele>
        <time>2015-11-08T12:37:13Z</time>
      </trkpt>
      <trkpt lat="48.9095" lon="0.22862">
        <ele>216.4</ele>
        <time>2015-11-08T12:37:15Z</time>
      </trkpt>
      <trkpt lat="48.9095" lon="0.22869">
        <ele>216.06</ele>
        <time>2015-11-08T12:37:17Z</time>
      </trkpt>
      <trkpt lat="48.90948" lon="0.22876">
        <ele>215.53</ele>
        <time>2015-11-08T12:37:19Z</time>
      </trkpt>
      <trkpt lat="48.90947" lon="0.22883">
        <ele>214.84</ele>
        <time>2015-11-08T12:37:21Z</time>
      </trkpt>
      <trkpt lat="48.90945" lon="0.22889">
        <ele>214.14</ele>
        <time>2015-11-08T12:37:23Z</time>
      </trkpt>
      <trkpt lat="48.90944" lon="0.22896">
        <ele>214.54</ele>
        <time>2015-11-08T12:37:25Z</time>
      </trkpt>
      <trkpt lat="48.90942" lon="0.22901">
        <ele>215.09</ele>
        <time>2015-11-08T12:37:27Z</time>
      </trkpt>
      <trkpt lat="48.9094" lon="0.22906">
        <ele>215.65</ele>
        <time>2015-11-08T12:37:29Z</time>
      </trkpt>
      <trkpt lat="48.90937" lon="0.2291">
        <ele>216.23</ele>
        <time>2015-11-08T12:37:31Z</time>
      </trkpt>
      <trkpt lat="48.90936" lon="0.22915">
        <ele>216.84</ele>
        <time>2015-11-08T12:37:33Z</time>
      </trkpt>
      <trkpt lat="48.90935" lon="0.22922">
        <ele>217.84</ele>
        <time>2015-11-08T12:37:35Z</time>
      </trkpt>
      <trkpt lat="48.90935" lon="0.22929">
        <ele>218.97</ele>
        <time>2015-11-08T12:37:37Z</time>
      </trkpt>
      <trkpt lat="48.90933" lon="0.22936">
        <ele>220.29</ele>
        <time>2015-11-08T12:37:39Z</time>
      </trkpt>
      <trkpt lat="48.90931" lon="0.22943">
        <ele>221.69</ele>
        <time>2015-11-08T12:37:41Z</time>
      </trkpt>
      <trkpt lat="48.9093" lon="0.2295">
        <ele>222.3</ele>
        <time>2015-11-08T12:37:43Z</time>
      </trkpt>
      <trkpt lat="48.90929" lon="0.22955">
        <ele>222.46</ele>
        <time>2015-11-08T12:37:44Z</time>
      </trkpt>
      <trkpt lat="48.90929" lon="0.22959">
        <ele>222.58</ele>
        <time>2015-11-08T12:37:45Z</time>
      </trkpt>
      <trkpt lat="48.90927" lon="0.22966">
        <ele>222.69</ele>
        <time>2015-11-08T12:37:47Z</time>
      </trkpt>
      <trkpt lat="48.90925" lon="0.22973">
        <ele>222.57</ele>
        <time>2015-11-08T12:37:49Z</time>
      </trkpt>
      <trkpt lat="48.90923" lon="0.22979">
        <ele>222.46</ele>
        <time>2015-11-08T12:37:51Z</time>
      </trkpt>
      <trkpt lat="48.90922" lon="0.22985">
        <ele>222.35</ele>
        <time>2015-11-08T12:37:53Z</time>
      </trkpt>
      <trkpt lat="48.90922" lon="0.22992">
        <ele>222.29</ele>
        <time>2015-11-08T12:37:55Z</time>
      </trkpt>
      <trkpt lat="48.90922" lon="0.22998">
        <ele>222.26</ele>
        <time>2015-11-08T12:37:57Z</time>
      </trkpt>
      <trkpt lat="48.90923" lon="0.23005">
        <ele>222.57</ele>
        <time>2015-11-08T12:37:59Z</time>
      </trkpt>
      <trkpt lat="48.90924" lon="0.23011">
        <ele>222.87</ele>
        <time>2015-11-08T12:38:01Z</time>
      </trkpt>
      <trkpt lat="48.90925" lon="0.23018">
        <ele>223.13</ele>
        <time>2015-11-08T12:38:03Z</time>
      </trkpt>
      <trkpt lat="48.90927" lon="0.23024">
        <ele>223.49</ele>
        <time>2015-11-08T12:38:05Z</time>
      </trkpt>
      <trkpt lat="48.9093" lon="0.23031">
        <ele>223.92</ele>
        <time>2015-11-08T12:38:07Z</time>
      </trkpt>
      <trkpt lat="48.90933" lon="0.23037">
        <ele>223.99</ele>
        <time>2015-11-08T12:38:09Z</time>
      </trkpt>
      <trkpt lat="48.90935" lon="0.23041">
        <ele>223.78</ele>
        <time>2015-11-08T12:38:10Z</time>
      </trkpt>
      <trkpt lat="48.90936" lon="0.23044">
        <ele>223.39</ele>
        <time>2015-11-08T12:38:11Z</time>
      </trkpt>
      <trkpt lat="48.90938" lon="0.23047">
        <ele>222.81</ele>
        <time>2015-11-08T12:38:12Z</time>
      </trkpt>
      <trkpt lat="48.90941" lon="0.23049">
        <ele>222.06</ele>
        <time>2015-11-08T12:38:13Z</time>
      </trkpt>
      <trkpt lat="48.90943" lon="0.23052">
        <ele>221.13</ele>
        <time>2015-11-08T12:38:14Z</time>
      </trkpt>
      <trkpt lat="48.90945" lon="0.23055">
        <ele>220.05</ele>
        <time>2015-11-08T12:38:15Z</time>
      </trkpt>
      <trkpt lat="48.90947" lon="0.23058">
        <ele>219.24</ele>
        <time>2015-11-08T12:38:16Z</time>
      </trkpt>
      <trkpt lat="48.9095" lon="0.23062">
        <ele>218.4</ele>
        <time>2015-11-08T12:38:17Z</time>
      </trkpt>
      <trkpt lat="48.90952" lon="0.23066">
        <ele>217.64</ele>
        <time>2015-11-08T12:38:18Z</time>
      </trkpt>
      <trkpt lat="48.90954" lon="0.2307">
        <ele>216.84</ele>
        <time>2015-11-08T12:38:19Z</time>
      </trkpt>
      <trkpt lat="48.90955" lon="0.23076">
        <ele>215.95</ele>
        <time>2015-11-08T12:38:20Z</time>
      </trkpt>
      <trkpt lat="48.90954" lon="0.23081">
        <ele>215.02</ele>
        <time>2015-11-08T12:38:21Z</time>
      </trkpt>
      <trkpt lat="48.90952" lon="0.23086">
        <ele>214.35</ele>
        <time>2015-11-08T12:38:22Z</time>
      </trkpt>
      <trkpt lat="48.90949" lon="0.23089">
        <ele>213.84</ele>
        <time>2015-11-08T12:38:23Z</time>
      </trkpt>
      <trkpt lat="48.90946" lon="0.23091">
        <ele>213.31</ele>
        <time>2015-11-08T12:38:24Z</time>
      </trkpt>
      <trkpt lat="48.90944" lon="0.23094">
        <ele>213.02</ele>
        <time>2015-11-08T12:38:25Z</time>
      </trkpt>
      <trkpt lat="48.90941" lon="0.23097">
        <ele>213.25</ele>
        <time>2015-11-08T12:38:26Z</time>
      </trkpt>
      <trkpt lat="48.90939" lon="0.23099">
        <ele>213.44</ele>
        <time>2015-11-08T12:38:27Z</time>
      </trkpt>
      <trkpt lat="48.90936" lon="0.23101">
        <ele>213.65</ele>
        <time>2015-11-08T12:38:28Z</time>
      </trkpt>
      <trkpt lat="48.90934" lon="0.23103">
        <ele>213.84</ele>
        <time>2015-11-08T12:38:29Z</time>
      </trkpt>
      <trkpt lat="48.90931" lon="0.23105">
        <ele>213.95</ele>
        <time>2015-11-08T12:38:30Z</time>
      </trkpt>
      <trkpt lat="48.90927" lon="0.23109">
        <ele>214</ele>
        <time>2015-11-08T12:38:32Z</time>
      </trkpt>
      <trkpt lat="48.90924" lon="0.23111">
        <ele>213.95</ele>
        <time>2015-11-08T12:38:33Z</time>
      </trkpt>
      <trkpt lat="48.90922" lon="0.23113">
        <ele>213.97</ele>
        <time>2015-11-08T12:38:34Z</time>
      </trkpt>
      <trkpt lat="48.9092" lon="0.23115">
        <ele>213.99</ele>
        <time>2015-11-08T12:38:35Z</time>
      </trkpt>
      <trkpt lat="48.90917" lon="0.23118">
        <ele>213.99</ele>
        <time>2015-11-08T12:38:36Z</time>
      </trkpt>
      <trkpt lat="48.90915" lon="0.2312">
        <ele>214.22</ele>
        <time>2015-11-08T12:38:37Z</time>
      </trkpt>
      <trkpt lat="48.90913" lon="0.23123">
        <ele>214.43</ele>
        <time>2015-11-08T12:38:38Z</time>
      </trkpt>
      <trkpt lat="48.9091" lon="0.23126">
        <ele>214.68</ele>
        <time>2015-11-08T12:38:39Z</time>
      </trkpt>
      <trkpt lat="48.90908" lon="0.23128">
        <ele>214.9</ele>
        <time>2015-11-08T12:38:40Z</time>
      </trkpt>
      <trkpt lat="48.90906" lon="0.23131">
        <ele>215.16</ele>
        <time>2015-11-08T12:38:41Z</time>
      </trkpt>
      <trkpt lat="48.90904" lon="0.23134">
        <ele>215.35</ele>
        <time>2015-11-08T12:38:42Z</time>
      </trkpt>
      <trkpt lat="48.90901" lon="0.23138">
        <ele>215.56</ele>
        <time>2015-11-08T12:38:43Z</time>
      </trkpt>
      <trkpt lat="48.90899" lon="0.23141">
        <ele>215.95</ele>
        <time>2015-11-08T12:38:44Z</time>
      </trkpt>
      <trkpt lat="48.90897" lon="0.23144">
        <ele>216.56</ele>
        <time>2015-11-08T12:38:45Z</time>
      </trkpt>
      <trkpt lat="48.90894" lon="0.23147">
        <ele>217.16</ele>
        <time>2015-11-08T12:38:46Z</time>
      </trkpt>
      <trkpt lat="48.90892" lon="0.23151">
        <ele>217.73</ele>
        <time>2015-11-08T12:38:47Z</time>
      </trkpt>
      <trkpt lat="48.90889" lon="0.23154">
        <ele>218.37</ele>
        <time>2015-11-08T12:38:48Z</time>
      </trkpt>
      <trkpt lat="48.90887" lon="0.23158">
        <ele>219.14</ele>
        <time>2015-11-08T12:38:49Z</time>
      </trkpt>
      <trkpt lat="48.90884" lon="0.23161">
        <ele>219.98</ele>
        <time>2015-11-08T12:38:50Z</time>
      </trkpt>
      <trkpt lat="48.90882" lon="0.23163">
        <ele>220.86</ele>
        <time>2015-11-08T12:38:51Z</time>
      </trkpt>
      <trkpt lat="48.9088" lon="0.23166">
        <ele>221.69</ele>
        <time>2015-11-08T12:38:52Z</time>
      </trkpt>
      <trkpt lat="48.90877" lon="0.23169">
        <ele>222.4</ele>
        <time>2015-11-08T12:38:53Z</time>
      </trkpt>
      <trkpt lat="48.90875" lon="0.23173">
        <ele>223</ele>
        <time>2015-11-08T12:38:54Z</time>
      </trkpt>
      <trkpt lat="48.90874" lon="0.23177">
        <ele>223.47</ele>
        <time>2015-11-08T12:38:55Z</time>
      </trkpt>
      <trkpt lat="48.90872" lon="0.23181">
        <ele>223.8</ele>
        <time>2015-11-08T12:38:56Z</time>
      </trkpt>
      <trkpt lat="48.90871" lon="0.23186">
        <ele>223.92</ele>
        <time>2015-11-08T12:38:57Z</time>
      </trkpt>
      <trkpt lat="48.90871" lon="0.23191">
        <ele>223.8</ele>
        <time>2015-11-08T12:38:58Z</time>
      </trkpt>
      <trkpt lat="48.90871" lon="0.23197">
        <ele>223.41</ele>
        <time>2015-11-08T12:38:59Z</time>
      </trkpt>
      <trkpt lat="48.90871" lon="0.23202">
        <ele>222.86</ele>
        <time>2015-11-08T12:39:00Z</time>
      </trkpt>
      <trkpt lat="48.90871" lon="0.23207">
        <ele>222.3</ele>
        <time>2015-11-08T12:39:01Z</time>
      </trkpt>
      <trkpt lat="48.90872" lon="0.23212">
        <ele>221.66</ele>
        <time>2015-11-08T12:39:02Z</time>
      </trkpt>
      <trkpt lat="48.90873" lon="0.23216">
        <ele>221</ele>
        <time>2015-11-08T12:39:03Z</time>
      </trkpt>
      <trkpt lat="48.90874" lon="0.23221">
        <ele>220.4</ele>
        <time>2015-11-08T12:39:04Z</time>
      </trkpt>
      <trkpt lat="48.90875" lon="0.23226">
        <ele>219.64</ele>
        <time>2015-11-08T12:39:05Z</time>
      </trkpt>
      <trkpt lat="48.90875" lon="0.23231">
        <ele>218.87</ele>
        <time>2015-11-08T12:39:06Z</time>
      </trkpt>
      <trkpt lat="48.90876" lon="0.23236">
        <ele>218.07</ele>
        <time>2015-11-08T12:39:07Z</time>
      </trkpt>
      <trkpt lat="48.90877" lon="0.23241">
        <ele>217.29</ele>
        <time>2015-11-08T12:39:08Z</time>
      </trkpt>
      <trkpt lat="48.90877" lon="0.23246">
        <ele>216.57</ele>
        <time>2015-11-08T12:39:09Z</time>
      </trkpt>
      <trkpt lat="48.90878" lon="0.23251">
        <ele>215.95</ele>
        <time>2015-11-08T12:39:10Z</time>
      </trkpt>
      <trkpt lat="48.90879" lon="0.23256">
        <ele>215.64</ele>
        <time>2015-11-08T12:39:11Z</time>
      </trkpt>
      <trkpt lat="48.90879" lon="0.23261">
        <ele>215.37</ele>
        <time>2015-11-08T12:39:12Z</time>
      </trkpt>
      <trkpt lat="48.9088" lon="0.23266">
        <ele>215.12</ele>
        <time>2015-11-08T12:39:13Z</time>
      </trkpt>
      <trkpt lat="48.9088" lon="0.2327">
        <ele>214.89</ele>
        <time>2015-11-08T12:39:14Z</time>
      </trkpt>
      <trkpt lat="48.90881" lon="0.23275">
        <ele>214.69</ele>
        <time>2015-11-08T12:39:15Z</time>
      </trkpt>
      <trkpt lat="48.90881" lon="0.2328">
        <ele>214.63</ele>
        <time>2015-11-08T12:39:16Z</time>
      </trkpt>
      <trkpt lat="48.90881" lon="0.23284">
        <ele>214.76</ele>
        <time>2015-11-08T12:39:17Z</time>
      </trkpt>
      <trkpt lat="48.90881" lon="0.23289">
        <ele>214.9</ele>
        <time>2015-11-08T12:39:18Z</time>
      </trkpt>
      <trkpt lat="48.90882" lon="0.23293">
        <ele>215.05</ele>
        <time>2015-11-08T12:39:19Z</time>
      </trkpt>
      <trkpt lat="48.90882" lon="0.23298">
        <ele>215.22</ele>
        <time>2015-11-08T12:39:20Z</time>
      </trkpt>
      <trkpt lat="48.90882" lon="0.23302">
        <ele>215.39</ele>
        <time>2015-11-08T12:39:21Z</time>
      </trkpt>
      <trkpt lat="48.90882" lon="0.23307">
        <ele>215.6</ele>
        <time>2015-11-08T12:39:22Z</time>
      </trkpt>
      <trkpt lat="48.90883" lon="0.23311">
        <ele>215.92</ele>
        <time>2015-11-08T12:39:23Z</time>
      </trkpt>
      <trkpt lat="48.90883" lon="0.23316">
        <ele>216.24</ele>
        <time>2015-11-08T12:39:24Z</time>
      </trkpt>
      <trkpt lat="48.90883" lon="0.2332">
        <ele>216.59</ele>
        <time>2015-11-08T12:39:25Z</time>
      </trkpt>
      <trkpt lat="48.90883" lon="0.23325">
        <ele>216.97</ele>
        <time>2015-11-08T12:39:26Z</time>
      </trkpt>
      <trkpt lat="48.90883" lon="0.2333">
        <ele>217.39</ele>
        <time>2015-11-08T12:39:27Z</time>
      </trkpt>
      <trkpt lat="48.90884" lon="0.23335">
        <ele>217.67</ele>
        <time>2015-11-08T12:39:28Z</time>
      </trkpt>
      <trkpt lat="48.90885" lon="0.2334">
        <ele>217.53</ele>
        <time>2015-11-08T12:39:29Z</time>
      </trkpt>
      <trkpt lat="48.90886" lon="0.23345">
        <ele>217.34</ele>
        <time>2015-11-08T12:39:30Z</time>
      </trkpt>
      <trkpt lat="48.90886" lon="0.2335">
        <ele>217.08</ele>
        <time>2015-11-08T12:39:31Z</time>
      </trkpt>
      <trkpt lat="48.90886" lon="0.23355">
        <ele>216.78</ele>
        <time>2015-11-08T12:39:32Z</time>
      </trkpt>
      <trkpt lat="48.90887" lon="0.2336">
        <ele>216.51</ele>
        <time>2015-11-08T12:39:33Z</time>
      </trkpt>
      <trkpt lat="48.90887" lon="0.23365">
        <ele>216.71</ele>
        <time>2015-11-08T12:39:34Z</time>
      </trkpt>
      <trkpt lat="48.90887" lon="0.2337">
        <ele>217.08</ele>
        <time>2015-11-08T12:39:35Z</time>
      </trkpt>
      <trkpt lat="48.90887" lon="0.23375">
        <ele>217.46</ele>
        <time>2015-11-08T12:39:36Z</time>
      </trkpt>
      <trkpt lat="48.90887" lon="0.2338">
        <ele>217.92</ele>
        <time>2015-11-08T12:39:37Z</time>
      </trkpt>
      <trkpt lat="48.90888" lon="0.23384">
        <ele>218.4</ele>
        <time>2015-11-08T12:39:38Z</time>
      </trkpt>
      <trkpt lat="48.90888" lon="0.23389">
        <ele>218.85</ele>
        <time>2015-11-08T12:39:39Z</time>
      </trkpt>
      <trkpt lat="48.90889" lon="0.23394">
        <ele>219.17</ele>
        <time>2015-11-08T12:39:40Z</time>
      </trkpt>
      <trkpt lat="48.9089" lon="0.23399">
        <ele>219.45</ele>
        <time>2015-11-08T12:39:41Z</time>
      </trkpt>
      <trkpt lat="48.9089" lon="0.23404">
        <ele>219.7</ele>
        <time>2015-11-08T12:39:42Z</time>
      </trkpt>
      <trkpt lat="48.90891" lon="0.23409">
        <ele>219.91</ele>
        <time>2015-11-08T12:39:43Z</time>
      </trkpt>
      <trkpt lat="48.90892" lon="0.23414">
        <ele>220.12</ele>
        <time>2015-11-08T12:39:44Z</time>
      </trkpt>
      <trkpt lat="48.90892" lon="0.23419">
        <ele>220.3</ele>
        <time>2015-11-08T12:39:45Z</time>
      </trkpt>
      <trkpt lat="48.90893" lon="0.23425">
        <ele>220.46</ele>
        <time>2015-11-08T12:39:46Z</time>
      </trkpt>
      <trkpt lat="48.90894" lon="0.2343">
        <ele>220.58</ele>
        <time>2015-11-08T12:39:47Z</time>
      </trkpt>
      <trkpt lat="48.90895" lon="0.23436">
        <ele>220.67</ele>
        <time>2015-11-08T12:39:48Z</time>
      </trkpt>
      <trkpt lat="48.90895" lon="0.23441">
        <ele>220.73</ele>
        <time>2015-11-08T12:39:49Z</time>
      </trkpt>
      <trkpt lat="48.90896" lon="0.23446">
        <ele>220.77</ele>
        <time>2015-11-08T12:39:50Z</time>
      </trkpt>
      <trkpt lat="48.90897" lon="0.23451">
        <ele>220.84</ele>
        <time>2015-11-08T12:39:51Z</time>
      </trkpt>
      <trkpt lat="48.90898" lon="0.23456">
        <ele>220.94</ele>
        <time>2015-11-08T12:39:52Z</time>
      </trkpt>
      <trkpt lat="48.90899" lon="0.23461">
        <ele>221.06</ele>
        <time>2015-11-08T12:39:53Z</time>
      </trkpt>
      <trkpt lat="48.90899" lon="0.23466">
        <ele>221.19</ele>
        <time>2015-11-08T12:39:54Z</time>
      </trkpt>
      <trkpt lat="48.909" lon="0.23471">
        <ele>221.36</ele>
        <time>2015-11-08T12:39:55Z</time>
      </trkpt>
      <trkpt lat="48.90901" lon="0.23476">
        <ele>221.31</ele>
        <time>2015-11-08T12:39:56Z</time>
      </trkpt>
      <trkpt lat="48.90902" lon="0.23481">
        <ele>221.16</ele>
        <time>2015-11-08T12:39:57Z</time>
      </trkpt>
      <trkpt lat="48.90903" lon="0.23486">
        <ele>221.01</ele>
        <time>2015-11-08T12:39:58Z</time>
      </trkpt>
      <trkpt lat="48.90904" lon="0.23491">
        <ele>220.87</ele>
        <time>2015-11-08T12:39:59Z</time>
      </trkpt>
      <trkpt lat="48.90905" lon="0.23496">
        <ele>220.72</ele>
        <time>2015-11-08T12:40:00Z</time>
      </trkpt>
      <trkpt lat="48.90905" lon="0.23501">
        <ele>220.54</ele>
        <time>2015-11-08T12:40:01Z</time>
      </trkpt>
      <trkpt lat="48.90906" lon="0.23505">
        <ele>220.12</ele>
        <time>2015-11-08T12:40:02Z</time>
      </trkpt>
      <trkpt lat="48.90907" lon="0.2351">
        <ele>219.68</ele>
        <time>2015-11-08T12:40:03Z</time>
      </trkpt>
      <trkpt lat="48.90908" lon="0.23515">
        <ele>219.21</ele>
        <time>2015-11-08T12:40:04Z</time>
      </trkpt>
      <trkpt lat="48.90909" lon="0.2352">
        <ele>218.73</ele>
        <time>2015-11-08T12:40:05Z</time>
      </trkpt>
      <trkpt lat="48.9091" lon="0.23525">
        <ele>218.26</ele>
        <time>2015-11-08T12:40:06Z</time>
      </trkpt>
      <trkpt lat="48.90911" lon="0.2353">
        <ele>217.75</ele>
        <time>2015-11-08T12:40:07Z</time>
      </trkpt>
      <trkpt lat="48.90912" lon="0.23535">
        <ele>217.19</ele>
        <time>2015-11-08T12:40:08Z</time>
      </trkpt>
      <trkpt lat="48.90913" lon="0.23541">
        <ele>216.63</ele>
        <time>2015-11-08T12:40:09Z</time>
      </trkpt>
      <trkpt lat="48.90914" lon="0.23546">
        <ele>216.07</ele>
        <time>2015-11-08T12:40:10Z</time>
      </trkpt>
      <trkpt lat="48.90915" lon="0.23551">
        <ele>215.52</ele>
        <time>2015-11-08T12:40:11Z</time>
      </trkpt>
      <trkpt lat="48.90915" lon="0.23556">
        <ele>215</ele>
        <time>2015-11-08T12:40:12Z</time>
      </trkpt>
      <trkpt lat="48.90916" lon="0.23561">
        <ele>214.99</ele>
        <time>2015-11-08T12:40:13Z</time>
      </trkpt>
      <trkpt lat="48.90917" lon="0.23566">
        <ele>215.03</ele>
        <time>2015-11-08T12:40:14Z</time>
      </trkpt>
      <trkpt lat="48.90918" lon="0.23571">
        <ele>215.07</ele>
        <time>2015-11-08T12:40:15Z</time>
      </trkpt>
      <trkpt lat="48.90919" lon="0.23576">
        <ele>215.09</ele>
        <time>2015-11-08T12:40:16Z</time>
      </trkpt>
      <trkpt lat="48.90919" lon="0.23581">
        <ele>215.11</ele>
        <time>2015-11-08T12:40:17Z</time>
      </trkpt>
      <trkpt lat="48.9092" lon="0.23586">
        <ele>215.29</ele>
        <time>2015-11-08T12:40:18Z</time>
      </trkpt>
      <trkpt lat="48.90921" lon="0.2359">
        <ele>215.65</ele>
        <time>2015-11-08T12:40:19Z</time>
      </trkpt>
      <trkpt lat="48.90922" lon="0.23595">
        <ele>216.01</ele>
        <time>2015-11-08T12:40:20Z</time>
      </trkpt>
      <trkpt lat="48.90922" lon="0.23599">
        <ele>216.36</ele>
        <time>2015-11-08T12:40:21Z</time>
      </trkpt>
      <trkpt lat="48.90923" lon="0.23604">
        <ele>216.71</ele>
        <time>2015-11-08T12:40:22Z</time>
      </trkpt>
      <trkpt lat="48.90923" lon="0.23609">
        <ele>217.06</ele>
        <time>2015-11-08T12:40:23Z</time>
      </trkpt>
      <trkpt lat="48.90924" lon="0.23613">
        <ele>217.57</ele>
        <time>2015-11-08T12:40:24Z</time>
      </trkpt>
      <trkpt lat="48.90925" lon="0.23617">
        <ele>218.28</ele>
        <time>2015-11-08T12:40:25Z</time>
      </trkpt>
      <trkpt lat="48.90925" lon="0.23621">
        <ele>218.98</ele>
        <time>2015-11-08T12:40:26Z</time>
      </trkpt>
      <trkpt lat="48.90926" lon="0.23625">
        <ele>219.7</ele>
        <time>2015-11-08T12:40:27Z</time>
      </trkpt>
      <trkpt lat="48.90927" lon="0.23629">
        <ele>220.45</ele>
        <time>2015-11-08T12:40:28Z</time>
      </trkpt>
      <trkpt lat="48.90928" lon="0.23633">
        <ele>221.26</ele>
        <time>2015-11-08T12:40:29Z</time>
      </trkpt>
      <trkpt lat="48.90929" lon="0.23638">
        <ele>222.09</ele>
        <time>2015-11-08T12:40:30Z</time>
      </trkpt>
      <trkpt lat="48.9093" lon="0.23642">
        <ele>222.79</ele>
        <time>2015-11-08T12:40:31Z</time>
      </trkpt>
      <trkpt lat="48.90931" lon="0.23646">
        <ele>223.45</ele>
        <time>2015-11-08T12:40:32Z</time>
      </trkpt>
      <trkpt lat="48.90932" lon="0.23651">
        <ele>224.12</ele>
        <time>2015-11-08T12:40:33Z</time>
      </trkpt>
      <trkpt lat="48.90933" lon="0.23655">
        <ele>224.81</ele>
        <time>2015-11-08T12:40:34Z</time>
      </trkpt>
      <trkpt lat="48.90934" lon="0.23659">
        <ele>225.52</ele>
        <time>2015-11-08T12:40:35Z</time>
      </trkpt>
      <trkpt lat="48.90935" lon="0.23664">
        <ele>226.24</ele>
        <time>2015-11-08T12:40:36Z</time>
      </trkpt>
      <trkpt lat="48.90936" lon="0.23668">
        <ele>226.8</ele>
        <time>2015-11-08T12:40:37Z</time>
      </trkpt>
      <trkpt lat="48.90936" lon="0.23673">
        <ele>227.08</ele>
        <time>2015-11-08T12:40:38Z</time>
      </trkpt>
      <trkpt lat="48.90937" lon="0.23678">
        <ele>227.37</ele>
        <time>2015-11-08T12:40:39Z</time>
      </trkpt>
      <trkpt lat="48.90938" lon="0.23683">
        <ele>227.68</ele>
        <time>2015-11-08T12:40:40Z</time>
      </trkpt>
      <trkpt lat="48.90939" lon="0.23687">
        <ele>228.01</ele>
        <time>2015-11-08T12:40:41Z</time>
      </trkpt>
      <trkpt lat="48.9094" lon="0.23692">
        <ele>228.33</ele>
        <time>2015-11-08T12:40:42Z</time>
      </trkpt>
      <trkpt lat="48.90941" lon="0.23697">
        <ele>228.33</ele>
        <time>2015-11-08T12:40:43Z</time>
      </trkpt>
      <trkpt lat="48.90942" lon="0.23701">
        <ele>227.98</ele>
        <time>2015-11-08T12:40:44Z</time>
      </trkpt>
      <trkpt lat="48.90943" lon="0.23706">
        <ele>227.58</ele>
        <time>2015-11-08T12:40:45Z</time>
      </trkpt>
      <trkpt lat="48.90944" lon="0.23711">
        <ele>227.13</ele>
        <time>2015-11-08T12:40:46Z</time>
      </trkpt>
      <trkpt lat="48.90944" lon="0.23716">
        <ele>226.67</ele>
        <time>2015-11-08T12:40:47Z</time>
      </trkpt>
      <trkpt lat="48.90945" lon="0.2372">
        <ele>226.2</ele>
        <time>2015-11-08T12:40:48Z</time>
      </trkpt>
      <trkpt lat="48.90945" lon="0.23725">
        <ele>225.76</ele>
        <time>2015-11-08T12:40:49Z</time>
      </trkpt>
      <trkpt lat="48.90946" lon="0.2373">
        <ele>225.37</ele>
        <time>2015-11-08T12:40:50Z</time>
      </trkpt>
      <trkpt lat="48.90946" lon="0.23734">
        <ele>224.99</ele>
        <time>2015-11-08T12:40:51Z</time>
      </trkpt>
      <trkpt lat="48.90947" lon="0.23739">
        <ele>224.61</ele>
        <time>2015-11-08T12:40:52Z</time>
      </trkpt>
      <trkpt lat="48.90947" lon="0.23743">
        <ele>224.22</ele>
        <time>2015-11-08T12:40:53Z</time>
      </trkpt>
      <trkpt lat="48.90947" lon="0.23748">
        <ele>223.8</ele>
        <time>2015-11-08T12:40:54Z</time>
      </trkpt>
      <trkpt lat="48.90948" lon="0.23752">
        <ele>223.57</ele>
        <time>2015-11-08T12:40:55Z</time>
      </trkpt>
      <trkpt lat="48.90949" lon="0.23756">
        <ele>223.46</ele>
        <time>2015-11-08T12:40:56Z</time>
      </trkpt>
      <trkpt lat="48.90949" lon="0.23761">
        <ele>223.29</ele>
        <time>2015-11-08T12:40:57Z</time>
      </trkpt>
      <trkpt lat="48.9095" lon="0.23765">
        <ele>223.03</ele>
        <time>2015-11-08T12:40:58Z</time>
      </trkpt>
      <trkpt lat="48.9095" lon="0.2377">
        <ele>222.77</ele>
        <time>2015-11-08T12:40:59Z</time>
      </trkpt>
      <trkpt lat="48.90951" lon="0.23775">
        <ele>222.56</ele>
        <time>2015-11-08T12:41:00Z</time>
      </trkpt>
      <trkpt lat="48.90951" lon="0.23779">
        <ele>222.46</ele>
        <time>2015-11-08T12:41:01Z</time>
      </trkpt>
      <trkpt lat="48.90952" lon="0.23783">
        <ele>222.44</ele>
        <time>2015-11-08T12:41:02Z</time>
      </trkpt>
      <trkpt lat="48.90952" lon="0.23788">
        <ele>222.38</ele>
        <time>2015-11-08T12:41:03Z</time>
      </trkpt>
      <trkpt lat="48.90952" lon="0.23793">
        <ele>222.31</ele>
        <time>2015-11-08T12:41:04Z</time>
      </trkpt>
      <trkpt lat="48.90952" lon="0.23797">
        <ele>222.28</ele>
        <time>2015-11-08T12:41:05Z</time>
      </trkpt>
      <trkpt lat="48.90952" lon="0.23802">
        <ele>222.18</ele>
        <time>2015-11-08T12:41:06Z</time>
      </trkpt>
      <trkpt lat="48.90952" lon="0.23806">
        <ele>222.04</ele>
        <time>2015-11-08T12:41:07Z</time>
      </trkpt>
      <trkpt lat="48.90951" lon="0.2381">
        <ele>221.86</ele>
        <time>2015-11-08T12:41:08Z</time>
      </trkpt>
      <trkpt lat="48.90951" lon="0.23815">
        <ele>221.69</ele>
        <time>2015-11-08T12:41:09Z</time>
      </trkpt>
      <trkpt lat="48.90951" lon="0.23819">
        <ele>221.57</ele>
        <time>2015-11-08T12:41:10Z</time>
      </trkpt>
      <trkpt lat="48.90951" lon="0.23824">
        <ele>221.48</ele>
        <time>2015-11-08T12:41:11Z</time>
      </trkpt>
      <trkpt lat="48.90951" lon="0.23828">
        <ele>221.38</ele>
        <time>2015-11-08T12:41:12Z</time>
      </trkpt>
      <trkpt lat="48.90951" lon="0.23832">
        <ele>221.27</ele>
        <time>2015-11-08T12:41:13Z</time>
      </trkpt>
      <trkpt lat="48.90951" lon="0.23837">
        <ele>221.03</ele>
        <time>2015-11-08T12:41:14Z</time>
      </trkpt>
      <trkpt lat="48.90951" lon="0.23841">
        <ele>220.76</ele>
        <time>2015-11-08T12:41:15Z</time>
      </trkpt>
      <trkpt lat="48.90951" lon="0.23845">
        <ele>220.49</ele>
        <time>2015-11-08T12:41:16Z</time>
      </trkpt>
      <trkpt lat="48.90951" lon="0.2385">
        <ele>220.22</ele>
        <time>2015-11-08T12:41:17Z</time>
      </trkpt>
      <trkpt lat="48.90952" lon="0.23858">
        <ele>219.73</ele>
        <time>2015-11-08T12:41:19Z</time>
      </trkpt>
      <trkpt lat="48.90952" lon="0.23862">
        <ele>219.56</ele>
        <time>2015-11-08T12:41:20Z</time>
      </trkpt>
      <trkpt lat="48.90952" lon="0.23866">
        <ele>219.69</ele>
        <time>2015-11-08T12:41:21Z</time>
      </trkpt>
      <trkpt lat="48.90952" lon="0.23871">
        <ele>219.82</ele>
        <time>2015-11-08T12:41:22Z</time>
      </trkpt>
      <trkpt lat="48.90953" lon="0.23875">
        <ele>219.94</ele>
        <time>2015-11-08T12:41:23Z</time>
      </trkpt>
      <trkpt lat="48.90953" lon="0.23879">
        <ele>220.06</ele>
        <time>2015-11-08T12:41:24Z</time>
      </trkpt>
      <trkpt lat="48.90953" lon="0.23884">
        <ele>220.17</ele>
        <time>2015-11-08T12:41:25Z</time>
      </trkpt>
      <trkpt lat="48.90953" lon="0.23888">
        <ele>220.28</ele>
        <time>2015-11-08T12:41:26Z</time>
      </trkpt>
      <trkpt lat="48.90953" lon="0.23896">
        <ele>220.33</ele>
        <time>2015-11-08T12:41:28Z</time>
      </trkpt>
      <trkpt lat="48.90954" lon="0.239">
        <ele>220.33</ele>
        <time>2015-11-08T12:41:29Z</time>
      </trkpt>
      <trkpt lat="48.90954" lon="0.23904">
        <ele>220.33</ele>
        <time>2015-11-08T12:41:30Z</time>
      </trkpt>
      <trkpt lat="48.90954" lon="0.23908">
        <ele>220.32</ele>
        <time>2015-11-08T12:41:31Z</time>
      </trkpt>
      <trkpt lat="48.90954" lon="0.23913">
        <ele>220.31</ele>
        <time>2015-11-08T12:41:32Z</time>
      </trkpt>
      <trkpt lat="48.90954" lon="0.23917">
        <ele>220.27</ele>
        <time>2015-11-08T12:41:33Z</time>
      </trkpt>
      <trkpt lat="48.90955" lon="0.23925">
        <ele>219.67</ele>
        <time>2015-11-08T12:41:35Z</time>
      </trkpt>
      <trkpt lat="48.90954" lon="0.23929">
        <ele>219.39</ele>
        <time>2015-11-08T12:41:36Z</time>
      </trkpt>
      <trkpt lat="48.90954" lon="0.23933">
        <ele>219.09</ele>
        <time>2015-11-08T12:41:37Z</time>
      </trkpt>
      <trkpt lat="48.90954" lon="0.23938">
        <ele>218.81</ele>
        <time>2015-11-08T12:41:38Z</time>
      </trkpt>
      <trkpt lat="48.90954" lon="0.23942">
        <ele>218.52</ele>
        <time>2015-11-08T12:41:39Z</time>
      </trkpt>
      <trkpt lat="48.90953" lon="0.23946">
        <ele>218.26</ele>
        <time>2015-11-08T12:41:40Z</time>
      </trkpt>
      <trkpt lat="48.90953" lon="0.2395">
        <ele>218.04</ele>
        <time>2015-11-08T12:41:41Z</time>
      </trkpt>
      <trkpt lat="48.90953" lon="0.23955">
        <ele>217.82</ele>
        <time>2015-11-08T12:41:42Z</time>
      </trkpt>
      <trkpt lat="48.90952" lon="0.23959">
        <ele>217.6</ele>
        <time>2015-11-08T12:41:43Z</time>
      </trkpt>
      <trkpt lat="48.90952" lon="0.23963">
        <ele>217.39</ele>
        <time>2015-11-08T12:41:44Z</time>
      </trkpt>
      <trkpt lat="48.90952" lon="0.23968">
        <ele>217.19</ele>
        <time>2015-11-08T12:41:45Z</time>
      </trkpt>
      <trkpt lat="48.90951" lon="0.23972">
        <ele>217.03</ele>
        <time>2015-11-08T12:41:46Z</time>
      </trkpt>
      <trkpt lat="48.90951" lon="0.23976">
        <ele>217.44</ele>
        <time>2015-11-08T12:41:47Z</time>
      </trkpt>
      <trkpt lat="48.90951" lon="0.2398">
        <ele>217.91</ele>
        <time>2015-11-08T12:41:48Z</time>
      </trkpt>
      <trkpt lat="48.90951" lon="0.23985">
        <ele>218.37</ele>
        <time>2015-11-08T12:41:49Z</time>
      </trkpt>
      <trkpt lat="48.90951" lon="0.23989">
        <ele>218.83</ele>
        <time>2015-11-08T12:41:50Z</time>
      </trkpt>
      <trkpt lat="48.90951" lon="0.23994">
        <ele>219.31</ele>
        <time>2015-11-08T12:41:51Z</time>
      </trkpt>
      <trkpt lat="48.9095" lon="0.23999">
        <ele>219.81</ele>
        <time>2015-11-08T12:41:52Z</time>
      </trkpt>
      <trkpt lat="48.9095" lon="0.24003">
        <ele>220.31</ele>
        <time>2015-11-08T12:41:53Z</time>
      </trkpt>
      <trkpt lat="48.9095" lon="0.24007">
        <ele>220.84</ele>
        <time>2015-11-08T12:41:54Z</time>
      </trkpt>
      <trkpt lat="48.9095" lon="0.24012">
        <ele>221.4</ele>
        <time>2015-11-08T12:41:55Z</time>
      </trkpt>
      <trkpt lat="48.90949" lon="0.24016">
        <ele>222.02</ele>
        <time>2015-11-08T12:41:56Z</time>
      </trkpt>
      <trkpt lat="48.90948" lon="0.2402">
        <ele>222.62</ele>
        <time>2015-11-08T12:41:57Z</time>
      </trkpt>
      <trkpt lat="48.90947" lon="0.24024">
        <ele>223.17</ele>
        <time>2015-11-08T12:41:58Z</time>
      </trkpt>
      <trkpt lat="48.90946" lon="0.24032">
        <ele>223.77</ele>
        <time>2015-11-08T12:42:00Z</time>
      </trkpt>
      <trkpt lat="48.90946" lon="0.24036">
        <ele>223.82</ele>
        <time>2015-11-08T12:42:01Z</time>
      </trkpt>
      <trkpt lat="48.90946" lon="0.24041">
        <ele>223.84</ele>
        <time>2015-11-08T12:42:02Z</time>
      </trkpt>
      <trkpt lat="48.90945" lon="0.24045">
        <ele>223.91</ele>
        <time>2015-11-08T12:42:03Z</time>
      </trkpt>
      <trkpt lat="48.90945" lon="0.24049">
        <ele>223.98</ele>
        <time>2015-11-08T12:42:04Z</time>
      </trkpt>
      <trkpt lat="48.90945" lon="0.24054">
        <ele>223.99</ele>
        <time>2015-11-08T12:42:05Z</time>
      </trkpt>
      <trkpt lat="48.90945" lon="0.24058">
        <ele>223.99</ele>
        <time>2015-11-08T12:42:06Z</time>
      </trkpt>
      <trkpt lat="48.90945" lon="0.24063">
        <ele>223.99</ele>
        <time>2015-11-08T12:42:07Z</time>
      </trkpt>
      <trkpt lat="48.90945" lon="0.24068">
        <ele>223.99</ele>
        <time>2015-11-08T12:42:08Z</time>
      </trkpt>
      <trkpt lat="48.90945" lon="0.24072">
        <ele>223.98</ele>
        <time>2015-11-08T12:42:09Z</time>
      </trkpt>
      <trkpt lat="48.90945" lon="0.24077">
        <ele>223.98</ele>
        <time>2015-11-08T12:42:10Z</time>
      </trkpt>
      <trkpt lat="48.90945" lon="0.24081">
        <ele>223.99</ele>
        <time>2015-11-08T12:42:11Z</time>
      </trkpt>
      <trkpt lat="48.90944" lon="0.24085">
        <ele>223.92</ele>
        <time>2015-11-08T12:42:12Z</time>
      </trkpt>
      <trkpt lat="48.90944" lon="0.2409">
        <ele>223.67</ele>
        <time>2015-11-08T12:42:13Z</time>
      </trkpt>
      <trkpt lat="48.90943" lon="0.24094">
        <ele>223.42</ele>
        <time>2015-11-08T12:42:14Z</time>
      </trkpt>
      <trkpt lat="48.90942" lon="0.24099">
        <ele>223.19</ele>
        <time>2015-11-08T12:42:15Z</time>
      </trkpt>
      <trkpt lat="48.90941" lon="0.24104">
        <ele>222.97</ele>
        <time>2015-11-08T12:42:16Z</time>
      </trkpt>
      <trkpt lat="48.90941" lon="0.2411">
        <ele>222.77</ele>
        <time>2015-11-08T12:42:17Z</time>
      </trkpt>
      <trkpt lat="48.9094" lon="0.24115">
        <ele>222.63</ele>
        <time>2015-11-08T12:42:18Z</time>
      </trkpt>
      <trkpt lat="48.90939" lon="0.2412">
        <ele>222.54</ele>
        <time>2015-11-08T12:42:19Z</time>
      </trkpt>
      <trkpt lat="48.90938" lon="0.24124">
        <ele>222.5</ele>
        <time>2015-11-08T12:42:20Z</time>
      </trkpt>
      <trkpt lat="48.90936" lon="0.24129">
        <ele>222.52</ele>
        <time>2015-11-08T12:42:21Z</time>
      </trkpt>
      <trkpt lat="48.90935" lon="0.24133">
        <ele>222.58</ele>
        <time>2015-11-08T12:42:22Z</time>
      </trkpt>
      <trkpt lat="48.90935" lon="0.24137">
        <ele>222.69</ele>
        <time>2015-11-08T12:42:23Z</time>
      </trkpt>
      <trkpt lat="48.90934" lon="0.24142">
        <ele>222.9</ele>
        <time>2015-11-08T12:42:24Z</time>
      </trkpt>
      <trkpt lat="48.90933" lon="0.24146">
        <ele>223.18</ele>
        <time>2015-11-08T12:42:25Z</time>
      </trkpt>
      <trkpt lat="48.90933" lon="0.24151">
        <ele>223.46</ele>
        <time>2015-11-08T12:42:26Z</time>
      </trkpt>
      <trkpt lat="48.90932" lon="0.24155">
        <ele>223.75</ele>
        <time>2015-11-08T12:42:27Z</time>
      </trkpt>
      <trkpt lat="48.90931" lon="0.2416">
        <ele>224.06</ele>
        <time>2015-11-08T12:42:28Z</time>
      </trkpt>
      <trkpt lat="48.9093" lon="0.24164">
        <ele>224.4</ele>
        <time>2015-11-08T12:42:29Z</time>
      </trkpt>
      <trkpt lat="48.90929" lon="0.24168">
        <ele>224.8</ele>
        <time>2015-11-08T12:42:30Z</time>
      </trkpt>
      <trkpt lat="48.90928" lon="0.24173">
        <ele>225.26</ele>
        <time>2015-11-08T12:42:31Z</time>
      </trkpt>
      <trkpt lat="48.90927" lon="0.24181">
        <ele>226.12</ele>
        <time>2015-11-08T12:42:33Z</time>
      </trkpt>
      <trkpt lat="48.90926" lon="0.24185">
        <ele>226.58</ele>
        <time>2015-11-08T12:42:34Z</time>
      </trkpt>
      <trkpt lat="48.90925" lon="0.2419">
        <ele>226.99</ele>
        <time>2015-11-08T12:42:35Z</time>
      </trkpt>
      <trkpt lat="48.90925" lon="0.24194">
        <ele>227.37</ele>
        <time>2015-11-08T12:42:36Z</time>
      </trkpt>
      <trkpt lat="48.90926" lon="0.24199">
        <ele>227.84</ele>
        <time>2015-11-08T12:42:37Z</time>
      </trkpt>
      <trkpt lat="48.90926" lon="0.24203">
        <ele>228.26</ele>
        <time>2015-11-08T12:42:38Z</time>
      </trkpt>
      <trkpt lat="48.90928" lon="0.24211">
        <ele>229</ele>
        <time>2015-11-08T12:42:40Z</time>
      </trkpt>
      <trkpt lat="48.90928" lon="0.24215">
        <ele>229.43</ele>
        <time>2015-11-08T12:42:41Z</time>
      </trkpt>
      <trkpt lat="48.90928" lon="0.2422">
        <ele>229.93</ele>
        <time>2015-11-08T12:42:42Z</time>
      </trkpt>
      <trkpt lat="48.90928" lon="0.24225">
        <ele>230.24</ele>
        <time>2015-11-08T12:42:43Z</time>
      </trkpt>
      <trkpt lat="48.90927" lon="0.24229">
        <ele>230.32</ele>
        <time>2015-11-08T12:42:44Z</time>
      </trkpt>
      <trkpt lat="48.90927" lon="0.24234">
        <ele>230.41</ele>
        <time>2015-11-08T12:42:45Z</time>
      </trkpt>
      <trkpt lat="48.90926" lon="0.24238">
        <ele>230.51</ele>
        <time>2015-11-08T12:42:46Z</time>
      </trkpt>
      <trkpt lat="48.90925" lon="0.24243">
        <ele>230.61</ele>
        <time>2015-11-08T12:42:47Z</time>
      </trkpt>
      <trkpt lat="48.90925" lon="0.24248">
        <ele>230.67</ele>
        <time>2015-11-08T12:42:48Z</time>
      </trkpt>
      <trkpt lat="48.90925" lon="0.24252">
        <ele>230.63</ele>
        <time>2015-11-08T12:42:49Z</time>
      </trkpt>
      <trkpt lat="48.90926" lon="0.24257">
        <ele>230.51</ele>
        <time>2015-11-08T12:42:50Z</time>
      </trkpt>
      <trkpt lat="48.90926" lon="0.24261">
        <ele>230.4</ele>
        <time>2015-11-08T12:42:51Z</time>
      </trkpt>
      <trkpt lat="48.90926" lon="0.24266">
        <ele>230.29</ele>
        <time>2015-11-08T12:42:52Z</time>
      </trkpt>
      <trkpt lat="48.90926" lon="0.2427">
        <ele>230.18</ele>
        <time>2015-11-08T12:42:53Z</time>
      </trkpt>
      <trkpt lat="48.90926" lon="0.24275">
        <ele>230.06</ele>
        <time>2015-11-08T12:42:54Z</time>
      </trkpt>
      <trkpt lat="48.90927" lon="0.2428">
        <ele>229.99</ele>
        <time>2015-11-08T12:42:55Z</time>
      </trkpt>
      <trkpt lat="48.90927" lon="0.24286">
        <ele>229.96</ele>
        <time>2015-11-08T12:42:56Z</time>
      </trkpt>
      <trkpt lat="48.90928" lon="0.24291">
        <ele>229.91</ele>
        <time>2015-11-08T12:42:57Z</time>
      </trkpt>
      <trkpt lat="48.90928" lon="0.24296">
        <ele>229.84</ele>
        <time>2015-11-08T12:42:58Z</time>
      </trkpt>
      <trkpt lat="48.90929" lon="0.24301">
        <ele>229.74</ele>
        <time>2015-11-08T12:42:59Z</time>
      </trkpt>
      <trkpt lat="48.90929" lon="0.24306">
        <ele>229.63</ele>
        <time>2015-11-08T12:43:00Z</time>
      </trkpt>
      <trkpt lat="48.9093" lon="0.24311">
        <ele>229.68</ele>
        <time>2015-11-08T12:43:01Z</time>
      </trkpt>
      <trkpt lat="48.9093" lon="0.24316">
        <ele>229.78</ele>
        <time>2015-11-08T12:43:02Z</time>
      </trkpt>
      <trkpt lat="48.9093" lon="0.24321">
        <ele>229.89</ele>
        <time>2015-11-08T12:43:03Z</time>
      </trkpt>
      <trkpt lat="48.9093" lon="0.24326">
        <ele>230</ele>
        <time>2015-11-08T12:43:04Z</time>
      </trkpt>
      <trkpt lat="48.9093" lon="0.24331">
        <ele>230.04</ele>
        <time>2015-11-08T12:43:05Z</time>
      </trkpt>
      <trkpt lat="48.9093" lon="0.24335">
        <ele>230.12</ele>
        <time>2015-11-08T12:43:06Z</time>
      </trkpt>
      <trkpt lat="48.9093" lon="0.24339">
        <ele>230.3</ele>
        <time>2015-11-08T12:43:07Z</time>
      </trkpt>
      <trkpt lat="48.90929" lon="0.24343">
        <ele>230.53</ele>
        <time>2015-11-08T12:43:08Z</time>
      </trkpt>
      <trkpt lat="48.90929" lon="0.24348">
        <ele>230.81</ele>
        <time>2015-11-08T12:43:09Z</time>
      </trkpt>
      <trkpt lat="48.90928" lon="0.24353">
        <ele>231.12</ele>
        <time>2015-11-08T12:43:10Z</time>
      </trkpt>
      <trkpt lat="48.90927" lon="0.24358">
        <ele>231.44</ele>
        <time>2015-11-08T12:43:11Z</time>
      </trkpt>
      <trkpt lat="48.90926" lon="0.24363">
        <ele>231.7</ele>
        <time>2015-11-08T12:43:12Z</time>
      </trkpt>
      <trkpt lat="48.90925" lon="0.24368">
        <ele>231.87</ele>
        <time>2015-11-08T12:43:13Z</time>
      </trkpt>
      <trkpt lat="48.90923" lon="0.24373">
        <ele>232.07</ele>
        <time>2015-11-08T12:43:14Z</time>
      </trkpt>
      <trkpt lat="48.90922" lon="0.24378">
        <ele>232.27</ele>
        <time>2015-11-08T12:43:15Z</time>
      </trkpt>
      <trkpt lat="48.9092" lon="0.24383">
        <ele>232.51</ele>
        <time>2015-11-08T12:43:16Z</time>
      </trkpt>
      <trkpt lat="48.90918" lon="0.24388">
        <ele>232.75</ele>
        <time>2015-11-08T12:43:17Z</time>
      </trkpt>
      <trkpt lat="48.90917" lon="0.24393">
        <ele>232.57</ele>
        <time>2015-11-08T12:43:18Z</time>
      </trkpt>
      <trkpt lat="48.90916" lon="0.24397">
        <ele>232.15</ele>
        <time>2015-11-08T12:43:19Z</time>
      </trkpt>
      <trkpt lat="48.90914" lon="0.24402">
        <ele>231.71</ele>
        <time>2015-11-08T12:43:20Z</time>
      </trkpt>
      <trkpt lat="48.90913" lon="0.24407">
        <ele>231.31</ele>
        <time>2015-11-08T12:43:21Z</time>
      </trkpt>
      <trkpt lat="48.90912" lon="0.24411">
        <ele>230.88</ele>
        <time>2015-11-08T12:43:22Z</time>
      </trkpt>
      <trkpt lat="48.90911" lon="0.24416">
        <ele>230.44</ele>
        <time>2015-11-08T12:43:23Z</time>
      </trkpt>
      <trkpt lat="48.9091" lon="0.24421">
        <ele>229.78</ele>
        <time>2015-11-08T12:43:24Z</time>
      </trkpt>
      <trkpt lat="48.90909" lon="0.24426">
        <ele>229.17</ele>
        <time>2015-11-08T12:43:25Z</time>
      </trkpt>
      <trkpt lat="48.90907" lon="0.24431">
        <ele>228.68</ele>
        <time>2015-11-08T12:43:26Z</time>
      </trkpt>
      <trkpt lat="48.90905" lon="0.24435">
        <ele>228.28</ele>
        <time>2015-11-08T12:43:27Z</time>
      </trkpt>
      <trkpt lat="48.90903" lon="0.2444">
        <ele>227.99</ele>
        <time>2015-11-08T12:43:28Z</time>
      </trkpt>
      <trkpt lat="48.90901" lon="0.24444">
        <ele>227.82</ele>
        <time>2015-11-08T12:43:29Z</time>
      </trkpt>
      <trkpt lat="48.90899" lon="0.24448">
        <ele>228.2</ele>
        <time>2015-11-08T12:43:30Z</time>
      </trkpt>
      <trkpt lat="48.90897" lon="0.24452">
        <ele>228.57</ele>
        <time>2015-11-08T12:43:31Z</time>
      </trkpt>
      <trkpt lat="48.90895" lon="0.24456">
        <ele>228.84</ele>
        <time>2015-11-08T12:43:32Z</time>
      </trkpt>
      <trkpt lat="48.90893" lon="0.2446">
        <ele>229.02</ele>
        <time>2015-11-08T12:43:33Z</time>
      </trkpt>
      <trkpt lat="48.90891" lon="0.24464">
        <ele>229.14</ele>
        <time>2015-11-08T12:43:34Z</time>
      </trkpt>
      <trkpt lat="48.90889" lon="0.24468">
        <ele>229.17</ele>
        <time>2015-11-08T12:43:35Z</time>
      </trkpt>
      <trkpt lat="48.90887" lon="0.24472">
        <ele>229.4</ele>
        <time>2015-11-08T12:43:36Z</time>
      </trkpt>
      <trkpt lat="48.90885" lon="0.24476">
        <ele>229.79</ele>
        <time>2015-11-08T12:43:37Z</time>
      </trkpt>
      <trkpt lat="48.90883" lon="0.24479">
        <ele>230.14</ele>
        <time>2015-11-08T12:43:38Z</time>
      </trkpt>
      <trkpt lat="48.90881" lon="0.24482">
        <ele>230.41</ele>
        <time>2015-11-08T12:43:39Z</time>
      </trkpt>
      <trkpt lat="48.90879" lon="0.24485">
        <ele>230.62</ele>
        <time>2015-11-08T12:43:40Z</time>
      </trkpt>
      <trkpt lat="48.90877" lon="0.24488">
        <ele>230.78</ele>
        <time>2015-11-08T12:43:41Z</time>
      </trkpt>
      <trkpt lat="48.90874" lon="0.24491">
        <ele>230.88</ele>
        <time>2015-11-08T12:43:42Z</time>
      </trkpt>
      <trkpt lat="48.90872" lon="0.24495">
        <ele>230.89</ele>
        <time>2015-11-08T12:43:43Z</time>
      </trkpt>
      <trkpt lat="48.9087" lon="0.24498">
        <ele>230.78</ele>
        <time>2015-11-08T12:43:44Z</time>
      </trkpt>
      <trkpt lat="48.90868" lon="0.24503">
        <ele>230.79</ele>
        <time>2015-11-08T12:43:45Z</time>
      </trkpt>
      <trkpt lat="48.90866" lon="0.24507">
        <ele>231.22</ele>
        <time>2015-11-08T12:43:46Z</time>
      </trkpt>
      <trkpt lat="48.90863" lon="0.2451">
        <ele>231.96</ele>
        <time>2015-11-08T12:43:47Z</time>
      </trkpt>
      <trkpt lat="48.90861" lon="0.24514">
        <ele>233.04</ele>
        <time>2015-11-08T12:43:48Z</time>
      </trkpt>
      <trkpt lat="48.90859" lon="0.24518">
        <ele>233.58</ele>
        <time>2015-11-08T12:43:49Z</time>
      </trkpt>
      <trkpt lat="48.90856" lon="0.24521">
        <ele>233.96</ele>
        <time>2015-11-08T12:43:50Z</time>
      </trkpt>
      <trkpt lat="48.90853" lon="0.24524">
        <ele>234.16</ele>
        <time>2015-11-08T12:43:51Z</time>
      </trkpt>
      <trkpt lat="48.90851" lon="0.24527">
        <ele>234.23</ele>
        <time>2015-11-08T12:43:52Z</time>
      </trkpt>
      <trkpt lat="48.90849" lon="0.2453">
        <ele>233.87</ele>
        <time>2015-11-08T12:43:53Z</time>
      </trkpt>
      <trkpt lat="48.90847" lon="0.24533">
        <ele>233.54</ele>
        <time>2015-11-08T12:43:54Z</time>
      </trkpt>
      <trkpt lat="48.90844" lon="0.24535">
        <ele>233.43</ele>
        <time>2015-11-08T12:43:55Z</time>
      </trkpt>
      <trkpt lat="48.90841" lon="0.24538">
        <ele>233.5</ele>
        <time>2015-11-08T12:43:56Z</time>
      </trkpt>
      <trkpt lat="48.90839" lon="0.2454">
        <ele>233.77</ele>
        <time>2015-11-08T12:43:57Z</time>
      </trkpt>
      <trkpt lat="48.90837" lon="0.24543">
        <ele>234.15</ele>
        <time>2015-11-08T12:43:58Z</time>
      </trkpt>
      <trkpt lat="48.90835" lon="0.24547">
        <ele>234.69</ele>
        <time>2015-11-08T12:43:59Z</time>
      </trkpt>
      <trkpt lat="48.90833" lon="0.2455">
        <ele>235.41</ele>
        <time>2015-11-08T12:44:00Z</time>
      </trkpt>
      <trkpt lat="48.90831" lon="0.24553">
        <ele>235.78</ele>
        <time>2015-11-08T12:44:01Z</time>
      </trkpt>
      <trkpt lat="48.90829" lon="0.24556">
        <ele>235.88</ele>
        <time>2015-11-08T12:44:02Z</time>
      </trkpt>
      <trkpt lat="48.90827" lon="0.24559">
        <ele>235.41</ele>
        <time>2015-11-08T12:44:03Z</time>
      </trkpt>
      <trkpt lat="48.90825" lon="0.24562">
        <ele>234.96</ele>
        <time>2015-11-08T12:44:04Z</time>
      </trkpt>
      <trkpt lat="48.90823" lon="0.24565">
        <ele>234.6</ele>
        <time>2015-11-08T12:44:05Z</time>
      </trkpt>
      <trkpt lat="48.90821" lon="0.24569">
        <ele>234.35</ele>
        <time>2015-11-08T12:44:06Z</time>
      </trkpt>
      <trkpt lat="48.90819" lon="0.24575">
        <ele>234.03</ele>
        <time>2015-11-08T12:44:08Z</time>
      </trkpt>
      <trkpt lat="48.90815" lon="0.2458">
        <ele>234.4</ele>
        <time>2015-11-08T12:44:10Z</time>
      </trkpt>
      <trkpt lat="48.90813" lon="0.24583">
        <ele>234.78</ele>
        <time>2015-11-08T12:44:11Z</time>
      </trkpt>
      <trkpt lat="48.90811" lon="0.24586">
        <ele>235.97</ele>
        <time>2015-11-08T12:44:12Z</time>
      </trkpt>
      <trkpt lat="48.90809" lon="0.24588">
        <ele>237.13</ele>
        <time>2015-11-08T12:44:13Z</time>
      </trkpt>
      <trkpt lat="48.90806" lon="0.24591">
        <ele>238.16</ele>
        <time>2015-11-08T12:44:14Z</time>
      </trkpt>
      <trkpt lat="48.90801" lon="0.24594">
        <ele>238.59</ele>
        <time>2015-11-08T12:44:16Z</time>
      </trkpt>
      <trkpt lat="48.90799" lon="0.24595">
        <ele>238.74</ele>
        <time>2015-11-08T12:44:17Z</time>
      </trkpt>
      <trkpt lat="48.90796" lon="0.24597">
        <ele>239.06</ele>
        <time>2015-11-08T12:44:18Z</time>
      </trkpt>
      <trkpt lat="48.90793" lon="0.24599">
        <ele>239.51</ele>
        <time>2015-11-08T12:44:19Z</time>
      </trkpt>
      <trkpt lat="48.9079" lon="0.24601">
        <ele>240.06</ele>
        <time>2015-11-08T12:44:20Z</time>
      </trkpt>
      <trkpt lat="48.90786" lon="0.24604">
        <ele>240.95</ele>
        <time>2015-11-08T12:44:21Z</time>
      </trkpt>
      <trkpt lat="48.90783" lon="0.24607">
        <ele>242.08</ele>
        <time>2015-11-08T12:44:22Z</time>
      </trkpt>
      <trkpt lat="48.90779" lon="0.24609">
        <ele>243.23</ele>
        <time>2015-11-08T12:44:23Z</time>
      </trkpt>
      <trkpt lat="48.90776" lon="0.24611">
        <ele>243.46</ele>
        <time>2015-11-08T12:44:24Z</time>
      </trkpt>
      <trkpt lat="48.90773" lon="0.24612">
        <ele>242.36</ele>
        <time>2015-11-08T12:44:25Z</time>
      </trkpt>
      <trkpt lat="48.90769" lon="0.24612">
        <ele>241.43</ele>
        <time>2015-11-08T12:44:26Z</time>
      </trkpt>
      <trkpt lat="48.90766" lon="0.24612">
        <ele>240.54</ele>
        <time>2015-11-08T12:44:27Z</time>
      </trkpt>
      <trkpt lat="48.90763" lon="0.24613">
        <ele>239.62</ele>
        <time>2015-11-08T12:44:28Z</time>
      </trkpt>
      <trkpt lat="48.9076" lon="0.24613">
        <ele>238.74</ele>
        <time>2015-11-08T12:44:29Z</time>
      </trkpt>
      <trkpt lat="48.90757" lon="0.24615">
        <ele>237.81</ele>
        <time>2015-11-08T12:44:30Z</time>
      </trkpt>
      <trkpt lat="48.90754" lon="0.24618">
        <ele>236.9</ele>
        <time>2015-11-08T12:44:31Z</time>
      </trkpt>
      <trkpt lat="48.90751" lon="0.24621">
        <ele>236.13</ele>
        <time>2015-11-08T12:44:32Z</time>
      </trkpt>
      <trkpt lat="48.90747" lon="0.24624">
        <ele>235.6</ele>
        <time>2015-11-08T12:44:33Z</time>
      </trkpt>
      <trkpt lat="48.90744" lon="0.24628">
        <ele>234.98</ele>
        <time>2015-11-08T12:44:34Z</time>
      </trkpt>
      <trkpt lat="48.90741" lon="0.24631">
        <ele>234.28</ele>
        <time>2015-11-08T12:44:35Z</time>
      </trkpt>
      <trkpt lat="48.90739" lon="0.24633">
        <ele>233.59</ele>
        <time>2015-11-08T12:44:36Z</time>
      </trkpt>
      <trkpt lat="48.90736" lon="0.24635">
        <ele>232.84</ele>
        <time>2015-11-08T12:44:37Z</time>
      </trkpt>
      <trkpt lat="48.90734" lon="0.24638">
        <ele>232.06</ele>
        <time>2015-11-08T12:44:38Z</time>
      </trkpt>
      <trkpt lat="48.90731" lon="0.24639">
        <ele>231.24</ele>
        <time>2015-11-08T12:44:39Z</time>
      </trkpt>
      <trkpt lat="48.90729" lon="0.24641">
        <ele>230.42</ele>
        <time>2015-11-08T12:44:40Z</time>
      </trkpt>
      <trkpt lat="48.90726" lon="0.24644">
        <ele>229.73</ele>
        <time>2015-11-08T12:44:41Z</time>
      </trkpt>
      <trkpt lat="48.90723" lon="0.24647">
        <ele>229.19</ele>
        <time>2015-11-08T12:44:42Z</time>
      </trkpt>
      <trkpt lat="48.90721" lon="0.24651">
        <ele>229.13</ele>
        <time>2015-11-08T12:44:43Z</time>
      </trkpt>
      <trkpt lat="48.90718" lon="0.24656">
        <ele>229.46</ele>
        <time>2015-11-08T12:44:44Z</time>
      </trkpt>
      <trkpt lat="48.90716" lon="0.2466">
        <ele>229.94</ele>
        <time>2015-11-08T12:44:45Z</time>
      </trkpt>
      <trkpt lat="48.90713" lon="0.24665">
        <ele>230.55</ele>
        <time>2015-11-08T12:44:46Z</time>
      </trkpt>
      <trkpt lat="48.90711" lon="0.2467">
        <ele>230.49</ele>
        <time>2015-11-08T12:44:47Z</time>
      </trkpt>
      <trkpt lat="48.90708" lon="0.24674">
        <ele>229.64</ele>
        <time>2015-11-08T12:44:48Z</time>
      </trkpt>
      <trkpt lat="48.90705" lon="0.24678">
        <ele>228.33</ele>
        <time>2015-11-08T12:44:49Z</time>
      </trkpt>
      <trkpt lat="48.90703" lon="0.24682">
        <ele>226.69</ele>
        <time>2015-11-08T12:44:50Z</time>
      </trkpt>
      <trkpt lat="48.907" lon="0.24687">
        <ele>224.53</ele>
        <time>2015-11-08T12:44:51Z</time>
      </trkpt>
      <trkpt lat="48.90698" lon="0.24691">
        <ele>221.88</ele>
        <time>2015-11-08T12:44:52Z</time>
      </trkpt>
      <trkpt lat="48.90695" lon="0.24696">
        <ele>219.31</ele>
        <time>2015-11-08T12:44:53Z</time>
      </trkpt>
      <trkpt lat="48.90692" lon="0.247">
        <ele>219.27</ele>
        <time>2015-11-08T12:44:54Z</time>
      </trkpt>
      <trkpt lat="48.9069" lon="0.24705">
        <ele>219.48</ele>
        <time>2015-11-08T12:44:55Z</time>
      </trkpt>
      <trkpt lat="48.90688" lon="0.2471">
        <ele>219.67</ele>
        <time>2015-11-08T12:44:56Z</time>
      </trkpt>
      <trkpt lat="48.90685" lon="0.24715">
        <ele>219.81</ele>
        <time>2015-11-08T12:44:57Z</time>
      </trkpt>
      <trkpt lat="48.90683" lon="0.24719">
        <ele>219.93</ele>
        <time>2015-11-08T12:44:58Z</time>
      </trkpt>
      <trkpt lat="48.90681" lon="0.24724">
        <ele>220.61</ele>
        <time>2015-11-08T12:44:59Z</time>
      </trkpt>
      <trkpt lat="48.9068" lon="0.2473">
        <ele>222.42</ele>
        <time>2015-11-08T12:45:00Z</time>
      </trkpt>
      <trkpt lat="48.9068" lon="0.24735">
        <ele>224.32</ele>
        <time>2015-11-08T12:45:01Z</time>
      </trkpt>
      <trkpt lat="48.9068" lon="0.24741">
        <ele>226.12</ele>
        <time>2015-11-08T12:45:02Z</time>
      </trkpt>
      <trkpt lat="48.90682" lon="0.24746">
        <ele>227.64</ele>
        <time>2015-11-08T12:45:03Z</time>
      </trkpt>
      <trkpt lat="48.90684" lon="0.2475">
        <ele>228.81</ele>
        <time>2015-11-08T12:45:04Z</time>
      </trkpt>
      <trkpt lat="48.90687" lon="0.24754">
        <ele>229.68</ele>
        <time>2015-11-08T12:45:05Z</time>
      </trkpt>
      <trkpt lat="48.90689" lon="0.24758">
        <ele>230.68</ele>
        <time>2015-11-08T12:45:06Z</time>
      </trkpt>
      <trkpt lat="48.90692" lon="0.24762">
        <ele>231.78</ele>
        <time>2015-11-08T12:45:07Z</time>
      </trkpt>
      <trkpt lat="48.90694" lon="0.24766">
        <ele>233.07</ele>
        <time>2015-11-08T12:45:08Z</time>
      </trkpt>
      <trkpt lat="48.90696" lon="0.2477">
        <ele>234.37</ele>
        <time>2015-11-08T12:45:09Z</time>
      </trkpt>
      <trkpt lat="48.90699" lon="0.24774">
        <ele>235.7</ele>
        <time>2015-11-08T12:45:10Z</time>
      </trkpt>
      <trkpt lat="48.90701" lon="0.24778">
        <ele>236.98</ele>
        <time>2015-11-08T12:45:11Z</time>
      </trkpt>
      <trkpt lat="48.90703" lon="0.24782">
        <ele>236.9</ele>
        <time>2015-11-08T12:45:12Z</time>
      </trkpt>
      <trkpt lat="48.90706" lon="0.24785">
        <ele>236.89</ele>
        <time>2015-11-08T12:45:13Z</time>
      </trkpt>
      <trkpt lat="48.90708" lon="0.24789">
        <ele>236.97</ele>
        <time>2015-11-08T12:45:14Z</time>
      </trkpt>
      <trkpt lat="48.9071" lon="0.24793">
        <ele>237.14</ele>
        <time>2015-11-08T12:45:15Z</time>
      </trkpt>
      <trkpt lat="48.90712" lon="0.24797">
        <ele>237.39</ele>
        <time>2015-11-08T12:45:16Z</time>
      </trkpt>
      <trkpt lat="48.90714" lon="0.24801">
        <ele>237.73</ele>
        <time>2015-11-08T12:45:17Z</time>
      </trkpt>
      <trkpt lat="48.90717" lon="0.24805">
        <ele>238.16</ele>
        <time>2015-11-08T12:45:18Z</time>
      </trkpt>
      <trkpt lat="48.90719" lon="0.24809">
        <ele>238.33</ele>
        <time>2015-11-08T12:45:19Z</time>
      </trkpt>
      <trkpt lat="48.90721" lon="0.24813">
        <ele>238.45</ele>
        <time>2015-11-08T12:45:20Z</time>
      </trkpt>
      <trkpt lat="48.90722" lon="0.24818">
        <ele>238.56</ele>
        <time>2015-11-08T12:45:21Z</time>
      </trkpt>
      <trkpt lat="48.90724" lon="0.24823">
        <ele>238.58</ele>
        <time>2015-11-08T12:45:22Z</time>
      </trkpt>
      <trkpt lat="48.90725" lon="0.24827">
        <ele>238.65</ele>
        <time>2015-11-08T12:45:23Z</time>
      </trkpt>
      <trkpt lat="48.90726" lon="0.24832">
        <ele>238.73</ele>
        <time>2015-11-08T12:45:24Z</time>
      </trkpt>
      <trkpt lat="48.90726" lon="0.24837">
        <ele>238.53</ele>
        <time>2015-11-08T12:45:25Z</time>
      </trkpt>
      <trkpt lat="48.90727" lon="0.24842">
        <ele>238.21</ele>
        <time>2015-11-08T12:45:26Z</time>
      </trkpt>
      <trkpt lat="48.90727" lon="0.24847">
        <ele>237.85</ele>
        <time>2015-11-08T12:45:27Z</time>
      </trkpt>
      <trkpt lat="48.90727" lon="0.24852">
        <ele>237.45</ele>
        <time>2015-11-08T12:45:28Z</time>
      </trkpt>
      <trkpt lat="48.90727" lon="0.24857">
        <ele>237</ele>
        <time>2015-11-08T12:45:29Z</time>
      </trkpt>
      <trkpt lat="48.90727" lon="0.24862">
        <ele>236.5</ele>
        <time>2015-11-08T12:45:30Z</time>
      </trkpt>
      <trkpt lat="48.90727" lon="0.24867">
        <ele>235.73</ele>
        <time>2015-11-08T12:45:31Z</time>
      </trkpt>
      <trkpt lat="48.90726" lon="0.24872">
        <ele>234.88</ele>
        <time>2015-11-08T12:45:32Z</time>
      </trkpt>
      <trkpt lat="48.90726" lon="0.24877">
        <ele>233.99</ele>
        <time>2015-11-08T12:45:33Z</time>
      </trkpt>
      <trkpt lat="48.90726" lon="0.24882">
        <ele>233.1</ele>
        <time>2015-11-08T12:45:34Z</time>
      </trkpt>
      <trkpt lat="48.90725" lon="0.24887">
        <ele>232.18</ele>
        <time>2015-11-08T12:45:35Z</time>
      </trkpt>
      <trkpt lat="48.90724" lon="0.24892">
        <ele>231.13</ele>
        <time>2015-11-08T12:45:36Z</time>
      </trkpt>
      <trkpt lat="48.90724" lon="0.24897">
        <ele>230</ele>
        <time>2015-11-08T12:45:37Z</time>
      </trkpt>
      <trkpt lat="48.90723" lon="0.24902">
        <ele>228.9</ele>
        <time>2015-11-08T12:45:38Z</time>
      </trkpt>
      <trkpt lat="48.90722" lon="0.24907">
        <ele>227.83</ele>
        <time>2015-11-08T12:45:39Z</time>
      </trkpt>
      <trkpt lat="48.90722" lon="0.24912">
        <ele>226.79</ele>
        <time>2015-11-08T12:45:40Z</time>
      </trkpt>
      <trkpt lat="48.90721" lon="0.24917">
        <ele>225.94</ele>
        <time>2015-11-08T12:45:41Z</time>
      </trkpt>
      <trkpt lat="48.90721" lon="0.24923">
        <ele>225.75</ele>
        <time>2015-11-08T12:45:42Z</time>
      </trkpt>
      <trkpt lat="48.9072" lon="0.24928">
        <ele>225.56</ele>
        <time>2015-11-08T12:45:43Z</time>
      </trkpt>
      <trkpt lat="48.9072" lon="0.24933">
        <ele>225.37</ele>
        <time>2015-11-08T12:45:44Z</time>
      </trkpt>
      <trkpt lat="48.90719" lon="0.24938">
        <ele>225.19</ele>
        <time>2015-11-08T12:45:45Z</time>
      </trkpt>
      <trkpt lat="48.90718" lon="0.24944">
        <ele>225.02</ele>
        <time>2015-11-08T12:45:46Z</time>
      </trkpt>
      <trkpt lat="48.90717" lon="0.24949">
        <ele>224.94</ele>
        <time>2015-11-08T12:45:47Z</time>
      </trkpt>
      <trkpt lat="48.90716" lon="0.24955">
        <ele>224.84</ele>
        <time>2015-11-08T12:45:48Z</time>
      </trkpt>
      <trkpt lat="48.90715" lon="0.2496">
        <ele>224.71</ele>
        <time>2015-11-08T12:45:49Z</time>
      </trkpt>
      <trkpt lat="48.90714" lon="0.24965">
        <ele>224.56</ele>
        <time>2015-11-08T12:45:50Z</time>
      </trkpt>
      <trkpt lat="48.90713" lon="0.24971">
        <ele>224.39</ele>
        <time>2015-11-08T12:45:51Z</time>
      </trkpt>
      <trkpt lat="48.90712" lon="0.24976">
        <ele>224.01</ele>
        <time>2015-11-08T12:45:52Z</time>
      </trkpt>
      <trkpt lat="48.90711" lon="0.24981">
        <ele>223.47</ele>
        <time>2015-11-08T12:45:53Z</time>
      </trkpt>
      <trkpt lat="48.9071" lon="0.24986">
        <ele>222.83</ele>
        <time>2015-11-08T12:45:54Z</time>
      </trkpt>
      <trkpt lat="48.90709" lon="0.24992">
        <ele>222.09</ele>
        <time>2015-11-08T12:45:55Z</time>
      </trkpt>
      <trkpt lat="48.90708" lon="0.24997">
        <ele>221.3</ele>
        <time>2015-11-08T12:45:56Z</time>
      </trkpt>
      <trkpt lat="48.90707" lon="0.25002">
        <ele>220.99</ele>
        <time>2015-11-08T12:45:57Z</time>
      </trkpt>
      <trkpt lat="48.90707" lon="0.25007">
        <ele>221.46</ele>
        <time>2015-11-08T12:45:58Z</time>
      </trkpt>
      <trkpt lat="48.90706" lon="0.25012">
        <ele>222.07</ele>
        <time>2015-11-08T12:45:59Z</time>
      </trkpt>
      <trkpt lat="48.90706" lon="0.25017">
        <ele>222.8</ele>
        <time>2015-11-08T12:46:00Z</time>
      </trkpt>
      <trkpt lat="48.90706" lon="0.25022">
        <ele>223.52</ele>
        <time>2015-11-08T12:46:01Z</time>
      </trkpt>
      <trkpt lat="48.90707" lon="0.25027">
        <ele>224.29</ele>
        <time>2015-11-08T12:46:02Z</time>
      </trkpt>
      <trkpt lat="48.90708" lon="0.25032">
        <ele>224.86</ele>
        <time>2015-11-08T12:46:03Z</time>
      </trkpt>
      <trkpt lat="48.90709" lon="0.25037">
        <ele>225.37</ele>
        <time>2015-11-08T12:46:04Z</time>
      </trkpt>
      <trkpt lat="48.90711" lon="0.25041">
        <ele>225.83</ele>
        <time>2015-11-08T12:46:05Z</time>
      </trkpt>
      <trkpt lat="48.90713" lon="0.25045">
        <ele>226.24</ele>
        <time>2015-11-08T12:46:06Z</time>
      </trkpt>
      <trkpt lat="48.90715" lon="0.25049">
        <ele>226.59</ele>
        <time>2015-11-08T12:46:07Z</time>
      </trkpt>
      <trkpt lat="48.90717" lon="0.25054">
        <ele>226.89</ele>
        <time>2015-11-08T12:46:08Z</time>
      </trkpt>
      <trkpt lat="48.90718" lon="0.25058">
        <ele>227</ele>
        <time>2015-11-08T12:46:09Z</time>
      </trkpt>
      <trkpt lat="48.9072" lon="0.25064">
        <ele>227</ele>
        <time>2015-11-08T12:46:27Z</time>
      </trkpt>
      <trkpt lat="48.90722" lon="0.25069">
        <ele>227</ele>
        <time>2015-11-08T12:46:29Z</time>
      </trkpt>
      <trkpt lat="48.90725" lon="0.25075">
        <ele>226.44</ele>
        <time>2015-11-08T12:46:31Z</time>
      </trkpt>
      <trkpt lat="48.90727" lon="0.25078">
        <ele>226.06</ele>
        <time>2015-11-08T12:46:32Z</time>
      </trkpt>
      <trkpt lat="48.9073" lon="0.25082">
        <ele>225.67</ele>
        <time>2015-11-08T12:46:33Z</time>
      </trkpt>
      <trkpt lat="48.90732" lon="0.25085">
        <ele>225.26</ele>
        <time>2015-11-08T12:46:34Z</time>
      </trkpt>
      <trkpt lat="48.90734" lon="0.25089">
        <ele>224.85</ele>
        <time>2015-11-08T12:46:35Z</time>
      </trkpt>
      <trkpt lat="48.90736" lon="0.25093">
        <ele>224.45</ele>
        <time>2015-11-08T12:46:36Z</time>
      </trkpt>
      <trkpt lat="48.90739" lon="0.25096">
        <ele>224.07</ele>
        <time>2015-11-08T12:46:37Z</time>
      </trkpt>
      <trkpt lat="48.90742" lon="0.251">
        <ele>223.74</ele>
        <time>2015-11-08T12:46:38Z</time>
      </trkpt>
      <trkpt lat="48.90744" lon="0.25103">
        <ele>223.45</ele>
        <time>2015-11-08T12:46:39Z</time>
      </trkpt>
      <trkpt lat="48.90747" lon="0.25107">
        <ele>223.19</ele>
        <time>2015-11-08T12:46:40Z</time>
      </trkpt>
      <trkpt lat="48.9075" lon="0.25111">
        <ele>222.98</ele>
        <time>2015-11-08T12:46:41Z</time>
      </trkpt>
      <trkpt lat="48.90753" lon="0.25114">
        <ele>222.41</ele>
        <time>2015-11-08T12:46:42Z</time>
      </trkpt>
      <trkpt lat="48.90755" lon="0.25118">
        <ele>221.85</ele>
        <time>2015-11-08T12:46:43Z</time>
      </trkpt>
      <trkpt lat="48.90757" lon="0.25122">
        <ele>221.38</ele>
        <time>2015-11-08T12:46:44Z</time>
      </trkpt>
      <trkpt lat="48.90759" lon="0.25126">
        <ele>220.98</ele>
        <time>2015-11-08T12:46:45Z</time>
      </trkpt>
      <trkpt lat="48.90761" lon="0.25129">
        <ele>220.63</ele>
        <time>2015-11-08T12:46:46Z</time>
      </trkpt>
      <trkpt lat="48.90763" lon="0.25132">
        <ele>220.28</ele>
        <time>2015-11-08T12:46:47Z</time>
      </trkpt>
      <trkpt lat="48.90767" lon="0.25138">
        <ele>219.64</ele>
        <time>2015-11-08T12:46:49Z</time>
      </trkpt>
      <trkpt lat="48.90769" lon="0.25144">
        <ele>218.74</ele>
        <time>2015-11-08T12:46:51Z</time>
      </trkpt>
      <trkpt lat="48.90773" lon="0.2515">
        <ele>217.75</ele>
        <time>2015-11-08T12:46:53Z</time>
      </trkpt>
      <trkpt lat="48.90774" lon="0.25154">
        <ele>217.29</ele>
        <time>2015-11-08T12:46:54Z</time>
      </trkpt>
      <trkpt lat="48.90776" lon="0.25158">
        <ele>216.85</ele>
        <time>2015-11-08T12:46:55Z</time>
      </trkpt>
      <trkpt lat="48.90777" lon="0.25162">
        <ele>216.39</ele>
        <time>2015-11-08T12:46:56Z</time>
      </trkpt>
      <trkpt lat="48.90778" lon="0.25167">
        <ele>215.88</ele>
        <time>2015-11-08T12:46:57Z</time>
      </trkpt>
      <trkpt lat="48.90779" lon="0.25171">
        <ele>215.36</ele>
        <time>2015-11-08T12:46:58Z</time>
      </trkpt>
      <trkpt lat="48.9078" lon="0.25176">
        <ele>214.93</ele>
        <time>2015-11-08T12:46:59Z</time>
      </trkpt>
      <trkpt lat="48.90779" lon="0.2518">
        <ele>214.73</ele>
        <time>2015-11-08T12:47:00Z</time>
      </trkpt>
      <trkpt lat="48.90778" lon="0.25184">
        <ele>214.7</ele>
        <time>2015-11-08T12:47:01Z</time>
      </trkpt>
      <trkpt lat="48.90777" lon="0.25189">
        <ele>214.47</ele>
        <time>2015-11-08T12:47:02Z</time>
      </trkpt>
      <trkpt lat="48.90776" lon="0.25193">
        <ele>214.17</ele>
        <time>2015-11-08T12:47:03Z</time>
      </trkpt>
      <trkpt lat="48.90776" lon="0.25198">
        <ele>213.84</ele>
        <time>2015-11-08T12:47:04Z</time>
      </trkpt>
      <trkpt lat="48.90777" lon="0.25202">
        <ele>213.51</ele>
        <time>2015-11-08T12:47:05Z</time>
      </trkpt>
      <trkpt lat="48.90779" lon="0.25206">
        <ele>213.13</ele>
        <time>2015-11-08T12:47:06Z</time>
      </trkpt>
      <trkpt lat="48.90781" lon="0.25209">
        <ele>212.83</ele>
        <time>2015-11-08T12:47:07Z</time>
      </trkpt>
      <trkpt lat="48.90783" lon="0.25211">
        <ele>212.72</ele>
        <time>2015-11-08T12:47:08Z</time>
      </trkpt>
      <trkpt lat="48.90786" lon="0.25211">
        <ele>212.67</ele>
        <time>2015-11-08T12:47:09Z</time>
      </trkpt>
      <trkpt lat="48.90789" lon="0.2521">
        <ele>212.51</ele>
        <time>2015-11-08T12:47:10Z</time>
      </trkpt>
      <trkpt lat="48.90791" lon="0.25207">
        <ele>212.13</ele>
        <time>2015-11-08T12:47:11Z</time>
      </trkpt>
      <trkpt lat="48.90793" lon="0.25204">
        <ele>211.57</ele>
        <time>2015-11-08T12:47:12Z</time>
      </trkpt>
      <trkpt lat="48.90795" lon="0.25201">
        <ele>210.83</ele>
        <time>2015-11-08T12:47:13Z</time>
      </trkpt>
      <trkpt lat="48.908" lon="0.25197">
        <ele>209.13</ele>
        <time>2015-11-08T12:47:15Z</time>
      </trkpt>
      <trkpt lat="48.90802" lon="0.25196">
        <ele>208.25</ele>
        <time>2015-11-08T12:47:16Z</time>
      </trkpt>
      <trkpt lat="48.90807" lon="0.25193">
        <ele>207.48</ele>
        <time>2015-11-08T12:47:18Z</time>
      </trkpt>
      <trkpt lat="48.90811" lon="0.25187">
        <ele>208.76</ele>
        <time>2015-11-08T12:47:20Z</time>
      </trkpt>
      <trkpt lat="48.90815" lon="0.25182">
        <ele>209.42</ele>
        <time>2015-11-08T12:47:22Z</time>
      </trkpt>
      <trkpt lat="48.90818" lon="0.25181">
        <ele>209.59</ele>
        <time>2015-11-08T12:47:23Z</time>
      </trkpt>
      <trkpt lat="48.9082" lon="0.25179">
        <ele>209.62</ele>
        <time>2015-11-08T12:47:24Z</time>
      </trkpt>
      <trkpt lat="48.90823" lon="0.25176">
        <ele>209.48</ele>
        <time>2015-11-08T12:47:25Z</time>
      </trkpt>
      <trkpt lat="48.90826" lon="0.25172">
        <ele>208.69</ele>
        <time>2015-11-08T12:47:27Z</time>
      </trkpt>
      <trkpt lat="48.90829" lon="0.25166">
        <ele>207.59</ele>
        <time>2015-11-08T12:47:29Z</time>
      </trkpt>
      <trkpt lat="48.90833" lon="0.25161">
        <ele>207.84</ele>
        <time>2015-11-08T12:47:31Z</time>
      </trkpt>
      <trkpt lat="48.90837" lon="0.25159">
        <ele>209.87</ele>
        <time>2015-11-08T12:47:33Z</time>
      </trkpt>
      <trkpt lat="48.90842" lon="0.25158">
        <ele>211.97</ele>
        <time>2015-11-08T12:47:35Z</time>
      </trkpt>
      <trkpt lat="48.90847" lon="0.2516">
        <ele>213.87</ele>
        <time>2015-11-08T12:47:37Z</time>
      </trkpt>
      <trkpt lat="48.90851" lon="0.25164">
        <ele>215.52</ele>
        <time>2015-11-08T12:47:39Z</time>
      </trkpt>
      <trkpt lat="48.90853" lon="0.25168">
        <ele>216.25</ele>
        <time>2015-11-08T12:47:54Z</time>
      </trkpt>
      <trkpt lat="48.90855" lon="0.2517">
        <ele>217.38</ele>
        <time>2015-11-08T12:47:56Z</time>
      </trkpt>
      <trkpt lat="48.90859" lon="0.25173">
        <ele>218.86</ele>
        <time>2015-11-08T12:47:58Z</time>
      </trkpt>
      <trkpt lat="48.90863" lon="0.25174">
        <ele>219.98</ele>
        <time>2015-11-08T12:48:00Z</time>
      </trkpt>
      <trkpt lat="48.90868" lon="0.25177">
        <ele>220.41</ele>
        <time>2015-11-08T12:48:02Z</time>
      </trkpt>
      <trkpt lat="48.90871" lon="0.25178">
        <ele>220.6</ele>
        <time>2015-11-08T12:48:03Z</time>
      </trkpt>
      <trkpt lat="48.90874" lon="0.25179">
        <ele>220.78</ele>
        <time>2015-11-08T12:48:04Z</time>
      </trkpt>
      <trkpt lat="48.90877" lon="0.25181">
        <ele>220.97</ele>
        <time>2015-11-08T12:48:05Z</time>
      </trkpt>
      <trkpt lat="48.90881" lon="0.25182">
        <ele>221.13</ele>
        <time>2015-11-08T12:48:06Z</time>
      </trkpt>
      <trkpt lat="48.90884" lon="0.25183">
        <ele>221.26</ele>
        <time>2015-11-08T12:48:07Z</time>
      </trkpt>
      <trkpt lat="48.90888" lon="0.25185">
        <ele>221.29</ele>
        <time>2015-11-08T12:48:08Z</time>
      </trkpt>
      <trkpt lat="48.90892" lon="0.25187">
        <ele>221.13</ele>
        <time>2015-11-08T12:48:09Z</time>
      </trkpt>
      <trkpt lat="48.90895" lon="0.25189">
        <ele>220.96</ele>
        <time>2015-11-08T12:48:10Z</time>
      </trkpt>
      <trkpt lat="48.90903" lon="0.25195">
        <ele>221.04</ele>
        <time>2015-11-08T12:48:11Z</time>
      </trkpt>
      <trkpt lat="48.90908" lon="0.25197">
        <ele>221.38</ele>
        <time>2015-11-08T12:48:12Z</time>
      </trkpt>
      <trkpt lat="48.90912" lon="0.25198">
        <ele>221.74</ele>
        <time>2015-11-08T12:48:13Z</time>
      </trkpt>
      <trkpt lat="48.90915" lon="0.25199">
        <ele>222</ele>
        <time>2015-11-08T12:48:14Z</time>
      </trkpt>
      <trkpt lat="48.90918" lon="0.252">
        <ele>221.71</ele>
        <time>2015-11-08T12:48:15Z</time>
      </trkpt>
      <trkpt lat="48.90921" lon="0.25201">
        <ele>220.62</ele>
        <time>2015-11-08T12:48:16Z</time>
      </trkpt>
      <trkpt lat="48.90924" lon="0.25199">
        <ele>219.81</ele>
        <time>2015-11-08T12:48:17Z</time>
      </trkpt>
      <trkpt lat="48.90927" lon="0.25201">
        <ele>218.59</ele>
        <time>2015-11-08T12:48:18Z</time>
      </trkpt>
      <trkpt lat="48.90931" lon="0.25202">
        <ele>217.39</ele>
        <time>2015-11-08T12:48:19Z</time>
      </trkpt>
      <trkpt lat="48.90935" lon="0.25205">
        <ele>215.29</ele>
        <time>2015-11-08T12:48:20Z</time>
      </trkpt>
      <trkpt lat="48.9094" lon="0.25205">
        <ele>213.19</ele>
        <time>2015-11-08T12:48:22Z</time>
      </trkpt>
      <trkpt lat="48.90945" lon="0.25206">
        <ele>211.33</ele>
        <time>2015-11-08T12:48:24Z</time>
      </trkpt>
      <trkpt lat="48.9095" lon="0.25205">
        <ele>210.7</ele>
        <time>2015-11-08T12:48:26Z</time>
      </trkpt>
      <trkpt lat="48.90953" lon="0.25205">
        <ele>210.35</ele>
        <time>2015-11-08T12:48:27Z</time>
      </trkpt>
      <trkpt lat="48.90956" lon="0.25205">
        <ele>210.03</ele>
        <time>2015-11-08T12:48:28Z</time>
      </trkpt>
      <trkpt lat="48.90959" lon="0.25205">
        <ele>209.62</ele>
        <time>2015-11-08T12:48:29Z</time>
      </trkpt>
      <trkpt lat="48.90962" lon="0.25204">
        <ele>209.18</ele>
        <time>2015-11-08T12:48:30Z</time>
      </trkpt>
      <trkpt lat="48.90965" lon="0.25205">
        <ele>208.71</ele>
        <time>2015-11-08T12:48:31Z</time>
      </trkpt>
      <trkpt lat="48.90968" lon="0.25205">
        <ele>208.29</ele>
        <time>2015-11-08T12:48:32Z</time>
      </trkpt>
      <trkpt lat="48.90971" lon="0.25206">
        <ele>207.92</ele>
        <time>2015-11-08T12:48:33Z</time>
      </trkpt>
      <trkpt lat="48.90975" lon="0.25207">
        <ele>208.47</ele>
        <time>2015-11-08T12:48:34Z</time>
      </trkpt>
      <trkpt lat="48.90978" lon="0.25208">
        <ele>209.3</ele>
        <time>2015-11-08T12:48:35Z</time>
      </trkpt>
      <trkpt lat="48.90981" lon="0.25209">
        <ele>210.17</ele>
        <time>2015-11-08T12:48:36Z</time>
      </trkpt>
      <trkpt lat="48.90985" lon="0.25209">
        <ele>211.02</ele>
        <time>2015-11-08T12:48:37Z</time>
      </trkpt>
      <trkpt lat="48.90988" lon="0.2521">
        <ele>211.87</ele>
        <time>2015-11-08T12:48:38Z</time>
      </trkpt>
      <trkpt lat="48.90992" lon="0.25211">
        <ele>212.75</ele>
        <time>2015-11-08T12:48:39Z</time>
      </trkpt>
      <trkpt lat="48.90996" lon="0.25212">
        <ele>213.61</ele>
        <time>2015-11-08T12:48:40Z</time>
      </trkpt>
      <trkpt lat="48.90999" lon="0.25213">
        <ele>214.4</ele>
        <time>2015-11-08T12:48:41Z</time>
      </trkpt>
      <trkpt lat="48.91002" lon="0.25214">
        <ele>215.46</ele>
        <time>2015-11-08T12:48:42Z</time>
      </trkpt>
      <trkpt lat="48.91005" lon="0.25215">
        <ele>216.71</ele>
        <time>2015-11-08T12:48:43Z</time>
      </trkpt>
      <trkpt lat="48.91009" lon="0.25216">
        <ele>218.01</ele>
        <time>2015-11-08T12:48:44Z</time>
      </trkpt>
      <trkpt lat="48.91012" lon="0.25216">
        <ele>219.29</ele>
        <time>2015-11-08T12:48:45Z</time>
      </trkpt>
      <trkpt lat="48.91015" lon="0.25218">
        <ele>220.59</ele>
        <time>2015-11-08T12:48:46Z</time>
      </trkpt>
      <trkpt lat="48.91018" lon="0.25219">
        <ele>221.82</ele>
        <time>2015-11-08T12:48:47Z</time>
      </trkpt>
      <trkpt lat="48.91021" lon="0.25221">
        <ele>223.05</ele>
        <time>2015-11-08T12:48:48Z</time>
      </trkpt>
      <trkpt lat="48.91023" lon="0.25222">
        <ele>224.26</ele>
        <time>2015-11-08T12:48:49Z</time>
      </trkpt>
      <trkpt lat="48.91026" lon="0.25224">
        <ele>225.46</ele>
        <time>2015-11-08T12:48:50Z</time>
      </trkpt>
      <trkpt lat="48.91031" lon="0.25226">
        <ele>226.39</ele>
        <time>2015-11-08T12:48:52Z</time>
      </trkpt>
      <trkpt lat="48.91036" lon="0.25228">
        <ele>226.29</ele>
        <time>2015-11-08T12:48:54Z</time>
      </trkpt>
      <trkpt lat="48.91041" lon="0.25231">
        <ele>226.16</ele>
        <time>2015-11-08T12:48:56Z</time>
      </trkpt>
      <trkpt lat="48.91046" lon="0.25234">
        <ele>225.91</ele>
        <time>2015-11-08T12:48:58Z</time>
      </trkpt>
      <trkpt lat="48.91049" lon="0.25235">
        <ele>225.69</ele>
        <time>2015-11-08T12:48:59Z</time>
      </trkpt>
      <trkpt lat="48.91052" lon="0.25236">
        <ele>225.41</ele>
        <time>2015-11-08T12:49:00Z</time>
      </trkpt>
      <trkpt lat="48.91055" lon="0.25237">
        <ele>225.1</ele>
        <time>2015-11-08T12:49:01Z</time>
      </trkpt>
      <trkpt lat="48.91058" lon="0.25238">
        <ele>225.73</ele>
        <time>2015-11-08T12:49:02Z</time>
      </trkpt>
      <trkpt lat="48.9106" lon="0.25238">
        <ele>226.72</ele>
        <time>2015-11-08T12:49:03Z</time>
      </trkpt>
      <trkpt lat="48.91063" lon="0.2524">
        <ele>227.75</ele>
        <time>2015-11-08T12:49:04Z</time>
      </trkpt>
      <trkpt lat="48.91066" lon="0.25242">
        <ele>228.71</ele>
        <time>2015-11-08T12:49:05Z</time>
      </trkpt>
      <trkpt lat="48.9107" lon="0.25247">
        <ele>230.22</ele>
        <time>2015-11-08T12:49:07Z</time>
      </trkpt>
      <trkpt lat="48.91072" lon="0.2525">
        <ele>231.07</ele>
        <time>2015-11-08T12:49:08Z</time>
      </trkpt>
      <trkpt lat="48.91075" lon="0.25253">
        <ele>231.85</ele>
        <time>2015-11-08T12:49:09Z</time>
      </trkpt>
      <trkpt lat="48.91078" lon="0.25256">
        <ele>232.62</ele>
        <time>2015-11-08T12:49:10Z</time>
      </trkpt>
      <trkpt lat="48.9108" lon="0.25258">
        <ele>233.34</ele>
        <time>2015-11-08T12:49:11Z</time>
      </trkpt>
      <trkpt lat="48.91083" lon="0.25259">
        <ele>234.17</ele>
        <time>2015-11-08T12:49:12Z</time>
      </trkpt>
      <trkpt lat="48.91086" lon="0.2526">
        <ele>235.09</ele>
        <time>2015-11-08T12:49:13Z</time>
      </trkpt>
      <trkpt lat="48.91089" lon="0.25261">
        <ele>236.1</ele>
        <time>2015-11-08T12:49:14Z</time>
      </trkpt>
      <trkpt lat="48.91092" lon="0.25262">
        <ele>237.1</ele>
        <time>2015-11-08T12:49:15Z</time>
      </trkpt>
      <trkpt lat="48.91095" lon="0.25263">
        <ele>238.12</ele>
        <time>2015-11-08T12:49:16Z</time>
      </trkpt>
      <trkpt lat="48.91099" lon="0.25265">
        <ele>239.21</ele>
        <time>2015-11-08T12:49:17Z</time>
      </trkpt>
      <trkpt lat="48.91102" lon="0.25266">
        <ele>240.32</ele>
        <time>2015-11-08T12:49:18Z</time>
      </trkpt>
      <trkpt lat="48.91105" lon="0.25267">
        <ele>241.51</ele>
        <time>2015-11-08T12:49:19Z</time>
      </trkpt>
      <trkpt lat="48.91108" lon="0.25268">
        <ele>242.67</ele>
        <time>2015-11-08T12:49:20Z</time>
      </trkpt>
      <trkpt lat="48.91111" lon="0.25271">
        <ele>243.79</ele>
        <time>2015-11-08T12:49:21Z</time>
      </trkpt>
      <trkpt lat="48.91114" lon="0.25274">
        <ele>244.22</ele>
        <time>2015-11-08T12:49:22Z</time>
      </trkpt>
      <trkpt lat="48.91117" lon="0.25277">
        <ele>244.43</ele>
        <time>2015-11-08T12:49:23Z</time>
      </trkpt>
      <trkpt lat="48.9112" lon="0.2528">
        <ele>244.27</ele>
        <time>2015-11-08T12:49:24Z</time>
      </trkpt>
      <trkpt lat="48.91122" lon="0.25284">
        <ele>244.06</ele>
        <time>2015-11-08T12:49:25Z</time>
      </trkpt>
      <trkpt lat="48.91125" lon="0.25287">
        <ele>243.86</ele>
        <time>2015-11-08T12:49:26Z</time>
      </trkpt>
      <trkpt lat="48.91128" lon="0.2529">
        <ele>243.68</ele>
        <time>2015-11-08T12:49:27Z</time>
      </trkpt>
      <trkpt lat="48.91131" lon="0.25293">
        <ele>243.57</ele>
        <time>2015-11-08T12:49:28Z</time>
      </trkpt>
      <trkpt lat="48.91133" lon="0.25296">
        <ele>243.51</ele>
        <time>2015-11-08T12:49:29Z</time>
      </trkpt>
      <trkpt lat="48.91136" lon="0.25299">
        <ele>243.42</ele>
        <time>2015-11-08T12:49:30Z</time>
      </trkpt>
      <trkpt lat="48.91138" lon="0.25301">
        <ele>243.42</ele>
        <time>2015-11-08T12:49:31Z</time>
      </trkpt>
      <trkpt lat="48.91141" lon="0.25304">
        <ele>243.52</ele>
        <time>2015-11-08T12:49:32Z</time>
      </trkpt>
      <trkpt lat="48.91144" lon="0.25307">
        <ele>243.74</ele>
        <time>2015-11-08T12:49:33Z</time>
      </trkpt>
      <trkpt lat="48.91147" lon="0.2531">
        <ele>243.84</ele>
        <time>2015-11-08T12:49:34Z</time>
      </trkpt>
      <trkpt lat="48.91149" lon="0.25313">
        <ele>243.82</ele>
        <time>2015-11-08T12:49:35Z</time>
      </trkpt>
      <trkpt lat="48.91152" lon="0.25317">
        <ele>243.8</ele>
        <time>2015-11-08T12:49:36Z</time>
      </trkpt>
      <trkpt lat="48.91155" lon="0.25321">
        <ele>243.68</ele>
        <time>2015-11-08T12:49:37Z</time>
      </trkpt>
      <trkpt lat="48.91158" lon="0.25324">
        <ele>243.51</ele>
        <time>2015-11-08T12:49:38Z</time>
      </trkpt>
      <trkpt lat="48.91161" lon="0.25328">
        <ele>243.29</ele>
        <time>2015-11-08T12:49:39Z</time>
      </trkpt>
      <trkpt lat="48.91163" lon="0.25331">
        <ele>243.05</ele>
        <time>2015-11-08T12:49:40Z</time>
      </trkpt>
      <trkpt lat="48.91166" lon="0.25334">
        <ele>242.69</ele>
        <time>2015-11-08T12:49:41Z</time>
      </trkpt>
      <trkpt lat="48.91168" lon="0.25337">
        <ele>241.55</ele>
        <time>2015-11-08T12:49:42Z</time>
      </trkpt>
      <trkpt lat="48.91171" lon="0.2534">
        <ele>240.01</ele>
        <time>2015-11-08T12:49:43Z</time>
      </trkpt>
      <trkpt lat="48.91174" lon="0.25343">
        <ele>238.54</ele>
        <time>2015-11-08T12:49:44Z</time>
      </trkpt>
      <trkpt lat="48.91177" lon="0.25345">
        <ele>237.16</ele>
        <time>2015-11-08T12:49:45Z</time>
      </trkpt>
      <trkpt lat="48.91179" lon="0.25348">
        <ele>235.86</ele>
        <time>2015-11-08T12:49:46Z</time>
      </trkpt>
      <trkpt lat="48.91182" lon="0.2535">
        <ele>234.65</ele>
        <time>2015-11-08T12:49:47Z</time>
      </trkpt>
      <trkpt lat="48.91186" lon="0.25352">
        <ele>233.48</ele>
        <time>2015-11-08T12:49:48Z</time>
      </trkpt>
      <trkpt lat="48.91189" lon="0.25355">
        <ele>232.32</ele>
        <time>2015-11-08T12:49:49Z</time>
      </trkpt>
      <trkpt lat="48.91191" lon="0.25357">
        <ele>231.27</ele>
        <time>2015-11-08T12:49:50Z</time>
      </trkpt>
      <trkpt lat="48.91194" lon="0.25359">
        <ele>230.29</ele>
        <time>2015-11-08T12:49:51Z</time>
      </trkpt>
      <trkpt lat="48.91197" lon="0.25361">
        <ele>229.35</ele>
        <time>2015-11-08T12:49:52Z</time>
      </trkpt>
      <trkpt lat="48.912" lon="0.25363">
        <ele>228.41</ele>
        <time>2015-11-08T12:49:53Z</time>
      </trkpt>
      <trkpt lat="48.91204" lon="0.25365">
        <ele>227.44</ele>
        <time>2015-11-08T12:49:54Z</time>
      </trkpt>
      <trkpt lat="48.91207" lon="0.25366">
        <ele>226.43</ele>
        <time>2015-11-08T12:49:55Z</time>
      </trkpt>
      <trkpt lat="48.9121" lon="0.25368">
        <ele>225.42</ele>
        <time>2015-11-08T12:49:56Z</time>
      </trkpt>
      <trkpt lat="48.91214" lon="0.25369">
        <ele>224.42</ele>
        <time>2015-11-08T12:49:57Z</time>
      </trkpt>
      <trkpt lat="48.91217" lon="0.25371">
        <ele>223.43</ele>
        <time>2015-11-08T12:49:58Z</time>
      </trkpt>
      <trkpt lat="48.91221" lon="0.25372">
        <ele>222.46</ele>
        <time>2015-11-08T12:49:59Z</time>
      </trkpt>
      <trkpt lat="48.91224" lon="0.25372">
        <ele>221.66</ele>
        <time>2015-11-08T12:50:00Z</time>
      </trkpt>
      <trkpt lat="48.91227" lon="0.25373">
        <ele>220.94</ele>
        <time>2015-11-08T12:50:01Z</time>
      </trkpt>
      <trkpt lat="48.9123" lon="0.25374">
        <ele>220.19</ele>
        <time>2015-11-08T12:50:02Z</time>
      </trkpt>
      <trkpt lat="48.91233" lon="0.25375">
        <ele>219.46</ele>
        <time>2015-11-08T12:50:03Z</time>
      </trkpt>
      <trkpt lat="48.91237" lon="0.25376">
        <ele>218.84</ele>
        <time>2015-11-08T12:50:04Z</time>
      </trkpt>
      <trkpt lat="48.9124" lon="0.25375">
        <ele>218.3</ele>
        <time>2015-11-08T12:50:05Z</time>
      </trkpt>
      <trkpt lat="48.91243" lon="0.25376">
        <ele>217.67</ele>
        <time>2015-11-08T12:50:06Z</time>
      </trkpt>
      <trkpt lat="48.91246" lon="0.25376">
        <ele>217.08</ele>
        <time>2015-11-08T12:50:07Z</time>
      </trkpt>
      <trkpt lat="48.9125" lon="0.25375">
        <ele>216.52</ele>
        <time>2015-11-08T12:50:08Z</time>
      </trkpt>
      <trkpt lat="48.91253" lon="0.25375">
        <ele>215.93</ele>
        <time>2015-11-08T12:50:09Z</time>
      </trkpt>
      <trkpt lat="48.91256" lon="0.25374">
        <ele>215.37</ele>
        <time>2015-11-08T12:50:10Z</time>
      </trkpt>
      <trkpt lat="48.91259" lon="0.25373">
        <ele>214.81</ele>
        <time>2015-11-08T12:50:11Z</time>
      </trkpt>
      <trkpt lat="48.91262" lon="0.25372">
        <ele>214.27</ele>
        <time>2015-11-08T12:50:12Z</time>
      </trkpt>
      <trkpt lat="48.91265" lon="0.25372">
        <ele>213.72</ele>
        <time>2015-11-08T12:50:13Z</time>
      </trkpt>
      <trkpt lat="48.91268" lon="0.25371">
        <ele>213.19</ele>
        <time>2015-11-08T12:50:14Z</time>
      </trkpt>
      <trkpt lat="48.91271" lon="0.25371">
        <ele>212.67</ele>
        <time>2015-11-08T12:50:15Z</time>
      </trkpt>
      <trkpt lat="48.91274" lon="0.2537">
        <ele>212.06</ele>
        <time>2015-11-08T12:50:16Z</time>
      </trkpt>
      <trkpt lat="48.91277" lon="0.2537">
        <ele>211.45</ele>
        <time>2015-11-08T12:50:17Z</time>
      </trkpt>
      <trkpt lat="48.9128" lon="0.2537">
        <ele>211.47</ele>
        <time>2015-11-08T12:50:18Z</time>
      </trkpt>
      <trkpt lat="48.91283" lon="0.2537">
        <ele>211.72</ele>
        <time>2015-11-08T12:50:19Z</time>
      </trkpt>
      <trkpt lat="48.91286" lon="0.25369">
        <ele>211.96</ele>
        <time>2015-11-08T12:50:20Z</time>
      </trkpt>
      <trkpt lat="48.9129" lon="0.25369">
        <ele>212.18</ele>
        <time>2015-11-08T12:50:21Z</time>
      </trkpt>
      <trkpt lat="48.91293" lon="0.25369">
        <ele>212.37</ele>
        <time>2015-11-08T12:50:22Z</time>
      </trkpt>
      <trkpt lat="48.91296" lon="0.25369">
        <ele>212.55</ele>
        <time>2015-11-08T12:50:23Z</time>
      </trkpt>
      <trkpt lat="48.91299" lon="0.25369">
        <ele>212.69</ele>
        <time>2015-11-08T12:50:24Z</time>
      </trkpt>
      <trkpt lat="48.91302" lon="0.25369">
        <ele>212.82</ele>
        <time>2015-11-08T12:50:25Z</time>
      </trkpt>
      <trkpt lat="48.91307" lon="0.25369">
        <ele>213.29</ele>
        <time>2015-11-08T12:50:27Z</time>
      </trkpt>
      <trkpt lat="48.9131" lon="0.25369">
        <ele>213.73</ele>
        <time>2015-11-08T12:50:28Z</time>
      </trkpt>
      <trkpt lat="48.91313" lon="0.2537">
        <ele>214.18</ele>
        <time>2015-11-08T12:50:29Z</time>
      </trkpt>
      <trkpt lat="48.91316" lon="0.25371">
        <ele>214.65</ele>
        <time>2015-11-08T12:50:30Z</time>
      </trkpt>
      <trkpt lat="48.91319" lon="0.25372">
        <ele>215.14</ele>
        <time>2015-11-08T12:50:31Z</time>
      </trkpt>
      <trkpt lat="48.91322" lon="0.25374">
        <ele>215.64</ele>
        <time>2015-11-08T12:50:32Z</time>
      </trkpt>
      <trkpt lat="48.91325" lon="0.25375">
        <ele>216.15</ele>
        <time>2015-11-08T12:50:33Z</time>
      </trkpt>
      <trkpt lat="48.91328" lon="0.25378">
        <ele>216.67</ele>
        <time>2015-11-08T12:50:34Z</time>
      </trkpt>
      <trkpt lat="48.91331" lon="0.2538">
        <ele>217.22</ele>
        <time>2015-11-08T12:50:35Z</time>
      </trkpt>
      <trkpt lat="48.91334" lon="0.25382">
        <ele>217.84</ele>
        <time>2015-11-08T12:50:36Z</time>
      </trkpt>
      <trkpt lat="48.91337" lon="0.25384">
        <ele>218.87</ele>
        <time>2015-11-08T12:50:37Z</time>
      </trkpt>
      <trkpt lat="48.9134" lon="0.25385">
        <ele>219.89</ele>
        <time>2015-11-08T12:50:38Z</time>
      </trkpt>
      <trkpt lat="48.91343" lon="0.25387">
        <ele>220.94</ele>
        <time>2015-11-08T12:50:39Z</time>
      </trkpt>
      <trkpt lat="48.91346" lon="0.25389">
        <ele>221.99</ele>
        <time>2015-11-08T12:50:40Z</time>
      </trkpt>
      <trkpt lat="48.91348" lon="0.25391">
        <ele>223.05</ele>
        <time>2015-11-08T12:50:41Z</time>
      </trkpt>
      <trkpt lat="48.91351" lon="0.25393">
        <ele>224.06</ele>
        <time>2015-11-08T12:50:42Z</time>
      </trkpt>
      <trkpt lat="48.91353" lon="0.25396">
        <ele>224.95</ele>
        <time>2015-11-08T12:50:43Z</time>
      </trkpt>
      <trkpt lat="48.91354" lon="0.25392">
        <ele>225.04</ele>
        <time>2015-11-08T12:50:48Z</time>
      </trkpt>
      <trkpt lat="48.91353" lon="0.25388">
        <ele>224.33</ele>
        <time>2015-11-08T12:50:55Z</time>
      </trkpt>
      <trkpt lat="48.91355" lon="0.25391">
        <ele>225.2</ele>
        <time>2015-11-08T12:51:46Z</time>
      </trkpt>
      <trkpt lat="48.91357" lon="0.25395">
        <ele>226.22</ele>
        <time>2015-11-08T12:51:48Z</time>
      </trkpt>
      <trkpt lat="48.91361" lon="0.25398">
        <ele>227.52</ele>
        <time>2015-11-08T12:51:50Z</time>
      </trkpt>
      <trkpt lat="48.91364" lon="0.25402">
        <ele>228.56</ele>
        <time>2015-11-08T12:51:52Z</time>
      </trkpt>
      <trkpt lat="48.91368" lon="0.25407">
        <ele>230.2</ele>
        <time>2015-11-08T12:51:54Z</time>
      </trkpt>
      <trkpt lat="48.91371" lon="0.2541">
        <ele>231.36</ele>
        <time>2015-11-08T12:51:55Z</time>
      </trkpt>
      <trkpt lat="48.91373" lon="0.25413">
        <ele>232.75</ele>
        <time>2015-11-08T12:51:56Z</time>
      </trkpt>
      <trkpt lat="48.91376" lon="0.25416">
        <ele>234.33</ele>
        <time>2015-11-08T12:51:57Z</time>
      </trkpt>
      <trkpt lat="48.91379" lon="0.2542">
        <ele>235.8</ele>
        <time>2015-11-08T12:51:58Z</time>
      </trkpt>
      <trkpt lat="48.91381" lon="0.25423">
        <ele>237.32</ele>
        <time>2015-11-08T12:51:59Z</time>
      </trkpt>
      <trkpt lat="48.91384" lon="0.25427">
        <ele>238.77</ele>
        <time>2015-11-08T12:52:00Z</time>
      </trkpt>
      <trkpt lat="48.91386" lon="0.25432">
        <ele>240.12</ele>
        <time>2015-11-08T12:52:01Z</time>
      </trkpt>
      <trkpt lat="48.91388" lon="0.25436">
        <ele>241.49</ele>
        <time>2015-11-08T12:52:02Z</time>
      </trkpt>
      <trkpt lat="48.9139" lon="0.2544">
        <ele>242.72</ele>
        <time>2015-11-08T12:52:03Z</time>
      </trkpt>
      <trkpt lat="48.91393" lon="0.25445">
        <ele>243.84</ele>
        <time>2015-11-08T12:52:04Z</time>
      </trkpt>
      <trkpt lat="48.91395" lon="0.25449">
        <ele>244.68</ele>
        <time>2015-11-08T12:52:05Z</time>
      </trkpt>
      <trkpt lat="48.91398" lon="0.25454">
        <ele>245.45</ele>
        <time>2015-11-08T12:52:06Z</time>
      </trkpt>
      <trkpt lat="48.914" lon="0.25457">
        <ele>246.15</ele>
        <time>2015-11-08T12:52:07Z</time>
      </trkpt>
      <trkpt lat="48.91402" lon="0.2546">
        <ele>246.73</ele>
        <time>2015-11-08T12:52:08Z</time>
      </trkpt>
      <trkpt lat="48.91405" lon="0.25462">
        <ele>247.33</ele>
        <time>2015-11-08T12:52:09Z</time>
      </trkpt>
      <trkpt lat="48.91407" lon="0.25466">
        <ele>247.89</ele>
        <time>2015-11-08T12:52:10Z</time>
      </trkpt>
      <trkpt lat="48.9141" lon="0.25472">
        <ele>248.81</ele>
        <time>2015-11-08T12:52:12Z</time>
      </trkpt>
      <trkpt lat="48.91412" lon="0.25475">
        <ele>248.67</ele>
        <time>2015-11-08T12:52:13Z</time>
      </trkpt>
      <trkpt lat="48.91415" lon="0.25479">
        <ele>248.53</ele>
        <time>2015-11-08T12:52:14Z</time>
      </trkpt>
      <trkpt lat="48.91418" lon="0.25482">
        <ele>248.39</ele>
        <time>2015-11-08T12:52:15Z</time>
      </trkpt>
      <trkpt lat="48.9142" lon="0.25485">
        <ele>248.22</ele>
        <time>2015-11-08T12:52:16Z</time>
      </trkpt>
      <trkpt lat="48.91423" lon="0.25488">
        <ele>248.06</ele>
        <time>2015-11-08T12:52:17Z</time>
      </trkpt>
      <trkpt lat="48.91425" lon="0.25491">
        <ele>247.89</ele>
        <time>2015-11-08T12:52:18Z</time>
      </trkpt>
      <trkpt lat="48.91428" lon="0.25494">
        <ele>247.68</ele>
        <time>2015-11-08T12:52:19Z</time>
      </trkpt>
      <trkpt lat="48.9143" lon="0.25497">
        <ele>247.5</ele>
        <time>2015-11-08T12:52:20Z</time>
      </trkpt>
      <trkpt lat="48.91433" lon="0.25499">
        <ele>247.47</ele>
        <time>2015-11-08T12:52:21Z</time>
      </trkpt>
      <trkpt lat="48.91435" lon="0.25501">
        <ele>247.14</ele>
        <time>2015-11-08T12:52:22Z</time>
      </trkpt>
      <trkpt lat="48.91438" lon="0.25504">
        <ele>246.68</ele>
        <time>2015-11-08T12:52:23Z</time>
      </trkpt>
      <trkpt lat="48.91441" lon="0.25506">
        <ele>246.17</ele>
        <time>2015-11-08T12:52:24Z</time>
      </trkpt>
      <trkpt lat="48.91444" lon="0.25508">
        <ele>245.55</ele>
        <time>2015-11-08T12:52:25Z</time>
      </trkpt>
      <trkpt lat="48.91448" lon="0.2551">
        <ele>244.96</ele>
        <time>2015-11-08T12:52:26Z</time>
      </trkpt>
      <trkpt lat="48.91452" lon="0.25513">
        <ele>244.48</ele>
        <time>2015-11-08T12:52:27Z</time>
      </trkpt>
      <trkpt lat="48.91455" lon="0.25516">
        <ele>244.04</ele>
        <time>2015-11-08T12:52:28Z</time>
      </trkpt>
      <trkpt lat="48.91458" lon="0.25518">
        <ele>243.9</ele>
        <time>2015-11-08T12:52:29Z</time>
      </trkpt>
      <trkpt lat="48.91461" lon="0.25521">
        <ele>243.93</ele>
        <time>2015-11-08T12:52:30Z</time>
      </trkpt>
      <trkpt lat="48.91464" lon="0.25524">
        <ele>244.16</ele>
        <time>2015-11-08T12:52:31Z</time>
      </trkpt>
      <trkpt lat="48.91467" lon="0.25526">
        <ele>244.68</ele>
        <time>2015-11-08T12:52:32Z</time>
      </trkpt>
      <trkpt lat="48.91471" lon="0.25529">
        <ele>245.41</ele>
        <time>2015-11-08T12:52:33Z</time>
      </trkpt>
      <trkpt lat="48.91474" lon="0.25531">
        <ele>245.11</ele>
        <time>2015-11-08T12:52:34Z</time>
      </trkpt>
      <trkpt lat="48.91478" lon="0.25533">
        <ele>244.29</ele>
        <time>2015-11-08T12:52:35Z</time>
      </trkpt>
      <trkpt lat="48.91481" lon="0.25536">
        <ele>243.5</ele>
        <time>2015-11-08T12:52:36Z</time>
      </trkpt>
      <trkpt lat="48.91485" lon="0.25538">
        <ele>242.69</ele>
        <time>2015-11-08T12:52:37Z</time>
      </trkpt>
      <trkpt lat="48.91488" lon="0.25541">
        <ele>241.85</ele>
        <time>2015-11-08T12:52:38Z</time>
      </trkpt>
      <trkpt lat="48.91491" lon="0.25545">
        <ele>240.98</ele>
        <time>2015-11-08T12:52:39Z</time>
      </trkpt>
      <trkpt lat="48.91495" lon="0.25549">
        <ele>240.15</ele>
        <time>2015-11-08T12:52:40Z</time>
      </trkpt>
      <trkpt lat="48.91498" lon="0.25553">
        <ele>239.4</ele>
        <time>2015-11-08T12:52:41Z</time>
      </trkpt>
      <trkpt lat="48.91501" lon="0.25557">
        <ele>238.78</ele>
        <time>2015-11-08T12:52:42Z</time>
      </trkpt>
      <trkpt lat="48.91505" lon="0.25562">
        <ele>238.34</ele>
        <time>2015-11-08T12:52:43Z</time>
      </trkpt>
      <trkpt lat="48.91508" lon="0.25566">
        <ele>238</ele>
        <time>2015-11-08T12:52:44Z</time>
      </trkpt>
      <trkpt lat="48.91511" lon="0.2557">
        <ele>237.78</ele>
        <time>2015-11-08T12:52:45Z</time>
      </trkpt>
      <trkpt lat="48.91514" lon="0.25574">
        <ele>237.67</ele>
        <time>2015-11-08T12:52:46Z</time>
      </trkpt>
      <trkpt lat="48.91517" lon="0.25578">
        <ele>237.65</ele>
        <time>2015-11-08T12:52:47Z</time>
      </trkpt>
      <trkpt lat="48.91521" lon="0.25582">
        <ele>237.73</ele>
        <time>2015-11-08T12:52:48Z</time>
      </trkpt>
      <trkpt lat="48.91523" lon="0.25587">
        <ele>237.4</ele>
        <time>2015-11-08T12:52:49Z</time>
      </trkpt>
      <trkpt lat="48.91526" lon="0.25591">
        <ele>236.86</ele>
        <time>2015-11-08T12:52:50Z</time>
      </trkpt>
      <trkpt lat="48.91529" lon="0.25595">
        <ele>236.2</ele>
        <time>2015-11-08T12:52:51Z</time>
      </trkpt>
      <trkpt lat="48.91532" lon="0.256">
        <ele>235.41</ele>
        <time>2015-11-08T12:52:52Z</time>
      </trkpt>
      <trkpt lat="48.91535" lon="0.25604">
        <ele>234.77</ele>
        <time>2015-11-08T12:52:53Z</time>
      </trkpt>
      <trkpt lat="48.91539" lon="0.25608">
        <ele>234.27</ele>
        <time>2015-11-08T12:52:54Z</time>
      </trkpt>
      <trkpt lat="48.91542" lon="0.25613">
        <ele>233.83</ele>
        <time>2015-11-08T12:52:55Z</time>
      </trkpt>
      <trkpt lat="48.91544" lon="0.25617">
        <ele>233.43</ele>
        <time>2015-11-08T12:52:56Z</time>
      </trkpt>
      <trkpt lat="48.91548" lon="0.25622">
        <ele>233.18</ele>
        <time>2015-11-08T12:52:57Z</time>
      </trkpt>
      <trkpt lat="48.91554" lon="0.25627">
        <ele>233.26</ele>
        <time>2015-11-08T12:52:58Z</time>
      </trkpt>
      <trkpt lat="48.91558" lon="0.25631">
        <ele>233.16</ele>
        <time>2015-11-08T12:52:59Z</time>
      </trkpt>
      <trkpt lat="48.91561" lon="0.25635">
        <ele>232.78</ele>
        <time>2015-11-08T12:53:00Z</time>
      </trkpt>
      <trkpt lat="48.91565" lon="0.25639">
        <ele>232.34</ele>
        <time>2015-11-08T12:53:01Z</time>
      </trkpt>
      <trkpt lat="48.91569" lon="0.25643">
        <ele>231.23</ele>
        <time>2015-11-08T12:53:02Z</time>
      </trkpt>
      <trkpt lat="48.91572" lon="0.25648">
        <ele>230.03</ele>
        <time>2015-11-08T12:53:03Z</time>
      </trkpt>
      <trkpt lat="48.91575" lon="0.25653">
        <ele>228.81</ele>
        <time>2015-11-08T12:53:04Z</time>
      </trkpt>
      <trkpt lat="48.91577" lon="0.25658">
        <ele>227.52</ele>
        <time>2015-11-08T12:53:05Z</time>
      </trkpt>
      <trkpt lat="48.91581" lon="0.25662">
        <ele>226.22</ele>
        <time>2015-11-08T12:53:06Z</time>
      </trkpt>
      <trkpt lat="48.91583" lon="0.25667">
        <ele>225</ele>
        <time>2015-11-08T12:53:07Z</time>
      </trkpt>
      <trkpt lat="48.91587" lon="0.25672">
        <ele>223.54</ele>
        <time>2015-11-08T12:53:08Z</time>
      </trkpt>
      <trkpt lat="48.9159" lon="0.25677">
        <ele>222.43</ele>
        <time>2015-11-08T12:53:09Z</time>
      </trkpt>
      <trkpt lat="48.91593" lon="0.25682">
        <ele>221.52</ele>
        <time>2015-11-08T12:53:10Z</time>
      </trkpt>
      <trkpt lat="48.91595" lon="0.25689">
        <ele>220.71</ele>
        <time>2015-11-08T12:53:11Z</time>
      </trkpt>
      <trkpt lat="48.91597" lon="0.25696">
        <ele>220.42</ele>
        <time>2015-11-08T12:53:12Z</time>
      </trkpt>
      <trkpt lat="48.91599" lon="0.257">
        <ele>220.71</ele>
        <time>2015-11-08T12:53:13Z</time>
      </trkpt>
      <trkpt lat="48.91602" lon="0.25706">
        <ele>220.91</ele>
        <time>2015-11-08T12:53:14Z</time>
      </trkpt>
      <trkpt lat="48.91604" lon="0.25712">
        <ele>221.03</ele>
        <time>2015-11-08T12:53:15Z</time>
      </trkpt>
      <trkpt lat="48.91607" lon="0.25718">
        <ele>220.89</ele>
        <time>2015-11-08T12:53:16Z</time>
      </trkpt>
      <trkpt lat="48.9161" lon="0.25726">
        <ele>220.25</ele>
        <time>2015-11-08T12:53:17Z</time>
      </trkpt>
      <trkpt lat="48.91613" lon="0.25732">
        <ele>219.82</ele>
        <time>2015-11-08T12:53:18Z</time>
      </trkpt>
      <trkpt lat="48.91616" lon="0.25739">
        <ele>219.16</ele>
        <time>2015-11-08T12:53:19Z</time>
      </trkpt>
      <trkpt lat="48.9162" lon="0.25744">
        <ele>218.57</ele>
        <time>2015-11-08T12:53:20Z</time>
      </trkpt>
      <trkpt lat="48.91623" lon="0.25752">
        <ele>217.2</ele>
        <time>2015-11-08T12:53:21Z</time>
      </trkpt>
      <trkpt lat="48.91625" lon="0.25758">
        <ele>215.89</ele>
        <time>2015-11-08T12:53:22Z</time>
      </trkpt>
      <trkpt lat="48.91627" lon="0.25764">
        <ele>215</ele>
        <time>2015-11-08T12:53:23Z</time>
      </trkpt>
      <trkpt lat="48.9163" lon="0.25769">
        <ele>214.32</ele>
        <time>2015-11-08T12:53:24Z</time>
      </trkpt>
      <trkpt lat="48.91634" lon="0.25774">
        <ele>214.18</ele>
        <time>2015-11-08T12:53:25Z</time>
      </trkpt>
      <trkpt lat="48.91637" lon="0.25779">
        <ele>214.33</ele>
        <time>2015-11-08T12:53:26Z</time>
      </trkpt>
      <trkpt lat="48.91641" lon="0.25783">
        <ele>214.68</ele>
        <time>2015-11-08T12:53:27Z</time>
      </trkpt>
      <trkpt lat="48.91643" lon="0.25787">
        <ele>214.55</ele>
        <time>2015-11-08T12:53:28Z</time>
      </trkpt>
      <trkpt lat="48.91647" lon="0.25791">
        <ele>214.71</ele>
        <time>2015-11-08T12:53:29Z</time>
      </trkpt>
      <trkpt lat="48.9165" lon="0.25795">
        <ele>214.91</ele>
        <time>2015-11-08T12:53:30Z</time>
      </trkpt>
      <trkpt lat="48.91654" lon="0.258">
        <ele>215.06</ele>
        <time>2015-11-08T12:53:31Z</time>
      </trkpt>
      <trkpt lat="48.91658" lon="0.25804">
        <ele>215.47</ele>
        <time>2015-11-08T12:53:32Z</time>
      </trkpt>
      <trkpt lat="48.91659" lon="0.25808">
        <ele>215.56</ele>
        <time>2015-11-08T12:53:33Z</time>
      </trkpt>
      <trkpt lat="48.91661" lon="0.2581">
        <ele>215.8</ele>
        <time>2015-11-08T12:53:34Z</time>
      </trkpt>
      <trkpt lat="48.91664" lon="0.25812">
        <ele>216.24</ele>
        <time>2015-11-08T12:53:35Z</time>
      </trkpt>
      <trkpt lat="48.91668" lon="0.25814">
        <ele>216.8</ele>
        <time>2015-11-08T12:53:36Z</time>
      </trkpt>
      <trkpt lat="48.91672" lon="0.25816">
        <ele>216.9</ele>
        <time>2015-11-08T12:53:37Z</time>
      </trkpt>
      <trkpt lat="48.91676" lon="0.25819">
        <ele>216.91</ele>
        <time>2015-11-08T12:53:38Z</time>
      </trkpt>
      <trkpt lat="48.9168" lon="0.25821">
        <ele>216.81</ele>
        <time>2015-11-08T12:53:39Z</time>
      </trkpt>
      <trkpt lat="48.91684" lon="0.25823">
        <ele>216.63</ele>
        <time>2015-11-08T12:53:40Z</time>
      </trkpt>
      <trkpt lat="48.91687" lon="0.25826">
        <ele>216.36</ele>
        <time>2015-11-08T12:53:41Z</time>
      </trkpt>
      <trkpt lat="48.91691" lon="0.25828">
        <ele>216.02</ele>
        <time>2015-11-08T12:53:42Z</time>
      </trkpt>
      <trkpt lat="48.91695" lon="0.2583">
        <ele>215.63</ele>
        <time>2015-11-08T12:53:43Z</time>
      </trkpt>
      <trkpt lat="48.91698" lon="0.25832">
        <ele>215.51</ele>
        <time>2015-11-08T12:53:44Z</time>
      </trkpt>
      <trkpt lat="48.91702" lon="0.25834">
        <ele>215.41</ele>
        <time>2015-11-08T12:53:45Z</time>
      </trkpt>
      <trkpt lat="48.91706" lon="0.25836">
        <ele>215.3</ele>
        <time>2015-11-08T12:53:46Z</time>
      </trkpt>
      <trkpt lat="48.91709" lon="0.25838">
        <ele>215.22</ele>
        <time>2015-11-08T12:53:47Z</time>
      </trkpt>
      <trkpt lat="48.91713" lon="0.25839">
        <ele>215.25</ele>
        <time>2015-11-08T12:53:48Z</time>
      </trkpt>
      <trkpt lat="48.91716" lon="0.2584">
        <ele>215.24</ele>
        <time>2015-11-08T12:53:49Z</time>
      </trkpt>
      <trkpt lat="48.91719" lon="0.25842">
        <ele>215.23</ele>
        <time>2015-11-08T12:53:50Z</time>
      </trkpt>
      <trkpt lat="48.91723" lon="0.25843">
        <ele>215.21</ele>
        <time>2015-11-08T12:53:51Z</time>
      </trkpt>
      <trkpt lat="48.91726" lon="0.25845">
        <ele>214.88</ele>
        <time>2015-11-08T12:53:52Z</time>
      </trkpt>
      <trkpt lat="48.91729" lon="0.25846">
        <ele>214.67</ele>
        <time>2015-11-08T12:53:53Z</time>
      </trkpt>
      <trkpt lat="48.91732" lon="0.25847">
        <ele>214.52</ele>
        <time>2015-11-08T12:53:54Z</time>
      </trkpt>
      <trkpt lat="48.91736" lon="0.25847">
        <ele>214.49</ele>
        <time>2015-11-08T12:53:55Z</time>
      </trkpt>
      <trkpt lat="48.91739" lon="0.25847">
        <ele>214.57</ele>
        <time>2015-11-08T12:53:56Z</time>
      </trkpt>
      <trkpt lat="48.91742" lon="0.25846">
        <ele>214.66</ele>
        <time>2015-11-08T12:53:57Z</time>
      </trkpt>
      <trkpt lat="48.91745" lon="0.25846">
        <ele>214.62</ele>
        <time>2015-11-08T12:53:58Z</time>
      </trkpt>
      <trkpt lat="48.91748" lon="0.25847">
        <ele>214.47</ele>
        <time>2015-11-08T12:53:59Z</time>
      </trkpt>
      <trkpt lat="48.9175" lon="0.2585">
        <ele>214.24</ele>
        <time>2015-11-08T12:54:00Z</time>
      </trkpt>
      <trkpt lat="48.91754" lon="0.25854">
        <ele>213.66</ele>
        <time>2015-11-08T12:54:02Z</time>
      </trkpt>
      <trkpt lat="48.91759" lon="0.25857">
        <ele>213.32</ele>
        <time>2015-11-08T12:54:04Z</time>
      </trkpt>
      <trkpt lat="48.91764" lon="0.25859">
        <ele>213.16</ele>
        <time>2015-11-08T12:54:06Z</time>
      </trkpt>
      <trkpt lat="48.91768" lon="0.25859">
        <ele>213.11</ele>
        <time>2015-11-08T12:54:07Z</time>
      </trkpt>
      <trkpt lat="48.91771" lon="0.2586">
        <ele>213.07</ele>
        <time>2015-11-08T12:54:08Z</time>
      </trkpt>
      <trkpt lat="48.91774" lon="0.2586">
        <ele>213.03</ele>
        <time>2015-11-08T12:54:09Z</time>
      </trkpt>
      <trkpt lat="48.91777" lon="0.25861">
        <ele>213</ele>
        <time>2015-11-08T12:54:10Z</time>
      </trkpt>
      <trkpt lat="48.91781" lon="0.25862">
        <ele>213.31</ele>
        <time>2015-11-08T12:54:11Z</time>
      </trkpt>
      <trkpt lat="48.91784" lon="0.25863">
        <ele>213.64</ele>
        <time>2015-11-08T12:54:12Z</time>
      </trkpt>
      <trkpt lat="48.91788" lon="0.25864">
        <ele>213.92</ele>
        <time>2015-11-08T12:54:13Z</time>
      </trkpt>
      <trkpt lat="48.91792" lon="0.25865">
        <ele>214.2</ele>
        <time>2015-11-08T12:54:14Z</time>
      </trkpt>
      <trkpt lat="48.91795" lon="0.25866">
        <ele>214.46</ele>
        <time>2015-11-08T12:54:15Z</time>
      </trkpt>
      <trkpt lat="48.91798" lon="0.25866">
        <ele>214.71</ele>
        <time>2015-11-08T12:54:16Z</time>
      </trkpt>
      <trkpt lat="48.91802" lon="0.25867">
        <ele>214.91</ele>
        <time>2015-11-08T12:54:17Z</time>
      </trkpt>
      <trkpt lat="48.91805" lon="0.25867">
        <ele>215.06</ele>
        <time>2015-11-08T12:54:18Z</time>
      </trkpt>
      <trkpt lat="48.91808" lon="0.25869">
        <ele>214.43</ele>
        <time>2015-11-08T12:54:19Z</time>
      </trkpt>
      <trkpt lat="48.91811" lon="0.2587">
        <ele>213.63</ele>
        <time>2015-11-08T12:54:20Z</time>
      </trkpt>
      <trkpt lat="48.91814" lon="0.25872">
        <ele>212.71</ele>
        <time>2015-11-08T12:54:21Z</time>
      </trkpt>
      <trkpt lat="48.91818" lon="0.25874">
        <ele>211.8</ele>
        <time>2015-11-08T12:54:22Z</time>
      </trkpt>
      <trkpt lat="48.91821" lon="0.25875">
        <ele>210.88</ele>
        <time>2015-11-08T12:54:23Z</time>
      </trkpt>
      <trkpt lat="48.91825" lon="0.25877">
        <ele>209.92</ele>
        <time>2015-11-08T12:54:24Z</time>
      </trkpt>
      <trkpt lat="48.91828" lon="0.25878">
        <ele>209.04</ele>
        <time>2015-11-08T12:54:25Z</time>
      </trkpt>
      <trkpt lat="48.91831" lon="0.25879">
        <ele>208.24</ele>
        <time>2015-11-08T12:54:26Z</time>
      </trkpt>
      <trkpt lat="48.91834" lon="0.2588">
        <ele>207.61</ele>
        <time>2015-11-08T12:54:27Z</time>
      </trkpt>
      <trkpt lat="48.91838" lon="0.2588">
        <ele>207.33</ele>
        <time>2015-11-08T12:54:28Z</time>
      </trkpt>
      <trkpt lat="48.91842" lon="0.25881">
        <ele>207.01</ele>
        <time>2015-11-08T12:54:29Z</time>
      </trkpt>
      <trkpt lat="48.91846" lon="0.25883">
        <ele>206.7</ele>
        <time>2015-11-08T12:54:30Z</time>
      </trkpt>
      <trkpt lat="48.9185" lon="0.25884">
        <ele>206.44</ele>
        <time>2015-11-08T12:54:31Z</time>
      </trkpt>
      <trkpt lat="48.91854" lon="0.25886">
        <ele>206.24</ele>
        <time>2015-11-08T12:54:32Z</time>
      </trkpt>
      <trkpt lat="48.91863" lon="0.2589">
        <ele>205.52</ele>
        <time>2015-11-08T12:54:33Z</time>
      </trkpt>
      <trkpt lat="48.91867" lon="0.25894">
        <ele>204.64</ele>
        <time>2015-11-08T12:54:34Z</time>
      </trkpt>
      <trkpt lat="48.91872" lon="0.25894">
        <ele>203.45</ele>
        <time>2015-11-08T12:54:35Z</time>
      </trkpt>
      <trkpt lat="48.91879" lon="0.25895">
        <ele>201.83</ele>
        <time>2015-11-08T12:54:36Z</time>
      </trkpt>
      <trkpt lat="48.91885" lon="0.25897">
        <ele>200.13</ele>
        <time>2015-11-08T12:54:37Z</time>
      </trkpt>
      <trkpt lat="48.91892" lon="0.25899">
        <ele>198.43</ele>
        <time>2015-11-08T12:54:38Z</time>
      </trkpt>
      <trkpt lat="48.91899" lon="0.25902">
        <ele>197.06</ele>
        <time>2015-11-08T12:54:39Z</time>
      </trkpt>
      <trkpt lat="48.91906" lon="0.25905">
        <ele>195.19</ele>
        <time>2015-11-08T12:54:40Z</time>
      </trkpt>
      <trkpt lat="48.91911" lon="0.25907">
        <ele>193.97</ele>
        <time>2015-11-08T12:54:41Z</time>
      </trkpt>
      <trkpt lat="48.91916" lon="0.25906">
        <ele>193.62</ele>
        <time>2015-11-08T12:54:42Z</time>
      </trkpt>
      <trkpt lat="48.91923" lon="0.25907">
        <ele>193.48</ele>
        <time>2015-11-08T12:54:43Z</time>
      </trkpt>
      <trkpt lat="48.9193" lon="0.25909">
        <ele>193.44</ele>
        <time>2015-11-08T12:54:44Z</time>
      </trkpt>
      <trkpt lat="48.91935" lon="0.25909">
        <ele>193.78</ele>
        <time>2015-11-08T12:54:45Z</time>
      </trkpt>
      <trkpt lat="48.91943" lon="0.25909">
        <ele>194.21</ele>
        <time>2015-11-08T12:54:46Z</time>
      </trkpt>
      <trkpt lat="48.91948" lon="0.25906">
        <ele>195.08</ele>
        <time>2015-11-08T12:54:47Z</time>
      </trkpt>
      <trkpt lat="48.91956" lon="0.25908">
        <ele>194.47</ele>
        <time>2015-11-08T12:54:48Z</time>
      </trkpt>
      <trkpt lat="48.91964" lon="0.25912">
        <ele>192.41</ele>
        <time>2015-11-08T12:54:49Z</time>
      </trkpt>
      <trkpt lat="48.91966" lon="0.25917">
        <ele>190.3</ele>
        <time>2015-11-08T12:54:50Z</time>
      </trkpt>
      <trkpt lat="48.91974" lon="0.25924">
        <ele>188.69</ele>
        <time>2015-11-08T12:54:51Z</time>
      </trkpt>
      <trkpt lat="48.91978" lon="0.25926">
        <ele>188.44</ele>
        <time>2015-11-08T12:54:52Z</time>
      </trkpt>
      <trkpt lat="48.91982" lon="0.25931">
        <ele>187.98</ele>
        <time>2015-11-08T12:54:54Z</time>
      </trkpt>
      <trkpt lat="48.91985" lon="0.25936">
        <ele>187.6</ele>
        <time>2015-11-08T12:54:55Z</time>
      </trkpt>
      <trkpt lat="48.91986" lon="0.25941">
        <ele>187.32</ele>
        <time>2015-11-08T12:54:56Z</time>
      </trkpt>
      <trkpt lat="48.91988" lon="0.25946">
        <ele>187.39</ele>
        <time>2015-11-08T12:54:57Z</time>
      </trkpt>
      <trkpt lat="48.91988" lon="0.25951">
        <ele>187.63</ele>
        <time>2015-11-08T12:54:58Z</time>
      </trkpt>
      <trkpt lat="48.91988" lon="0.25957">
        <ele>187.91</ele>
        <time>2015-11-08T12:55:00Z</time>
      </trkpt>
      <trkpt lat="48.91986" lon="0.25963">
        <ele>188.32</ele>
        <time>2015-11-08T12:55:02Z</time>
      </trkpt>
      <trkpt lat="48.91985" lon="0.25967">
        <ele>188.78</ele>
        <time>2015-11-08T12:55:03Z</time>
      </trkpt>
      <trkpt lat="48.91983" lon="0.25972">
        <ele>189.48</ele>
        <time>2015-11-08T12:55:04Z</time>
      </trkpt>
      <trkpt lat="48.91981" lon="0.25977">
        <ele>189.71</ele>
        <time>2015-11-08T12:55:05Z</time>
      </trkpt>
      <trkpt lat="48.91978" lon="0.25982">
        <ele>189.96</ele>
        <time>2015-11-08T12:55:06Z</time>
      </trkpt>
      <trkpt lat="48.91975" lon="0.25986">
        <ele>190.24</ele>
        <time>2015-11-08T12:55:07Z</time>
      </trkpt>
      <trkpt lat="48.91971" lon="0.25989">
        <ele>190.17</ele>
        <time>2015-11-08T12:55:08Z</time>
      </trkpt>
      <trkpt lat="48.91967" lon="0.25992">
        <ele>189.3</ele>
        <time>2015-11-08T12:55:09Z</time>
      </trkpt>
      <trkpt lat="48.91963" lon="0.25995">
        <ele>188.32</ele>
        <time>2015-11-08T12:55:10Z</time>
      </trkpt>
      <trkpt lat="48.9196" lon="0.25998">
        <ele>187.17</ele>
        <time>2015-11-08T12:55:11Z</time>
      </trkpt>
      <trkpt lat="48.91956" lon="0.26">
        <ele>185.93</ele>
        <time>2015-11-08T12:55:12Z</time>
      </trkpt>
      <trkpt lat="48.91953" lon="0.26003">
        <ele>185.45</ele>
        <time>2015-11-08T12:55:13Z</time>
      </trkpt>
      <trkpt lat="48.91949" lon="0.26007">
        <ele>185.38</ele>
        <time>2015-11-08T12:55:14Z</time>
      </trkpt>
      <trkpt lat="48.91947" lon="0.26012">
        <ele>185.8</ele>
        <time>2015-11-08T12:55:15Z</time>
      </trkpt>
      <trkpt lat="48.91944" lon="0.26016">
        <ele>186.58</ele>
        <time>2015-11-08T12:55:16Z</time>
      </trkpt>
      <trkpt lat="48.91943" lon="0.26022">
        <ele>187.98</ele>
        <time>2015-11-08T12:55:17Z</time>
      </trkpt>
      <trkpt lat="48.91942" lon="0.26028">
        <ele>189.2</ele>
        <time>2015-11-08T12:55:18Z</time>
      </trkpt>
      <trkpt lat="48.91942" lon="0.26034">
        <ele>189.33</ele>
        <time>2015-11-08T12:55:19Z</time>
      </trkpt>
      <trkpt lat="48.91943" lon="0.2604">
        <ele>189.46</ele>
        <time>2015-11-08T12:55:20Z</time>
      </trkpt>
      <trkpt lat="48.91944" lon="0.26046">
        <ele>189.65</ele>
        <time>2015-11-08T12:55:21Z</time>
      </trkpt>
      <trkpt lat="48.91945" lon="0.26052">
        <ele>189.81</ele>
        <time>2015-11-08T12:55:22Z</time>
      </trkpt>
      <trkpt lat="48.91947" lon="0.26058">
        <ele>188.84</ele>
        <time>2015-11-08T12:55:23Z</time>
      </trkpt>
      <trkpt lat="48.91948" lon="0.26064">
        <ele>186.44</ele>
        <time>2015-11-08T12:55:24Z</time>
      </trkpt>
      <trkpt lat="48.91948" lon="0.26071">
        <ele>184.01</ele>
        <time>2015-11-08T12:55:25Z</time>
      </trkpt>
      <trkpt lat="48.91947" lon="0.26077">
        <ele>181.78</ele>
        <time>2015-11-08T12:55:26Z</time>
      </trkpt>
      <trkpt lat="48.91944" lon="0.26081">
        <ele>179.79</ele>
        <time>2015-11-08T12:55:27Z</time>
      </trkpt>
      <trkpt lat="48.9194" lon="0.26085">
        <ele>179.18</ele>
        <time>2015-11-08T12:55:28Z</time>
      </trkpt>
      <trkpt lat="48.91937" lon="0.26087">
        <ele>179.35</ele>
        <time>2015-11-08T12:55:29Z</time>
      </trkpt>
      <trkpt lat="48.91933" lon="0.2609">
        <ele>179.46</ele>
        <time>2015-11-08T12:55:30Z</time>
      </trkpt>
      <trkpt lat="48.91929" lon="0.26092">
        <ele>179.52</ele>
        <time>2015-11-08T12:55:31Z</time>
      </trkpt>
      <trkpt lat="48.91925" lon="0.26094">
        <ele>179.55</ele>
        <time>2015-11-08T12:55:32Z</time>
      </trkpt>
      <trkpt lat="48.91921" lon="0.26096">
        <ele>179.52</ele>
        <time>2015-11-08T12:55:33Z</time>
      </trkpt>
      <trkpt lat="48.91917" lon="0.26099">
        <ele>179.45</ele>
        <time>2015-11-08T12:55:34Z</time>
      </trkpt>
      <trkpt lat="48.91913" lon="0.26102">
        <ele>179.44</ele>
        <time>2015-11-08T12:55:35Z</time>
      </trkpt>
      <trkpt lat="48.91909" lon="0.26105">
        <ele>179.2</ele>
        <time>2015-11-08T12:55:36Z</time>
      </trkpt>
      <trkpt lat="48.91905" lon="0.26106">
        <ele>178.9</ele>
        <time>2015-11-08T12:55:37Z</time>
      </trkpt>
      <trkpt lat="48.91902" lon="0.26108">
        <ele>178.44</ele>
        <time>2015-11-08T12:55:38Z</time>
      </trkpt>
      <trkpt lat="48.91898" lon="0.2611">
        <ele>177.86</ele>
        <time>2015-11-08T12:55:39Z</time>
      </trkpt>
      <trkpt lat="48.91895" lon="0.26112">
        <ele>177.31</ele>
        <time>2015-11-08T12:55:40Z</time>
      </trkpt>
      <trkpt lat="48.91891" lon="0.26114">
        <ele>176.86</ele>
        <time>2015-11-08T12:55:41Z</time>
      </trkpt>
      <trkpt lat="48.91889" lon="0.26115">
        <ele>176.71</ele>
        <time>2015-11-08T12:55:42Z</time>
      </trkpt>
      <trkpt lat="48.91886" lon="0.26116">
        <ele>177.98</ele>
        <time>2015-11-08T12:55:43Z</time>
      </trkpt>
      <trkpt lat="48.91883" lon="0.26116">
        <ele>179.37</ele>
        <time>2015-11-08T12:55:44Z</time>
      </trkpt>
      <trkpt lat="48.9188" lon="0.26117">
        <ele>180.78</ele>
        <time>2015-11-08T12:55:45Z</time>
      </trkpt>
      <trkpt lat="48.91877" lon="0.26118">
        <ele>182.17</ele>
        <time>2015-11-08T12:55:46Z</time>
      </trkpt>
      <trkpt lat="48.91872" lon="0.2612">
        <ele>184.96</ele>
        <time>2015-11-08T12:55:48Z</time>
      </trkpt>
      <trkpt lat="48.9187" lon="0.26121">
        <ele>186.53</ele>
        <time>2015-11-08T12:55:49Z</time>
      </trkpt>
      <trkpt lat="48.91867" lon="0.26123">
        <ele>188.23</ele>
        <time>2015-11-08T12:55:50Z</time>
      </trkpt>
      <trkpt lat="48.91864" lon="0.26125">
        <ele>190.05</ele>
        <time>2015-11-08T12:55:51Z</time>
      </trkpt>
      <trkpt lat="48.91862" lon="0.26126">
        <ele>191.87</ele>
        <time>2015-11-08T12:55:52Z</time>
      </trkpt>
      <trkpt lat="48.91859" lon="0.26128">
        <ele>192.51</ele>
        <time>2015-11-08T12:55:53Z</time>
      </trkpt>
      <trkpt lat="48.91857" lon="0.26129">
        <ele>192.49</ele>
        <time>2015-11-08T12:55:54Z</time>
      </trkpt>
      <trkpt lat="48.91854" lon="0.26129">
        <ele>192.42</ele>
        <time>2015-11-08T12:55:55Z</time>
      </trkpt>
      <trkpt lat="48.91849" lon="0.2613">
        <ele>192.1</ele>
        <time>2015-11-08T12:55:57Z</time>
      </trkpt>
      <trkpt lat="48.91844" lon="0.2613">
        <ele>191.75</ele>
        <time>2015-11-08T12:55:59Z</time>
      </trkpt>
      <trkpt lat="48.91838" lon="0.26129">
        <ele>191.39</ele>
        <time>2015-11-08T12:56:01Z</time>
      </trkpt>
      <trkpt lat="48.91834" lon="0.26128">
        <ele>191.16</ele>
        <time>2015-11-08T12:56:03Z</time>
      </trkpt>
      <trkpt lat="48.91829" lon="0.26131">
        <ele>191.89</ele>
        <time>2015-11-08T12:56:05Z</time>
      </trkpt>
      <trkpt lat="48.91824" lon="0.26133">
        <ele>192.56</ele>
        <time>2015-11-08T12:56:07Z</time>
      </trkpt>
      <trkpt lat="48.91821" lon="0.26135">
        <ele>192.94</ele>
        <time>2015-11-08T12:56:08Z</time>
      </trkpt>
      <trkpt lat="48.91818" lon="0.26136">
        <ele>193.3</ele>
        <time>2015-11-08T12:56:09Z</time>
      </trkpt>
      <trkpt lat="48.91815" lon="0.26137">
        <ele>193.63</ele>
        <time>2015-11-08T12:56:10Z</time>
      </trkpt>
      <trkpt lat="48.91809" lon="0.26138">
        <ele>194.5</ele>
        <time>2015-11-08T12:56:12Z</time>
      </trkpt>
      <trkpt lat="48.91807" lon="0.26139">
        <ele>194.86</ele>
        <time>2015-11-08T12:56:13Z</time>
      </trkpt>
      <trkpt lat="48.91804" lon="0.26139">
        <ele>194.79</ele>
        <time>2015-11-08T12:56:14Z</time>
      </trkpt>
      <trkpt lat="48.91801" lon="0.2614">
        <ele>194.42</ele>
        <time>2015-11-08T12:56:15Z</time>
      </trkpt>
      <trkpt lat="48.91798" lon="0.2614">
        <ele>194.05</ele>
        <time>2015-11-08T12:56:16Z</time>
      </trkpt>
      <trkpt lat="48.91797" lon="0.26144">
        <ele>193.53</ele>
        <time>2015-11-08T12:56:55Z</time>
      </trkpt>
      <trkpt lat="48.91794" lon="0.26149">
        <ele>192.65</ele>
        <time>2015-11-08T12:56:58Z</time>
      </trkpt>
      <trkpt lat="48.91792" lon="0.26153">
        <ele>192.12</ele>
        <time>2015-11-08T12:56:59Z</time>
      </trkpt>
      <trkpt lat="48.91791" lon="0.26157">
        <ele>191.48</ele>
        <time>2015-11-08T12:57:00Z</time>
      </trkpt>
      <trkpt lat="48.9179" lon="0.26163">
        <ele>190.71</ele>
        <time>2015-11-08T12:57:01Z</time>
      </trkpt>
      <trkpt lat="48.91789" lon="0.26169">
        <ele>190.16</ele>
        <time>2015-11-08T12:57:02Z</time>
      </trkpt>
      <trkpt lat="48.91788" lon="0.26176">
        <ele>190.11</ele>
        <time>2015-11-08T12:57:03Z</time>
      </trkpt>
      <trkpt lat="48.91789" lon="0.26187">
        <ele>190.17</ele>
        <time>2015-11-08T12:57:04Z</time>
      </trkpt>
      <trkpt lat="48.91788" lon="0.26195">
        <ele>189.87</ele>
        <time>2015-11-08T12:57:05Z</time>
      </trkpt>
      <trkpt lat="48.91787" lon="0.26206">
        <ele>186.37</ele>
        <time>2015-11-08T12:57:06Z</time>
      </trkpt>
      <trkpt lat="48.91786" lon="0.26216">
        <ele>182.78</ele>
        <time>2015-11-08T12:57:07Z</time>
      </trkpt>
      <trkpt lat="48.91785" lon="0.26226">
        <ele>180.66</ele>
        <time>2015-11-08T12:57:08Z</time>
      </trkpt>
      <trkpt lat="48.91784" lon="0.26236">
        <ele>180.6</ele>
        <time>2015-11-08T12:57:09Z</time>
      </trkpt>
      <trkpt lat="48.91785" lon="0.26252">
        <ele>180.92</ele>
        <time>2015-11-08T12:57:10Z</time>
      </trkpt>
      <trkpt lat="48.91786" lon="0.26263">
        <ele>179.94</ele>
        <time>2015-11-08T12:57:11Z</time>
      </trkpt>
      <trkpt lat="48.91785" lon="0.26275">
        <ele>178.79</ele>
        <time>2015-11-08T12:57:12Z</time>
      </trkpt>
      <trkpt lat="48.91788" lon="0.26287">
        <ele>177.58</ele>
        <time>2015-11-08T12:57:13Z</time>
      </trkpt>
      <trkpt lat="48.91791" lon="0.26301">
        <ele>176.03</ele>
        <time>2015-11-08T12:57:14Z</time>
      </trkpt>
      <trkpt lat="48.91793" lon="0.2631">
        <ele>174.35</ele>
        <time>2015-11-08T12:57:15Z</time>
      </trkpt>
      <trkpt lat="48.91795" lon="0.26319">
        <ele>172.08</ele>
        <time>2015-11-08T12:57:16Z</time>
      </trkpt>
      <trkpt lat="48.91795" lon="0.26333">
        <ele>168.39</ele>
        <time>2015-11-08T12:57:17Z</time>
      </trkpt>
      <trkpt lat="48.91796" lon="0.26345">
        <ele>166.66</ele>
        <time>2015-11-08T12:57:18Z</time>
      </trkpt>
      <trkpt lat="48.91796" lon="0.26357">
        <ele>164.91</ele>
        <time>2015-11-08T12:57:19Z</time>
      </trkpt>
      <trkpt lat="48.918" lon="0.26365">
        <ele>164.97</ele>
        <time>2015-11-08T12:57:20Z</time>
      </trkpt>
      <trkpt lat="48.91799" lon="0.26375">
        <ele>163.08</ele>
        <time>2015-11-08T12:57:21Z</time>
      </trkpt>
      <trkpt lat="48.91798" lon="0.26385">
        <ele>161.69</ele>
        <time>2015-11-08T12:57:22Z</time>
      </trkpt>
      <trkpt lat="48.91799" lon="0.26396">
        <ele>160.85</ele>
        <time>2015-11-08T12:57:23Z</time>
      </trkpt>
      <trkpt lat="48.918" lon="0.26407">
        <ele>160.51</ele>
        <time>2015-11-08T12:57:24Z</time>
      </trkpt>
      <trkpt lat="48.91804" lon="0.26417">
        <ele>161.56</ele>
        <time>2015-11-08T12:57:25Z</time>
      </trkpt>
      <trkpt lat="48.91808" lon="0.26426">
        <ele>161.77</ele>
        <time>2015-11-08T12:57:26Z</time>
      </trkpt>
      <trkpt lat="48.9181" lon="0.26431">
        <ele>161.62</ele>
        <time>2015-11-08T12:57:27Z</time>
      </trkpt>
      <trkpt lat="48.91812" lon="0.26437">
        <ele>161.41</ele>
        <time>2015-11-08T12:57:28Z</time>
      </trkpt>
      <trkpt lat="48.91812" lon="0.26441">
        <ele>161.19</ele>
        <time>2015-11-08T12:57:29Z</time>
      </trkpt>
      <trkpt lat="48.91814" lon="0.26447">
        <ele>160.71</ele>
        <time>2015-11-08T12:57:31Z</time>
      </trkpt>
      <trkpt lat="48.91814" lon="0.26452">
        <ele>160</ele>
        <time>2015-11-08T12:57:33Z</time>
      </trkpt>
      <trkpt lat="48.91815" lon="0.26456">
        <ele>159.38</ele>
        <time>2015-11-08T12:57:38Z</time>
      </trkpt>
      <trkpt lat="48.91812" lon="0.26462">
        <ele>158.75</ele>
        <time>2015-11-08T12:57:45Z</time>
      </trkpt>
      <trkpt lat="48.91809" lon="0.26462">
        <ele>158.81</ele>
        <time>2015-11-08T12:57:46Z</time>
      </trkpt>
      <trkpt lat="48.91806" lon="0.26463">
        <ele>158.92</ele>
        <time>2015-11-08T12:57:47Z</time>
      </trkpt>
      <trkpt lat="48.91803" lon="0.26464">
        <ele>158.07</ele>
        <time>2015-11-08T12:57:48Z</time>
      </trkpt>
      <trkpt lat="48.918" lon="0.26466">
        <ele>156.91</ele>
        <time>2015-11-08T12:57:49Z</time>
      </trkpt>
      <trkpt lat="48.91798" lon="0.26468">
        <ele>155.95</ele>
        <time>2015-11-08T12:57:50Z</time>
      </trkpt>
      <trkpt lat="48.91796" lon="0.26472">
        <ele>155.26</ele>
        <time>2015-11-08T12:57:51Z</time>
      </trkpt>
      <trkpt lat="48.91795" lon="0.26477">
        <ele>155.33</ele>
        <time>2015-11-08T12:57:52Z</time>
      </trkpt>
      <trkpt lat="48.91796" lon="0.26482">
        <ele>155.67</ele>
        <time>2015-11-08T12:57:53Z</time>
      </trkpt>
      <trkpt lat="48.91797" lon="0.26488">
        <ele>156.22</ele>
        <time>2015-11-08T12:57:54Z</time>
      </trkpt>
      <trkpt lat="48.91799" lon="0.26493">
        <ele>156.77</ele>
        <time>2015-11-08T12:57:55Z</time>
      </trkpt>
      <trkpt lat="48.91801" lon="0.26498">
        <ele>157.26</ele>
        <time>2015-11-08T12:57:56Z</time>
      </trkpt>
      <trkpt lat="48.91803" lon="0.26504">
        <ele>157.47</ele>
        <time>2015-11-08T12:57:57Z</time>
      </trkpt>
      <trkpt lat="48.91805" lon="0.26511">
        <ele>157.52</ele>
        <time>2015-11-08T12:57:58Z</time>
      </trkpt>
      <trkpt lat="48.91807" lon="0.26517">
        <ele>157.04</ele>
        <time>2015-11-08T12:57:59Z</time>
      </trkpt>
      <trkpt lat="48.9181" lon="0.26522">
        <ele>156.32</ele>
        <time>2015-11-08T12:58:00Z</time>
      </trkpt>
      <trkpt lat="48.91813" lon="0.26529">
        <ele>155.53</ele>
        <time>2015-11-08T12:58:01Z</time>
      </trkpt>
      <trkpt lat="48.91814" lon="0.26535">
        <ele>153.65</ele>
        <time>2015-11-08T12:58:02Z</time>
      </trkpt>
      <trkpt lat="48.91815" lon="0.26543">
        <ele>151.91</ele>
        <time>2015-11-08T12:58:03Z</time>
      </trkpt>
      <trkpt lat="48.91818" lon="0.26555">
        <ele>149.75</ele>
        <time>2015-11-08T12:58:04Z</time>
      </trkpt>
      <trkpt lat="48.91818" lon="0.26561">
        <ele>150.31</ele>
        <time>2015-11-08T12:58:05Z</time>
      </trkpt>
      <trkpt lat="48.91819" lon="0.26569">
        <ele>151.67</ele>
        <time>2015-11-08T12:58:06Z</time>
      </trkpt>
      <trkpt lat="48.91819" lon="0.26575">
        <ele>152.32</ele>
        <time>2015-11-08T12:58:07Z</time>
      </trkpt>
      <trkpt lat="48.91818" lon="0.26582">
        <ele>153</ele>
        <time>2015-11-08T12:58:08Z</time>
      </trkpt>
      <trkpt lat="48.9182" lon="0.26591">
        <ele>154.22</ele>
        <time>2015-11-08T12:58:09Z</time>
      </trkpt>
      <trkpt lat="48.91821" lon="0.26601">
        <ele>155.13</ele>
        <time>2015-11-08T12:58:10Z</time>
      </trkpt>
      <trkpt lat="48.91822" lon="0.26609">
        <ele>155.97</ele>
        <time>2015-11-08T12:58:11Z</time>
      </trkpt>
      <trkpt lat="48.91823" lon="0.2662">
        <ele>155.2</ele>
        <time>2015-11-08T12:58:12Z</time>
      </trkpt>
      <trkpt lat="48.91825" lon="0.26631">
        <ele>153.82</ele>
        <time>2015-11-08T12:58:13Z</time>
      </trkpt>
      <trkpt lat="48.91825" lon="0.26638">
        <ele>152.7</ele>
        <time>2015-11-08T12:58:14Z</time>
      </trkpt>
      <trkpt lat="48.91826" lon="0.26643">
        <ele>151.87</ele>
        <time>2015-11-08T12:58:15Z</time>
      </trkpt>
      <trkpt lat="48.91825" lon="0.26651">
        <ele>150.72</ele>
        <time>2015-11-08T12:58:16Z</time>
      </trkpt>
      <trkpt lat="48.91824" lon="0.26663">
        <ele>148.62</ele>
        <time>2015-11-08T12:58:17Z</time>
      </trkpt>
      <trkpt lat="48.91823" lon="0.26672">
        <ele>147.66</ele>
        <time>2015-11-08T12:58:18Z</time>
      </trkpt>
      <trkpt lat="48.91823" lon="0.26681">
        <ele>147.21</ele>
        <time>2015-11-08T12:58:19Z</time>
      </trkpt>
      <trkpt lat="48.91823" lon="0.26691">
        <ele>147</ele>
        <time>2015-11-08T12:58:20Z</time>
      </trkpt>
      <trkpt lat="48.91823" lon="0.267">
        <ele>146.98</ele>
        <time>2015-11-08T12:58:21Z</time>
      </trkpt>
      <trkpt lat="48.91822" lon="0.26707">
        <ele>146.9</ele>
        <time>2015-11-08T12:58:22Z</time>
      </trkpt>
      <trkpt lat="48.91822" lon="0.26715">
        <ele>147.17</ele>
        <time>2015-11-08T12:58:23Z</time>
      </trkpt>
      <trkpt lat="48.91822" lon="0.26723">
        <ele>147.44</ele>
        <time>2015-11-08T12:58:24Z</time>
      </trkpt>
      <trkpt lat="48.9182" lon="0.26728">
        <ele>147.91</ele>
        <time>2015-11-08T12:58:25Z</time>
      </trkpt>
      <trkpt lat="48.91819" lon="0.26738">
        <ele>149.21</ele>
        <time>2015-11-08T12:58:28Z</time>
      </trkpt>
      <trkpt lat="48.91819" lon="0.26744">
        <ele>150.03</ele>
        <time>2015-11-08T12:58:29Z</time>
      </trkpt>
      <trkpt lat="48.9182" lon="0.2675">
        <ele>151.09</ele>
        <time>2015-11-08T12:58:30Z</time>
      </trkpt>
      <trkpt lat="48.9182" lon="0.26757">
        <ele>149.13</ele>
        <time>2015-11-08T12:58:31Z</time>
      </trkpt>
      <trkpt lat="48.9182" lon="0.26761">
        <ele>148.09</ele>
        <time>2015-11-08T12:58:32Z</time>
      </trkpt>
      <trkpt lat="48.91821" lon="0.26765">
        <ele>147.14</ele>
        <time>2015-11-08T12:58:33Z</time>
      </trkpt>
      <trkpt lat="48.91824" lon="0.26773">
        <ele>145.18</ele>
        <time>2015-11-08T12:58:35Z</time>
      </trkpt>
      <trkpt lat="48.91825" lon="0.26778">
        <ele>143.85</ele>
        <time>2015-11-08T12:58:36Z</time>
      </trkpt>
      <trkpt lat="48.91826" lon="0.26783">
        <ele>143.64</ele>
        <time>2015-11-08T12:58:37Z</time>
      </trkpt>
      <trkpt lat="48.91827" lon="0.2679">
        <ele>143.39</ele>
        <time>2015-11-08T12:58:38Z</time>
      </trkpt>
      <trkpt lat="48.91828" lon="0.26796">
        <ele>143.13</ele>
        <time>2015-11-08T12:58:39Z</time>
      </trkpt>
      <trkpt lat="48.91828" lon="0.26803">
        <ele>142.78</ele>
        <time>2015-11-08T12:58:40Z</time>
      </trkpt>
      <trkpt lat="48.91829" lon="0.26811">
        <ele>142.25</ele>
        <time>2015-11-08T12:58:41Z</time>
      </trkpt>
      <trkpt lat="48.91829" lon="0.26819">
        <ele>141.66</ele>
        <time>2015-11-08T12:58:42Z</time>
      </trkpt>
      <trkpt lat="48.91829" lon="0.26826">
        <ele>141.09</ele>
        <time>2015-11-08T12:58:43Z</time>
      </trkpt>
      <trkpt lat="48.9183" lon="0.26834">
        <ele>140.56</ele>
        <time>2015-11-08T12:58:44Z</time>
      </trkpt>
      <trkpt lat="48.91831" lon="0.26841">
        <ele>139.91</ele>
        <time>2015-11-08T12:58:45Z</time>
      </trkpt>
      <trkpt lat="48.91832" lon="0.26847">
        <ele>139.38</ele>
        <time>2015-11-08T12:58:46Z</time>
      </trkpt>
      <trkpt lat="48.91834" lon="0.26852">
        <ele>139.01</ele>
        <time>2015-11-08T12:58:47Z</time>
      </trkpt>
      <trkpt lat="48.91836" lon="0.26858">
        <ele>138.77</ele>
        <time>2015-11-08T12:58:48Z</time>
      </trkpt>
      <trkpt lat="48.91839" lon="0.26861">
        <ele>138.63</ele>
        <time>2015-11-08T12:58:49Z</time>
      </trkpt>
      <trkpt lat="48.91842" lon="0.26865">
        <ele>138.43</ele>
        <time>2015-11-08T12:58:50Z</time>
      </trkpt>
      <trkpt lat="48.91844" lon="0.26869">
        <ele>138.05</ele>
        <time>2015-11-08T12:58:52Z</time>
      </trkpt>
      <trkpt lat="48.91845" lon="0.26874">
        <ele>137.39</ele>
        <time>2015-11-08T12:58:55Z</time>
      </trkpt>
      <trkpt lat="48.91846" lon="0.26879">
        <ele>136.79</ele>
        <time>2015-11-08T12:58:57Z</time>
      </trkpt>
      <trkpt lat="48.91848" lon="0.26882">
        <ele>136.46</ele>
        <time>2015-11-08T12:59:00Z</time>
      </trkpt>
      <trkpt lat="48.9185" lon="0.26882">
        <ele>136.76</ele>
        <time>2015-11-08T12:59:17Z</time>
      </trkpt>
      <trkpt lat="48.91853" lon="0.26883">
        <ele>136.97</ele>
        <time>2015-11-08T13:00:04Z</time>
      </trkpt>
      <trkpt lat="48.91854" lon="0.26888">
        <ele>136.37</ele>
        <time>2015-11-08T13:00:07Z</time>
      </trkpt>
      <trkpt lat="48.91852" lon="0.26891">
        <ele>135.85</ele>
        <time>2015-11-08T13:00:09Z</time>
      </trkpt>
      <trkpt lat="48.91849" lon="0.26893">
        <ele>135.29</ele>
        <time>2015-11-08T13:00:11Z</time>
      </trkpt>
      <trkpt lat="48.91847" lon="0.26897">
        <ele>134.68</ele>
        <time>2015-11-08T13:00:13Z</time>
      </trkpt>
      <trkpt lat="48.91846" lon="0.26903">
        <ele>133.98</ele>
        <time>2015-11-08T13:00:15Z</time>
      </trkpt>
      <trkpt lat="48.91846" lon="0.26909">
        <ele>133.37</ele>
        <time>2015-11-08T13:00:17Z</time>
      </trkpt>
      <trkpt lat="48.91847" lon="0.26917">
        <ele>132.95</ele>
        <time>2015-11-08T13:00:19Z</time>
      </trkpt>
      <trkpt lat="48.91848" lon="0.26921">
        <ele>133.06</ele>
        <time>2015-11-08T13:00:20Z</time>
      </trkpt>
      <trkpt lat="48.91848" lon="0.26926">
        <ele>133.12</ele>
        <time>2015-11-08T13:00:21Z</time>
      </trkpt>
      <trkpt lat="48.91848" lon="0.26933">
        <ele>133.21</ele>
        <time>2015-11-08T13:00:22Z</time>
      </trkpt>
      <trkpt lat="48.91849" lon="0.26939">
        <ele>133.28</ele>
        <time>2015-11-08T13:00:23Z</time>
      </trkpt>
      <trkpt lat="48.91849" lon="0.26945">
        <ele>133.38</ele>
        <time>2015-11-08T13:00:24Z</time>
      </trkpt>
      <trkpt lat="48.91849" lon="0.26951">
        <ele>133.8</ele>
        <time>2015-11-08T13:00:25Z</time>
      </trkpt>
      <trkpt lat="48.91849" lon="0.26957">
        <ele>134.26</ele>
        <time>2015-11-08T13:00:26Z</time>
      </trkpt>
      <trkpt lat="48.91849" lon="0.26963">
        <ele>134.7</ele>
        <time>2015-11-08T13:00:27Z</time>
      </trkpt>
      <trkpt lat="48.91849" lon="0.26969">
        <ele>135.09</ele>
        <time>2015-11-08T13:00:28Z</time>
      </trkpt>
      <trkpt lat="48.91849" lon="0.26975">
        <ele>135.52</ele>
        <time>2015-11-08T13:00:29Z</time>
      </trkpt>
      <trkpt lat="48.91849" lon="0.26981">
        <ele>136.02</ele>
        <time>2015-11-08T13:00:30Z</time>
      </trkpt>
      <trkpt lat="48.91849" lon="0.26987">
        <ele>136.5</ele>
        <time>2015-11-08T13:00:31Z</time>
      </trkpt>
      <trkpt lat="48.91849" lon="0.26993">
        <ele>136.99</ele>
        <time>2015-11-08T13:00:32Z</time>
      </trkpt>
      <trkpt lat="48.91848" lon="0.26999">
        <ele>137.47</ele>
        <time>2015-11-08T13:00:33Z</time>
      </trkpt>
      <trkpt lat="48.91848" lon="0.27004">
        <ele>137.56</ele>
        <time>2015-11-08T13:00:34Z</time>
      </trkpt>
      <trkpt lat="48.91847" lon="0.27009">
        <ele>137.51</ele>
        <time>2015-11-08T13:00:35Z</time>
      </trkpt>
      <trkpt lat="48.91847" lon="0.27014">
        <ele>137.53</ele>
        <time>2015-11-08T13:00:36Z</time>
      </trkpt>
      <trkpt lat="48.91848" lon="0.27019">
        <ele>137.57</ele>
        <time>2015-11-08T13:00:37Z</time>
      </trkpt>
      <trkpt lat="48.91848" lon="0.27024">
        <ele>137.59</ele>
        <time>2015-11-08T13:00:38Z</time>
      </trkpt>
      <trkpt lat="48.91848" lon="0.27029">
        <ele>137.54</ele>
        <time>2015-11-08T13:00:39Z</time>
      </trkpt>
      <trkpt lat="48.91847" lon="0.27033">
        <ele>137.22</ele>
        <time>2015-11-08T13:00:40Z</time>
      </trkpt>
      <trkpt lat="48.91846" lon="0.27037">
        <ele>136.92</ele>
        <time>2015-11-08T13:00:41Z</time>
      </trkpt>
      <trkpt lat="48.91845" lon="0.27042">
        <ele>136.64</ele>
        <time>2015-11-08T13:00:42Z</time>
      </trkpt>
      <trkpt lat="48.91844" lon="0.27046">
        <ele>136.4</ele>
        <time>2015-11-08T13:00:43Z</time>
      </trkpt>
      <trkpt lat="48.91842" lon="0.27049">
        <ele>136.22</ele>
        <time>2015-11-08T13:00:44Z</time>
      </trkpt>
      <trkpt lat="48.91837" lon="0.2705">
        <ele>136.08</ele>
        <time>2015-11-08T13:00:46Z</time>
      </trkpt>
      <trkpt lat="48.91832" lon="0.2705">
        <ele>135.7</ele>
        <time>2015-11-08T13:00:48Z</time>
      </trkpt>
      <trkpt lat="48.91829" lon="0.2705">
        <ele>135.06</ele>
        <time>2015-11-08T13:00:49Z</time>
      </trkpt>
      <trkpt lat="48.91826" lon="0.27051">
        <ele>134.42</ele>
        <time>2015-11-08T13:00:50Z</time>
      </trkpt>
      <trkpt lat="48.91823" lon="0.27052">
        <ele>133.79</ele>
        <time>2015-11-08T13:00:51Z</time>
      </trkpt>
      <trkpt lat="48.91821" lon="0.27052">
        <ele>133.2</ele>
        <time>2015-11-08T13:00:52Z</time>
      </trkpt>
      <trkpt lat="48.91818" lon="0.27053">
        <ele>132.57</ele>
        <time>2015-11-08T13:00:53Z</time>
      </trkpt>
      <trkpt lat="48.91815" lon="0.27054">
        <ele>131.91</ele>
        <time>2015-11-08T13:00:54Z</time>
      </trkpt>
      <trkpt lat="48.91812" lon="0.27054">
        <ele>131.3</ele>
        <time>2015-11-08T13:00:55Z</time>
      </trkpt>
      <trkpt lat="48.91809" lon="0.27055">
        <ele>130.71</ele>
        <time>2015-11-08T13:00:56Z</time>
      </trkpt>
      <trkpt lat="48.91806" lon="0.27056">
        <ele>130.14</ele>
        <time>2015-11-08T13:00:57Z</time>
      </trkpt>
      <trkpt lat="48.91803" lon="0.27056">
        <ele>130.45</ele>
        <time>2015-11-08T13:00:58Z</time>
      </trkpt>
      <trkpt lat="48.91798" lon="0.27056">
        <ele>131.18</ele>
        <time>2015-11-08T13:01:00Z</time>
      </trkpt>
      <trkpt lat="48.91796" lon="0.27058">
        <ele>131.93</ele>
        <time>2015-11-08T13:01:02Z</time>
      </trkpt>
      <trkpt lat="48.91792" lon="0.27061">
        <ele>132.76</ele>
        <time>2015-11-08T13:01:05Z</time>
      </trkpt>
      <trkpt lat="48.91789" lon="0.27062">
        <ele>133.27</ele>
        <time>2015-11-08T13:01:07Z</time>
      </trkpt>
      <trkpt lat="48.91786" lon="0.27062">
        <ele>133.71</ele>
        <time>2015-11-08T13:01:09Z</time>
      </trkpt>
      <trkpt lat="48.91782" lon="0.27064">
        <ele>134.43</ele>
        <time>2015-11-08T13:01:11Z</time>
      </trkpt>
      <trkpt lat="48.91778" lon="0.27067">
        <ele>135.25</ele>
        <time>2015-11-08T13:01:13Z</time>
      </trkpt>
      <trkpt lat="48.91773" lon="0.2707">
        <ele>135.44</ele>
        <time>2015-11-08T13:01:15Z</time>
      </trkpt>
      <trkpt lat="48.91768" lon="0.27072">
        <ele>135.39</ele>
        <time>2015-11-08T13:01:17Z</time>
      </trkpt>
      <trkpt lat="48.91765" lon="0.27073">
        <ele>135.34</ele>
        <time>2015-11-08T13:01:18Z</time>
      </trkpt>
      <trkpt lat="48.91762" lon="0.27074">
        <ele>135.28</ele>
        <time>2015-11-08T13:01:19Z</time>
      </trkpt>
      <trkpt lat="48.91759" lon="0.27075">
        <ele>135.2</ele>
        <time>2015-11-08T13:01:20Z</time>
      </trkpt>
      <trkpt lat="48.91757" lon="0.27076">
        <ele>135.1</ele>
        <time>2015-11-08T13:01:21Z</time>
      </trkpt>
      <trkpt lat="48.91754" lon="0.27077">
        <ele>135.01</ele>
        <time>2015-11-08T13:01:22Z</time>
      </trkpt>
      <trkpt lat="48.91751" lon="0.27079">
        <ele>134.93</ele>
        <time>2015-11-08T13:01:23Z</time>
      </trkpt>
      <trkpt lat="48.91749" lon="0.27081">
        <ele>134.88</ele>
        <time>2015-11-08T13:01:24Z</time>
      </trkpt>
      <trkpt lat="48.91747" lon="0.27083">
        <ele>134.87</ele>
        <time>2015-11-08T13:01:25Z</time>
      </trkpt>
      <trkpt lat="48.91742" lon="0.27087">
        <ele>135.02</ele>
        <time>2015-11-08T13:01:27Z</time>
      </trkpt>
      <trkpt lat="48.91739" lon="0.27088">
        <ele>135.06</ele>
        <time>2015-11-08T13:01:28Z</time>
      </trkpt>
      <trkpt lat="48.91737" lon="0.2709">
        <ele>135.11</ele>
        <time>2015-11-08T13:01:29Z</time>
      </trkpt>
      <trkpt lat="48.91732" lon="0.27093">
        <ele>135.3</ele>
        <time>2015-11-08T13:01:31Z</time>
      </trkpt>
      <trkpt lat="48.91729" lon="0.27097">
        <ele>135.64</ele>
        <time>2015-11-08T13:01:33Z</time>
      </trkpt>
      <trkpt lat="48.91725" lon="0.27102">
        <ele>136.07</ele>
        <time>2015-11-08T13:01:35Z</time>
      </trkpt>
      <trkpt lat="48.91723" lon="0.27108">
        <ele>136.63</ele>
        <time>2015-11-08T13:01:37Z</time>
      </trkpt>
      <trkpt lat="48.9172" lon="0.27113">
        <ele>136.02</ele>
        <time>2015-11-08T13:01:39Z</time>
      </trkpt>
      <trkpt lat="48.91718" lon="0.27117">
        <ele>134.54</ele>
        <time>2015-11-08T13:01:41Z</time>
      </trkpt>
      <trkpt lat="48.91716" lon="0.27122">
        <ele>133.2</ele>
        <time>2015-11-08T13:01:43Z</time>
      </trkpt>
      <trkpt lat="48.91714" lon="0.27127">
        <ele>132.1</ele>
        <time>2015-11-08T13:01:45Z</time>
      </trkpt>
      <trkpt lat="48.91711" lon="0.27132">
        <ele>131.25</ele>
        <time>2015-11-08T13:01:47Z</time>
      </trkpt>
      <trkpt lat="48.91708" lon="0.27136">
        <ele>130.67</ele>
        <time>2015-11-08T13:01:49Z</time>
      </trkpt>
      <trkpt lat="48.91706" lon="0.27141">
        <ele>130.58</ele>
        <time>2015-11-08T13:01:51Z</time>
      </trkpt>
      <trkpt lat="48.91703" lon="0.27146">
        <ele>131.01</ele>
        <time>2015-11-08T13:01:53Z</time>
      </trkpt>
      <trkpt lat="48.917" lon="0.27151">
        <ele>131.27</ele>
        <time>2015-11-08T13:01:55Z</time>
      </trkpt>
      <trkpt lat="48.91697" lon="0.27156">
        <ele>131.37</ele>
        <time>2015-11-08T13:01:57Z</time>
      </trkpt>
      <trkpt lat="48.91693" lon="0.27159">
        <ele>131.59</ele>
        <time>2015-11-08T13:01:59Z</time>
      </trkpt>
      <trkpt lat="48.9169" lon="0.27163">
        <ele>132.37</ele>
        <time>2015-11-08T13:02:01Z</time>
      </trkpt>
      <trkpt lat="48.91687" lon="0.27167">
        <ele>133.51</ele>
        <time>2015-11-08T13:02:03Z</time>
      </trkpt>
      <trkpt lat="48.91684" lon="0.27172">
        <ele>135.02</ele>
        <time>2015-11-08T13:02:05Z</time>
      </trkpt>
      <trkpt lat="48.91681" lon="0.27177">
        <ele>136.41</ele>
        <time>2015-11-08T13:02:07Z</time>
      </trkpt>
      <trkpt lat="48.91678" lon="0.27182">
        <ele>137.18</ele>
        <time>2015-11-08T13:02:09Z</time>
      </trkpt>
      <trkpt lat="48.91675" lon="0.27185">
        <ele>137.46</ele>
        <time>2015-11-08T13:02:11Z</time>
      </trkpt>
      <trkpt lat="48.91672" lon="0.27188">
        <ele>137.52</ele>
        <time>2015-11-08T13:02:13Z</time>
      </trkpt>
      <trkpt lat="48.91669" lon="0.27191">
        <ele>137.38</ele>
        <time>2015-11-08T13:02:15Z</time>
      </trkpt>
      <trkpt lat="48.91667" lon="0.27194">
        <ele>137.07</ele>
        <time>2015-11-08T13:02:17Z</time>
      </trkpt>
      <trkpt lat="48.91665" lon="0.27197">
        <ele>137.32</ele>
        <time>2015-11-08T13:02:19Z</time>
      </trkpt>
      <trkpt lat="48.91667" lon="0.27202">
        <ele>137.87</ele>
        <time>2015-11-08T13:02:22Z</time>
      </trkpt>
      <trkpt lat="48.91669" lon="0.27201">
        <ele>138.23</ele>
        <time>2015-11-08T13:03:38Z</time>
      </trkpt>
      <trkpt lat="48.91672" lon="0.27202">
        <ele>138.84</ele>
        <time>2015-11-08T13:03:41Z</time>
      </trkpt>
      <trkpt lat="48.91676" lon="0.27203">
        <ele>139.54</ele>
        <time>2015-11-08T13:03:44Z</time>
      </trkpt>
      <trkpt lat="48.9168" lon="0.27203">
        <ele>140.24</ele>
        <time>2015-11-08T13:03:47Z</time>
      </trkpt>
      <trkpt lat="48.91684" lon="0.27203">
        <ele>140.99</ele>
        <time>2015-11-08T13:03:49Z</time>
      </trkpt>
      <trkpt lat="48.91687" lon="0.27203">
        <ele>141.66</ele>
        <time>2015-11-08T13:03:51Z</time>
      </trkpt>
      <trkpt lat="48.91691" lon="0.27204">
        <ele>142.33</ele>
        <time>2015-11-08T13:03:53Z</time>
      </trkpt>
      <trkpt lat="48.91696" lon="0.27205">
        <ele>143.1</ele>
        <time>2015-11-08T13:03:55Z</time>
      </trkpt>
      <trkpt lat="48.91701" lon="0.27206">
        <ele>143.19</ele>
        <time>2015-11-08T13:03:57Z</time>
      </trkpt>
      <trkpt lat="48.91705" lon="0.27207">
        <ele>143.18</ele>
        <time>2015-11-08T13:03:59Z</time>
      </trkpt>
      <trkpt lat="48.9171" lon="0.27206">
        <ele>143.06</ele>
        <time>2015-11-08T13:04:01Z</time>
      </trkpt>
      <trkpt lat="48.91715" lon="0.27205">
        <ele>142.88</ele>
        <time>2015-11-08T13:04:03Z</time>
      </trkpt>
      <trkpt lat="48.9172" lon="0.27204">
        <ele>142.7</ele>
        <time>2015-11-08T13:04:05Z</time>
      </trkpt>
      <trkpt lat="48.91725" lon="0.27203">
        <ele>142.84</ele>
        <time>2015-11-08T13:04:07Z</time>
      </trkpt>
      <trkpt lat="48.91729" lon="0.27202">
        <ele>143.2</ele>
        <time>2015-11-08T13:04:09Z</time>
      </trkpt>
      <trkpt lat="48.91734" lon="0.272">
        <ele>143.38</ele>
        <time>2015-11-08T13:04:11Z</time>
      </trkpt>
      <trkpt lat="48.91738" lon="0.27198">
        <ele>143.54</ele>
        <time>2015-11-08T13:04:13Z</time>
      </trkpt>
      <trkpt lat="48.91743" lon="0.27197">
        <ele>143.82</ele>
        <time>2015-11-08T13:04:15Z</time>
      </trkpt>
      <trkpt lat="48.91748" lon="0.27196">
        <ele>144.11</ele>
        <time>2015-11-08T13:04:17Z</time>
      </trkpt>
      <trkpt lat="48.91752" lon="0.27196">
        <ele>143.85</ele>
        <time>2015-11-08T13:04:19Z</time>
      </trkpt>
      <trkpt lat="48.91756" lon="0.27195">
        <ele>142.78</ele>
        <time>2015-11-08T13:04:21Z</time>
      </trkpt>
      <trkpt lat="48.9176" lon="0.27195">
        <ele>141.8</ele>
        <time>2015-11-08T13:04:23Z</time>
      </trkpt>
      <trkpt lat="48.91764" lon="0.27194">
        <ele>140.75</ele>
        <time>2015-11-08T13:04:25Z</time>
      </trkpt>
      <trkpt lat="48.91769" lon="0.27193">
        <ele>139.67</ele>
        <time>2015-11-08T13:04:27Z</time>
      </trkpt>
      <trkpt lat="48.91773" lon="0.27194">
        <ele>138.87</ele>
        <time>2015-11-08T13:04:29Z</time>
      </trkpt>
      <trkpt lat="48.91778" lon="0.27197">
        <ele>138.71</ele>
        <time>2015-11-08T13:04:31Z</time>
      </trkpt>
      <trkpt lat="48.91783" lon="0.27199">
        <ele>140.47</ele>
        <time>2015-11-08T13:04:33Z</time>
      </trkpt>
      <trkpt lat="48.91787" lon="0.272">
        <ele>141.33</ele>
        <time>2015-11-08T13:04:35Z</time>
      </trkpt>
      <trkpt lat="48.91791" lon="0.27199">
        <ele>141.89</ele>
        <time>2015-11-08T13:04:37Z</time>
      </trkpt>
      <trkpt lat="48.91796" lon="0.272">
        <ele>143</ele>
        <time>2015-11-08T13:04:39Z</time>
      </trkpt>
      <trkpt lat="48.91801" lon="0.272">
        <ele>143.99</ele>
        <time>2015-11-08T13:04:41Z</time>
      </trkpt>
      <trkpt lat="48.91806" lon="0.272">
        <ele>144.97</ele>
        <time>2015-11-08T13:04:43Z</time>
      </trkpt>
      <trkpt lat="48.91811" lon="0.27201">
        <ele>146.43</ele>
        <time>2015-11-08T13:04:45Z</time>
      </trkpt>
      <trkpt lat="48.91815" lon="0.27202">
        <ele>147.82</ele>
        <time>2015-11-08T13:04:47Z</time>
      </trkpt>
      <trkpt lat="48.9182" lon="0.27203">
        <ele>149.28</ele>
        <time>2015-11-08T13:04:49Z</time>
      </trkpt>
      <trkpt lat="48.91825" lon="0.27203">
        <ele>150.61</ele>
        <time>2015-11-08T13:04:51Z</time>
      </trkpt>
      <trkpt lat="48.9183" lon="0.27206">
        <ele>152.48</ele>
        <time>2015-11-08T13:04:53Z</time>
      </trkpt>
      <trkpt lat="48.91835" lon="0.27208">
        <ele>153.92</ele>
        <time>2015-11-08T13:04:55Z</time>
      </trkpt>
      <trkpt lat="48.91839" lon="0.27207">
        <ele>154.21</ele>
        <time>2015-11-08T13:04:57Z</time>
      </trkpt>
      <trkpt lat="48.91843" lon="0.27206">
        <ele>154.16</ele>
        <time>2015-11-08T13:04:59Z</time>
      </trkpt>
      <trkpt lat="48.91847" lon="0.27206">
        <ele>154.56</ele>
        <time>2015-11-08T13:05:01Z</time>
      </trkpt>
      <trkpt lat="48.91851" lon="0.27207">
        <ele>155.15</ele>
        <time>2015-11-08T13:05:03Z</time>
      </trkpt>
      <trkpt lat="48.91855" lon="0.27208">
        <ele>155.88</ele>
        <time>2015-11-08T13:05:05Z</time>
      </trkpt>
      <trkpt lat="48.91858" lon="0.27209">
        <ele>156.47</ele>
        <time>2015-11-08T13:05:07Z</time>
      </trkpt>
      <trkpt lat="48.91862" lon="0.27209">
        <ele>156.51</ele>
        <time>2015-11-08T13:05:09Z</time>
      </trkpt>
      <trkpt lat="48.91866" lon="0.27209">
        <ele>156.15</ele>
        <time>2015-11-08T13:05:11Z</time>
      </trkpt>
      <trkpt lat="48.91871" lon="0.27209">
        <ele>155.76</ele>
        <time>2015-11-08T13:05:13Z</time>
      </trkpt>
      <trkpt lat="48.91875" lon="0.27207">
        <ele>155.1</ele>
        <time>2015-11-08T13:05:15Z</time>
      </trkpt>
      <trkpt lat="48.9188" lon="0.27205">
        <ele>154.7</ele>
        <time>2015-11-08T13:05:17Z</time>
      </trkpt>
      <trkpt lat="48.91884" lon="0.27204">
        <ele>154.49</ele>
        <time>2015-11-08T13:05:19Z</time>
      </trkpt>
      <trkpt lat="48.91889" lon="0.27205">
        <ele>154.28</ele>
        <time>2015-11-08T13:05:21Z</time>
      </trkpt>
      <trkpt lat="48.91894" lon="0.27205">
        <ele>153.42</ele>
        <time>2015-11-08T13:05:23Z</time>
      </trkpt>
      <trkpt lat="48.91898" lon="0.27205">
        <ele>152.67</ele>
        <time>2015-11-08T13:05:25Z</time>
      </trkpt>
      <trkpt lat="48.91902" lon="0.27205">
        <ele>151.92</ele>
        <time>2015-11-08T13:05:27Z</time>
      </trkpt>
      <trkpt lat="48.91907" lon="0.27205">
        <ele>151.14</ele>
        <time>2015-11-08T13:05:29Z</time>
      </trkpt>
      <trkpt lat="48.9191" lon="0.27206">
        <ele>150.68</ele>
        <time>2015-11-08T13:05:30Z</time>
      </trkpt>
      <trkpt lat="48.91913" lon="0.27206">
        <ele>150.26</ele>
        <time>2015-11-08T13:05:31Z</time>
      </trkpt>
      <trkpt lat="48.91918" lon="0.27206">
        <ele>149.53</ele>
        <time>2015-11-08T13:05:33Z</time>
      </trkpt>
      <trkpt lat="48.91921" lon="0.27207">
        <ele>149.02</ele>
        <time>2015-11-08T13:05:35Z</time>
      </trkpt>
      <trkpt lat="48.91925" lon="0.27207">
        <ele>148.29</ele>
        <time>2015-11-08T13:05:37Z</time>
      </trkpt>
      <trkpt lat="48.91929" lon="0.27207">
        <ele>147.6</ele>
        <time>2015-11-08T13:05:39Z</time>
      </trkpt>
      <trkpt lat="48.91933" lon="0.27208">
        <ele>147.18</ele>
        <time>2015-11-08T13:05:41Z</time>
      </trkpt>
      <trkpt lat="48.91937" lon="0.27209">
        <ele>146.83</ele>
        <time>2015-11-08T13:05:43Z</time>
      </trkpt>
      <trkpt lat="48.91941" lon="0.27209">
        <ele>146.2</ele>
        <time>2015-11-08T13:05:45Z</time>
      </trkpt>
      <trkpt lat="48.91946" lon="0.27209">
        <ele>145.81</ele>
        <time>2015-11-08T13:05:47Z</time>
      </trkpt>
      <trkpt lat="48.91951" lon="0.27209">
        <ele>145.99</ele>
        <time>2015-11-08T13:05:49Z</time>
      </trkpt>
      <trkpt lat="48.91954" lon="0.27209">
        <ele>146.22</ele>
        <time>2015-11-08T13:05:51Z</time>
      </trkpt>
      <trkpt lat="48.91958" lon="0.27208">
        <ele>146.27</ele>
        <time>2015-11-08T13:05:53Z</time>
      </trkpt>
      <trkpt lat="48.91961" lon="0.27208">
        <ele>146.33</ele>
        <time>2015-11-08T13:05:55Z</time>
      </trkpt>
      <trkpt lat="48.91965" lon="0.27207">
        <ele>146.24</ele>
        <time>2015-11-08T13:05:57Z</time>
      </trkpt>
      <trkpt lat="48.91968" lon="0.27207">
        <ele>146.38</ele>
        <time>2015-11-08T13:05:59Z</time>
      </trkpt>
      <trkpt lat="48.91971" lon="0.27208">
        <ele>146.94</ele>
        <time>2015-11-08T13:06:01Z</time>
      </trkpt>
      <trkpt lat="48.91975" lon="0.27211">
        <ele>148.14</ele>
        <time>2015-11-08T13:06:03Z</time>
      </trkpt>
      <trkpt lat="48.91979" lon="0.27214">
        <ele>149.44</ele>
        <time>2015-11-08T13:06:05Z</time>
      </trkpt>
      <trkpt lat="48.91984" lon="0.27216">
        <ele>150.39</ele>
        <time>2015-11-08T13:06:07Z</time>
      </trkpt>
      <trkpt lat="48.91988" lon="0.27216">
        <ele>150.91</ele>
        <time>2015-11-08T13:06:09Z</time>
      </trkpt>
      <trkpt lat="48.91993" lon="0.27214">
        <ele>150.76</ele>
        <time>2015-11-08T13:06:11Z</time>
      </trkpt>
      <trkpt lat="48.91998" lon="0.27212">
        <ele>150.53</ele>
        <time>2015-11-08T13:06:13Z</time>
      </trkpt>
      <trkpt lat="48.92002" lon="0.27209">
        <ele>149.94</ele>
        <time>2015-11-08T13:06:15Z</time>
      </trkpt>
      <trkpt lat="48.92007" lon="0.27209">
        <ele>150.98</ele>
        <time>2015-11-08T13:06:17Z</time>
      </trkpt>
      <trkpt lat="48.9201" lon="0.27209">
        <ele>151.75</ele>
        <time>2015-11-08T13:06:18Z</time>
      </trkpt>
      <trkpt lat="48.92013" lon="0.27209">
        <ele>152.55</ele>
        <time>2015-11-08T13:06:19Z</time>
      </trkpt>
      <trkpt lat="48.92016" lon="0.27208">
        <ele>153.25</ele>
        <time>2015-11-08T13:06:20Z</time>
      </trkpt>
      <trkpt lat="48.92018" lon="0.27208">
        <ele>153.88</ele>
        <time>2015-11-08T13:06:21Z</time>
      </trkpt>
      <trkpt lat="48.92021" lon="0.27207">
        <ele>154.49</ele>
        <time>2015-11-08T13:06:22Z</time>
      </trkpt>
      <trkpt lat="48.92024" lon="0.27205">
        <ele>155.16</ele>
        <time>2015-11-08T13:06:23Z</time>
      </trkpt>
      <trkpt lat="48.92027" lon="0.27204">
        <ele>155.94</ele>
        <time>2015-11-08T13:06:24Z</time>
      </trkpt>
      <trkpt lat="48.92029" lon="0.27204">
        <ele>156.33</ele>
        <time>2015-11-08T13:06:25Z</time>
      </trkpt>
      <trkpt lat="48.92032" lon="0.27203">
        <ele>156.32</ele>
        <time>2015-11-08T13:06:26Z</time>
      </trkpt>
      <trkpt lat="48.92036" lon="0.27203">
        <ele>156.31</ele>
        <time>2015-11-08T13:06:27Z</time>
      </trkpt>
      <trkpt lat="48.92039" lon="0.27203">
        <ele>156.31</ele>
        <time>2015-11-08T13:06:28Z</time>
      </trkpt>
      <trkpt lat="48.92043" lon="0.27203">
        <ele>156.29</ele>
        <time>2015-11-08T13:06:29Z</time>
      </trkpt>
      <trkpt lat="48.92047" lon="0.27204">
        <ele>156.32</ele>
        <time>2015-11-08T13:06:30Z</time>
      </trkpt>
      <trkpt lat="48.92051" lon="0.27204">
        <ele>156.35</ele>
        <time>2015-11-08T13:06:31Z</time>
      </trkpt>
      <trkpt lat="48.92055" lon="0.27205">
        <ele>156.46</ele>
        <time>2015-11-08T13:06:32Z</time>
      </trkpt>
      <trkpt lat="48.92058" lon="0.27205">
        <ele>156.25</ele>
        <time>2015-11-08T13:06:33Z</time>
      </trkpt>
      <trkpt lat="48.92062" lon="0.27206">
        <ele>155.92</ele>
        <time>2015-11-08T13:06:34Z</time>
      </trkpt>
      <trkpt lat="48.92065" lon="0.27206">
        <ele>155.49</ele>
        <time>2015-11-08T13:06:35Z</time>
      </trkpt>
      <trkpt lat="48.92068" lon="0.27205">
        <ele>155.03</ele>
        <time>2015-11-08T13:06:36Z</time>
      </trkpt>
      <trkpt lat="48.92071" lon="0.27205">
        <ele>154.59</ele>
        <time>2015-11-08T13:06:37Z</time>
      </trkpt>
      <trkpt lat="48.92074" lon="0.27202">
        <ele>153.97</ele>
        <time>2015-11-08T13:06:38Z</time>
      </trkpt>
      <trkpt lat="48.92077" lon="0.27201">
        <ele>153.47</ele>
        <time>2015-11-08T13:06:39Z</time>
      </trkpt>
      <trkpt lat="48.9208" lon="0.27201">
        <ele>153.04</ele>
        <time>2015-11-08T13:06:40Z</time>
      </trkpt>
      <trkpt lat="48.92083" lon="0.27201">
        <ele>152.65</ele>
        <time>2015-11-08T13:06:41Z</time>
      </trkpt>
      <trkpt lat="48.92087" lon="0.27201">
        <ele>152.2</ele>
        <time>2015-11-08T13:06:42Z</time>
      </trkpt>
      <trkpt lat="48.9209" lon="0.27201">
        <ele>151.8</ele>
        <time>2015-11-08T13:06:43Z</time>
      </trkpt>
      <trkpt lat="48.92093" lon="0.27201">
        <ele>151.41</ele>
        <time>2015-11-08T13:06:44Z</time>
      </trkpt>
      <trkpt lat="48.92098" lon="0.27201">
        <ele>150.67</ele>
        <time>2015-11-08T13:06:46Z</time>
      </trkpt>
      <trkpt lat="48.92101" lon="0.27199">
        <ele>150.13</ele>
        <time>2015-11-08T13:06:47Z</time>
      </trkpt>
      <trkpt lat="48.92104" lon="0.27198">
        <ele>149.6</ele>
        <time>2015-11-08T13:06:48Z</time>
      </trkpt>
      <trkpt lat="48.92106" lon="0.27197">
        <ele>149.09</ele>
        <time>2015-11-08T13:06:49Z</time>
      </trkpt>
      <trkpt lat="48.92109" lon="0.27196">
        <ele>148.53</ele>
        <time>2015-11-08T13:06:50Z</time>
      </trkpt>
      <trkpt lat="48.92112" lon="0.27195">
        <ele>148.04</ele>
        <time>2015-11-08T13:06:51Z</time>
      </trkpt>
      <trkpt lat="48.92115" lon="0.27194">
        <ele>147.79</ele>
        <time>2015-11-08T13:06:52Z</time>
      </trkpt>
      <trkpt lat="48.92118" lon="0.2719">
        <ele>147.48</ele>
        <time>2015-11-08T13:06:53Z</time>
      </trkpt>
      <trkpt lat="48.92121" lon="0.27188">
        <ele>147.29</ele>
        <time>2015-11-08T13:06:54Z</time>
      </trkpt>
      <trkpt lat="48.92123" lon="0.27186">
        <ele>147.1</ele>
        <time>2015-11-08T13:06:55Z</time>
      </trkpt>
      <trkpt lat="48.92126" lon="0.27184">
        <ele>146.92</ele>
        <time>2015-11-08T13:06:56Z</time>
      </trkpt>
      <trkpt lat="48.92129" lon="0.27182">
        <ele>146.73</ele>
        <time>2015-11-08T13:06:57Z</time>
      </trkpt>
      <trkpt lat="48.92132" lon="0.27179">
        <ele>146.58</ele>
        <time>2015-11-08T13:06:58Z</time>
      </trkpt>
      <trkpt lat="48.92135" lon="0.27177">
        <ele>146.44</ele>
        <time>2015-11-08T13:06:59Z</time>
      </trkpt>
      <trkpt lat="48.92138" lon="0.27176">
        <ele>146.33</ele>
        <time>2015-11-08T13:07:00Z</time>
      </trkpt>
      <trkpt lat="48.92141" lon="0.27174">
        <ele>146.39</ele>
        <time>2015-11-08T13:07:01Z</time>
      </trkpt>
      <trkpt lat="48.92144" lon="0.27172">
        <ele>146.52</ele>
        <time>2015-11-08T13:07:02Z</time>
      </trkpt>
      <trkpt lat="48.92147" lon="0.2717">
        <ele>146.67</ele>
        <time>2015-11-08T13:07:03Z</time>
      </trkpt>
      <trkpt lat="48.92149" lon="0.27169">
        <ele>146.82</ele>
        <time>2015-11-08T13:07:04Z</time>
      </trkpt>
      <trkpt lat="48.92152" lon="0.27167">
        <ele>146.97</ele>
        <time>2015-11-08T13:07:05Z</time>
      </trkpt>
      <trkpt lat="48.92155" lon="0.27166">
        <ele>147.1</ele>
        <time>2015-11-08T13:07:06Z</time>
      </trkpt>
      <trkpt lat="48.92159" lon="0.27163">
        <ele>147.2</ele>
        <time>2015-11-08T13:07:08Z</time>
      </trkpt>
      <trkpt lat="48.92164" lon="0.2716">
        <ele>147.19</ele>
        <time>2015-11-08T13:07:10Z</time>
      </trkpt>
      <trkpt lat="48.9217" lon="0.27159">
        <ele>147.3</ele>
        <time>2015-11-08T13:07:12Z</time>
      </trkpt>
      <trkpt lat="48.92173" lon="0.27158">
        <ele>147.37</ele>
        <time>2015-11-08T13:07:13Z</time>
      </trkpt>
      <trkpt lat="48.92176" lon="0.27157">
        <ele>147.38</ele>
        <time>2015-11-08T13:07:14Z</time>
      </trkpt>
      <trkpt lat="48.92179" lon="0.27156">
        <ele>147.39</ele>
        <time>2015-11-08T13:07:15Z</time>
      </trkpt>
      <trkpt lat="48.92181" lon="0.27153">
        <ele>147.05</ele>
        <time>2015-11-08T13:07:17Z</time>
      </trkpt>
      <trkpt lat="48.92178" lon="0.27149">
        <ele>146.41</ele>
        <time>2015-11-08T13:07:25Z</time>
      </trkpt>
      <trkpt lat="48.92181" lon="0.27146">
        <ele>146.03</ele>
        <time>2015-11-08T13:09:16Z</time>
      </trkpt>
      <trkpt lat="48.92186" lon="0.27142">
        <ele>145.54</ele>
        <time>2015-11-08T13:09:18Z</time>
      </trkpt>
      <trkpt lat="48.92189" lon="0.2714">
        <ele>145.2</ele>
        <time>2015-11-08T13:09:19Z</time>
      </trkpt>
      <trkpt lat="48.92192" lon="0.27138">
        <ele>144.78</ele>
        <time>2015-11-08T13:09:20Z</time>
      </trkpt>
      <trkpt lat="48.92196" lon="0.27135">
        <ele>144.3</ele>
        <time>2015-11-08T13:09:21Z</time>
      </trkpt>
      <trkpt lat="48.92201" lon="0.27133">
        <ele>143.9</ele>
        <time>2015-11-08T13:09:22Z</time>
      </trkpt>
      <trkpt lat="48.92206" lon="0.27131">
        <ele>143.49</ele>
        <time>2015-11-08T13:09:23Z</time>
      </trkpt>
      <trkpt lat="48.92215" lon="0.27123">
        <ele>142.69</ele>
        <time>2015-11-08T13:09:24Z</time>
      </trkpt>
      <trkpt lat="48.92219" lon="0.2712">
        <ele>142.5</ele>
        <time>2015-11-08T13:09:25Z</time>
      </trkpt>
      <trkpt lat="48.92225" lon="0.27117">
        <ele>142.65</ele>
        <time>2015-11-08T13:09:26Z</time>
      </trkpt>
      <trkpt lat="48.9223" lon="0.27117">
        <ele>142.98</ele>
        <time>2015-11-08T13:09:27Z</time>
      </trkpt>
      <trkpt lat="48.92235" lon="0.27113">
        <ele>143.08</ele>
        <time>2015-11-08T13:09:28Z</time>
      </trkpt>
      <trkpt lat="48.92241" lon="0.27112">
        <ele>143.43</ele>
        <time>2015-11-08T13:09:29Z</time>
      </trkpt>
      <trkpt lat="48.92245" lon="0.27108">
        <ele>143.02</ele>
        <time>2015-11-08T13:09:30Z</time>
      </trkpt>
      <trkpt lat="48.9225" lon="0.27106">
        <ele>142.72</ele>
        <time>2015-11-08T13:09:31Z</time>
      </trkpt>
      <trkpt lat="48.92255" lon="0.27104">
        <ele>142.93</ele>
        <time>2015-11-08T13:09:32Z</time>
      </trkpt>
      <trkpt lat="48.92262" lon="0.27098">
        <ele>142.45</ele>
        <time>2015-11-08T13:09:33Z</time>
      </trkpt>
      <trkpt lat="48.92267" lon="0.27095">
        <ele>142.95</ele>
        <time>2015-11-08T13:09:34Z</time>
      </trkpt>
      <trkpt lat="48.92273" lon="0.27094">
        <ele>143.77</ele>
        <time>2015-11-08T13:09:35Z</time>
      </trkpt>
      <trkpt lat="48.92278" lon="0.27093">
        <ele>144.69</ele>
        <time>2015-11-08T13:09:36Z</time>
      </trkpt>
      <trkpt lat="48.92284" lon="0.27093">
        <ele>144.49</ele>
        <time>2015-11-08T13:09:37Z</time>
      </trkpt>
      <trkpt lat="48.92289" lon="0.27094">
        <ele>144.36</ele>
        <time>2015-11-08T13:09:38Z</time>
      </trkpt>
      <trkpt lat="48.92294" lon="0.27092">
        <ele>143.99</ele>
        <time>2015-11-08T13:09:39Z</time>
      </trkpt>
      <trkpt lat="48.923" lon="0.27092">
        <ele>143.81</ele>
        <time>2015-11-08T13:09:40Z</time>
      </trkpt>
      <trkpt lat="48.92304" lon="0.27092">
        <ele>143.69</ele>
        <time>2015-11-08T13:09:41Z</time>
      </trkpt>
      <trkpt lat="48.92309" lon="0.27092">
        <ele>142.57</ele>
        <time>2015-11-08T13:09:42Z</time>
      </trkpt>
      <trkpt lat="48.92313" lon="0.27091">
        <ele>141.01</ele>
        <time>2015-11-08T13:09:43Z</time>
      </trkpt>
      <trkpt lat="48.92318" lon="0.2709">
        <ele>139.28</ele>
        <time>2015-11-08T13:09:44Z</time>
      </trkpt>
      <trkpt lat="48.92323" lon="0.27092">
        <ele>137.52</ele>
        <time>2015-11-08T13:09:45Z</time>
      </trkpt>
      <trkpt lat="48.92327" lon="0.27092">
        <ele>136.04</ele>
        <time>2015-11-08T13:09:46Z</time>
      </trkpt>
      <trkpt lat="48.92332" lon="0.27091">
        <ele>134.37</ele>
        <time>2015-11-08T13:09:47Z</time>
      </trkpt>
      <trkpt lat="48.92336" lon="0.2709">
        <ele>132.98</ele>
        <time>2015-11-08T13:09:48Z</time>
      </trkpt>
      <trkpt lat="48.92339" lon="0.2709">
        <ele>132</ele>
        <time>2015-11-08T13:09:49Z</time>
      </trkpt>
      <trkpt lat="48.92342" lon="0.27088">
        <ele>131.07</ele>
        <time>2015-11-08T13:09:50Z</time>
      </trkpt>
      <trkpt lat="48.92345" lon="0.27086">
        <ele>129.86</ele>
        <time>2015-11-08T13:09:51Z</time>
      </trkpt>
      <trkpt lat="48.92351" lon="0.27091">
        <ele>128.7</ele>
        <time>2015-11-08T13:09:53Z</time>
      </trkpt>
      <trkpt lat="48.92356" lon="0.27089">
        <ele>127.11</ele>
        <time>2015-11-08T13:09:55Z</time>
      </trkpt>
      <trkpt lat="48.9236" lon="0.2709">
        <ele>125.95</ele>
        <time>2015-11-08T13:09:57Z</time>
      </trkpt>
      <trkpt lat="48.92366" lon="0.2709">
        <ele>126.31</ele>
        <time>2015-11-08T13:09:59Z</time>
      </trkpt>
      <trkpt lat="48.92371" lon="0.2709">
        <ele>127.02</ele>
        <time>2015-11-08T13:10:01Z</time>
      </trkpt>
      <trkpt lat="48.92376" lon="0.27092">
        <ele>128</ele>
        <time>2015-11-08T13:10:03Z</time>
      </trkpt>
      <trkpt lat="48.92379" lon="0.27095">
        <ele>129.14</ele>
        <time>2015-11-08T13:10:05Z</time>
      </trkpt>
      <trkpt lat="48.92382" lon="0.271">
        <ele>130.36</ele>
        <time>2015-11-08T13:10:07Z</time>
      </trkpt>
      <trkpt lat="48.92383" lon="0.27105">
        <ele>131.53</ele>
        <time>2015-11-08T13:10:09Z</time>
      </trkpt>
      <trkpt lat="48.92385" lon="0.27109">
        <ele>132.64</ele>
        <time>2015-11-08T13:10:11Z</time>
      </trkpt>
      <trkpt lat="48.92386" lon="0.27113">
        <ele>133.75</ele>
        <time>2015-11-08T13:10:13Z</time>
      </trkpt>
      <trkpt lat="48.92388" lon="0.27117">
        <ele>134.97</ele>
        <time>2015-11-08T13:10:15Z</time>
      </trkpt>
      <trkpt lat="48.92389" lon="0.27121">
        <ele>136.23</ele>
        <time>2015-11-08T13:10:17Z</time>
      </trkpt>
      <trkpt lat="48.92391" lon="0.27125">
        <ele>137.43</ele>
        <time>2015-11-08T13:10:19Z</time>
      </trkpt>
      <trkpt lat="48.92393" lon="0.27128">
        <ele>138.36</ele>
        <time>2015-11-08T13:10:21Z</time>
      </trkpt>
      <trkpt lat="48.92396" lon="0.27131">
        <ele>139.19</ele>
        <time>2015-11-08T13:10:23Z</time>
      </trkpt>
      <trkpt lat="48.92399" lon="0.2713">
        <ele>139.52</ele>
        <time>2015-11-08T13:10:25Z</time>
      </trkpt>
      <trkpt lat="48.92402" lon="0.27129">
        <ele>139.64</ele>
        <time>2015-11-08T13:10:27Z</time>
      </trkpt>
      <trkpt lat="48.92405" lon="0.27128">
        <ele>139.92</ele>
        <time>2015-11-08T13:10:29Z</time>
      </trkpt>
      <trkpt lat="48.92409" lon="0.27128">
        <ele>140.47</ele>
        <time>2015-11-08T13:10:31Z</time>
      </trkpt>
      <trkpt lat="48.92414" lon="0.2713">
        <ele>141.31</ele>
        <time>2015-11-08T13:10:33Z</time>
      </trkpt>
      <trkpt lat="48.92419" lon="0.27131">
        <ele>141.65</ele>
        <time>2015-11-08T13:10:35Z</time>
      </trkpt>
      <trkpt lat="48.92423" lon="0.2713">
        <ele>141.18</ele>
        <time>2015-11-08T13:10:37Z</time>
      </trkpt>
      <trkpt lat="48.92428" lon="0.2713">
        <ele>140.77</ele>
        <time>2015-11-08T13:10:39Z</time>
      </trkpt>
      <trkpt lat="48.92433" lon="0.27129">
        <ele>140.23</ele>
        <time>2015-11-08T13:10:41Z</time>
      </trkpt>
      <trkpt lat="48.92436" lon="0.27129">
        <ele>139.98</ele>
        <time>2015-11-08T13:10:42Z</time>
      </trkpt>
      <trkpt lat="48.92439" lon="0.2713">
        <ele>139.76</ele>
        <time>2015-11-08T13:10:43Z</time>
      </trkpt>
      <trkpt lat="48.92443" lon="0.2713">
        <ele>139.57</ele>
        <time>2015-11-08T13:10:44Z</time>
      </trkpt>
      <trkpt lat="48.92446" lon="0.2713">
        <ele>139.22</ele>
        <time>2015-11-08T13:10:45Z</time>
      </trkpt>
      <trkpt lat="48.92449" lon="0.2713">
        <ele>138.64</ele>
        <time>2015-11-08T13:10:46Z</time>
      </trkpt>
      <trkpt lat="48.92452" lon="0.27129">
        <ele>137.96</ele>
        <time>2015-11-08T13:10:47Z</time>
      </trkpt>
      <trkpt lat="48.92455" lon="0.27128">
        <ele>137.32</ele>
        <time>2015-11-08T13:10:48Z</time>
      </trkpt>
      <trkpt lat="48.92459" lon="0.27128">
        <ele>136.84</ele>
        <time>2015-11-08T13:10:49Z</time>
      </trkpt>
      <trkpt lat="48.92462" lon="0.27129">
        <ele>136.46</ele>
        <time>2015-11-08T13:10:50Z</time>
      </trkpt>
      <trkpt lat="48.92466" lon="0.27131">
        <ele>136.2</ele>
        <time>2015-11-08T13:10:51Z</time>
      </trkpt>
      <trkpt lat="48.92469" lon="0.27132">
        <ele>135.95</ele>
        <time>2015-11-08T13:10:52Z</time>
      </trkpt>
      <trkpt lat="48.92472" lon="0.27133">
        <ele>135.67</ele>
        <time>2015-11-08T13:10:53Z</time>
      </trkpt>
      <trkpt lat="48.92475" lon="0.27133">
        <ele>135.35</ele>
        <time>2015-11-08T13:10:54Z</time>
      </trkpt>
      <trkpt lat="48.92479" lon="0.27133">
        <ele>134.99</ele>
        <time>2015-11-08T13:10:55Z</time>
      </trkpt>
      <trkpt lat="48.92482" lon="0.27134">
        <ele>134.7</ele>
        <time>2015-11-08T13:10:56Z</time>
      </trkpt>
      <trkpt lat="48.92485" lon="0.27135">
        <ele>134.5</ele>
        <time>2015-11-08T13:10:57Z</time>
      </trkpt>
      <trkpt lat="48.92489" lon="0.27136">
        <ele>134.33</ele>
        <time>2015-11-08T13:10:58Z</time>
      </trkpt>
      <trkpt lat="48.92492" lon="0.27136">
        <ele>133.99</ele>
        <time>2015-11-08T13:10:59Z</time>
      </trkpt>
      <trkpt lat="48.92495" lon="0.27136">
        <ele>133.56</ele>
        <time>2015-11-08T13:11:00Z</time>
      </trkpt>
      <trkpt lat="48.92498" lon="0.27135">
        <ele>132.97</ele>
        <time>2015-11-08T13:11:01Z</time>
      </trkpt>
      <trkpt lat="48.92501" lon="0.27135">
        <ele>132.5</ele>
        <time>2015-11-08T13:11:02Z</time>
      </trkpt>
      <trkpt lat="48.92504" lon="0.27134">
        <ele>132.15</ele>
        <time>2015-11-08T13:11:03Z</time>
      </trkpt>
      <trkpt lat="48.92508" lon="0.27133">
        <ele>131.6</ele>
        <time>2015-11-08T13:11:04Z</time>
      </trkpt>
      <trkpt lat="48.92511" lon="0.27132">
        <ele>131.11</ele>
        <time>2015-11-08T13:11:05Z</time>
      </trkpt>
      <trkpt lat="48.92514" lon="0.27131">
        <ele>130.59</ele>
        <time>2015-11-08T13:11:06Z</time>
      </trkpt>
      <trkpt lat="48.92517" lon="0.27129">
        <ele>130.03</ele>
        <time>2015-11-08T13:11:07Z</time>
      </trkpt>
      <trkpt lat="48.9252" lon="0.27129">
        <ele>129.83</ele>
        <time>2015-11-08T13:11:08Z</time>
      </trkpt>
      <trkpt lat="48.92524" lon="0.27126">
        <ele>129.23</ele>
        <time>2015-11-08T13:11:09Z</time>
      </trkpt>
      <trkpt lat="48.92527" lon="0.27125">
        <ele>128.95</ele>
        <time>2015-11-08T13:11:10Z</time>
      </trkpt>
      <trkpt lat="48.9253" lon="0.27123">
        <ele>128.84</ele>
        <time>2015-11-08T13:11:11Z</time>
      </trkpt>
      <trkpt lat="48.92534" lon="0.27122">
        <ele>128.72</ele>
        <time>2015-11-08T13:11:12Z</time>
      </trkpt>
      <trkpt lat="48.92537" lon="0.27121">
        <ele>128.67</ele>
        <time>2015-11-08T13:11:13Z</time>
      </trkpt>
      <trkpt lat="48.92541" lon="0.2712">
        <ele>128.65</ele>
        <time>2015-11-08T13:11:14Z</time>
      </trkpt>
      <trkpt lat="48.92544" lon="0.2712">
        <ele>128.69</ele>
        <time>2015-11-08T13:11:15Z</time>
      </trkpt>
      <trkpt lat="48.92548" lon="0.2712">
        <ele>128.7</ele>
        <time>2015-11-08T13:11:16Z</time>
      </trkpt>
      <trkpt lat="48.92551" lon="0.27119">
        <ele>128.58</ele>
        <time>2015-11-08T13:11:17Z</time>
      </trkpt>
      <trkpt lat="48.92555" lon="0.27118">
        <ele>128.44</ele>
        <time>2015-11-08T13:11:18Z</time>
      </trkpt>
      <trkpt lat="48.92558" lon="0.27117">
        <ele>128.8</ele>
        <time>2015-11-08T13:11:19Z</time>
      </trkpt>
      <trkpt lat="48.92562" lon="0.27117">
        <ele>129.33</ele>
        <time>2015-11-08T13:11:20Z</time>
      </trkpt>
      <trkpt lat="48.92566" lon="0.27117">
        <ele>130.04</ele>
        <time>2015-11-08T13:11:21Z</time>
      </trkpt>
      <trkpt lat="48.92569" lon="0.27118">
        <ele>130.81</ele>
        <time>2015-11-08T13:11:22Z</time>
      </trkpt>
      <trkpt lat="48.92573" lon="0.27118">
        <ele>131.56</ele>
        <time>2015-11-08T13:11:23Z</time>
      </trkpt>
      <trkpt lat="48.92577" lon="0.27117">
        <ele>132.01</ele>
        <time>2015-11-08T13:11:24Z</time>
      </trkpt>
      <trkpt lat="48.9258" lon="0.27116">
        <ele>132.27</ele>
        <time>2015-11-08T13:11:25Z</time>
      </trkpt>
      <trkpt lat="48.92583" lon="0.27115">
        <ele>132.59</ele>
        <time>2015-11-08T13:11:26Z</time>
      </trkpt>
      <trkpt lat="48.92586" lon="0.27114">
        <ele>132.94</ele>
        <time>2015-11-08T13:11:27Z</time>
      </trkpt>
      <trkpt lat="48.9259" lon="0.27114">
        <ele>133.4</ele>
        <time>2015-11-08T13:11:28Z</time>
      </trkpt>
      <trkpt lat="48.92594" lon="0.27114">
        <ele>133.97</ele>
        <time>2015-11-08T13:11:29Z</time>
      </trkpt>
      <trkpt lat="48.92597" lon="0.27114">
        <ele>134.58</ele>
        <time>2015-11-08T13:11:30Z</time>
      </trkpt>
      <trkpt lat="48.92601" lon="0.27115">
        <ele>135.26</ele>
        <time>2015-11-08T13:11:31Z</time>
      </trkpt>
      <trkpt lat="48.92604" lon="0.27116">
        <ele>135.99</ele>
        <time>2015-11-08T13:11:32Z</time>
      </trkpt>
      <trkpt lat="48.92607" lon="0.27117">
        <ele>136.73</ele>
        <time>2015-11-08T13:11:33Z</time>
      </trkpt>
      <trkpt lat="48.92611" lon="0.27119">
        <ele>137.61</ele>
        <time>2015-11-08T13:11:34Z</time>
      </trkpt>
      <trkpt lat="48.92614" lon="0.2712">
        <ele>138.14</ele>
        <time>2015-11-08T13:11:35Z</time>
      </trkpt>
      <trkpt lat="48.92617" lon="0.27122">
        <ele>138.57</ele>
        <time>2015-11-08T13:11:36Z</time>
      </trkpt>
      <trkpt lat="48.92621" lon="0.27123">
        <ele>138.91</ele>
        <time>2015-11-08T13:11:37Z</time>
      </trkpt>
      <trkpt lat="48.92624" lon="0.27124">
        <ele>139.25</ele>
        <time>2015-11-08T13:11:38Z</time>
      </trkpt>
      <trkpt lat="48.92628" lon="0.27125">
        <ele>139.58</ele>
        <time>2015-11-08T13:11:39Z</time>
      </trkpt>
      <trkpt lat="48.92631" lon="0.27126">
        <ele>139.88</ele>
        <time>2015-11-08T13:11:40Z</time>
      </trkpt>
      <trkpt lat="48.92634" lon="0.27127">
        <ele>140.14</ele>
        <time>2015-11-08T13:11:41Z</time>
      </trkpt>
      <trkpt lat="48.92638" lon="0.27128">
        <ele>140.41</ele>
        <time>2015-11-08T13:11:42Z</time>
      </trkpt>
      <trkpt lat="48.92641" lon="0.27129">
        <ele>140.17</ele>
        <time>2015-11-08T13:11:43Z</time>
      </trkpt>
      <trkpt lat="48.92645" lon="0.2713">
        <ele>139.63</ele>
        <time>2015-11-08T13:11:44Z</time>
      </trkpt>
      <trkpt lat="48.92648" lon="0.27131">
        <ele>139.1</ele>
        <time>2015-11-08T13:11:45Z</time>
      </trkpt>
      <trkpt lat="48.92651" lon="0.27132">
        <ele>138.56</ele>
        <time>2015-11-08T13:11:46Z</time>
      </trkpt>
      <trkpt lat="48.92654" lon="0.27133">
        <ele>138.02</ele>
        <time>2015-11-08T13:11:47Z</time>
      </trkpt>
      <trkpt lat="48.92657" lon="0.27133">
        <ele>137.45</ele>
        <time>2015-11-08T13:11:48Z</time>
      </trkpt>
      <trkpt lat="48.92661" lon="0.27134">
        <ele>136.91</ele>
        <time>2015-11-08T13:11:49Z</time>
      </trkpt>
      <trkpt lat="48.92663" lon="0.27135">
        <ele>136.44</ele>
        <time>2015-11-08T13:11:50Z</time>
      </trkpt>
      <trkpt lat="48.92666" lon="0.27137">
        <ele>135.94</ele>
        <time>2015-11-08T13:11:51Z</time>
      </trkpt>
      <trkpt lat="48.92669" lon="0.27137">
        <ele>135.96</ele>
        <time>2015-11-08T13:11:52Z</time>
      </trkpt>
      <trkpt lat="48.92672" lon="0.27138">
        <ele>136.12</ele>
        <time>2015-11-08T13:11:53Z</time>
      </trkpt>
      <trkpt lat="48.92675" lon="0.27139">
        <ele>136.28</ele>
        <time>2015-11-08T13:11:54Z</time>
      </trkpt>
      <trkpt lat="48.92678" lon="0.27141">
        <ele>136.34</ele>
        <time>2015-11-08T13:11:55Z</time>
      </trkpt>
      <trkpt lat="48.92681" lon="0.27143">
        <ele>136.37</ele>
        <time>2015-11-08T13:11:56Z</time>
      </trkpt>
      <trkpt lat="48.92684" lon="0.27144">
        <ele>136.4</ele>
        <time>2015-11-08T13:11:57Z</time>
      </trkpt>
      <trkpt lat="48.92687" lon="0.27145">
        <ele>136.4</ele>
        <time>2015-11-08T13:11:58Z</time>
      </trkpt>
      <trkpt lat="48.92691" lon="0.27147">
        <ele>136.35</ele>
        <time>2015-11-08T13:11:59Z</time>
      </trkpt>
      <trkpt lat="48.92694" lon="0.27149">
        <ele>136.25</ele>
        <time>2015-11-08T13:12:00Z</time>
      </trkpt>
      <trkpt lat="48.92697" lon="0.27152">
        <ele>135.77</ele>
        <time>2015-11-08T13:12:01Z</time>
      </trkpt>
      <trkpt lat="48.927" lon="0.27154">
        <ele>135.15</ele>
        <time>2015-11-08T13:12:02Z</time>
      </trkpt>
      <trkpt lat="48.92704" lon="0.27156">
        <ele>134.42</ele>
        <time>2015-11-08T13:12:03Z</time>
      </trkpt>
      <trkpt lat="48.92707" lon="0.27158">
        <ele>133.65</ele>
        <time>2015-11-08T13:12:04Z</time>
      </trkpt>
      <trkpt lat="48.9271" lon="0.2716">
        <ele>132.76</ele>
        <time>2015-11-08T13:12:05Z</time>
      </trkpt>
      <trkpt lat="48.92713" lon="0.27162">
        <ele>131.76</ele>
        <time>2015-11-08T13:12:06Z</time>
      </trkpt>
      <trkpt lat="48.92716" lon="0.27165">
        <ele>130.69</ele>
        <time>2015-11-08T13:12:07Z</time>
      </trkpt>
      <trkpt lat="48.92719" lon="0.27168">
        <ele>129.98</ele>
        <time>2015-11-08T13:12:08Z</time>
      </trkpt>
      <trkpt lat="48.92721" lon="0.27171">
        <ele>130.06</ele>
        <time>2015-11-08T13:12:09Z</time>
      </trkpt>
      <trkpt lat="48.92724" lon="0.27173">
        <ele>130.62</ele>
        <time>2015-11-08T13:12:10Z</time>
      </trkpt>
      <trkpt lat="48.92726" lon="0.27176">
        <ele>131.43</ele>
        <time>2015-11-08T13:12:11Z</time>
      </trkpt>
      <trkpt lat="48.92729" lon="0.27178">
        <ele>132.15</ele>
        <time>2015-11-08T13:12:12Z</time>
      </trkpt>
      <trkpt lat="48.92732" lon="0.27179">
        <ele>132.81</ele>
        <time>2015-11-08T13:12:13Z</time>
      </trkpt>
      <trkpt lat="48.92734" lon="0.27181">
        <ele>133.46</ele>
        <time>2015-11-08T13:12:14Z</time>
      </trkpt>
      <trkpt lat="48.92737" lon="0.27183">
        <ele>134.01</ele>
        <time>2015-11-08T13:12:15Z</time>
      </trkpt>
      <trkpt lat="48.9274" lon="0.27184">
        <ele>134.46</ele>
        <time>2015-11-08T13:12:16Z</time>
      </trkpt>
      <trkpt lat="48.92745" lon="0.27184">
        <ele>135.06</ele>
        <time>2015-11-08T13:12:18Z</time>
      </trkpt>
      <trkpt lat="48.92751" lon="0.27184">
        <ele>135.54</ele>
        <time>2015-11-08T13:12:20Z</time>
      </trkpt>
      <trkpt lat="48.92753" lon="0.27185">
        <ele>135.57</ele>
        <time>2015-11-08T13:12:21Z</time>
      </trkpt>
      <trkpt lat="48.92756" lon="0.27186">
        <ele>135.65</ele>
        <time>2015-11-08T13:12:22Z</time>
      </trkpt>
      <trkpt lat="48.92759" lon="0.27187">
        <ele>135.8</ele>
        <time>2015-11-08T13:12:23Z</time>
      </trkpt>
      <trkpt lat="48.92764" lon="0.27188">
        <ele>135.92</ele>
        <time>2015-11-08T13:12:25Z</time>
      </trkpt>
      <trkpt lat="48.92769" lon="0.27187">
        <ele>135.82</ele>
        <time>2015-11-08T13:12:27Z</time>
      </trkpt>
      <trkpt lat="48.92772" lon="0.27187">
        <ele>135.76</ele>
        <time>2015-11-08T13:12:28Z</time>
      </trkpt>
      <trkpt lat="48.92774" lon="0.27187">
        <ele>135.7</ele>
        <time>2015-11-08T13:12:29Z</time>
      </trkpt>
      <trkpt lat="48.92777" lon="0.27187">
        <ele>135.59</ele>
        <time>2015-11-08T13:12:30Z</time>
      </trkpt>
      <trkpt lat="48.9278" lon="0.27186">
        <ele>135.15</ele>
        <time>2015-11-08T13:12:31Z</time>
      </trkpt>
      <trkpt lat="48.92783" lon="0.27187">
        <ele>134.66</ele>
        <time>2015-11-08T13:12:32Z</time>
      </trkpt>
      <trkpt lat="48.92786" lon="0.27187">
        <ele>134.16</ele>
        <time>2015-11-08T13:12:33Z</time>
      </trkpt>
      <trkpt lat="48.92789" lon="0.27187">
        <ele>133.63</ele>
        <time>2015-11-08T13:12:34Z</time>
      </trkpt>
      <trkpt lat="48.92792" lon="0.27186">
        <ele>133.09</ele>
        <time>2015-11-08T13:12:35Z</time>
      </trkpt>
      <trkpt lat="48.92795" lon="0.27186">
        <ele>132.57</ele>
        <time>2015-11-08T13:12:36Z</time>
      </trkpt>
      <trkpt lat="48.92798" lon="0.27186">
        <ele>132.05</ele>
        <time>2015-11-08T13:12:37Z</time>
      </trkpt>
      <trkpt lat="48.92802" lon="0.27186">
        <ele>131.52</ele>
        <time>2015-11-08T13:12:38Z</time>
      </trkpt>
      <trkpt lat="48.92805" lon="0.27187">
        <ele>131.01</ele>
        <time>2015-11-08T13:12:39Z</time>
      </trkpt>
      <trkpt lat="48.92808" lon="0.27187">
        <ele>130.91</ele>
        <time>2015-11-08T13:12:40Z</time>
      </trkpt>
      <trkpt lat="48.92812" lon="0.27187">
        <ele>130.89</ele>
        <time>2015-11-08T13:12:41Z</time>
      </trkpt>
      <trkpt lat="48.92815" lon="0.27187">
        <ele>130.86</ele>
        <time>2015-11-08T13:12:42Z</time>
      </trkpt>
      <trkpt lat="48.92818" lon="0.27187">
        <ele>130.86</ele>
        <time>2015-11-08T13:12:43Z</time>
      </trkpt>
      <trkpt lat="48.92822" lon="0.27187">
        <ele>130.87</ele>
        <time>2015-11-08T13:12:44Z</time>
      </trkpt>
      <trkpt lat="48.92825" lon="0.27187">
        <ele>130.86</ele>
        <time>2015-11-08T13:12:45Z</time>
      </trkpt>
      <trkpt lat="48.92929" lon="0.27185">
        <ele>133.66</ele>
        <time>2015-11-08T13:13:15Z</time>
      </trkpt>
      <trkpt lat="48.92926" lon="0.27182">
        <ele>133.88</ele>
        <time>2015-11-08T13:13:24Z</time>
      </trkpt>
      <trkpt lat="48.92925" lon="0.27177">
        <ele>134.22</ele>
        <time>2015-11-08T13:13:29Z</time>
      </trkpt>
      <trkpt lat="48.92925" lon="0.27173">
        <ele>134.53</ele>
        <time>2015-11-08T13:13:31Z</time>
      </trkpt>
      <trkpt lat="48.92925" lon="0.27166">
        <ele>134.99</ele>
        <time>2015-11-08T13:13:33Z</time>
      </trkpt>
      <trkpt lat="48.92924" lon="0.2716">
        <ele>134.83</ele>
        <time>2015-11-08T13:13:35Z</time>
      </trkpt>
      <trkpt lat="48.92924" lon="0.27154">
        <ele>134.67</ele>
        <time>2015-11-08T13:13:37Z</time>
      </trkpt>
      <trkpt lat="48.92923" lon="0.27147">
        <ele>134.47</ele>
        <time>2015-11-08T13:13:39Z</time>
      </trkpt>
      <trkpt lat="48.92923" lon="0.27143">
        <ele>134.34</ele>
        <time>2015-11-08T13:13:40Z</time>
      </trkpt>
      <trkpt lat="48.92923" lon="0.27138">
        <ele>134.18</ele>
        <time>2015-11-08T13:13:41Z</time>
      </trkpt>
      <trkpt lat="48.92924" lon="0.27133">
        <ele>133.83</ele>
        <time>2015-11-08T13:13:42Z</time>
      </trkpt>
      <trkpt lat="48.92925" lon="0.27129">
        <ele>133.5</ele>
        <time>2015-11-08T13:13:43Z</time>
      </trkpt>
      <trkpt lat="48.92925" lon="0.27124">
        <ele>133.18</ele>
        <time>2015-11-08T13:13:44Z</time>
      </trkpt>
      <trkpt lat="48.92926" lon="0.27118">
        <ele>132.86</ele>
        <time>2015-11-08T13:13:45Z</time>
      </trkpt>
      <trkpt lat="48.92926" lon="0.27113">
        <ele>132.52</ele>
        <time>2015-11-08T13:13:46Z</time>
      </trkpt>
      <trkpt lat="48.92926" lon="0.27108">
        <ele>132.46</ele>
        <time>2015-11-08T13:13:47Z</time>
      </trkpt>
      <trkpt lat="48.92927" lon="0.27103">
        <ele>132.65</ele>
        <time>2015-11-08T13:13:48Z</time>
      </trkpt>
      <trkpt lat="48.92928" lon="0.27098">
        <ele>132.89</ele>
        <time>2015-11-08T13:13:49Z</time>
      </trkpt>
      <trkpt lat="48.9293" lon="0.27093">
        <ele>133.2</ele>
        <time>2015-11-08T13:13:50Z</time>
      </trkpt>
      <trkpt lat="48.92932" lon="0.27089">
        <ele>133.56</ele>
        <time>2015-11-08T13:13:51Z</time>
      </trkpt>
      <trkpt lat="48.92935" lon="0.27086">
        <ele>133.94</ele>
        <time>2015-11-08T13:13:52Z</time>
      </trkpt>
      <trkpt lat="48.92938" lon="0.27084">
        <ele>134.32</ele>
        <time>2015-11-08T13:13:53Z</time>
      </trkpt>
      <trkpt lat="48.92942" lon="0.27082">
        <ele>134.66</ele>
        <time>2015-11-08T13:13:54Z</time>
      </trkpt>
      <trkpt lat="48.92945" lon="0.27081">
        <ele>134.95</ele>
        <time>2015-11-08T13:13:55Z</time>
      </trkpt>
      <trkpt lat="48.92948" lon="0.27079">
        <ele>135.1</ele>
        <time>2015-11-08T13:13:56Z</time>
      </trkpt>
      <trkpt lat="48.92952" lon="0.27077">
        <ele>135.18</ele>
        <time>2015-11-08T13:13:57Z</time>
      </trkpt>
      <trkpt lat="48.92955" lon="0.27075">
        <ele>135.21</ele>
        <time>2015-11-08T13:13:58Z</time>
      </trkpt>
      <trkpt lat="48.92958" lon="0.27074">
        <ele>135.27</ele>
        <time>2015-11-08T13:13:59Z</time>
      </trkpt>
      <trkpt lat="48.9296" lon="0.27075">
        <ele>135.49</ele>
        <time>2015-11-08T13:14:00Z</time>
      </trkpt>
      <trkpt lat="48.92962" lon="0.27078">
        <ele>135.88</ele>
        <time>2015-11-08T13:14:01Z</time>
      </trkpt>
      <trkpt lat="48.92963" lon="0.27083">
        <ele>136.34</ele>
        <time>2015-11-08T13:14:02Z</time>
      </trkpt>
      <trkpt lat="48.92963" lon="0.27088">
        <ele>136.36</ele>
        <time>2015-11-08T13:14:03Z</time>
      </trkpt>
      <trkpt lat="48.92963" lon="0.27093">
        <ele>136.37</ele>
        <time>2015-11-08T13:14:04Z</time>
      </trkpt>
      <trkpt lat="48.92964" lon="0.27098">
        <ele>136.38</ele>
        <time>2015-11-08T13:14:05Z</time>
      </trkpt>
      <trkpt lat="48.92964" lon="0.27102">
        <ele>136.41</ele>
        <time>2015-11-08T13:14:06Z</time>
      </trkpt>
      <trkpt lat="48.92964" lon="0.27106">
        <ele>136.43</ele>
        <time>2015-11-08T13:14:07Z</time>
      </trkpt>
      <trkpt lat="48.92964" lon="0.27114">
        <ele>136.27</ele>
        <time>2015-11-08T13:14:09Z</time>
      </trkpt>
      <trkpt lat="48.92964" lon="0.27122">
        <ele>135.86</ele>
        <time>2015-11-08T13:14:11Z</time>
      </trkpt>
      <trkpt lat="48.92965" lon="0.27129">
        <ele>135.52</ele>
        <time>2015-11-08T13:14:13Z</time>
      </trkpt>
      <trkpt lat="48.92967" lon="0.27136">
        <ele>135.15</ele>
        <time>2015-11-08T13:14:15Z</time>
      </trkpt>
      <trkpt lat="48.92967" lon="0.27143">
        <ele>134.64</ele>
        <time>2015-11-08T13:14:17Z</time>
      </trkpt>
      <trkpt lat="48.92968" lon="0.27149">
        <ele>134.09</ele>
        <time>2015-11-08T13:14:19Z</time>
      </trkpt>
      <trkpt lat="48.9297" lon="0.27155">
        <ele>133.43</ele>
        <time>2015-11-08T13:14:21Z</time>
      </trkpt>
      <trkpt lat="48.92971" lon="0.27161">
        <ele>132.74</ele>
        <time>2015-11-08T13:14:23Z</time>
      </trkpt>
      <trkpt lat="48.92971" lon="0.27168">
        <ele>132.1</ele>
        <time>2015-11-08T13:14:25Z</time>
      </trkpt>
      <trkpt lat="48.92971" lon="0.27174">
        <ele>131.87</ele>
        <time>2015-11-08T13:14:27Z</time>
      </trkpt>
      <trkpt lat="48.92972" lon="0.2718">
        <ele>131.54</ele>
        <time>2015-11-08T13:14:29Z</time>
      </trkpt>
      <trkpt lat="48.92974" lon="0.27186">
        <ele>131.28</ele>
        <time>2015-11-08T13:14:31Z</time>
      </trkpt>
      <trkpt lat="48.92975" lon="0.27192">
        <ele>131.07</ele>
        <time>2015-11-08T13:14:33Z</time>
      </trkpt>
      <trkpt lat="48.92975" lon="0.27199">
        <ele>131.43</ele>
        <time>2015-11-08T13:14:35Z</time>
      </trkpt>
      <trkpt lat="48.92976" lon="0.27205">
        <ele>132.03</ele>
        <time>2015-11-08T13:14:37Z</time>
      </trkpt>
      <trkpt lat="48.92977" lon="0.27212">
        <ele>132.65</ele>
        <time>2015-11-08T13:14:39Z</time>
      </trkpt>
      <trkpt lat="48.92978" lon="0.27218">
        <ele>133.19</ele>
        <time>2015-11-08T13:14:41Z</time>
      </trkpt>
      <trkpt lat="48.92979" lon="0.27224">
        <ele>133.58</ele>
        <time>2015-11-08T13:14:43Z</time>
      </trkpt>
      <trkpt lat="48.92979" lon="0.27231">
        <ele>133.89</ele>
        <time>2015-11-08T13:14:45Z</time>
      </trkpt>
      <trkpt lat="48.92977" lon="0.27237">
        <ele>134.26</ele>
        <time>2015-11-08T13:14:47Z</time>
      </trkpt>
      <trkpt lat="48.92978" lon="0.27244">
        <ele>134.53</ele>
        <time>2015-11-08T13:14:49Z</time>
      </trkpt>
      <trkpt lat="48.9298" lon="0.2725">
        <ele>134.72</ele>
        <time>2015-11-08T13:14:51Z</time>
      </trkpt>
      <trkpt lat="48.92982" lon="0.27256">
        <ele>135.24</ele>
        <time>2015-11-08T13:14:53Z</time>
      </trkpt>
      <trkpt lat="48.92984" lon="0.27262">
        <ele>135.8</ele>
        <time>2015-11-08T13:14:55Z</time>
      </trkpt>
      <trkpt lat="48.92986" lon="0.27268">
        <ele>136.41</ele>
        <time>2015-11-08T13:14:57Z</time>
      </trkpt>
      <trkpt lat="48.92988" lon="0.27273">
        <ele>137.07</ele>
        <time>2015-11-08T13:14:59Z</time>
      </trkpt>
      <trkpt lat="48.92989" lon="0.27279">
        <ele>137.89</ele>
        <time>2015-11-08T13:15:01Z</time>
      </trkpt>
      <trkpt lat="48.92991" lon="0.27286">
        <ele>139.07</ele>
        <time>2015-11-08T13:15:03Z</time>
      </trkpt>
      <trkpt lat="48.92992" lon="0.27292">
        <ele>140.23</ele>
        <time>2015-11-08T13:15:05Z</time>
      </trkpt>
      <trkpt lat="48.92994" lon="0.27296">
        <ele>141.35</ele>
        <time>2015-11-08T13:15:07Z</time>
      </trkpt>
      <trkpt lat="48.92998" lon="0.27299">
        <ele>142.36</ele>
        <time>2015-11-08T13:15:09Z</time>
      </trkpt>
      <trkpt lat="48.93003" lon="0.27301">
        <ele>143.68</ele>
        <time>2015-11-08T13:15:11Z</time>
      </trkpt>
      <trkpt lat="48.93008" lon="0.27303">
        <ele>145.01</ele>
        <time>2015-11-08T13:15:13Z</time>
      </trkpt>
      <trkpt lat="48.93011" lon="0.27303">
        <ele>145.73</ele>
        <time>2015-11-08T13:15:14Z</time>
      </trkpt>
      <trkpt lat="48.93013" lon="0.27304">
        <ele>146.44</ele>
        <time>2015-11-08T13:15:15Z</time>
      </trkpt>
      <trkpt lat="48.93019" lon="0.27305">
        <ele>147.96</ele>
        <time>2015-11-08T13:15:17Z</time>
      </trkpt>
      <trkpt lat="48.93021" lon="0.27306">
        <ele>148.73</ele>
        <time>2015-11-08T13:15:18Z</time>
      </trkpt>
      <trkpt lat="48.93026" lon="0.27308">
        <ele>150.14</ele>
        <time>2015-11-08T13:15:20Z</time>
      </trkpt>
      <trkpt lat="48.93031" lon="0.27309">
        <ele>150.5</ele>
        <time>2015-11-08T13:15:22Z</time>
      </trkpt>
      <trkpt lat="48.93036" lon="0.2731">
        <ele>150.35</ele>
        <time>2015-11-08T13:15:24Z</time>
      </trkpt>
      <trkpt lat="48.93041" lon="0.27311">
        <ele>150.31</ele>
        <time>2015-11-08T13:15:26Z</time>
      </trkpt>
      <trkpt lat="48.93045" lon="0.27312">
        <ele>150.45</ele>
        <time>2015-11-08T13:15:28Z</time>
      </trkpt>
      <trkpt lat="48.93049" lon="0.27314">
        <ele>150.61</ele>
        <time>2015-11-08T13:15:30Z</time>
      </trkpt>
      <trkpt lat="48.93054" lon="0.27315">
        <ele>150.71</ele>
        <time>2015-11-08T13:15:32Z</time>
      </trkpt>
      <trkpt lat="48.93059" lon="0.27316">
        <ele>150.43</ele>
        <time>2015-11-08T13:15:34Z</time>
      </trkpt>
      <trkpt lat="48.93063" lon="0.27318">
        <ele>150.06</ele>
        <time>2015-11-08T13:15:36Z</time>
      </trkpt>
      <trkpt lat="48.93067" lon="0.27319">
        <ele>149.62</ele>
        <time>2015-11-08T13:15:38Z</time>
      </trkpt>
      <trkpt lat="48.93072" lon="0.2732">
        <ele>148.99</ele>
        <time>2015-11-08T13:15:40Z</time>
      </trkpt>
      <trkpt lat="48.93076" lon="0.27322">
        <ele>148.43</ele>
        <time>2015-11-08T13:15:42Z</time>
      </trkpt>
      <trkpt lat="48.9308" lon="0.27324">
        <ele>147.84</ele>
        <time>2015-11-08T13:15:44Z</time>
      </trkpt>
      <trkpt lat="48.93085" lon="0.27324">
        <ele>147.21</ele>
        <time>2015-11-08T13:15:46Z</time>
      </trkpt>
      <trkpt lat="48.93089" lon="0.27326">
        <ele>146.98</ele>
        <time>2015-11-08T13:15:48Z</time>
      </trkpt>
      <trkpt lat="48.93093" lon="0.27328">
        <ele>146.7</ele>
        <time>2015-11-08T13:15:50Z</time>
      </trkpt>
      <trkpt lat="48.93098" lon="0.2733">
        <ele>146.39</ele>
        <time>2015-11-08T13:15:52Z</time>
      </trkpt>
      <trkpt lat="48.93102" lon="0.27332">
        <ele>146.04</ele>
        <time>2015-11-08T13:15:54Z</time>
      </trkpt>
      <trkpt lat="48.93107" lon="0.27333">
        <ele>145.51</ele>
        <time>2015-11-08T13:15:56Z</time>
      </trkpt>
      <trkpt lat="48.93112" lon="0.27334">
        <ele>144.94</ele>
        <time>2015-11-08T13:15:58Z</time>
      </trkpt>
      <trkpt lat="48.93116" lon="0.27336">
        <ele>144.07</ele>
        <time>2015-11-08T13:16:00Z</time>
      </trkpt>
      <trkpt lat="48.9312" lon="0.27338">
        <ele>143.41</ele>
        <time>2015-11-08T13:16:02Z</time>
      </trkpt>
      <trkpt lat="48.93124" lon="0.27339">
        <ele>142.72</ele>
        <time>2015-11-08T13:16:04Z</time>
      </trkpt>
      <trkpt lat="48.93127" lon="0.27341">
        <ele>142.07</ele>
        <time>2015-11-08T13:16:06Z</time>
      </trkpt>
      <trkpt lat="48.93131" lon="0.27344">
        <ele>141.53</ele>
        <time>2015-11-08T13:16:08Z</time>
      </trkpt>
      <trkpt lat="48.93135" lon="0.27345">
        <ele>140.71</ele>
        <time>2015-11-08T13:16:10Z</time>
      </trkpt>
      <trkpt lat="48.93138" lon="0.27346">
        <ele>139.94</ele>
        <time>2015-11-08T13:16:12Z</time>
      </trkpt>
      <trkpt lat="48.93142" lon="0.27347">
        <ele>139.96</ele>
        <time>2015-11-08T13:16:14Z</time>
      </trkpt>
      <trkpt lat="48.93147" lon="0.27348">
        <ele>140.27</ele>
        <time>2015-11-08T13:16:16Z</time>
      </trkpt>
      <trkpt lat="48.93151" lon="0.2735">
        <ele>140.63</ele>
        <time>2015-11-08T13:16:18Z</time>
      </trkpt>
      <trkpt lat="48.93157" lon="0.27351">
        <ele>140.96</ele>
        <time>2015-11-08T13:16:20Z</time>
      </trkpt>
      <trkpt lat="48.93162" lon="0.27353">
        <ele>141.34</ele>
        <time>2015-11-08T13:16:22Z</time>
      </trkpt>
      <trkpt lat="48.93167" lon="0.27355">
        <ele>141.81</ele>
        <time>2015-11-08T13:16:24Z</time>
      </trkpt>
      <trkpt lat="48.93172" lon="0.27357">
        <ele>141.47</ele>
        <time>2015-11-08T13:16:26Z</time>
      </trkpt>
      <trkpt lat="48.93175" lon="0.27358">
        <ele>141.24</ele>
        <time>2015-11-08T13:16:27Z</time>
      </trkpt>
      <trkpt lat="48.93178" lon="0.27359">
        <ele>141</ele>
        <time>2015-11-08T13:16:28Z</time>
      </trkpt>
      <trkpt lat="48.93181" lon="0.2736">
        <ele>140.74</ele>
        <time>2015-11-08T13:16:29Z</time>
      </trkpt>
      <trkpt lat="48.93184" lon="0.27361">
        <ele>140.5</ele>
        <time>2015-11-08T13:16:30Z</time>
      </trkpt>
      <trkpt lat="48.93186" lon="0.27361">
        <ele>140.18</ele>
        <time>2015-11-08T13:16:31Z</time>
      </trkpt>
      <trkpt lat="48.93189" lon="0.27362">
        <ele>139.84</ele>
        <time>2015-11-08T13:16:32Z</time>
      </trkpt>
      <trkpt lat="48.93192" lon="0.27363">
        <ele>139.53</ele>
        <time>2015-11-08T13:16:33Z</time>
      </trkpt>
      <trkpt lat="48.93194" lon="0.27364">
        <ele>139.21</ele>
        <time>2015-11-08T13:16:34Z</time>
      </trkpt>
      <trkpt lat="48.932" lon="0.27365">
        <ele>139.12</ele>
        <time>2015-11-08T13:16:36Z</time>
      </trkpt>
      <trkpt lat="48.93203" lon="0.27365">
        <ele>139.04</ele>
        <time>2015-11-08T13:16:37Z</time>
      </trkpt>
      <trkpt lat="48.93205" lon="0.27366">
        <ele>138.93</ele>
        <time>2015-11-08T13:16:38Z</time>
      </trkpt>
      <trkpt lat="48.93208" lon="0.27367">
        <ele>138.79</ele>
        <time>2015-11-08T13:16:39Z</time>
      </trkpt>
      <trkpt lat="48.93211" lon="0.27367">
        <ele>138.62</ele>
        <time>2015-11-08T13:16:40Z</time>
      </trkpt>
      <trkpt lat="48.93214" lon="0.27368">
        <ele>138.42</ele>
        <time>2015-11-08T13:16:41Z</time>
      </trkpt>
      <trkpt lat="48.93217" lon="0.27369">
        <ele>138.18</ele>
        <time>2015-11-08T13:16:42Z</time>
      </trkpt>
      <trkpt lat="48.9322" lon="0.2737">
        <ele>137.91</ele>
        <time>2015-11-08T13:16:43Z</time>
      </trkpt>
      <trkpt lat="48.93223" lon="0.2737">
        <ele>137.71</ele>
        <time>2015-11-08T13:16:44Z</time>
      </trkpt>
      <trkpt lat="48.93226" lon="0.27371">
        <ele>137.69</ele>
        <time>2015-11-08T13:16:45Z</time>
      </trkpt>
      <trkpt lat="48.93229" lon="0.27372">
        <ele>137.76</ele>
        <time>2015-11-08T13:16:46Z</time>
      </trkpt>
      <trkpt lat="48.93232" lon="0.27372">
        <ele>137.88</ele>
        <time>2015-11-08T13:16:47Z</time>
      </trkpt>
      <trkpt lat="48.93235" lon="0.27373">
        <ele>138.04</ele>
        <time>2015-11-08T13:16:48Z</time>
      </trkpt>
      <trkpt lat="48.93238" lon="0.27373">
        <ele>138.23</ele>
        <time>2015-11-08T13:16:49Z</time>
      </trkpt>
      <trkpt lat="48.93241" lon="0.27374">
        <ele>138.47</ele>
        <time>2015-11-08T13:16:50Z</time>
      </trkpt>
      <trkpt lat="48.93243" lon="0.27374">
        <ele>138.79</ele>
        <time>2015-11-08T13:16:51Z</time>
      </trkpt>
      <trkpt lat="48.93246" lon="0.27375">
        <ele>139.21</ele>
        <time>2015-11-08T13:16:52Z</time>
      </trkpt>
      <trkpt lat="48.93249" lon="0.27376">
        <ele>139.68</ele>
        <time>2015-11-08T13:16:53Z</time>
      </trkpt>
      <trkpt lat="48.93252" lon="0.27377">
        <ele>139.25</ele>
        <time>2015-11-08T13:16:54Z</time>
      </trkpt>
      <trkpt lat="48.93254" lon="0.27378">
        <ele>138.26</ele>
        <time>2015-11-08T13:16:55Z</time>
      </trkpt>
      <trkpt lat="48.93257" lon="0.2738">
        <ele>137.29</ele>
        <time>2015-11-08T13:16:56Z</time>
      </trkpt>
      <trkpt lat="48.9326" lon="0.27381">
        <ele>136.24</ele>
        <time>2015-11-08T13:16:57Z</time>
      </trkpt>
      <trkpt lat="48.93263" lon="0.27382">
        <ele>135.07</ele>
        <time>2015-11-08T13:16:58Z</time>
      </trkpt>
      <trkpt lat="48.93265" lon="0.27383">
        <ele>133.79</ele>
        <time>2015-11-08T13:16:59Z</time>
      </trkpt>
      <trkpt lat="48.93268" lon="0.27384">
        <ele>132.41</ele>
        <time>2015-11-08T13:17:00Z</time>
      </trkpt>
      <trkpt lat="48.93271" lon="0.27384">
        <ele>131.01</ele>
        <time>2015-11-08T13:17:01Z</time>
      </trkpt>
      <trkpt lat="48.93274" lon="0.27385">
        <ele>129.57</ele>
        <time>2015-11-08T13:17:02Z</time>
      </trkpt>
      <trkpt lat="48.93277" lon="0.27385">
        <ele>128.14</ele>
        <time>2015-11-08T13:17:03Z</time>
      </trkpt>
      <trkpt lat="48.9328" lon="0.27386">
        <ele>127.77</ele>
        <time>2015-11-08T13:17:04Z</time>
      </trkpt>
      <trkpt lat="48.93283" lon="0.27387">
        <ele>127.8</ele>
        <time>2015-11-08T13:17:05Z</time>
      </trkpt>
      <trkpt lat="48.93285" lon="0.27387">
        <ele>127.83</ele>
        <time>2015-11-08T13:17:06Z</time>
      </trkpt>
      <trkpt lat="48.93288" lon="0.27388">
        <ele>127.89</ele>
        <time>2015-11-08T13:17:07Z</time>
      </trkpt>
      <trkpt lat="48.93291" lon="0.27389">
        <ele>127.99</ele>
        <time>2015-11-08T13:17:08Z</time>
      </trkpt>
      <trkpt lat="48.93294" lon="0.2739">
        <ele>128.27</ele>
        <time>2015-11-08T13:17:09Z</time>
      </trkpt>
      <trkpt lat="48.93297" lon="0.27391">
        <ele>128.57</ele>
        <time>2015-11-08T13:17:10Z</time>
      </trkpt>
      <trkpt lat="48.933" lon="0.27392">
        <ele>128.86</ele>
        <time>2015-11-08T13:17:11Z</time>
      </trkpt>
      <trkpt lat="48.93303" lon="0.27393">
        <ele>129.11</ele>
        <time>2015-11-08T13:17:12Z</time>
      </trkpt>
      <trkpt lat="48.93305" lon="0.27394">
        <ele>129.33</ele>
        <time>2015-11-08T13:17:13Z</time>
      </trkpt>
      <trkpt lat="48.93308" lon="0.27395">
        <ele>129.43</ele>
        <time>2015-11-08T13:17:14Z</time>
      </trkpt>
      <trkpt lat="48.93311" lon="0.27396">
        <ele>129.56</ele>
        <time>2015-11-08T13:17:15Z</time>
      </trkpt>
      <trkpt lat="48.93314" lon="0.27397">
        <ele>129.76</ele>
        <time>2015-11-08T13:17:16Z</time>
      </trkpt>
      <trkpt lat="48.93317" lon="0.27399">
        <ele>129.94</ele>
        <time>2015-11-08T13:17:17Z</time>
      </trkpt>
      <trkpt lat="48.9332" lon="0.274">
        <ele>130.07</ele>
        <time>2015-11-08T13:17:18Z</time>
      </trkpt>
      <trkpt lat="48.93323" lon="0.27401">
        <ele>130.14</ele>
        <time>2015-11-08T13:17:19Z</time>
      </trkpt>
      <trkpt lat="48.93326" lon="0.27402">
        <ele>130.19</ele>
        <time>2015-11-08T13:17:20Z</time>
      </trkpt>
      <trkpt lat="48.93329" lon="0.27403">
        <ele>130.23</ele>
        <time>2015-11-08T13:17:21Z</time>
      </trkpt>
      <trkpt lat="48.93332" lon="0.27404">
        <ele>130.34</ele>
        <time>2015-11-08T13:17:22Z</time>
      </trkpt>
      <trkpt lat="48.93335" lon="0.27405">
        <ele>130.23</ele>
        <time>2015-11-08T13:17:23Z</time>
      </trkpt>
      <trkpt lat="48.93338" lon="0.27406">
        <ele>129.87</ele>
        <time>2015-11-08T13:17:24Z</time>
      </trkpt>
      <trkpt lat="48.93341" lon="0.27407">
        <ele>129.48</ele>
        <time>2015-11-08T13:17:25Z</time>
      </trkpt>
      <trkpt lat="48.93344" lon="0.27408">
        <ele>129.15</ele>
        <time>2015-11-08T13:17:26Z</time>
      </trkpt>
      <trkpt lat="48.93347" lon="0.27409">
        <ele>128.82</ele>
        <time>2015-11-08T13:17:27Z</time>
      </trkpt>
      <trkpt lat="48.93349" lon="0.2741">
        <ele>128.43</ele>
        <time>2015-11-08T13:17:28Z</time>
      </trkpt>
      <trkpt lat="48.93352" lon="0.27411">
        <ele>127.99</ele>
        <time>2015-11-08T13:17:29Z</time>
      </trkpt>
      <trkpt lat="48.93355" lon="0.27412">
        <ele>127.54</ele>
        <time>2015-11-08T13:17:30Z</time>
      </trkpt>
      <trkpt lat="48.93358" lon="0.27413">
        <ele>127.08</ele>
        <time>2015-11-08T13:17:31Z</time>
      </trkpt>
      <trkpt lat="48.93361" lon="0.27414">
        <ele>126.64</ele>
        <time>2015-11-08T13:17:32Z</time>
      </trkpt>
      <trkpt lat="48.93363" lon="0.27414">
        <ele>126.86</ele>
        <time>2015-11-08T13:17:33Z</time>
      </trkpt>
      <trkpt lat="48.93366" lon="0.27415">
        <ele>127.2</ele>
        <time>2015-11-08T13:17:34Z</time>
      </trkpt>
      <trkpt lat="48.93369" lon="0.27416">
        <ele>127.54</ele>
        <time>2015-11-08T13:17:35Z</time>
      </trkpt>
      <trkpt lat="48.93372" lon="0.27418">
        <ele>128.18</ele>
        <time>2015-11-08T13:17:36Z</time>
      </trkpt>
      <trkpt lat="48.93375" lon="0.27419">
        <ele>128.82</ele>
        <time>2015-11-08T13:17:37Z</time>
      </trkpt>
      <trkpt lat="48.93378" lon="0.2742">
        <ele>129.33</ele>
        <time>2015-11-08T13:17:38Z</time>
      </trkpt>
      <trkpt lat="48.93381" lon="0.27422">
        <ele>129.7</ele>
        <time>2015-11-08T13:17:39Z</time>
      </trkpt>
      <trkpt lat="48.93384" lon="0.27423">
        <ele>129.93</ele>
        <time>2015-11-08T13:17:40Z</time>
      </trkpt>
      <trkpt lat="48.93388" lon="0.27424">
        <ele>130.05</ele>
        <time>2015-11-08T13:17:41Z</time>
      </trkpt>
      <trkpt lat="48.93391" lon="0.27425">
        <ele>129.93</ele>
        <time>2015-11-08T13:17:42Z</time>
      </trkpt>
      <trkpt lat="48.93394" lon="0.27426">
        <ele>129.73</ele>
        <time>2015-11-08T13:17:43Z</time>
      </trkpt>
      <trkpt lat="48.93398" lon="0.27428">
        <ele>129.56</ele>
        <time>2015-11-08T13:17:44Z</time>
      </trkpt>
      <trkpt lat="48.934" lon="0.27429">
        <ele>129.46</ele>
        <time>2015-11-08T13:17:45Z</time>
      </trkpt>
      <trkpt lat="48.93519" lon="0.27481">
        <ele>142.93</ele>
        <time>2015-11-08T13:18:17Z</time>
      </trkpt>
      <trkpt lat="48.93522" lon="0.27476">
        <ele>142.01</ele>
        <time>2015-11-08T13:18:18Z</time>
      </trkpt>
      <trkpt lat="48.93528" lon="0.27475">
        <ele>141.29</ele>
        <time>2015-11-08T13:18:20Z</time>
      </trkpt>
      <trkpt lat="48.93533" lon="0.27476">
        <ele>140.63</ele>
        <time>2015-11-08T13:18:21Z</time>
      </trkpt>
      <trkpt lat="48.93537" lon="0.27477">
        <ele>140.04</ele>
        <time>2015-11-08T13:18:22Z</time>
      </trkpt>
      <trkpt lat="48.9354" lon="0.27476">
        <ele>139.34</ele>
        <time>2015-11-08T13:18:23Z</time>
      </trkpt>
      <trkpt lat="48.93544" lon="0.27478">
        <ele>138.75</ele>
        <time>2015-11-08T13:18:24Z</time>
      </trkpt>
      <trkpt lat="48.93547" lon="0.27479">
        <ele>138.29</ele>
        <time>2015-11-08T13:18:25Z</time>
      </trkpt>
      <trkpt lat="48.93551" lon="0.2748">
        <ele>137.8</ele>
        <time>2015-11-08T13:18:26Z</time>
      </trkpt>
      <trkpt lat="48.93554" lon="0.27481">
        <ele>137.23</ele>
        <time>2015-11-08T13:18:27Z</time>
      </trkpt>
      <trkpt lat="48.93558" lon="0.27483">
        <ele>137.39</ele>
        <time>2015-11-08T13:18:28Z</time>
      </trkpt>
      <trkpt lat="48.93561" lon="0.27484">
        <ele>137.86</ele>
        <time>2015-11-08T13:18:29Z</time>
      </trkpt>
      <trkpt lat="48.93565" lon="0.27485">
        <ele>138.32</ele>
        <time>2015-11-08T13:18:30Z</time>
      </trkpt>
      <trkpt lat="48.93568" lon="0.27486">
        <ele>138.78</ele>
        <time>2015-11-08T13:18:31Z</time>
      </trkpt>
      <trkpt lat="48.93571" lon="0.27487">
        <ele>139.25</ele>
        <time>2015-11-08T13:18:32Z</time>
      </trkpt>
      <trkpt lat="48.93574" lon="0.27488">
        <ele>139.71</ele>
        <time>2015-11-08T13:18:33Z</time>
      </trkpt>
      <trkpt lat="48.93578" lon="0.27489">
        <ele>140.18</ele>
        <time>2015-11-08T13:18:34Z</time>
      </trkpt>
      <trkpt lat="48.93581" lon="0.2749">
        <ele>140.64</ele>
        <time>2015-11-08T13:18:35Z</time>
      </trkpt>
      <trkpt lat="48.93584" lon="0.27491">
        <ele>141.06</ele>
        <time>2015-11-08T13:18:36Z</time>
      </trkpt>
      <trkpt lat="48.93587" lon="0.27492">
        <ele>141.29</ele>
        <time>2015-11-08T13:18:37Z</time>
      </trkpt>
      <trkpt lat="48.9359" lon="0.27493">
        <ele>141.52</ele>
        <time>2015-11-08T13:18:38Z</time>
      </trkpt>
      <trkpt lat="48.93592" lon="0.27494">
        <ele>141.73</ele>
        <time>2015-11-08T13:18:39Z</time>
      </trkpt>
      <trkpt lat="48.93595" lon="0.27495">
        <ele>141.92</ele>
        <time>2015-11-08T13:18:40Z</time>
      </trkpt>
      <trkpt lat="48.93598" lon="0.27496">
        <ele>142.13</ele>
        <time>2015-11-08T13:18:41Z</time>
      </trkpt>
      <trkpt lat="48.93601" lon="0.27496">
        <ele>142.29</ele>
        <time>2015-11-08T13:18:42Z</time>
      </trkpt>
      <trkpt lat="48.93606" lon="0.27496">
        <ele>142.54</ele>
        <time>2015-11-08T13:18:44Z</time>
      </trkpt>
      <trkpt lat="48.93611" lon="0.27496">
        <ele>142.6</ele>
        <time>2015-11-08T13:18:46Z</time>
      </trkpt>
      <trkpt lat="48.93616" lon="0.27496">
        <ele>140.33</ele>
        <time>2015-11-08T13:18:48Z</time>
      </trkpt>
      <trkpt lat="48.93621" lon="0.27497">
        <ele>138</ele>
        <time>2015-11-08T13:18:50Z</time>
      </trkpt>
      <trkpt lat="48.93624" lon="0.27498">
        <ele>136.77</ele>
        <time>2015-11-08T13:18:51Z</time>
      </trkpt>
      <trkpt lat="48.93627" lon="0.27499">
        <ele>135.51</ele>
        <time>2015-11-08T13:18:52Z</time>
      </trkpt>
      <trkpt lat="48.9363" lon="0.275">
        <ele>134.26</ele>
        <time>2015-11-08T13:18:53Z</time>
      </trkpt>
      <trkpt lat="48.93633" lon="0.275">
        <ele>132.95</ele>
        <time>2015-11-08T13:18:54Z</time>
      </trkpt>
      <trkpt lat="48.93635" lon="0.27501">
        <ele>131.72</ele>
        <time>2015-11-08T13:18:55Z</time>
      </trkpt>
      <trkpt lat="48.93638" lon="0.27502">
        <ele>130.54</ele>
        <time>2015-11-08T13:18:56Z</time>
      </trkpt>
      <trkpt lat="48.93641" lon="0.27503">
        <ele>131.09</ele>
        <time>2015-11-08T13:18:57Z</time>
      </trkpt>
      <trkpt lat="48.93644" lon="0.27505">
        <ele>131.9</ele>
        <time>2015-11-08T13:18:58Z</time>
      </trkpt>
      <trkpt lat="48.93647" lon="0.27505">
        <ele>132.7</ele>
        <time>2015-11-08T13:18:59Z</time>
      </trkpt>
      <trkpt lat="48.9365" lon="0.27507">
        <ele>133.51</ele>
        <time>2015-11-08T13:19:00Z</time>
      </trkpt>
      <trkpt lat="48.93653" lon="0.27508">
        <ele>134.37</ele>
        <time>2015-11-08T13:19:01Z</time>
      </trkpt>
      <trkpt lat="48.93657" lon="0.27509">
        <ele>135.17</ele>
        <time>2015-11-08T13:19:02Z</time>
      </trkpt>
      <trkpt lat="48.9366" lon="0.27511">
        <ele>135.96</ele>
        <time>2015-11-08T13:19:03Z</time>
      </trkpt>
      <trkpt lat="48.93663" lon="0.27512">
        <ele>136.68</ele>
        <time>2015-11-08T13:19:04Z</time>
      </trkpt>
      <trkpt lat="48.93666" lon="0.27513">
        <ele>137.34</ele>
        <time>2015-11-08T13:19:05Z</time>
      </trkpt>
      <trkpt lat="48.93669" lon="0.27514">
        <ele>137.2</ele>
        <time>2015-11-08T13:19:06Z</time>
      </trkpt>
      <trkpt lat="48.93672" lon="0.27514">
        <ele>136.83</ele>
        <time>2015-11-08T13:19:07Z</time>
      </trkpt>
      <trkpt lat="48.93675" lon="0.27515">
        <ele>136.5</ele>
        <time>2015-11-08T13:19:08Z</time>
      </trkpt>
      <trkpt lat="48.93678" lon="0.27515">
        <ele>136.22</ele>
        <time>2015-11-08T13:19:09Z</time>
      </trkpt>
      <trkpt lat="48.93681" lon="0.27516">
        <ele>136</ele>
        <time>2015-11-08T13:19:10Z</time>
      </trkpt>
      <trkpt lat="48.93684" lon="0.27518">
        <ele>135.83</ele>
        <time>2015-11-08T13:19:11Z</time>
      </trkpt>
      <trkpt lat="48.93688" lon="0.27519">
        <ele>135.8</ele>
        <time>2015-11-08T13:19:12Z</time>
      </trkpt>
      <trkpt lat="48.93691" lon="0.27521">
        <ele>135.87</ele>
        <time>2015-11-08T13:19:13Z</time>
      </trkpt>
      <trkpt lat="48.93694" lon="0.27523">
        <ele>135.98</ele>
        <time>2015-11-08T13:19:14Z</time>
      </trkpt>
      <trkpt lat="48.93698" lon="0.27524">
        <ele>136.03</ele>
        <time>2015-11-08T13:19:15Z</time>
      </trkpt>
      <trkpt lat="48.93701" lon="0.27525">
        <ele>136.01</ele>
        <time>2015-11-08T13:19:16Z</time>
      </trkpt>
      <trkpt lat="48.93704" lon="0.27526">
        <ele>135.94</ele>
        <time>2015-11-08T13:19:17Z</time>
      </trkpt>
      <trkpt lat="48.93707" lon="0.27527">
        <ele>135.92</ele>
        <time>2015-11-08T13:19:18Z</time>
      </trkpt>
      <trkpt lat="48.9371" lon="0.27528">
        <ele>135.83</ele>
        <time>2015-11-08T13:19:19Z</time>
      </trkpt>
      <trkpt lat="48.93713" lon="0.27528">
        <ele>135.68</ele>
        <time>2015-11-08T13:19:20Z</time>
      </trkpt>
      <trkpt lat="48.93716" lon="0.27528">
        <ele>135.49</ele>
        <time>2015-11-08T13:19:21Z</time>
      </trkpt>
      <trkpt lat="48.93718" lon="0.27529">
        <ele>135.35</ele>
        <time>2015-11-08T13:19:22Z</time>
      </trkpt>
      <trkpt lat="48.93721" lon="0.2753">
        <ele>135.25</ele>
        <time>2015-11-08T13:19:23Z</time>
      </trkpt>
      <trkpt lat="48.93724" lon="0.27532">
        <ele>135.32</ele>
        <time>2015-11-08T13:19:24Z</time>
      </trkpt>
      <trkpt lat="48.93727" lon="0.27533">
        <ele>135.46</ele>
        <time>2015-11-08T13:19:25Z</time>
      </trkpt>
      <trkpt lat="48.93731" lon="0.27534">
        <ele>135.61</ele>
        <time>2015-11-08T13:19:26Z</time>
      </trkpt>
      <trkpt lat="48.93734" lon="0.27535">
        <ele>135.75</ele>
        <time>2015-11-08T13:19:27Z</time>
      </trkpt>
      <trkpt lat="48.93737" lon="0.27536">
        <ele>135.87</ele>
        <time>2015-11-08T13:19:28Z</time>
      </trkpt>
      <trkpt lat="48.9374" lon="0.27536">
        <ele>135.98</ele>
        <time>2015-11-08T13:19:29Z</time>
      </trkpt>
      <trkpt lat="48.93743" lon="0.27537">
        <ele>136.14</ele>
        <time>2015-11-08T13:19:30Z</time>
      </trkpt>
      <trkpt lat="48.93746" lon="0.27538">
        <ele>136.38</ele>
        <time>2015-11-08T13:19:31Z</time>
      </trkpt>
      <trkpt lat="48.93749" lon="0.27539">
        <ele>136.6</ele>
        <time>2015-11-08T13:19:32Z</time>
      </trkpt>
      <trkpt lat="48.93752" lon="0.2754">
        <ele>137.06</ele>
        <time>2015-11-08T13:19:33Z</time>
      </trkpt>
      <trkpt lat="48.93755" lon="0.27541">
        <ele>137.68</ele>
        <time>2015-11-08T13:19:34Z</time>
      </trkpt>
      <trkpt lat="48.93758" lon="0.27542">
        <ele>138.35</ele>
        <time>2015-11-08T13:19:35Z</time>
      </trkpt>
      <trkpt lat="48.93761" lon="0.27543">
        <ele>139.08</ele>
        <time>2015-11-08T13:19:36Z</time>
      </trkpt>
      <trkpt lat="48.93764" lon="0.27545">
        <ele>139.86</ele>
        <time>2015-11-08T13:19:37Z</time>
      </trkpt>
      <trkpt lat="48.93767" lon="0.27546">
        <ele>140.66</ele>
        <time>2015-11-08T13:19:38Z</time>
      </trkpt>
      <trkpt lat="48.93769" lon="0.27547">
        <ele>141.38</ele>
        <time>2015-11-08T13:19:39Z</time>
      </trkpt>
      <trkpt lat="48.93775" lon="0.27549">
        <ele>142.71</ele>
        <time>2015-11-08T13:19:41Z</time>
      </trkpt>
      <trkpt lat="48.93778" lon="0.2755">
        <ele>143.49</ele>
        <time>2015-11-08T13:19:42Z</time>
      </trkpt>
      <trkpt lat="48.93781" lon="0.2755">
        <ele>143.48</ele>
        <time>2015-11-08T13:19:43Z</time>
      </trkpt>
      <trkpt lat="48.93784" lon="0.27551">
        <ele>143.45</ele>
        <time>2015-11-08T13:19:44Z</time>
      </trkpt>
      <trkpt lat="48.93787" lon="0.27552">
        <ele>143.43</ele>
        <time>2015-11-08T13:19:45Z</time>
      </trkpt>
      <trkpt lat="48.9379" lon="0.27553">
        <ele>143.51</ele>
        <time>2015-11-08T13:19:46Z</time>
      </trkpt>
      <trkpt lat="48.93793" lon="0.27554">
        <ele>143.59</ele>
        <time>2015-11-08T13:19:47Z</time>
      </trkpt>
      <trkpt lat="48.93796" lon="0.27556">
        <ele>143.69</ele>
        <time>2015-11-08T13:19:48Z</time>
      </trkpt>
      <trkpt lat="48.93799" lon="0.27557">
        <ele>143.62</ele>
        <time>2015-11-08T13:19:49Z</time>
      </trkpt>
      <trkpt lat="48.93803" lon="0.27558">
        <ele>143.55</ele>
        <time>2015-11-08T13:19:50Z</time>
      </trkpt>
      <trkpt lat="48.93806" lon="0.27559">
        <ele>143.44</ele>
        <time>2015-11-08T13:19:51Z</time>
      </trkpt>
      <trkpt lat="48.93809" lon="0.2756">
        <ele>142.97</ele>
        <time>2015-11-08T13:19:52Z</time>
      </trkpt>
      <trkpt lat="48.93813" lon="0.27561">
        <ele>142.43</ele>
        <time>2015-11-08T13:19:53Z</time>
      </trkpt>
      <trkpt lat="48.93817" lon="0.27563">
        <ele>141.88</ele>
        <time>2015-11-08T13:19:54Z</time>
      </trkpt>
      <trkpt lat="48.93821" lon="0.27564">
        <ele>141.31</ele>
        <time>2015-11-08T13:19:55Z</time>
      </trkpt>
      <trkpt lat="48.93824" lon="0.27565">
        <ele>140.8</ele>
        <time>2015-11-08T13:19:56Z</time>
      </trkpt>
      <trkpt lat="48.93828" lon="0.27566">
        <ele>140.47</ele>
        <time>2015-11-08T13:19:57Z</time>
      </trkpt>
      <trkpt lat="48.93831" lon="0.27568">
        <ele>140.21</ele>
        <time>2015-11-08T13:19:58Z</time>
      </trkpt>
      <trkpt lat="48.93834" lon="0.27569">
        <ele>139.78</ele>
        <time>2015-11-08T13:19:59Z</time>
      </trkpt>
      <trkpt lat="48.93836" lon="0.27569">
        <ele>139.41</ele>
        <time>2015-11-08T13:20:00Z</time>
      </trkpt>
      <trkpt lat="48.93839" lon="0.27569">
        <ele>139.01</ele>
        <time>2015-11-08T13:20:01Z</time>
      </trkpt>
      <trkpt lat="48.93842" lon="0.27569">
        <ele>138.55</ele>
        <time>2015-11-08T13:20:02Z</time>
      </trkpt>
      <trkpt lat="48.93845" lon="0.27569">
        <ele>138.12</ele>
        <time>2015-11-08T13:20:03Z</time>
      </trkpt>
      <trkpt lat="48.93848" lon="0.2757">
        <ele>137.74</ele>
        <time>2015-11-08T13:20:04Z</time>
      </trkpt>
      <trkpt lat="48.93851" lon="0.27571">
        <ele>137.38</ele>
        <time>2015-11-08T13:20:05Z</time>
      </trkpt>
      <trkpt lat="48.93853" lon="0.27571">
        <ele>136.98</ele>
        <time>2015-11-08T13:20:06Z</time>
      </trkpt>
      <trkpt lat="48.93856" lon="0.27572">
        <ele>136.62</ele>
        <time>2015-11-08T13:20:07Z</time>
      </trkpt>
      <trkpt lat="48.93859" lon="0.27574">
        <ele>136.26</ele>
        <time>2015-11-08T13:20:08Z</time>
      </trkpt>
      <trkpt lat="48.93863" lon="0.27575">
        <ele>136.27</ele>
        <time>2015-11-08T13:20:09Z</time>
      </trkpt>
      <trkpt lat="48.93866" lon="0.27577">
        <ele>136.74</ele>
        <time>2015-11-08T13:20:10Z</time>
      </trkpt>
      <trkpt lat="48.93869" lon="0.27578">
        <ele>137.13</ele>
        <time>2015-11-08T13:20:11Z</time>
      </trkpt>
      <trkpt lat="48.93873" lon="0.27579">
        <ele>137.52</ele>
        <time>2015-11-08T13:20:12Z</time>
      </trkpt>
      <trkpt lat="48.93876" lon="0.27581">
        <ele>137.9</ele>
        <time>2015-11-08T13:20:13Z</time>
      </trkpt>
      <trkpt lat="48.93879" lon="0.27583">
        <ele>138.23</ele>
        <time>2015-11-08T13:20:14Z</time>
      </trkpt>
      <trkpt lat="48.93882" lon="0.27584">
        <ele>138.61</ele>
        <time>2015-11-08T13:20:15Z</time>
      </trkpt>
      <trkpt lat="48.93885" lon="0.27586">
        <ele>139.03</ele>
        <time>2015-11-08T13:20:16Z</time>
      </trkpt>
      <trkpt lat="48.93888" lon="0.27587">
        <ele>139.43</ele>
        <time>2015-11-08T13:20:17Z</time>
      </trkpt>
      <trkpt lat="48.93891" lon="0.27588">
        <ele>139.38</ele>
        <time>2015-11-08T13:20:18Z</time>
      </trkpt>
      <trkpt lat="48.93895" lon="0.27589">
        <ele>139.16</ele>
        <time>2015-11-08T13:20:19Z</time>
      </trkpt>
      <trkpt lat="48.93898" lon="0.2759">
        <ele>138.87</ele>
        <time>2015-11-08T13:20:20Z</time>
      </trkpt>
      <trkpt lat="48.93901" lon="0.27592">
        <ele>138.58</ele>
        <time>2015-11-08T13:20:21Z</time>
      </trkpt>
      <trkpt lat="48.93905" lon="0.27593">
        <ele>138.24</ele>
        <time>2015-11-08T13:20:22Z</time>
      </trkpt>
      <trkpt lat="48.93908" lon="0.27594">
        <ele>137.86</ele>
        <time>2015-11-08T13:20:23Z</time>
      </trkpt>
      <trkpt lat="48.93912" lon="0.27595">
        <ele>137.48</ele>
        <time>2015-11-08T13:20:24Z</time>
      </trkpt>
      <trkpt lat="48.93915" lon="0.27596">
        <ele>137.09</ele>
        <time>2015-11-08T13:20:25Z</time>
      </trkpt>
      <trkpt lat="48.93919" lon="0.27597">
        <ele>136.95</ele>
        <time>2015-11-08T13:20:26Z</time>
      </trkpt>
      <trkpt lat="48.93922" lon="0.27599">
        <ele>136.97</ele>
        <time>2015-11-08T13:20:27Z</time>
      </trkpt>
      <trkpt lat="48.93926" lon="0.276">
        <ele>136.94</ele>
        <time>2015-11-08T13:20:28Z</time>
      </trkpt>
      <trkpt lat="48.93929" lon="0.27602">
        <ele>136.87</ele>
        <time>2015-11-08T13:20:29Z</time>
      </trkpt>
      <trkpt lat="48.93933" lon="0.27603">
        <ele>136.76</ele>
        <time>2015-11-08T13:20:30Z</time>
      </trkpt>
      <trkpt lat="48.93936" lon="0.27604">
        <ele>136.62</ele>
        <time>2015-11-08T13:20:31Z</time>
      </trkpt>
      <trkpt lat="48.9394" lon="0.27605">
        <ele>136.45</ele>
        <time>2015-11-08T13:20:32Z</time>
      </trkpt>
      <trkpt lat="48.93944" lon="0.27606">
        <ele>136.24</ele>
        <time>2015-11-08T13:20:33Z</time>
      </trkpt>
      <trkpt lat="48.93947" lon="0.27607">
        <ele>135.59</ele>
        <time>2015-11-08T13:20:34Z</time>
      </trkpt>
      <trkpt lat="48.93951" lon="0.27608">
        <ele>134.75</ele>
        <time>2015-11-08T13:20:35Z</time>
      </trkpt>
      <trkpt lat="48.93955" lon="0.2761">
        <ele>133.89</ele>
        <time>2015-11-08T13:20:36Z</time>
      </trkpt>
      <trkpt lat="48.93958" lon="0.27611">
        <ele>133.01</ele>
        <time>2015-11-08T13:20:37Z</time>
      </trkpt>
      <trkpt lat="48.93962" lon="0.27611">
        <ele>132.17</ele>
        <time>2015-11-08T13:20:38Z</time>
      </trkpt>
      <trkpt lat="48.93966" lon="0.27612">
        <ele>131.35</ele>
        <time>2015-11-08T13:20:39Z</time>
      </trkpt>
      <trkpt lat="48.9397" lon="0.27612">
        <ele>130.51</ele>
        <time>2015-11-08T13:20:40Z</time>
      </trkpt>
      <trkpt lat="48.93974" lon="0.27612">
        <ele>129.95</ele>
        <time>2015-11-08T13:20:41Z</time>
      </trkpt>
      <trkpt lat="48.93978" lon="0.27613">
        <ele>129.68</ele>
        <time>2015-11-08T13:20:42Z</time>
      </trkpt>
      <trkpt lat="48.93983" lon="0.27613">
        <ele>129.42</ele>
        <time>2015-11-08T13:20:43Z</time>
      </trkpt>
      <trkpt lat="48.93987" lon="0.27613">
        <ele>129.14</ele>
        <time>2015-11-08T13:20:44Z</time>
      </trkpt>
      <trkpt lat="48.93995" lon="0.27612">
        <ele>128.39</ele>
        <time>2015-11-08T13:20:45Z</time>
      </trkpt>
      <trkpt lat="48.94001" lon="0.27612">
        <ele>127.99</ele>
        <time>2015-11-08T13:20:46Z</time>
      </trkpt>
      <trkpt lat="48.94006" lon="0.27611">
        <ele>127.62</ele>
        <time>2015-11-08T13:20:47Z</time>
      </trkpt>
      <trkpt lat="48.94011" lon="0.2761">
        <ele>127.22</ele>
        <time>2015-11-08T13:20:48Z</time>
      </trkpt>
      <trkpt lat="48.94018" lon="0.27611">
        <ele>126.73</ele>
        <time>2015-11-08T13:20:49Z</time>
      </trkpt>
      <trkpt lat="48.94024" lon="0.2761">
        <ele>126.26</ele>
        <time>2015-11-08T13:20:50Z</time>
      </trkpt>
      <trkpt lat="48.9403" lon="0.2761">
        <ele>126.32</ele>
        <time>2015-11-08T13:20:51Z</time>
      </trkpt>
      <trkpt lat="48.94037" lon="0.2761">
        <ele>127.27</ele>
        <time>2015-11-08T13:20:52Z</time>
      </trkpt>
      <trkpt lat="48.94044" lon="0.27609">
        <ele>128.19</ele>
        <time>2015-11-08T13:20:53Z</time>
      </trkpt>
      <trkpt lat="48.9405" lon="0.27608">
        <ele>129.07</ele>
        <time>2015-11-08T13:20:54Z</time>
      </trkpt>
      <trkpt lat="48.94057" lon="0.27605">
        <ele>129.56</ele>
        <time>2015-11-08T13:20:55Z</time>
      </trkpt>
      <trkpt lat="48.94064" lon="0.27602">
        <ele>129.35</ele>
        <time>2015-11-08T13:20:56Z</time>
      </trkpt>
      <trkpt lat="48.94071" lon="0.27597">
        <ele>129.29</ele>
        <time>2015-11-08T13:20:57Z</time>
      </trkpt>
      <trkpt lat="48.94079" lon="0.27592">
        <ele>129.51</ele>
        <time>2015-11-08T13:20:58Z</time>
      </trkpt>
      <trkpt lat="48.94087" lon="0.27588">
        <ele>129.21</ele>
        <time>2015-11-08T13:20:59Z</time>
      </trkpt>
      <trkpt lat="48.94095" lon="0.27583">
        <ele>127.54</ele>
        <time>2015-11-08T13:21:00Z</time>
      </trkpt>
      <trkpt lat="48.94102" lon="0.27579">
        <ele>125.8</ele>
        <time>2015-11-08T13:21:01Z</time>
      </trkpt>
      <trkpt lat="48.94111" lon="0.27574">
        <ele>123.74</ele>
        <time>2015-11-08T13:21:02Z</time>
      </trkpt>
      <trkpt lat="48.94119" lon="0.27569">
        <ele>123.65</ele>
        <time>2015-11-08T13:21:03Z</time>
      </trkpt>
      <trkpt lat="48.94126" lon="0.27564">
        <ele>124.47</ele>
        <time>2015-11-08T13:21:04Z</time>
      </trkpt>
      <trkpt lat="48.94135" lon="0.27559">
        <ele>126.46</ele>
        <time>2015-11-08T13:21:05Z</time>
      </trkpt>
      <trkpt lat="48.94143" lon="0.27553">
        <ele>127.87</ele>
        <time>2015-11-08T13:21:06Z</time>
      </trkpt>
      <trkpt lat="48.9415" lon="0.27547">
        <ele>127.43</ele>
        <time>2015-11-08T13:21:07Z</time>
      </trkpt>
      <trkpt lat="48.94157" lon="0.27541">
        <ele>126.7</ele>
        <time>2015-11-08T13:21:08Z</time>
      </trkpt>
      <trkpt lat="48.94164" lon="0.27534">
        <ele>125.63</ele>
        <time>2015-11-08T13:21:09Z</time>
      </trkpt>
      <trkpt lat="48.94172" lon="0.27528">
        <ele>125.19</ele>
        <time>2015-11-08T13:21:10Z</time>
      </trkpt>
      <trkpt lat="48.94179" lon="0.27521">
        <ele>125.15</ele>
        <time>2015-11-08T13:21:11Z</time>
      </trkpt>
      <trkpt lat="48.94186" lon="0.27514">
        <ele>124.27</ele>
        <time>2015-11-08T13:21:12Z</time>
      </trkpt>
      <trkpt lat="48.94193" lon="0.27508">
        <ele>122.58</ele>
        <time>2015-11-08T13:21:13Z</time>
      </trkpt>
      <trkpt lat="48.942" lon="0.27501">
        <ele>121.01</ele>
        <time>2015-11-08T13:21:14Z</time>
      </trkpt>
      <trkpt lat="48.94206" lon="0.27496">
        <ele>121.37</ele>
        <time>2015-11-08T13:21:15Z</time>
      </trkpt>
      <trkpt lat="48.94212" lon="0.27489">
        <ele>122.09</ele>
        <time>2015-11-08T13:21:16Z</time>
      </trkpt>
      <trkpt lat="48.94219" lon="0.27483">
        <ele>122.21</ele>
        <time>2015-11-08T13:21:17Z</time>
      </trkpt>
      <trkpt lat="48.94226" lon="0.27479">
        <ele>121.79</ele>
        <time>2015-11-08T13:21:18Z</time>
      </trkpt>
      <trkpt lat="48.94234" lon="0.27475">
        <ele>121.11</ele>
        <time>2015-11-08T13:21:19Z</time>
      </trkpt>
      <trkpt lat="48.9424" lon="0.27471">
        <ele>120.62</ele>
        <time>2015-11-08T13:21:20Z</time>
      </trkpt>
      <trkpt lat="48.94246" lon="0.27466">
        <ele>120.2</ele>
        <time>2015-11-08T13:21:21Z</time>
      </trkpt>
      <trkpt lat="48.94252" lon="0.27462">
        <ele>120.02</ele>
        <time>2015-11-08T13:21:22Z</time>
      </trkpt>
      <trkpt lat="48.9426" lon="0.27457">
        <ele>120.18</ele>
        <time>2015-11-08T13:21:23Z</time>
      </trkpt>
      <trkpt lat="48.94266" lon="0.27452">
        <ele>120.48</ele>
        <time>2015-11-08T13:21:24Z</time>
      </trkpt>
      <trkpt lat="48.94273" lon="0.27448">
        <ele>120.68</ele>
        <time>2015-11-08T13:21:25Z</time>
      </trkpt>
      <trkpt lat="48.94279" lon="0.27445">
        <ele>120.96</ele>
        <time>2015-11-08T13:21:26Z</time>
      </trkpt>
      <trkpt lat="48.94285" lon="0.2744">
        <ele>121.19</ele>
        <time>2015-11-08T13:21:27Z</time>
      </trkpt>
      <trkpt lat="48.94291" lon="0.27436">
        <ele>121.18</ele>
        <time>2015-11-08T13:21:28Z</time>
      </trkpt>
      <trkpt lat="48.94297" lon="0.27432">
        <ele>120.97</ele>
        <time>2015-11-08T13:21:29Z</time>
      </trkpt>
      <trkpt lat="48.94303" lon="0.27428">
        <ele>120.57</ele>
        <time>2015-11-08T13:21:30Z</time>
      </trkpt>
      <trkpt lat="48.94309" lon="0.27425">
        <ele>121.04</ele>
        <time>2015-11-08T13:21:31Z</time>
      </trkpt>
      <trkpt lat="48.94316" lon="0.27422">
        <ele>122.27</ele>
        <time>2015-11-08T13:21:32Z</time>
      </trkpt>
      <trkpt lat="48.94322" lon="0.27419">
        <ele>123.55</ele>
        <time>2015-11-08T13:21:33Z</time>
      </trkpt>
      <trkpt lat="48.94327" lon="0.27415">
        <ele>124.38</ele>
        <time>2015-11-08T13:21:34Z</time>
      </trkpt>
      <trkpt lat="48.94334" lon="0.27412">
        <ele>124.55</ele>
        <time>2015-11-08T13:21:35Z</time>
      </trkpt>
      <trkpt lat="48.94341" lon="0.27412">
        <ele>123.74</ele>
        <time>2015-11-08T13:21:36Z</time>
      </trkpt>
      <trkpt lat="48.94346" lon="0.27409">
        <ele>122.75</ele>
        <time>2015-11-08T13:21:37Z</time>
      </trkpt>
      <trkpt lat="48.94352" lon="0.27407">
        <ele>122.24</ele>
        <time>2015-11-08T13:21:38Z</time>
      </trkpt>
      <trkpt lat="48.94358" lon="0.27405">
        <ele>122.03</ele>
        <time>2015-11-08T13:21:39Z</time>
      </trkpt>
      <trkpt lat="48.94365" lon="0.27403">
        <ele>121.53</ele>
        <time>2015-11-08T13:21:40Z</time>
      </trkpt>
      <trkpt lat="48.94371" lon="0.27402">
        <ele>120.75</ele>
        <time>2015-11-08T13:21:41Z</time>
      </trkpt>
      <trkpt lat="48.94377" lon="0.274">
        <ele>119.84</ele>
        <time>2015-11-08T13:21:42Z</time>
      </trkpt>
      <trkpt lat="48.94383" lon="0.27398">
        <ele>118.84</ele>
        <time>2015-11-08T13:21:43Z</time>
      </trkpt>
      <trkpt lat="48.94388" lon="0.27397">
        <ele>118.05</ele>
        <time>2015-11-08T13:21:44Z</time>
      </trkpt>
      <trkpt lat="48.94395" lon="0.27396">
        <ele>118.2</ele>
        <time>2015-11-08T13:21:45Z</time>
      </trkpt>
      <trkpt lat="48.944" lon="0.27395">
        <ele>118.53</ele>
        <time>2015-11-08T13:21:46Z</time>
      </trkpt>
      <trkpt lat="48.94406" lon="0.27394">
        <ele>119.05</ele>
        <time>2015-11-08T13:21:47Z</time>
      </trkpt>
      <trkpt lat="48.9441" lon="0.27394">
        <ele>119.43</ele>
        <time>2015-11-08T13:21:48Z</time>
      </trkpt>
      <trkpt lat="48.94416" lon="0.27394">
        <ele>119.91</ele>
        <time>2015-11-08T13:21:49Z</time>
      </trkpt>
      <trkpt lat="48.94422" lon="0.27393">
        <ele>118.72</ele>
        <time>2015-11-08T13:21:50Z</time>
      </trkpt>
      <trkpt lat="48.94427" lon="0.27393">
        <ele>117.42</ele>
        <time>2015-11-08T13:21:51Z</time>
      </trkpt>
      <trkpt lat="48.94432" lon="0.27393">
        <ele>116.12</ele>
        <time>2015-11-08T13:21:52Z</time>
      </trkpt>
      <trkpt lat="48.94438" lon="0.27393">
        <ele>114.83</ele>
        <time>2015-11-08T13:21:53Z</time>
      </trkpt>
      <trkpt lat="48.94443" lon="0.27394">
        <ele>113.97</ele>
        <time>2015-11-08T13:21:54Z</time>
      </trkpt>
      <trkpt lat="48.94448" lon="0.27394">
        <ele>113.3</ele>
        <time>2015-11-08T13:21:55Z</time>
      </trkpt>
      <trkpt lat="48.94452" lon="0.27395">
        <ele>113.23</ele>
        <time>2015-11-08T13:21:56Z</time>
      </trkpt>
      <trkpt lat="48.94457" lon="0.27395">
        <ele>113.06</ele>
        <time>2015-11-08T13:21:57Z</time>
      </trkpt>
      <trkpt lat="48.9446" lon="0.27395">
        <ele>112.74</ele>
        <time>2015-11-08T13:21:58Z</time>
      </trkpt>
      <trkpt lat="48.94465" lon="0.27395">
        <ele>112.46</ele>
        <time>2015-11-08T13:21:59Z</time>
      </trkpt>
      <trkpt lat="48.94468" lon="0.27395">
        <ele>112.24</ele>
        <time>2015-11-08T13:22:00Z</time>
      </trkpt>
      <trkpt lat="48.94472" lon="0.27394">
        <ele>112</ele>
        <time>2015-11-08T13:22:01Z</time>
      </trkpt>
      <trkpt lat="48.94476" lon="0.27393">
        <ele>112.21</ele>
        <time>2015-11-08T13:22:02Z</time>
      </trkpt>
      <trkpt lat="48.9448" lon="0.27394">
        <ele>112.4</ele>
        <time>2015-11-08T13:22:03Z</time>
      </trkpt>
      <trkpt lat="48.94484" lon="0.27393">
        <ele>112.63</ele>
        <time>2015-11-08T13:22:04Z</time>
      </trkpt>
      <trkpt lat="48.94487" lon="0.27394">
        <ele>112.78</ele>
        <time>2015-11-08T13:22:05Z</time>
      </trkpt>
      <trkpt lat="48.9449" lon="0.27392">
        <ele>113.1</ele>
        <time>2015-11-08T13:22:06Z</time>
      </trkpt>
      <trkpt lat="48.94493" lon="0.2739">
        <ele>113.41</ele>
        <time>2015-11-08T13:22:07Z</time>
      </trkpt>
      <trkpt lat="48.94497" lon="0.27389">
        <ele>113.81</ele>
        <time>2015-11-08T13:22:08Z</time>
      </trkpt>
      <trkpt lat="48.945" lon="0.27388">
        <ele>114.33</ele>
        <time>2015-11-08T13:22:09Z</time>
      </trkpt>
      <trkpt lat="48.94503" lon="0.27387">
        <ele>114.54</ele>
        <time>2015-11-08T13:22:10Z</time>
      </trkpt>
      <trkpt lat="48.94505" lon="0.27384">
        <ele>115.19</ele>
        <time>2015-11-08T13:25:59Z</time>
      </trkpt>
      <trkpt lat="48.94509" lon="0.27383">
        <ele>115.24</ele>
        <time>2015-11-08T13:26:02Z</time>
      </trkpt>
      <trkpt lat="48.94514" lon="0.27382">
        <ele>115.33</ele>
        <time>2015-11-08T13:26:04Z</time>
      </trkpt>
      <trkpt lat="48.94519" lon="0.27381">
        <ele>115.44</ele>
        <time>2015-11-08T13:26:06Z</time>
      </trkpt>
      <trkpt lat="48.94524" lon="0.27379">
        <ele>115.63</ele>
        <time>2015-11-08T13:26:08Z</time>
      </trkpt>
      <trkpt lat="48.94527" lon="0.27378">
        <ele>115.68</ele>
        <time>2015-11-08T13:26:09Z</time>
      </trkpt>
      <trkpt lat="48.9453" lon="0.27377">
        <ele>115.37</ele>
        <time>2015-11-08T13:26:10Z</time>
      </trkpt>
      <trkpt lat="48.94533" lon="0.27376">
        <ele>114.8</ele>
        <time>2015-11-08T13:26:11Z</time>
      </trkpt>
      <trkpt lat="48.94536" lon="0.27374">
        <ele>114.26</ele>
        <time>2015-11-08T13:26:12Z</time>
      </trkpt>
      <trkpt lat="48.94539" lon="0.27373">
        <ele>113.7</ele>
        <time>2015-11-08T13:26:13Z</time>
      </trkpt>
      <trkpt lat="48.94542" lon="0.27371">
        <ele>113.11</ele>
        <time>2015-11-08T13:26:14Z</time>
      </trkpt>
      <trkpt lat="48.94545" lon="0.2737">
        <ele>112.45</ele>
        <time>2015-11-08T13:26:15Z</time>
      </trkpt>
      <trkpt lat="48.94548" lon="0.27369">
        <ele>111.75</ele>
        <time>2015-11-08T13:26:16Z</time>
      </trkpt>
      <trkpt lat="48.94551" lon="0.27368">
        <ele>111.01</ele>
        <time>2015-11-08T13:26:17Z</time>
      </trkpt>
      <trkpt lat="48.94554" lon="0.27366">
        <ele>110.25</ele>
        <time>2015-11-08T13:26:18Z</time>
      </trkpt>
      <trkpt lat="48.94557" lon="0.27365">
        <ele>110.2</ele>
        <time>2015-11-08T13:26:19Z</time>
      </trkpt>
      <trkpt lat="48.9456" lon="0.27364">
        <ele>111.08</ele>
        <time>2015-11-08T13:26:20Z</time>
      </trkpt>
      <trkpt lat="48.94563" lon="0.27363">
        <ele>112.03</ele>
        <time>2015-11-08T13:26:21Z</time>
      </trkpt>
      <trkpt lat="48.94566" lon="0.27362">
        <ele>113.06</ele>
        <time>2015-11-08T13:26:22Z</time>
      </trkpt>
      <trkpt lat="48.9457" lon="0.2736">
        <ele>114.06</ele>
        <time>2015-11-08T13:26:23Z</time>
      </trkpt>
      <trkpt lat="48.94573" lon="0.27359">
        <ele>115</ele>
        <time>2015-11-08T13:26:24Z</time>
      </trkpt>
      <trkpt lat="48.94576" lon="0.27358">
        <ele>115.94</ele>
        <time>2015-11-08T13:26:25Z</time>
      </trkpt>
      <trkpt lat="48.94579" lon="0.27356">
        <ele>116.88</ele>
        <time>2015-11-08T13:26:26Z</time>
      </trkpt>
      <trkpt lat="48.94582" lon="0.27355">
        <ele>117.8</ele>
        <time>2015-11-08T13:26:27Z</time>
      </trkpt>
      <trkpt lat="48.94585" lon="0.27355">
        <ele>118.06</ele>
        <time>2015-11-08T13:26:28Z</time>
      </trkpt>
      <trkpt lat="48.94588" lon="0.27354">
        <ele>117.72</ele>
        <time>2015-11-08T13:26:29Z</time>
      </trkpt>
      <trkpt lat="48.94591" lon="0.27353">
        <ele>117.34</ele>
        <time>2015-11-08T13:26:30Z</time>
      </trkpt>
      <trkpt lat="48.94594" lon="0.27352">
        <ele>116.89</ele>
        <time>2015-11-08T13:26:31Z</time>
      </trkpt>
      <trkpt lat="48.94597" lon="0.2735">
        <ele>116.35</ele>
        <time>2015-11-08T13:26:32Z</time>
      </trkpt>
      <trkpt lat="48.946" lon="0.27349">
        <ele>115.73</ele>
        <time>2015-11-08T13:26:33Z</time>
      </trkpt>
      <trkpt lat="48.94604" lon="0.27348">
        <ele>115.01</ele>
        <time>2015-11-08T13:26:34Z</time>
      </trkpt>
      <trkpt lat="48.94607" lon="0.27347">
        <ele>114.11</ele>
        <time>2015-11-08T13:26:35Z</time>
      </trkpt>
      <trkpt lat="48.9461" lon="0.27345">
        <ele>113.13</ele>
        <time>2015-11-08T13:26:36Z</time>
      </trkpt>
      <trkpt lat="48.94614" lon="0.27344">
        <ele>112.28</ele>
        <time>2015-11-08T13:26:37Z</time>
      </trkpt>
      <trkpt lat="48.94617" lon="0.27343">
        <ele>111.64</ele>
        <time>2015-11-08T13:26:38Z</time>
      </trkpt>
      <trkpt lat="48.9462" lon="0.27341">
        <ele>111.1</ele>
        <time>2015-11-08T13:26:39Z</time>
      </trkpt>
      <trkpt lat="48.94623" lon="0.2734">
        <ele>110.68</ele>
        <time>2015-11-08T13:26:40Z</time>
      </trkpt>
      <trkpt lat="48.94626" lon="0.27339">
        <ele>110.33</ele>
        <time>2015-11-08T13:26:41Z</time>
      </trkpt>
      <trkpt lat="48.9463" lon="0.27338">
        <ele>110.06</ele>
        <time>2015-11-08T13:26:42Z</time>
      </trkpt>
      <trkpt lat="48.94633" lon="0.27337">
        <ele>109.88</ele>
        <time>2015-11-08T13:26:43Z</time>
      </trkpt>
      <trkpt lat="48.94636" lon="0.27336">
        <ele>109.81</ele>
        <time>2015-11-08T13:26:44Z</time>
      </trkpt>
      <trkpt lat="48.94639" lon="0.27335">
        <ele>109.85</ele>
        <time>2015-11-08T13:26:45Z</time>
      </trkpt>
      <trkpt lat="48.94643" lon="0.27334">
        <ele>110.06</ele>
        <time>2015-11-08T13:26:46Z</time>
      </trkpt>
      <trkpt lat="48.94646" lon="0.27334">
        <ele>110.24</ele>
        <time>2015-11-08T13:26:47Z</time>
      </trkpt>
      <trkpt lat="48.94649" lon="0.27333">
        <ele>110.42</ele>
        <time>2015-11-08T13:26:48Z</time>
      </trkpt>
      <trkpt lat="48.94652" lon="0.27332">
        <ele>110.59</ele>
        <time>2015-11-08T13:26:49Z</time>
      </trkpt>
      <trkpt lat="48.94656" lon="0.27331">
        <ele>110.73</ele>
        <time>2015-11-08T13:26:50Z</time>
      </trkpt>
      <trkpt lat="48.94659" lon="0.2733">
        <ele>110.85</ele>
        <time>2015-11-08T13:26:51Z</time>
      </trkpt>
      <trkpt lat="48.94662" lon="0.27329">
        <ele>110.94</ele>
        <time>2015-11-08T13:26:52Z</time>
      </trkpt>
      <trkpt lat="48.94666" lon="0.27328">
        <ele>110.99</ele>
        <time>2015-11-08T13:26:53Z</time>
      </trkpt>
      <trkpt lat="48.94669" lon="0.27327">
        <ele>111.34</ele>
        <time>2015-11-08T13:26:54Z</time>
      </trkpt>
      <trkpt lat="48.94673" lon="0.27326">
        <ele>111.75</ele>
        <time>2015-11-08T13:26:55Z</time>
      </trkpt>
      <trkpt lat="48.94676" lon="0.27325">
        <ele>112.16</ele>
        <time>2015-11-08T13:26:56Z</time>
      </trkpt>
      <trkpt lat="48.9468" lon="0.27325">
        <ele>112.56</ele>
        <time>2015-11-08T13:26:57Z</time>
      </trkpt>
      <trkpt lat="48.94683" lon="0.27324">
        <ele>112.96</ele>
        <time>2015-11-08T13:26:58Z</time>
      </trkpt>
      <trkpt lat="48.94687" lon="0.27324">
        <ele>113.38</ele>
        <time>2015-11-08T13:26:59Z</time>
      </trkpt>
      <trkpt lat="48.9469" lon="0.27325">
        <ele>113.82</ele>
        <time>2015-11-08T13:27:00Z</time>
      </trkpt>
      <trkpt lat="48.94693" lon="0.27327">
        <ele>114.32</ele>
        <time>2015-11-08T13:27:01Z</time>
      </trkpt>
      <trkpt lat="48.94695" lon="0.2733">
        <ele>114.87</ele>
        <time>2015-11-08T13:27:02Z</time>
      </trkpt>
      <trkpt lat="48.94696" lon="0.27334">
        <ele>115.34</ele>
        <time>2015-11-08T13:27:03Z</time>
      </trkpt>
      <trkpt lat="48.94694" lon="0.2734">
        <ele>115.5</ele>
        <time>2015-11-08T13:27:05Z</time>
      </trkpt>
      <trkpt lat="48.94692" lon="0.27342">
        <ele>115.2</ele>
        <time>2015-11-08T13:27:07Z</time>
      </trkpt>
      <trkpt lat="48.94689" lon="0.27344">
        <ele>114.88</ele>
        <time>2015-11-08T13:27:34Z</time>
      </trkpt>
      <trkpt lat="48.94688" lon="0.27348">
        <ele>114.89</ele>
        <time>2015-11-08T13:27:36Z</time>
      </trkpt>
      <trkpt lat="48.94687" lon="0.27353">
        <ele>115.03</ele>
        <time>2015-11-08T13:27:38Z</time>
      </trkpt>
      <trkpt lat="48.94686" lon="0.27359">
        <ele>115.17</ele>
        <time>2015-11-08T13:27:40Z</time>
      </trkpt>
      <trkpt lat="48.94685" lon="0.27365">
        <ele>115.23</ele>
        <time>2015-11-08T13:27:42Z</time>
      </trkpt>
      <trkpt lat="48.94683" lon="0.27372">
        <ele>115.24</ele>
        <time>2015-11-08T13:27:44Z</time>
      </trkpt>
      <trkpt lat="48.94681" lon="0.27378">
        <ele>115.25</ele>
        <time>2015-11-08T13:27:46Z</time>
      </trkpt>
      <trkpt lat="48.94656" lon="0.27434">
        <ele>115.94</ele>
        <time>2015-11-08T13:28:15Z</time>
      </trkpt>
      <trkpt lat="48.94656" lon="0.2743">
        <ele>115.44</ele>
        <time>2015-11-08T13:28:51Z</time>
      </trkpt>
      <trkpt lat="48.94658" lon="0.27426">
        <ele>115.14</ele>
        <time>2015-11-08T13:28:53Z</time>
      </trkpt>
      <trkpt lat="48.9466" lon="0.2742">
        <ele>114.69</ele>
        <time>2015-11-08T13:28:55Z</time>
      </trkpt>
      <trkpt lat="48.94661" lon="0.27416">
        <ele>114.43</ele>
        <time>2015-11-08T13:28:56Z</time>
      </trkpt>
      <trkpt lat="48.94663" lon="0.27413">
        <ele>114.39</ele>
        <time>2015-11-08T13:28:57Z</time>
      </trkpt>
      <trkpt lat="48.94665" lon="0.27409">
        <ele>114.45</ele>
        <time>2015-11-08T13:28:58Z</time>
      </trkpt>
      <trkpt lat="48.94666" lon="0.27406">
        <ele>114.53</ele>
        <time>2015-11-08T13:28:59Z</time>
      </trkpt>
      <trkpt lat="48.94668" lon="0.27402">
        <ele>114.63</ele>
        <time>2015-11-08T13:29:00Z</time>
      </trkpt>
      <trkpt lat="48.94669" lon="0.27398">
        <ele>114.7</ele>
        <time>2015-11-08T13:29:01Z</time>
      </trkpt>
      <trkpt lat="48.94672" lon="0.27392">
        <ele>114.92</ele>
        <time>2015-11-08T13:29:03Z</time>
      </trkpt>
      <trkpt lat="48.94675" lon="0.27387">
        <ele>115.04</ele>
        <time>2015-11-08T13:29:05Z</time>
      </trkpt>
      <trkpt lat="48.94678" lon="0.27381">
        <ele>115.02</ele>
        <time>2015-11-08T13:29:07Z</time>
      </trkpt>
      <trkpt lat="48.94681" lon="0.27374">
        <ele>115.11</ele>
        <time>2015-11-08T13:29:09Z</time>
      </trkpt>
      <trkpt lat="48.94684" lon="0.27368">
        <ele>115.24</ele>
        <time>2015-11-08T13:29:11Z</time>
      </trkpt>
      <trkpt lat="48.94686" lon="0.27361">
        <ele>115.25</ele>
        <time>2015-11-08T13:29:13Z</time>
      </trkpt>
      <trkpt lat="48.94688" lon="0.27354">
        <ele>115.15</ele>
        <time>2015-11-08T13:29:15Z</time>
      </trkpt>
      <trkpt lat="48.9469" lon="0.27347">
        <ele>115.09</ele>
        <time>2015-11-08T13:29:17Z</time>
      </trkpt>
      <trkpt lat="48.94692" lon="0.27343">
        <ele>115.22</ele>
        <time>2015-11-08T13:33:54Z</time>
      </trkpt>
      <trkpt lat="48.94694" lon="0.27337">
        <ele>115.16</ele>
        <time>2015-11-08T13:33:57Z</time>
      </trkpt>
      <trkpt lat="48.94697" lon="0.27332">
        <ele>115.26</ele>
        <time>2015-11-08T13:33:59Z</time>
      </trkpt>
      <trkpt lat="48.947" lon="0.27327">
        <ele>115.76</ele>
        <time>2015-11-08T13:34:01Z</time>
      </trkpt>
      <trkpt lat="48.94704" lon="0.27324">
        <ele>116.6</ele>
        <time>2015-11-08T13:34:03Z</time>
      </trkpt>
      <trkpt lat="48.94709" lon="0.27323">
        <ele>117.65</ele>
        <time>2015-11-08T13:34:05Z</time>
      </trkpt>
      <trkpt lat="48.94714" lon="0.27321">
        <ele>118.91</ele>
        <time>2015-11-08T13:34:07Z</time>
      </trkpt>
      <trkpt lat="48.94717" lon="0.27321">
        <ele>119.59</ele>
        <time>2015-11-08T13:34:08Z</time>
      </trkpt>
      <trkpt lat="48.94722" lon="0.27319">
        <ele>120.98</ele>
        <time>2015-11-08T13:34:10Z</time>
      </trkpt>
      <trkpt lat="48.94727" lon="0.27318">
        <ele>121</ele>
        <time>2015-11-08T13:34:12Z</time>
      </trkpt>
      <trkpt lat="48.94733" lon="0.27316">
        <ele>120.92</ele>
        <time>2015-11-08T13:34:14Z</time>
      </trkpt>
      <trkpt lat="48.94738" lon="0.27315">
        <ele>120.76</ele>
        <time>2015-11-08T13:34:16Z</time>
      </trkpt>
      <trkpt lat="48.94741" lon="0.27315">
        <ele>120.66</ele>
        <time>2015-11-08T13:34:17Z</time>
      </trkpt>
      <trkpt lat="48.94744" lon="0.27314">
        <ele>120.53</ele>
        <time>2015-11-08T13:34:18Z</time>
      </trkpt>
      <trkpt lat="48.94747" lon="0.27313">
        <ele>120.4</ele>
        <time>2015-11-08T13:34:19Z</time>
      </trkpt>
      <trkpt lat="48.9475" lon="0.27312">
        <ele>120.23</ele>
        <time>2015-11-08T13:34:20Z</time>
      </trkpt>
      <trkpt lat="48.94753" lon="0.27311">
        <ele>120.54</ele>
        <time>2015-11-08T13:34:21Z</time>
      </trkpt>
      <trkpt lat="48.94756" lon="0.27309">
        <ele>120.88</ele>
        <time>2015-11-08T13:34:22Z</time>
      </trkpt>
      <trkpt lat="48.94758" lon="0.27309">
        <ele>121.26</ele>
        <time>2015-11-08T13:34:23Z</time>
      </trkpt>
      <trkpt lat="48.94761" lon="0.27308">
        <ele>121.65</ele>
        <time>2015-11-08T13:34:24Z</time>
      </trkpt>
      <trkpt lat="48.94767" lon="0.27306">
        <ele>122.38</ele>
        <time>2015-11-08T13:34:26Z</time>
      </trkpt>
      <trkpt lat="48.94771" lon="0.27304">
        <ele>123.09</ele>
        <time>2015-11-08T13:34:28Z</time>
      </trkpt>
      <trkpt lat="48.94776" lon="0.27303">
        <ele>123.69</ele>
        <time>2015-11-08T13:34:30Z</time>
      </trkpt>
      <trkpt lat="48.94779" lon="0.27304">
        <ele>123.86</ele>
        <time>2015-11-08T13:34:32Z</time>
      </trkpt>
      <trkpt lat="48.9478" lon="0.273">
        <ele>123.57</ele>
        <time>2015-11-08T13:34:46Z</time>
      </trkpt>
      <trkpt lat="48.94783" lon="0.27297">
        <ele>123.11</ele>
        <time>2015-11-08T13:34:50Z</time>
      </trkpt>
      <trkpt lat="48.94785" lon="0.27294">
        <ele>122.68</ele>
        <time>2015-11-08T13:34:53Z</time>
      </trkpt>
      <trkpt lat="48.94788" lon="0.2729">
        <ele>122.24</ele>
        <time>2015-11-08T13:34:56Z</time>
      </trkpt>
      <trkpt lat="48.9479" lon="0.27288">
        <ele>121.84</ele>
        <time>2015-11-08T13:34:58Z</time>
      </trkpt>
      <trkpt lat="48.94792" lon="0.27286">
        <ele>121.38</ele>
        <time>2015-11-08T13:35:00Z</time>
      </trkpt>
      <trkpt lat="48.94795" lon="0.27284">
        <ele>120.88</ele>
        <time>2015-11-08T13:35:42Z</time>
      </trkpt>
      <trkpt lat="48.94793" lon="0.27287">
        <ele>121.28</ele>
        <time>2015-11-08T13:36:54Z</time>
      </trkpt>
      <trkpt lat="48.9479" lon="0.27286">
        <ele>121.85</ele>
        <time>2015-11-08T13:36:57Z</time>
      </trkpt>
      <trkpt lat="48.94785" lon="0.27283">
        <ele>122.65</ele>
        <time>2015-11-08T13:36:59Z</time>
      </trkpt>
      <trkpt lat="48.94783" lon="0.27279">
        <ele>123.01</ele>
        <time>2015-11-08T13:37:00Z</time>
      </trkpt>
      <trkpt lat="48.94782" lon="0.27274">
        <ele>123.2</ele>
        <time>2015-11-08T13:37:01Z</time>
      </trkpt>
      <trkpt lat="48.94782" lon="0.27269">
        <ele>123.28</ele>
        <time>2015-11-08T13:37:02Z</time>
      </trkpt>
      <trkpt lat="48.94782" lon="0.27264">
        <ele>123.29</ele>
        <time>2015-11-08T13:37:03Z</time>
      </trkpt>
      <trkpt lat="48.94782" lon="0.27259">
        <ele>123.28</ele>
        <time>2015-11-08T13:37:04Z</time>
      </trkpt>
      <trkpt lat="48.94782" lon="0.27253">
        <ele>123.3</ele>
        <time>2015-11-08T13:37:05Z</time>
      </trkpt>
      <trkpt lat="48.94782" lon="0.27247">
        <ele>123.46</ele>
        <time>2015-11-08T13:37:06Z</time>
      </trkpt>
      <trkpt lat="48.94782" lon="0.27242">
        <ele>123.86</ele>
        <time>2015-11-08T13:37:07Z</time>
      </trkpt>
      <trkpt lat="48.94781" lon="0.27235">
        <ele>124.31</ele>
        <time>2015-11-08T13:37:08Z</time>
      </trkpt>
      <trkpt lat="48.94781" lon="0.27229">
        <ele>124.82</ele>
        <time>2015-11-08T13:37:09Z</time>
      </trkpt>
      <trkpt lat="48.94781" lon="0.27223">
        <ele>125.35</ele>
        <time>2015-11-08T13:37:10Z</time>
      </trkpt>
      <trkpt lat="48.9478" lon="0.27217">
        <ele>125.7</ele>
        <time>2015-11-08T13:37:11Z</time>
      </trkpt>
      <trkpt lat="48.9478" lon="0.27211">
        <ele>126</ele>
        <time>2015-11-08T13:37:12Z</time>
      </trkpt>
      <trkpt lat="48.94779" lon="0.27205">
        <ele>126.27</ele>
        <time>2015-11-08T13:37:13Z</time>
      </trkpt>
      <trkpt lat="48.94779" lon="0.27199">
        <ele>126.57</ele>
        <time>2015-11-08T13:37:14Z</time>
      </trkpt>
      <trkpt lat="48.94778" lon="0.27193">
        <ele>126.85</ele>
        <time>2015-11-08T13:37:15Z</time>
      </trkpt>
      <trkpt lat="48.94778" lon="0.27187">
        <ele>126.96</ele>
        <time>2015-11-08T13:37:16Z</time>
      </trkpt>
      <trkpt lat="48.94778" lon="0.27181">
        <ele>126.99</ele>
        <time>2015-11-08T13:37:17Z</time>
      </trkpt>
      <trkpt lat="48.94778" lon="0.27175">
        <ele>126.96</ele>
        <time>2015-11-08T13:37:18Z</time>
      </trkpt>
      <trkpt lat="48.94777" lon="0.27169">
        <ele>126.93</ele>
        <time>2015-11-08T13:37:19Z</time>
      </trkpt>
      <trkpt lat="48.94777" lon="0.27162">
        <ele>126.7</ele>
        <time>2015-11-08T13:37:20Z</time>
      </trkpt>
      <trkpt lat="48.94777" lon="0.27152">
        <ele>126.25</ele>
        <time>2015-11-08T13:37:21Z</time>
      </trkpt>
      <trkpt lat="48.94776" lon="0.27145">
        <ele>125.89</ele>
        <time>2015-11-08T13:37:22Z</time>
      </trkpt>
      <trkpt lat="48.94776" lon="0.27139">
        <ele>125.5</ele>
        <time>2015-11-08T13:37:23Z</time>
      </trkpt>
      <trkpt lat="48.94776" lon="0.27132">
        <ele>124.76</ele>
        <time>2015-11-08T13:37:24Z</time>
      </trkpt>
      <trkpt lat="48.94775" lon="0.27126">
        <ele>124</ele>
        <time>2015-11-08T13:37:25Z</time>
      </trkpt>
      <trkpt lat="48.94775" lon="0.2712">
        <ele>123.22</ele>
        <time>2015-11-08T13:37:26Z</time>
      </trkpt>
      <trkpt lat="48.94774" lon="0.27113">
        <ele>122.5</ele>
        <time>2015-11-08T13:37:27Z</time>
      </trkpt>
      <trkpt lat="48.94774" lon="0.27106">
        <ele>121.13</ele>
        <time>2015-11-08T13:37:28Z</time>
      </trkpt>
      <trkpt lat="48.94773" lon="0.271">
        <ele>119.65</ele>
        <time>2015-11-08T13:37:29Z</time>
      </trkpt>
      <trkpt lat="48.94773" lon="0.27094">
        <ele>118.49</ele>
        <time>2015-11-08T13:37:30Z</time>
      </trkpt>
      <trkpt lat="48.94773" lon="0.27089">
        <ele>117.26</ele>
        <time>2015-11-08T13:37:31Z</time>
      </trkpt>
      <trkpt lat="48.94773" lon="0.27082">
        <ele>116.13</ele>
        <time>2015-11-08T13:37:32Z</time>
      </trkpt>
      <trkpt lat="48.94773" lon="0.27076">
        <ele>115.85</ele>
        <time>2015-11-08T13:37:33Z</time>
      </trkpt>
      <trkpt lat="48.94772" lon="0.2707">
        <ele>115.62</ele>
        <time>2015-11-08T13:37:34Z</time>
      </trkpt>
      <trkpt lat="48.94772" lon="0.27065">
        <ele>115.38</ele>
        <time>2015-11-08T13:37:35Z</time>
      </trkpt>
      <trkpt lat="48.94771" lon="0.27058">
        <ele>115.3</ele>
        <time>2015-11-08T13:37:36Z</time>
      </trkpt>
      <trkpt lat="48.9477" lon="0.27052">
        <ele>115.46</ele>
        <time>2015-11-08T13:37:37Z</time>
      </trkpt>
      <trkpt lat="48.94769" lon="0.27046">
        <ele>115.87</ele>
        <time>2015-11-08T13:37:38Z</time>
      </trkpt>
      <trkpt lat="48.94767" lon="0.2704">
        <ele>116.35</ele>
        <time>2015-11-08T13:37:39Z</time>
      </trkpt>
      <trkpt lat="48.94765" lon="0.27034">
        <ele>116.98</ele>
        <time>2015-11-08T13:37:40Z</time>
      </trkpt>
      <trkpt lat="48.94763" lon="0.27029">
        <ele>117.72</ele>
        <time>2015-11-08T13:37:41Z</time>
      </trkpt>
      <trkpt lat="48.9476" lon="0.27023">
        <ele>117.97</ele>
        <time>2015-11-08T13:37:42Z</time>
      </trkpt>
      <trkpt lat="48.94758" lon="0.27018">
        <ele>118.24</ele>
        <time>2015-11-08T13:37:43Z</time>
      </trkpt>
      <trkpt lat="48.94755" lon="0.27013">
        <ele>118.69</ele>
        <time>2015-11-08T13:37:44Z</time>
      </trkpt>
      <trkpt lat="48.94751" lon="0.27009">
        <ele>119.3</ele>
        <time>2015-11-08T13:37:45Z</time>
      </trkpt>
      <trkpt lat="48.94748" lon="0.27006">
        <ele>119.84</ele>
        <time>2015-11-08T13:37:46Z</time>
      </trkpt>
      <trkpt lat="48.94744" lon="0.27002">
        <ele>120.37</ele>
        <time>2015-11-08T13:37:47Z</time>
      </trkpt>
      <trkpt lat="48.9474" lon="0.26998">
        <ele>120.71</ele>
        <time>2015-11-08T13:37:48Z</time>
      </trkpt>
      <trkpt lat="48.94737" lon="0.26995">
        <ele>120.59</ele>
        <time>2015-11-08T13:37:49Z</time>
      </trkpt>
      <trkpt lat="48.94733" lon="0.26991">
        <ele>120.48</ele>
        <time>2015-11-08T13:37:50Z</time>
      </trkpt>
      <trkpt lat="48.9473" lon="0.26987">
        <ele>120.32</ele>
        <time>2015-11-08T13:37:51Z</time>
      </trkpt>
      <trkpt lat="48.94726" lon="0.26983">
        <ele>120.14</ele>
        <time>2015-11-08T13:37:52Z</time>
      </trkpt>
      <trkpt lat="48.94722" lon="0.26981">
        <ele>120.08</ele>
        <time>2015-11-08T13:37:53Z</time>
      </trkpt>
      <trkpt lat="48.94718" lon="0.26978">
        <ele>119.27</ele>
        <time>2015-11-08T13:37:54Z</time>
      </trkpt>
      <trkpt lat="48.94715" lon="0.26975">
        <ele>118.68</ele>
        <time>2015-11-08T13:37:55Z</time>
      </trkpt>
      <trkpt lat="48.94712" lon="0.26972">
        <ele>117.86</ele>
        <time>2015-11-08T13:37:56Z</time>
      </trkpt>
      <trkpt lat="48.94709" lon="0.26968">
        <ele>117.16</ele>
        <time>2015-11-08T13:37:57Z</time>
      </trkpt>
      <trkpt lat="48.94705" lon="0.26965">
        <ele>116.44</ele>
        <time>2015-11-08T13:37:58Z</time>
      </trkpt>
      <trkpt lat="48.94701" lon="0.26962">
        <ele>115.96</ele>
        <time>2015-11-08T13:37:59Z</time>
      </trkpt>
      <trkpt lat="48.94697" lon="0.26959">
        <ele>115.48</ele>
        <time>2015-11-08T13:38:00Z</time>
      </trkpt>
      <trkpt lat="48.94693" lon="0.26955">
        <ele>114.88</ele>
        <time>2015-11-08T13:38:01Z</time>
      </trkpt>
      <trkpt lat="48.9469" lon="0.26952">
        <ele>114.22</ele>
        <time>2015-11-08T13:38:02Z</time>
      </trkpt>
      <trkpt lat="48.94688" lon="0.26949">
        <ele>113.7</ele>
        <time>2015-11-08T13:38:03Z</time>
      </trkpt>
      <trkpt lat="48.94686" lon="0.26944">
        <ele>112.99</ele>
        <time>2015-11-08T13:38:04Z</time>
      </trkpt>
      <trkpt lat="48.94684" lon="0.26939">
        <ele>112.87</ele>
        <time>2015-11-08T13:38:05Z</time>
      </trkpt>
      <trkpt lat="48.94682" lon="0.26935">
        <ele>112.71</ele>
        <time>2015-11-08T13:38:06Z</time>
      </trkpt>
      <trkpt lat="48.94681" lon="0.26931">
        <ele>112.54</ele>
        <time>2015-11-08T13:38:07Z</time>
      </trkpt>
      <trkpt lat="48.94679" lon="0.26927">
        <ele>112.34</ele>
        <time>2015-11-08T13:38:08Z</time>
      </trkpt>
      <trkpt lat="48.94677" lon="0.2692">
        <ele>111.9</ele>
        <time>2015-11-08T13:38:10Z</time>
      </trkpt>
      <trkpt lat="48.94676" lon="0.26916">
        <ele>111.7</ele>
        <time>2015-11-08T13:38:11Z</time>
      </trkpt>
      <trkpt lat="48.94675" lon="0.26911">
        <ele>111.68</ele>
        <time>2015-11-08T13:38:12Z</time>
      </trkpt>
      <trkpt lat="48.94675" lon="0.26907">
        <ele>111.66</ele>
        <time>2015-11-08T13:38:13Z</time>
      </trkpt>
      <trkpt lat="48.94674" lon="0.26903">
        <ele>111.67</ele>
        <time>2015-11-08T13:38:14Z</time>
      </trkpt>
      <trkpt lat="48.94674" lon="0.26898">
        <ele>111.7</ele>
        <time>2015-11-08T13:38:15Z</time>
      </trkpt>
      <trkpt lat="48.94674" lon="0.26894">
        <ele>111.75</ele>
        <time>2015-11-08T13:38:16Z</time>
      </trkpt>
      <trkpt lat="48.94674" lon="0.26889">
        <ele>111.82</ele>
        <time>2015-11-08T13:38:17Z</time>
      </trkpt>
      <trkpt lat="48.94675" lon="0.26885">
        <ele>112</ele>
        <time>2015-11-08T13:38:18Z</time>
      </trkpt>
      <trkpt lat="48.94675" lon="0.2688">
        <ele>112.19</ele>
        <time>2015-11-08T13:38:19Z</time>
      </trkpt>
      <trkpt lat="48.94675" lon="0.26875">
        <ele>112.38</ele>
        <time>2015-11-08T13:38:20Z</time>
      </trkpt>
      <trkpt lat="48.94675" lon="0.26871">
        <ele>112.58</ele>
        <time>2015-11-08T13:38:21Z</time>
      </trkpt>
      <trkpt lat="48.94676" lon="0.26866">
        <ele>112.79</ele>
        <time>2015-11-08T13:38:22Z</time>
      </trkpt>
      <trkpt lat="48.94676" lon="0.26862">
        <ele>112.99</ele>
        <time>2015-11-08T13:38:23Z</time>
      </trkpt>
      <trkpt lat="48.94676" lon="0.26857">
        <ele>112.99</ele>
        <time>2015-11-08T13:38:24Z</time>
      </trkpt>
      <trkpt lat="48.94677" lon="0.26853">
        <ele>112.96</ele>
        <time>2015-11-08T13:38:25Z</time>
      </trkpt>
      <trkpt lat="48.94677" lon="0.26848">
        <ele>112.93</ele>
        <time>2015-11-08T13:38:26Z</time>
      </trkpt>
      <trkpt lat="48.94677" lon="0.26844">
        <ele>112.9</ele>
        <time>2015-11-08T13:38:27Z</time>
      </trkpt>
      <trkpt lat="48.94678" lon="0.26839">
        <ele>112.87</ele>
        <time>2015-11-08T13:38:28Z</time>
      </trkpt>
      <trkpt lat="48.94678" lon="0.26835">
        <ele>112.83</ele>
        <time>2015-11-08T13:38:29Z</time>
      </trkpt>
      <trkpt lat="48.94678" lon="0.26831">
        <ele>112.71</ele>
        <time>2015-11-08T13:38:30Z</time>
      </trkpt>
      <trkpt lat="48.94678" lon="0.26826">
        <ele>112.49</ele>
        <time>2015-11-08T13:38:31Z</time>
      </trkpt>
      <trkpt lat="48.94678" lon="0.26822">
        <ele>112.26</ele>
        <time>2015-11-08T13:38:32Z</time>
      </trkpt>
      <trkpt lat="48.94679" lon="0.26818">
        <ele>112.05</ele>
        <time>2015-11-08T13:38:33Z</time>
      </trkpt>
      <trkpt lat="48.94679" lon="0.2681">
        <ele>111.65</ele>
        <time>2015-11-08T13:38:35Z</time>
      </trkpt>
      <trkpt lat="48.94679" lon="0.26802">
        <ele>111.36</ele>
        <time>2015-11-08T13:38:37Z</time>
      </trkpt>
      <trkpt lat="48.94679" lon="0.26797">
        <ele>111.28</ele>
        <time>2015-11-08T13:38:38Z</time>
      </trkpt>
      <trkpt lat="48.94679" lon="0.26793">
        <ele>111.2</ele>
        <time>2015-11-08T13:38:39Z</time>
      </trkpt>
      <trkpt lat="48.9468" lon="0.26789">
        <ele>111.13</ele>
        <time>2015-11-08T13:38:40Z</time>
      </trkpt>
      <trkpt lat="48.9468" lon="0.26784">
        <ele>111.05</ele>
        <time>2015-11-08T13:38:41Z</time>
      </trkpt>
      <trkpt lat="48.9468" lon="0.26779">
        <ele>110.97</ele>
        <time>2015-11-08T13:38:42Z</time>
      </trkpt>
      <trkpt lat="48.9468" lon="0.26774">
        <ele>111.36</ele>
        <time>2015-11-08T13:38:43Z</time>
      </trkpt>
      <trkpt lat="48.94681" lon="0.26769">
        <ele>111.83</ele>
        <time>2015-11-08T13:38:44Z</time>
      </trkpt>
      <trkpt lat="48.94681" lon="0.26764">
        <ele>112.29</ele>
        <time>2015-11-08T13:38:45Z</time>
      </trkpt>
      <trkpt lat="48.94681" lon="0.26758">
        <ele>112.75</ele>
        <time>2015-11-08T13:38:46Z</time>
      </trkpt>
      <trkpt lat="48.94682" lon="0.26753">
        <ele>113.22</ele>
        <time>2015-11-08T13:38:47Z</time>
      </trkpt>
      <trkpt lat="48.94682" lon="0.26747">
        <ele>113.79</ele>
        <time>2015-11-08T13:38:48Z</time>
      </trkpt>
      <trkpt lat="48.94682" lon="0.26742">
        <ele>114.47</ele>
        <time>2015-11-08T13:38:49Z</time>
      </trkpt>
      <trkpt lat="48.94683" lon="0.26736">
        <ele>115.12</ele>
        <time>2015-11-08T13:38:50Z</time>
      </trkpt>
      <trkpt lat="48.94684" lon="0.26731">
        <ele>115.68</ele>
        <time>2015-11-08T13:38:51Z</time>
      </trkpt>
      <trkpt lat="48.94684" lon="0.26726">
        <ele>116.25</ele>
        <time>2015-11-08T13:38:52Z</time>
      </trkpt>
      <trkpt lat="48.94685" lon="0.26721">
        <ele>116.78</ele>
        <time>2015-11-08T13:38:53Z</time>
      </trkpt>
      <trkpt lat="48.94686" lon="0.26715">
        <ele>117.17</ele>
        <time>2015-11-08T13:38:54Z</time>
      </trkpt>
      <trkpt lat="48.94686" lon="0.2671">
        <ele>117.59</ele>
        <time>2015-11-08T13:38:55Z</time>
      </trkpt>
      <trkpt lat="48.94687" lon="0.26705">
        <ele>118.03</ele>
        <time>2015-11-08T13:38:56Z</time>
      </trkpt>
      <trkpt lat="48.94687" lon="0.26699">
        <ele>118.48</ele>
        <time>2015-11-08T13:38:57Z</time>
      </trkpt>
      <trkpt lat="48.94687" lon="0.26694">
        <ele>118.92</ele>
        <time>2015-11-08T13:38:58Z</time>
      </trkpt>
      <trkpt lat="48.94687" lon="0.26689">
        <ele>118.72</ele>
        <time>2015-11-08T13:38:59Z</time>
      </trkpt>
      <trkpt lat="48.94688" lon="0.26684">
        <ele>118.53</ele>
        <time>2015-11-08T13:39:00Z</time>
      </trkpt>
      <trkpt lat="48.94688" lon="0.26679">
        <ele>118.33</ele>
        <time>2015-11-08T13:39:01Z</time>
      </trkpt>
      <trkpt lat="48.94688" lon="0.26674">
        <ele>118.18</ele>
        <time>2015-11-08T13:39:02Z</time>
      </trkpt>
      <trkpt lat="48.94688" lon="0.2667">
        <ele>117.99</ele>
        <time>2015-11-08T13:39:03Z</time>
      </trkpt>
      <trkpt lat="48.94688" lon="0.26665">
        <ele>117.94</ele>
        <time>2015-11-08T13:39:04Z</time>
      </trkpt>
      <trkpt lat="48.94688" lon="0.26661">
        <ele>118.14</ele>
        <time>2015-11-08T13:39:05Z</time>
      </trkpt>
      <trkpt lat="48.94687" lon="0.26656">
        <ele>118.3</ele>
        <time>2015-11-08T13:39:06Z</time>
      </trkpt>
      <trkpt lat="48.94686" lon="0.26652">
        <ele>118.45</ele>
        <time>2015-11-08T13:39:07Z</time>
      </trkpt>
      <trkpt lat="48.94687" lon="0.26645">
        <ele>118.94</ele>
        <time>2015-11-08T13:39:09Z</time>
      </trkpt>
      <trkpt lat="48.94686" lon="0.26637">
        <ele>119.25</ele>
        <time>2015-11-08T13:39:11Z</time>
      </trkpt>
      <trkpt lat="48.94686" lon="0.26629">
        <ele>119.02</ele>
        <time>2015-11-08T13:39:13Z</time>
      </trkpt>
      <trkpt lat="48.94687" lon="0.26621">
        <ele>119.02</ele>
        <time>2015-11-08T13:39:15Z</time>
      </trkpt>
      <trkpt lat="48.94687" lon="0.26613">
        <ele>119.01</ele>
        <time>2015-11-08T13:39:17Z</time>
      </trkpt>
      <trkpt lat="48.94688" lon="0.26605">
        <ele>118.99</ele>
        <time>2015-11-08T13:39:19Z</time>
      </trkpt>
      <trkpt lat="48.94689" lon="0.26597">
        <ele>118.9</ele>
        <time>2015-11-08T13:39:21Z</time>
      </trkpt>
      <trkpt lat="48.9469" lon="0.2659">
        <ele>118.81</ele>
        <time>2015-11-08T13:39:23Z</time>
      </trkpt>
      <trkpt lat="48.94691" lon="0.26583">
        <ele>118.78</ele>
        <time>2015-11-08T13:39:25Z</time>
      </trkpt>
      <trkpt lat="48.94693" lon="0.26577">
        <ele>118.9</ele>
        <time>2015-11-08T13:39:27Z</time>
      </trkpt>
      <trkpt lat="48.94694" lon="0.26572">
        <ele>118.99</ele>
        <time>2015-11-08T13:39:29Z</time>
      </trkpt>
      <trkpt lat="48.94698" lon="0.26568">
        <ele>119.69</ele>
        <time>2015-11-08T13:39:31Z</time>
      </trkpt>
      <trkpt lat="48.94702" lon="0.26567">
        <ele>120.67</ele>
        <time>2015-11-08T13:39:33Z</time>
      </trkpt>
      <trkpt lat="48.94706" lon="0.26565">
        <ele>121.71</ele>
        <time>2015-11-08T13:39:35Z</time>
      </trkpt>
      <trkpt lat="48.9471" lon="0.26564">
        <ele>122.62</ele>
        <time>2015-11-08T13:39:37Z</time>
      </trkpt>
      <trkpt lat="48.94713" lon="0.26566">
        <ele>123.22</ele>
        <time>2015-11-08T13:39:39Z</time>
      </trkpt>
      <trkpt lat="48.94716" lon="0.26568">
        <ele>123.67</ele>
        <time>2015-11-08T13:39:41Z</time>
      </trkpt>
      <trkpt lat="48.94718" lon="0.2657">
        <ele>124.11</ele>
        <time>2015-11-08T13:39:43Z</time>
      </trkpt>
      <trkpt lat="48.94722" lon="0.26571">
        <ele>124.89</ele>
        <time>2015-11-08T13:39:46Z</time>
      </trkpt>
      <trkpt lat="48.94726" lon="0.26571">
        <ele>125.87</ele>
        <time>2015-11-08T13:39:49Z</time>
      </trkpt>
      <trkpt lat="48.94729" lon="0.26573">
        <ele>126.48</ele>
        <time>2015-11-08T13:39:52Z</time>
      </trkpt>
      <trkpt lat="48.94733" lon="0.26573">
        <ele>127.64</ele>
        <time>2015-11-08T13:39:55Z</time>
      </trkpt>
      <trkpt lat="48.94736" lon="0.26569">
        <ele>129.03</ele>
        <time>2015-11-08T13:39:57Z</time>
      </trkpt>
      <trkpt lat="48.94738" lon="0.26564">
        <ele>130.45</ele>
        <time>2015-11-08T13:39:59Z</time>
      </trkpt>
      <trkpt lat="48.9474" lon="0.26561">
        <ele>131.98</ele>
        <time>2015-11-08T13:40:01Z</time>
      </trkpt>
      <trkpt lat="48.94742" lon="0.26557">
        <ele>133.61</ele>
        <time>2015-11-08T13:40:03Z</time>
      </trkpt>
      <trkpt lat="48.94745" lon="0.26554">
        <ele>135.06</ele>
        <time>2015-11-08T13:40:05Z</time>
      </trkpt>
      <trkpt lat="48.94747" lon="0.2655">
        <ele>136.23</ele>
        <time>2015-11-08T13:40:07Z</time>
      </trkpt>
      <trkpt lat="48.94747" lon="0.26545">
        <ele>137.1</ele>
        <time>2015-11-08T13:40:09Z</time>
      </trkpt>
      <trkpt lat="48.94748" lon="0.2654">
        <ele>137.7</ele>
        <time>2015-11-08T13:40:11Z</time>
      </trkpt>
      <trkpt lat="48.94749" lon="0.26535">
        <ele>138.6</ele>
        <time>2015-11-08T13:40:13Z</time>
      </trkpt>
      <trkpt lat="48.9475" lon="0.26532">
        <ele>139.61</ele>
        <time>2015-11-08T13:40:15Z</time>
      </trkpt>
      <trkpt lat="48.94752" lon="0.26528">
        <ele>140.16</ele>
        <time>2015-11-08T13:40:17Z</time>
      </trkpt>
      <trkpt lat="48.94753" lon="0.26523">
        <ele>140.41</ele>
        <time>2015-11-08T13:40:19Z</time>
      </trkpt>
      <trkpt lat="48.94755" lon="0.26519">
        <ele>140.77</ele>
        <time>2015-11-08T13:40:22Z</time>
      </trkpt>
      <trkpt lat="48.94756" lon="0.26514">
        <ele>141</ele>
        <time>2015-11-08T13:40:28Z</time>
      </trkpt>
      <trkpt lat="48.94758" lon="0.26518">
        <ele>141</ele>
        <time>2015-11-08T13:40:52Z</time>
      </trkpt>
      <trkpt lat="48.94759" lon="0.26512">
        <ele>141.39</ele>
        <time>2015-11-08T13:41:07Z</time>
      </trkpt>
      <trkpt lat="48.9476" lon="0.26508">
        <ele>141.68</ele>
        <time>2015-11-08T13:41:09Z</time>
      </trkpt>
      <trkpt lat="48.9476" lon="0.26503">
        <ele>141.89</ele>
        <time>2015-11-08T13:41:11Z</time>
      </trkpt>
      <trkpt lat="48.94759" lon="0.26498">
        <ele>142</ele>
        <time>2015-11-08T13:41:13Z</time>
      </trkpt>
      <trkpt lat="48.94757" lon="0.26493">
        <ele>141.85</ele>
        <time>2015-11-08T13:41:15Z</time>
      </trkpt>
      <trkpt lat="48.94754" lon="0.26489">
        <ele>141.55</ele>
        <time>2015-11-08T13:41:17Z</time>
      </trkpt>
      <trkpt lat="48.94752" lon="0.26483">
        <ele>141.29</ele>
        <time>2015-11-08T13:41:19Z</time>
      </trkpt>
      <trkpt lat="48.94751" lon="0.26476">
        <ele>141.12</ele>
        <time>2015-11-08T13:41:21Z</time>
      </trkpt>
      <trkpt lat="48.94751" lon="0.26469">
        <ele>141.3</ele>
        <time>2015-11-08T13:41:23Z</time>
      </trkpt>
      <trkpt lat="48.94751" lon="0.26464">
        <ele>141.59</ele>
        <time>2015-11-08T13:41:25Z</time>
      </trkpt>
      <trkpt lat="48.9475" lon="0.26459">
        <ele>141.64</ele>
        <time>2015-11-08T13:41:28Z</time>
      </trkpt>
      <trkpt lat="48.94752" lon="0.26455">
        <ele>142.68</ele>
        <time>2015-11-08T13:41:33Z</time>
      </trkpt>
      <trkpt lat="48.94753" lon="0.2645">
        <ele>143.14</ele>
        <time>2015-11-08T13:41:43Z</time>
      </trkpt>
      <trkpt lat="48.94754" lon="0.26447">
        <ele>144.23</ele>
        <time>2015-11-08T13:41:52Z</time>
      </trkpt>
      <trkpt lat="48.94755" lon="0.26442">
        <ele>145.12</ele>
        <time>2015-11-08T13:41:58Z</time>
      </trkpt>
      <trkpt lat="48.94756" lon="0.26438">
        <ele>146.65</ele>
        <time>2015-11-08T13:42:03Z</time>
      </trkpt>
      <trkpt lat="48.94757" lon="0.26433">
        <ele>147.72</ele>
        <time>2015-11-08T13:42:08Z</time>
      </trkpt>
      <trkpt lat="48.94759" lon="0.26429">
        <ele>149.09</ele>
        <time>2015-11-08T13:42:12Z</time>
      </trkpt>
      <trkpt lat="48.94759" lon="0.26424">
        <ele>149.95</ele>
        <time>2015-11-08T13:42:16Z</time>
      </trkpt>
      <trkpt lat="48.94761" lon="0.2642">
        <ele>151.46</ele>
        <time>2015-11-08T13:42:21Z</time>
      </trkpt>
      <trkpt lat="48.94761" lon="0.26415">
        <ele>151.88</ele>
        <time>2015-11-08T13:42:28Z</time>
      </trkpt>
      <trkpt lat="48.94762" lon="0.26411">
        <ele>151.94</ele>
        <time>2015-11-08T13:42:34Z</time>
      </trkpt>
      <trkpt lat="48.94764" lon="0.26407">
        <ele>152.32</ele>
        <time>2015-11-08T13:42:37Z</time>
      </trkpt>
      <trkpt lat="48.94765" lon="0.26404">
        <ele>152.76</ele>
        <time>2015-11-08T13:42:42Z</time>
      </trkpt>
      <trkpt lat="48.94768" lon="0.264">
        <ele>152.97</ele>
        <time>2015-11-08T13:42:48Z</time>
      </trkpt>
      <trkpt lat="48.94769" lon="0.26396">
        <ele>152.84</ele>
        <time>2015-11-08T13:42:53Z</time>
      </trkpt>
      <trkpt lat="48.94772" lon="0.26394">
        <ele>153.02</ele>
        <time>2015-11-08T13:42:57Z</time>
      </trkpt>
      <trkpt lat="48.94774" lon="0.26392">
        <ele>153.33</ele>
        <time>2015-11-08T13:43:01Z</time>
      </trkpt>
      <trkpt lat="48.94777" lon="0.26392">
        <ele>153.96</ele>
        <time>2015-11-08T13:43:04Z</time>
      </trkpt>
      <trkpt lat="48.9478" lon="0.26391">
        <ele>154.91</ele>
        <time>2015-11-08T13:43:10Z</time>
      </trkpt>
      <trkpt lat="48.94783" lon="0.26392">
        <ele>156.47</ele>
        <time>2015-11-08T13:43:14Z</time>
      </trkpt>
      <trkpt lat="48.94786" lon="0.26393">
        <ele>157.83</ele>
        <time>2015-11-08T13:43:18Z</time>
      </trkpt>
      <trkpt lat="48.94789" lon="0.26392">
        <ele>159.11</ele>
        <time>2015-11-08T13:43:23Z</time>
      </trkpt>
      <trkpt lat="48.94792" lon="0.26393">
        <ele>160.61</ele>
        <time>2015-11-08T13:43:27Z</time>
      </trkpt>
      <trkpt lat="48.94795" lon="0.26392">
        <ele>161.95</ele>
        <time>2015-11-08T13:43:32Z</time>
      </trkpt>
      <trkpt lat="48.94798" lon="0.26391">
        <ele>163.28</ele>
        <time>2015-11-08T13:43:37Z</time>
      </trkpt>
      <trkpt lat="48.94801" lon="0.26389">
        <ele>164.44</ele>
        <time>2015-11-08T13:43:45Z</time>
      </trkpt>
      <trkpt lat="48.94803" lon="0.26385">
        <ele>165.01</ele>
        <time>2015-11-08T13:43:49Z</time>
      </trkpt>
      <trkpt lat="48.94805" lon="0.26384">
        <ele>166.13</ele>
        <time>2015-11-08T13:44:02Z</time>
      </trkpt>
      <trkpt lat="48.94806" lon="0.2638">
        <ele>165.74</ele>
        <time>2015-11-08T13:44:07Z</time>
      </trkpt>
      <trkpt lat="48.94807" lon="0.26375">
        <ele>165.31</ele>
        <time>2015-11-08T13:44:12Z</time>
      </trkpt>
      <trkpt lat="48.94809" lon="0.26371">
        <ele>165.22</ele>
        <time>2015-11-08T13:44:15Z</time>
      </trkpt>
      <trkpt lat="48.9481" lon="0.26367">
        <ele>165.2</ele>
        <time>2015-11-08T13:44:18Z</time>
      </trkpt>
      <trkpt lat="48.94811" lon="0.26364">
        <ele>165.38</ele>
        <time>2015-11-08T13:44:21Z</time>
      </trkpt>
      <trkpt lat="48.94812" lon="0.26359">
        <ele>165.83</ele>
        <time>2015-11-08T13:44:26Z</time>
      </trkpt>
      <trkpt lat="48.94813" lon="0.26355">
        <ele>167.42</ele>
        <time>2015-11-08T13:44:30Z</time>
      </trkpt>
      <trkpt lat="48.94814" lon="0.26351">
        <ele>168.24</ele>
        <time>2015-11-08T13:44:33Z</time>
      </trkpt>
      <trkpt lat="48.94815" lon="0.26347">
        <ele>169.68</ele>
        <time>2015-11-08T13:44:39Z</time>
      </trkpt>
      <trkpt lat="48.94817" lon="0.26343">
        <ele>171.13</ele>
        <time>2015-11-08T13:44:42Z</time>
      </trkpt>
      <trkpt lat="48.94818" lon="0.2634">
        <ele>172.51</ele>
        <time>2015-11-08T13:44:45Z</time>
      </trkpt>
      <trkpt lat="48.9482" lon="0.26337">
        <ele>173.93</ele>
        <time>2015-11-08T13:44:48Z</time>
      </trkpt>
      <trkpt lat="48.94822" lon="0.26334">
        <ele>175.41</ele>
        <time>2015-11-08T13:44:51Z</time>
      </trkpt>
      <trkpt lat="48.94825" lon="0.26331">
        <ele>176.86</ele>
        <time>2015-11-08T13:44:55Z</time>
      </trkpt>
      <trkpt lat="48.94827" lon="0.26328">
        <ele>178.3</ele>
        <time>2015-11-08T13:44:59Z</time>
      </trkpt>
      <trkpt lat="48.94829" lon="0.26325">
        <ele>179.63</ele>
        <time>2015-11-08T13:45:02Z</time>
      </trkpt>
      <trkpt lat="48.94831" lon="0.26323">
        <ele>181.11</ele>
        <time>2015-11-08T13:45:05Z</time>
      </trkpt>
      <trkpt lat="48.94833" lon="0.26319">
        <ele>182.46</ele>
        <time>2015-11-08T13:45:09Z</time>
      </trkpt>
      <trkpt lat="48.94836" lon="0.26316">
        <ele>182.62</ele>
        <time>2015-11-08T13:45:13Z</time>
      </trkpt>
      <trkpt lat="48.94838" lon="0.26314">
        <ele>182.53</ele>
        <time>2015-11-08T13:45:17Z</time>
      </trkpt>
      <trkpt lat="48.94841" lon="0.26311">
        <ele>182.33</ele>
        <time>2015-11-08T13:45:21Z</time>
      </trkpt>
      <trkpt lat="48.94843" lon="0.26309">
        <ele>182.06</ele>
        <time>2015-11-08T13:45:26Z</time>
      </trkpt>
      <trkpt lat="48.94845" lon="0.26305">
        <ele>181.84</ele>
        <time>2015-11-08T13:45:32Z</time>
      </trkpt>
      <trkpt lat="48.94847" lon="0.26302">
        <ele>181.64</ele>
        <time>2015-11-08T13:45:34Z</time>
      </trkpt>
      <trkpt lat="48.9485" lon="0.26299">
        <ele>181.41</ele>
        <time>2015-11-08T13:45:36Z</time>
      </trkpt>
      <trkpt lat="48.94854" lon="0.26296">
        <ele>181.3</ele>
        <time>2015-11-08T13:45:38Z</time>
      </trkpt>
      <trkpt lat="48.94856" lon="0.26293">
        <ele>181.48</ele>
        <time>2015-11-08T13:45:40Z</time>
      </trkpt>
      <trkpt lat="48.9486" lon="0.2629">
        <ele>181.89</ele>
        <time>2015-11-08T13:45:42Z</time>
      </trkpt>
      <trkpt lat="48.94863" lon="0.26286">
        <ele>182.56</ele>
        <time>2015-11-08T13:45:44Z</time>
      </trkpt>
      <trkpt lat="48.94866" lon="0.26283">
        <ele>183.28</ele>
        <time>2015-11-08T13:45:46Z</time>
      </trkpt>
      <trkpt lat="48.94869" lon="0.2628">
        <ele>184.02</ele>
        <time>2015-11-08T13:45:48Z</time>
      </trkpt>
      <trkpt lat="48.94872" lon="0.26278">
        <ele>184.67</ele>
        <time>2015-11-08T13:45:50Z</time>
      </trkpt>
      <trkpt lat="48.94875" lon="0.26275">
        <ele>185.67</ele>
        <time>2015-11-08T13:45:53Z</time>
      </trkpt>
      <trkpt lat="48.94877" lon="0.2627">
        <ele>186.74</ele>
        <time>2015-11-08T13:45:56Z</time>
      </trkpt>
      <trkpt lat="48.9488" lon="0.26268">
        <ele>187.54</ele>
        <time>2015-11-08T13:45:59Z</time>
      </trkpt>
      <trkpt lat="48.94882" lon="0.26264">
        <ele>188.56</ele>
        <time>2015-11-08T13:46:02Z</time>
      </trkpt>
      <trkpt lat="48.94883" lon="0.26259">
        <ele>189.65</ele>
        <time>2015-11-08T13:46:04Z</time>
      </trkpt>
      <trkpt lat="48.94885" lon="0.26255">
        <ele>190.59</ele>
        <time>2015-11-08T13:46:06Z</time>
      </trkpt>
      <trkpt lat="48.94887" lon="0.26252">
        <ele>191.51</ele>
        <time>2015-11-08T13:46:08Z</time>
      </trkpt>
      <trkpt lat="48.94886" lon="0.26248">
        <ele>192.07</ele>
        <time>2015-11-08T13:46:13Z</time>
      </trkpt>
      <trkpt lat="48.94885" lon="0.26243">
        <ele>192.55</ele>
        <time>2015-11-08T13:46:44Z</time>
      </trkpt>
      <trkpt lat="48.94883" lon="0.2624">
        <ele>192.77</ele>
        <time>2015-11-08T13:46:49Z</time>
      </trkpt>
      <trkpt lat="48.94881" lon="0.26239">
        <ele>192.89</ele>
        <time>2015-11-08T13:48:17Z</time>
      </trkpt>
      <trkpt lat="48.94879" lon="0.26235">
        <ele>193.25</ele>
        <time>2015-11-08T13:48:32Z</time>
      </trkpt>
      <trkpt lat="48.94878" lon="0.26231">
        <ele>193.76</ele>
        <time>2015-11-08T13:49:17Z</time>
      </trkpt>
      <trkpt lat="48.94879" lon="0.26227">
        <ele>194.43</ele>
        <time>2015-11-08T13:49:20Z</time>
      </trkpt>
      <trkpt lat="48.94878" lon="0.26222">
        <ele>195.02</ele>
        <time>2015-11-08T13:49:29Z</time>
      </trkpt>
      <trkpt lat="48.94877" lon="0.26218">
        <ele>195.41</ele>
        <time>2015-11-08T13:49:32Z</time>
      </trkpt>
      <trkpt lat="48.94877" lon="0.26212">
        <ele>195.94</ele>
        <time>2015-11-08T13:49:35Z</time>
      </trkpt>
      <trkpt lat="48.94876" lon="0.26208">
        <ele>196.33</ele>
        <time>2015-11-08T13:49:37Z</time>
      </trkpt>
      <trkpt lat="48.94875" lon="0.26203">
        <ele>196.7</ele>
        <time>2015-11-08T13:49:39Z</time>
      </trkpt>
      <trkpt lat="48.94875" lon="0.26198">
        <ele>197.15</ele>
        <time>2015-11-08T13:49:42Z</time>
      </trkpt>
      <trkpt lat="48.94874" lon="0.26194">
        <ele>197.53</ele>
        <time>2015-11-08T13:49:46Z</time>
      </trkpt>
      <trkpt lat="48.94872" lon="0.2619">
        <ele>197.91</ele>
        <time>2015-11-08T13:49:53Z</time>
      </trkpt>
      <trkpt lat="48.94869" lon="0.26186">
        <ele>198.12</ele>
        <time>2015-11-08T13:50:21Z</time>
      </trkpt>
      <trkpt lat="48.94868" lon="0.26182">
        <ele>198.51</ele>
        <time>2015-11-08T13:50:24Z</time>
      </trkpt>
      <trkpt lat="48.94867" lon="0.26177">
        <ele>198.85</ele>
        <time>2015-11-08T13:50:26Z</time>
      </trkpt>
      <trkpt lat="48.94866" lon="0.26172">
        <ele>199.22</ele>
        <time>2015-11-08T13:50:28Z</time>
      </trkpt>
      <trkpt lat="48.94866" lon="0.26168">
        <ele>199.62</ele>
        <time>2015-11-08T13:50:30Z</time>
      </trkpt>
      <trkpt lat="48.94867" lon="0.26164">
        <ele>200.13</ele>
        <time>2015-11-08T13:50:32Z</time>
      </trkpt>
      <trkpt lat="48.94868" lon="0.26159">
        <ele>200.75</ele>
        <time>2015-11-08T13:50:34Z</time>
      </trkpt>
      <trkpt lat="48.94869" lon="0.26154">
        <ele>201.37</ele>
        <time>2015-11-08T13:50:36Z</time>
      </trkpt>
      <trkpt lat="48.9487" lon="0.26149">
        <ele>202.07</ele>
        <time>2015-11-08T13:50:38Z</time>
      </trkpt>
      <trkpt lat="48.94871" lon="0.26142">
        <ele>202.75</ele>
        <time>2015-11-08T13:50:40Z</time>
      </trkpt>
      <trkpt lat="48.94871" lon="0.26136">
        <ele>203.21</ele>
        <time>2015-11-08T13:50:42Z</time>
      </trkpt>
      <trkpt lat="48.94871" lon="0.2613">
        <ele>203.39</ele>
        <time>2015-11-08T13:50:44Z</time>
      </trkpt>
      <trkpt lat="48.94871" lon="0.26125">
        <ele>203.72</ele>
        <time>2015-11-08T13:50:46Z</time>
      </trkpt>
      <trkpt lat="48.94871" lon="0.26119">
        <ele>203.91</ele>
        <time>2015-11-08T13:50:48Z</time>
      </trkpt>
      <trkpt lat="48.94871" lon="0.26113">
        <ele>203.96</ele>
        <time>2015-11-08T13:50:50Z</time>
      </trkpt>
      <trkpt lat="48.9487" lon="0.26107">
        <ele>204.06</ele>
        <time>2015-11-08T13:50:52Z</time>
      </trkpt>
      <trkpt lat="48.9487" lon="0.26101">
        <ele>204.05</ele>
        <time>2015-11-08T13:50:54Z</time>
      </trkpt>
      <trkpt lat="48.94868" lon="0.26095">
        <ele>203.83</ele>
        <time>2015-11-08T13:50:56Z</time>
      </trkpt>
      <trkpt lat="48.94867" lon="0.26089">
        <ele>203.77</ele>
        <time>2015-11-08T13:50:58Z</time>
      </trkpt>
      <trkpt lat="48.94867" lon="0.26083">
        <ele>203.88</ele>
        <time>2015-11-08T13:51:00Z</time>
      </trkpt>
      <trkpt lat="48.94867" lon="0.26077">
        <ele>203.96</ele>
        <time>2015-11-08T13:51:02Z</time>
      </trkpt>
      <trkpt lat="48.94868" lon="0.26071">
        <ele>204.18</ele>
        <time>2015-11-08T13:51:04Z</time>
      </trkpt>
      <trkpt lat="48.9487" lon="0.26067">
        <ele>204.5</ele>
        <time>2015-11-08T13:51:06Z</time>
      </trkpt>
      <trkpt lat="48.94872" lon="0.26063">
        <ele>204.87</ele>
        <time>2015-11-08T13:51:08Z</time>
      </trkpt>
      <trkpt lat="48.94874" lon="0.26058">
        <ele>205.22</ele>
        <time>2015-11-08T13:51:10Z</time>
      </trkpt>
      <trkpt lat="48.94875" lon="0.26053">
        <ele>205.51</ele>
        <time>2015-11-08T13:51:12Z</time>
      </trkpt>
      <trkpt lat="48.94876" lon="0.26048">
        <ele>205.72</ele>
        <time>2015-11-08T13:51:14Z</time>
      </trkpt>
      <trkpt lat="48.94877" lon="0.26042">
        <ele>205.85</ele>
        <time>2015-11-08T13:51:16Z</time>
      </trkpt>
      <trkpt lat="48.94879" lon="0.26036">
        <ele>205.96</ele>
        <time>2015-11-08T13:51:18Z</time>
      </trkpt>
      <trkpt lat="48.9488" lon="0.26031">
        <ele>206.06</ele>
        <time>2015-11-08T13:51:20Z</time>
      </trkpt>
      <trkpt lat="48.94881" lon="0.26027">
        <ele>206.19</ele>
        <time>2015-11-08T13:51:22Z</time>
      </trkpt>
      <trkpt lat="48.94881" lon="0.2602">
        <ele>206.41</ele>
        <time>2015-11-08T13:51:24Z</time>
      </trkpt>
      <trkpt lat="48.94881" lon="0.26013">
        <ele>206.69</ele>
        <time>2015-11-08T13:51:26Z</time>
      </trkpt>
      <trkpt lat="48.94882" lon="0.26007">
        <ele>206.99</ele>
        <time>2015-11-08T13:51:28Z</time>
      </trkpt>
      <trkpt lat="48.94882" lon="0.26002">
        <ele>207.24</ele>
        <time>2015-11-08T13:51:30Z</time>
      </trkpt>
      <trkpt lat="48.94883" lon="0.25996">
        <ele>207.6</ele>
        <time>2015-11-08T13:51:32Z</time>
      </trkpt>
      <trkpt lat="48.94884" lon="0.25989">
        <ele>208</ele>
        <time>2015-11-08T13:51:34Z</time>
      </trkpt>
      <trkpt lat="48.94885" lon="0.25983">
        <ele>208.35</ele>
        <time>2015-11-08T13:51:36Z</time>
      </trkpt>
      <trkpt lat="48.94886" lon="0.25978">
        <ele>208.66</ele>
        <time>2015-11-08T13:51:38Z</time>
      </trkpt>
      <trkpt lat="48.94886" lon="0.25972">
        <ele>208.9</ele>
        <time>2015-11-08T13:51:40Z</time>
      </trkpt>
      <trkpt lat="48.94886" lon="0.25967">
        <ele>209.08</ele>
        <time>2015-11-08T13:51:42Z</time>
      </trkpt>
      <trkpt lat="48.94886" lon="0.25962">
        <ele>209.26</ele>
        <time>2015-11-08T13:51:44Z</time>
      </trkpt>
      <trkpt lat="48.94887" lon="0.25956">
        <ele>209.45</ele>
        <time>2015-11-08T13:51:46Z</time>
      </trkpt>
      <trkpt lat="48.94886" lon="0.2595">
        <ele>209.61</ele>
        <time>2015-11-08T13:51:48Z</time>
      </trkpt>
      <trkpt lat="48.94885" lon="0.25944">
        <ele>209.74</ele>
        <time>2015-11-08T13:51:50Z</time>
      </trkpt>
      <trkpt lat="48.94885" lon="0.25938">
        <ele>209.68</ele>
        <time>2015-11-08T13:51:52Z</time>
      </trkpt>
      <trkpt lat="48.94885" lon="0.25933">
        <ele>209.65</ele>
        <time>2015-11-08T13:51:54Z</time>
      </trkpt>
      <trkpt lat="48.94884" lon="0.25927">
        <ele>209.57</ele>
        <time>2015-11-08T13:51:56Z</time>
      </trkpt>
      <trkpt lat="48.94884" lon="0.2592">
        <ele>209.52</ele>
        <time>2015-11-08T13:51:58Z</time>
      </trkpt>
      <trkpt lat="48.94885" lon="0.25914">
        <ele>209.44</ele>
        <time>2015-11-08T13:52:00Z</time>
      </trkpt>
      <trkpt lat="48.94885" lon="0.25908">
        <ele>209.3</ele>
        <time>2015-11-08T13:52:02Z</time>
      </trkpt>
      <trkpt lat="48.94886" lon="0.25902">
        <ele>209.16</ele>
        <time>2015-11-08T13:52:04Z</time>
      </trkpt>
      <trkpt lat="48.94887" lon="0.25898">
        <ele>209.08</ele>
        <time>2015-11-08T13:52:06Z</time>
      </trkpt>
      <trkpt lat="48.94887" lon="0.25892">
        <ele>208.93</ele>
        <time>2015-11-08T13:52:08Z</time>
      </trkpt>
      <trkpt lat="48.94888" lon="0.25887">
        <ele>208.71</ele>
        <time>2015-11-08T13:52:10Z</time>
      </trkpt>
      <trkpt lat="48.94888" lon="0.25881">
        <ele>208.38</ele>
        <time>2015-11-08T13:52:12Z</time>
      </trkpt>
      <trkpt lat="48.94889" lon="0.25875">
        <ele>208.01</ele>
        <time>2015-11-08T13:52:14Z</time>
      </trkpt>
      <trkpt lat="48.9489" lon="0.25869">
        <ele>207.67</ele>
        <time>2015-11-08T13:52:16Z</time>
      </trkpt>
      <trkpt lat="48.94891" lon="0.25865">
        <ele>207.44</ele>
        <time>2015-11-08T13:52:18Z</time>
      </trkpt>
      <trkpt lat="48.94892" lon="0.25861">
        <ele>207.2</ele>
        <time>2015-11-08T13:52:20Z</time>
      </trkpt>
      <trkpt lat="48.94892" lon="0.25855">
        <ele>207.29</ele>
        <time>2015-11-08T13:52:22Z</time>
      </trkpt>
      <trkpt lat="48.94893" lon="0.2585">
        <ele>207.4</ele>
        <time>2015-11-08T13:52:24Z</time>
      </trkpt>
      <trkpt lat="48.94893" lon="0.25844">
        <ele>207.48</ele>
        <time>2015-11-08T13:52:26Z</time>
      </trkpt>
      <trkpt lat="48.94893" lon="0.25837">
        <ele>207.51</ele>
        <time>2015-11-08T13:52:28Z</time>
      </trkpt>
      <trkpt lat="48.94893" lon="0.25831">
        <ele>207.43</ele>
        <time>2015-11-08T13:52:30Z</time>
      </trkpt>
      <trkpt lat="48.94894" lon="0.25826">
        <ele>207.42</ele>
        <time>2015-11-08T13:52:32Z</time>
      </trkpt>
      <trkpt lat="48.94895" lon="0.25821">
        <ele>207.48</ele>
        <time>2015-11-08T13:52:34Z</time>
      </trkpt>
      <trkpt lat="48.94896" lon="0.25815">
        <ele>207.54</ele>
        <time>2015-11-08T13:52:36Z</time>
      </trkpt>
      <trkpt lat="48.94897" lon="0.25809">
        <ele>207.66</ele>
        <time>2015-11-08T13:52:38Z</time>
      </trkpt>
      <trkpt lat="48.94898" lon="0.25803">
        <ele>208.04</ele>
        <time>2015-11-08T13:52:40Z</time>
      </trkpt>
      <trkpt lat="48.949" lon="0.25797">
        <ele>208.59</ele>
        <time>2015-11-08T13:52:42Z</time>
      </trkpt>
      <trkpt lat="48.94902" lon="0.25791">
        <ele>209.34</ele>
        <time>2015-11-08T13:52:44Z</time>
      </trkpt>
      <trkpt lat="48.94904" lon="0.25784">
        <ele>210.22</ele>
        <time>2015-11-08T13:52:46Z</time>
      </trkpt>
      <trkpt lat="48.94905" lon="0.25777">
        <ele>210.81</ele>
        <time>2015-11-08T13:52:48Z</time>
      </trkpt>
      <trkpt lat="48.94906" lon="0.25772">
        <ele>210.97</ele>
        <time>2015-11-08T13:52:50Z</time>
      </trkpt>
      <trkpt lat="48.94908" lon="0.25765">
        <ele>211.19</ele>
        <time>2015-11-08T13:52:52Z</time>
      </trkpt>
      <trkpt lat="48.94909" lon="0.25759">
        <ele>211.41</ele>
        <time>2015-11-08T13:52:54Z</time>
      </trkpt>
      <trkpt lat="48.94911" lon="0.25753">
        <ele>211.61</ele>
        <time>2015-11-08T13:52:56Z</time>
      </trkpt>
      <trkpt lat="48.94912" lon="0.25746">
        <ele>211.41</ele>
        <time>2015-11-08T13:52:58Z</time>
      </trkpt>
      <trkpt lat="48.94913" lon="0.2574">
        <ele>210.92</ele>
        <time>2015-11-08T13:53:00Z</time>
      </trkpt>
      <trkpt lat="48.94912" lon="0.25735">
        <ele>210.46</ele>
        <time>2015-11-08T13:53:02Z</time>
      </trkpt>
      <trkpt lat="48.94913" lon="0.25731">
        <ele>210.09</ele>
        <time>2015-11-08T13:53:04Z</time>
      </trkpt>
      <trkpt lat="48.94914" lon="0.25726">
        <ele>209.77</ele>
        <time>2015-11-08T13:53:06Z</time>
      </trkpt>
      <trkpt lat="48.94914" lon="0.2572">
        <ele>209.3</ele>
        <time>2015-11-08T13:53:08Z</time>
      </trkpt>
      <trkpt lat="48.94915" lon="0.25715">
        <ele>208.56</ele>
        <time>2015-11-08T13:53:10Z</time>
      </trkpt>
      <trkpt lat="48.94915" lon="0.25709">
        <ele>207.57</ele>
        <time>2015-11-08T13:53:12Z</time>
      </trkpt>
      <trkpt lat="48.94916" lon="0.25704">
        <ele>206.65</ele>
        <time>2015-11-08T13:53:14Z</time>
      </trkpt>
      <trkpt lat="48.94918" lon="0.25699">
        <ele>205.74</ele>
        <time>2015-11-08T13:53:16Z</time>
      </trkpt>
      <trkpt lat="48.94919" lon="0.25693">
        <ele>204.8</ele>
        <time>2015-11-08T13:53:18Z</time>
      </trkpt>
      <trkpt lat="48.9492" lon="0.25687">
        <ele>204.12</ele>
        <time>2015-11-08T13:53:20Z</time>
      </trkpt>
      <trkpt lat="48.94921" lon="0.25681">
        <ele>203.43</ele>
        <time>2015-11-08T13:53:22Z</time>
      </trkpt>
      <trkpt lat="48.94922" lon="0.25674">
        <ele>202.78</ele>
        <time>2015-11-08T13:53:24Z</time>
      </trkpt>
      <trkpt lat="48.94922" lon="0.25668">
        <ele>202.17</ele>
        <time>2015-11-08T13:53:26Z</time>
      </trkpt>
      <trkpt lat="48.94923" lon="0.25663">
        <ele>201.81</ele>
        <time>2015-11-08T13:53:28Z</time>
      </trkpt>
      <trkpt lat="48.94924" lon="0.25657">
        <ele>201.57</ele>
        <time>2015-11-08T13:53:30Z</time>
      </trkpt>
      <trkpt lat="48.94924" lon="0.25651">
        <ele>201.31</ele>
        <time>2015-11-08T13:53:32Z</time>
      </trkpt>
      <trkpt lat="48.94924" lon="0.25645">
        <ele>201.04</ele>
        <time>2015-11-08T13:53:34Z</time>
      </trkpt>
      <trkpt lat="48.94924" lon="0.25638">
        <ele>200.86</ele>
        <time>2015-11-08T13:53:36Z</time>
      </trkpt>
      <trkpt lat="48.94925" lon="0.25632">
        <ele>201.52</ele>
        <time>2015-11-08T13:53:38Z</time>
      </trkpt>
      <trkpt lat="48.94925" lon="0.25626">
        <ele>202.09</ele>
        <time>2015-11-08T13:53:40Z</time>
      </trkpt>
      <trkpt lat="48.94924" lon="0.2562">
        <ele>202.64</ele>
        <time>2015-11-08T13:53:42Z</time>
      </trkpt>
      <trkpt lat="48.94925" lon="0.25615">
        <ele>203.22</ele>
        <time>2015-11-08T13:53:44Z</time>
      </trkpt>
      <trkpt lat="48.94925" lon="0.25609">
        <ele>203.86</ele>
        <time>2015-11-08T13:53:46Z</time>
      </trkpt>
      <trkpt lat="48.94926" lon="0.25603">
        <ele>204.63</ele>
        <time>2015-11-08T13:53:48Z</time>
      </trkpt>
      <trkpt lat="48.94926" lon="0.25597">
        <ele>205.3</ele>
        <time>2015-11-08T13:53:50Z</time>
      </trkpt>
      <trkpt lat="48.94926" lon="0.25593">
        <ele>205.87</ele>
        <time>2015-11-08T13:53:52Z</time>
      </trkpt>
      <trkpt lat="48.94926" lon="0.25588">
        <ele>206.41</ele>
        <time>2015-11-08T13:53:54Z</time>
      </trkpt>
      <trkpt lat="48.94926" lon="0.25583">
        <ele>206.99</ele>
        <time>2015-11-08T13:53:56Z</time>
      </trkpt>
      <trkpt lat="48.94926" lon="0.25579">
        <ele>207.5</ele>
        <time>2015-11-08T13:53:58Z</time>
      </trkpt>
      <trkpt lat="48.94927" lon="0.25573">
        <ele>208.18</ele>
        <time>2015-11-08T13:54:00Z</time>
      </trkpt>
      <trkpt lat="48.94927" lon="0.25567">
        <ele>208.88</ele>
        <time>2015-11-08T13:54:02Z</time>
      </trkpt>
      <trkpt lat="48.94927" lon="0.2556">
        <ele>209.56</ele>
        <time>2015-11-08T13:54:04Z</time>
      </trkpt>
      <trkpt lat="48.94928" lon="0.25553">
        <ele>210.24</ele>
        <time>2015-11-08T13:54:06Z</time>
      </trkpt>
      <trkpt lat="48.94928" lon="0.25545">
        <ele>210.73</ele>
        <time>2015-11-08T13:54:08Z</time>
      </trkpt>
      <trkpt lat="48.9493" lon="0.25538">
        <ele>211.36</ele>
        <time>2015-11-08T13:54:10Z</time>
      </trkpt>
      <trkpt lat="48.9493" lon="0.2553">
        <ele>211.78</ele>
        <time>2015-11-08T13:54:12Z</time>
      </trkpt>
      <trkpt lat="48.94931" lon="0.25523">
        <ele>212.45</ele>
        <time>2015-11-08T13:54:14Z</time>
      </trkpt>
      <trkpt lat="48.94932" lon="0.25515">
        <ele>213.59</ele>
        <time>2015-11-08T13:54:16Z</time>
      </trkpt>
      <trkpt lat="48.94934" lon="0.25508">
        <ele>214.97</ele>
        <time>2015-11-08T13:54:18Z</time>
      </trkpt>
      <trkpt lat="48.94937" lon="0.25502">
        <ele>216.38</ele>
        <time>2015-11-08T13:54:20Z</time>
      </trkpt>
      <trkpt lat="48.94938" lon="0.25494">
        <ele>217.08</ele>
        <time>2015-11-08T13:54:22Z</time>
      </trkpt>
      <trkpt lat="48.94938" lon="0.25486">
        <ele>217.64</ele>
        <time>2015-11-08T13:54:24Z</time>
      </trkpt>
      <trkpt lat="48.94939" lon="0.25479">
        <ele>218.2</ele>
        <time>2015-11-08T13:54:26Z</time>
      </trkpt>
      <trkpt lat="48.94939" lon="0.25471">
        <ele>218.77</ele>
        <time>2015-11-08T13:54:28Z</time>
      </trkpt>
      <trkpt lat="48.9494" lon="0.25467">
        <ele>218.87</ele>
        <time>2015-11-08T13:54:29Z</time>
      </trkpt>
      <trkpt lat="48.9494" lon="0.25462">
        <ele>218.97</ele>
        <time>2015-11-08T13:54:30Z</time>
      </trkpt>
      <trkpt lat="48.9494" lon="0.25458">
        <ele>219.12</ele>
        <time>2015-11-08T13:54:31Z</time>
      </trkpt>
      <trkpt lat="48.94941" lon="0.25454">
        <ele>219.27</ele>
        <time>2015-11-08T13:54:32Z</time>
      </trkpt>
      <trkpt lat="48.94942" lon="0.25446">
        <ele>219.49</ele>
        <time>2015-11-08T13:54:34Z</time>
      </trkpt>
      <trkpt lat="48.94942" lon="0.25438">
        <ele>219.87</ele>
        <time>2015-11-08T13:54:36Z</time>
      </trkpt>
      <trkpt lat="48.94942" lon="0.25431">
        <ele>220.16</ele>
        <time>2015-11-08T13:54:38Z</time>
      </trkpt>
      <trkpt lat="48.94942" lon="0.25425">
        <ele>220.38</ele>
        <time>2015-11-08T13:54:40Z</time>
      </trkpt>
      <trkpt lat="48.94943" lon="0.2542">
        <ele>220.64</ele>
        <time>2015-11-08T13:54:42Z</time>
      </trkpt>
      <trkpt lat="48.94942" lon="0.25415">
        <ele>220.63</ele>
        <time>2015-11-08T13:54:44Z</time>
      </trkpt>
      <trkpt lat="48.94943" lon="0.2541">
        <ele>220.17</ele>
        <time>2015-11-08T13:54:46Z</time>
      </trkpt>
      <trkpt lat="48.94946" lon="0.25405">
        <ele>219.67</ele>
        <time>2015-11-08T13:54:48Z</time>
      </trkpt>
      <trkpt lat="48.94949" lon="0.254">
        <ele>218.8</ele>
        <time>2015-11-08T13:54:50Z</time>
      </trkpt>
      <trkpt lat="48.94952" lon="0.25394">
        <ele>217.67</ele>
        <time>2015-11-08T13:54:52Z</time>
      </trkpt>
      <trkpt lat="48.94954" lon="0.25388">
        <ele>216.4</ele>
        <time>2015-11-08T13:54:54Z</time>
      </trkpt>
      <trkpt lat="48.94956" lon="0.25383">
        <ele>215.36</ele>
        <time>2015-11-08T13:54:56Z</time>
      </trkpt>
      <trkpt lat="48.94957" lon="0.25379">
        <ele>214.46</ele>
        <time>2015-11-08T13:57:37Z</time>
      </trkpt>
      <trkpt lat="48.94958" lon="0.25373">
        <ele>213.38</ele>
        <time>2015-11-08T13:57:39Z</time>
      </trkpt>
      <trkpt lat="48.94959" lon="0.25366">
        <ele>212.27</ele>
        <time>2015-11-08T13:57:41Z</time>
      </trkpt>
      <trkpt lat="48.94961" lon="0.25359">
        <ele>211.36</ele>
        <time>2015-11-08T13:57:43Z</time>
      </trkpt>
      <trkpt lat="48.94963" lon="0.25352">
        <ele>210.78</ele>
        <time>2015-11-08T13:57:45Z</time>
      </trkpt>
      <trkpt lat="48.94965" lon="0.25346">
        <ele>210.34</ele>
        <time>2015-11-08T13:57:47Z</time>
      </trkpt>
      <trkpt lat="48.94967" lon="0.25339">
        <ele>209.95</ele>
        <time>2015-11-08T13:57:49Z</time>
      </trkpt>
      <trkpt lat="48.9497" lon="0.25332">
        <ele>209.59</ele>
        <time>2015-11-08T13:57:51Z</time>
      </trkpt>
      <trkpt lat="48.94972" lon="0.25325">
        <ele>209.11</ele>
        <time>2015-11-08T13:57:53Z</time>
      </trkpt>
      <trkpt lat="48.94974" lon="0.25318">
        <ele>208.87</ele>
        <time>2015-11-08T13:57:55Z</time>
      </trkpt>
      <trkpt lat="48.94973" lon="0.25311">
        <ele>207.86</ele>
        <time>2015-11-08T13:57:57Z</time>
      </trkpt>
      <trkpt lat="48.94971" lon="0.25305">
        <ele>206.63</ele>
        <time>2015-11-08T13:57:59Z</time>
      </trkpt>
      <trkpt lat="48.94968" lon="0.25298">
        <ele>205.82</ele>
        <time>2015-11-08T13:58:01Z</time>
      </trkpt>
      <trkpt lat="48.94966" lon="0.25292">
        <ele>205.08</ele>
        <time>2015-11-08T13:58:03Z</time>
      </trkpt>
      <trkpt lat="48.94963" lon="0.25286">
        <ele>204.32</ele>
        <time>2015-11-08T13:58:05Z</time>
      </trkpt>
      <trkpt lat="48.9496" lon="0.2528">
        <ele>203.56</ele>
        <time>2015-11-08T13:58:07Z</time>
      </trkpt>
      <trkpt lat="48.94958" lon="0.25274">
        <ele>203.31</ele>
        <time>2015-11-08T13:58:09Z</time>
      </trkpt>
      <trkpt lat="48.94958" lon="0.25267">
        <ele>203.84</ele>
        <time>2015-11-08T13:58:11Z</time>
      </trkpt>
      <trkpt lat="48.94959" lon="0.2526">
        <ele>204.7</ele>
        <time>2015-11-08T13:58:13Z</time>
      </trkpt>
      <trkpt lat="48.9496" lon="0.25253">
        <ele>205.43</ele>
        <time>2015-11-08T13:58:15Z</time>
      </trkpt>
      <trkpt lat="48.9496" lon="0.25246">
        <ele>205.88</ele>
        <time>2015-11-08T13:58:17Z</time>
      </trkpt>
      <trkpt lat="48.9496" lon="0.25239">
        <ele>206.19</ele>
        <time>2015-11-08T13:58:19Z</time>
      </trkpt>
      <trkpt lat="48.9496" lon="0.25232">
        <ele>206.47</ele>
        <time>2015-11-08T13:58:21Z</time>
      </trkpt>
      <trkpt lat="48.9496" lon="0.25225">
        <ele>206.69</ele>
        <time>2015-11-08T13:58:23Z</time>
      </trkpt>
      <trkpt lat="48.9496" lon="0.25217">
        <ele>206.4</ele>
        <time>2015-11-08T13:58:25Z</time>
      </trkpt>
      <trkpt lat="48.94961" lon="0.25211">
        <ele>205.88</ele>
        <time>2015-11-08T13:58:27Z</time>
      </trkpt>
      <trkpt lat="48.94962" lon="0.25204">
        <ele>205.2</ele>
        <time>2015-11-08T13:58:29Z</time>
      </trkpt>
      <trkpt lat="48.94962" lon="0.25197">
        <ele>204.53</ele>
        <time>2015-11-08T13:58:31Z</time>
      </trkpt>
      <trkpt lat="48.94963" lon="0.2519">
        <ele>203.98</ele>
        <time>2015-11-08T13:58:33Z</time>
      </trkpt>
      <trkpt lat="48.94964" lon="0.25184">
        <ele>203.43</ele>
        <time>2015-11-08T13:58:35Z</time>
      </trkpt>
      <trkpt lat="48.94967" lon="0.25177">
        <ele>202.7</ele>
        <time>2015-11-08T13:58:37Z</time>
      </trkpt>
      <trkpt lat="48.9497" lon="0.25171">
        <ele>201.78</ele>
        <time>2015-11-08T13:58:39Z</time>
      </trkpt>
      <trkpt lat="48.94974" lon="0.25165">
        <ele>200.71</ele>
        <time>2015-11-08T13:58:41Z</time>
      </trkpt>
      <trkpt lat="48.94975" lon="0.25161">
        <ele>200.24</ele>
        <time>2015-11-08T13:58:42Z</time>
      </trkpt>
      <trkpt lat="48.94977" lon="0.25153">
        <ele>199.21</ele>
        <time>2015-11-08T13:58:44Z</time>
      </trkpt>
      <trkpt lat="48.94978" lon="0.25149">
        <ele>198.73</ele>
        <time>2015-11-08T13:58:45Z</time>
      </trkpt>
      <trkpt lat="48.94979" lon="0.25145">
        <ele>198.29</ele>
        <time>2015-11-08T13:58:46Z</time>
      </trkpt>
      <trkpt lat="48.9498" lon="0.25142">
        <ele>197.89</ele>
        <time>2015-11-08T13:58:47Z</time>
      </trkpt>
      <trkpt lat="48.94981" lon="0.25138">
        <ele>197.63</ele>
        <time>2015-11-08T13:58:48Z</time>
      </trkpt>
      <trkpt lat="48.94985" lon="0.25132">
        <ele>197.51</ele>
        <time>2015-11-08T13:58:50Z</time>
      </trkpt>
      <trkpt lat="48.94987" lon="0.25125">
        <ele>197.27</ele>
        <time>2015-11-08T13:58:52Z</time>
      </trkpt>
      <trkpt lat="48.94989" lon="0.25118">
        <ele>197.01</ele>
        <time>2015-11-08T13:58:54Z</time>
      </trkpt>
      <trkpt lat="48.94991" lon="0.25111">
        <ele>196.71</ele>
        <time>2015-11-08T13:58:56Z</time>
      </trkpt>
      <trkpt lat="48.94993" lon="0.25104">
        <ele>197.27</ele>
        <time>2015-11-08T13:58:58Z</time>
      </trkpt>
      <trkpt lat="48.94995" lon="0.25097">
        <ele>197.82</ele>
        <time>2015-11-08T13:59:00Z</time>
      </trkpt>
      <trkpt lat="48.94998" lon="0.25092">
        <ele>198.31</ele>
        <time>2015-11-08T13:59:02Z</time>
      </trkpt>
      <trkpt lat="48.95003" lon="0.25088">
        <ele>199.5</ele>
        <time>2015-11-08T13:59:04Z</time>
      </trkpt>
      <trkpt lat="48.95007" lon="0.25084">
        <ele>201.04</ele>
        <time>2015-11-08T13:59:06Z</time>
      </trkpt>
      <trkpt lat="48.95011" lon="0.25078">
        <ele>202.71</ele>
        <time>2015-11-08T13:59:08Z</time>
      </trkpt>
      <trkpt lat="48.95012" lon="0.2507">
        <ele>203.81</ele>
        <time>2015-11-08T13:59:10Z</time>
      </trkpt>
      <trkpt lat="48.95011" lon="0.25066">
        <ele>204.09</ele>
        <time>2015-11-08T13:59:11Z</time>
      </trkpt>
      <trkpt lat="48.9501" lon="0.25062">
        <ele>204.3</ele>
        <time>2015-11-08T13:59:12Z</time>
      </trkpt>
      <trkpt lat="48.95008" lon="0.25059">
        <ele>204.52</ele>
        <time>2015-11-08T13:59:13Z</time>
      </trkpt>
      <trkpt lat="48.95007" lon="0.25055">
        <ele>204.73</ele>
        <time>2015-11-08T13:59:14Z</time>
      </trkpt>
      <trkpt lat="48.95005" lon="0.25052">
        <ele>205.02</ele>
        <time>2015-11-08T13:59:15Z</time>
      </trkpt>
      <trkpt lat="48.95001" lon="0.25046">
        <ele>205.72</ele>
        <time>2015-11-08T13:59:17Z</time>
      </trkpt>
      <trkpt lat="48.94999" lon="0.25043">
        <ele>206.2</ele>
        <time>2015-11-08T13:59:18Z</time>
      </trkpt>
      <trkpt lat="48.94997" lon="0.2504">
        <ele>206.8</ele>
        <time>2015-11-08T13:59:19Z</time>
      </trkpt>
      <trkpt lat="48.94994" lon="0.25034">
        <ele>208</ele>
        <time>2015-11-08T13:59:21Z</time>
      </trkpt>
      <trkpt lat="48.9499" lon="0.25029">
        <ele>209.19</ele>
        <time>2015-11-08T13:59:23Z</time>
      </trkpt>
      <trkpt lat="48.94988" lon="0.25026">
        <ele>209.7</ele>
        <time>2015-11-08T13:59:24Z</time>
      </trkpt>
      <trkpt lat="48.94986" lon="0.25023">
        <ele>210.19</ele>
        <time>2015-11-08T13:59:25Z</time>
      </trkpt>
      <trkpt lat="48.94982" lon="0.25018">
        <ele>211.22</ele>
        <time>2015-11-08T13:59:27Z</time>
      </trkpt>
      <trkpt lat="48.94979" lon="0.25012">
        <ele>212.38</ele>
        <time>2015-11-08T13:59:29Z</time>
      </trkpt>
      <trkpt lat="48.94975" lon="0.25007">
        <ele>213.5</ele>
        <time>2015-11-08T13:59:31Z</time>
      </trkpt>
      <trkpt lat="48.94971" lon="0.25003">
        <ele>214.5</ele>
        <time>2015-11-08T13:59:33Z</time>
      </trkpt>
      <trkpt lat="48.94968" lon="0.24998">
        <ele>214.86</ele>
        <time>2015-11-08T13:59:35Z</time>
      </trkpt>
      <trkpt lat="48.94966" lon="0.24992">
        <ele>214.84</ele>
        <time>2015-11-08T13:59:37Z</time>
      </trkpt>
      <trkpt lat="48.94966" lon="0.24985">
        <ele>214.9</ele>
        <time>2015-11-08T13:59:39Z</time>
      </trkpt>
      <trkpt lat="48.94968" lon="0.24979">
        <ele>214.96</ele>
        <time>2015-11-08T13:59:41Z</time>
      </trkpt>
      <trkpt lat="48.9497" lon="0.24973">
        <ele>215</ele>
        <time>2015-11-08T13:59:43Z</time>
      </trkpt>
      <trkpt lat="48.94972" lon="0.24967">
        <ele>214.38</ele>
        <time>2015-11-08T13:59:45Z</time>
      </trkpt>
      <trkpt lat="48.94975" lon="0.24961">
        <ele>213.25</ele>
        <time>2015-11-08T13:59:47Z</time>
      </trkpt>
      <trkpt lat="48.94977" lon="0.24954">
        <ele>211.85</ele>
        <time>2015-11-08T13:59:49Z</time>
      </trkpt>
      <trkpt lat="48.94979" lon="0.2495">
        <ele>211.1</ele>
        <time>2015-11-08T13:59:50Z</time>
      </trkpt>
      <trkpt lat="48.9498" lon="0.24946">
        <ele>210.36</ele>
        <time>2015-11-08T13:59:51Z</time>
      </trkpt>
      <trkpt lat="48.9498" lon="0.24942">
        <ele>209.61</ele>
        <time>2015-11-08T13:59:52Z</time>
      </trkpt>
      <trkpt lat="48.94981" lon="0.24938">
        <ele>208.86</ele>
        <time>2015-11-08T13:59:53Z</time>
      </trkpt>
      <trkpt lat="48.94981" lon="0.24933">
        <ele>208.17</ele>
        <time>2015-11-08T13:59:54Z</time>
      </trkpt>
      <trkpt lat="48.94982" lon="0.24929">
        <ele>207.57</ele>
        <time>2015-11-08T13:59:55Z</time>
      </trkpt>
      <trkpt lat="48.94981" lon="0.24924">
        <ele>207.05</ele>
        <time>2015-11-08T13:59:56Z</time>
      </trkpt>
      <trkpt lat="48.94981" lon="0.2492">
        <ele>206.56</ele>
        <time>2015-11-08T13:59:57Z</time>
      </trkpt>
      <trkpt lat="48.9498" lon="0.24916">
        <ele>206.06</ele>
        <time>2015-11-08T13:59:58Z</time>
      </trkpt>
      <trkpt lat="48.9498" lon="0.24911">
        <ele>205.36</ele>
        <time>2015-11-08T13:59:59Z</time>
      </trkpt>
      <trkpt lat="48.9498" lon="0.24907">
        <ele>204.64</ele>
        <time>2015-11-08T14:00:00Z</time>
      </trkpt>
      <trkpt lat="48.94979" lon="0.24903">
        <ele>203.95</ele>
        <time>2015-11-08T14:00:01Z</time>
      </trkpt>
      <trkpt lat="48.94979" lon="0.24899">
        <ele>203.25</ele>
        <time>2015-11-08T14:00:02Z</time>
      </trkpt>
      <trkpt lat="48.94978" lon="0.24895">
        <ele>202.54</ele>
        <time>2015-11-08T14:00:03Z</time>
      </trkpt>
      <trkpt lat="48.94977" lon="0.2489">
        <ele>201.75</ele>
        <time>2015-11-08T14:00:04Z</time>
      </trkpt>
      <trkpt lat="48.94977" lon="0.24886">
        <ele>201.14</ele>
        <time>2015-11-08T14:00:05Z</time>
      </trkpt>
      <trkpt lat="48.94977" lon="0.24882">
        <ele>200.64</ele>
        <time>2015-11-08T14:00:06Z</time>
      </trkpt>
      <trkpt lat="48.94976" lon="0.24877">
        <ele>200.11</ele>
        <time>2015-11-08T14:00:07Z</time>
      </trkpt>
      <trkpt lat="48.94976" lon="0.24873">
        <ele>199.57</ele>
        <time>2015-11-08T14:00:08Z</time>
      </trkpt>
      <trkpt lat="48.94976" lon="0.24868">
        <ele>199.04</ele>
        <time>2015-11-08T14:00:09Z</time>
      </trkpt>
      <trkpt lat="48.94977" lon="0.24864">
        <ele>198.52</ele>
        <time>2015-11-08T14:00:10Z</time>
      </trkpt>
      <trkpt lat="48.94977" lon="0.2486">
        <ele>198.26</ele>
        <time>2015-11-08T14:00:11Z</time>
      </trkpt>
      <trkpt lat="48.94978" lon="0.24856">
        <ele>198.55</ele>
        <time>2015-11-08T14:00:12Z</time>
      </trkpt>
      <trkpt lat="48.94979" lon="0.24852">
        <ele>198.83</ele>
        <time>2015-11-08T14:00:13Z</time>
      </trkpt>
      <trkpt lat="48.94981" lon="0.24848">
        <ele>199.09</ele>
        <time>2015-11-08T14:00:14Z</time>
      </trkpt>
      <trkpt lat="48.94982" lon="0.24845">
        <ele>199.33</ele>
        <time>2015-11-08T14:00:15Z</time>
      </trkpt>
      <trkpt lat="48.94984" lon="0.24841">
        <ele>199.55</ele>
        <time>2015-11-08T14:00:16Z</time>
      </trkpt>
      <trkpt lat="48.94986" lon="0.24838">
        <ele>199.74</ele>
        <time>2015-11-08T14:00:17Z</time>
      </trkpt>
      <trkpt lat="48.94989" lon="0.24836">
        <ele>199.89</ele>
        <time>2015-11-08T14:00:18Z</time>
      </trkpt>
      <trkpt lat="48.94991" lon="0.24833">
        <ele>200.01</ele>
        <time>2015-11-08T14:00:19Z</time>
      </trkpt>
      <trkpt lat="48.94994" lon="0.24831">
        <ele>200.2</ele>
        <time>2015-11-08T14:00:20Z</time>
      </trkpt>
      <trkpt lat="48.94997" lon="0.24828">
        <ele>200.4</ele>
        <time>2015-11-08T14:00:21Z</time>
      </trkpt>
      <trkpt lat="48.94999" lon="0.24824">
        <ele>200.65</ele>
        <time>2015-11-08T14:00:22Z</time>
      </trkpt>
      <trkpt lat="48.95001" lon="0.2482">
        <ele>200.89</ele>
        <time>2015-11-08T14:00:23Z</time>
      </trkpt>
      <trkpt lat="48.95003" lon="0.24816">
        <ele>201</ele>
        <time>2015-11-08T14:00:24Z</time>
      </trkpt>
      <trkpt lat="48.95005" lon="0.24813">
        <ele>201.01</ele>
        <time>2015-11-08T14:00:25Z</time>
      </trkpt>
      <trkpt lat="48.95006" lon="0.24809">
        <ele>200.99</ele>
        <time>2015-11-08T14:00:26Z</time>
      </trkpt>
      <trkpt lat="48.95008" lon="0.24804">
        <ele>200.98</ele>
        <time>2015-11-08T14:00:27Z</time>
      </trkpt>
      <trkpt lat="48.95009" lon="0.248">
        <ele>201.04</ele>
        <time>2015-11-08T14:00:28Z</time>
      </trkpt>
      <trkpt lat="48.9501" lon="0.24795">
        <ele>201.06</ele>
        <time>2015-11-08T14:00:29Z</time>
      </trkpt>
      <trkpt lat="48.95012" lon="0.24791">
        <ele>201.06</ele>
        <time>2015-11-08T14:00:30Z</time>
      </trkpt>
      <trkpt lat="48.95013" lon="0.24787">
        <ele>201.09</ele>
        <time>2015-11-08T14:00:31Z</time>
      </trkpt>
      <trkpt lat="48.95015" lon="0.24783">
        <ele>201.14</ele>
        <time>2015-11-08T14:00:32Z</time>
      </trkpt>
      <trkpt lat="48.95016" lon="0.24778">
        <ele>201.27</ele>
        <time>2015-11-08T14:00:33Z</time>
      </trkpt>
      <trkpt lat="48.95017" lon="0.24774">
        <ele>201.46</ele>
        <time>2015-11-08T14:00:34Z</time>
      </trkpt>
      <trkpt lat="48.95017" lon="0.24769">
        <ele>201.73</ele>
        <time>2015-11-08T14:00:35Z</time>
      </trkpt>
      <trkpt lat="48.95018" lon="0.24764">
        <ele>202.01</ele>
        <time>2015-11-08T14:00:36Z</time>
      </trkpt>
      <trkpt lat="48.9502" lon="0.24759">
        <ele>202.29</ele>
        <time>2015-11-08T14:00:37Z</time>
      </trkpt>
      <trkpt lat="48.95021" lon="0.24755">
        <ele>202.57</ele>
        <time>2015-11-08T14:00:38Z</time>
      </trkpt>
      <trkpt lat="48.95023" lon="0.24751">
        <ele>202.92</ele>
        <time>2015-11-08T14:00:39Z</time>
      </trkpt>
      <trkpt lat="48.95024" lon="0.24747">
        <ele>203.12</ele>
        <time>2015-11-08T14:00:40Z</time>
      </trkpt>
      <trkpt lat="48.95026" lon="0.24744">
        <ele>203.24</ele>
        <time>2015-11-08T14:00:41Z</time>
      </trkpt>
      <trkpt lat="48.95029" lon="0.24737">
        <ele>203.56</ele>
        <time>2015-11-08T14:00:43Z</time>
      </trkpt>
      <trkpt lat="48.95029" lon="0.24733">
        <ele>203.74</ele>
        <time>2015-11-08T14:00:44Z</time>
      </trkpt>
      <trkpt lat="48.9503" lon="0.24725">
        <ele>204.09</ele>
        <time>2015-11-08T14:00:46Z</time>
      </trkpt>
      <trkpt lat="48.95031" lon="0.24717">
        <ele>204.6</ele>
        <time>2015-11-08T14:00:48Z</time>
      </trkpt>
      <trkpt lat="48.95031" lon="0.24712">
        <ele>204.92</ele>
        <time>2015-11-08T14:00:49Z</time>
      </trkpt>
      <trkpt lat="48.95032" lon="0.24708">
        <ele>205.23</ele>
        <time>2015-11-08T14:00:50Z</time>
      </trkpt>
      <trkpt lat="48.95034" lon="0.24701">
        <ele>205.8</ele>
        <time>2015-11-08T14:00:52Z</time>
      </trkpt>
      <trkpt lat="48.95037" lon="0.24694">
        <ele>206.35</ele>
        <time>2015-11-08T14:00:54Z</time>
      </trkpt>
      <trkpt lat="48.95039" lon="0.2469">
        <ele>206.56</ele>
        <time>2015-11-08T14:00:55Z</time>
      </trkpt>
      <trkpt lat="48.9504" lon="0.24684">
        <ele>206.78</ele>
        <time>2015-11-08T14:00:56Z</time>
      </trkpt>
      <trkpt lat="48.9504" lon="0.24679">
        <ele>206.98</ele>
        <time>2015-11-08T14:00:57Z</time>
      </trkpt>
      <trkpt lat="48.95039" lon="0.24674">
        <ele>207.16</ele>
        <time>2015-11-08T14:00:58Z</time>
      </trkpt>
      <trkpt lat="48.9504" lon="0.24669">
        <ele>207.34</ele>
        <time>2015-11-08T14:00:59Z</time>
      </trkpt>
      <trkpt lat="48.95042" lon="0.24662">
        <ele>207.35</ele>
        <time>2015-11-08T14:01:01Z</time>
      </trkpt>
      <trkpt lat="48.95043" lon="0.24658">
        <ele>207.29</ele>
        <time>2015-11-08T14:01:02Z</time>
      </trkpt>
      <trkpt lat="48.95045" lon="0.24651">
        <ele>207.15</ele>
        <time>2015-11-08T14:01:04Z</time>
      </trkpt>
      <trkpt lat="48.95045" lon="0.24644">
        <ele>207.03</ele>
        <time>2015-11-08T14:01:06Z</time>
      </trkpt>
      <trkpt lat="48.95046" lon="0.24637">
        <ele>207</ele>
        <time>2015-11-08T14:01:08Z</time>
      </trkpt>
      <trkpt lat="48.95047" lon="0.24633">
        <ele>207.07</ele>
        <time>2015-11-08T14:01:09Z</time>
      </trkpt>
      <trkpt lat="48.95047" lon="0.24628">
        <ele>207.11</ele>
        <time>2015-11-08T14:01:10Z</time>
      </trkpt>
      <trkpt lat="48.95048" lon="0.24623">
        <ele>207.15</ele>
        <time>2015-11-08T14:01:11Z</time>
      </trkpt>
      <trkpt lat="48.95048" lon="0.24618">
        <ele>207.17</ele>
        <time>2015-11-08T14:01:12Z</time>
      </trkpt>
      <trkpt lat="48.95049" lon="0.24613">
        <ele>207.24</ele>
        <time>2015-11-08T14:01:13Z</time>
      </trkpt>
      <trkpt lat="48.95049" lon="0.24608">
        <ele>206.97</ele>
        <time>2015-11-08T14:01:14Z</time>
      </trkpt>
      <trkpt lat="48.95051" lon="0.24603">
        <ele>206.55</ele>
        <time>2015-11-08T14:01:15Z</time>
      </trkpt>
      <trkpt lat="48.95052" lon="0.24598">
        <ele>206.18</ele>
        <time>2015-11-08T14:01:16Z</time>
      </trkpt>
      <trkpt lat="48.95053" lon="0.24593">
        <ele>205.78</ele>
        <time>2015-11-08T14:01:17Z</time>
      </trkpt>
      <trkpt lat="48.95053" lon="0.24589">
        <ele>205.39</ele>
        <time>2015-11-08T14:01:18Z</time>
      </trkpt>
      <trkpt lat="48.95054" lon="0.24585">
        <ele>204.98</ele>
        <time>2015-11-08T14:01:19Z</time>
      </trkpt>
      <trkpt lat="48.95056" lon="0.24578">
        <ele>204.54</ele>
        <time>2015-11-08T14:01:21Z</time>
      </trkpt>
      <trkpt lat="48.9506" lon="0.24572">
        <ele>204.65</ele>
        <time>2015-11-08T14:01:23Z</time>
      </trkpt>
      <trkpt lat="48.95061" lon="0.24569">
        <ele>204.75</ele>
        <time>2015-11-08T14:01:24Z</time>
      </trkpt>
      <trkpt lat="48.95063" lon="0.24566">
        <ele>204.88</ele>
        <time>2015-11-08T14:01:25Z</time>
      </trkpt>
      <trkpt lat="48.95067" lon="0.2456">
        <ele>205.17</ele>
        <time>2015-11-08T14:01:27Z</time>
      </trkpt>
      <trkpt lat="48.95068" lon="0.24556">
        <ele>205.27</ele>
        <time>2015-11-08T14:01:28Z</time>
      </trkpt>
      <trkpt lat="48.9507" lon="0.24552">
        <ele>205.44</ele>
        <time>2015-11-08T14:01:29Z</time>
      </trkpt>
      <trkpt lat="48.95071" lon="0.24549">
        <ele>205.66</ele>
        <time>2015-11-08T14:01:30Z</time>
      </trkpt>
      <trkpt lat="48.95073" lon="0.24545">
        <ele>205.94</ele>
        <time>2015-11-08T14:01:31Z</time>
      </trkpt>
      <trkpt lat="48.95075" lon="0.24542">
        <ele>206.17</ele>
        <time>2015-11-08T14:01:32Z</time>
      </trkpt>
      <trkpt lat="48.95076" lon="0.24537">
        <ele>206.27</ele>
        <time>2015-11-08T14:01:33Z</time>
      </trkpt>
      <trkpt lat="48.95078" lon="0.24533">
        <ele>206.27</ele>
        <time>2015-11-08T14:01:34Z</time>
      </trkpt>
      <trkpt lat="48.95079" lon="0.24528">
        <ele>206.23</ele>
        <time>2015-11-08T14:01:35Z</time>
      </trkpt>
      <trkpt lat="48.9508" lon="0.24524">
        <ele>206.6</ele>
        <time>2015-11-08T14:01:36Z</time>
      </trkpt>
      <trkpt lat="48.95082" lon="0.2452">
        <ele>207</ele>
        <time>2015-11-08T14:01:37Z</time>
      </trkpt>
      <trkpt lat="48.95083" lon="0.24516">
        <ele>207.4</ele>
        <time>2015-11-08T14:01:38Z</time>
      </trkpt>
      <trkpt lat="48.95085" lon="0.24512">
        <ele>207.79</ele>
        <time>2015-11-08T14:01:39Z</time>
      </trkpt>
      <trkpt lat="48.95086" lon="0.24507">
        <ele>208.16</ele>
        <time>2015-11-08T14:01:40Z</time>
      </trkpt>
      <trkpt lat="48.95088" lon="0.24503">
        <ele>208.54</ele>
        <time>2015-11-08T14:01:41Z</time>
      </trkpt>
      <trkpt lat="48.95089" lon="0.24498">
        <ele>208.91</ele>
        <time>2015-11-08T14:01:42Z</time>
      </trkpt>
      <trkpt lat="48.9509" lon="0.24493">
        <ele>209.33</ele>
        <time>2015-11-08T14:01:43Z</time>
      </trkpt>
      <trkpt lat="48.95092" lon="0.24489">
        <ele>209.76</ele>
        <time>2015-11-08T14:01:44Z</time>
      </trkpt>
      <trkpt lat="48.95093" lon="0.24484">
        <ele>210.15</ele>
        <time>2015-11-08T14:01:45Z</time>
      </trkpt>
      <trkpt lat="48.95094" lon="0.2448">
        <ele>210.52</ele>
        <time>2015-11-08T14:01:46Z</time>
      </trkpt>
      <trkpt lat="48.95095" lon="0.24475">
        <ele>210.9</ele>
        <time>2015-11-08T14:01:47Z</time>
      </trkpt>
      <trkpt lat="48.95095" lon="0.2447">
        <ele>211.21</ele>
        <time>2015-11-08T14:01:48Z</time>
      </trkpt>
      <trkpt lat="48.95096" lon="0.24465">
        <ele>211.45</ele>
        <time>2015-11-08T14:01:49Z</time>
      </trkpt>
      <trkpt lat="48.95097" lon="0.2446">
        <ele>211.65</ele>
        <time>2015-11-08T14:01:50Z</time>
      </trkpt>
      <trkpt lat="48.95097" lon="0.24455">
        <ele>211.82</ele>
        <time>2015-11-08T14:01:51Z</time>
      </trkpt>
      <trkpt lat="48.95098" lon="0.24449">
        <ele>212</ele>
        <time>2015-11-08T14:01:52Z</time>
      </trkpt>
      <trkpt lat="48.95098" lon="0.24444">
        <ele>212.21</ele>
        <time>2015-11-08T14:01:53Z</time>
      </trkpt>
      <trkpt lat="48.95098" lon="0.24439">
        <ele>212.37</ele>
        <time>2015-11-08T14:01:54Z</time>
      </trkpt>
      <trkpt lat="48.95099" lon="0.24434">
        <ele>212.54</ele>
        <time>2015-11-08T14:01:55Z</time>
      </trkpt>
      <trkpt lat="48.95099" lon="0.2443">
        <ele>212.68</ele>
        <time>2015-11-08T14:01:56Z</time>
      </trkpt>
      <trkpt lat="48.951" lon="0.24426">
        <ele>213</ele>
        <time>2015-11-08T14:01:57Z</time>
      </trkpt>
      <trkpt lat="48.95102" lon="0.24418">
        <ele>213.85</ele>
        <time>2015-11-08T14:01:59Z</time>
      </trkpt>
      <trkpt lat="48.95103" lon="0.2441">
        <ele>214.64</ele>
        <time>2015-11-08T14:02:01Z</time>
      </trkpt>
      <trkpt lat="48.95104" lon="0.24405">
        <ele>215.01</ele>
        <time>2015-11-08T14:02:02Z</time>
      </trkpt>
      <trkpt lat="48.95105" lon="0.24401">
        <ele>215.45</ele>
        <time>2015-11-08T14:02:03Z</time>
      </trkpt>
      <trkpt lat="48.95106" lon="0.24397">
        <ele>215.96</ele>
        <time>2015-11-08T14:02:04Z</time>
      </trkpt>
      <trkpt lat="48.95107" lon="0.24393">
        <ele>216.48</ele>
        <time>2015-11-08T14:02:05Z</time>
      </trkpt>
      <trkpt lat="48.95108" lon="0.24386">
        <ele>217.3</ele>
        <time>2015-11-08T14:02:07Z</time>
      </trkpt>
      <trkpt lat="48.95108" lon="0.24378">
        <ele>218.01</ele>
        <time>2015-11-08T14:02:09Z</time>
      </trkpt>
      <trkpt lat="48.95109" lon="0.24373">
        <ele>218.63</ele>
        <time>2015-11-08T14:02:10Z</time>
      </trkpt>
      <trkpt lat="48.95109" lon="0.24369">
        <ele>219.31</ele>
        <time>2015-11-08T14:02:11Z</time>
      </trkpt>
      <trkpt lat="48.9511" lon="0.24364">
        <ele>220.17</ele>
        <time>2015-11-08T14:02:12Z</time>
      </trkpt>
      <trkpt lat="48.95111" lon="0.2436">
        <ele>220.35</ele>
        <time>2015-11-08T14:02:13Z</time>
      </trkpt>
      <trkpt lat="48.95112" lon="0.24355">
        <ele>218.64</ele>
        <time>2015-11-08T14:02:14Z</time>
      </trkpt>
      <trkpt lat="48.95113" lon="0.24351">
        <ele>217</ele>
        <time>2015-11-08T14:02:15Z</time>
      </trkpt>
      <trkpt lat="48.95114" lon="0.24347">
        <ele>215.45</ele>
        <time>2015-11-08T14:02:16Z</time>
      </trkpt>
      <trkpt lat="48.95115" lon="0.24343">
        <ele>213.95</ele>
        <time>2015-11-08T14:02:17Z</time>
      </trkpt>
      <trkpt lat="48.95116" lon="0.24338">
        <ele>212.3</ele>
        <time>2015-11-08T14:02:18Z</time>
      </trkpt>
      <trkpt lat="48.95116" lon="0.24333">
        <ele>210.93</ele>
        <time>2015-11-08T14:02:19Z</time>
      </trkpt>
      <trkpt lat="48.95118" lon="0.24328">
        <ele>210.92</ele>
        <time>2015-11-08T14:02:20Z</time>
      </trkpt>
      <trkpt lat="48.95119" lon="0.24322">
        <ele>210.89</ele>
        <time>2015-11-08T14:02:21Z</time>
      </trkpt>
      <trkpt lat="48.9512" lon="0.24317">
        <ele>210.82</ele>
        <time>2015-11-08T14:02:22Z</time>
      </trkpt>
      <trkpt lat="48.95121" lon="0.24311">
        <ele>210.69</ele>
        <time>2015-11-08T14:02:23Z</time>
      </trkpt>
      <trkpt lat="48.95122" lon="0.24306">
        <ele>210.56</ele>
        <time>2015-11-08T14:02:24Z</time>
      </trkpt>
      <trkpt lat="48.95123" lon="0.24301">
        <ele>210.45</ele>
        <time>2015-11-08T14:02:25Z</time>
      </trkpt>
      <trkpt lat="48.95124" lon="0.24296">
        <ele>210.34</ele>
        <time>2015-11-08T14:02:26Z</time>
      </trkpt>
      <trkpt lat="48.95125" lon="0.24291">
        <ele>210.21</ele>
        <time>2015-11-08T14:02:27Z</time>
      </trkpt>
      <trkpt lat="48.95126" lon="0.24287">
        <ele>210.1</ele>
        <time>2015-11-08T14:02:28Z</time>
      </trkpt>
      <trkpt lat="48.95127" lon="0.24283">
        <ele>210</ele>
        <time>2015-11-08T14:02:29Z</time>
      </trkpt>
      <trkpt lat="48.95128" lon="0.24278">
        <ele>209.88</ele>
        <time>2015-11-08T14:02:30Z</time>
      </trkpt>
      <trkpt lat="48.95129" lon="0.24273">
        <ele>209.88</ele>
        <time>2015-11-08T14:02:31Z</time>
      </trkpt>
      <trkpt lat="48.95129" lon="0.24268">
        <ele>209.87</ele>
        <time>2015-11-08T14:02:32Z</time>
      </trkpt>
      <trkpt lat="48.9513" lon="0.24263">
        <ele>209.84</ele>
        <time>2015-11-08T14:02:33Z</time>
      </trkpt>
      <trkpt lat="48.9513" lon="0.24257">
        <ele>209.79</ele>
        <time>2015-11-08T14:02:34Z</time>
      </trkpt>
      <trkpt lat="48.9513" lon="0.24251">
        <ele>209.71</ele>
        <time>2015-11-08T14:02:35Z</time>
      </trkpt>
      <trkpt lat="48.9513" lon="0.24246">
        <ele>209.63</ele>
        <time>2015-11-08T14:02:36Z</time>
      </trkpt>
      <trkpt lat="48.9513" lon="0.24241">
        <ele>209.54</ele>
        <time>2015-11-08T14:02:37Z</time>
      </trkpt>
      <trkpt lat="48.9513" lon="0.24236">
        <ele>209.45</ele>
        <time>2015-11-08T14:02:38Z</time>
      </trkpt>
      <trkpt lat="48.9513" lon="0.24231">
        <ele>209.36</ele>
        <time>2015-11-08T14:02:39Z</time>
      </trkpt>
      <trkpt lat="48.9513" lon="0.24226">
        <ele>209.3</ele>
        <time>2015-11-08T14:02:40Z</time>
      </trkpt>
      <trkpt lat="48.9513" lon="0.2422">
        <ele>209.27</ele>
        <time>2015-11-08T14:02:41Z</time>
      </trkpt>
      <trkpt lat="48.9513" lon="0.24215">
        <ele>209.24</ele>
        <time>2015-11-08T14:02:42Z</time>
      </trkpt>
      <trkpt lat="48.9513" lon="0.24209">
        <ele>209.17</ele>
        <time>2015-11-08T14:02:43Z</time>
      </trkpt>
      <trkpt lat="48.9513" lon="0.24202">
        <ele>209.12</ele>
        <time>2015-11-08T14:02:44Z</time>
      </trkpt>
      <trkpt lat="48.9513" lon="0.24194">
        <ele>209.12</ele>
        <time>2015-11-08T14:02:45Z</time>
      </trkpt>
      <trkpt lat="48.9513" lon="0.24178">
        <ele>208.07</ele>
        <time>2015-11-08T14:02:46Z</time>
      </trkpt>
      <trkpt lat="48.95129" lon="0.24171">
        <ele>207.49</ele>
        <time>2015-11-08T14:02:47Z</time>
      </trkpt>
      <trkpt lat="48.95128" lon="0.24163">
        <ele>207.26</ele>
        <time>2015-11-08T14:02:48Z</time>
      </trkpt>
      <trkpt lat="48.95127" lon="0.24155">
        <ele>207.48</ele>
        <time>2015-11-08T14:02:49Z</time>
      </trkpt>
      <trkpt lat="48.95127" lon="0.24146">
        <ele>208.01</ele>
        <time>2015-11-08T14:02:50Z</time>
      </trkpt>
      <trkpt lat="48.95128" lon="0.24138">
        <ele>208.7</ele>
        <time>2015-11-08T14:02:51Z</time>
      </trkpt>
      <trkpt lat="48.95129" lon="0.24131">
        <ele>208.73</ele>
        <time>2015-11-08T14:02:52Z</time>
      </trkpt>
      <trkpt lat="48.95126" lon="0.24121">
        <ele>207.14</ele>
        <time>2015-11-08T14:02:53Z</time>
      </trkpt>
      <trkpt lat="48.95124" lon="0.24112">
        <ele>206.18</ele>
        <time>2015-11-08T14:02:54Z</time>
      </trkpt>
      <trkpt lat="48.95124" lon="0.24104">
        <ele>206.03</ele>
        <time>2015-11-08T14:02:55Z</time>
      </trkpt>
      <trkpt lat="48.95124" lon="0.24097">
        <ele>206.19</ele>
        <time>2015-11-08T14:02:56Z</time>
      </trkpt>
      <trkpt lat="48.95124" lon="0.2409">
        <ele>206.02</ele>
        <time>2015-11-08T14:02:57Z</time>
      </trkpt>
      <trkpt lat="48.95122" lon="0.2408">
        <ele>205.89</ele>
        <time>2015-11-08T14:02:58Z</time>
      </trkpt>
      <trkpt lat="48.95122" lon="0.24073">
        <ele>206.19</ele>
        <time>2015-11-08T14:02:59Z</time>
      </trkpt>
      <trkpt lat="48.95122" lon="0.24065">
        <ele>206.91</ele>
        <time>2015-11-08T14:03:00Z</time>
      </trkpt>
      <trkpt lat="48.95123" lon="0.2406">
        <ele>207.33</ele>
        <time>2015-11-08T14:03:01Z</time>
      </trkpt>
      <trkpt lat="48.95122" lon="0.24054">
        <ele>207.52</ele>
        <time>2015-11-08T14:03:02Z</time>
      </trkpt>
      <trkpt lat="48.95122" lon="0.24047">
        <ele>207.23</ele>
        <time>2015-11-08T14:03:03Z</time>
      </trkpt>
      <trkpt lat="48.95121" lon="0.24039">
        <ele>207.01</ele>
        <time>2015-11-08T14:03:04Z</time>
      </trkpt>
      <trkpt lat="48.95119" lon="0.24028">
        <ele>207.41</ele>
        <time>2015-11-08T14:03:05Z</time>
      </trkpt>
      <trkpt lat="48.95119" lon="0.24021">
        <ele>206.28</ele>
        <time>2015-11-08T14:03:06Z</time>
      </trkpt>
      <trkpt lat="48.95119" lon="0.24013">
        <ele>205.18</ele>
        <time>2015-11-08T14:03:07Z</time>
      </trkpt>
      <trkpt lat="48.9512" lon="0.24008">
        <ele>204.5</ele>
        <time>2015-11-08T14:03:08Z</time>
      </trkpt>
      <trkpt lat="48.9512" lon="0.24002">
        <ele>203.64</ele>
        <time>2015-11-08T14:03:09Z</time>
      </trkpt>
      <trkpt lat="48.9512" lon="0.23997">
        <ele>202.49</ele>
        <time>2015-11-08T14:03:10Z</time>
      </trkpt>
      <trkpt lat="48.9512" lon="0.23989">
        <ele>200.57</ele>
        <time>2015-11-08T14:03:11Z</time>
      </trkpt>
      <trkpt lat="48.95121" lon="0.23981">
        <ele>198.67</ele>
        <time>2015-11-08T14:03:13Z</time>
      </trkpt>
      <trkpt lat="48.95123" lon="0.23978">
        <ele>198.03</ele>
        <time>2015-11-08T14:03:14Z</time>
      </trkpt>
      <trkpt lat="48.95126" lon="0.23977">
        <ele>198.22</ele>
        <time>2015-11-08T14:03:17Z</time>
      </trkpt>
      <trkpt lat="48.95129" lon="0.23975">
        <ele>198.06</ele>
        <time>2015-11-08T14:03:19Z</time>
      </trkpt>
      <trkpt lat="48.95132" lon="0.23974">
        <ele>198.35</ele>
        <time>2015-11-08T14:03:21Z</time>
      </trkpt>
      <trkpt lat="48.95135" lon="0.23976">
        <ele>198.98</ele>
        <time>2015-11-08T14:03:23Z</time>
      </trkpt>
      <trkpt lat="48.95139" lon="0.23974">
        <ele>199.12</ele>
        <time>2015-11-08T14:03:25Z</time>
      </trkpt>
      <trkpt lat="48.95143" lon="0.23971">
        <ele>197.89</ele>
        <time>2015-11-08T14:03:27Z</time>
      </trkpt>
      <trkpt lat="48.95147" lon="0.23968">
        <ele>196.9</ele>
        <time>2015-11-08T14:03:29Z</time>
      </trkpt>
      <trkpt lat="48.95151" lon="0.23964">
        <ele>196.1</ele>
        <time>2015-11-08T14:03:31Z</time>
      </trkpt>
      <trkpt lat="48.95155" lon="0.23961">
        <ele>195.32</ele>
        <time>2015-11-08T14:03:33Z</time>
      </trkpt>
      <trkpt lat="48.9516" lon="0.23957">
        <ele>194.67</ele>
        <time>2015-11-08T14:03:35Z</time>
      </trkpt>
      <trkpt lat="48.95163" lon="0.23955">
        <ele>194.39</ele>
        <time>2015-11-08T14:03:36Z</time>
      </trkpt>
      <trkpt lat="48.95166" lon="0.23953">
        <ele>194.19</ele>
        <time>2015-11-08T14:03:37Z</time>
      </trkpt>
      <trkpt lat="48.95169" lon="0.2395">
        <ele>194.98</ele>
        <time>2015-11-08T14:03:38Z</time>
      </trkpt>
      <trkpt lat="48.95173" lon="0.23948">
        <ele>195.9</ele>
        <time>2015-11-08T14:03:39Z</time>
      </trkpt>
      <trkpt lat="48.95176" lon="0.23946">
        <ele>196.78</ele>
        <time>2015-11-08T14:03:40Z</time>
      </trkpt>
      <trkpt lat="48.95179" lon="0.23943">
        <ele>197.58</ele>
        <time>2015-11-08T14:03:41Z</time>
      </trkpt>
      <trkpt lat="48.95182" lon="0.2394">
        <ele>198.09</ele>
        <time>2015-11-08T14:03:42Z</time>
      </trkpt>
      <trkpt lat="48.95184" lon="0.23937">
        <ele>198.37</ele>
        <time>2015-11-08T14:03:43Z</time>
      </trkpt>
      <trkpt lat="48.95187" lon="0.23935">
        <ele>198.47</ele>
        <time>2015-11-08T14:03:44Z</time>
      </trkpt>
      <trkpt lat="48.9519" lon="0.23932">
        <ele>198.43</ele>
        <time>2015-11-08T14:03:45Z</time>
      </trkpt>
      <trkpt lat="48.95193" lon="0.2393">
        <ele>198.25</ele>
        <time>2015-11-08T14:03:46Z</time>
      </trkpt>
      <trkpt lat="48.95195" lon="0.23927">
        <ele>198.23</ele>
        <time>2015-11-08T14:03:47Z</time>
      </trkpt>
      <trkpt lat="48.95198" lon="0.23924">
        <ele>198.62</ele>
        <time>2015-11-08T14:03:48Z</time>
      </trkpt>
      <trkpt lat="48.95199" lon="0.23919">
        <ele>198.58</ele>
        <time>2015-11-08T14:03:49Z</time>
      </trkpt>
      <trkpt lat="48.95199" lon="0.23914">
        <ele>198.58</ele>
        <time>2015-11-08T14:03:50Z</time>
      </trkpt>
      <trkpt lat="48.95197" lon="0.23909">
        <ele>198.87</ele>
        <time>2015-11-08T14:03:51Z</time>
      </trkpt>
      <trkpt lat="48.95195" lon="0.23904">
        <ele>198.75</ele>
        <time>2015-11-08T14:03:52Z</time>
      </trkpt>
      <trkpt lat="48.95191" lon="0.239">
        <ele>199.67</ele>
        <time>2015-11-08T14:03:53Z</time>
      </trkpt>
      <trkpt lat="48.95188" lon="0.23897">
        <ele>200.52</ele>
        <time>2015-11-08T14:03:54Z</time>
      </trkpt>
      <trkpt lat="48.95185" lon="0.23893">
        <ele>201.27</ele>
        <time>2015-11-08T14:03:55Z</time>
      </trkpt>
      <trkpt lat="48.95182" lon="0.23889">
        <ele>201.96</ele>
        <time>2015-11-08T14:03:56Z</time>
      </trkpt>
      <trkpt lat="48.95179" lon="0.23885">
        <ele>202.38</ele>
        <time>2015-11-08T14:03:57Z</time>
      </trkpt>
      <trkpt lat="48.95176" lon="0.23882">
        <ele>202.56</ele>
        <time>2015-11-08T14:03:58Z</time>
      </trkpt>
      <trkpt lat="48.95173" lon="0.23879">
        <ele>202.53</ele>
        <time>2015-11-08T14:03:59Z</time>
      </trkpt>
      <trkpt lat="48.9517" lon="0.23876">
        <ele>202.34</ele>
        <time>2015-11-08T14:04:00Z</time>
      </trkpt>
      <trkpt lat="48.95166" lon="0.23873">
        <ele>202.02</ele>
        <time>2015-11-08T14:04:01Z</time>
      </trkpt>
      <trkpt lat="48.95163" lon="0.2387">
        <ele>202.45</ele>
        <time>2015-11-08T14:04:02Z</time>
      </trkpt>
      <trkpt lat="48.9516" lon="0.23867">
        <ele>202.91</ele>
        <time>2015-11-08T14:04:03Z</time>
      </trkpt>
      <trkpt lat="48.95157" lon="0.23864">
        <ele>203.41</ele>
        <time>2015-11-08T14:04:04Z</time>
      </trkpt>
      <trkpt lat="48.95153" lon="0.23861">
        <ele>203.92</ele>
        <time>2015-11-08T14:04:05Z</time>
      </trkpt>
      <trkpt lat="48.9515" lon="0.23858">
        <ele>203.86</ele>
        <time>2015-11-08T14:04:06Z</time>
      </trkpt>
      <trkpt lat="48.95146" lon="0.23856">
        <ele>203.9</ele>
        <time>2015-11-08T14:04:07Z</time>
      </trkpt>
      <trkpt lat="48.95142" lon="0.23854">
        <ele>204.06</ele>
        <time>2015-11-08T14:04:08Z</time>
      </trkpt>
      <trkpt lat="48.95138" lon="0.23853">
        <ele>204.09</ele>
        <time>2015-11-08T14:04:09Z</time>
      </trkpt>
      <trkpt lat="48.95133" lon="0.23852">
        <ele>203.35</ele>
        <time>2015-11-08T14:04:10Z</time>
      </trkpt>
      <trkpt lat="48.95129" lon="0.2385">
        <ele>202.63</ele>
        <time>2015-11-08T14:04:11Z</time>
      </trkpt>
      <trkpt lat="48.95125" lon="0.23848">
        <ele>201.91</ele>
        <time>2015-11-08T14:04:12Z</time>
      </trkpt>
      <trkpt lat="48.95121" lon="0.23846">
        <ele>201.19</ele>
        <time>2015-11-08T14:04:13Z</time>
      </trkpt>
      <trkpt lat="48.95118" lon="0.23843">
        <ele>200.48</ele>
        <time>2015-11-08T14:04:14Z</time>
      </trkpt>
      <trkpt lat="48.95114" lon="0.2384">
        <ele>199.89</ele>
        <time>2015-11-08T14:04:15Z</time>
      </trkpt>
      <trkpt lat="48.95111" lon="0.23837">
        <ele>199.42</ele>
        <time>2015-11-08T14:04:16Z</time>
      </trkpt>
      <trkpt lat="48.95107" lon="0.23836">
        <ele>199.24</ele>
        <time>2015-11-08T14:04:17Z</time>
      </trkpt>
      <trkpt lat="48.95103" lon="0.23834">
        <ele>199.07</ele>
        <time>2015-11-08T14:04:18Z</time>
      </trkpt>
      <trkpt lat="48.95098" lon="0.23833">
        <ele>198.97</ele>
        <time>2015-11-08T14:04:19Z</time>
      </trkpt>
      <trkpt lat="48.95094" lon="0.23831">
        <ele>198.92</ele>
        <time>2015-11-08T14:04:20Z</time>
      </trkpt>
      <trkpt lat="48.9509" lon="0.2383">
        <ele>198.88</ele>
        <time>2015-11-08T14:04:21Z</time>
      </trkpt>
      <trkpt lat="48.95086" lon="0.23829">
        <ele>198.86</ele>
        <time>2015-11-08T14:04:22Z</time>
      </trkpt>
      <trkpt lat="48.95081" lon="0.23829">
        <ele>199.06</ele>
        <time>2015-11-08T14:04:23Z</time>
      </trkpt>
      <trkpt lat="48.95077" lon="0.23829">
        <ele>199.51</ele>
        <time>2015-11-08T14:04:24Z</time>
      </trkpt>
      <trkpt lat="48.95073" lon="0.23828">
        <ele>199.92</ele>
        <time>2015-11-08T14:04:25Z</time>
      </trkpt>
      <trkpt lat="48.95069" lon="0.23826">
        <ele>200.29</ele>
        <time>2015-11-08T14:04:26Z</time>
      </trkpt>
      <trkpt lat="48.95065" lon="0.23825">
        <ele>200.62</ele>
        <time>2015-11-08T14:04:27Z</time>
      </trkpt>
      <trkpt lat="48.95062" lon="0.23823">
        <ele>200.96</ele>
        <time>2015-11-08T14:04:28Z</time>
      </trkpt>
      <trkpt lat="48.95058" lon="0.23822">
        <ele>201.31</ele>
        <time>2015-11-08T14:04:29Z</time>
      </trkpt>
      <trkpt lat="48.95055" lon="0.23821">
        <ele>201.67</ele>
        <time>2015-11-08T14:04:30Z</time>
      </trkpt>
      <trkpt lat="48.95051" lon="0.2382">
        <ele>202.09</ele>
        <time>2015-11-08T14:04:31Z</time>
      </trkpt>
      <trkpt lat="48.95047" lon="0.23819">
        <ele>202.51</ele>
        <time>2015-11-08T14:04:32Z</time>
      </trkpt>
      <trkpt lat="48.95044" lon="0.23817">
        <ele>202.93</ele>
        <time>2015-11-08T14:04:33Z</time>
      </trkpt>
      <trkpt lat="48.9504" lon="0.23816">
        <ele>203.37</ele>
        <time>2015-11-08T14:04:34Z</time>
      </trkpt>
      <trkpt lat="48.95037" lon="0.23814">
        <ele>203.78</ele>
        <time>2015-11-08T14:04:35Z</time>
      </trkpt>
      <trkpt lat="48.95034" lon="0.23813">
        <ele>204.22</ele>
        <time>2015-11-08T14:04:36Z</time>
      </trkpt>
      <trkpt lat="48.9503" lon="0.23811">
        <ele>204.69</ele>
        <time>2015-11-08T14:04:37Z</time>
      </trkpt>
      <trkpt lat="48.95027" lon="0.2381">
        <ele>205.23</ele>
        <time>2015-11-08T14:04:38Z</time>
      </trkpt>
      <trkpt lat="48.95023" lon="0.23808">
        <ele>206.02</ele>
        <time>2015-11-08T14:04:39Z</time>
      </trkpt>
      <trkpt lat="48.9502" lon="0.23806">
        <ele>206.88</ele>
        <time>2015-11-08T14:04:40Z</time>
      </trkpt>
      <trkpt lat="48.95017" lon="0.23805">
        <ele>207.76</ele>
        <time>2015-11-08T14:04:41Z</time>
      </trkpt>
      <trkpt lat="48.95014" lon="0.23803">
        <ele>208.63</ele>
        <time>2015-11-08T14:04:42Z</time>
      </trkpt>
      <trkpt lat="48.95011" lon="0.23801">
        <ele>209.52</ele>
        <time>2015-11-08T14:04:43Z</time>
      </trkpt>
      <trkpt lat="48.95008" lon="0.23799">
        <ele>210.46</ele>
        <time>2015-11-08T14:04:44Z</time>
      </trkpt>
      <trkpt lat="48.95005" lon="0.23796">
        <ele>211.45</ele>
        <time>2015-11-08T14:04:45Z</time>
      </trkpt>
      <trkpt lat="48.95003" lon="0.23794">
        <ele>212.47</ele>
        <time>2015-11-08T14:04:46Z</time>
      </trkpt>
      <trkpt lat="48.95" lon="0.23792">
        <ele>213.5</ele>
        <time>2015-11-08T14:04:47Z</time>
      </trkpt>
      <trkpt lat="48.94997" lon="0.23789">
        <ele>213.75</ele>
        <time>2015-11-08T14:04:48Z</time>
      </trkpt>
      <trkpt lat="48.94995" lon="0.23786">
        <ele>214.02</ele>
        <time>2015-11-08T14:04:49Z</time>
      </trkpt>
      <trkpt lat="48.94993" lon="0.23783">
        <ele>214.21</ele>
        <time>2015-11-08T14:04:50Z</time>
      </trkpt>
      <trkpt lat="48.94988" lon="0.23779">
        <ele>214.44</ele>
        <time>2015-11-08T14:04:52Z</time>
      </trkpt>
      <trkpt lat="48.94986" lon="0.23777">
        <ele>214.42</ele>
        <time>2015-11-08T14:04:53Z</time>
      </trkpt>
      <trkpt lat="48.94983" lon="0.23774">
        <ele>214.11</ele>
        <time>2015-11-08T14:04:54Z</time>
      </trkpt>
      <trkpt lat="48.94981" lon="0.23772">
        <ele>213.79</ele>
        <time>2015-11-08T14:04:55Z</time>
      </trkpt>
      <trkpt lat="48.94978" lon="0.23769">
        <ele>213.49</ele>
        <time>2015-11-08T14:04:56Z</time>
      </trkpt>
      <trkpt lat="48.94976" lon="0.23766">
        <ele>213.23</ele>
        <time>2015-11-08T14:04:57Z</time>
      </trkpt>
      <trkpt lat="48.94973" lon="0.23764">
        <ele>213</ele>
        <time>2015-11-08T14:04:58Z</time>
      </trkpt>
      <trkpt lat="48.94971" lon="0.23761">
        <ele>212.68</ele>
        <time>2015-11-08T14:04:59Z</time>
      </trkpt>
      <trkpt lat="48.94969" lon="0.23758">
        <ele>212.29</ele>
        <time>2015-11-08T14:05:00Z</time>
      </trkpt>
      <trkpt lat="48.94967" lon="0.23755">
        <ele>211.94</ele>
        <time>2015-11-08T14:05:01Z</time>
      </trkpt>
      <trkpt lat="48.94964" lon="0.23753">
        <ele>211.61</ele>
        <time>2015-11-08T14:05:02Z</time>
      </trkpt>
      <trkpt lat="48.94962" lon="0.2375">
        <ele>211.28</ele>
        <time>2015-11-08T14:05:03Z</time>
      </trkpt>
      <trkpt lat="48.9496" lon="0.23748">
        <ele>210.67</ele>
        <time>2015-11-08T14:05:04Z</time>
      </trkpt>
      <trkpt lat="48.94957" lon="0.23746">
        <ele>210.13</ele>
        <time>2015-11-08T14:05:05Z</time>
      </trkpt>
      <trkpt lat="48.94955" lon="0.23744">
        <ele>209.68</ele>
        <time>2015-11-08T14:05:06Z</time>
      </trkpt>
      <trkpt lat="48.94951" lon="0.2374">
        <ele>208.76</ele>
        <time>2015-11-08T14:05:08Z</time>
      </trkpt>
      <trkpt lat="48.94947" lon="0.23734">
        <ele>207.81</ele>
        <time>2015-11-08T14:05:10Z</time>
      </trkpt>
      <trkpt lat="48.94942" lon="0.23731">
        <ele>207.93</ele>
        <time>2015-11-08T14:05:12Z</time>
      </trkpt>
      <trkpt lat="48.94938" lon="0.23727">
        <ele>209.03</ele>
        <time>2015-11-08T14:05:14Z</time>
      </trkpt>
      <trkpt lat="48.94933" lon="0.23723">
        <ele>210.14</ele>
        <time>2015-11-08T14:05:16Z</time>
      </trkpt>
      <trkpt lat="48.94929" lon="0.23719">
        <ele>211.34</ele>
        <time>2015-11-08T14:05:18Z</time>
      </trkpt>
      <trkpt lat="48.94926" lon="0.23714">
        <ele>212.52</ele>
        <time>2015-11-08T14:05:20Z</time>
      </trkpt>
      <trkpt lat="48.94922" lon="0.23711">
        <ele>213.88</ele>
        <time>2015-11-08T14:05:22Z</time>
      </trkpt>
      <trkpt lat="48.94919" lon="0.23707">
        <ele>215.18</ele>
        <time>2015-11-08T14:05:24Z</time>
      </trkpt>
      <trkpt lat="48.94916" lon="0.23703">
        <ele>216.28</ele>
        <time>2015-11-08T14:05:26Z</time>
      </trkpt>
      <trkpt lat="48.94914" lon="0.23699">
        <ele>217.23</ele>
        <time>2015-11-08T14:05:29Z</time>
      </trkpt>
      <trkpt lat="48.9491" lon="0.23696">
        <ele>218.5</ele>
        <time>2015-11-08T14:06:13Z</time>
      </trkpt>
      <trkpt lat="48.94907" lon="0.23694">
        <ele>219.63</ele>
        <time>2015-11-08T14:06:15Z</time>
      </trkpt>
      <trkpt lat="48.94904" lon="0.23691">
        <ele>220.65</ele>
        <time>2015-11-08T14:06:17Z</time>
      </trkpt>
      <trkpt lat="48.949" lon="0.23688">
        <ele>221.86</ele>
        <time>2015-11-08T14:06:19Z</time>
      </trkpt>
      <trkpt lat="48.94896" lon="0.23684">
        <ele>223.32</ele>
        <time>2015-11-08T14:06:21Z</time>
      </trkpt>
      <trkpt lat="48.94891" lon="0.2368">
        <ele>224.84</ele>
        <time>2015-11-08T14:06:23Z</time>
      </trkpt>
      <trkpt lat="48.94887" lon="0.23676">
        <ele>225.57</ele>
        <time>2015-11-08T14:06:25Z</time>
      </trkpt>
      <trkpt lat="48.94883" lon="0.23671">
        <ele>225.08</ele>
        <time>2015-11-08T14:06:27Z</time>
      </trkpt>
      <trkpt lat="48.94878" lon="0.23667">
        <ele>224.64</ele>
        <time>2015-11-08T14:06:29Z</time>
      </trkpt>
      <trkpt lat="48.94874" lon="0.23663">
        <ele>223.53</ele>
        <time>2015-11-08T14:06:31Z</time>
      </trkpt>
      <trkpt lat="48.94869" lon="0.23658">
        <ele>222.45</ele>
        <time>2015-11-08T14:06:33Z</time>
      </trkpt>
      <trkpt lat="48.94867" lon="0.23656">
        <ele>221.87</ele>
        <time>2015-11-08T14:06:34Z</time>
      </trkpt>
      <trkpt lat="48.94864" lon="0.23651">
        <ele>220.97</ele>
        <time>2015-11-08T14:06:36Z</time>
      </trkpt>
      <trkpt lat="48.9486" lon="0.23647">
        <ele>219.97</ele>
        <time>2015-11-08T14:06:38Z</time>
      </trkpt>
      <trkpt lat="48.94855" lon="0.23645">
        <ele>217.96</ele>
        <time>2015-11-08T14:06:40Z</time>
      </trkpt>
      <trkpt lat="48.94851" lon="0.23642">
        <ele>216.14</ele>
        <time>2015-11-08T14:06:42Z</time>
      </trkpt>
      <trkpt lat="48.94847" lon="0.23638">
        <ele>214.49</ele>
        <time>2015-11-08T14:06:44Z</time>
      </trkpt>
      <trkpt lat="48.94843" lon="0.23634">
        <ele>213.39</ele>
        <time>2015-11-08T14:06:46Z</time>
      </trkpt>
      <trkpt lat="48.94839" lon="0.2363">
        <ele>212.55</ele>
        <time>2015-11-08T14:06:48Z</time>
      </trkpt>
      <trkpt lat="48.94834" lon="0.23629">
        <ele>211.69</ele>
        <time>2015-11-08T14:06:50Z</time>
      </trkpt>
      <trkpt lat="48.94831" lon="0.23626">
        <ele>211.95</ele>
        <time>2015-11-08T14:06:52Z</time>
      </trkpt>
      <trkpt lat="48.94827" lon="0.23622">
        <ele>212.64</ele>
        <time>2015-11-08T14:06:54Z</time>
      </trkpt>
      <trkpt lat="48.94822" lon="0.23618">
        <ele>213.32</ele>
        <time>2015-11-08T14:06:56Z</time>
      </trkpt>
      <trkpt lat="48.94818" lon="0.23613">
        <ele>214.18</ele>
        <time>2015-11-08T14:06:58Z</time>
      </trkpt>
      <trkpt lat="48.94814" lon="0.23609">
        <ele>214.87</ele>
        <time>2015-11-08T14:07:00Z</time>
      </trkpt>
      <trkpt lat="48.94811" lon="0.23604">
        <ele>215.34</ele>
        <time>2015-11-08T14:07:02Z</time>
      </trkpt>
      <trkpt lat="48.94808" lon="0.236">
        <ele>215.78</ele>
        <time>2015-11-08T14:07:04Z</time>
      </trkpt>
      <trkpt lat="48.94805" lon="0.23596">
        <ele>216.09</ele>
        <time>2015-11-08T14:07:06Z</time>
      </trkpt>
      <trkpt lat="48.94802" lon="0.23593">
        <ele>215.85</ele>
        <time>2015-11-08T14:07:08Z</time>
      </trkpt>
      <trkpt lat="48.94798" lon="0.2359">
        <ele>215.65</ele>
        <time>2015-11-08T14:07:10Z</time>
      </trkpt>
      <trkpt lat="48.94795" lon="0.23587">
        <ele>215.54</ele>
        <time>2015-11-08T14:07:12Z</time>
      </trkpt>
      <trkpt lat="48.94792" lon="0.23584">
        <ele>215.51</ele>
        <time>2015-11-08T14:07:14Z</time>
      </trkpt>
      <trkpt lat="48.94789" lon="0.2358">
        <ele>215.34</ele>
        <time>2015-11-08T14:07:16Z</time>
      </trkpt>
      <trkpt lat="48.94786" lon="0.23576">
        <ele>215.25</ele>
        <time>2015-11-08T14:07:18Z</time>
      </trkpt>
      <trkpt lat="48.94783" lon="0.23572">
        <ele>215.24</ele>
        <time>2015-11-08T14:07:20Z</time>
      </trkpt>
      <trkpt lat="48.9478" lon="0.23568">
        <ele>215.22</ele>
        <time>2015-11-08T14:07:22Z</time>
      </trkpt>
      <trkpt lat="48.94776" lon="0.23565">
        <ele>215.26</ele>
        <time>2015-11-08T14:07:24Z</time>
      </trkpt>
      <trkpt lat="48.94773" lon="0.23561">
        <ele>215.36</ele>
        <time>2015-11-08T14:07:26Z</time>
      </trkpt>
      <trkpt lat="48.94768" lon="0.23557">
        <ele>215.52</ele>
        <time>2015-11-08T14:07:28Z</time>
      </trkpt>
      <trkpt lat="48.94764" lon="0.23553">
        <ele>215.55</ele>
        <time>2015-11-08T14:07:30Z</time>
      </trkpt>
      <trkpt lat="48.9476" lon="0.2355">
        <ele>215.48</ele>
        <time>2015-11-08T14:07:32Z</time>
      </trkpt>
      <trkpt lat="48.94756" lon="0.23546">
        <ele>215.47</ele>
        <time>2015-11-08T14:07:34Z</time>
      </trkpt>
      <trkpt lat="48.94752" lon="0.23543">
        <ele>215.47</ele>
        <time>2015-11-08T14:07:36Z</time>
      </trkpt>
      <trkpt lat="48.94748" lon="0.23541">
        <ele>215.43</ele>
        <time>2015-11-08T14:07:38Z</time>
      </trkpt>
      <trkpt lat="48.94744" lon="0.23539">
        <ele>215.41</ele>
        <time>2015-11-08T14:07:40Z</time>
      </trkpt>
      <trkpt lat="48.9474" lon="0.23535">
        <ele>215.54</ele>
        <time>2015-11-08T14:07:42Z</time>
      </trkpt>
      <trkpt lat="48.94737" lon="0.23531">
        <ele>215.78</ele>
        <time>2015-11-08T14:07:44Z</time>
      </trkpt>
      <trkpt lat="48.94732" lon="0.23528">
        <ele>215.98</ele>
        <time>2015-11-08T14:07:46Z</time>
      </trkpt>
      <trkpt lat="48.94729" lon="0.23525">
        <ele>215.95</ele>
        <time>2015-11-08T14:07:48Z</time>
      </trkpt>
      <trkpt lat="48.94725" lon="0.2352">
        <ele>215.94</ele>
        <time>2015-11-08T14:07:50Z</time>
      </trkpt>
      <trkpt lat="48.94722" lon="0.23516">
        <ele>216.03</ele>
        <time>2015-11-08T14:07:52Z</time>
      </trkpt>
      <trkpt lat="48.94717" lon="0.23514">
        <ele>216.26</ele>
        <time>2015-11-08T14:07:54Z</time>
      </trkpt>
      <trkpt lat="48.94714" lon="0.2351">
        <ele>216.51</ele>
        <time>2015-11-08T14:07:56Z</time>
      </trkpt>
      <trkpt lat="48.9471" lon="0.23506">
        <ele>216.79</ele>
        <time>2015-11-08T14:07:58Z</time>
      </trkpt>
      <trkpt lat="48.94706" lon="0.23502">
        <ele>217.12</ele>
        <time>2015-11-08T14:08:00Z</time>
      </trkpt>
      <trkpt lat="48.94702" lon="0.23498">
        <ele>217.45</ele>
        <time>2015-11-08T14:08:02Z</time>
      </trkpt>
      <trkpt lat="48.94699" lon="0.23493">
        <ele>217.8</ele>
        <time>2015-11-08T14:08:04Z</time>
      </trkpt>
      <trkpt lat="48.94696" lon="0.23488">
        <ele>218.28</ele>
        <time>2015-11-08T14:08:06Z</time>
      </trkpt>
      <trkpt lat="48.94692" lon="0.23483">
        <ele>218.47</ele>
        <time>2015-11-08T14:08:08Z</time>
      </trkpt>
      <trkpt lat="48.94688" lon="0.2348">
        <ele>218.33</ele>
        <time>2015-11-08T14:08:10Z</time>
      </trkpt>
      <trkpt lat="48.94684" lon="0.23476">
        <ele>218.2</ele>
        <time>2015-11-08T14:08:12Z</time>
      </trkpt>
      <trkpt lat="48.94681" lon="0.23472">
        <ele>218.02</ele>
        <time>2015-11-08T14:08:14Z</time>
      </trkpt>
      <trkpt lat="48.94677" lon="0.23468">
        <ele>217.61</ele>
        <time>2015-11-08T14:08:16Z</time>
      </trkpt>
      <trkpt lat="48.94674" lon="0.23464">
        <ele>217.29</ele>
        <time>2015-11-08T14:08:18Z</time>
      </trkpt>
      <trkpt lat="48.94671" lon="0.23459">
        <ele>217.09</ele>
        <time>2015-11-08T14:08:20Z</time>
      </trkpt>
      <trkpt lat="48.94667" lon="0.23455">
        <ele>217</ele>
        <time>2015-11-08T14:08:22Z</time>
      </trkpt>
      <trkpt lat="48.94664" lon="0.23451">
        <ele>216.77</ele>
        <time>2015-11-08T14:08:24Z</time>
      </trkpt>
      <trkpt lat="48.9466" lon="0.23448">
        <ele>216.5</ele>
        <time>2015-11-08T14:08:26Z</time>
      </trkpt>
      <trkpt lat="48.94656" lon="0.23445">
        <ele>216.26</ele>
        <time>2015-11-08T14:08:28Z</time>
      </trkpt>
      <trkpt lat="48.94653" lon="0.23441">
        <ele>216.16</ele>
        <time>2015-11-08T14:08:30Z</time>
      </trkpt>
      <trkpt lat="48.9465" lon="0.23437">
        <ele>216.02</ele>
        <time>2015-11-08T14:08:32Z</time>
      </trkpt>
      <trkpt lat="48.94646" lon="0.23433">
        <ele>215.72</ele>
        <time>2015-11-08T14:08:34Z</time>
      </trkpt>
      <trkpt lat="48.94642" lon="0.23429">
        <ele>215.31</ele>
        <time>2015-11-08T14:08:36Z</time>
      </trkpt>
      <trkpt lat="48.94638" lon="0.23424">
        <ele>214.85</ele>
        <time>2015-11-08T14:08:38Z</time>
      </trkpt>
      <trkpt lat="48.94635" lon="0.23419">
        <ele>214.11</ele>
        <time>2015-11-08T14:08:40Z</time>
      </trkpt>
      <trkpt lat="48.94631" lon="0.23415">
        <ele>213.38</ele>
        <time>2015-11-08T14:08:42Z</time>
      </trkpt>
      <trkpt lat="48.94627" lon="0.23412">
        <ele>212.63</ele>
        <time>2015-11-08T14:08:44Z</time>
      </trkpt>
      <trkpt lat="48.94624" lon="0.23408">
        <ele>212.25</ele>
        <time>2015-11-08T14:08:46Z</time>
      </trkpt>
      <trkpt lat="48.9462" lon="0.23403">
        <ele>212.01</ele>
        <time>2015-11-08T14:08:48Z</time>
      </trkpt>
      <trkpt lat="48.94617" lon="0.23397">
        <ele>211.88</ele>
        <time>2015-11-08T14:08:50Z</time>
      </trkpt>
      <trkpt lat="48.94613" lon="0.23393">
        <ele>211.79</ele>
        <time>2015-11-08T14:08:52Z</time>
      </trkpt>
      <trkpt lat="48.94609" lon="0.23388">
        <ele>211.55</ele>
        <time>2015-11-08T14:08:54Z</time>
      </trkpt>
      <trkpt lat="48.94605" lon="0.23384">
        <ele>211.02</ele>
        <time>2015-11-08T14:08:56Z</time>
      </trkpt>
      <trkpt lat="48.94601" lon="0.23381">
        <ele>210.6</ele>
        <time>2015-11-08T14:08:58Z</time>
      </trkpt>
      <trkpt lat="48.94597" lon="0.23377">
        <ele>210.29</ele>
        <time>2015-11-08T14:09:00Z</time>
      </trkpt>
      <trkpt lat="48.94593" lon="0.23374">
        <ele>210.15</ele>
        <time>2015-11-08T14:09:02Z</time>
      </trkpt>
      <trkpt lat="48.94589" lon="0.23371">
        <ele>210.14</ele>
        <time>2015-11-08T14:09:04Z</time>
      </trkpt>
      <trkpt lat="48.94585" lon="0.23368">
        <ele>210.15</ele>
        <time>2015-11-08T14:09:06Z</time>
      </trkpt>
      <trkpt lat="48.94582" lon="0.23366">
        <ele>210.53</ele>
        <time>2015-11-08T14:09:08Z</time>
      </trkpt>
      <trkpt lat="48.94579" lon="0.23362">
        <ele>211.56</ele>
        <time>2015-11-08T14:09:10Z</time>
      </trkpt>
      <trkpt lat="48.94576" lon="0.23358">
        <ele>212.7</ele>
        <time>2015-11-08T14:09:12Z</time>
      </trkpt>
      <trkpt lat="48.94572" lon="0.23353">
        <ele>213.88</ele>
        <time>2015-11-08T14:09:14Z</time>
      </trkpt>
      <trkpt lat="48.94569" lon="0.23348">
        <ele>215.13</ele>
        <time>2015-11-08T14:09:16Z</time>
      </trkpt>
      <trkpt lat="48.94565" lon="0.23344">
        <ele>216.3</ele>
        <time>2015-11-08T14:09:18Z</time>
      </trkpt>
      <trkpt lat="48.9456" lon="0.2334">
        <ele>217.42</ele>
        <time>2015-11-08T14:09:20Z</time>
      </trkpt>
      <trkpt lat="48.94556" lon="0.23336">
        <ele>218.54</ele>
        <time>2015-11-08T14:09:22Z</time>
      </trkpt>
      <trkpt lat="48.94553" lon="0.23331">
        <ele>219.46</ele>
        <time>2015-11-08T14:09:24Z</time>
      </trkpt>
      <trkpt lat="48.9455" lon="0.23326">
        <ele>220.26</ele>
        <time>2015-11-08T14:09:26Z</time>
      </trkpt>
      <trkpt lat="48.94546" lon="0.23322">
        <ele>221.13</ele>
        <time>2015-11-08T14:09:28Z</time>
      </trkpt>
      <trkpt lat="48.94543" lon="0.2332">
        <ele>221.59</ele>
        <time>2015-11-08T14:09:29Z</time>
      </trkpt>
      <trkpt lat="48.9454" lon="0.23318">
        <ele>222.11</ele>
        <time>2015-11-08T14:09:30Z</time>
      </trkpt>
      <trkpt lat="48.94537" lon="0.23316">
        <ele>222.65</ele>
        <time>2015-11-08T14:09:31Z</time>
      </trkpt>
      <trkpt lat="48.94534" lon="0.23314">
        <ele>223.24</ele>
        <time>2015-11-08T14:09:32Z</time>
      </trkpt>
      <trkpt lat="48.94531" lon="0.23311">
        <ele>223.89</ele>
        <time>2015-11-08T14:09:33Z</time>
      </trkpt>
      <trkpt lat="48.94528" lon="0.23308">
        <ele>224.54</ele>
        <time>2015-11-08T14:09:34Z</time>
      </trkpt>
      <trkpt lat="48.94526" lon="0.23306">
        <ele>224.92</ele>
        <time>2015-11-08T14:09:35Z</time>
      </trkpt>
      <trkpt lat="48.94523" lon="0.23303">
        <ele>224.76</ele>
        <time>2015-11-08T14:09:36Z</time>
      </trkpt>
      <trkpt lat="48.9452" lon="0.233">
        <ele>224.52</ele>
        <time>2015-11-08T14:09:37Z</time>
      </trkpt>
      <trkpt lat="48.94517" lon="0.23298">
        <ele>224.21</ele>
        <time>2015-11-08T14:09:38Z</time>
      </trkpt>
      <trkpt lat="48.94515" lon="0.23295">
        <ele>223.83</ele>
        <time>2015-11-08T14:09:39Z</time>
      </trkpt>
      <trkpt lat="48.94512" lon="0.23293">
        <ele>223.39</ele>
        <time>2015-11-08T14:09:40Z</time>
      </trkpt>
      <trkpt lat="48.94509" lon="0.2329">
        <ele>222.88</ele>
        <time>2015-11-08T14:09:41Z</time>
      </trkpt>
      <trkpt lat="48.94507" lon="0.23288">
        <ele>222.3</ele>
        <time>2015-11-08T14:09:42Z</time>
      </trkpt>
      <trkpt lat="48.94504" lon="0.23285">
        <ele>221.68</ele>
        <time>2015-11-08T14:09:43Z</time>
      </trkpt>
      <trkpt lat="48.94501" lon="0.23283">
        <ele>220.99</ele>
        <time>2015-11-08T14:09:44Z</time>
      </trkpt>
      <trkpt lat="48.94499" lon="0.23281">
        <ele>220.22</ele>
        <time>2015-11-08T14:09:45Z</time>
      </trkpt>
      <trkpt lat="48.94496" lon="0.23278">
        <ele>219.38</ele>
        <time>2015-11-08T14:09:46Z</time>
      </trkpt>
      <trkpt lat="48.94493" lon="0.23276">
        <ele>218.61</ele>
        <time>2015-11-08T14:09:47Z</time>
      </trkpt>
      <trkpt lat="48.94491" lon="0.23273">
        <ele>217.88</ele>
        <time>2015-11-08T14:09:48Z</time>
      </trkpt>
      <trkpt lat="48.94488" lon="0.2327">
        <ele>217.17</ele>
        <time>2015-11-08T14:09:49Z</time>
      </trkpt>
      <trkpt lat="48.94485" lon="0.23268">
        <ele>216.46</ele>
        <time>2015-11-08T14:09:50Z</time>
      </trkpt>
      <trkpt lat="48.94483" lon="0.23265">
        <ele>215.79</ele>
        <time>2015-11-08T14:09:51Z</time>
      </trkpt>
      <trkpt lat="48.9448" lon="0.23262">
        <ele>215.14</ele>
        <time>2015-11-08T14:09:52Z</time>
      </trkpt>
      <trkpt lat="48.94477" lon="0.2326">
        <ele>214.52</ele>
        <time>2015-11-08T14:09:53Z</time>
      </trkpt>
      <trkpt lat="48.94475" lon="0.23258">
        <ele>213.93</ele>
        <time>2015-11-08T14:09:54Z</time>
      </trkpt>
      <trkpt lat="48.94472" lon="0.23255">
        <ele>213.36</ele>
        <time>2015-11-08T14:09:55Z</time>
      </trkpt>
      <trkpt lat="48.94469" lon="0.23253">
        <ele>212.99</ele>
        <time>2015-11-08T14:09:56Z</time>
      </trkpt>
      <trkpt lat="48.94467" lon="0.23251">
        <ele>212.65</ele>
        <time>2015-11-08T14:09:57Z</time>
      </trkpt>
      <trkpt lat="48.94464" lon="0.23248">
        <ele>212.4</ele>
        <time>2015-11-08T14:09:58Z</time>
      </trkpt>
      <trkpt lat="48.9446" lon="0.23244">
        <ele>212</ele>
        <time>2015-11-08T14:10:00Z</time>
      </trkpt>
      <trkpt lat="48.94455" lon="0.23241">
        <ele>211.64</ele>
        <time>2015-11-08T14:10:02Z</time>
      </trkpt>
      <trkpt lat="48.94453" lon="0.23238">
        <ele>211.48</ele>
        <time>2015-11-08T14:10:03Z</time>
      </trkpt>
      <trkpt lat="48.94451" lon="0.23235">
        <ele>211.34</ele>
        <time>2015-11-08T14:10:04Z</time>
      </trkpt>
      <trkpt lat="48.94449" lon="0.23232">
        <ele>211.22</ele>
        <time>2015-11-08T14:10:05Z</time>
      </trkpt>
      <trkpt lat="48.94447" lon="0.2323">
        <ele>211.09</ele>
        <time>2015-11-08T14:10:06Z</time>
      </trkpt>
      <trkpt lat="48.94444" lon="0.23228">
        <ele>211.04</ele>
        <time>2015-11-08T14:10:07Z</time>
      </trkpt>
      <trkpt lat="48.94441" lon="0.23226">
        <ele>211.23</ele>
        <time>2015-11-08T14:10:08Z</time>
      </trkpt>
      <trkpt lat="48.94438" lon="0.23224">
        <ele>211.42</ele>
        <time>2015-11-08T14:10:09Z</time>
      </trkpt>
      <trkpt lat="48.94436" lon="0.23222">
        <ele>211.67</ele>
        <time>2015-11-08T14:10:10Z</time>
      </trkpt>
      <trkpt lat="48.94433" lon="0.2322">
        <ele>212.04</ele>
        <time>2015-11-08T14:10:11Z</time>
      </trkpt>
      <trkpt lat="48.94431" lon="0.23218">
        <ele>212.39</ele>
        <time>2015-11-08T14:10:12Z</time>
      </trkpt>
      <trkpt lat="48.94428" lon="0.23216">
        <ele>212.76</ele>
        <time>2015-11-08T14:10:13Z</time>
      </trkpt>
      <trkpt lat="48.94426" lon="0.23213">
        <ele>213.2</ele>
        <time>2015-11-08T14:10:14Z</time>
      </trkpt>
      <trkpt lat="48.94423" lon="0.23211">
        <ele>213.64</ele>
        <time>2015-11-08T14:10:15Z</time>
      </trkpt>
      <trkpt lat="48.94421" lon="0.23208">
        <ele>214.13</ele>
        <time>2015-11-08T14:10:16Z</time>
      </trkpt>
      <trkpt lat="48.94419" lon="0.23205">
        <ele>214.63</ele>
        <time>2015-11-08T14:10:17Z</time>
      </trkpt>
      <trkpt lat="48.94419" lon="0.23198">
        <ele>215.41</ele>
        <time>2015-11-08T14:10:19Z</time>
      </trkpt>
      <trkpt lat="48.94422" lon="0.23197">
        <ele>215.15</ele>
        <time>2015-11-08T14:10:59Z</time>
      </trkpt>
      <trkpt lat="48.94419" lon="0.23198">
        <ele>215.36</ele>
        <time>2015-11-08T14:12:31Z</time>
      </trkpt>
      <trkpt lat="48.94416" lon="0.23198">
        <ele>215.69</ele>
        <time>2015-11-08T14:12:34Z</time>
      </trkpt>
      <trkpt lat="48.94412" lon="0.23198">
        <ele>215.79</ele>
        <time>2015-11-08T14:12:37Z</time>
      </trkpt>
      <trkpt lat="48.9441" lon="0.23198">
        <ele>215.84</ele>
        <time>2015-11-08T14:13:54Z</time>
      </trkpt>
      <trkpt lat="48.94407" lon="0.23196">
        <ele>216.21</ele>
        <time>2015-11-08T14:14:03Z</time>
      </trkpt>
      <trkpt lat="48.94404" lon="0.23193">
        <ele>216.4</ele>
        <time>2015-11-08T14:14:06Z</time>
      </trkpt>
      <trkpt lat="48.94401" lon="0.23188">
        <ele>216.32</ele>
        <time>2015-11-08T14:14:08Z</time>
      </trkpt>
      <trkpt lat="48.94397" lon="0.23184">
        <ele>216.15</ele>
        <time>2015-11-08T14:14:10Z</time>
      </trkpt>
      <trkpt lat="48.94393" lon="0.2318">
        <ele>215.98</ele>
        <time>2015-11-08T14:14:12Z</time>
      </trkpt>
      <trkpt lat="48.94389" lon="0.23177">
        <ele>215.74</ele>
        <time>2015-11-08T14:14:14Z</time>
      </trkpt>
      <trkpt lat="48.94386" lon="0.23175">
        <ele>215.27</ele>
        <time>2015-11-08T14:14:16Z</time>
      </trkpt>
      <trkpt lat="48.94382" lon="0.23174">
        <ele>214.87</ele>
        <time>2015-11-08T14:14:18Z</time>
      </trkpt>
      <trkpt lat="48.94379" lon="0.23172">
        <ele>214.5</ele>
        <time>2015-11-08T14:14:20Z</time>
      </trkpt>
      <trkpt lat="48.94376" lon="0.2317">
        <ele>214.16</ele>
        <time>2015-11-08T14:14:22Z</time>
      </trkpt>
      <trkpt lat="48.94373" lon="0.23167">
        <ele>213.84</ele>
        <time>2015-11-08T14:14:24Z</time>
      </trkpt>
      <trkpt lat="48.9437" lon="0.23164">
        <ele>213.61</ele>
        <time>2015-11-08T14:14:26Z</time>
      </trkpt>
      <trkpt lat="48.94366" lon="0.23161">
        <ele>213.39</ele>
        <time>2015-11-08T14:14:28Z</time>
      </trkpt>
      <trkpt lat="48.94363" lon="0.23158">
        <ele>213.14</ele>
        <time>2015-11-08T14:14:30Z</time>
      </trkpt>
      <trkpt lat="48.9436" lon="0.23153">
        <ele>212.92</ele>
        <time>2015-11-08T14:14:32Z</time>
      </trkpt>
      <trkpt lat="48.94357" lon="0.23147">
        <ele>212.68</ele>
        <time>2015-11-08T14:14:34Z</time>
      </trkpt>
      <trkpt lat="48.94354" lon="0.23143">
        <ele>212.32</ele>
        <time>2015-11-08T14:14:36Z</time>
      </trkpt>
      <trkpt lat="48.9435" lon="0.23139">
        <ele>211.81</ele>
        <time>2015-11-08T14:14:38Z</time>
      </trkpt>
      <trkpt lat="48.94346" lon="0.23136">
        <ele>211.14</ele>
        <time>2015-11-08T14:14:40Z</time>
      </trkpt>
      <trkpt lat="48.94342" lon="0.23133">
        <ele>210.53</ele>
        <time>2015-11-08T14:14:42Z</time>
      </trkpt>
      <trkpt lat="48.94339" lon="0.23131">
        <ele>209.96</ele>
        <time>2015-11-08T14:14:44Z</time>
      </trkpt>
      <trkpt lat="48.94335" lon="0.2313">
        <ele>209.53</ele>
        <time>2015-11-08T14:14:46Z</time>
      </trkpt>
      <trkpt lat="48.94331" lon="0.23128">
        <ele>209.38</ele>
        <time>2015-11-08T14:14:48Z</time>
      </trkpt>
      <trkpt lat="48.94327" lon="0.23126">
        <ele>209.53</ele>
        <time>2015-11-08T14:14:50Z</time>
      </trkpt>
      <trkpt lat="48.94323" lon="0.23124">
        <ele>209.71</ele>
        <time>2015-11-08T14:14:52Z</time>
      </trkpt>
      <trkpt lat="48.94319" lon="0.23122">
        <ele>209.87</ele>
        <time>2015-11-08T14:14:54Z</time>
      </trkpt>
      <trkpt lat="48.94315" lon="0.2312">
        <ele>209.96</ele>
        <time>2015-11-08T14:14:56Z</time>
      </trkpt>
      <trkpt lat="48.94311" lon="0.23117">
        <ele>210.05</ele>
        <time>2015-11-08T14:14:58Z</time>
      </trkpt>
      <trkpt lat="48.94307" lon="0.23115">
        <ele>210.2</ele>
        <time>2015-11-08T14:15:00Z</time>
      </trkpt>
      <trkpt lat="48.94302" lon="0.23112">
        <ele>210.33</ele>
        <time>2015-11-08T14:15:02Z</time>
      </trkpt>
      <trkpt lat="48.94298" lon="0.23112">
        <ele>210.59</ele>
        <time>2015-11-08T14:15:04Z</time>
      </trkpt>
      <trkpt lat="48.94293" lon="0.23112">
        <ele>210.94</ele>
        <time>2015-11-08T14:15:06Z</time>
      </trkpt>
      <trkpt lat="48.94288" lon="0.23112">
        <ele>211.29</ele>
        <time>2015-11-08T14:15:08Z</time>
      </trkpt>
      <trkpt lat="48.94283" lon="0.2311">
        <ele>211.54</ele>
        <time>2015-11-08T14:15:10Z</time>
      </trkpt>
      <trkpt lat="48.94279" lon="0.23105">
        <ele>211.48</ele>
        <time>2015-11-08T14:15:12Z</time>
      </trkpt>
      <trkpt lat="48.94276" lon="0.231">
        <ele>211.3</ele>
        <time>2015-11-08T14:15:14Z</time>
      </trkpt>
      <trkpt lat="48.94272" lon="0.23095">
        <ele>211.3</ele>
        <time>2015-11-08T14:15:16Z</time>
      </trkpt>
      <trkpt lat="48.94268" lon="0.23092">
        <ele>211.57</ele>
        <time>2015-11-08T14:15:18Z</time>
      </trkpt>
      <trkpt lat="48.94264" lon="0.23088">
        <ele>211.98</ele>
        <time>2015-11-08T14:15:20Z</time>
      </trkpt>
      <trkpt lat="48.9426" lon="0.23083">
        <ele>212.49</ele>
        <time>2015-11-08T14:15:22Z</time>
      </trkpt>
      <trkpt lat="48.94257" lon="0.23079">
        <ele>212.6</ele>
        <time>2015-11-08T14:15:24Z</time>
      </trkpt>
      <trkpt lat="48.94253" lon="0.23075">
        <ele>212.87</ele>
        <time>2015-11-08T14:15:26Z</time>
      </trkpt>
      <trkpt lat="48.94249" lon="0.23072">
        <ele>213.12</ele>
        <time>2015-11-08T14:15:28Z</time>
      </trkpt>
      <trkpt lat="48.94246" lon="0.23069">
        <ele>212.71</ele>
        <time>2015-11-08T14:15:30Z</time>
      </trkpt>
      <trkpt lat="48.94243" lon="0.23066">
        <ele>212.35</ele>
        <time>2015-11-08T14:15:32Z</time>
      </trkpt>
      <trkpt lat="48.9424" lon="0.23063">
        <ele>211.96</ele>
        <time>2015-11-08T14:15:34Z</time>
      </trkpt>
      <trkpt lat="48.94237" lon="0.2306">
        <ele>211.51</ele>
        <time>2015-11-08T14:15:36Z</time>
      </trkpt>
      <trkpt lat="48.94234" lon="0.23058">
        <ele>211.06</ele>
        <time>2015-11-08T14:15:38Z</time>
      </trkpt>
      <trkpt lat="48.9423" lon="0.23056">
        <ele>210.64</ele>
        <time>2015-11-08T14:15:40Z</time>
      </trkpt>
      <trkpt lat="48.94227" lon="0.23053">
        <ele>210.59</ele>
        <time>2015-11-08T14:15:42Z</time>
      </trkpt>
      <trkpt lat="48.94223" lon="0.2305">
        <ele>210.89</ele>
        <time>2015-11-08T14:15:44Z</time>
      </trkpt>
      <trkpt lat="48.94219" lon="0.23047">
        <ele>211.96</ele>
        <time>2015-11-08T14:15:46Z</time>
      </trkpt>
      <trkpt lat="48.94216" lon="0.23044">
        <ele>212.88</ele>
        <time>2015-11-08T14:15:48Z</time>
      </trkpt>
      <trkpt lat="48.94212" lon="0.23042">
        <ele>213.47</ele>
        <time>2015-11-08T14:15:50Z</time>
      </trkpt>
      <trkpt lat="48.94208" lon="0.23041">
        <ele>213.94</ele>
        <time>2015-11-08T14:15:52Z</time>
      </trkpt>
      <trkpt lat="48.94204" lon="0.2304">
        <ele>214.45</ele>
        <time>2015-11-08T14:15:54Z</time>
      </trkpt>
      <trkpt lat="48.942" lon="0.2304">
        <ele>214.97</ele>
        <time>2015-11-08T14:15:56Z</time>
      </trkpt>
      <trkpt lat="48.94195" lon="0.2304">
        <ele>215.39</ele>
        <time>2015-11-08T14:15:58Z</time>
      </trkpt>
      <trkpt lat="48.94191" lon="0.23039">
        <ele>215.83</ele>
        <time>2015-11-08T14:16:00Z</time>
      </trkpt>
      <trkpt lat="48.94187" lon="0.23038">
        <ele>216.04</ele>
        <time>2015-11-08T14:16:02Z</time>
      </trkpt>
      <trkpt lat="48.94184" lon="0.23036">
        <ele>215.89</ele>
        <time>2015-11-08T14:16:04Z</time>
      </trkpt>
      <trkpt lat="48.9418" lon="0.23035">
        <ele>216.11</ele>
        <time>2015-11-08T14:16:06Z</time>
      </trkpt>
      <trkpt lat="48.94177" lon="0.23036">
        <ele>216.96</ele>
        <time>2015-11-08T14:16:08Z</time>
      </trkpt>
      <trkpt lat="48.94173" lon="0.23038">
        <ele>218.05</ele>
        <time>2015-11-08T14:16:10Z</time>
      </trkpt>
      <trkpt lat="48.94169" lon="0.23038">
        <ele>218.68</ele>
        <time>2015-11-08T14:16:12Z</time>
      </trkpt>
      <trkpt lat="48.94164" lon="0.23037">
        <ele>218.54</ele>
        <time>2015-11-08T14:16:14Z</time>
      </trkpt>
      <trkpt lat="48.9416" lon="0.23037">
        <ele>217.82</ele>
        <time>2015-11-08T14:16:16Z</time>
      </trkpt>
      <trkpt lat="48.94155" lon="0.23037">
        <ele>217.27</ele>
        <time>2015-11-08T14:16:18Z</time>
      </trkpt>
      <trkpt lat="48.94151" lon="0.23037">
        <ele>216.82</ele>
        <time>2015-11-08T14:16:20Z</time>
      </trkpt>
      <trkpt lat="48.94146" lon="0.23038">
        <ele>216.41</ele>
        <time>2015-11-08T14:16:22Z</time>
      </trkpt>
      <trkpt lat="48.94141" lon="0.23038">
        <ele>215.98</ele>
        <time>2015-11-08T14:16:24Z</time>
      </trkpt>
      <trkpt lat="48.94136" lon="0.23039">
        <ele>215.82</ele>
        <time>2015-11-08T14:16:26Z</time>
      </trkpt>
      <trkpt lat="48.94132" lon="0.2304">
        <ele>215.59</ele>
        <time>2015-11-08T14:16:28Z</time>
      </trkpt>
      <trkpt lat="48.94128" lon="0.23039">
        <ele>215.03</ele>
        <time>2015-11-08T14:16:30Z</time>
      </trkpt>
      <trkpt lat="48.94123" lon="0.23038">
        <ele>214.17</ele>
        <time>2015-11-08T14:16:32Z</time>
      </trkpt>
      <trkpt lat="48.94118" lon="0.23039">
        <ele>213.8</ele>
        <time>2015-11-08T14:16:34Z</time>
      </trkpt>
      <trkpt lat="48.94112" lon="0.2304">
        <ele>213.68</ele>
        <time>2015-11-08T14:16:36Z</time>
      </trkpt>
      <trkpt lat="48.94107" lon="0.23041">
        <ele>212.34</ele>
        <time>2015-11-08T14:16:38Z</time>
      </trkpt>
      <trkpt lat="48.94104" lon="0.23041">
        <ele>211.47</ele>
        <time>2015-11-08T14:16:39Z</time>
      </trkpt>
      <trkpt lat="48.94101" lon="0.23042">
        <ele>210.59</ele>
        <time>2015-11-08T14:16:40Z</time>
      </trkpt>
      <trkpt lat="48.94098" lon="0.23043">
        <ele>209.54</ele>
        <time>2015-11-08T14:16:41Z</time>
      </trkpt>
      <trkpt lat="48.94095" lon="0.23043">
        <ele>208.38</ele>
        <time>2015-11-08T14:16:42Z</time>
      </trkpt>
      <trkpt lat="48.94092" lon="0.23042">
        <ele>207.16</ele>
        <time>2015-11-08T14:16:43Z</time>
      </trkpt>
      <trkpt lat="48.94089" lon="0.23043">
        <ele>206.03</ele>
        <time>2015-11-08T14:16:44Z</time>
      </trkpt>
      <trkpt lat="48.94086" lon="0.23042">
        <ele>205.03</ele>
        <time>2015-11-08T14:16:45Z</time>
      </trkpt>
      <trkpt lat="48.94081" lon="0.2304">
        <ele>204.24</ele>
        <time>2015-11-08T14:16:47Z</time>
      </trkpt>
      <trkpt lat="48.94076" lon="0.23039">
        <ele>204.59</ele>
        <time>2015-11-08T14:16:49Z</time>
      </trkpt>
      <trkpt lat="48.94071" lon="0.2304">
        <ele>204.9</ele>
        <time>2015-11-08T14:16:51Z</time>
      </trkpt>
      <trkpt lat="48.94068" lon="0.23041">
        <ele>205.07</ele>
        <time>2015-11-08T14:16:52Z</time>
      </trkpt>
      <trkpt lat="48.94063" lon="0.23042">
        <ele>205.46</ele>
        <time>2015-11-08T14:16:54Z</time>
      </trkpt>
      <trkpt lat="48.94061" lon="0.23043">
        <ele>205.71</ele>
        <time>2015-11-08T14:16:55Z</time>
      </trkpt>
      <trkpt lat="48.94058" lon="0.23044">
        <ele>205.98</ele>
        <time>2015-11-08T14:16:56Z</time>
      </trkpt>
      <trkpt lat="48.94055" lon="0.23045">
        <ele>206.22</ele>
        <time>2015-11-08T14:16:57Z</time>
      </trkpt>
      <trkpt lat="48.94052" lon="0.23045">
        <ele>206.24</ele>
        <time>2015-11-08T14:16:58Z</time>
      </trkpt>
      <trkpt lat="48.94049" lon="0.23045">
        <ele>206.26</ele>
        <time>2015-11-08T14:16:59Z</time>
      </trkpt>
      <trkpt lat="48.94046" lon="0.23046">
        <ele>206.29</ele>
        <time>2015-11-08T14:17:00Z</time>
      </trkpt>
      <trkpt lat="48.94044" lon="0.23046">
        <ele>206.31</ele>
        <time>2015-11-08T14:17:01Z</time>
      </trkpt>
      <trkpt lat="48.94041" lon="0.23047">
        <ele>206.37</ele>
        <time>2015-11-08T14:17:02Z</time>
      </trkpt>
      <trkpt lat="48.94036" lon="0.23049">
        <ele>206.54</ele>
        <time>2015-11-08T14:17:04Z</time>
      </trkpt>
      <trkpt lat="48.94033" lon="0.2305">
        <ele>206.6</ele>
        <time>2015-11-08T14:17:05Z</time>
      </trkpt>
      <trkpt lat="48.9403" lon="0.23051">
        <ele>206.65</ele>
        <time>2015-11-08T14:17:06Z</time>
      </trkpt>
      <trkpt lat="48.94027" lon="0.23052">
        <ele>206.71</ele>
        <time>2015-11-08T14:17:07Z</time>
      </trkpt>
      <trkpt lat="48.94025" lon="0.23052">
        <ele>206.74</ele>
        <time>2015-11-08T14:17:08Z</time>
      </trkpt>
      <trkpt lat="48.94019" lon="0.23052">
        <ele>206.71</ele>
        <time>2015-11-08T14:17:10Z</time>
      </trkpt>
      <trkpt lat="48.94014" lon="0.23052">
        <ele>206.64</ele>
        <time>2015-11-08T14:17:12Z</time>
      </trkpt>
      <trkpt lat="48.94009" lon="0.23053">
        <ele>206.68</ele>
        <time>2015-11-08T14:17:14Z</time>
      </trkpt>
      <trkpt lat="48.94004" lon="0.23053">
        <ele>206.68</ele>
        <time>2015-11-08T14:17:16Z</time>
      </trkpt>
      <trkpt lat="48.93998" lon="0.23053">
        <ele>206.62</ele>
        <time>2015-11-08T14:17:18Z</time>
      </trkpt>
      <trkpt lat="48.93993" lon="0.23052">
        <ele>206.61</ele>
        <time>2015-11-08T14:17:20Z</time>
      </trkpt>
      <trkpt lat="48.93989" lon="0.23051">
        <ele>206.54</ele>
        <time>2015-11-08T14:17:22Z</time>
      </trkpt>
      <trkpt lat="48.93984" lon="0.2305">
        <ele>206.54</ele>
        <time>2015-11-08T14:17:24Z</time>
      </trkpt>
      <trkpt lat="48.93979" lon="0.23048">
        <ele>206.56</ele>
        <time>2015-11-08T14:17:26Z</time>
      </trkpt>
      <trkpt lat="48.93974" lon="0.23046">
        <ele>206.59</ele>
        <time>2015-11-08T14:17:28Z</time>
      </trkpt>
      <trkpt lat="48.9397" lon="0.23044">
        <ele>206.51</ele>
        <time>2015-11-08T14:17:30Z</time>
      </trkpt>
      <trkpt lat="48.93966" lon="0.23042">
        <ele>206.29</ele>
        <time>2015-11-08T14:17:32Z</time>
      </trkpt>
      <trkpt lat="48.93963" lon="0.2304">
        <ele>206.11</ele>
        <time>2015-11-08T14:17:34Z</time>
      </trkpt>
      <trkpt lat="48.9396" lon="0.23037">
        <ele>205.89</ele>
        <time>2015-11-08T14:17:36Z</time>
      </trkpt>
      <trkpt lat="48.93957" lon="0.23034">
        <ele>205.66</ele>
        <time>2015-11-08T14:17:38Z</time>
      </trkpt>
      <trkpt lat="48.93953" lon="0.2303">
        <ele>205.38</ele>
        <time>2015-11-08T14:17:40Z</time>
      </trkpt>
      <trkpt lat="48.93949" lon="0.23027">
        <ele>205.11</ele>
        <time>2015-11-08T14:17:42Z</time>
      </trkpt>
      <trkpt lat="48.93945" lon="0.23023">
        <ele>204.83</ele>
        <time>2015-11-08T14:17:44Z</time>
      </trkpt>
      <trkpt lat="48.9394" lon="0.23019">
        <ele>205.33</ele>
        <time>2015-11-08T14:17:46Z</time>
      </trkpt>
      <trkpt lat="48.93937" lon="0.23014">
        <ele>205.75</ele>
        <time>2015-11-08T14:17:48Z</time>
      </trkpt>
      <trkpt lat="48.93934" lon="0.23007">
        <ele>206.04</ele>
        <time>2015-11-08T14:17:50Z</time>
      </trkpt>
      <trkpt lat="48.93933" lon="0.23003">
        <ele>206.19</ele>
        <time>2015-11-08T14:17:51Z</time>
      </trkpt>
      <trkpt lat="48.93931" lon="0.23">
        <ele>206.37</ele>
        <time>2015-11-08T14:17:52Z</time>
      </trkpt>
      <trkpt lat="48.9393" lon="0.22996">
        <ele>206.43</ele>
        <time>2015-11-08T14:17:53Z</time>
      </trkpt>
      <trkpt lat="48.93928" lon="0.22992">
        <ele>206.52</ele>
        <time>2015-11-08T14:17:54Z</time>
      </trkpt>
      <trkpt lat="48.93926" lon="0.22989">
        <ele>206.59</ele>
        <time>2015-11-08T14:17:55Z</time>
      </trkpt>
      <trkpt lat="48.93923" lon="0.22983">
        <ele>206.71</ele>
        <time>2015-11-08T14:17:57Z</time>
      </trkpt>
      <trkpt lat="48.9392" lon="0.22977">
        <ele>206.88</ele>
        <time>2015-11-08T14:17:59Z</time>
      </trkpt>
      <trkpt lat="48.93916" lon="0.22973">
        <ele>207.1</ele>
        <time>2015-11-08T14:18:01Z</time>
      </trkpt>
      <trkpt lat="48.93913" lon="0.22969">
        <ele>207.15</ele>
        <time>2015-11-08T14:18:03Z</time>
      </trkpt>
      <trkpt lat="48.9391" lon="0.22965">
        <ele>207.32</ele>
        <time>2015-11-08T14:18:05Z</time>
      </trkpt>
      <trkpt lat="48.93907" lon="0.2296">
        <ele>207.53</ele>
        <time>2015-11-08T14:18:07Z</time>
      </trkpt>
      <trkpt lat="48.93903" lon="0.22955">
        <ele>207.78</ele>
        <time>2015-11-08T14:18:09Z</time>
      </trkpt>
      <trkpt lat="48.939" lon="0.2295">
        <ele>208.08</ele>
        <time>2015-11-08T14:18:11Z</time>
      </trkpt>
      <trkpt lat="48.93896" lon="0.22945">
        <ele>208.46</ele>
        <time>2015-11-08T14:18:13Z</time>
      </trkpt>
      <trkpt lat="48.93893" lon="0.2294">
        <ele>208.88</ele>
        <time>2015-11-08T14:18:15Z</time>
      </trkpt>
      <trkpt lat="48.9389" lon="0.22934">
        <ele>209.27</ele>
        <time>2015-11-08T14:18:17Z</time>
      </trkpt>
      <trkpt lat="48.93888" lon="0.22928">
        <ele>209.59</ele>
        <time>2015-11-08T14:18:19Z</time>
      </trkpt>
      <trkpt lat="48.93886" lon="0.22923">
        <ele>209.81</ele>
        <time>2015-11-08T14:18:21Z</time>
      </trkpt>
      <trkpt lat="48.93883" lon="0.22916">
        <ele>210.03</ele>
        <time>2015-11-08T14:18:23Z</time>
      </trkpt>
      <trkpt lat="48.93881" lon="0.22912">
        <ele>210.16</ele>
        <time>2015-11-08T14:18:24Z</time>
      </trkpt>
      <trkpt lat="48.9388" lon="0.22909">
        <ele>210.29</ele>
        <time>2015-11-08T14:18:25Z</time>
      </trkpt>
      <trkpt lat="48.93878" lon="0.22905">
        <ele>210.42</ele>
        <time>2015-11-08T14:18:26Z</time>
      </trkpt>
      <trkpt lat="48.93877" lon="0.22901">
        <ele>210.55</ele>
        <time>2015-11-08T14:18:27Z</time>
      </trkpt>
      <trkpt lat="48.93877" lon="0.22897">
        <ele>210.7</ele>
        <time>2015-11-08T14:18:28Z</time>
      </trkpt>
      <trkpt lat="48.93876" lon="0.22893">
        <ele>210.84</ele>
        <time>2015-11-08T14:18:29Z</time>
      </trkpt>
      <trkpt lat="48.93874" lon="0.2289">
        <ele>210.97</ele>
        <time>2015-11-08T14:18:30Z</time>
      </trkpt>
      <trkpt lat="48.93872" lon="0.22883">
        <ele>211.3</ele>
        <time>2015-11-08T14:18:32Z</time>
      </trkpt>
      <trkpt lat="48.93869" lon="0.22877">
        <ele>211.55</ele>
        <time>2015-11-08T14:18:34Z</time>
      </trkpt>
      <trkpt lat="48.93866" lon="0.22871">
        <ele>211.78</ele>
        <time>2015-11-08T14:18:36Z</time>
      </trkpt>
      <trkpt lat="48.93863" lon="0.22864">
        <ele>211.98</ele>
        <time>2015-11-08T14:18:38Z</time>
      </trkpt>
      <trkpt lat="48.93862" lon="0.22857">
        <ele>212.01</ele>
        <time>2015-11-08T14:18:40Z</time>
      </trkpt>
      <trkpt lat="48.93861" lon="0.2285">
        <ele>212</ele>
        <time>2015-11-08T14:18:42Z</time>
      </trkpt>
      <trkpt lat="48.93859" lon="0.22842">
        <ele>211.98</ele>
        <time>2015-11-08T14:18:44Z</time>
      </trkpt>
      <trkpt lat="48.93858" lon="0.22835">
        <ele>211.9</ele>
        <time>2015-11-08T14:18:46Z</time>
      </trkpt>
      <trkpt lat="48.93856" lon="0.22828">
        <ele>211.77</ele>
        <time>2015-11-08T14:18:48Z</time>
      </trkpt>
      <trkpt lat="48.93853" lon="0.22821">
        <ele>211.6</ele>
        <time>2015-11-08T14:18:50Z</time>
      </trkpt>
      <trkpt lat="48.93851" lon="0.22814">
        <ele>211.39</ele>
        <time>2015-11-08T14:18:52Z</time>
      </trkpt>
      <trkpt lat="48.93849" lon="0.22808">
        <ele>211.15</ele>
        <time>2015-11-08T14:18:54Z</time>
      </trkpt>
      <trkpt lat="48.93847" lon="0.22801">
        <ele>210.96</ele>
        <time>2015-11-08T14:18:56Z</time>
      </trkpt>
      <trkpt lat="48.93845" lon="0.22795">
        <ele>210.81</ele>
        <time>2015-11-08T14:18:58Z</time>
      </trkpt>
      <trkpt lat="48.93843" lon="0.22788">
        <ele>210.69</ele>
        <time>2015-11-08T14:19:00Z</time>
      </trkpt>
      <trkpt lat="48.93841" lon="0.22781">
        <ele>210.54</ele>
        <time>2015-11-08T14:19:02Z</time>
      </trkpt>
      <trkpt lat="48.93839" lon="0.22774">
        <ele>210.48</ele>
        <time>2015-11-08T14:19:04Z</time>
      </trkpt>
      <trkpt lat="48.93838" lon="0.22767">
        <ele>210.54</ele>
        <time>2015-11-08T14:19:06Z</time>
      </trkpt>
      <trkpt lat="48.93836" lon="0.2276">
        <ele>210.64</ele>
        <time>2015-11-08T14:19:08Z</time>
      </trkpt>
      <trkpt lat="48.93833" lon="0.22754">
        <ele>210.85</ele>
        <time>2015-11-08T14:19:10Z</time>
      </trkpt>
      <trkpt lat="48.93831" lon="0.22747">
        <ele>210.74</ele>
        <time>2015-11-08T14:19:12Z</time>
      </trkpt>
      <trkpt lat="48.93829" lon="0.2274">
        <ele>210.55</ele>
        <time>2015-11-08T14:19:14Z</time>
      </trkpt>
      <trkpt lat="48.93826" lon="0.22733">
        <ele>210.38</ele>
        <time>2015-11-08T14:19:16Z</time>
      </trkpt>
      <trkpt lat="48.93824" lon="0.22726">
        <ele>210.27</ele>
        <time>2015-11-08T14:19:18Z</time>
      </trkpt>
      <trkpt lat="48.93822" lon="0.22718">
        <ele>210.34</ele>
        <time>2015-11-08T14:19:20Z</time>
      </trkpt>
      <trkpt lat="48.93821" lon="0.22714">
        <ele>210.48</ele>
        <time>2015-11-08T14:19:21Z</time>
      </trkpt>
      <trkpt lat="48.9382" lon="0.2271">
        <ele>210.64</ele>
        <time>2015-11-08T14:19:22Z</time>
      </trkpt>
      <trkpt lat="48.93818" lon="0.22707">
        <ele>210.82</ele>
        <time>2015-11-08T14:19:23Z</time>
      </trkpt>
      <trkpt lat="48.93817" lon="0.22703">
        <ele>211.04</ele>
        <time>2015-11-08T14:19:24Z</time>
      </trkpt>
      <trkpt lat="48.93815" lon="0.22699">
        <ele>211.31</ele>
        <time>2015-11-08T14:19:25Z</time>
      </trkpt>
      <trkpt lat="48.93814" lon="0.22695">
        <ele>211.63</ele>
        <time>2015-11-08T14:19:26Z</time>
      </trkpt>
      <trkpt lat="48.93813" lon="0.22691">
        <ele>211.83</ele>
        <time>2015-11-08T14:19:27Z</time>
      </trkpt>
      <trkpt lat="48.93812" lon="0.22687">
        <ele>211.99</ele>
        <time>2015-11-08T14:19:28Z</time>
      </trkpt>
      <trkpt lat="48.93811" lon="0.22683">
        <ele>212.16</ele>
        <time>2015-11-08T14:19:29Z</time>
      </trkpt>
      <trkpt lat="48.9381" lon="0.22678">
        <ele>212.35</ele>
        <time>2015-11-08T14:19:30Z</time>
      </trkpt>
      <trkpt lat="48.93808" lon="0.22674">
        <ele>212.56</ele>
        <time>2015-11-08T14:19:31Z</time>
      </trkpt>
      <trkpt lat="48.93807" lon="0.2267">
        <ele>212.78</ele>
        <time>2015-11-08T14:19:32Z</time>
      </trkpt>
      <trkpt lat="48.93806" lon="0.22666">
        <ele>212.96</ele>
        <time>2015-11-08T14:19:33Z</time>
      </trkpt>
      <trkpt lat="48.93805" lon="0.22662">
        <ele>212.77</ele>
        <time>2015-11-08T14:19:34Z</time>
      </trkpt>
      <trkpt lat="48.93803" lon="0.22658">
        <ele>212.52</ele>
        <time>2015-11-08T14:19:35Z</time>
      </trkpt>
      <trkpt lat="48.93802" lon="0.22655">
        <ele>212.24</ele>
        <time>2015-11-08T14:19:36Z</time>
      </trkpt>
      <trkpt lat="48.93801" lon="0.22651">
        <ele>211.97</ele>
        <time>2015-11-08T14:19:37Z</time>
      </trkpt>
      <trkpt lat="48.93798" lon="0.22643">
        <ele>211.43</ele>
        <time>2015-11-08T14:19:39Z</time>
      </trkpt>
      <trkpt lat="48.93797" lon="0.2264">
        <ele>211.14</ele>
        <time>2015-11-08T14:19:40Z</time>
      </trkpt>
      <trkpt lat="48.93796" lon="0.22636">
        <ele>210.91</ele>
        <time>2015-11-08T14:19:41Z</time>
      </trkpt>
      <trkpt lat="48.93795" lon="0.22632">
        <ele>210.71</ele>
        <time>2015-11-08T14:19:42Z</time>
      </trkpt>
      <trkpt lat="48.93794" lon="0.22628">
        <ele>210.5</ele>
        <time>2015-11-08T14:19:43Z</time>
      </trkpt>
      <trkpt lat="48.93792" lon="0.22625">
        <ele>210.3</ele>
        <time>2015-11-08T14:19:44Z</time>
      </trkpt>
      <trkpt lat="48.9379" lon="0.22618">
        <ele>209.97</ele>
        <time>2015-11-08T14:19:46Z</time>
      </trkpt>
      <trkpt lat="48.93787" lon="0.22611">
        <ele>209.66</ele>
        <time>2015-11-08T14:19:48Z</time>
      </trkpt>
      <trkpt lat="48.93784" lon="0.22605">
        <ele>209.47</ele>
        <time>2015-11-08T14:19:50Z</time>
      </trkpt>
      <trkpt lat="48.9378" lon="0.22599">
        <ele>209.45</ele>
        <time>2015-11-08T14:19:52Z</time>
      </trkpt>
      <trkpt lat="48.93777" lon="0.22595">
        <ele>209.45</ele>
        <time>2015-11-08T14:19:54Z</time>
      </trkpt>
      <trkpt lat="48.93775" lon="0.2259">
        <ele>209.36</ele>
        <time>2015-11-08T14:19:56Z</time>
      </trkpt>
      <trkpt lat="48.93777" lon="0.22593">
        <ele>209.58</ele>
        <time>2015-11-08T14:20:07Z</time>
      </trkpt>
      <trkpt lat="48.93775" lon="0.22589">
        <ele>209.49</ele>
        <time>2015-11-08T14:20:15Z</time>
      </trkpt>
      <trkpt lat="48.93778" lon="0.22586">
        <ele>209.91</ele>
        <time>2015-11-08T14:20:52Z</time>
      </trkpt>
      <trkpt lat="48.93781" lon="0.22583">
        <ele>209.78</ele>
        <time>2015-11-08T14:20:54Z</time>
      </trkpt>
      <trkpt lat="48.93784" lon="0.22578">
        <ele>209.33</ele>
        <time>2015-11-08T14:20:56Z</time>
      </trkpt>
      <trkpt lat="48.93787" lon="0.22574">
        <ele>209.02</ele>
        <time>2015-11-08T14:20:57Z</time>
      </trkpt>
      <trkpt lat="48.93789" lon="0.22569">
        <ele>208.7</ele>
        <time>2015-11-08T14:20:58Z</time>
      </trkpt>
      <trkpt lat="48.93791" lon="0.22564">
        <ele>208.39</ele>
        <time>2015-11-08T14:20:59Z</time>
      </trkpt>
      <trkpt lat="48.93793" lon="0.2256">
        <ele>208.09</ele>
        <time>2015-11-08T14:21:00Z</time>
      </trkpt>
      <trkpt lat="48.93795" lon="0.22556">
        <ele>207.8</ele>
        <time>2015-11-08T14:21:01Z</time>
      </trkpt>
      <trkpt lat="48.93797" lon="0.22553">
        <ele>207.52</ele>
        <time>2015-11-08T14:21:02Z</time>
      </trkpt>
      <trkpt lat="48.93799" lon="0.22549">
        <ele>207.25</ele>
        <time>2015-11-08T14:21:03Z</time>
      </trkpt>
      <trkpt lat="48.93801" lon="0.22545">
        <ele>206.98</ele>
        <time>2015-11-08T14:21:04Z</time>
      </trkpt>
      <trkpt lat="48.93802" lon="0.22541">
        <ele>206.7</ele>
        <time>2015-11-08T14:21:05Z</time>
      </trkpt>
      <trkpt lat="48.93804" lon="0.22537">
        <ele>206.44</ele>
        <time>2015-11-08T14:21:06Z</time>
      </trkpt>
      <trkpt lat="48.93806" lon="0.22532">
        <ele>206.13</ele>
        <time>2015-11-08T14:21:07Z</time>
      </trkpt>
      <trkpt lat="48.93808" lon="0.22528">
        <ele>205.75</ele>
        <time>2015-11-08T14:21:08Z</time>
      </trkpt>
      <trkpt lat="48.9381" lon="0.22524">
        <ele>205.26</ele>
        <time>2015-11-08T14:21:09Z</time>
      </trkpt>
      <trkpt lat="48.93812" lon="0.22519">
        <ele>204.79</ele>
        <time>2015-11-08T14:21:10Z</time>
      </trkpt>
      <trkpt lat="48.93813" lon="0.22515">
        <ele>204.34</ele>
        <time>2015-11-08T14:21:11Z</time>
      </trkpt>
      <trkpt lat="48.93815" lon="0.2251">
        <ele>203.92</ele>
        <time>2015-11-08T14:21:12Z</time>
      </trkpt>
      <trkpt lat="48.93817" lon="0.22506">
        <ele>203.51</ele>
        <time>2015-11-08T14:21:13Z</time>
      </trkpt>
      <trkpt lat="48.93819" lon="0.22501">
        <ele>203.1</ele>
        <time>2015-11-08T14:21:14Z</time>
      </trkpt>
      <trkpt lat="48.93821" lon="0.22497">
        <ele>202.79</ele>
        <time>2015-11-08T14:21:15Z</time>
      </trkpt>
      <trkpt lat="48.93823" lon="0.22492">
        <ele>202.61</ele>
        <time>2015-11-08T14:21:16Z</time>
      </trkpt>
      <trkpt lat="48.93824" lon="0.22486">
        <ele>202.5</ele>
        <time>2015-11-08T14:21:17Z</time>
      </trkpt>
      <trkpt lat="48.93826" lon="0.22481">
        <ele>202.48</ele>
        <time>2015-11-08T14:21:18Z</time>
      </trkpt>
      <trkpt lat="48.93827" lon="0.22475">
        <ele>202.53</ele>
        <time>2015-11-08T14:21:19Z</time>
      </trkpt>
      <trkpt lat="48.93828" lon="0.22469">
        <ele>202.51</ele>
        <time>2015-11-08T14:21:20Z</time>
      </trkpt>
      <trkpt lat="48.93828" lon="0.22464">
        <ele>202.39</ele>
        <time>2015-11-08T14:21:21Z</time>
      </trkpt>
      <trkpt lat="48.93829" lon="0.22458">
        <ele>202.25</ele>
        <time>2015-11-08T14:21:22Z</time>
      </trkpt>
      <trkpt lat="48.93829" lon="0.22453">
        <ele>202.12</ele>
        <time>2015-11-08T14:21:23Z</time>
      </trkpt>
      <trkpt lat="48.9383" lon="0.22447">
        <ele>201.98</ele>
        <time>2015-11-08T14:21:24Z</time>
      </trkpt>
      <trkpt lat="48.93831" lon="0.22442">
        <ele>201.83</ele>
        <time>2015-11-08T14:21:25Z</time>
      </trkpt>
      <trkpt lat="48.93832" lon="0.22437">
        <ele>201.66</ele>
        <time>2015-11-08T14:21:26Z</time>
      </trkpt>
      <trkpt lat="48.93832" lon="0.22431">
        <ele>201.49</ele>
        <time>2015-11-08T14:21:27Z</time>
      </trkpt>
      <trkpt lat="48.93833" lon="0.22426">
        <ele>201.33</ele>
        <time>2015-11-08T14:21:28Z</time>
      </trkpt>
      <trkpt lat="48.93834" lon="0.22422">
        <ele>201.22</ele>
        <time>2015-11-08T14:21:29Z</time>
      </trkpt>
      <trkpt lat="48.93834" lon="0.22416">
        <ele>201.16</ele>
        <time>2015-11-08T14:21:30Z</time>
      </trkpt>
      <trkpt lat="48.93835" lon="0.22411">
        <ele>201.29</ele>
        <time>2015-11-08T14:21:31Z</time>
      </trkpt>
      <trkpt lat="48.93837" lon="0.22406">
        <ele>201.43</ele>
        <time>2015-11-08T14:21:32Z</time>
      </trkpt>
      <trkpt lat="48.93838" lon="0.22401">
        <ele>201.53</ele>
        <time>2015-11-08T14:21:33Z</time>
      </trkpt>
      <trkpt lat="48.93838" lon="0.22395">
        <ele>201.6</ele>
        <time>2015-11-08T14:21:34Z</time>
      </trkpt>
      <trkpt lat="48.93839" lon="0.2239">
        <ele>201.63</ele>
        <time>2015-11-08T14:21:35Z</time>
      </trkpt>
      <trkpt lat="48.9384" lon="0.22384">
        <ele>201.98</ele>
        <time>2015-11-08T14:21:36Z</time>
      </trkpt>
      <trkpt lat="48.93841" lon="0.22379">
        <ele>202.37</ele>
        <time>2015-11-08T14:21:37Z</time>
      </trkpt>
      <trkpt lat="48.93842" lon="0.22373">
        <ele>202.75</ele>
        <time>2015-11-08T14:21:38Z</time>
      </trkpt>
      <trkpt lat="48.93843" lon="0.22367">
        <ele>203.09</ele>
        <time>2015-11-08T14:21:39Z</time>
      </trkpt>
      <trkpt lat="48.93844" lon="0.22362">
        <ele>203.38</ele>
        <time>2015-11-08T14:21:40Z</time>
      </trkpt>
      <trkpt lat="48.93845" lon="0.22356">
        <ele>203.56</ele>
        <time>2015-11-08T14:21:41Z</time>
      </trkpt>
      <trkpt lat="48.93847" lon="0.2235">
        <ele>203.7</ele>
        <time>2015-11-08T14:21:42Z</time>
      </trkpt>
      <trkpt lat="48.93847" lon="0.22345">
        <ele>203.79</ele>
        <time>2015-11-08T14:21:43Z</time>
      </trkpt>
      <trkpt lat="48.93848" lon="0.22339">
        <ele>203.85</ele>
        <time>2015-11-08T14:21:44Z</time>
      </trkpt>
      <trkpt lat="48.93849" lon="0.22333">
        <ele>203.85</ele>
        <time>2015-11-08T14:21:45Z</time>
      </trkpt>
      <trkpt lat="48.9385" lon="0.22328">
        <ele>203.78</ele>
        <time>2015-11-08T14:21:46Z</time>
      </trkpt>
      <trkpt lat="48.93851" lon="0.22322">
        <ele>203.71</ele>
        <time>2015-11-08T14:21:47Z</time>
      </trkpt>
      <trkpt lat="48.93852" lon="0.22317">
        <ele>203.66</ele>
        <time>2015-11-08T14:21:48Z</time>
      </trkpt>
      <trkpt lat="48.93853" lon="0.22312">
        <ele>203.61</ele>
        <time>2015-11-08T14:21:49Z</time>
      </trkpt>
      <trkpt lat="48.93853" lon="0.22306">
        <ele>203.57</ele>
        <time>2015-11-08T14:21:50Z</time>
      </trkpt>
      <trkpt lat="48.93854" lon="0.223">
        <ele>203.36</ele>
        <time>2015-11-08T14:21:51Z</time>
      </trkpt>
      <trkpt lat="48.93854" lon="0.22295">
        <ele>203.13</ele>
        <time>2015-11-08T14:21:52Z</time>
      </trkpt>
      <trkpt lat="48.93855" lon="0.22289">
        <ele>202.89</ele>
        <time>2015-11-08T14:21:53Z</time>
      </trkpt>
      <trkpt lat="48.93855" lon="0.22284">
        <ele>202.65</ele>
        <time>2015-11-08T14:21:54Z</time>
      </trkpt>
      <trkpt lat="48.93856" lon="0.22278">
        <ele>202.41</ele>
        <time>2015-11-08T14:21:55Z</time>
      </trkpt>
      <trkpt lat="48.93856" lon="0.22273">
        <ele>202.34</ele>
        <time>2015-11-08T14:21:56Z</time>
      </trkpt>
      <trkpt lat="48.93856" lon="0.22267">
        <ele>202.28</ele>
        <time>2015-11-08T14:21:57Z</time>
      </trkpt>
      <trkpt lat="48.93857" lon="0.22262">
        <ele>202.22</ele>
        <time>2015-11-08T14:21:58Z</time>
      </trkpt>
      <trkpt lat="48.93857" lon="0.22256">
        <ele>202.17</ele>
        <time>2015-11-08T14:21:59Z</time>
      </trkpt>
      <trkpt lat="48.93858" lon="0.2225">
        <ele>202.13</ele>
        <time>2015-11-08T14:22:00Z</time>
      </trkpt>
      <trkpt lat="48.93858" lon="0.22245">
        <ele>201.93</ele>
        <time>2015-11-08T14:22:01Z</time>
      </trkpt>
      <trkpt lat="48.93859" lon="0.2224">
        <ele>201.72</ele>
        <time>2015-11-08T14:22:02Z</time>
      </trkpt>
      <trkpt lat="48.9386" lon="0.22235">
        <ele>201.5</ele>
        <time>2015-11-08T14:22:03Z</time>
      </trkpt>
      <trkpt lat="48.9386" lon="0.22229">
        <ele>201.27</ele>
        <time>2015-11-08T14:22:04Z</time>
      </trkpt>
      <trkpt lat="48.93861" lon="0.22224">
        <ele>201.05</ele>
        <time>2015-11-08T14:22:05Z</time>
      </trkpt>
      <trkpt lat="48.93862" lon="0.22219">
        <ele>201.18</ele>
        <time>2015-11-08T14:22:06Z</time>
      </trkpt>
      <trkpt lat="48.93863" lon="0.22213">
        <ele>201.49</ele>
        <time>2015-11-08T14:22:07Z</time>
      </trkpt>
      <trkpt lat="48.93863" lon="0.22208">
        <ele>201.82</ele>
        <time>2015-11-08T14:22:08Z</time>
      </trkpt>
      <trkpt lat="48.93863" lon="0.22203">
        <ele>202.14</ele>
        <time>2015-11-08T14:22:09Z</time>
      </trkpt>
      <trkpt lat="48.93864" lon="0.22198">
        <ele>202.32</ele>
        <time>2015-11-08T14:22:10Z</time>
      </trkpt>
      <trkpt lat="48.93865" lon="0.22193">
        <ele>202.43</ele>
        <time>2015-11-08T14:22:11Z</time>
      </trkpt>
      <trkpt lat="48.93866" lon="0.22188">
        <ele>202.52</ele>
        <time>2015-11-08T14:22:12Z</time>
      </trkpt>
      <trkpt lat="48.93867" lon="0.22183">
        <ele>202.71</ele>
        <time>2015-11-08T14:22:13Z</time>
      </trkpt>
      <trkpt lat="48.93868" lon="0.22178">
        <ele>202.97</ele>
        <time>2015-11-08T14:22:14Z</time>
      </trkpt>
      <trkpt lat="48.93869" lon="0.22172">
        <ele>203.28</ele>
        <time>2015-11-08T14:22:15Z</time>
      </trkpt>
      <trkpt lat="48.9387" lon="0.22167">
        <ele>203.64</ele>
        <time>2015-11-08T14:22:16Z</time>
      </trkpt>
      <trkpt lat="48.93871" lon="0.22162">
        <ele>203.82</ele>
        <time>2015-11-08T14:22:17Z</time>
      </trkpt>
      <trkpt lat="48.93873" lon="0.22157">
        <ele>204.03</ele>
        <time>2015-11-08T14:22:18Z</time>
      </trkpt>
      <trkpt lat="48.93874" lon="0.22152">
        <ele>204.3</ele>
        <time>2015-11-08T14:22:19Z</time>
      </trkpt>
      <trkpt lat="48.93876" lon="0.22147">
        <ele>204.62</ele>
        <time>2015-11-08T14:22:20Z</time>
      </trkpt>
      <trkpt lat="48.93877" lon="0.22141">
        <ele>205.01</ele>
        <time>2015-11-08T14:22:21Z</time>
      </trkpt>
      <trkpt lat="48.93879" lon="0.22136">
        <ele>205.29</ele>
        <time>2015-11-08T14:22:22Z</time>
      </trkpt>
      <trkpt lat="48.9388" lon="0.2213">
        <ele>205.47</ele>
        <time>2015-11-08T14:22:23Z</time>
      </trkpt>
      <trkpt lat="48.93881" lon="0.22124">
        <ele>205.69</ele>
        <time>2015-11-08T14:22:24Z</time>
      </trkpt>
      <trkpt lat="48.93883" lon="0.22118">
        <ele>205.95</ele>
        <time>2015-11-08T14:22:25Z</time>
      </trkpt>
      <trkpt lat="48.93884" lon="0.22112">
        <ele>206.27</ele>
        <time>2015-11-08T14:22:26Z</time>
      </trkpt>
      <trkpt lat="48.93885" lon="0.22107">
        <ele>207</ele>
        <time>2015-11-08T14:22:27Z</time>
      </trkpt>
      <trkpt lat="48.93887" lon="0.22101">
        <ele>207.99</ele>
        <time>2015-11-08T14:22:28Z</time>
      </trkpt>
      <trkpt lat="48.93889" lon="0.22095">
        <ele>209.2</ele>
        <time>2015-11-08T14:22:29Z</time>
      </trkpt>
      <trkpt lat="48.9389" lon="0.2209">
        <ele>210.27</ele>
        <time>2015-11-08T14:22:30Z</time>
      </trkpt>
      <trkpt lat="48.93892" lon="0.22084">
        <ele>211.28</ele>
        <time>2015-11-08T14:22:31Z</time>
      </trkpt>
      <trkpt lat="48.93893" lon="0.22079">
        <ele>211.91</ele>
        <time>2015-11-08T14:22:32Z</time>
      </trkpt>
      <trkpt lat="48.93894" lon="0.22073">
        <ele>212.44</ele>
        <time>2015-11-08T14:22:33Z</time>
      </trkpt>
      <trkpt lat="48.93895" lon="0.22067">
        <ele>212.94</ele>
        <time>2015-11-08T14:22:34Z</time>
      </trkpt>
      <trkpt lat="48.93896" lon="0.22062">
        <ele>213.4</ele>
        <time>2015-11-08T14:22:35Z</time>
      </trkpt>
      <trkpt lat="48.93898" lon="0.22057">
        <ele>213.86</ele>
        <time>2015-11-08T14:22:36Z</time>
      </trkpt>
      <trkpt lat="48.93899" lon="0.22052">
        <ele>214.04</ele>
        <time>2015-11-08T14:22:37Z</time>
      </trkpt>
      <trkpt lat="48.939" lon="0.22046">
        <ele>214.09</ele>
        <time>2015-11-08T14:22:38Z</time>
      </trkpt>
      <trkpt lat="48.93901" lon="0.22041">
        <ele>214.09</ele>
        <time>2015-11-08T14:22:39Z</time>
      </trkpt>
      <trkpt lat="48.93902" lon="0.22035">
        <ele>214.1</ele>
        <time>2015-11-08T14:22:40Z</time>
      </trkpt>
      <trkpt lat="48.93904" lon="0.2203">
        <ele>214.1</ele>
        <time>2015-11-08T14:22:41Z</time>
      </trkpt>
      <trkpt lat="48.93905" lon="0.22025">
        <ele>214.1</ele>
        <time>2015-11-08T14:22:42Z</time>
      </trkpt>
      <trkpt lat="48.93906" lon="0.2202">
        <ele>214.12</ele>
        <time>2015-11-08T14:22:43Z</time>
      </trkpt>
      <trkpt lat="48.93907" lon="0.22015">
        <ele>214.16</ele>
        <time>2015-11-08T14:22:44Z</time>
      </trkpt>
      <trkpt lat="48.93909" lon="0.2201">
        <ele>214.23</ele>
        <time>2015-11-08T14:22:45Z</time>
      </trkpt>
      <trkpt lat="48.9391" lon="0.22005">
        <ele>214.34</ele>
        <time>2015-11-08T14:22:46Z</time>
      </trkpt>
      <trkpt lat="48.93912" lon="0.22">
        <ele>214.47</ele>
        <time>2015-11-08T14:22:47Z</time>
      </trkpt>
      <trkpt lat="48.93913" lon="0.21995">
        <ele>214.6</ele>
        <time>2015-11-08T14:22:48Z</time>
      </trkpt>
      <trkpt lat="48.93914" lon="0.21989">
        <ele>214.73</ele>
        <time>2015-11-08T14:22:49Z</time>
      </trkpt>
      <trkpt lat="48.93916" lon="0.21984">
        <ele>214.88</ele>
        <time>2015-11-08T14:22:50Z</time>
      </trkpt>
      <trkpt lat="48.93917" lon="0.21978">
        <ele>214.97</ele>
        <time>2015-11-08T14:22:51Z</time>
      </trkpt>
      <trkpt lat="48.93918" lon="0.21972">
        <ele>214.88</ele>
        <time>2015-11-08T14:22:52Z</time>
      </trkpt>
      <trkpt lat="48.9392" lon="0.21967">
        <ele>215.12</ele>
        <time>2015-11-08T14:22:53Z</time>
      </trkpt>
      <trkpt lat="48.93921" lon="0.21961">
        <ele>215.3</ele>
        <time>2015-11-08T14:22:54Z</time>
      </trkpt>
      <trkpt lat="48.93923" lon="0.21955">
        <ele>215.42</ele>
        <time>2015-11-08T14:22:55Z</time>
      </trkpt>
      <trkpt lat="48.93924" lon="0.21949">
        <ele>215.44</ele>
        <time>2015-11-08T14:22:56Z</time>
      </trkpt>
      <trkpt lat="48.93926" lon="0.21944">
        <ele>215.3</ele>
        <time>2015-11-08T14:22:57Z</time>
      </trkpt>
      <trkpt lat="48.93928" lon="0.21938">
        <ele>214.63</ele>
        <time>2015-11-08T14:22:58Z</time>
      </trkpt>
      <trkpt lat="48.93929" lon="0.21933">
        <ele>213.94</ele>
        <time>2015-11-08T14:22:59Z</time>
      </trkpt>
      <trkpt lat="48.93931" lon="0.21928">
        <ele>213.26</ele>
        <time>2015-11-08T14:23:00Z</time>
      </trkpt>
      <trkpt lat="48.93932" lon="0.21923">
        <ele>212.58</ele>
        <time>2015-11-08T14:23:01Z</time>
      </trkpt>
      <trkpt lat="48.93933" lon="0.21918">
        <ele>211.96</ele>
        <time>2015-11-08T14:23:02Z</time>
      </trkpt>
      <trkpt lat="48.93934" lon="0.21913">
        <ele>211.12</ele>
        <time>2015-11-08T14:23:03Z</time>
      </trkpt>
      <trkpt lat="48.93935" lon="0.21907">
        <ele>210.31</ele>
        <time>2015-11-08T14:23:04Z</time>
      </trkpt>
      <trkpt lat="48.93936" lon="0.21901">
        <ele>209.39</ele>
        <time>2015-11-08T14:23:05Z</time>
      </trkpt>
      <trkpt lat="48.93938" lon="0.21896">
        <ele>208.46</ele>
        <time>2015-11-08T14:23:06Z</time>
      </trkpt>
      <trkpt lat="48.93939" lon="0.2189">
        <ele>207.53</ele>
        <time>2015-11-08T14:23:07Z</time>
      </trkpt>
      <trkpt lat="48.9394" lon="0.21885">
        <ele>206.46</ele>
        <time>2015-11-08T14:23:08Z</time>
      </trkpt>
      <trkpt lat="48.93942" lon="0.21879">
        <ele>205.34</ele>
        <time>2015-11-08T14:23:09Z</time>
      </trkpt>
      <trkpt lat="48.93943" lon="0.21874">
        <ele>204.2</ele>
        <time>2015-11-08T14:23:10Z</time>
      </trkpt>
      <trkpt lat="48.93944" lon="0.21868">
        <ele>203.12</ele>
        <time>2015-11-08T14:23:11Z</time>
      </trkpt>
      <trkpt lat="48.93945" lon="0.21863">
        <ele>202.24</ele>
        <time>2015-11-08T14:23:12Z</time>
      </trkpt>
      <trkpt lat="48.93947" lon="0.21858">
        <ele>201.42</ele>
        <time>2015-11-08T14:23:13Z</time>
      </trkpt>
      <trkpt lat="48.93948" lon="0.21853">
        <ele>200.62</ele>
        <time>2015-11-08T14:23:14Z</time>
      </trkpt>
      <trkpt lat="48.93949" lon="0.21848">
        <ele>199.84</ele>
        <time>2015-11-08T14:23:15Z</time>
      </trkpt>
      <trkpt lat="48.9395" lon="0.21843">
        <ele>199.06</ele>
        <time>2015-11-08T14:23:16Z</time>
      </trkpt>
      <trkpt lat="48.93951" lon="0.21837">
        <ele>198.3</ele>
        <time>2015-11-08T14:23:17Z</time>
      </trkpt>
      <trkpt lat="48.93953" lon="0.21832">
        <ele>197.71</ele>
        <time>2015-11-08T14:23:18Z</time>
      </trkpt>
      <trkpt lat="48.93953" lon="0.21827">
        <ele>197.68</ele>
        <time>2015-11-08T14:23:19Z</time>
      </trkpt>
      <trkpt lat="48.93954" lon="0.21821">
        <ele>197.65</ele>
        <time>2015-11-08T14:23:20Z</time>
      </trkpt>
      <trkpt lat="48.93955" lon="0.21816">
        <ele>197.62</ele>
        <time>2015-11-08T14:23:21Z</time>
      </trkpt>
      <trkpt lat="48.93956" lon="0.21811">
        <ele>197.58</ele>
        <time>2015-11-08T14:23:22Z</time>
      </trkpt>
      <trkpt lat="48.93957" lon="0.21806">
        <ele>197.54</ele>
        <time>2015-11-08T14:23:23Z</time>
      </trkpt>
      <trkpt lat="48.93959" lon="0.21801">
        <ele>197.75</ele>
        <time>2015-11-08T14:23:24Z</time>
      </trkpt>
      <trkpt lat="48.9396" lon="0.21796">
        <ele>197.92</ele>
        <time>2015-11-08T14:23:25Z</time>
      </trkpt>
      <trkpt lat="48.93962" lon="0.21791">
        <ele>198.08</ele>
        <time>2015-11-08T14:23:26Z</time>
      </trkpt>
      <trkpt lat="48.93963" lon="0.21787">
        <ele>198.24</ele>
        <time>2015-11-08T14:23:27Z</time>
      </trkpt>
      <trkpt lat="48.93964" lon="0.21782">
        <ele>198.4</ele>
        <time>2015-11-08T14:23:28Z</time>
      </trkpt>
      <trkpt lat="48.93965" lon="0.21777">
        <ele>198.59</ele>
        <time>2015-11-08T14:23:29Z</time>
      </trkpt>
      <trkpt lat="48.93966" lon="0.21772">
        <ele>198.96</ele>
        <time>2015-11-08T14:23:30Z</time>
      </trkpt>
      <trkpt lat="48.93968" lon="0.21767">
        <ele>199.35</ele>
        <time>2015-11-08T14:23:31Z</time>
      </trkpt>
      <trkpt lat="48.93969" lon="0.21762">
        <ele>199.79</ele>
        <time>2015-11-08T14:23:32Z</time>
      </trkpt>
      <trkpt lat="48.9397" lon="0.21757">
        <ele>200.31</ele>
        <time>2015-11-08T14:23:33Z</time>
      </trkpt>
      <trkpt lat="48.93972" lon="0.21751">
        <ele>200.87</ele>
        <time>2015-11-08T14:23:34Z</time>
      </trkpt>
      <trkpt lat="48.93973" lon="0.21746">
        <ele>201.33</ele>
        <time>2015-11-08T14:23:35Z</time>
      </trkpt>
      <trkpt lat="48.93974" lon="0.2174">
        <ele>201.74</ele>
        <time>2015-11-08T14:23:36Z</time>
      </trkpt>
      <trkpt lat="48.93975" lon="0.21734">
        <ele>202.12</ele>
        <time>2015-11-08T14:23:37Z</time>
      </trkpt>
      <trkpt lat="48.93976" lon="0.21729">
        <ele>202.47</ele>
        <time>2015-11-08T14:23:38Z</time>
      </trkpt>
      <trkpt lat="48.93977" lon="0.21723">
        <ele>202.79</ele>
        <time>2015-11-08T14:23:39Z</time>
      </trkpt>
      <trkpt lat="48.93978" lon="0.21717">
        <ele>202.91</ele>
        <time>2015-11-08T14:23:40Z</time>
      </trkpt>
      <trkpt lat="48.93979" lon="0.21712">
        <ele>203.03</ele>
        <time>2015-11-08T14:23:41Z</time>
      </trkpt>
      <trkpt lat="48.93979" lon="0.21706">
        <ele>203.2</ele>
        <time>2015-11-08T14:23:42Z</time>
      </trkpt>
      <trkpt lat="48.9398" lon="0.217">
        <ele>203.39</ele>
        <time>2015-11-08T14:23:43Z</time>
      </trkpt>
      <trkpt lat="48.93981" lon="0.21695">
        <ele>203.6</ele>
        <time>2015-11-08T14:23:44Z</time>
      </trkpt>
      <trkpt lat="48.93982" lon="0.21689">
        <ele>203.79</ele>
        <time>2015-11-08T14:23:45Z</time>
      </trkpt>
      <trkpt lat="48.93982" lon="0.21684">
        <ele>204.01</ele>
        <time>2015-11-08T14:23:46Z</time>
      </trkpt>
      <trkpt lat="48.93984" lon="0.21679">
        <ele>204.31</ele>
        <time>2015-11-08T14:23:47Z</time>
      </trkpt>
      <trkpt lat="48.93985" lon="0.21673">
        <ele>204.65</ele>
        <time>2015-11-08T14:23:48Z</time>
      </trkpt>
      <trkpt lat="48.93987" lon="0.21668">
        <ele>205.02</ele>
        <time>2015-11-08T14:23:49Z</time>
      </trkpt>
      <trkpt lat="48.93988" lon="0.21663">
        <ele>205.07</ele>
        <time>2015-11-08T14:23:50Z</time>
      </trkpt>
      <trkpt lat="48.93989" lon="0.21657">
        <ele>204.96</ele>
        <time>2015-11-08T14:23:51Z</time>
      </trkpt>
      <trkpt lat="48.9399" lon="0.21652">
        <ele>204.85</ele>
        <time>2015-11-08T14:23:52Z</time>
      </trkpt>
      <trkpt lat="48.93991" lon="0.21647">
        <ele>204.74</ele>
        <time>2015-11-08T14:23:53Z</time>
      </trkpt>
      <trkpt lat="48.93992" lon="0.21641">
        <ele>204.71</ele>
        <time>2015-11-08T14:23:54Z</time>
      </trkpt>
      <trkpt lat="48.93993" lon="0.21637">
        <ele>204.72</ele>
        <time>2015-11-08T14:23:55Z</time>
      </trkpt>
      <trkpt lat="48.93995" lon="0.21632">
        <ele>204.81</ele>
        <time>2015-11-08T14:23:56Z</time>
      </trkpt>
      <trkpt lat="48.93996" lon="0.21627">
        <ele>204.89</ele>
        <time>2015-11-08T14:23:57Z</time>
      </trkpt>
      <trkpt lat="48.93997" lon="0.21621">
        <ele>204.9</ele>
        <time>2015-11-08T14:23:58Z</time>
      </trkpt>
      <trkpt lat="48.93998" lon="0.21616">
        <ele>204.89</ele>
        <time>2015-11-08T14:23:59Z</time>
      </trkpt>
      <trkpt lat="48.94" lon="0.21611">
        <ele>204.91</ele>
        <time>2015-11-08T14:24:00Z</time>
      </trkpt>
      <trkpt lat="48.94001" lon="0.21606">
        <ele>204.78</ele>
        <time>2015-11-08T14:24:01Z</time>
      </trkpt>
      <trkpt lat="48.94002" lon="0.21601">
        <ele>204.56</ele>
        <time>2015-11-08T14:24:02Z</time>
      </trkpt>
      <trkpt lat="48.94003" lon="0.21596">
        <ele>204.35</ele>
        <time>2015-11-08T14:24:03Z</time>
      </trkpt>
      <trkpt lat="48.94005" lon="0.21592">
        <ele>204.13</ele>
        <time>2015-11-08T14:24:04Z</time>
      </trkpt>
      <trkpt lat="48.94006" lon="0.21587">
        <ele>203.91</ele>
        <time>2015-11-08T14:24:05Z</time>
      </trkpt>
      <trkpt lat="48.94008" lon="0.21583">
        <ele>203.73</ele>
        <time>2015-11-08T14:24:06Z</time>
      </trkpt>
      <trkpt lat="48.94009" lon="0.21578">
        <ele>203.73</ele>
        <time>2015-11-08T14:24:07Z</time>
      </trkpt>
      <trkpt lat="48.9401" lon="0.21573">
        <ele>203.76</ele>
        <time>2015-11-08T14:24:08Z</time>
      </trkpt>
      <trkpt lat="48.94011" lon="0.21568">
        <ele>203.82</ele>
        <time>2015-11-08T14:24:09Z</time>
      </trkpt>
      <trkpt lat="48.94012" lon="0.21562">
        <ele>203.9</ele>
        <time>2015-11-08T14:24:10Z</time>
      </trkpt>
      <trkpt lat="48.94013" lon="0.21557">
        <ele>203.98</ele>
        <time>2015-11-08T14:24:11Z</time>
      </trkpt>
      <trkpt lat="48.94013" lon="0.21551">
        <ele>204.31</ele>
        <time>2015-11-08T14:24:12Z</time>
      </trkpt>
      <trkpt lat="48.94014" lon="0.21546">
        <ele>204.72</ele>
        <time>2015-11-08T14:24:13Z</time>
      </trkpt>
      <trkpt lat="48.94015" lon="0.2154">
        <ele>205.15</ele>
        <time>2015-11-08T14:24:14Z</time>
      </trkpt>
      <trkpt lat="48.94017" lon="0.21535">
        <ele>205.61</ele>
        <time>2015-11-08T14:24:15Z</time>
      </trkpt>
      <trkpt lat="48.94018" lon="0.2153">
        <ele>206.11</ele>
        <time>2015-11-08T14:24:16Z</time>
      </trkpt>
      <trkpt lat="48.94019" lon="0.21524">
        <ele>206.35</ele>
        <time>2015-11-08T14:24:17Z</time>
      </trkpt>
      <trkpt lat="48.9402" lon="0.21519">
        <ele>206.39</ele>
        <time>2015-11-08T14:24:18Z</time>
      </trkpt>
      <trkpt lat="48.94022" lon="0.21513">
        <ele>206.45</ele>
        <time>2015-11-08T14:24:19Z</time>
      </trkpt>
      <trkpt lat="48.94023" lon="0.21508">
        <ele>206.55</ele>
        <time>2015-11-08T14:24:20Z</time>
      </trkpt>
      <trkpt lat="48.94025" lon="0.21503">
        <ele>206.68</ele>
        <time>2015-11-08T14:24:21Z</time>
      </trkpt>
      <trkpt lat="48.94026" lon="0.21497">
        <ele>206.58</ele>
        <time>2015-11-08T14:24:22Z</time>
      </trkpt>
      <trkpt lat="48.94027" lon="0.21491">
        <ele>206.3</ele>
        <time>2015-11-08T14:24:23Z</time>
      </trkpt>
      <trkpt lat="48.94028" lon="0.21486">
        <ele>206.03</ele>
        <time>2015-11-08T14:24:24Z</time>
      </trkpt>
      <trkpt lat="48.9403" lon="0.21481">
        <ele>205.75</ele>
        <time>2015-11-08T14:24:25Z</time>
      </trkpt>
      <trkpt lat="48.94031" lon="0.21475">
        <ele>205.45</ele>
        <time>2015-11-08T14:24:26Z</time>
      </trkpt>
      <trkpt lat="48.94033" lon="0.21469">
        <ele>204.95</ele>
        <time>2015-11-08T14:24:27Z</time>
      </trkpt>
      <trkpt lat="48.94034" lon="0.21463">
        <ele>204.25</ele>
        <time>2015-11-08T14:24:28Z</time>
      </trkpt>
      <trkpt lat="48.94035" lon="0.21457">
        <ele>203.52</ele>
        <time>2015-11-08T14:24:29Z</time>
      </trkpt>
      <trkpt lat="48.94036" lon="0.21451">
        <ele>202.77</ele>
        <time>2015-11-08T14:24:30Z</time>
      </trkpt>
      <trkpt lat="48.94036" lon="0.21446">
        <ele>202.06</ele>
        <time>2015-11-08T14:24:31Z</time>
      </trkpt>
      <trkpt lat="48.94037" lon="0.2144">
        <ele>201.34</ele>
        <time>2015-11-08T14:24:32Z</time>
      </trkpt>
      <trkpt lat="48.94038" lon="0.21434">
        <ele>200.59</ele>
        <time>2015-11-08T14:24:33Z</time>
      </trkpt>
      <trkpt lat="48.94038" lon="0.21428">
        <ele>199.83</ele>
        <time>2015-11-08T14:24:34Z</time>
      </trkpt>
      <trkpt lat="48.94039" lon="0.21422">
        <ele>199</ele>
        <time>2015-11-08T14:24:35Z</time>
      </trkpt>
      <trkpt lat="48.94039" lon="0.21416">
        <ele>198.15</ele>
        <time>2015-11-08T14:24:36Z</time>
      </trkpt>
      <trkpt lat="48.94038" lon="0.2141">
        <ele>197.74</ele>
        <time>2015-11-08T14:24:37Z</time>
      </trkpt>
      <trkpt lat="48.94038" lon="0.21405">
        <ele>197.32</ele>
        <time>2015-11-08T14:24:38Z</time>
      </trkpt>
      <trkpt lat="48.94037" lon="0.21399">
        <ele>196.89</ele>
        <time>2015-11-08T14:24:39Z</time>
      </trkpt>
      <trkpt lat="48.94036" lon="0.21393">
        <ele>196.5</ele>
        <time>2015-11-08T14:24:40Z</time>
      </trkpt>
      <trkpt lat="48.94035" lon="0.21387">
        <ele>196.33</ele>
        <time>2015-11-08T14:24:41Z</time>
      </trkpt>
      <trkpt lat="48.94034" lon="0.21381">
        <ele>196.51</ele>
        <time>2015-11-08T14:24:42Z</time>
      </trkpt>
      <trkpt lat="48.94033" lon="0.21374">
        <ele>196.69</ele>
        <time>2015-11-08T14:24:43Z</time>
      </trkpt>
      <trkpt lat="48.94032" lon="0.21368">
        <ele>196.89</ele>
        <time>2015-11-08T14:24:44Z</time>
      </trkpt>
      <trkpt lat="48.94031" lon="0.21362">
        <ele>197.08</ele>
        <time>2015-11-08T14:24:45Z</time>
      </trkpt>
      <trkpt lat="48.9403" lon="0.21356">
        <ele>197.27</ele>
        <time>2015-11-08T14:24:46Z</time>
      </trkpt>
      <trkpt lat="48.94029" lon="0.21349">
        <ele>197.47</ele>
        <time>2015-11-08T14:24:47Z</time>
      </trkpt>
      <trkpt lat="48.94028" lon="0.21339">
        <ele>197.79</ele>
        <time>2015-11-08T14:24:48Z</time>
      </trkpt>
      <trkpt lat="48.94027" lon="0.21333">
        <ele>198.07</ele>
        <time>2015-11-08T14:24:49Z</time>
      </trkpt>
      <trkpt lat="48.94027" lon="0.21326">
        <ele>199</ele>
        <time>2015-11-08T14:24:50Z</time>
      </trkpt>
      <trkpt lat="48.94026" lon="0.21318">
        <ele>200.1</ele>
        <time>2015-11-08T14:24:51Z</time>
      </trkpt>
      <trkpt lat="48.94026" lon="0.21312">
        <ele>200.9</ele>
        <time>2015-11-08T14:24:52Z</time>
      </trkpt>
      <trkpt lat="48.94026" lon="0.21305">
        <ele>201.66</ele>
        <time>2015-11-08T14:24:53Z</time>
      </trkpt>
      <trkpt lat="48.94025" lon="0.21299">
        <ele>200.85</ele>
        <time>2015-11-08T14:24:54Z</time>
      </trkpt>
      <trkpt lat="48.94025" lon="0.21293">
        <ele>200.09</ele>
        <time>2015-11-08T14:24:55Z</time>
      </trkpt>
      <trkpt lat="48.94024" lon="0.21286">
        <ele>199.26</ele>
        <time>2015-11-08T14:24:56Z</time>
      </trkpt>
      <trkpt lat="48.94023" lon="0.2128">
        <ele>198.67</ele>
        <time>2015-11-08T14:24:57Z</time>
      </trkpt>
      <trkpt lat="48.94022" lon="0.21274">
        <ele>197.44</ele>
        <time>2015-11-08T14:24:58Z</time>
      </trkpt>
      <trkpt lat="48.94021" lon="0.21267">
        <ele>195.97</ele>
        <time>2015-11-08T14:24:59Z</time>
      </trkpt>
      <trkpt lat="48.94019" lon="0.21261">
        <ele>194.92</ele>
        <time>2015-11-08T14:25:00Z</time>
      </trkpt>
      <trkpt lat="48.94016" lon="0.21255">
        <ele>193.67</ele>
        <time>2015-11-08T14:25:01Z</time>
      </trkpt>
      <trkpt lat="48.94014" lon="0.21247">
        <ele>192.79</ele>
        <time>2015-11-08T14:25:02Z</time>
      </trkpt>
      <trkpt lat="48.94012" lon="0.21239">
        <ele>192.66</ele>
        <time>2015-11-08T14:25:03Z</time>
      </trkpt>
      <trkpt lat="48.9401" lon="0.21231">
        <ele>192.43</ele>
        <time>2015-11-08T14:25:04Z</time>
      </trkpt>
      <trkpt lat="48.9401" lon="0.21225">
        <ele>192.11</ele>
        <time>2015-11-08T14:25:05Z</time>
      </trkpt>
      <trkpt lat="48.94008" lon="0.21216">
        <ele>192.34</ele>
        <time>2015-11-08T14:25:06Z</time>
      </trkpt>
      <trkpt lat="48.94006" lon="0.21208">
        <ele>192.72</ele>
        <time>2015-11-08T14:25:07Z</time>
      </trkpt>
      <trkpt lat="48.94006" lon="0.21199">
        <ele>193.06</ele>
        <time>2015-11-08T14:25:08Z</time>
      </trkpt>
      <trkpt lat="48.94005" lon="0.21192">
        <ele>193.46</ele>
        <time>2015-11-08T14:25:09Z</time>
      </trkpt>
      <trkpt lat="48.94006" lon="0.21186">
        <ele>193.67</ele>
        <time>2015-11-08T14:25:10Z</time>
      </trkpt>
      <trkpt lat="48.94005" lon="0.21179">
        <ele>194.28</ele>
        <time>2015-11-08T14:25:11Z</time>
      </trkpt>
      <trkpt lat="48.94005" lon="0.21172">
        <ele>194.73</ele>
        <time>2015-11-08T14:25:12Z</time>
      </trkpt>
      <trkpt lat="48.94004" lon="0.21164">
        <ele>195.32</ele>
        <time>2015-11-08T14:25:13Z</time>
      </trkpt>
      <trkpt lat="48.94003" lon="0.21158">
        <ele>195.65</ele>
        <time>2015-11-08T14:25:14Z</time>
      </trkpt>
      <trkpt lat="48.94003" lon="0.2115">
        <ele>195.91</ele>
        <time>2015-11-08T14:25:15Z</time>
      </trkpt>
      <trkpt lat="48.94004" lon="0.21143">
        <ele>196.18</ele>
        <time>2015-11-08T14:25:16Z</time>
      </trkpt>
      <trkpt lat="48.94003" lon="0.21137">
        <ele>196.09</ele>
        <time>2015-11-08T14:25:17Z</time>
      </trkpt>
      <trkpt lat="48.94003" lon="0.2113">
        <ele>195.03</ele>
        <time>2015-11-08T14:25:18Z</time>
      </trkpt>
      <trkpt lat="48.94002" lon="0.21124">
        <ele>194.01</ele>
        <time>2015-11-08T14:25:19Z</time>
      </trkpt>
      <trkpt lat="48.94001" lon="0.21116">
        <ele>192.85</ele>
        <time>2015-11-08T14:25:20Z</time>
      </trkpt>
      <trkpt lat="48.93998" lon="0.21109">
        <ele>191.99</ele>
        <time>2015-11-08T14:25:21Z</time>
      </trkpt>
      <trkpt lat="48.93996" lon="0.21103">
        <ele>191.64</ele>
        <time>2015-11-08T14:25:22Z</time>
      </trkpt>
      <trkpt lat="48.93994" lon="0.21096">
        <ele>191.24</ele>
        <time>2015-11-08T14:25:23Z</time>
      </trkpt>
      <trkpt lat="48.93992" lon="0.21091">
        <ele>190.89</ele>
        <time>2015-11-08T14:25:24Z</time>
      </trkpt>
      <trkpt lat="48.9399" lon="0.21086">
        <ele>190.68</ele>
        <time>2015-11-08T14:25:25Z</time>
      </trkpt>
      <trkpt lat="48.93989" lon="0.21082">
        <ele>190.54</ele>
        <time>2015-11-08T14:25:26Z</time>
      </trkpt>
      <trkpt lat="48.93988" lon="0.21076">
        <ele>190.04</ele>
        <time>2015-11-08T14:25:27Z</time>
      </trkpt>
      <trkpt lat="48.9399" lon="0.21069">
        <ele>189.18</ele>
        <time>2015-11-08T14:25:29Z</time>
      </trkpt>
      <trkpt lat="48.93992" lon="0.21063">
        <ele>188.23</ele>
        <time>2015-11-08T14:25:31Z</time>
      </trkpt>
      <trkpt lat="48.93995" lon="0.21059">
        <ele>187.2</ele>
        <time>2015-11-08T14:25:33Z</time>
      </trkpt>
      <trkpt lat="48.93998" lon="0.21056">
        <ele>186.42</ele>
        <time>2015-11-08T14:25:34Z</time>
      </trkpt>
      <trkpt lat="48.94001" lon="0.21052">
        <ele>185.44</ele>
        <time>2015-11-08T14:25:35Z</time>
      </trkpt>
      <trkpt lat="48.94006" lon="0.21045">
        <ele>183.98</ele>
        <time>2015-11-08T14:25:36Z</time>
      </trkpt>
      <trkpt lat="48.9401" lon="0.2104">
        <ele>182.62</ele>
        <time>2015-11-08T14:25:37Z</time>
      </trkpt>
      <trkpt lat="48.94014" lon="0.21034">
        <ele>181.28</ele>
        <time>2015-11-08T14:25:38Z</time>
      </trkpt>
      <trkpt lat="48.94018" lon="0.2103">
        <ele>180.08</ele>
        <time>2015-11-08T14:25:39Z</time>
      </trkpt>
      <trkpt lat="48.94021" lon="0.21026">
        <ele>179.3</ele>
        <time>2015-11-08T14:25:40Z</time>
      </trkpt>
      <trkpt lat="48.94024" lon="0.21021">
        <ele>178.83</ele>
        <time>2015-11-08T14:25:41Z</time>
      </trkpt>
      <trkpt lat="48.94029" lon="0.21016">
        <ele>178.3</ele>
        <time>2015-11-08T14:25:42Z</time>
      </trkpt>
      <trkpt lat="48.94034" lon="0.21011">
        <ele>178</ele>
        <time>2015-11-08T14:25:43Z</time>
      </trkpt>
      <trkpt lat="48.94038" lon="0.21006">
        <ele>177.77</ele>
        <time>2015-11-08T14:25:44Z</time>
      </trkpt>
      <trkpt lat="48.94041" lon="0.21003">
        <ele>177.5</ele>
        <time>2015-11-08T14:25:45Z</time>
      </trkpt>
      <trkpt lat="48.94045" lon="0.21">
        <ele>177.17</ele>
        <time>2015-11-08T14:25:46Z</time>
      </trkpt>
      <trkpt lat="48.94048" lon="0.20995">
        <ele>177.17</ele>
        <time>2015-11-08T14:25:47Z</time>
      </trkpt>
      <trkpt lat="48.94051" lon="0.2099">
        <ele>177.09</ele>
        <time>2015-11-08T14:25:48Z</time>
      </trkpt>
      <trkpt lat="48.94057" lon="0.20986">
        <ele>176.8</ele>
        <time>2015-11-08T14:25:49Z</time>
      </trkpt>
      <trkpt lat="48.94062" lon="0.20981">
        <ele>176.18</ele>
        <time>2015-11-08T14:25:50Z</time>
      </trkpt>
      <trkpt lat="48.94067" lon="0.20978">
        <ele>175.5</ele>
        <time>2015-11-08T14:25:51Z</time>
      </trkpt>
      <trkpt lat="48.94072" lon="0.20973">
        <ele>175.09</ele>
        <time>2015-11-08T14:25:52Z</time>
      </trkpt>
      <trkpt lat="48.94078" lon="0.20969">
        <ele>174.16</ele>
        <time>2015-11-08T14:25:53Z</time>
      </trkpt>
      <trkpt lat="48.94082" lon="0.20965">
        <ele>173.56</ele>
        <time>2015-11-08T14:25:54Z</time>
      </trkpt>
      <trkpt lat="48.94087" lon="0.20962">
        <ele>171.76</ele>
        <time>2015-11-08T14:25:55Z</time>
      </trkpt>
      <trkpt lat="48.94091" lon="0.20958">
        <ele>170.14</ele>
        <time>2015-11-08T14:25:56Z</time>
      </trkpt>
      <trkpt lat="48.94095" lon="0.20955">
        <ele>168.29</ele>
        <time>2015-11-08T14:25:57Z</time>
      </trkpt>
      <trkpt lat="48.94099" lon="0.20952">
        <ele>166.15</ele>
        <time>2015-11-08T14:25:58Z</time>
      </trkpt>
      <trkpt lat="48.94103" lon="0.20949">
        <ele>164.33</ele>
        <time>2015-11-08T14:25:59Z</time>
      </trkpt>
      <trkpt lat="48.94107" lon="0.20947">
        <ele>161.98</ele>
        <time>2015-11-08T14:26:00Z</time>
      </trkpt>
      <trkpt lat="48.94111" lon="0.20945">
        <ele>160.03</ele>
        <time>2015-11-08T14:26:01Z</time>
      </trkpt>
      <trkpt lat="48.94115" lon="0.20942">
        <ele>159.11</ele>
        <time>2015-11-08T14:26:02Z</time>
      </trkpt>
      <trkpt lat="48.9412" lon="0.20936">
        <ele>158.03</ele>
        <time>2015-11-08T14:26:03Z</time>
      </trkpt>
      <trkpt lat="48.94124" lon="0.20933">
        <ele>157.25</ele>
        <time>2015-11-08T14:26:04Z</time>
      </trkpt>
      <trkpt lat="48.94128" lon="0.20924">
        <ele>156.35</ele>
        <time>2015-11-08T14:26:05Z</time>
      </trkpt>
      <trkpt lat="48.94132" lon="0.20918">
        <ele>155.71</ele>
        <time>2015-11-08T14:26:06Z</time>
      </trkpt>
      <trkpt lat="48.94137" lon="0.20912">
        <ele>155.21</ele>
        <time>2015-11-08T14:26:07Z</time>
      </trkpt>
      <trkpt lat="48.94142" lon="0.20907">
        <ele>154.9</ele>
        <time>2015-11-08T14:26:08Z</time>
      </trkpt>
      <trkpt lat="48.94144" lon="0.20898">
        <ele>154.82</ele>
        <time>2015-11-08T14:26:09Z</time>
      </trkpt>
      <trkpt lat="48.94146" lon="0.2089">
        <ele>154.73</ele>
        <time>2015-11-08T14:26:10Z</time>
      </trkpt>
      <trkpt lat="48.9415" lon="0.2088">
        <ele>153.81</ele>
        <time>2015-11-08T14:26:11Z</time>
      </trkpt>
      <trkpt lat="48.94153" lon="0.20871">
        <ele>152.92</ele>
        <time>2015-11-08T14:26:12Z</time>
      </trkpt>
      <trkpt lat="48.94156" lon="0.20861">
        <ele>151.99</ele>
        <time>2015-11-08T14:26:13Z</time>
      </trkpt>
      <trkpt lat="48.94157" lon="0.20851">
        <ele>151.4</ele>
        <time>2015-11-08T14:26:14Z</time>
      </trkpt>
      <trkpt lat="48.9416" lon="0.20841">
        <ele>150.71</ele>
        <time>2015-11-08T14:26:15Z</time>
      </trkpt>
      <trkpt lat="48.94164" lon="0.2083">
        <ele>150.11</ele>
        <time>2015-11-08T14:26:16Z</time>
      </trkpt>
      <trkpt lat="48.94168" lon="0.2082">
        <ele>150.07</ele>
        <time>2015-11-08T14:26:17Z</time>
      </trkpt>
      <trkpt lat="48.94171" lon="0.20811">
        <ele>150.2</ele>
        <time>2015-11-08T14:26:18Z</time>
      </trkpt>
      <trkpt lat="48.94174" lon="0.20802">
        <ele>149.93</ele>
        <time>2015-11-08T14:26:19Z</time>
      </trkpt>
      <trkpt lat="48.94176" lon="0.2079">
        <ele>148.87</ele>
        <time>2015-11-08T14:26:20Z</time>
      </trkpt>
      <trkpt lat="48.94177" lon="0.2078">
        <ele>147.8</ele>
        <time>2015-11-08T14:26:21Z</time>
      </trkpt>
      <trkpt lat="48.94178" lon="0.20769">
        <ele>147.46</ele>
        <time>2015-11-08T14:26:22Z</time>
      </trkpt>
      <trkpt lat="48.94178" lon="0.20761">
        <ele>147.31</ele>
        <time>2015-11-08T14:26:23Z</time>
      </trkpt>
      <trkpt lat="48.94179" lon="0.20752">
        <ele>147.12</ele>
        <time>2015-11-08T14:26:24Z</time>
      </trkpt>
      <trkpt lat="48.94178" lon="0.20747">
        <ele>147.34</ele>
        <time>2015-11-08T14:26:25Z</time>
      </trkpt>
      <trkpt lat="48.94178" lon="0.2074">
        <ele>147.65</ele>
        <time>2015-11-08T14:26:26Z</time>
      </trkpt>
      <trkpt lat="48.9418" lon="0.20735">
        <ele>147.82</ele>
        <time>2015-11-08T14:26:27Z</time>
      </trkpt>
      <trkpt lat="48.94182" lon="0.20732">
        <ele>147.91</ele>
        <time>2015-11-08T14:26:28Z</time>
      </trkpt>
      <trkpt lat="48.94186" lon="0.20729">
        <ele>147.89</ele>
        <time>2015-11-08T14:26:30Z</time>
      </trkpt>
      <trkpt lat="48.94188" lon="0.20724">
        <ele>148.12</ele>
        <time>2015-11-08T14:26:32Z</time>
      </trkpt>
      <trkpt lat="48.94188" lon="0.20716">
        <ele>148.24</ele>
        <time>2015-11-08T14:26:34Z</time>
      </trkpt>
      <trkpt lat="48.94188" lon="0.2071">
        <ele>148.24</ele>
        <time>2015-11-08T14:26:36Z</time>
      </trkpt>
      <trkpt lat="48.94189" lon="0.20704">
        <ele>148.21</ele>
        <time>2015-11-08T14:26:38Z</time>
      </trkpt>
      <trkpt lat="48.94188" lon="0.207">
        <ele>148.22</ele>
        <time>2015-11-08T14:26:54Z</time>
      </trkpt>
      <trkpt lat="48.94186" lon="0.20698">
        <ele>148.31</ele>
        <time>2015-11-08T14:27:18Z</time>
      </trkpt>
      <trkpt lat="48.94186" lon="0.20693">
        <ele>148.27</ele>
        <time>2015-11-08T14:27:30Z</time>
      </trkpt>
      <trkpt lat="48.94185" lon="0.20688">
        <ele>148.19</ele>
        <time>2015-11-08T14:27:33Z</time>
      </trkpt>
      <trkpt lat="48.94183" lon="0.20683">
        <ele>148.23</ele>
        <time>2015-11-08T14:28:10Z</time>
      </trkpt>
      <trkpt lat="48.94184" lon="0.20679">
        <ele>148.09</ele>
        <time>2015-11-08T14:28:29Z</time>
      </trkpt>
      <trkpt lat="48.94183" lon="0.20675">
        <ele>148.16</ele>
        <time>2015-11-08T14:28:33Z</time>
      </trkpt>
      <trkpt lat="48.9418" lon="0.20672">
        <ele>148.62</ele>
        <time>2015-11-08T14:29:00Z</time>
      </trkpt>
      <trkpt lat="48.94178" lon="0.20667">
        <ele>148.99</ele>
        <time>2015-11-08T14:29:02Z</time>
      </trkpt>
      <trkpt lat="48.94177" lon="0.20662">
        <ele>149.32</ele>
        <time>2015-11-08T14:29:04Z</time>
      </trkpt>
      <trkpt lat="48.94175" lon="0.20657">
        <ele>149.69</ele>
        <time>2015-11-08T14:29:06Z</time>
      </trkpt>
      <trkpt lat="48.94174" lon="0.20651">
        <ele>150.12</ele>
        <time>2015-11-08T14:29:08Z</time>
      </trkpt>
      <trkpt lat="48.94172" lon="0.20646">
        <ele>150.63</ele>
        <time>2015-11-08T14:29:10Z</time>
      </trkpt>
      <trkpt lat="48.9417" lon="0.20642">
        <ele>151.14</ele>
        <time>2015-11-08T14:29:12Z</time>
      </trkpt>
      <trkpt lat="48.94168" lon="0.20637">
        <ele>151.54</ele>
        <time>2015-11-08T14:29:14Z</time>
      </trkpt>
      <trkpt lat="48.94167" lon="0.20633">
        <ele>151.55</ele>
        <time>2015-11-08T14:29:16Z</time>
      </trkpt>
      <trkpt lat="48.94165" lon="0.20628">
        <ele>151.35</ele>
        <time>2015-11-08T14:29:18Z</time>
      </trkpt>
      <trkpt lat="48.94163" lon="0.20623">
        <ele>151.23</ele>
        <time>2015-11-08T14:29:20Z</time>
      </trkpt>
      <trkpt lat="48.94161" lon="0.20619">
        <ele>151.22</ele>
        <time>2015-11-08T14:29:22Z</time>
      </trkpt>
      <trkpt lat="48.94159" lon="0.20614">
        <ele>151.3</ele>
        <time>2015-11-08T14:29:24Z</time>
      </trkpt>
      <trkpt lat="48.94156" lon="0.20611">
        <ele>151.46</ele>
        <time>2015-11-08T14:29:26Z</time>
      </trkpt>
      <trkpt lat="48.94154" lon="0.20607">
        <ele>151.68</ele>
        <time>2015-11-08T14:29:28Z</time>
      </trkpt>
      <trkpt lat="48.94152" lon="0.20602">
        <ele>151.8</ele>
        <time>2015-11-08T14:29:30Z</time>
      </trkpt>
      <trkpt lat="48.9415" lon="0.20598">
        <ele>151.95</ele>
        <time>2015-11-08T14:29:32Z</time>
      </trkpt>
      <trkpt lat="48.94147" lon="0.20594">
        <ele>152.18</ele>
        <time>2015-11-08T14:29:34Z</time>
      </trkpt>
      <trkpt lat="48.94144" lon="0.2059">
        <ele>152.42</ele>
        <time>2015-11-08T14:29:36Z</time>
      </trkpt>
      <trkpt lat="48.94141" lon="0.20586">
        <ele>152.73</ele>
        <time>2015-11-08T14:29:38Z</time>
      </trkpt>
      <trkpt lat="48.94138" lon="0.20582">
        <ele>152.82</ele>
        <time>2015-11-08T14:29:40Z</time>
      </trkpt>
      <trkpt lat="48.94135" lon="0.20578">
        <ele>152.32</ele>
        <time>2015-11-08T14:29:42Z</time>
      </trkpt>
      <trkpt lat="48.94132" lon="0.20574">
        <ele>151.85</ele>
        <time>2015-11-08T14:29:44Z</time>
      </trkpt>
      <trkpt lat="48.94128" lon="0.20569">
        <ele>151.32</ele>
        <time>2015-11-08T14:29:46Z</time>
      </trkpt>
      <trkpt lat="48.94125" lon="0.20564">
        <ele>150.7</ele>
        <time>2015-11-08T14:29:48Z</time>
      </trkpt>
      <trkpt lat="48.94121" lon="0.20558">
        <ele>150.05</ele>
        <time>2015-11-08T14:29:50Z</time>
      </trkpt>
      <trkpt lat="48.94118" lon="0.20553">
        <ele>149.62</ele>
        <time>2015-11-08T14:29:52Z</time>
      </trkpt>
      <trkpt lat="48.94115" lon="0.20548">
        <ele>149.38</ele>
        <time>2015-11-08T14:29:54Z</time>
      </trkpt>
      <trkpt lat="48.94111" lon="0.20542">
        <ele>149.07</ele>
        <time>2015-11-08T14:29:56Z</time>
      </trkpt>
      <trkpt lat="48.94107" lon="0.20536">
        <ele>148.8</ele>
        <time>2015-11-08T14:29:58Z</time>
      </trkpt>
      <trkpt lat="48.94104" lon="0.20529">
        <ele>148.35</ele>
        <time>2015-11-08T14:30:00Z</time>
      </trkpt>
      <trkpt lat="48.94103" lon="0.20525">
        <ele>148.13</ele>
        <time>2015-11-08T14:30:01Z</time>
      </trkpt>
      <trkpt lat="48.94101" lon="0.20521">
        <ele>147.86</ele>
        <time>2015-11-08T14:30:02Z</time>
      </trkpt>
      <trkpt lat="48.94099" lon="0.20516">
        <ele>147.47</ele>
        <time>2015-11-08T14:30:03Z</time>
      </trkpt>
      <trkpt lat="48.94096" lon="0.20511">
        <ele>146.97</ele>
        <time>2015-11-08T14:30:04Z</time>
      </trkpt>
      <trkpt lat="48.94094" lon="0.20506">
        <ele>146.35</ele>
        <time>2015-11-08T14:30:05Z</time>
      </trkpt>
      <trkpt lat="48.94092" lon="0.205">
        <ele>145.65</ele>
        <time>2015-11-08T14:30:06Z</time>
      </trkpt>
      <trkpt lat="48.9409" lon="0.20494">
        <ele>145.63</ele>
        <time>2015-11-08T14:30:07Z</time>
      </trkpt>
      <trkpt lat="48.94088" lon="0.20489">
        <ele>145.69</ele>
        <time>2015-11-08T14:30:08Z</time>
      </trkpt>
      <trkpt lat="48.94086" lon="0.20483">
        <ele>145.75</ele>
        <time>2015-11-08T14:30:09Z</time>
      </trkpt>
      <trkpt lat="48.94084" lon="0.20478">
        <ele>145.82</ele>
        <time>2015-11-08T14:30:10Z</time>
      </trkpt>
      <trkpt lat="48.94081" lon="0.20472">
        <ele>146.39</ele>
        <time>2015-11-08T14:30:11Z</time>
      </trkpt>
      <trkpt lat="48.94079" lon="0.20467">
        <ele>146.99</ele>
        <time>2015-11-08T14:30:12Z</time>
      </trkpt>
      <trkpt lat="48.94076" lon="0.20462">
        <ele>147.5</ele>
        <time>2015-11-08T14:30:13Z</time>
      </trkpt>
      <trkpt lat="48.94073" lon="0.20457">
        <ele>147.97</ele>
        <time>2015-11-08T14:30:14Z</time>
      </trkpt>
      <trkpt lat="48.9407" lon="0.20452">
        <ele>148.38</ele>
        <time>2015-11-08T14:30:15Z</time>
      </trkpt>
      <trkpt lat="48.94067" lon="0.20448">
        <ele>148.74</ele>
        <time>2015-11-08T14:30:16Z</time>
      </trkpt>
      <trkpt lat="48.94064" lon="0.20444">
        <ele>149.04</ele>
        <time>2015-11-08T14:30:17Z</time>
      </trkpt>
      <trkpt lat="48.94061" lon="0.2044">
        <ele>149.27</ele>
        <time>2015-11-08T14:30:18Z</time>
      </trkpt>
      <trkpt lat="48.94058" lon="0.20436">
        <ele>149.48</ele>
        <time>2015-11-08T14:30:19Z</time>
      </trkpt>
      <trkpt lat="48.94055" lon="0.20433">
        <ele>149.62</ele>
        <time>2015-11-08T14:30:20Z</time>
      </trkpt>
      <trkpt lat="48.94051" lon="0.20429">
        <ele>149.62</ele>
        <time>2015-11-08T14:30:21Z</time>
      </trkpt>
      <trkpt lat="48.94048" lon="0.20426">
        <ele>149.63</ele>
        <time>2015-11-08T14:30:22Z</time>
      </trkpt>
      <trkpt lat="48.94044" lon="0.20423">
        <ele>149.65</ele>
        <time>2015-11-08T14:30:23Z</time>
      </trkpt>
      <trkpt lat="48.94041" lon="0.2042">
        <ele>149.67</ele>
        <time>2015-11-08T14:30:24Z</time>
      </trkpt>
      <trkpt lat="48.94037" lon="0.20417">
        <ele>149.69</ele>
        <time>2015-11-08T14:30:25Z</time>
      </trkpt>
      <trkpt lat="48.94034" lon="0.20415">
        <ele>149.59</ele>
        <time>2015-11-08T14:30:26Z</time>
      </trkpt>
      <trkpt lat="48.9403" lon="0.20412">
        <ele>149.45</ele>
        <time>2015-11-08T14:30:27Z</time>
      </trkpt>
      <trkpt lat="48.94027" lon="0.2041">
        <ele>149.31</ele>
        <time>2015-11-08T14:30:28Z</time>
      </trkpt>
      <trkpt lat="48.94023" lon="0.20409">
        <ele>149.12</ele>
        <time>2015-11-08T14:30:29Z</time>
      </trkpt>
      <trkpt lat="48.9402" lon="0.20407">
        <ele>148.93</ele>
        <time>2015-11-08T14:30:30Z</time>
      </trkpt>
      <trkpt lat="48.94017" lon="0.20405">
        <ele>148.73</ele>
        <time>2015-11-08T14:30:31Z</time>
      </trkpt>
      <trkpt lat="48.94014" lon="0.20403">
        <ele>148.57</ele>
        <time>2015-11-08T14:30:32Z</time>
      </trkpt>
      <trkpt lat="48.9401" lon="0.20402">
        <ele>148.42</ele>
        <time>2015-11-08T14:30:33Z</time>
      </trkpt>
      <trkpt lat="48.94007" lon="0.204">
        <ele>148.25</ele>
        <time>2015-11-08T14:30:34Z</time>
      </trkpt>
      <trkpt lat="48.94004" lon="0.20399">
        <ele>148.05</ele>
        <time>2015-11-08T14:30:35Z</time>
      </trkpt>
      <trkpt lat="48.94002" lon="0.20397">
        <ele>147.87</ele>
        <time>2015-11-08T14:30:36Z</time>
      </trkpt>
      <trkpt lat="48.93999" lon="0.20395">
        <ele>147.47</ele>
        <time>2015-11-08T14:30:37Z</time>
      </trkpt>
      <trkpt lat="48.93996" lon="0.20394">
        <ele>146.79</ele>
        <time>2015-11-08T14:30:38Z</time>
      </trkpt>
      <trkpt lat="48.93993" lon="0.20393">
        <ele>146.11</ele>
        <time>2015-11-08T14:30:39Z</time>
      </trkpt>
      <trkpt lat="48.9399" lon="0.20391">
        <ele>145.42</ele>
        <time>2015-11-08T14:30:40Z</time>
      </trkpt>
      <trkpt lat="48.93987" lon="0.2039">
        <ele>144.74</ele>
        <time>2015-11-08T14:30:41Z</time>
      </trkpt>
      <trkpt lat="48.93984" lon="0.20389">
        <ele>144.11</ele>
        <time>2015-11-08T14:30:42Z</time>
      </trkpt>
      <trkpt lat="48.93981" lon="0.20387">
        <ele>143.61</ele>
        <time>2015-11-08T14:30:43Z</time>
      </trkpt>
      <trkpt lat="48.93978" lon="0.20385">
        <ele>143.16</ele>
        <time>2015-11-08T14:30:44Z</time>
      </trkpt>
      <trkpt lat="48.93976" lon="0.20383">
        <ele>142.79</ele>
        <time>2015-11-08T14:30:45Z</time>
      </trkpt>
      <trkpt lat="48.93973" lon="0.20381">
        <ele>142.46</ele>
        <time>2015-11-08T14:30:46Z</time>
      </trkpt>
      <trkpt lat="48.93971" lon="0.20378">
        <ele>142.34</ele>
        <time>2015-11-08T14:30:47Z</time>
      </trkpt>
      <trkpt lat="48.93969" lon="0.20376">
        <ele>142.35</ele>
        <time>2015-11-08T14:30:48Z</time>
      </trkpt>
      <trkpt lat="48.93967" lon="0.20372">
        <ele>142.42</ele>
        <time>2015-11-08T14:30:50Z</time>
      </trkpt>
      <trkpt lat="48.9397" lon="0.20373">
        <ele>142.49</ele>
        <time>2015-11-08T14:30:53Z</time>
      </trkpt>
      <trkpt lat="48.93967" lon="0.20371">
        <ele>142.45</ele>
        <time>2015-11-08T14:30:58Z</time>
      </trkpt>
      <trkpt lat="48.93964" lon="0.20368">
        <ele>142.46</ele>
        <time>2015-11-08T14:31:00Z</time>
      </trkpt>
      <trkpt lat="48.93962" lon="0.20363">
        <ele>142.57</ele>
        <time>2015-11-08T14:31:02Z</time>
      </trkpt>
      <trkpt lat="48.9396" lon="0.20359">
        <ele>142.8</ele>
        <time>2015-11-08T14:31:03Z</time>
      </trkpt>
      <trkpt lat="48.93958" lon="0.20355">
        <ele>143.15</ele>
        <time>2015-11-08T14:31:04Z</time>
      </trkpt>
      <trkpt lat="48.93957" lon="0.20351">
        <ele>143.5</ele>
        <time>2015-11-08T14:31:05Z</time>
      </trkpt>
      <trkpt lat="48.93955" lon="0.20346">
        <ele>143.84</ele>
        <time>2015-11-08T14:31:06Z</time>
      </trkpt>
      <trkpt lat="48.93953" lon="0.20341">
        <ele>144.19</ele>
        <time>2015-11-08T14:31:07Z</time>
      </trkpt>
      <trkpt lat="48.93952" lon="0.20336">
        <ele>144.51</ele>
        <time>2015-11-08T14:31:08Z</time>
      </trkpt>
      <trkpt lat="48.9395" lon="0.20331">
        <ele>144.68</ele>
        <time>2015-11-08T14:31:09Z</time>
      </trkpt>
      <trkpt lat="48.93948" lon="0.20326">
        <ele>144.68</ele>
        <time>2015-11-08T14:31:10Z</time>
      </trkpt>
      <trkpt lat="48.93947" lon="0.2032">
        <ele>144.7</ele>
        <time>2015-11-08T14:31:11Z</time>
      </trkpt>
      <trkpt lat="48.93945" lon="0.20315">
        <ele>144.73</ele>
        <time>2015-11-08T14:31:12Z</time>
      </trkpt>
      <trkpt lat="48.93944" lon="0.20309">
        <ele>144.78</ele>
        <time>2015-11-08T14:31:13Z</time>
      </trkpt>
      <trkpt lat="48.93943" lon="0.20303">
        <ele>144.78</ele>
        <time>2015-11-08T14:31:14Z</time>
      </trkpt>
      <trkpt lat="48.93942" lon="0.20297">
        <ele>144.79</ele>
        <time>2015-11-08T14:31:15Z</time>
      </trkpt>
      <trkpt lat="48.9394" lon="0.20291">
        <ele>144.79</ele>
        <time>2015-11-08T14:31:16Z</time>
      </trkpt>
      <trkpt lat="48.93938" lon="0.2028">
        <ele>144.76</ele>
        <time>2015-11-08T14:31:17Z</time>
      </trkpt>
      <trkpt lat="48.93938" lon="0.20273">
        <ele>144.57</ele>
        <time>2015-11-08T14:31:18Z</time>
      </trkpt>
      <trkpt lat="48.93938" lon="0.20264">
        <ele>144.15</ele>
        <time>2015-11-08T14:31:19Z</time>
      </trkpt>
      <trkpt lat="48.93937" lon="0.20257">
        <ele>143.8</ele>
        <time>2015-11-08T14:31:20Z</time>
      </trkpt>
      <trkpt lat="48.93937" lon="0.20249">
        <ele>143.43</ele>
        <time>2015-11-08T14:31:21Z</time>
      </trkpt>
      <trkpt lat="48.93937" lon="0.2024">
        <ele>143.01</ele>
        <time>2015-11-08T14:31:22Z</time>
      </trkpt>
      <trkpt lat="48.93937" lon="0.20231">
        <ele>142.57</ele>
        <time>2015-11-08T14:31:23Z</time>
      </trkpt>
      <trkpt lat="48.93936" lon="0.2022">
        <ele>141.96</ele>
        <time>2015-11-08T14:31:24Z</time>
      </trkpt>
      <trkpt lat="48.93935" lon="0.2021">
        <ele>141.27</ele>
        <time>2015-11-08T14:31:25Z</time>
      </trkpt>
      <trkpt lat="48.93934" lon="0.20199">
        <ele>140.49</ele>
        <time>2015-11-08T14:31:26Z</time>
      </trkpt>
      <trkpt lat="48.93931" lon="0.20189">
        <ele>139.9</ele>
        <time>2015-11-08T14:31:27Z</time>
      </trkpt>
      <trkpt lat="48.93927" lon="0.20179">
        <ele>139.82</ele>
        <time>2015-11-08T14:31:28Z</time>
      </trkpt>
      <trkpt lat="48.93922" lon="0.20171">
        <ele>140.24</ele>
        <time>2015-11-08T14:31:29Z</time>
      </trkpt>
      <trkpt lat="48.93917" lon="0.20164">
        <ele>140.66</ele>
        <time>2015-11-08T14:31:30Z</time>
      </trkpt>
      <trkpt lat="48.93911" lon="0.20158">
        <ele>139.46</ele>
        <time>2015-11-08T14:31:31Z</time>
      </trkpt>
      <trkpt lat="48.93905" lon="0.20155">
        <ele>138.55</ele>
        <time>2015-11-08T14:31:32Z</time>
      </trkpt>
      <trkpt lat="48.93898" lon="0.20153">
        <ele>137.85</ele>
        <time>2015-11-08T14:31:33Z</time>
      </trkpt>
      <trkpt lat="48.93892" lon="0.20153">
        <ele>137.3</ele>
        <time>2015-11-08T14:31:34Z</time>
      </trkpt>
      <trkpt lat="48.93886" lon="0.20153">
        <ele>137.52</ele>
        <time>2015-11-08T14:31:35Z</time>
      </trkpt>
      <trkpt lat="48.93881" lon="0.20154">
        <ele>138.52</ele>
        <time>2015-11-08T14:31:36Z</time>
      </trkpt>
      <trkpt lat="48.93875" lon="0.20154">
        <ele>139.49</ele>
        <time>2015-11-08T14:31:37Z</time>
      </trkpt>
      <trkpt lat="48.9387" lon="0.20155">
        <ele>140.47</ele>
        <time>2015-11-08T14:31:38Z</time>
      </trkpt>
      <trkpt lat="48.93865" lon="0.20155">
        <ele>141.4</ele>
        <time>2015-11-08T14:31:39Z</time>
      </trkpt>
      <trkpt lat="48.93861" lon="0.20154">
        <ele>142.07</ele>
        <time>2015-11-08T14:31:40Z</time>
      </trkpt>
      <trkpt lat="48.93856" lon="0.20154">
        <ele>142.21</ele>
        <time>2015-11-08T14:31:41Z</time>
      </trkpt>
      <trkpt lat="48.93852" lon="0.20154">
        <ele>142.24</ele>
        <time>2015-11-08T14:31:42Z</time>
      </trkpt>
      <trkpt lat="48.93848" lon="0.20154">
        <ele>142.37</ele>
        <time>2015-11-08T14:31:43Z</time>
      </trkpt>
      <trkpt lat="48.93844" lon="0.20154">
        <ele>142.45</ele>
        <time>2015-11-08T14:31:44Z</time>
      </trkpt>
      <trkpt lat="48.93839" lon="0.20153">
        <ele>142.44</ele>
        <time>2015-11-08T14:31:45Z</time>
      </trkpt>
      <trkpt lat="48.93835" lon="0.20153">
        <ele>142.51</ele>
        <time>2015-11-08T14:31:46Z</time>
      </trkpt>
      <trkpt lat="48.9383" lon="0.20153">
        <ele>142.53</ele>
        <time>2015-11-08T14:31:47Z</time>
      </trkpt>
      <trkpt lat="48.93827" lon="0.20151">
        <ele>142.5</ele>
        <time>2015-11-08T14:31:48Z</time>
      </trkpt>
      <trkpt lat="48.93823" lon="0.20149">
        <ele>142.55</ele>
        <time>2015-11-08T14:31:49Z</time>
      </trkpt>
      <trkpt lat="48.93819" lon="0.20149">
        <ele>142.7</ele>
        <time>2015-11-08T14:31:50Z</time>
      </trkpt>
      <trkpt lat="48.93815" lon="0.20148">
        <ele>142.89</ele>
        <time>2015-11-08T14:31:51Z</time>
      </trkpt>
      <trkpt lat="48.93811" lon="0.20147">
        <ele>143.1</ele>
        <time>2015-11-08T14:31:52Z</time>
      </trkpt>
      <trkpt lat="48.93808" lon="0.20146">
        <ele>143.35</ele>
        <time>2015-11-08T14:31:53Z</time>
      </trkpt>
      <trkpt lat="48.93804" lon="0.20145">
        <ele>143.58</ele>
        <time>2015-11-08T14:31:54Z</time>
      </trkpt>
      <trkpt lat="48.938" lon="0.20144">
        <ele>143.75</ele>
        <time>2015-11-08T14:31:55Z</time>
      </trkpt>
      <trkpt lat="48.93796" lon="0.20143">
        <ele>143.95</ele>
        <time>2015-11-08T14:31:56Z</time>
      </trkpt>
      <trkpt lat="48.93793" lon="0.20142">
        <ele>144.17</ele>
        <time>2015-11-08T14:31:57Z</time>
      </trkpt>
      <trkpt lat="48.93789" lon="0.2014">
        <ele>144.43</ele>
        <time>2015-11-08T14:31:58Z</time>
      </trkpt>
      <trkpt lat="48.93785" lon="0.20139">
        <ele>144.73</ele>
        <time>2015-11-08T14:31:59Z</time>
      </trkpt>
      <trkpt lat="48.93781" lon="0.20138">
        <ele>144.75</ele>
        <time>2015-11-08T14:32:00Z</time>
      </trkpt>
      <trkpt lat="48.93777" lon="0.20136">
        <ele>144.64</ele>
        <time>2015-11-08T14:32:01Z</time>
      </trkpt>
      <trkpt lat="48.93773" lon="0.20134">
        <ele>144.39</ele>
        <time>2015-11-08T14:32:02Z</time>
      </trkpt>
      <trkpt lat="48.93769" lon="0.20132">
        <ele>144.22</ele>
        <time>2015-11-08T14:32:03Z</time>
      </trkpt>
      <trkpt lat="48.93764" lon="0.20128">
        <ele>144.11</ele>
        <time>2015-11-08T14:32:04Z</time>
      </trkpt>
      <trkpt lat="48.93759" lon="0.20127">
        <ele>144.18</ele>
        <time>2015-11-08T14:32:05Z</time>
      </trkpt>
      <trkpt lat="48.93754" lon="0.20125">
        <ele>144.34</ele>
        <time>2015-11-08T14:32:06Z</time>
      </trkpt>
      <trkpt lat="48.9375" lon="0.20123">
        <ele>144.57</ele>
        <time>2015-11-08T14:32:07Z</time>
      </trkpt>
      <trkpt lat="48.93745" lon="0.20122">
        <ele>144.43</ele>
        <time>2015-11-08T14:32:08Z</time>
      </trkpt>
      <trkpt lat="48.93739" lon="0.20119">
        <ele>144.33</ele>
        <time>2015-11-08T14:32:09Z</time>
      </trkpt>
      <trkpt lat="48.93734" lon="0.20118">
        <ele>144.19</ele>
        <time>2015-11-08T14:32:10Z</time>
      </trkpt>
      <trkpt lat="48.93729" lon="0.20116">
        <ele>144.08</ele>
        <time>2015-11-08T14:32:11Z</time>
      </trkpt>
      <trkpt lat="48.93723" lon="0.20116">
        <ele>143.83</ele>
        <time>2015-11-08T14:32:12Z</time>
      </trkpt>
      <trkpt lat="48.93717" lon="0.20116">
        <ele>143.1</ele>
        <time>2015-11-08T14:32:13Z</time>
      </trkpt>
      <trkpt lat="48.93711" lon="0.20117">
        <ele>142.33</ele>
        <time>2015-11-08T14:32:14Z</time>
      </trkpt>
      <trkpt lat="48.93705" lon="0.20118">
        <ele>141.59</ele>
        <time>2015-11-08T14:32:15Z</time>
      </trkpt>
      <trkpt lat="48.93699" lon="0.2012">
        <ele>140.88</ele>
        <time>2015-11-08T14:32:16Z</time>
      </trkpt>
      <trkpt lat="48.93692" lon="0.20121">
        <ele>140.3</ele>
        <time>2015-11-08T14:32:17Z</time>
      </trkpt>
      <trkpt lat="48.93685" lon="0.20123">
        <ele>140.24</ele>
        <time>2015-11-08T14:32:18Z</time>
      </trkpt>
      <trkpt lat="48.93677" lon="0.20127">
        <ele>140.3</ele>
        <time>2015-11-08T14:32:19Z</time>
      </trkpt>
      <trkpt lat="48.93671" lon="0.2013">
        <ele>140.4</ele>
        <time>2015-11-08T14:32:20Z</time>
      </trkpt>
      <trkpt lat="48.93665" lon="0.20132">
        <ele>140.32</ele>
        <time>2015-11-08T14:32:21Z</time>
      </trkpt>
      <trkpt lat="48.93659" lon="0.20136">
        <ele>139.99</ele>
        <time>2015-11-08T14:32:22Z</time>
      </trkpt>
      <trkpt lat="48.93653" lon="0.20139">
        <ele>139.6</ele>
        <time>2015-11-08T14:32:23Z</time>
      </trkpt>
      <trkpt lat="48.93648" lon="0.20143">
        <ele>139.28</ele>
        <time>2015-11-08T14:32:24Z</time>
      </trkpt>
      <trkpt lat="48.93642" lon="0.20147">
        <ele>138.96</ele>
        <time>2015-11-08T14:32:25Z</time>
      </trkpt>
      <trkpt lat="48.93638" lon="0.20151">
        <ele>138.77</ele>
        <time>2015-11-08T14:32:26Z</time>
      </trkpt>
      <trkpt lat="48.93633" lon="0.20156">
        <ele>138.69</ele>
        <time>2015-11-08T14:32:27Z</time>
      </trkpt>
      <trkpt lat="48.93629" lon="0.20162">
        <ele>138.66</ele>
        <time>2015-11-08T14:32:28Z</time>
      </trkpt>
      <trkpt lat="48.93625" lon="0.20167">
        <ele>138.52</ele>
        <time>2015-11-08T14:32:29Z</time>
      </trkpt>
      <trkpt lat="48.93622" lon="0.20174">
        <ele>138.26</ele>
        <time>2015-11-08T14:32:30Z</time>
      </trkpt>
      <trkpt lat="48.93619" lon="0.2018">
        <ele>137.99</ele>
        <time>2015-11-08T14:32:31Z</time>
      </trkpt>
      <trkpt lat="48.93616" lon="0.20187">
        <ele>137.71</ele>
        <time>2015-11-08T14:32:32Z</time>
      </trkpt>
      <trkpt lat="48.93613" lon="0.20193">
        <ele>137.3</ele>
        <time>2015-11-08T14:32:33Z</time>
      </trkpt>
      <trkpt lat="48.93609" lon="0.20198">
        <ele>136.78</ele>
        <time>2015-11-08T14:32:34Z</time>
      </trkpt>
      <trkpt lat="48.93606" lon="0.20204">
        <ele>136.57</ele>
        <time>2015-11-08T14:32:35Z</time>
      </trkpt>
      <trkpt lat="48.93603" lon="0.2021">
        <ele>136.23</ele>
        <time>2015-11-08T14:32:36Z</time>
      </trkpt>
      <trkpt lat="48.936" lon="0.20215">
        <ele>136.08</ele>
        <time>2015-11-08T14:32:37Z</time>
      </trkpt>
      <trkpt lat="48.93598" lon="0.20219">
        <ele>135.88</ele>
        <time>2015-11-08T14:32:38Z</time>
      </trkpt>
      <trkpt lat="48.93594" lon="0.20222">
        <ele>135.55</ele>
        <time>2015-11-08T14:32:39Z</time>
      </trkpt>
      <trkpt lat="48.93591" lon="0.20223">
        <ele>135.23</ele>
        <time>2015-11-08T14:32:40Z</time>
      </trkpt>
      <trkpt lat="48.93587" lon="0.20224">
        <ele>134.72</ele>
        <time>2015-11-08T14:32:41Z</time>
      </trkpt>
      <trkpt lat="48.93584" lon="0.20224">
        <ele>134.28</ele>
        <time>2015-11-08T14:32:42Z</time>
      </trkpt>
      <trkpt lat="48.93583" lon="0.20219">
        <ele>133.67</ele>
        <time>2015-11-08T14:32:44Z</time>
      </trkpt>
      <trkpt lat="48.93581" lon="0.20215">
        <ele>133.14</ele>
        <time>2015-11-08T14:32:56Z</time>
      </trkpt>
      <trkpt lat="48.93581" lon="0.2021">
        <ele>132.83</ele>
        <time>2015-11-08T14:32:58Z</time>
      </trkpt>
      <trkpt lat="48.93582" lon="0.20203">
        <ele>132.47</ele>
        <time>2015-11-08T14:33:00Z</time>
      </trkpt>
      <trkpt lat="48.93583" lon="0.20196">
        <ele>132.12</ele>
        <time>2015-11-08T14:33:02Z</time>
      </trkpt>
      <trkpt lat="48.93585" lon="0.20189">
        <ele>133.06</ele>
        <time>2015-11-08T14:33:04Z</time>
      </trkpt>
      <trkpt lat="48.93586" lon="0.20181">
        <ele>134.24</ele>
        <time>2015-11-08T14:33:06Z</time>
      </trkpt>
      <trkpt lat="48.93587" lon="0.20177">
        <ele>134.84</ele>
        <time>2015-11-08T14:33:07Z</time>
      </trkpt>
      <trkpt lat="48.93587" lon="0.20172">
        <ele>135.43</ele>
        <time>2015-11-08T14:33:08Z</time>
      </trkpt>
      <trkpt lat="48.93587" lon="0.20168">
        <ele>136.02</ele>
        <time>2015-11-08T14:33:09Z</time>
      </trkpt>
      <trkpt lat="48.93588" lon="0.20162">
        <ele>136.39</ele>
        <time>2015-11-08T14:33:10Z</time>
      </trkpt>
      <trkpt lat="48.93588" lon="0.20157">
        <ele>136.7</ele>
        <time>2015-11-08T14:33:11Z</time>
      </trkpt>
      <trkpt lat="48.93589" lon="0.20151">
        <ele>136.99</ele>
        <time>2015-11-08T14:33:12Z</time>
      </trkpt>
      <trkpt lat="48.9359" lon="0.20145">
        <ele>137.27</ele>
        <time>2015-11-08T14:33:13Z</time>
      </trkpt>
      <trkpt lat="48.9359" lon="0.20138">
        <ele>137.47</ele>
        <time>2015-11-08T14:33:14Z</time>
      </trkpt>
      <trkpt lat="48.93591" lon="0.20132">
        <ele>137.07</ele>
        <time>2015-11-08T14:33:15Z</time>
      </trkpt>
      <trkpt lat="48.93592" lon="0.2012">
        <ele>136.43</ele>
        <time>2015-11-08T14:33:16Z</time>
      </trkpt>
      <trkpt lat="48.93593" lon="0.20113">
        <ele>136.08</ele>
        <time>2015-11-08T14:33:17Z</time>
      </trkpt>
      <trkpt lat="48.93594" lon="0.20104">
        <ele>135.33</ele>
        <time>2015-11-08T14:33:18Z</time>
      </trkpt>
      <trkpt lat="48.93595" lon="0.20096">
        <ele>134.61</ele>
        <time>2015-11-08T14:33:19Z</time>
      </trkpt>
      <trkpt lat="48.93596" lon="0.20088">
        <ele>133.84</ele>
        <time>2015-11-08T14:33:20Z</time>
      </trkpt>
      <trkpt lat="48.93598" lon="0.20079">
        <ele>132.55</ele>
        <time>2015-11-08T14:33:21Z</time>
      </trkpt>
      <trkpt lat="48.93598" lon="0.2007">
        <ele>130.72</ele>
        <time>2015-11-08T14:33:22Z</time>
      </trkpt>
      <trkpt lat="48.93599" lon="0.2006">
        <ele>128.36</ele>
        <time>2015-11-08T14:33:23Z</time>
      </trkpt>
      <trkpt lat="48.936" lon="0.2005">
        <ele>126.46</ele>
        <time>2015-11-08T14:33:24Z</time>
      </trkpt>
      <trkpt lat="48.93601" lon="0.2004">
        <ele>124.79</ele>
        <time>2015-11-08T14:33:25Z</time>
      </trkpt>
      <trkpt lat="48.93602" lon="0.20029">
        <ele>122.87</ele>
        <time>2015-11-08T14:33:26Z</time>
      </trkpt>
      <trkpt lat="48.93602" lon="0.20018">
        <ele>122.27</ele>
        <time>2015-11-08T14:33:27Z</time>
      </trkpt>
      <trkpt lat="48.93602" lon="0.20006">
        <ele>121.87</ele>
        <time>2015-11-08T14:33:28Z</time>
      </trkpt>
      <trkpt lat="48.93603" lon="0.19995">
        <ele>121.35</ele>
        <time>2015-11-08T14:33:29Z</time>
      </trkpt>
      <trkpt lat="48.93603" lon="0.19983">
        <ele>120.79</ele>
        <time>2015-11-08T14:33:30Z</time>
      </trkpt>
      <trkpt lat="48.93604" lon="0.19974">
        <ele>120.31</ele>
        <time>2015-11-08T14:33:31Z</time>
      </trkpt>
      <trkpt lat="48.93605" lon="0.19963">
        <ele>120.29</ele>
        <time>2015-11-08T14:33:32Z</time>
      </trkpt>
      <trkpt lat="48.93605" lon="0.19954">
        <ele>120.38</ele>
        <time>2015-11-08T14:33:33Z</time>
      </trkpt>
      <trkpt lat="48.93604" lon="0.19947">
        <ele>120.48</ele>
        <time>2015-11-08T14:33:34Z</time>
      </trkpt>
      <trkpt lat="48.93604" lon="0.19941">
        <ele>121.24</ele>
        <time>2015-11-08T14:33:35Z</time>
      </trkpt>
      <trkpt lat="48.93604" lon="0.19936">
        <ele>122.25</ele>
        <time>2015-11-08T14:33:36Z</time>
      </trkpt>
      <trkpt lat="48.93604" lon="0.19931">
        <ele>123.13</ele>
        <time>2015-11-08T14:33:37Z</time>
      </trkpt>
      <trkpt lat="48.93605" lon="0.19926">
        <ele>124.12</ele>
        <time>2015-11-08T14:33:40Z</time>
      </trkpt>
      <trkpt lat="48.93604" lon="0.19921">
        <ele>125.11</ele>
        <time>2015-11-08T14:33:49Z</time>
      </trkpt>
      <trkpt lat="48.93603" lon="0.19915">
        <ele>125.55</ele>
        <time>2015-11-08T14:33:51Z</time>
      </trkpt>
      <trkpt lat="48.93602" lon="0.19906">
        <ele>124.19</ele>
        <time>2015-11-08T14:33:53Z</time>
      </trkpt>
      <trkpt lat="48.93601" lon="0.19901">
        <ele>123.45</ele>
        <time>2015-11-08T14:33:54Z</time>
      </trkpt>
      <trkpt lat="48.936" lon="0.19896">
        <ele>122.73</ele>
        <time>2015-11-08T14:33:55Z</time>
      </trkpt>
      <trkpt lat="48.93597" lon="0.19891">
        <ele>122.21</ele>
        <time>2015-11-08T14:33:56Z</time>
      </trkpt>
      <trkpt lat="48.9359" lon="0.19887">
        <ele>122.39</ele>
        <time>2015-11-08T14:33:57Z</time>
      </trkpt>
      <trkpt lat="48.93584" lon="0.19887">
        <ele>122.71</ele>
        <time>2015-11-08T14:33:58Z</time>
      </trkpt>
      <trkpt lat="48.93579" lon="0.19886">
        <ele>122.58</ele>
        <time>2015-11-08T14:33:59Z</time>
      </trkpt>
      <trkpt lat="48.93573" lon="0.19886">
        <ele>122.33</ele>
        <time>2015-11-08T14:34:00Z</time>
      </trkpt>
      <trkpt lat="48.93568" lon="0.19886">
        <ele>122.2</ele>
        <time>2015-11-08T14:34:01Z</time>
      </trkpt>
      <trkpt lat="48.93563" lon="0.19885">
        <ele>121.96</ele>
        <time>2015-11-08T14:34:02Z</time>
      </trkpt>
      <trkpt lat="48.93558" lon="0.19885">
        <ele>121.79</ele>
        <time>2015-11-08T14:34:03Z</time>
      </trkpt>
      <trkpt lat="48.93553" lon="0.19885">
        <ele>121.48</ele>
        <time>2015-11-08T14:34:04Z</time>
      </trkpt>
      <trkpt lat="48.93548" lon="0.19884">
        <ele>121.04</ele>
        <time>2015-11-08T14:34:05Z</time>
      </trkpt>
      <trkpt lat="48.93543" lon="0.19883">
        <ele>120.54</ele>
        <time>2015-11-08T14:34:06Z</time>
      </trkpt>
      <trkpt lat="48.93539" lon="0.19881">
        <ele>120.06</ele>
        <time>2015-11-08T14:34:07Z</time>
      </trkpt>
      <trkpt lat="48.93534" lon="0.19879">
        <ele>119.43</ele>
        <time>2015-11-08T14:34:08Z</time>
      </trkpt>
      <trkpt lat="48.93528" lon="0.19877">
        <ele>118.73</ele>
        <time>2015-11-08T14:34:09Z</time>
      </trkpt>
      <trkpt lat="48.93523" lon="0.19875">
        <ele>116.6</ele>
        <time>2015-11-08T14:34:10Z</time>
      </trkpt>
      <trkpt lat="48.93518" lon="0.19872">
        <ele>114.53</ele>
        <time>2015-11-08T14:34:11Z</time>
      </trkpt>
      <trkpt lat="48.93512" lon="0.1987">
        <ele>112.14</ele>
        <time>2015-11-08T14:34:12Z</time>
      </trkpt>
      <trkpt lat="48.93506" lon="0.19868">
        <ele>109.9</ele>
        <time>2015-11-08T14:34:13Z</time>
      </trkpt>
      <trkpt lat="48.93501" lon="0.19866">
        <ele>107.85</ele>
        <time>2015-11-08T14:34:14Z</time>
      </trkpt>
      <trkpt lat="48.93496" lon="0.19863">
        <ele>107.24</ele>
        <time>2015-11-08T14:34:15Z</time>
      </trkpt>
      <trkpt lat="48.93491" lon="0.1986">
        <ele>106.93</ele>
        <time>2015-11-08T14:34:16Z</time>
      </trkpt>
      <trkpt lat="48.93486" lon="0.19857">
        <ele>106.72</ele>
        <time>2015-11-08T14:34:17Z</time>
      </trkpt>
      <trkpt lat="48.93482" lon="0.19854">
        <ele>106.48</ele>
        <time>2015-11-08T14:34:18Z</time>
      </trkpt>
      <trkpt lat="48.93477" lon="0.1985">
        <ele>106.22</ele>
        <time>2015-11-08T14:34:19Z</time>
      </trkpt>
      <trkpt lat="48.93473" lon="0.19848">
        <ele>106.05</ele>
        <time>2015-11-08T14:34:20Z</time>
      </trkpt>
      <trkpt lat="48.93469" lon="0.19844">
        <ele>106.23</ele>
        <time>2015-11-08T14:34:21Z</time>
      </trkpt>
      <trkpt lat="48.93465" lon="0.1984">
        <ele>106.54</ele>
        <time>2015-11-08T14:34:22Z</time>
      </trkpt>
      <trkpt lat="48.9346" lon="0.19837">
        <ele>107.23</ele>
        <time>2015-11-08T14:34:23Z</time>
      </trkpt>
      <trkpt lat="48.93456" lon="0.19832">
        <ele>107.74</ele>
        <time>2015-11-08T14:34:24Z</time>
      </trkpt>
      <trkpt lat="48.93451" lon="0.19829">
        <ele>108.02</ele>
        <time>2015-11-08T14:34:25Z</time>
      </trkpt>
      <trkpt lat="48.93446" lon="0.19825">
        <ele>107.76</ele>
        <time>2015-11-08T14:34:26Z</time>
      </trkpt>
      <trkpt lat="48.9344" lon="0.19821">
        <ele>106.45</ele>
        <time>2015-11-08T14:34:27Z</time>
      </trkpt>
      <trkpt lat="48.93435" lon="0.19817">
        <ele>105.09</ele>
        <time>2015-11-08T14:34:28Z</time>
      </trkpt>
      <trkpt lat="48.93429" lon="0.19813">
        <ele>104.06</ele>
        <time>2015-11-08T14:34:29Z</time>
      </trkpt>
      <trkpt lat="48.93423" lon="0.19808">
        <ele>103.26</ele>
        <time>2015-11-08T14:34:30Z</time>
      </trkpt>
      <trkpt lat="48.93418" lon="0.19798">
        <ele>101.89</ele>
        <time>2015-11-08T14:34:31Z</time>
      </trkpt>
      <trkpt lat="48.93411" lon="0.19795">
        <ele>101.68</ele>
        <time>2015-11-08T14:34:32Z</time>
      </trkpt>
      <trkpt lat="48.93406" lon="0.1979">
        <ele>101.37</ele>
        <time>2015-11-08T14:34:33Z</time>
      </trkpt>
      <trkpt lat="48.93399" lon="0.19786">
        <ele>101.25</ele>
        <time>2015-11-08T14:34:34Z</time>
      </trkpt>
      <trkpt lat="48.93392" lon="0.19783">
        <ele>101.3</ele>
        <time>2015-11-08T14:34:35Z</time>
      </trkpt>
      <trkpt lat="48.93385" lon="0.19777">
        <ele>100.78</ele>
        <time>2015-11-08T14:34:36Z</time>
      </trkpt>
      <trkpt lat="48.93378" lon="0.19772">
        <ele>100.14</ele>
        <time>2015-11-08T14:34:37Z</time>
      </trkpt>
      <trkpt lat="48.93371" lon="0.19767">
        <ele>99.69</ele>
        <time>2015-11-08T14:34:38Z</time>
      </trkpt>
      <trkpt lat="48.93364" lon="0.19762">
        <ele>99.4</ele>
        <time>2015-11-08T14:34:39Z</time>
      </trkpt>
      <trkpt lat="48.93357" lon="0.19756">
        <ele>99.26</ele>
        <time>2015-11-08T14:34:40Z</time>
      </trkpt>
      <trkpt lat="48.9335" lon="0.1975">
        <ele>99.41</ele>
        <time>2015-11-08T14:34:41Z</time>
      </trkpt>
      <trkpt lat="48.93342" lon="0.19745">
        <ele>99.55</ele>
        <time>2015-11-08T14:34:42Z</time>
      </trkpt>
      <trkpt lat="48.93335" lon="0.19739">
        <ele>99.6</ele>
        <time>2015-11-08T14:34:43Z</time>
      </trkpt>
      <trkpt lat="48.93327" lon="0.19734">
        <ele>98.67</ele>
        <time>2015-11-08T14:34:44Z</time>
      </trkpt>
      <trkpt lat="48.9332" lon="0.19728">
        <ele>97.91</ele>
        <time>2015-11-08T14:34:45Z</time>
      </trkpt>
      <trkpt lat="48.93312" lon="0.19722">
        <ele>97.46</ele>
        <time>2015-11-08T14:34:46Z</time>
      </trkpt>
      <trkpt lat="48.93305" lon="0.19717">
        <ele>97.4</ele>
        <time>2015-11-08T14:34:47Z</time>
      </trkpt>
      <trkpt lat="48.93298" lon="0.19711">
        <ele>98.03</ele>
        <time>2015-11-08T14:34:48Z</time>
      </trkpt>
      <trkpt lat="48.93291" lon="0.19706">
        <ele>98.81</ele>
        <time>2015-11-08T14:34:49Z</time>
      </trkpt>
      <trkpt lat="48.93284" lon="0.19701">
        <ele>99.74</ele>
        <time>2015-11-08T14:34:50Z</time>
      </trkpt>
      <trkpt lat="48.93278" lon="0.19696">
        <ele>100.81</ele>
        <time>2015-11-08T14:34:51Z</time>
      </trkpt>
      <trkpt lat="48.93272" lon="0.19691">
        <ele>101.72</ele>
        <time>2015-11-08T14:34:52Z</time>
      </trkpt>
      <trkpt lat="48.93266" lon="0.19687">
        <ele>102.35</ele>
        <time>2015-11-08T14:34:53Z</time>
      </trkpt>
      <trkpt lat="48.9326" lon="0.19682">
        <ele>102.75</ele>
        <time>2015-11-08T14:34:54Z</time>
      </trkpt>
      <trkpt lat="48.93254" lon="0.19678">
        <ele>102.96</ele>
        <time>2015-11-08T14:34:55Z</time>
      </trkpt>
      <trkpt lat="48.93249" lon="0.19674">
        <ele>102.97</ele>
        <time>2015-11-08T14:34:56Z</time>
      </trkpt>
      <trkpt lat="48.93244" lon="0.1967">
        <ele>102.79</ele>
        <time>2015-11-08T14:34:57Z</time>
      </trkpt>
      <trkpt lat="48.9324" lon="0.19666">
        <ele>102.58</ele>
        <time>2015-11-08T14:34:58Z</time>
      </trkpt>
      <trkpt lat="48.93235" lon="0.19663">
        <ele>102.03</ele>
        <time>2015-11-08T14:34:59Z</time>
      </trkpt>
      <trkpt lat="48.9323" lon="0.19659">
        <ele>101.46</ele>
        <time>2015-11-08T14:35:00Z</time>
      </trkpt>
      <trkpt lat="48.93226" lon="0.19655">
        <ele>100.88</ele>
        <time>2015-11-08T14:35:01Z</time>
      </trkpt>
      <trkpt lat="48.93221" lon="0.19651">
        <ele>100.2</ele>
        <time>2015-11-08T14:35:02Z</time>
      </trkpt>
      <trkpt lat="48.93217" lon="0.19648">
        <ele>99.29</ele>
        <time>2015-11-08T14:35:03Z</time>
      </trkpt>
      <trkpt lat="48.93212" lon="0.19644">
        <ele>98.42</ele>
        <time>2015-11-08T14:35:04Z</time>
      </trkpt>
      <trkpt lat="48.93209" lon="0.19642">
        <ele>97.77</ele>
        <time>2015-11-08T14:35:05Z</time>
      </trkpt>
      <trkpt lat="48.93205" lon="0.19638">
        <ele>97.05</ele>
        <time>2015-11-08T14:35:06Z</time>
      </trkpt>
      <trkpt lat="48.93201" lon="0.19635">
        <ele>96.47</ele>
        <time>2015-11-08T14:35:07Z</time>
      </trkpt>
      <trkpt lat="48.93196" lon="0.19632">
        <ele>95.86</ele>
        <time>2015-11-08T14:35:08Z</time>
      </trkpt>
      <trkpt lat="48.93191" lon="0.19629">
        <ele>95.65</ele>
        <time>2015-11-08T14:35:09Z</time>
      </trkpt>
      <trkpt lat="48.93188" lon="0.19624">
        <ele>95.61</ele>
        <time>2015-11-08T14:35:10Z</time>
      </trkpt>
      <trkpt lat="48.93184" lon="0.19621">
        <ele>95.71</ele>
        <time>2015-11-08T14:35:11Z</time>
      </trkpt>
      <trkpt lat="48.9318" lon="0.19618">
        <ele>95.9</ele>
        <time>2015-11-08T14:35:12Z</time>
      </trkpt>
      <trkpt lat="48.93176" lon="0.19615">
        <ele>96.22</ele>
        <time>2015-11-08T14:35:13Z</time>
      </trkpt>
      <trkpt lat="48.93172" lon="0.19611">
        <ele>96.58</ele>
        <time>2015-11-08T14:35:14Z</time>
      </trkpt>
      <trkpt lat="48.93168" lon="0.19608">
        <ele>96.92</ele>
        <time>2015-11-08T14:35:15Z</time>
      </trkpt>
      <trkpt lat="48.93163" lon="0.19605">
        <ele>97.56</ele>
        <time>2015-11-08T14:35:16Z</time>
      </trkpt>
      <trkpt lat="48.93159" lon="0.19603">
        <ele>98.11</ele>
        <time>2015-11-08T14:35:17Z</time>
      </trkpt>
      <trkpt lat="48.93156" lon="0.196">
        <ele>98.71</ele>
        <time>2015-11-08T14:35:18Z</time>
      </trkpt>
      <trkpt lat="48.93152" lon="0.19596">
        <ele>99.36</ele>
        <time>2015-11-08T14:35:19Z</time>
      </trkpt>
      <trkpt lat="48.93149" lon="0.19594">
        <ele>99.98</ele>
        <time>2015-11-08T14:35:20Z</time>
      </trkpt>
      <trkpt lat="48.93145" lon="0.19592">
        <ele>100.71</ele>
        <time>2015-11-08T14:35:21Z</time>
      </trkpt>
      <trkpt lat="48.93141" lon="0.19589">
        <ele>101.39</ele>
        <time>2015-11-08T14:35:22Z</time>
      </trkpt>
      <trkpt lat="48.93137" lon="0.19587">
        <ele>102.12</ele>
        <time>2015-11-08T14:35:23Z</time>
      </trkpt>
      <trkpt lat="48.93133" lon="0.19585">
        <ele>102.95</ele>
        <time>2015-11-08T14:35:24Z</time>
      </trkpt>
      <trkpt lat="48.9313" lon="0.19582">
        <ele>103.49</ele>
        <time>2015-11-08T14:35:25Z</time>
      </trkpt>
      <trkpt lat="48.93127" lon="0.1958">
        <ele>103.96</ele>
        <time>2015-11-08T14:35:26Z</time>
      </trkpt>
      <trkpt lat="48.93123" lon="0.19578">
        <ele>104.53</ele>
        <time>2015-11-08T14:35:27Z</time>
      </trkpt>
      <trkpt lat="48.93119" lon="0.19577">
        <ele>105.13</ele>
        <time>2015-11-08T14:35:28Z</time>
      </trkpt>
      <trkpt lat="48.93115" lon="0.19575">
        <ele>105.73</ele>
        <time>2015-11-08T14:35:29Z</time>
      </trkpt>
      <trkpt lat="48.93111" lon="0.19574">
        <ele>106.28</ele>
        <time>2015-11-08T14:35:30Z</time>
      </trkpt>
      <trkpt lat="48.93108" lon="0.19571">
        <ele>106.19</ele>
        <time>2015-11-08T14:35:31Z</time>
      </trkpt>
      <trkpt lat="48.93104" lon="0.19569">
        <ele>106.12</ele>
        <time>2015-11-08T14:35:32Z</time>
      </trkpt>
      <trkpt lat="48.931" lon="0.19568">
        <ele>106.1</ele>
        <time>2015-11-08T14:35:33Z</time>
      </trkpt>
      <trkpt lat="48.93096" lon="0.19566">
        <ele>106.11</ele>
        <time>2015-11-08T14:35:34Z</time>
      </trkpt>
      <trkpt lat="48.93092" lon="0.19565">
        <ele>106.15</ele>
        <time>2015-11-08T14:35:35Z</time>
      </trkpt>
      <trkpt lat="48.93088" lon="0.19565">
        <ele>106.21</ele>
        <time>2015-11-08T14:35:36Z</time>
      </trkpt>
      <trkpt lat="48.93084" lon="0.19564">
        <ele>106.29</ele>
        <time>2015-11-08T14:35:37Z</time>
      </trkpt>
      <trkpt lat="48.93081" lon="0.19564">
        <ele>106.47</ele>
        <time>2015-11-08T14:35:38Z</time>
      </trkpt>
      <trkpt lat="48.93077" lon="0.19564">
        <ele>106.7</ele>
        <time>2015-11-08T14:35:39Z</time>
      </trkpt>
      <trkpt lat="48.93073" lon="0.19563">
        <ele>106.93</ele>
        <time>2015-11-08T14:35:40Z</time>
      </trkpt>
      <trkpt lat="48.93069" lon="0.19562">
        <ele>107.14</ele>
        <time>2015-11-08T14:35:41Z</time>
      </trkpt>
      <trkpt lat="48.93065" lon="0.19561">
        <ele>107.37</ele>
        <time>2015-11-08T14:35:42Z</time>
      </trkpt>
      <trkpt lat="48.93061" lon="0.1956">
        <ele>107.63</ele>
        <time>2015-11-08T14:35:43Z</time>
      </trkpt>
      <trkpt lat="48.93057" lon="0.1956">
        <ele>107.9</ele>
        <time>2015-11-08T14:35:44Z</time>
      </trkpt>
      <trkpt lat="48.93053" lon="0.19559">
        <ele>108</ele>
        <time>2015-11-08T14:35:45Z</time>
      </trkpt>
      <trkpt lat="48.93049" lon="0.19558">
        <ele>108</ele>
        <time>2015-11-08T14:35:46Z</time>
      </trkpt>
      <trkpt lat="48.93046" lon="0.19558">
        <ele>108</ele>
        <time>2015-11-08T14:35:47Z</time>
      </trkpt>
      <trkpt lat="48.93042" lon="0.19557">
        <ele>108</ele>
        <time>2015-11-08T14:35:48Z</time>
      </trkpt>
      <trkpt lat="48.93039" lon="0.19557">
        <ele>108</ele>
        <time>2015-11-08T14:35:49Z</time>
      </trkpt>
      <trkpt lat="48.93035" lon="0.19556">
        <ele>108</ele>
        <time>2015-11-08T14:35:50Z</time>
      </trkpt>
      <trkpt lat="48.93032" lon="0.19556">
        <ele>108</ele>
        <time>2015-11-08T14:35:51Z</time>
      </trkpt>
      <trkpt lat="48.93029" lon="0.19556">
        <ele>108</ele>
        <time>2015-11-08T14:35:52Z</time>
      </trkpt>
      <trkpt lat="48.93026" lon="0.19556">
        <ele>107.94</ele>
        <time>2015-11-08T14:35:53Z</time>
      </trkpt>
      <trkpt lat="48.93023" lon="0.19556">
        <ele>107.83</ele>
        <time>2015-11-08T14:35:54Z</time>
      </trkpt>
      <trkpt lat="48.9302" lon="0.19557">
        <ele>107.72</ele>
        <time>2015-11-08T14:35:55Z</time>
      </trkpt>
      <trkpt lat="48.93017" lon="0.19557">
        <ele>107.61</ele>
        <time>2015-11-08T14:35:56Z</time>
      </trkpt>
      <trkpt lat="48.93014" lon="0.19558">
        <ele>107.51</ele>
        <time>2015-11-08T14:35:57Z</time>
      </trkpt>
      <trkpt lat="48.9301" lon="0.19557">
        <ele>107.34</ele>
        <time>2015-11-08T14:35:59Z</time>
      </trkpt>
      <trkpt lat="48.93005" lon="0.19558">
        <ele>107.16</ele>
        <time>2015-11-08T14:36:01Z</time>
      </trkpt>
      <trkpt lat="48.93" lon="0.19559">
        <ele>107.05</ele>
        <time>2015-11-08T14:36:03Z</time>
      </trkpt>
      <trkpt lat="48.92994" lon="0.1956">
        <ele>107.63</ele>
        <time>2015-11-08T14:36:05Z</time>
      </trkpt>
      <trkpt lat="48.92989" lon="0.19558">
        <ele>108.18</ele>
        <time>2015-11-08T14:36:07Z</time>
      </trkpt>
      <trkpt lat="48.92984" lon="0.19559">
        <ele>108.76</ele>
        <time>2015-11-08T14:36:09Z</time>
      </trkpt>
      <trkpt lat="48.92979" lon="0.19559">
        <ele>109.37</ele>
        <time>2015-11-08T14:36:11Z</time>
      </trkpt>
      <trkpt lat="48.92974" lon="0.1956">
        <ele>109.99</ele>
        <time>2015-11-08T14:36:13Z</time>
      </trkpt>
      <trkpt lat="48.92969" lon="0.1956">
        <ele>110.52</ele>
        <time>2015-11-08T14:36:15Z</time>
      </trkpt>
      <trkpt lat="48.92964" lon="0.19562">
        <ele>110.98</ele>
        <time>2015-11-08T14:36:17Z</time>
      </trkpt>
      <trkpt lat="48.92959" lon="0.19562">
        <ele>111.43</ele>
        <time>2015-11-08T14:36:19Z</time>
      </trkpt>
      <trkpt lat="48.92954" lon="0.19564">
        <ele>111.86</ele>
        <time>2015-11-08T14:36:21Z</time>
      </trkpt>
      <trkpt lat="48.9295" lon="0.19566">
        <ele>112.2</ele>
        <time>2015-11-08T14:36:23Z</time>
      </trkpt>
      <trkpt lat="48.92946" lon="0.19568">
        <ele>112.46</ele>
        <time>2015-11-08T14:36:25Z</time>
      </trkpt>
      <trkpt lat="48.92944" lon="0.19574">
        <ele>112.36</ele>
        <time>2015-11-08T14:37:17Z</time>
      </trkpt>
      <trkpt lat="48.92944" lon="0.1958">
        <ele>112.13</ele>
        <time>2015-11-08T14:37:19Z</time>
      </trkpt>
      <trkpt lat="48.92944" lon="0.19588">
        <ele>112</ele>
        <time>2015-11-08T14:37:21Z</time>
      </trkpt>
      <trkpt lat="48.92945" lon="0.19593">
        <ele>111.99</ele>
        <time>2015-11-08T14:37:22Z</time>
      </trkpt>
      <trkpt lat="48.92945" lon="0.19598">
        <ele>111.99</ele>
        <time>2015-11-08T14:37:23Z</time>
      </trkpt>
      <trkpt lat="48.92944" lon="0.19603">
        <ele>112</ele>
        <time>2015-11-08T14:37:24Z</time>
      </trkpt>
      <trkpt lat="48.92943" lon="0.19608">
        <ele>111.92</ele>
        <time>2015-11-08T14:37:25Z</time>
      </trkpt>
      <trkpt lat="48.92941" lon="0.19613">
        <ele>111.62</ele>
        <time>2015-11-08T14:37:26Z</time>
      </trkpt>
      <trkpt lat="48.92938" lon="0.19618">
        <ele>111.15</ele>
        <time>2015-11-08T14:37:27Z</time>
      </trkpt>
      <trkpt lat="48.92936" lon="0.19623">
        <ele>110.78</ele>
        <time>2015-11-08T14:37:28Z</time>
      </trkpt>
      <trkpt lat="48.92933" lon="0.19627">
        <ele>110.48</ele>
        <time>2015-11-08T14:37:29Z</time>
      </trkpt>
      <trkpt lat="48.9293" lon="0.19632">
        <ele>110.25</ele>
        <time>2015-11-08T14:37:30Z</time>
      </trkpt>
      <trkpt lat="48.92927" lon="0.19636">
        <ele>110.08</ele>
        <time>2015-11-08T14:37:31Z</time>
      </trkpt>
      <trkpt lat="48.92925" lon="0.1964">
        <ele>110.07</ele>
        <time>2015-11-08T14:37:32Z</time>
      </trkpt>
      <trkpt lat="48.92922" lon="0.19644">
        <ele>110.26</ele>
        <time>2015-11-08T14:37:33Z</time>
      </trkpt>
      <trkpt lat="48.9292" lon="0.19648">
        <ele>110.39</ele>
        <time>2015-11-08T14:37:34Z</time>
      </trkpt>
      <trkpt lat="48.92917" lon="0.19651">
        <ele>110.45</ele>
        <time>2015-11-08T14:37:35Z</time>
      </trkpt>
      <trkpt lat="48.92915" lon="0.19654">
        <ele>110.57</ele>
        <time>2015-11-08T14:37:36Z</time>
      </trkpt>
      <trkpt lat="48.92912" lon="0.19657">
        <ele>110.69</ele>
        <time>2015-11-08T14:37:37Z</time>
      </trkpt>
      <trkpt lat="48.92908" lon="0.19662">
        <ele>110.88</ele>
        <time>2015-11-08T14:37:39Z</time>
      </trkpt>
      <trkpt lat="48.92906" lon="0.19665">
        <ele>110.97</ele>
        <time>2015-11-08T14:37:40Z</time>
      </trkpt>
      <trkpt lat="48.92904" lon="0.19669">
        <ele>111.04</ele>
        <time>2015-11-08T14:37:41Z</time>
      </trkpt>
      <trkpt lat="48.92902" lon="0.19672">
        <ele>111.1</ele>
        <time>2015-11-08T14:37:42Z</time>
      </trkpt>
      <trkpt lat="48.92899" lon="0.19676">
        <ele>111.13</ele>
        <time>2015-11-08T14:37:43Z</time>
      </trkpt>
      <trkpt lat="48.92897" lon="0.1968">
        <ele>111.15</ele>
        <time>2015-11-08T14:37:44Z</time>
      </trkpt>
      <trkpt lat="48.92895" lon="0.19684">
        <ele>111.14</ele>
        <time>2015-11-08T14:37:45Z</time>
      </trkpt>
      <trkpt lat="48.92893" lon="0.19688">
        <ele>111.12</ele>
        <time>2015-11-08T14:37:46Z</time>
      </trkpt>
      <trkpt lat="48.92892" lon="0.19691">
        <ele>111.09</ele>
        <time>2015-11-08T14:37:47Z</time>
      </trkpt>
      <trkpt lat="48.92891" lon="0.19695">
        <ele>111.07</ele>
        <time>2015-11-08T14:37:48Z</time>
      </trkpt>
      <trkpt lat="48.9289" lon="0.197">
        <ele>111.07</ele>
        <time>2015-11-08T14:37:49Z</time>
      </trkpt>
      <trkpt lat="48.92891" lon="0.19704">
        <ele>111.1</ele>
        <time>2015-11-08T14:37:50Z</time>
      </trkpt>
      <trkpt lat="48.92891" lon="0.19708">
        <ele>111.17</ele>
        <time>2015-11-08T14:37:51Z</time>
      </trkpt>
      <trkpt lat="48.92894" lon="0.19715">
        <ele>111.49</ele>
        <time>2015-11-08T14:37:53Z</time>
      </trkpt>
      <trkpt lat="48.92897" lon="0.19717">
        <ele>111.77</ele>
        <time>2015-11-08T14:37:54Z</time>
      </trkpt>
      <trkpt lat="48.929" lon="0.19718">
        <ele>112.08</ele>
        <time>2015-11-08T14:37:55Z</time>
      </trkpt>
      <trkpt lat="48.92903" lon="0.19716">
        <ele>112.28</ele>
        <time>2015-11-08T14:37:56Z</time>
      </trkpt>
      <trkpt lat="48.92905" lon="0.19711">
        <ele>112.29</ele>
        <time>2015-11-08T14:37:58Z</time>
      </trkpt>
      <trkpt lat="48.92903" lon="0.19707">
        <ele>111.94</ele>
        <time>2015-11-08T14:38:11Z</time>
      </trkpt>
      <trkpt lat="48.92902" lon="0.19703">
        <ele>111.75</ele>
        <time>2015-11-08T14:38:14Z</time>
      </trkpt>
      <trkpt lat="48.92899" lon="0.19702">
        <ele>111.56</ele>
        <time>2015-11-08T14:38:48Z</time>
      </trkpt>
      <trkpt lat="48.92897" lon="0.19699">
        <ele>111.39</ele>
        <time>2015-11-08T14:44:51Z</time>
      </trkpt>
      <trkpt lat="48.92895" lon="0.19702">
        <ele>111.32</ele>
        <time>2015-11-08T14:45:05Z</time>
      </trkpt>
      <trkpt lat="48.92892" lon="0.19705">
        <ele>111.19</ele>
        <time>2015-11-08T14:45:07Z</time>
      </trkpt>
      <trkpt lat="48.92889" lon="0.19709">
        <ele>110.97</ele>
        <time>2015-11-08T14:45:09Z</time>
      </trkpt>
      <trkpt lat="48.92885" lon="0.19714">
        <ele>110.64</ele>
        <time>2015-11-08T14:45:11Z</time>
      </trkpt>
      <trkpt lat="48.92881" lon="0.19719">
        <ele>110.22</ele>
        <time>2015-11-08T14:45:13Z</time>
      </trkpt>
      <trkpt lat="48.92877" lon="0.19723">
        <ele>109.69</ele>
        <time>2015-11-08T14:45:15Z</time>
      </trkpt>
      <trkpt lat="48.92873" lon="0.19726">
        <ele>109.01</ele>
        <time>2015-11-08T14:45:17Z</time>
      </trkpt>
      <trkpt lat="48.92869" lon="0.19729">
        <ele>108.36</ele>
        <time>2015-11-08T14:45:19Z</time>
      </trkpt>
      <trkpt lat="48.92865" lon="0.19732">
        <ele>107.71</ele>
        <time>2015-11-08T14:45:21Z</time>
      </trkpt>
      <trkpt lat="48.92861" lon="0.19735">
        <ele>107.12</ele>
        <time>2015-11-08T14:45:23Z</time>
      </trkpt>
      <trkpt lat="48.92857" lon="0.19737">
        <ele>107.37</ele>
        <time>2015-11-08T14:45:25Z</time>
      </trkpt>
      <trkpt lat="48.92852" lon="0.1974">
        <ele>107.47</ele>
        <time>2015-11-08T14:45:27Z</time>
      </trkpt>
      <trkpt lat="48.92848" lon="0.19744">
        <ele>107.49</ele>
        <time>2015-11-08T14:45:29Z</time>
      </trkpt>
      <trkpt lat="48.92843" lon="0.19747">
        <ele>107.59</ele>
        <time>2015-11-08T14:45:31Z</time>
      </trkpt>
      <trkpt lat="48.92839" lon="0.19749">
        <ele>107.74</ele>
        <time>2015-11-08T14:45:33Z</time>
      </trkpt>
      <trkpt lat="48.92835" lon="0.19751">
        <ele>107.85</ele>
        <time>2015-11-08T14:45:35Z</time>
      </trkpt>
      <trkpt lat="48.92831" lon="0.19754">
        <ele>107.95</ele>
        <time>2015-11-08T14:45:37Z</time>
      </trkpt>
      <trkpt lat="48.92828" lon="0.19756">
        <ele>108</ele>
        <time>2015-11-08T14:45:39Z</time>
      </trkpt>
      <trkpt lat="48.92825" lon="0.19758">
        <ele>107.99</ele>
        <time>2015-11-08T14:45:41Z</time>
      </trkpt>
      <trkpt lat="48.92822" lon="0.19758">
        <ele>108.04</ele>
        <time>2015-11-08T14:45:43Z</time>
      </trkpt>
      <trkpt lat="48.92819" lon="0.19758">
        <ele>108.1</ele>
        <time>2015-11-08T14:45:45Z</time>
      </trkpt>
      <trkpt lat="48.92817" lon="0.1976">
        <ele>107.96</ele>
        <time>2015-11-08T14:45:47Z</time>
      </trkpt>
      <trkpt lat="48.92814" lon="0.19764">
        <ele>107.54</ele>
        <time>2015-11-08T14:45:49Z</time>
      </trkpt>
      <trkpt lat="48.92812" lon="0.19767">
        <ele>107.04</ele>
        <time>2015-11-08T14:45:51Z</time>
      </trkpt>
      <trkpt lat="48.92808" lon="0.19769">
        <ele>106.58</ele>
        <time>2015-11-08T14:45:53Z</time>
      </trkpt>
      <trkpt lat="48.92804" lon="0.19772">
        <ele>106.29</ele>
        <time>2015-11-08T14:45:55Z</time>
      </trkpt>
      <trkpt lat="48.928" lon="0.19774">
        <ele>106.69</ele>
        <time>2015-11-08T14:45:57Z</time>
      </trkpt>
      <trkpt lat="48.92796" lon="0.19776">
        <ele>107.29</ele>
        <time>2015-11-08T14:45:59Z</time>
      </trkpt>
      <trkpt lat="48.92792" lon="0.19779">
        <ele>107.83</ele>
        <time>2015-11-08T14:46:01Z</time>
      </trkpt>
      <trkpt lat="48.92788" lon="0.19785">
        <ele>108.47</ele>
        <time>2015-11-08T14:46:03Z</time>
      </trkpt>
      <trkpt lat="48.92785" lon="0.19787">
        <ele>108.84</ele>
        <time>2015-11-08T14:46:04Z</time>
      </trkpt>
      <trkpt lat="48.92782" lon="0.19789">
        <ele>109.25</ele>
        <time>2015-11-08T14:46:05Z</time>
      </trkpt>
      <trkpt lat="48.92777" lon="0.19792">
        <ele>110.08</ele>
        <time>2015-11-08T14:46:07Z</time>
      </trkpt>
      <trkpt lat="48.92773" lon="0.19794">
        <ele>110.75</ele>
        <time>2015-11-08T14:46:09Z</time>
      </trkpt>
      <trkpt lat="48.92768" lon="0.19797">
        <ele>111.37</ele>
        <time>2015-11-08T14:46:11Z</time>
      </trkpt>
      <trkpt lat="48.92764" lon="0.198">
        <ele>111.99</ele>
        <time>2015-11-08T14:46:13Z</time>
      </trkpt>
      <trkpt lat="48.92759" lon="0.19802">
        <ele>112.65</ele>
        <time>2015-11-08T14:46:15Z</time>
      </trkpt>
      <trkpt lat="48.92755" lon="0.19803">
        <ele>113.3</ele>
        <time>2015-11-08T14:46:17Z</time>
      </trkpt>
      <trkpt lat="48.92752" lon="0.198">
        <ele>114.1</ele>
        <time>2015-11-08T14:46:19Z</time>
      </trkpt>
      <trkpt lat="48.92749" lon="0.19795">
        <ele>114.82</ele>
        <time>2015-11-08T14:46:21Z</time>
      </trkpt>
      <trkpt lat="48.92749" lon="0.19788">
        <ele>115.35</ele>
        <time>2015-11-08T14:46:23Z</time>
      </trkpt>
      <trkpt lat="48.92749" lon="0.1978">
        <ele>115.93</ele>
        <time>2015-11-08T14:46:25Z</time>
      </trkpt>
      <trkpt lat="48.92748" lon="0.19776">
        <ele>115.93</ele>
        <time>2015-11-08T14:46:26Z</time>
      </trkpt>
      <trkpt lat="48.92748" lon="0.19768">
        <ele>115.14</ele>
        <time>2015-11-08T14:46:28Z</time>
      </trkpt>
      <trkpt lat="48.92746" lon="0.19761">
        <ele>114.47</ele>
        <time>2015-11-08T14:46:30Z</time>
      </trkpt>
      <trkpt lat="48.92745" lon="0.19753">
        <ele>113.69</ele>
        <time>2015-11-08T14:46:32Z</time>
      </trkpt>
      <trkpt lat="48.92744" lon="0.19746">
        <ele>113.17</ele>
        <time>2015-11-08T14:46:34Z</time>
      </trkpt>
      <trkpt lat="48.92742" lon="0.19739">
        <ele>112.82</ele>
        <time>2015-11-08T14:46:36Z</time>
      </trkpt>
      <trkpt lat="48.92739" lon="0.19732">
        <ele>112.4</ele>
        <time>2015-11-08T14:46:38Z</time>
      </trkpt>
      <trkpt lat="48.92737" lon="0.19726">
        <ele>111.85</ele>
        <time>2015-11-08T14:46:40Z</time>
      </trkpt>
      <trkpt lat="48.92736" lon="0.19719">
        <ele>111.48</ele>
        <time>2015-11-08T14:46:42Z</time>
      </trkpt>
      <trkpt lat="48.92733" lon="0.19713">
        <ele>111.47</ele>
        <time>2015-11-08T14:46:44Z</time>
      </trkpt>
      <trkpt lat="48.92732" lon="0.19706">
        <ele>111.53</ele>
        <time>2015-11-08T14:46:46Z</time>
      </trkpt>
      <trkpt lat="48.92731" lon="0.19699">
        <ele>111.61</ele>
        <time>2015-11-08T14:46:48Z</time>
      </trkpt>
      <trkpt lat="48.9273" lon="0.19693">
        <ele>111.75</ele>
        <time>2015-11-08T14:46:50Z</time>
      </trkpt>
      <trkpt lat="48.92728" lon="0.19688">
        <ele>111.94</ele>
        <time>2015-11-08T14:46:52Z</time>
      </trkpt>
      <trkpt lat="48.92726" lon="0.19682">
        <ele>112.04</ele>
        <time>2015-11-08T14:46:54Z</time>
      </trkpt>
      <trkpt lat="48.92723" lon="0.19678">
        <ele>112.01</ele>
        <time>2015-11-08T14:46:56Z</time>
      </trkpt>
      <trkpt lat="48.9272" lon="0.19672">
        <ele>111.85</ele>
        <time>2015-11-08T14:46:58Z</time>
      </trkpt>
      <trkpt lat="48.92717" lon="0.19668">
        <ele>111.63</ele>
        <time>2015-11-08T14:47:00Z</time>
      </trkpt>
      <trkpt lat="48.92715" lon="0.19662">
        <ele>111.22</ele>
        <time>2015-11-08T14:47:02Z</time>
      </trkpt>
      <trkpt lat="48.92713" lon="0.19656">
        <ele>110.82</ele>
        <time>2015-11-08T14:47:04Z</time>
      </trkpt>
      <trkpt lat="48.92709" lon="0.19652">
        <ele>110.5</ele>
        <time>2015-11-08T14:47:06Z</time>
      </trkpt>
      <trkpt lat="48.92707" lon="0.19646">
        <ele>110.24</ele>
        <time>2015-11-08T14:47:08Z</time>
      </trkpt>
      <trkpt lat="48.92704" lon="0.19641">
        <ele>110.06</ele>
        <time>2015-11-08T14:47:10Z</time>
      </trkpt>
      <trkpt lat="48.92701" lon="0.19637">
        <ele>110.07</ele>
        <time>2015-11-08T14:47:12Z</time>
      </trkpt>
      <trkpt lat="48.92698" lon="0.19631">
        <ele>110.28</ele>
        <time>2015-11-08T14:47:14Z</time>
      </trkpt>
      <trkpt lat="48.92696" lon="0.19625">
        <ele>110.49</ele>
        <time>2015-11-08T14:47:16Z</time>
      </trkpt>
      <trkpt lat="48.92694" lon="0.19619">
        <ele>110.8</ele>
        <time>2015-11-08T14:47:18Z</time>
      </trkpt>
      <trkpt lat="48.92692" lon="0.19613">
        <ele>111.39</ele>
        <time>2015-11-08T14:47:20Z</time>
      </trkpt>
      <trkpt lat="48.92689" lon="0.19607">
        <ele>112.05</ele>
        <time>2015-11-08T14:47:22Z</time>
      </trkpt>
      <trkpt lat="48.92687" lon="0.19601">
        <ele>112.75</ele>
        <time>2015-11-08T14:47:24Z</time>
      </trkpt>
      <trkpt lat="48.92685" lon="0.19595">
        <ele>113.37</ele>
        <time>2015-11-08T14:47:26Z</time>
      </trkpt>
      <trkpt lat="48.92683" lon="0.19589">
        <ele>113.86</ele>
        <time>2015-11-08T14:47:28Z</time>
      </trkpt>
      <trkpt lat="48.92682" lon="0.19583">
        <ele>114.31</ele>
        <time>2015-11-08T14:47:30Z</time>
      </trkpt>
      <trkpt lat="48.92683" lon="0.19577">
        <ele>114.6</ele>
        <time>2015-11-08T14:47:32Z</time>
      </trkpt>
      <trkpt lat="48.92687" lon="0.19572">
        <ele>114.32</ele>
        <time>2015-11-08T14:47:34Z</time>
      </trkpt>
      <trkpt lat="48.92691" lon="0.19568">
        <ele>113.84</ele>
        <time>2015-11-08T14:47:36Z</time>
      </trkpt>
      <trkpt lat="48.92695" lon="0.19565">
        <ele>113.33</ele>
        <time>2015-11-08T14:47:38Z</time>
      </trkpt>
      <trkpt lat="48.927" lon="0.19562">
        <ele>113.47</ele>
        <time>2015-11-08T14:47:40Z</time>
      </trkpt>
      <trkpt lat="48.92704" lon="0.19559">
        <ele>113.7</ele>
        <time>2015-11-08T14:47:42Z</time>
      </trkpt>
      <trkpt lat="48.92709" lon="0.19556">
        <ele>113.92</ele>
        <time>2015-11-08T14:47:44Z</time>
      </trkpt>
      <trkpt lat="48.92714" lon="0.19554">
        <ele>114.07</ele>
        <time>2015-11-08T14:47:46Z</time>
      </trkpt>
      <trkpt lat="48.92719" lon="0.19551">
        <ele>114.19</ele>
        <time>2015-11-08T14:47:48Z</time>
      </trkpt>
      <trkpt lat="48.92723" lon="0.19548">
        <ele>114.19</ele>
        <time>2015-11-08T14:47:50Z</time>
      </trkpt>
      <trkpt lat="48.92727" lon="0.19547">
        <ele>113.84</ele>
        <time>2015-11-08T14:47:52Z</time>
      </trkpt>
      <trkpt lat="48.92731" lon="0.19544">
        <ele>113.48</ele>
        <time>2015-11-08T14:47:54Z</time>
      </trkpt>
      <trkpt lat="48.92735" lon="0.19542">
        <ele>113.08</ele>
        <time>2015-11-08T14:47:56Z</time>
      </trkpt>
      <trkpt lat="48.9274" lon="0.19539">
        <ele>112.61</ele>
        <time>2015-11-08T14:47:58Z</time>
      </trkpt>
      <trkpt lat="48.92743" lon="0.19537">
        <ele>112.14</ele>
        <time>2015-11-08T14:48:00Z</time>
      </trkpt>
      <trkpt lat="48.92747" lon="0.19534">
        <ele>111.58</ele>
        <time>2015-11-08T14:48:02Z</time>
      </trkpt>
      <trkpt lat="48.92752" lon="0.19533">
        <ele>111.27</ele>
        <time>2015-11-08T14:48:04Z</time>
      </trkpt>
      <trkpt lat="48.92756" lon="0.1953">
        <ele>111.49</ele>
        <time>2015-11-08T14:48:06Z</time>
      </trkpt>
      <trkpt lat="48.9276" lon="0.19527">
        <ele>111.73</ele>
        <time>2015-11-08T14:48:08Z</time>
      </trkpt>
      <trkpt lat="48.92764" lon="0.19525">
        <ele>112.04</ele>
        <time>2015-11-08T14:48:10Z</time>
      </trkpt>
      <trkpt lat="48.92766" lon="0.19521">
        <ele>112.29</ele>
        <time>2015-11-08T14:48:12Z</time>
      </trkpt>
      <trkpt lat="48.92767" lon="0.19514">
        <ele>112.39</ele>
        <time>2015-11-08T14:48:14Z</time>
      </trkpt>
      <trkpt lat="48.92765" lon="0.19508">
        <ele>112.4</ele>
        <time>2015-11-08T14:48:16Z</time>
      </trkpt>
      <trkpt lat="48.92762" lon="0.19502">
        <ele>112.39</ele>
        <time>2015-11-08T14:48:18Z</time>
      </trkpt>
      <trkpt lat="48.92759" lon="0.19497">
        <ele>112.42</ele>
        <time>2015-11-08T14:48:20Z</time>
      </trkpt>
      <trkpt lat="48.92758" lon="0.1949">
        <ele>112.53</ele>
        <time>2015-11-08T14:48:22Z</time>
      </trkpt>
      <trkpt lat="48.92756" lon="0.19484">
        <ele>112.67</ele>
        <time>2015-11-08T14:48:24Z</time>
      </trkpt>
      <trkpt lat="48.92755" lon="0.19477">
        <ele>112.85</ele>
        <time>2015-11-08T14:48:26Z</time>
      </trkpt>
      <trkpt lat="48.92754" lon="0.1947">
        <ele>113.05</ele>
        <time>2015-11-08T14:48:28Z</time>
      </trkpt>
      <trkpt lat="48.92752" lon="0.19464">
        <ele>113.28</ele>
        <time>2015-11-08T14:48:30Z</time>
      </trkpt>
      <trkpt lat="48.92749" lon="0.19458">
        <ele>113.57</ele>
        <time>2015-11-08T14:48:32Z</time>
      </trkpt>
      <trkpt lat="48.92746" lon="0.19453">
        <ele>113.83</ele>
        <time>2015-11-08T14:48:34Z</time>
      </trkpt>
      <trkpt lat="48.92745" lon="0.19446">
        <ele>113.97</ele>
        <time>2015-11-08T14:48:36Z</time>
      </trkpt>
      <trkpt lat="48.92744" lon="0.1944">
        <ele>113.97</ele>
        <time>2015-11-08T14:48:38Z</time>
      </trkpt>
      <trkpt lat="48.92744" lon="0.19433">
        <ele>113.91</ele>
        <time>2015-11-08T14:48:40Z</time>
      </trkpt>
      <trkpt lat="48.92746" lon="0.19426">
        <ele>113.89</ele>
        <time>2015-11-08T14:48:42Z</time>
      </trkpt>
      <trkpt lat="48.92749" lon="0.19419">
        <ele>113.96</ele>
        <time>2015-11-08T14:48:44Z</time>
      </trkpt>
      <trkpt lat="48.92754" lon="0.19415">
        <ele>114.34</ele>
        <time>2015-11-08T14:48:46Z</time>
      </trkpt>
      <trkpt lat="48.92756" lon="0.19414">
        <ele>114.69</ele>
        <time>2015-11-08T14:48:47Z</time>
      </trkpt>
      <trkpt lat="48.92761" lon="0.19411">
        <ele>115.35</ele>
        <time>2015-11-08T14:48:49Z</time>
      </trkpt>
      <trkpt lat="48.92764" lon="0.19406">
        <ele>116.17</ele>
        <time>2015-11-08T14:48:51Z</time>
      </trkpt>
      <trkpt lat="48.92767" lon="0.19402">
        <ele>117.03</ele>
        <time>2015-11-08T14:48:53Z</time>
      </trkpt>
      <trkpt lat="48.9277" lon="0.19398">
        <ele>117.97</ele>
        <time>2015-11-08T14:48:55Z</time>
      </trkpt>
      <trkpt lat="48.92773" lon="0.19393">
        <ele>118.9</ele>
        <time>2015-11-08T14:48:57Z</time>
      </trkpt>
      <trkpt lat="48.92776" lon="0.1939">
        <ele>119.59</ele>
        <time>2015-11-08T14:49:10Z</time>
      </trkpt>
      <trkpt lat="48.92778" lon="0.19387">
        <ele>120.24</ele>
        <time>2015-11-08T14:49:13Z</time>
      </trkpt>
      <trkpt lat="48.9278" lon="0.19384">
        <ele>120.4</ele>
        <time>2015-11-08T14:49:15Z</time>
      </trkpt>
      <trkpt lat="48.92783" lon="0.1938">
        <ele>120.82</ele>
        <time>2015-11-08T14:49:17Z</time>
      </trkpt>
      <trkpt lat="48.92786" lon="0.19376">
        <ele>121.18</ele>
        <time>2015-11-08T14:49:19Z</time>
      </trkpt>
      <trkpt lat="48.9279" lon="0.19373">
        <ele>121.43</ele>
        <time>2015-11-08T14:49:21Z</time>
      </trkpt>
      <trkpt lat="48.92795" lon="0.19372">
        <ele>121.45</ele>
        <time>2015-11-08T14:49:23Z</time>
      </trkpt>
      <trkpt lat="48.92799" lon="0.1937">
        <ele>121.39</ele>
        <time>2015-11-08T14:49:25Z</time>
      </trkpt>
      <trkpt lat="48.92803" lon="0.1937">
        <ele>121.3</ele>
        <time>2015-11-08T14:49:27Z</time>
      </trkpt>
      <trkpt lat="48.92807" lon="0.19369">
        <ele>121.41</ele>
        <time>2015-11-08T14:49:29Z</time>
      </trkpt>
      <trkpt lat="48.9281" lon="0.19365">
        <ele>122.25</ele>
        <time>2015-11-08T14:49:31Z</time>
      </trkpt>
      <trkpt lat="48.92812" lon="0.1936">
        <ele>123.44</ele>
        <time>2015-11-08T14:49:33Z</time>
      </trkpt>
      <trkpt lat="48.92815" lon="0.19355">
        <ele>124.33</ele>
        <time>2015-11-08T14:49:35Z</time>
      </trkpt>
      <trkpt lat="48.92817" lon="0.19351">
        <ele>125.1</ele>
        <time>2015-11-08T14:49:37Z</time>
      </trkpt>
      <trkpt lat="48.92819" lon="0.19347">
        <ele>125.94</ele>
        <time>2015-11-08T14:49:39Z</time>
      </trkpt>
      <trkpt lat="48.92821" lon="0.19343">
        <ele>126.88</ele>
        <time>2015-11-08T14:49:41Z</time>
      </trkpt>
      <trkpt lat="48.92823" lon="0.19338">
        <ele>127.92</ele>
        <time>2015-11-08T14:49:43Z</time>
      </trkpt>
      <trkpt lat="48.92825" lon="0.19334">
        <ele>128.98</ele>
        <time>2015-11-08T14:49:45Z</time>
      </trkpt>
      <trkpt lat="48.92827" lon="0.1933">
        <ele>129.74</ele>
        <time>2015-11-08T14:49:47Z</time>
      </trkpt>
      <trkpt lat="48.9283" lon="0.19329">
        <ele>130.21</ele>
        <time>2015-11-08T14:49:49Z</time>
      </trkpt>
      <trkpt lat="48.92833" lon="0.19325">
        <ele>130.92</ele>
        <time>2015-11-08T14:49:52Z</time>
      </trkpt>
      <trkpt lat="48.92833" lon="0.1932">
        <ele>131.41</ele>
        <time>2015-11-08T14:49:54Z</time>
      </trkpt>
      <trkpt lat="48.92834" lon="0.19316">
        <ele>131.76</ele>
        <time>2015-11-08T14:49:56Z</time>
      </trkpt>
      <trkpt lat="48.92837" lon="0.19313">
        <ele>131.83</ele>
        <time>2015-11-08T14:49:59Z</time>
      </trkpt>
      <trkpt lat="48.9284" lon="0.19309">
        <ele>132.11</ele>
        <time>2015-11-08T14:50:02Z</time>
      </trkpt>
      <trkpt lat="48.9284" lon="0.19304">
        <ele>132.8</ele>
        <time>2015-11-08T14:50:04Z</time>
      </trkpt>
      <trkpt lat="48.9284" lon="0.193">
        <ele>133.57</ele>
        <time>2015-11-08T14:50:06Z</time>
      </trkpt>
      <trkpt lat="48.9284" lon="0.19296">
        <ele>134.29</ele>
        <time>2015-11-08T14:50:08Z</time>
      </trkpt>
      <trkpt lat="48.92841" lon="0.19292">
        <ele>135.04</ele>
        <time>2015-11-08T14:50:10Z</time>
      </trkpt>
      <trkpt lat="48.9284" lon="0.19288">
        <ele>135.83</ele>
        <time>2015-11-08T14:50:12Z</time>
      </trkpt>
      <trkpt lat="48.9284" lon="0.19283">
        <ele>136.83</ele>
        <time>2015-11-08T14:50:15Z</time>
      </trkpt>
      <trkpt lat="48.9284" lon="0.19279">
        <ele>137.56</ele>
        <time>2015-11-08T14:50:17Z</time>
      </trkpt>
      <trkpt lat="48.9284" lon="0.19274">
        <ele>138.25</ele>
        <time>2015-11-08T14:50:19Z</time>
      </trkpt>
      <trkpt lat="48.92842" lon="0.1927">
        <ele>138.8</ele>
        <time>2015-11-08T14:50:29Z</time>
      </trkpt>
      <trkpt lat="48.92841" lon="0.19264">
        <ele>139.51</ele>
        <time>2015-11-08T14:50:33Z</time>
      </trkpt>
      <trkpt lat="48.92843" lon="0.1926">
        <ele>140.07</ele>
        <time>2015-11-08T14:50:37Z</time>
      </trkpt>
      <trkpt lat="48.92844" lon="0.19256">
        <ele>140.52</ele>
        <time>2015-11-08T14:50:40Z</time>
      </trkpt>
      <trkpt lat="48.92844" lon="0.19251">
        <ele>141.1</ele>
        <time>2015-11-08T14:50:43Z</time>
      </trkpt>
      <trkpt lat="48.92844" lon="0.19246">
        <ele>141.55</ele>
        <time>2015-11-08T14:50:46Z</time>
      </trkpt>
      <trkpt lat="48.92844" lon="0.19242">
        <ele>141.94</ele>
        <time>2015-11-08T14:50:49Z</time>
      </trkpt>
      <trkpt lat="48.92842" lon="0.19238">
        <ele>142.34</ele>
        <time>2015-11-08T14:51:01Z</time>
      </trkpt>
      <trkpt lat="48.92843" lon="0.19233">
        <ele>142.69</ele>
        <time>2015-11-08T14:51:17Z</time>
      </trkpt>
      <trkpt lat="48.92843" lon="0.19229">
        <ele>143.1</ele>
        <time>2015-11-08T14:51:22Z</time>
      </trkpt>
      <trkpt lat="48.92844" lon="0.19224">
        <ele>143.42</ele>
        <time>2015-11-08T14:51:25Z</time>
      </trkpt>
      <trkpt lat="48.92845" lon="0.1922">
        <ele>143.79</ele>
        <time>2015-11-08T14:51:29Z</time>
      </trkpt>
      <trkpt lat="48.92846" lon="0.19215">
        <ele>144.17</ele>
        <time>2015-11-08T14:51:34Z</time>
      </trkpt>
      <trkpt lat="48.92846" lon="0.19211">
        <ele>144.57</ele>
        <time>2015-11-08T14:51:38Z</time>
      </trkpt>
      <trkpt lat="48.92847" lon="0.19207">
        <ele>144.91</ele>
        <time>2015-11-08T14:51:43Z</time>
      </trkpt>
      <trkpt lat="48.92847" lon="0.19202">
        <ele>145.33</ele>
        <time>2015-11-08T14:51:47Z</time>
      </trkpt>
      <trkpt lat="48.92848" lon="0.19197">
        <ele>145.71</ele>
        <time>2015-11-08T14:51:52Z</time>
      </trkpt>
      <trkpt lat="48.92848" lon="0.19192">
        <ele>146.17</ele>
        <time>2015-11-08T14:51:57Z</time>
      </trkpt>
      <trkpt lat="48.92848" lon="0.19188">
        <ele>146.65</ele>
        <time>2015-11-08T14:52:02Z</time>
      </trkpt>
      <trkpt lat="48.92849" lon="0.19183">
        <ele>147.13</ele>
        <time>2015-11-08T14:52:07Z</time>
      </trkpt>
      <trkpt lat="48.92848" lon="0.19179">
        <ele>147.63</ele>
        <time>2015-11-08T14:52:12Z</time>
      </trkpt>
      <trkpt lat="48.92845" lon="0.19176">
        <ele>148.1</ele>
        <time>2015-11-08T14:52:55Z</time>
      </trkpt>
      <trkpt lat="48.92845" lon="0.19171">
        <ele>148.62</ele>
        <time>2015-11-08T14:52:59Z</time>
      </trkpt>
      <trkpt lat="48.92845" lon="0.19166">
        <ele>149.21</ele>
        <time>2015-11-08T14:53:03Z</time>
      </trkpt>
      <trkpt lat="48.92845" lon="0.19162">
        <ele>149.78</ele>
        <time>2015-11-08T14:53:06Z</time>
      </trkpt>
      <trkpt lat="48.92845" lon="0.19156">
        <ele>150.45</ele>
        <time>2015-11-08T14:53:10Z</time>
      </trkpt>
      <trkpt lat="48.92844" lon="0.19152">
        <ele>151</ele>
        <time>2015-11-08T14:53:14Z</time>
      </trkpt>
      <trkpt lat="48.92844" lon="0.19147">
        <ele>151.58</ele>
        <time>2015-11-08T14:53:18Z</time>
      </trkpt>
      <trkpt lat="48.92844" lon="0.19143">
        <ele>152.11</ele>
        <time>2015-11-08T14:53:21Z</time>
      </trkpt>
      <trkpt lat="48.92844" lon="0.19139">
        <ele>152.62</ele>
        <time>2015-11-08T14:53:24Z</time>
      </trkpt>
      <trkpt lat="48.92844" lon="0.19134">
        <ele>153.32</ele>
        <time>2015-11-08T14:53:27Z</time>
      </trkpt>
      <trkpt lat="48.92845" lon="0.1913">
        <ele>153.96</ele>
        <time>2015-11-08T14:53:30Z</time>
      </trkpt>
      <trkpt lat="48.92845" lon="0.19125">
        <ele>154.77</ele>
        <time>2015-11-08T14:53:34Z</time>
      </trkpt>
      <trkpt lat="48.92846" lon="0.19121">
        <ele>155.43</ele>
        <time>2015-11-08T14:53:37Z</time>
      </trkpt>
      <trkpt lat="48.92845" lon="0.19116">
        <ele>156.16</ele>
        <time>2015-11-08T14:53:40Z</time>
      </trkpt>
      <trkpt lat="48.92845" lon="0.19111">
        <ele>156.98</ele>
        <time>2015-11-08T14:53:44Z</time>
      </trkpt>
      <trkpt lat="48.92844" lon="0.19106">
        <ele>157.95</ele>
        <time>2015-11-08T14:53:48Z</time>
      </trkpt>
      <trkpt lat="48.92843" lon="0.19102">
        <ele>158.81</ele>
        <time>2015-11-08T14:53:53Z</time>
      </trkpt>
      <trkpt lat="48.92842" lon="0.19097">
        <ele>159.68</ele>
        <time>2015-11-08T14:53:58Z</time>
      </trkpt>
      <trkpt lat="48.9284" lon="0.19093">
        <ele>160.54</ele>
        <time>2015-11-08T14:54:03Z</time>
      </trkpt>
      <trkpt lat="48.92841" lon="0.19089">
        <ele>161.36</ele>
        <time>2015-11-08T14:54:08Z</time>
      </trkpt>
      <trkpt lat="48.92843" lon="0.19084">
        <ele>162.21</ele>
        <time>2015-11-08T14:54:12Z</time>
      </trkpt>
      <trkpt lat="48.92844" lon="0.19081">
        <ele>162.53</ele>
        <time>2015-11-08T14:54:15Z</time>
      </trkpt>
      <trkpt lat="48.92845" lon="0.19076">
        <ele>162.99</ele>
        <time>2015-11-08T14:54:19Z</time>
      </trkpt>
      <trkpt lat="48.92847" lon="0.19071">
        <ele>163.55</ele>
        <time>2015-11-08T14:54:23Z</time>
      </trkpt>
      <trkpt lat="48.92848" lon="0.19067">
        <ele>164.09</ele>
        <time>2015-11-08T14:54:26Z</time>
      </trkpt>
      <trkpt lat="48.92849" lon="0.19062">
        <ele>164.64</ele>
        <time>2015-11-08T14:54:30Z</time>
      </trkpt>
      <trkpt lat="48.9285" lon="0.19057">
        <ele>165.18</ele>
        <time>2015-11-08T14:54:34Z</time>
      </trkpt>
      <trkpt lat="48.9285" lon="0.19053">
        <ele>165.82</ele>
        <time>2015-11-08T14:54:43Z</time>
      </trkpt>
      <trkpt lat="48.92851" lon="0.19048">
        <ele>166.48</ele>
        <time>2015-11-08T14:54:47Z</time>
      </trkpt>
      <trkpt lat="48.92851" lon="0.19044">
        <ele>167.18</ele>
        <time>2015-11-08T14:54:50Z</time>
      </trkpt>
      <trkpt lat="48.92852" lon="0.19039">
        <ele>167.99</ele>
        <time>2015-11-08T14:54:54Z</time>
      </trkpt>
      <trkpt lat="48.92852" lon="0.19034">
        <ele>168.65</ele>
        <time>2015-11-08T14:54:57Z</time>
      </trkpt>
      <trkpt lat="48.92853" lon="0.1903">
        <ele>169.32</ele>
        <time>2015-11-08T14:55:01Z</time>
      </trkpt>
      <trkpt lat="48.92854" lon="0.19026">
        <ele>170.23</ele>
        <time>2015-11-08T14:55:05Z</time>
      </trkpt>
      <trkpt lat="48.92854" lon="0.19021">
        <ele>171.13</ele>
        <time>2015-11-08T14:55:10Z</time>
      </trkpt>
      <trkpt lat="48.92853" lon="0.19017">
        <ele>172.1</ele>
        <time>2015-11-08T14:55:14Z</time>
      </trkpt>
      <trkpt lat="48.92853" lon="0.19012">
        <ele>173.2</ele>
        <time>2015-11-08T14:55:18Z</time>
      </trkpt>
      <trkpt lat="48.92852" lon="0.19007">
        <ele>174.19</ele>
        <time>2015-11-08T14:55:22Z</time>
      </trkpt>
      <trkpt lat="48.92852" lon="0.19002">
        <ele>175.16</ele>
        <time>2015-11-08T14:55:26Z</time>
      </trkpt>
      <trkpt lat="48.92851" lon="0.18998">
        <ele>176.08</ele>
        <time>2015-11-08T14:55:31Z</time>
      </trkpt>
      <trkpt lat="48.9285" lon="0.18993">
        <ele>176.86</ele>
        <time>2015-11-08T14:55:35Z</time>
      </trkpt>
      <trkpt lat="48.92849" lon="0.18989">
        <ele>177.52</ele>
        <time>2015-11-08T14:55:38Z</time>
      </trkpt>
      <trkpt lat="48.92846" lon="0.18986">
        <ele>177.9</ele>
        <time>2015-11-08T14:55:42Z</time>
      </trkpt>
      <trkpt lat="48.92845" lon="0.18982">
        <ele>178.6</ele>
        <time>2015-11-08T14:55:47Z</time>
      </trkpt>
      <trkpt lat="48.92847" lon="0.18978">
        <ele>179.46</ele>
        <time>2015-11-08T14:55:50Z</time>
      </trkpt>
      <trkpt lat="48.92848" lon="0.18974">
        <ele>180.31</ele>
        <time>2015-11-08T14:55:53Z</time>
      </trkpt>
      <trkpt lat="48.9285" lon="0.1897">
        <ele>181.16</ele>
        <time>2015-11-08T14:56:49Z</time>
      </trkpt>
      <trkpt lat="48.92851" lon="0.18966">
        <ele>182.04</ele>
        <time>2015-11-08T14:57:42Z</time>
      </trkpt>
      <trkpt lat="48.92851" lon="0.18961">
        <ele>183.02</ele>
        <time>2015-11-08T14:57:47Z</time>
      </trkpt>
      <trkpt lat="48.92852" lon="0.18956">
        <ele>183.97</ele>
        <time>2015-11-08T14:57:51Z</time>
      </trkpt>
      <trkpt lat="48.92853" lon="0.18952">
        <ele>184.74</ele>
        <time>2015-11-08T14:57:55Z</time>
      </trkpt>
      <trkpt lat="48.92854" lon="0.18948">
        <ele>185.41</ele>
        <time>2015-11-08T14:57:59Z</time>
      </trkpt>
      <trkpt lat="48.92855" lon="0.18944">
        <ele>186.11</ele>
        <time>2015-11-08T14:58:04Z</time>
      </trkpt>
      <trkpt lat="48.92856" lon="0.18939">
        <ele>187.06</ele>
        <time>2015-11-08T14:58:11Z</time>
      </trkpt>
      <trkpt lat="48.92856" lon="0.18935">
        <ele>187.9</ele>
        <time>2015-11-08T14:58:16Z</time>
      </trkpt>
      <trkpt lat="48.92857" lon="0.18931">
        <ele>188.65</ele>
        <time>2015-11-08T14:58:20Z</time>
      </trkpt>
      <trkpt lat="48.92859" lon="0.18927">
        <ele>189.4</ele>
        <time>2015-11-08T14:58:24Z</time>
      </trkpt>
      <trkpt lat="48.92859" lon="0.18922">
        <ele>190.16</ele>
        <time>2015-11-08T14:58:28Z</time>
      </trkpt>
      <trkpt lat="48.92859" lon="0.18918">
        <ele>191</ele>
        <time>2015-11-08T14:58:34Z</time>
      </trkpt>
      <trkpt lat="48.92858" lon="0.18915">
        <ele>191.92</ele>
        <time>2015-11-08T14:58:45Z</time>
      </trkpt>
      <trkpt lat="48.92859" lon="0.1891">
        <ele>192.62</ele>
        <time>2015-11-08T14:58:50Z</time>
      </trkpt>
      <trkpt lat="48.92862" lon="0.18907">
        <ele>192.95</ele>
        <time>2015-11-08T14:58:54Z</time>
      </trkpt>
      <trkpt lat="48.92862" lon="0.18903">
        <ele>193.92</ele>
        <time>2015-11-08T14:59:28Z</time>
      </trkpt>
      <trkpt lat="48.92863" lon="0.18899">
        <ele>194.58</ele>
        <time>2015-11-08T14:59:32Z</time>
      </trkpt>
      <trkpt lat="48.92866" lon="0.18896">
        <ele>194.93</ele>
        <time>2015-11-08T14:59:35Z</time>
      </trkpt>
      <trkpt lat="48.92867" lon="0.18892">
        <ele>195.4</ele>
        <time>2015-11-08T14:59:38Z</time>
      </trkpt>
      <trkpt lat="48.92869" lon="0.18888">
        <ele>195.94</ele>
        <time>2015-11-08T14:59:47Z</time>
      </trkpt>
      <trkpt lat="48.92872" lon="0.18886">
        <ele>195.78</ele>
        <time>2015-11-08T14:59:52Z</time>
      </trkpt>
      <trkpt lat="48.92874" lon="0.18884">
        <ele>195.82</ele>
        <time>2015-11-08T14:59:57Z</time>
      </trkpt>
      <trkpt lat="48.92877" lon="0.18883">
        <ele>195.55</ele>
        <time>2015-11-08T15:00:01Z</time>
      </trkpt>
      <trkpt lat="48.92879" lon="0.18879">
        <ele>195.85</ele>
        <time>2015-11-08T15:00:04Z</time>
      </trkpt>
      <trkpt lat="48.9288" lon="0.18875">
        <ele>196.31</ele>
        <time>2015-11-08T15:00:08Z</time>
      </trkpt>
      <trkpt lat="48.92882" lon="0.18871">
        <ele>196.44</ele>
        <time>2015-11-08T15:00:12Z</time>
      </trkpt>
      <trkpt lat="48.92884" lon="0.18868">
        <ele>196.76</ele>
        <time>2015-11-08T15:00:20Z</time>
      </trkpt>
      <trkpt lat="48.92886" lon="0.18865">
        <ele>196.85</ele>
        <time>2015-11-08T15:00:27Z</time>
      </trkpt>
      <trkpt lat="48.92889" lon="0.18861">
        <ele>196.94</ele>
        <time>2015-11-08T15:00:30Z</time>
      </trkpt>
      <trkpt lat="48.92892" lon="0.18859">
        <ele>196.87</ele>
        <time>2015-11-08T15:00:33Z</time>
      </trkpt>
      <trkpt lat="48.92895" lon="0.18857">
        <ele>196.79</ele>
        <time>2015-11-08T15:00:37Z</time>
      </trkpt>
      <trkpt lat="48.92897" lon="0.18854">
        <ele>196.92</ele>
        <time>2015-11-08T15:00:42Z</time>
      </trkpt>
      <trkpt lat="48.929" lon="0.18851">
        <ele>196.96</ele>
        <time>2015-11-08T15:00:45Z</time>
      </trkpt>
      <trkpt lat="48.92903" lon="0.18848">
        <ele>196.94</ele>
        <time>2015-11-08T15:00:48Z</time>
      </trkpt>
      <trkpt lat="48.92906" lon="0.18844">
        <ele>197.01</ele>
        <time>2015-11-08T15:00:51Z</time>
      </trkpt>
      <trkpt lat="48.92908" lon="0.18841">
        <ele>197.04</ele>
        <time>2015-11-08T15:00:54Z</time>
      </trkpt>
      <trkpt lat="48.92911" lon="0.18839">
        <ele>197.03</ele>
        <time>2015-11-08T15:00:57Z</time>
      </trkpt>
      <trkpt lat="48.92913" lon="0.18836">
        <ele>197.17</ele>
        <time>2015-11-08T15:01:00Z</time>
      </trkpt>
      <trkpt lat="48.92914" lon="0.18831">
        <ele>197.44</ele>
        <time>2015-11-08T15:01:04Z</time>
      </trkpt>
      <trkpt lat="48.92915" lon="0.18827">
        <ele>197.41</ele>
        <time>2015-11-08T15:01:07Z</time>
      </trkpt>
      <trkpt lat="48.92917" lon="0.18823">
        <ele>197.36</ele>
        <time>2015-11-08T15:01:11Z</time>
      </trkpt>
      <trkpt lat="48.92918" lon="0.18819">
        <ele>197.5</ele>
        <time>2015-11-08T15:01:15Z</time>
      </trkpt>
      <trkpt lat="48.92918" lon="0.18814">
        <ele>197.66</ele>
        <time>2015-11-08T15:01:18Z</time>
      </trkpt>
      <trkpt lat="48.92917" lon="0.1881">
        <ele>197.83</ele>
        <time>2015-11-08T15:01:20Z</time>
      </trkpt>
      <trkpt lat="48.92917" lon="0.18805">
        <ele>197.97</ele>
        <time>2015-11-08T15:01:24Z</time>
      </trkpt>
      <trkpt lat="48.92917" lon="0.18799">
        <ele>198.01</ele>
        <time>2015-11-08T15:01:34Z</time>
      </trkpt>
      <trkpt lat="48.92918" lon="0.18795">
        <ele>198.06</ele>
        <time>2015-11-08T15:01:36Z</time>
      </trkpt>
      <trkpt lat="48.92919" lon="0.18791">
        <ele>198.23</ele>
        <time>2015-11-08T15:01:38Z</time>
      </trkpt>
      <trkpt lat="48.9292" lon="0.18785">
        <ele>198.5</ele>
        <time>2015-11-08T15:01:41Z</time>
      </trkpt>
      <trkpt lat="48.9292" lon="0.18779">
        <ele>198.7</ele>
        <time>2015-11-08T15:01:43Z</time>
      </trkpt>
      <trkpt lat="48.9292" lon="0.18774">
        <ele>200.21</ele>
        <time>2015-11-08T15:01:45Z</time>
      </trkpt>
      <trkpt lat="48.9292" lon="0.18768">
        <ele>202.2</ele>
        <time>2015-11-08T15:01:47Z</time>
      </trkpt>
      <trkpt lat="48.92921" lon="0.18762">
        <ele>204.31</ele>
        <time>2015-11-08T15:01:49Z</time>
      </trkpt>
      <trkpt lat="48.92921" lon="0.18756">
        <ele>206.48</ele>
        <time>2015-11-08T15:01:51Z</time>
      </trkpt>
      <trkpt lat="48.92922" lon="0.18749">
        <ele>208.27</ele>
        <time>2015-11-08T15:01:53Z</time>
      </trkpt>
      <trkpt lat="48.92922" lon="0.18744">
        <ele>207.97</ele>
        <time>2015-11-08T15:01:55Z</time>
      </trkpt>
      <trkpt lat="48.92922" lon="0.18739">
        <ele>207.79</ele>
        <time>2015-11-08T15:01:57Z</time>
      </trkpt>
      <trkpt lat="48.92922" lon="0.18734">
        <ele>207.66</ele>
        <time>2015-11-08T15:01:59Z</time>
      </trkpt>
      <trkpt lat="48.92922" lon="0.18729">
        <ele>207.52</ele>
        <time>2015-11-08T15:02:01Z</time>
      </trkpt>
      <trkpt lat="48.92922" lon="0.18723">
        <ele>207.24</ele>
        <time>2015-11-08T15:02:03Z</time>
      </trkpt>
      <trkpt lat="48.92923" lon="0.18717">
        <ele>207.37</ele>
        <time>2015-11-08T15:02:05Z</time>
      </trkpt>
      <trkpt lat="48.92923" lon="0.18712">
        <ele>207.47</ele>
        <time>2015-11-08T15:02:07Z</time>
      </trkpt>
      <trkpt lat="48.92925" lon="0.18708">
        <ele>207.49</ele>
        <time>2015-11-08T15:02:09Z</time>
      </trkpt>
      <trkpt lat="48.92926" lon="0.18703">
        <ele>207.59</ele>
        <time>2015-11-08T15:02:11Z</time>
      </trkpt>
      <trkpt lat="48.92927" lon="0.18698">
        <ele>207.7</ele>
        <time>2015-11-08T15:02:13Z</time>
      </trkpt>
      <trkpt lat="48.92929" lon="0.18694">
        <ele>207.77</ele>
        <time>2015-11-08T15:02:15Z</time>
      </trkpt>
      <trkpt lat="48.9293" lon="0.18689">
        <ele>208.34</ele>
        <time>2015-11-08T15:02:17Z</time>
      </trkpt>
      <trkpt lat="48.92931" lon="0.18683">
        <ele>209.07</ele>
        <time>2015-11-08T15:02:19Z</time>
      </trkpt>
      <trkpt lat="48.92932" lon="0.18679">
        <ele>209.79</ele>
        <time>2015-11-08T15:02:21Z</time>
      </trkpt>
      <trkpt lat="48.92934" lon="0.18674">
        <ele>210.59</ele>
        <time>2015-11-08T15:02:23Z</time>
      </trkpt>
      <trkpt lat="48.92936" lon="0.1867">
        <ele>211.52</ele>
        <time>2015-11-08T15:02:25Z</time>
      </trkpt>
      <trkpt lat="48.92937" lon="0.18665">
        <ele>212.02</ele>
        <time>2015-11-08T15:02:27Z</time>
      </trkpt>
      <trkpt lat="48.92938" lon="0.18659">
        <ele>211.65</ele>
        <time>2015-11-08T15:02:29Z</time>
      </trkpt>
      <trkpt lat="48.9294" lon="0.18654">
        <ele>211.27</ele>
        <time>2015-11-08T15:02:31Z</time>
      </trkpt>
      <trkpt lat="48.92941" lon="0.1865">
        <ele>210.97</ele>
        <time>2015-11-08T15:02:33Z</time>
      </trkpt>
      <trkpt lat="48.92942" lon="0.18646">
        <ele>210.65</ele>
        <time>2015-11-08T15:02:35Z</time>
      </trkpt>
      <trkpt lat="48.92943" lon="0.18642">
        <ele>210.23</ele>
        <time>2015-11-08T15:02:37Z</time>
      </trkpt>
      <trkpt lat="48.92944" lon="0.18637">
        <ele>209.65</ele>
        <time>2015-11-08T15:02:39Z</time>
      </trkpt>
      <trkpt lat="48.92945" lon="0.18633">
        <ele>208.63</ele>
        <time>2015-11-08T15:02:41Z</time>
      </trkpt>
      <trkpt lat="48.92946" lon="0.18628">
        <ele>207.68</ele>
        <time>2015-11-08T15:02:43Z</time>
      </trkpt>
      <trkpt lat="48.92945" lon="0.18623">
        <ele>206.85</ele>
        <time>2015-11-08T15:02:45Z</time>
      </trkpt>
      <trkpt lat="48.92945" lon="0.18617">
        <ele>206.08</ele>
        <time>2015-11-08T15:02:47Z</time>
      </trkpt>
      <trkpt lat="48.92945" lon="0.18611">
        <ele>204.97</ele>
        <time>2015-11-08T15:02:49Z</time>
      </trkpt>
      <trkpt lat="48.92945" lon="0.18605">
        <ele>204.99</ele>
        <time>2015-11-08T15:02:51Z</time>
      </trkpt>
      <trkpt lat="48.92944" lon="0.186">
        <ele>205.07</ele>
        <time>2015-11-08T15:02:53Z</time>
      </trkpt>
      <trkpt lat="48.92943" lon="0.18595">
        <ele>205.09</ele>
        <time>2015-11-08T15:02:55Z</time>
      </trkpt>
      <trkpt lat="48.92945" lon="0.1859">
        <ele>205</ele>
        <time>2015-11-08T15:02:57Z</time>
      </trkpt>
      <trkpt lat="48.92947" lon="0.18585">
        <ele>205.07</ele>
        <time>2015-11-08T15:02:59Z</time>
      </trkpt>
      <trkpt lat="48.92948" lon="0.18579">
        <ele>205.27</ele>
        <time>2015-11-08T15:03:01Z</time>
      </trkpt>
      <trkpt lat="48.92949" lon="0.18574">
        <ele>205.46</ele>
        <time>2015-11-08T15:03:03Z</time>
      </trkpt>
      <trkpt lat="48.9295" lon="0.18568">
        <ele>205.64</ele>
        <time>2015-11-08T15:03:05Z</time>
      </trkpt>
      <trkpt lat="48.92952" lon="0.18561">
        <ele>205.84</ele>
        <time>2015-11-08T15:03:07Z</time>
      </trkpt>
      <trkpt lat="48.92953" lon="0.18555">
        <ele>205.95</ele>
        <time>2015-11-08T15:03:09Z</time>
      </trkpt>
      <trkpt lat="48.92954" lon="0.18549">
        <ele>205.58</ele>
        <time>2015-11-08T15:03:11Z</time>
      </trkpt>
      <trkpt lat="48.92955" lon="0.18542">
        <ele>205.22</ele>
        <time>2015-11-08T15:03:13Z</time>
      </trkpt>
      <trkpt lat="48.92955" lon="0.18536">
        <ele>204.87</ele>
        <time>2015-11-08T15:03:15Z</time>
      </trkpt>
      <trkpt lat="48.92955" lon="0.1853">
        <ele>204.52</ele>
        <time>2015-11-08T15:03:17Z</time>
      </trkpt>
      <trkpt lat="48.92955" lon="0.18524">
        <ele>204.38</ele>
        <time>2015-11-08T15:03:19Z</time>
      </trkpt>
      <trkpt lat="48.92955" lon="0.18517">
        <ele>204.38</ele>
        <time>2015-11-08T15:03:21Z</time>
      </trkpt>
      <trkpt lat="48.92956" lon="0.18512">
        <ele>204.4</ele>
        <time>2015-11-08T15:03:23Z</time>
      </trkpt>
      <trkpt lat="48.92957" lon="0.18506">
        <ele>204.45</ele>
        <time>2015-11-08T15:03:25Z</time>
      </trkpt>
      <trkpt lat="48.92957" lon="0.18501">
        <ele>204.46</ele>
        <time>2015-11-08T15:03:27Z</time>
      </trkpt>
      <trkpt lat="48.92958" lon="0.18495">
        <ele>204.31</ele>
        <time>2015-11-08T15:03:29Z</time>
      </trkpt>
      <trkpt lat="48.9296" lon="0.18488">
        <ele>204.14</ele>
        <time>2015-11-08T15:03:31Z</time>
      </trkpt>
      <trkpt lat="48.92961" lon="0.18483">
        <ele>203.97</ele>
        <time>2015-11-08T15:03:33Z</time>
      </trkpt>
      <trkpt lat="48.9296" lon="0.18478">
        <ele>203.77</ele>
        <time>2015-11-08T15:03:35Z</time>
      </trkpt>
      <trkpt lat="48.92961" lon="0.18472">
        <ele>203.61</ele>
        <time>2015-11-08T15:03:37Z</time>
      </trkpt>
      <trkpt lat="48.92964" lon="0.18465">
        <ele>203.69</ele>
        <time>2015-11-08T15:03:39Z</time>
      </trkpt>
      <trkpt lat="48.92965" lon="0.18458">
        <ele>203.75</ele>
        <time>2015-11-08T15:03:41Z</time>
      </trkpt>
      <trkpt lat="48.92967" lon="0.18451">
        <ele>203.8</ele>
        <time>2015-11-08T15:03:43Z</time>
      </trkpt>
      <trkpt lat="48.92968" lon="0.18445">
        <ele>203.84</ele>
        <time>2015-11-08T15:03:45Z</time>
      </trkpt>
      <trkpt lat="48.92969" lon="0.18438">
        <ele>203.85</ele>
        <time>2015-11-08T15:03:47Z</time>
      </trkpt>
      <trkpt lat="48.9297" lon="0.18432">
        <ele>203.87</ele>
        <time>2015-11-08T15:03:49Z</time>
      </trkpt>
      <trkpt lat="48.9297" lon="0.18425">
        <ele>203.88</ele>
        <time>2015-11-08T15:03:51Z</time>
      </trkpt>
      <trkpt lat="48.92971" lon="0.18419">
        <ele>203.9</ele>
        <time>2015-11-08T15:03:53Z</time>
      </trkpt>
      <trkpt lat="48.92973" lon="0.18413">
        <ele>204.17</ele>
        <time>2015-11-08T15:03:55Z</time>
      </trkpt>
      <trkpt lat="48.92975" lon="0.18407">
        <ele>204.54</ele>
        <time>2015-11-08T15:03:57Z</time>
      </trkpt>
      <trkpt lat="48.92977" lon="0.18401">
        <ele>204.89</ele>
        <time>2015-11-08T15:03:59Z</time>
      </trkpt>
      <trkpt lat="48.92978" lon="0.18395">
        <ele>205.21</ele>
        <time>2015-11-08T15:04:01Z</time>
      </trkpt>
      <trkpt lat="48.92978" lon="0.1839">
        <ele>205.39</ele>
        <time>2015-11-08T15:04:03Z</time>
      </trkpt>
      <trkpt lat="48.92976" lon="0.18384">
        <ele>205.63</ele>
        <time>2015-11-08T15:04:05Z</time>
      </trkpt>
      <trkpt lat="48.92976" lon="0.18378">
        <ele>206.04</ele>
        <time>2015-11-08T15:04:07Z</time>
      </trkpt>
      <trkpt lat="48.92977" lon="0.18372">
        <ele>206.55</ele>
        <time>2015-11-08T15:04:09Z</time>
      </trkpt>
      <trkpt lat="48.92978" lon="0.18366">
        <ele>207.05</ele>
        <time>2015-11-08T15:04:11Z</time>
      </trkpt>
      <trkpt lat="48.92979" lon="0.1836">
        <ele>207.5</ele>
        <time>2015-11-08T15:04:13Z</time>
      </trkpt>
      <trkpt lat="48.92979" lon="0.18355">
        <ele>207.65</ele>
        <time>2015-11-08T15:04:15Z</time>
      </trkpt>
      <trkpt lat="48.92979" lon="0.18348">
        <ele>207.86</ele>
        <time>2015-11-08T15:04:17Z</time>
      </trkpt>
      <trkpt lat="48.92979" lon="0.18343">
        <ele>207.99</ele>
        <time>2015-11-08T15:04:18Z</time>
      </trkpt>
      <trkpt lat="48.9298" lon="0.18336">
        <ele>208.21</ele>
        <time>2015-11-08T15:04:20Z</time>
      </trkpt>
      <trkpt lat="48.92981" lon="0.1833">
        <ele>208.29</ele>
        <time>2015-11-08T15:04:22Z</time>
      </trkpt>
      <trkpt lat="48.92982" lon="0.18324">
        <ele>208.23</ele>
        <time>2015-11-08T15:04:24Z</time>
      </trkpt>
      <trkpt lat="48.93" lon="0.18178">
        <ele>205.99</ele>
        <time>2015-11-08T15:04:56Z</time>
      </trkpt>
      <trkpt lat="48.92997" lon="0.18174">
        <ele>205.89</ele>
        <time>2015-11-08T15:05:00Z</time>
      </trkpt>
      <trkpt lat="48.92997" lon="0.18168">
        <ele>205.9</ele>
        <time>2015-11-08T15:05:02Z</time>
      </trkpt>
      <trkpt lat="48.92998" lon="0.18161">
        <ele>206.16</ele>
        <time>2015-11-08T15:05:04Z</time>
      </trkpt>
      <trkpt lat="48.92999" lon="0.18153">
        <ele>206.45</ele>
        <time>2015-11-08T15:05:06Z</time>
      </trkpt>
      <trkpt lat="48.92998" lon="0.18147">
        <ele>206.7</ele>
        <time>2015-11-08T15:05:08Z</time>
      </trkpt>
      <trkpt lat="48.92997" lon="0.1814">
        <ele>206.97</ele>
        <time>2015-11-08T15:05:10Z</time>
      </trkpt>
      <trkpt lat="48.92996" lon="0.18132">
        <ele>207</ele>
        <time>2015-11-08T15:05:12Z</time>
      </trkpt>
      <trkpt lat="48.92996" lon="0.18127">
        <ele>207</ele>
        <time>2015-11-08T15:05:13Z</time>
      </trkpt>
      <trkpt lat="48.92995" lon="0.18123">
        <ele>207</ele>
        <time>2015-11-08T15:05:14Z</time>
      </trkpt>
      <trkpt lat="48.92993" lon="0.18115">
        <ele>207</ele>
        <time>2015-11-08T15:05:16Z</time>
      </trkpt>
      <trkpt lat="48.92991" lon="0.18109">
        <ele>207.03</ele>
        <time>2015-11-08T15:05:18Z</time>
      </trkpt>
      <trkpt lat="48.9299" lon="0.18102">
        <ele>207.12</ele>
        <time>2015-11-08T15:05:20Z</time>
      </trkpt>
      <trkpt lat="48.92988" lon="0.18095">
        <ele>207.25</ele>
        <time>2015-11-08T15:05:22Z</time>
      </trkpt>
      <trkpt lat="48.92986" lon="0.18088">
        <ele>207.42</ele>
        <time>2015-11-08T15:05:24Z</time>
      </trkpt>
      <trkpt lat="48.92984" lon="0.1808">
        <ele>207.6</ele>
        <time>2015-11-08T15:05:26Z</time>
      </trkpt>
      <trkpt lat="48.92983" lon="0.18076">
        <ele>207.69</ele>
        <time>2015-11-08T15:05:27Z</time>
      </trkpt>
      <trkpt lat="48.92981" lon="0.18071">
        <ele>207.81</ele>
        <time>2015-11-08T15:05:28Z</time>
      </trkpt>
      <trkpt lat="48.92981" lon="0.18067">
        <ele>207.93</ele>
        <time>2015-11-08T15:05:29Z</time>
      </trkpt>
      <trkpt lat="48.9298" lon="0.18062">
        <ele>208.06</ele>
        <time>2015-11-08T15:05:30Z</time>
      </trkpt>
      <trkpt lat="48.92979" lon="0.18056">
        <ele>208.21</ele>
        <time>2015-11-08T15:05:31Z</time>
      </trkpt>
      <trkpt lat="48.92979" lon="0.18051">
        <ele>208.17</ele>
        <time>2015-11-08T15:05:32Z</time>
      </trkpt>
      <trkpt lat="48.92978" lon="0.18046">
        <ele>208.09</ele>
        <time>2015-11-08T15:05:33Z</time>
      </trkpt>
      <trkpt lat="48.92978" lon="0.18041">
        <ele>208</ele>
        <time>2015-11-08T15:05:34Z</time>
      </trkpt>
      <trkpt lat="48.92977" lon="0.18037">
        <ele>207.93</ele>
        <time>2015-11-08T15:05:35Z</time>
      </trkpt>
      <trkpt lat="48.92976" lon="0.18032">
        <ele>207.86</ele>
        <time>2015-11-08T15:05:36Z</time>
      </trkpt>
      <trkpt lat="48.92975" lon="0.18028">
        <ele>207.79</ele>
        <time>2015-11-08T15:05:37Z</time>
      </trkpt>
      <trkpt lat="48.92975" lon="0.18023">
        <ele>207.55</ele>
        <time>2015-11-08T15:05:38Z</time>
      </trkpt>
      <trkpt lat="48.92974" lon="0.18019">
        <ele>207.29</ele>
        <time>2015-11-08T15:05:39Z</time>
      </trkpt>
      <trkpt lat="48.92973" lon="0.18015">
        <ele>207.03</ele>
        <time>2015-11-08T15:05:40Z</time>
      </trkpt>
      <trkpt lat="48.92973" lon="0.18011">
        <ele>206.76</ele>
        <time>2015-11-08T15:05:41Z</time>
      </trkpt>
      <trkpt lat="48.92972" lon="0.18007">
        <ele>206.47</ele>
        <time>2015-11-08T15:05:42Z</time>
      </trkpt>
      <trkpt lat="48.92971" lon="0.18002">
        <ele>206.13</ele>
        <time>2015-11-08T15:05:43Z</time>
      </trkpt>
      <trkpt lat="48.9297" lon="0.17998">
        <ele>205.92</ele>
        <time>2015-11-08T15:05:44Z</time>
      </trkpt>
      <trkpt lat="48.92969" lon="0.17995">
        <ele>205.9</ele>
        <time>2015-11-08T15:05:45Z</time>
      </trkpt>
      <trkpt lat="48.92967" lon="0.17991">
        <ele>205.88</ele>
        <time>2015-11-08T15:05:46Z</time>
      </trkpt>
      <trkpt lat="48.92966" lon="0.17988">
        <ele>205.87</ele>
        <time>2015-11-08T15:05:47Z</time>
      </trkpt>
      <trkpt lat="48.92963" lon="0.17981">
        <ele>205.89</ele>
        <time>2015-11-08T15:05:49Z</time>
      </trkpt>
      <trkpt lat="48.92959" lon="0.17975">
        <ele>205.95</ele>
        <time>2015-11-08T15:05:51Z</time>
      </trkpt>
      <trkpt lat="48.92957" lon="0.17968">
        <ele>206.39</ele>
        <time>2015-11-08T15:05:53Z</time>
      </trkpt>
      <trkpt lat="48.92956" lon="0.17961">
        <ele>207.17</ele>
        <time>2015-11-08T15:05:55Z</time>
      </trkpt>
      <trkpt lat="48.92955" lon="0.17957">
        <ele>207.62</ele>
        <time>2015-11-08T15:05:56Z</time>
      </trkpt>
      <trkpt lat="48.92954" lon="0.17953">
        <ele>208.1</ele>
        <time>2015-11-08T15:05:57Z</time>
      </trkpt>
      <trkpt lat="48.92953" lon="0.17949">
        <ele>208.6</ele>
        <time>2015-11-08T15:05:58Z</time>
      </trkpt>
      <trkpt lat="48.92952" lon="0.17944">
        <ele>209.14</ele>
        <time>2015-11-08T15:05:59Z</time>
      </trkpt>
      <trkpt lat="48.92951" lon="0.1794">
        <ele>209.59</ele>
        <time>2015-11-08T15:06:00Z</time>
      </trkpt>
      <trkpt lat="48.9295" lon="0.17936">
        <ele>210.09</ele>
        <time>2015-11-08T15:06:01Z</time>
      </trkpt>
      <trkpt lat="48.92949" lon="0.17932">
        <ele>210.64</ele>
        <time>2015-11-08T15:06:02Z</time>
      </trkpt>
      <trkpt lat="48.92948" lon="0.17928">
        <ele>211.21</ele>
        <time>2015-11-08T15:06:03Z</time>
      </trkpt>
      <trkpt lat="48.92946" lon="0.17924">
        <ele>211.82</ele>
        <time>2015-11-08T15:06:04Z</time>
      </trkpt>
      <trkpt lat="48.92945" lon="0.1792">
        <ele>212.48</ele>
        <time>2015-11-08T15:06:05Z</time>
      </trkpt>
      <trkpt lat="48.92944" lon="0.17916">
        <ele>212.93</ele>
        <time>2015-11-08T15:06:06Z</time>
      </trkpt>
      <trkpt lat="48.92943" lon="0.17909">
        <ele>212.7</ele>
        <time>2015-11-08T15:06:08Z</time>
      </trkpt>
      <trkpt lat="48.92942" lon="0.17901">
        <ele>212.53</ele>
        <time>2015-11-08T15:06:10Z</time>
      </trkpt>
      <trkpt lat="48.92941" lon="0.17897">
        <ele>212.49</ele>
        <time>2015-11-08T15:06:11Z</time>
      </trkpt>
      <trkpt lat="48.9294" lon="0.17889">
        <ele>212.29</ele>
        <time>2015-11-08T15:06:13Z</time>
      </trkpt>
      <trkpt lat="48.92937" lon="0.17883">
        <ele>212.25</ele>
        <time>2015-11-08T15:06:15Z</time>
      </trkpt>
      <trkpt lat="48.92936" lon="0.17876">
        <ele>212.4</ele>
        <time>2015-11-08T15:06:17Z</time>
      </trkpt>
      <trkpt lat="48.92934" lon="0.17869">
        <ele>212.49</ele>
        <time>2015-11-08T15:06:19Z</time>
      </trkpt>
      <trkpt lat="48.92931" lon="0.17862">
        <ele>212.51</ele>
        <time>2015-11-08T15:06:21Z</time>
      </trkpt>
      <trkpt lat="48.92929" lon="0.17855">
        <ele>213.03</ele>
        <time>2015-11-08T15:06:23Z</time>
      </trkpt>
      <trkpt lat="48.92928" lon="0.17851">
        <ele>213.45</ele>
        <time>2015-11-08T15:06:24Z</time>
      </trkpt>
      <trkpt lat="48.92926" lon="0.17843">
        <ele>214.42</ele>
        <time>2015-11-08T15:06:26Z</time>
      </trkpt>
      <trkpt lat="48.92925" lon="0.17835">
        <ele>215.44</ele>
        <time>2015-11-08T15:06:28Z</time>
      </trkpt>
      <trkpt lat="48.92922" lon="0.17828">
        <ele>215.18</ele>
        <time>2015-11-08T15:06:30Z</time>
      </trkpt>
      <trkpt lat="48.92919" lon="0.17822">
        <ele>214.15</ele>
        <time>2015-11-08T15:06:32Z</time>
      </trkpt>
      <trkpt lat="48.92914" lon="0.1782">
        <ele>212.82</ele>
        <time>2015-11-08T15:06:34Z</time>
      </trkpt>
      <trkpt lat="48.92914" lon="0.17824">
        <ele>213.47</ele>
        <time>2015-11-08T15:06:50Z</time>
      </trkpt>
      <trkpt lat="48.92915" lon="0.17828">
        <ele>214.51</ele>
        <time>2015-11-08T15:06:58Z</time>
      </trkpt>
      <trkpt lat="48.92917" lon="0.17832">
        <ele>215.69</ele>
        <time>2015-11-08T15:07:00Z</time>
      </trkpt>
      <trkpt lat="48.9292" lon="0.17838">
        <ele>215.06</ele>
        <time>2015-11-08T15:07:02Z</time>
      </trkpt>
      <trkpt lat="48.92922" lon="0.17844">
        <ele>214.21</ele>
        <time>2015-11-08T15:07:03Z</time>
      </trkpt>
      <trkpt lat="48.92923" lon="0.17851">
        <ele>213.25</ele>
        <time>2015-11-08T15:07:04Z</time>
      </trkpt>
      <trkpt lat="48.92925" lon="0.17862">
        <ele>211.82</ele>
        <time>2015-11-08T15:07:05Z</time>
      </trkpt>
      <trkpt lat="48.92925" lon="0.1787">
        <ele>211.34</ele>
        <time>2015-11-08T15:07:06Z</time>
      </trkpt>
      <trkpt lat="48.92925" lon="0.17879">
        <ele>210.79</ele>
        <time>2015-11-08T15:07:07Z</time>
      </trkpt>
      <trkpt lat="48.92923" lon="0.17888">
        <ele>210</ele>
        <time>2015-11-08T15:07:08Z</time>
      </trkpt>
      <trkpt lat="48.92921" lon="0.17898">
        <ele>209.4</ele>
        <time>2015-11-08T15:07:09Z</time>
      </trkpt>
      <trkpt lat="48.92919" lon="0.17909">
        <ele>208.67</ele>
        <time>2015-11-08T15:07:10Z</time>
      </trkpt>
      <trkpt lat="48.92916" lon="0.17918">
        <ele>208.04</ele>
        <time>2015-11-08T15:07:11Z</time>
      </trkpt>
      <trkpt lat="48.92912" lon="0.17927">
        <ele>207.97</ele>
        <time>2015-11-08T15:07:12Z</time>
      </trkpt>
      <trkpt lat="48.92908" lon="0.17936">
        <ele>207.64</ele>
        <time>2015-11-08T15:07:13Z</time>
      </trkpt>
      <trkpt lat="48.92904" lon="0.17943">
        <ele>207.14</ele>
        <time>2015-11-08T15:07:14Z</time>
      </trkpt>
      <trkpt lat="48.92898" lon="0.1795">
        <ele>206.76</ele>
        <time>2015-11-08T15:07:15Z</time>
      </trkpt>
      <trkpt lat="48.92892" lon="0.17955">
        <ele>206.65</ele>
        <time>2015-11-08T15:07:16Z</time>
      </trkpt>
      <trkpt lat="48.92884" lon="0.17961">
        <ele>206.18</ele>
        <time>2015-11-08T15:07:17Z</time>
      </trkpt>
      <trkpt lat="48.92878" lon="0.17966">
        <ele>206.13</ele>
        <time>2015-11-08T15:07:18Z</time>
      </trkpt>
      <trkpt lat="48.92872" lon="0.17971">
        <ele>206.72</ele>
        <time>2015-11-08T15:07:19Z</time>
      </trkpt>
      <trkpt lat="48.92866" lon="0.17978">
        <ele>207.16</ele>
        <time>2015-11-08T15:07:20Z</time>
      </trkpt>
      <trkpt lat="48.92862" lon="0.17985">
        <ele>207</ele>
        <time>2015-11-08T15:07:21Z</time>
      </trkpt>
      <trkpt lat="48.92858" lon="0.17995">
        <ele>205.58</ele>
        <time>2015-11-08T15:07:22Z</time>
      </trkpt>
      <trkpt lat="48.92853" lon="0.18005">
        <ele>204.2</ele>
        <time>2015-11-08T15:07:23Z</time>
      </trkpt>
      <trkpt lat="48.9285" lon="0.18015">
        <ele>203.2</ele>
        <time>2015-11-08T15:07:24Z</time>
      </trkpt>
      <trkpt lat="48.92846" lon="0.18026">
        <ele>201.24</ele>
        <time>2015-11-08T15:07:25Z</time>
      </trkpt>
      <trkpt lat="48.92844" lon="0.18035">
        <ele>198.34</ele>
        <time>2015-11-08T15:07:26Z</time>
      </trkpt>
      <trkpt lat="48.92841" lon="0.18046">
        <ele>194.73</ele>
        <time>2015-11-08T15:07:27Z</time>
      </trkpt>
      <trkpt lat="48.92838" lon="0.18057">
        <ele>191.44</ele>
        <time>2015-11-08T15:07:28Z</time>
      </trkpt>
      <trkpt lat="48.92834" lon="0.18067">
        <ele>189.72</ele>
        <time>2015-11-08T15:07:29Z</time>
      </trkpt>
      <trkpt lat="48.92829" lon="0.18077">
        <ele>189.79</ele>
        <time>2015-11-08T15:07:30Z</time>
      </trkpt>
      <trkpt lat="48.92825" lon="0.18088">
        <ele>189.53</ele>
        <time>2015-11-08T15:07:31Z</time>
      </trkpt>
      <trkpt lat="48.9282" lon="0.18098">
        <ele>188.85</ele>
        <time>2015-11-08T15:07:32Z</time>
      </trkpt>
      <trkpt lat="48.92816" lon="0.18107">
        <ele>188.12</ele>
        <time>2015-11-08T15:07:33Z</time>
      </trkpt>
      <trkpt lat="48.92811" lon="0.18115">
        <ele>187.43</ele>
        <time>2015-11-08T15:07:34Z</time>
      </trkpt>
      <trkpt lat="48.92808" lon="0.18124">
        <ele>186.52</ele>
        <time>2015-11-08T15:07:35Z</time>
      </trkpt>
      <trkpt lat="48.92806" lon="0.18132">
        <ele>185.68</ele>
        <time>2015-11-08T15:07:36Z</time>
      </trkpt>
      <trkpt lat="48.92804" lon="0.1814">
        <ele>185.17</ele>
        <time>2015-11-08T15:07:37Z</time>
      </trkpt>
      <trkpt lat="48.92802" lon="0.18146">
        <ele>184.83</ele>
        <time>2015-11-08T15:07:38Z</time>
      </trkpt>
      <trkpt lat="48.92802" lon="0.18154">
        <ele>184.27</ele>
        <time>2015-11-08T15:07:39Z</time>
      </trkpt>
      <trkpt lat="48.92801" lon="0.18159">
        <ele>183.85</ele>
        <time>2015-11-08T15:07:40Z</time>
      </trkpt>
      <trkpt lat="48.92801" lon="0.18166">
        <ele>183.26</ele>
        <time>2015-11-08T15:07:41Z</time>
      </trkpt>
      <trkpt lat="48.928" lon="0.18171">
        <ele>182.95</ele>
        <time>2015-11-08T15:07:42Z</time>
      </trkpt>
      <trkpt lat="48.92801" lon="0.18177">
        <ele>182.67</ele>
        <time>2015-11-08T15:07:43Z</time>
      </trkpt>
      <trkpt lat="48.92802" lon="0.18187">
        <ele>182.2</ele>
        <time>2015-11-08T15:07:44Z</time>
      </trkpt>
      <trkpt lat="48.92802" lon="0.18199">
        <ele>181.7</ele>
        <time>2015-11-08T15:07:45Z</time>
      </trkpt>
      <trkpt lat="48.92802" lon="0.1821">
        <ele>181.14</ele>
        <time>2015-11-08T15:07:46Z</time>
      </trkpt>
      <trkpt lat="48.92801" lon="0.18221">
        <ele>180.55</ele>
        <time>2015-11-08T15:07:47Z</time>
      </trkpt>
      <trkpt lat="48.928" lon="0.18231">
        <ele>179.47</ele>
        <time>2015-11-08T15:07:48Z</time>
      </trkpt>
      <trkpt lat="48.928" lon="0.1824">
        <ele>178.56</ele>
        <time>2015-11-08T15:07:49Z</time>
      </trkpt>
      <trkpt lat="48.928" lon="0.18251">
        <ele>177.33</ele>
        <time>2015-11-08T15:07:50Z</time>
      </trkpt>
      <trkpt lat="48.928" lon="0.18261">
        <ele>176.24</ele>
        <time>2015-11-08T15:07:51Z</time>
      </trkpt>
      <trkpt lat="48.92799" lon="0.18271">
        <ele>175.1</ele>
        <time>2015-11-08T15:07:52Z</time>
      </trkpt>
      <trkpt lat="48.928" lon="0.18277">
        <ele>174.46</ele>
        <time>2015-11-08T15:07:53Z</time>
      </trkpt>
      <trkpt lat="48.92799" lon="0.18286">
        <ele>173.03</ele>
        <time>2015-11-08T15:07:54Z</time>
      </trkpt>
      <trkpt lat="48.92798" lon="0.18295">
        <ele>171.48</ele>
        <time>2015-11-08T15:07:55Z</time>
      </trkpt>
      <trkpt lat="48.92797" lon="0.18301">
        <ele>170.33</ele>
        <time>2015-11-08T15:07:56Z</time>
      </trkpt>
      <trkpt lat="48.92793" lon="0.18307">
        <ele>169.49</ele>
        <time>2015-11-08T15:07:57Z</time>
      </trkpt>
      <trkpt lat="48.92789" lon="0.18311">
        <ele>169.09</ele>
        <time>2015-11-08T15:07:58Z</time>
      </trkpt>
      <trkpt lat="48.9279" lon="0.18316">
        <ele>168.86</ele>
        <time>2015-11-08T15:07:59Z</time>
      </trkpt>
      <trkpt lat="48.92794" lon="0.18317">
        <ele>168.99</ele>
        <time>2015-11-08T15:08:01Z</time>
      </trkpt>
      <trkpt lat="48.92793" lon="0.18312">
        <ele>169.21</ele>
        <time>2015-11-08T15:08:02Z</time>
      </trkpt>
      <trkpt lat="48.92793" lon="0.18307">
        <ele>169.5</ele>
        <time>2015-11-08T15:08:04Z</time>
      </trkpt>
      <trkpt lat="48.92794" lon="0.18302">
        <ele>170.11</ele>
        <time>2015-11-08T15:08:06Z</time>
      </trkpt>
      <trkpt lat="48.92795" lon="0.18298">
        <ele>170.81</ele>
        <time>2015-11-08T15:08:08Z</time>
      </trkpt>
      <trkpt lat="48.92797" lon="0.18293">
        <ele>171.72</ele>
        <time>2015-11-08T15:08:10Z</time>
      </trkpt>
      <trkpt lat="48.92797" lon="0.18286">
        <ele>172.75</ele>
        <time>2015-11-08T15:08:12Z</time>
      </trkpt>
      <trkpt lat="48.92799" lon="0.1828">
        <ele>173.81</ele>
        <time>2015-11-08T15:08:14Z</time>
      </trkpt>
      <trkpt lat="48.928" lon="0.18275">
        <ele>174.66</ele>
        <time>2015-11-08T15:08:16Z</time>
      </trkpt>
      <trkpt lat="48.928" lon="0.1827">
        <ele>175.27</ele>
        <time>2015-11-08T15:08:18Z</time>
      </trkpt>
      <trkpt lat="48.928" lon="0.18265">
        <ele>175.78</ele>
        <time>2015-11-08T15:08:20Z</time>
      </trkpt>
      <trkpt lat="48.928" lon="0.18259">
        <ele>176.38</ele>
        <time>2015-11-08T15:08:22Z</time>
      </trkpt>
      <trkpt lat="48.928" lon="0.18253">
        <ele>177.08</ele>
        <time>2015-11-08T15:08:24Z</time>
      </trkpt>
      <trkpt lat="48.928" lon="0.18247">
        <ele>177.69</ele>
        <time>2015-11-08T15:08:26Z</time>
      </trkpt>
      <trkpt lat="48.92799" lon="0.18241">
        <ele>178.22</ele>
        <time>2015-11-08T15:08:28Z</time>
      </trkpt>
      <trkpt lat="48.92798" lon="0.18236">
        <ele>178.73</ele>
        <time>2015-11-08T15:08:30Z</time>
      </trkpt>
      <trkpt lat="48.92798" lon="0.18231">
        <ele>179.16</ele>
        <time>2015-11-08T15:08:32Z</time>
      </trkpt>
      <trkpt lat="48.92797" lon="0.18227">
        <ele>179.64</ele>
        <time>2015-11-08T15:08:34Z</time>
      </trkpt>
      <trkpt lat="48.92798" lon="0.18222">
        <ele>180.19</ele>
        <time>2015-11-08T15:08:36Z</time>
      </trkpt>
      <trkpt lat="48.92799" lon="0.18217">
        <ele>180.5</ele>
        <time>2015-11-08T15:08:38Z</time>
      </trkpt>
      <trkpt lat="48.92799" lon="0.18213">
        <ele>180.78</ele>
        <time>2015-11-08T15:08:40Z</time>
      </trkpt>
      <trkpt lat="48.92799" lon="0.18208">
        <ele>181.08</ele>
        <time>2015-11-08T15:08:42Z</time>
      </trkpt>
      <trkpt lat="48.92799" lon="0.18202">
        <ele>181.38</ele>
        <time>2015-11-08T15:08:44Z</time>
      </trkpt>
      <trkpt lat="48.928" lon="0.18197">
        <ele>181.67</ele>
        <time>2015-11-08T15:08:46Z</time>
      </trkpt>
      <trkpt lat="48.928" lon="0.18192">
        <ele>181.92</ele>
        <time>2015-11-08T15:08:48Z</time>
      </trkpt>
      <trkpt lat="48.928" lon="0.18187">
        <ele>182.19</ele>
        <time>2015-11-08T15:08:50Z</time>
      </trkpt>
      <trkpt lat="48.92801" lon="0.18182">
        <ele>182.45</ele>
        <time>2015-11-08T15:08:52Z</time>
      </trkpt>
      <trkpt lat="48.928" lon="0.18177">
        <ele>182.68</ele>
        <time>2015-11-08T15:08:54Z</time>
      </trkpt>
      <trkpt lat="48.92801" lon="0.18172">
        <ele>182.9</ele>
        <time>2015-11-08T15:08:56Z</time>
      </trkpt>
      <trkpt lat="48.92802" lon="0.18168">
        <ele>183.09</ele>
        <time>2015-11-08T15:08:58Z</time>
      </trkpt>
      <trkpt lat="48.92802" lon="0.18164">
        <ele>183.39</ele>
        <time>2015-11-08T15:09:00Z</time>
      </trkpt>
      <trkpt lat="48.92803" lon="0.18159">
        <ele>183.73</ele>
        <time>2015-11-08T15:09:02Z</time>
      </trkpt>
      <trkpt lat="48.92803" lon="0.18155">
        <ele>184.03</ele>
        <time>2015-11-08T15:09:04Z</time>
      </trkpt>
      <trkpt lat="48.92804" lon="0.1815">
        <ele>184.37</ele>
        <time>2015-11-08T15:09:06Z</time>
      </trkpt>
      <trkpt lat="48.92804" lon="0.18145">
        <ele>184.72</ele>
        <time>2015-11-08T15:09:08Z</time>
      </trkpt>
      <trkpt lat="48.92805" lon="0.18141">
        <ele>184.94</ele>
        <time>2015-11-08T15:09:10Z</time>
      </trkpt>
      <trkpt lat="48.92806" lon="0.18136">
        <ele>185.27</ele>
        <time>2015-11-08T15:09:12Z</time>
      </trkpt>
      <trkpt lat="48.92807" lon="0.18132">
        <ele>185.75</ele>
        <time>2015-11-08T15:09:14Z</time>
      </trkpt>
      <trkpt lat="48.92808" lon="0.18128">
        <ele>186.1</ele>
        <time>2015-11-08T15:09:16Z</time>
      </trkpt>
      <trkpt lat="48.9281" lon="0.18125">
        <ele>186.4</ele>
        <time>2015-11-08T15:09:18Z</time>
      </trkpt>
      <trkpt lat="48.92812" lon="0.18121">
        <ele>186.75</ele>
        <time>2015-11-08T15:09:20Z</time>
      </trkpt>
      <trkpt lat="48.92814" lon="0.18116">
        <ele>187.15</ele>
        <time>2015-11-08T15:09:22Z</time>
      </trkpt>
      <trkpt lat="48.92816" lon="0.18112">
        <ele>187.55</ele>
        <time>2015-11-08T15:09:24Z</time>
      </trkpt>
      <trkpt lat="48.92818" lon="0.18107">
        <ele>187.98</ele>
        <time>2015-11-08T15:09:26Z</time>
      </trkpt>
      <trkpt lat="48.92844" lon="0.18042">
        <ele>196.54</ele>
        <time>2015-11-08T15:09:57Z</time>
      </trkpt>
      <trkpt lat="48.92845" lon="0.18039">
        <ele>198.02</ele>
        <time>2015-11-08T15:09:59Z</time>
      </trkpt>
      <trkpt lat="48.92847" lon="0.18035">
        <ele>199.56</ele>
        <time>2015-11-08T15:10:01Z</time>
      </trkpt>
      <trkpt lat="48.92848" lon="0.18031">
        <ele>200.97</ele>
        <time>2015-11-08T15:10:03Z</time>
      </trkpt>
      <trkpt lat="48.92849" lon="0.18028">
        <ele>202.55</ele>
        <time>2015-11-08T15:10:05Z</time>
      </trkpt>
      <trkpt lat="48.9285" lon="0.18022">
        <ele>202.91</ele>
        <time>2015-11-08T15:10:08Z</time>
      </trkpt>
      <trkpt lat="48.92851" lon="0.18017">
        <ele>203.45</ele>
        <time>2015-11-08T15:10:11Z</time>
      </trkpt>
      <trkpt lat="48.92853" lon="0.18011">
        <ele>204.19</ele>
        <time>2015-11-08T15:10:14Z</time>
      </trkpt>
      <trkpt lat="48.92854" lon="0.18007">
        <ele>204.55</ele>
        <time>2015-11-08T15:10:16Z</time>
      </trkpt>
      <trkpt lat="48.92856" lon="0.18003">
        <ele>204.89</ele>
        <time>2015-11-08T15:10:18Z</time>
      </trkpt>
      <trkpt lat="48.92857" lon="0.17999">
        <ele>205.25</ele>
        <time>2015-11-08T15:10:20Z</time>
      </trkpt>
      <trkpt lat="48.92859" lon="0.17995">
        <ele>205.88</ele>
        <time>2015-11-08T15:10:22Z</time>
      </trkpt>
      <trkpt lat="48.92861" lon="0.1799">
        <ele>206.58</ele>
        <time>2015-11-08T15:10:24Z</time>
      </trkpt>
      <trkpt lat="48.92863" lon="0.17986">
        <ele>206.87</ele>
        <time>2015-11-08T15:10:26Z</time>
      </trkpt>
      <trkpt lat="48.92865" lon="0.17983">
        <ele>206.91</ele>
        <time>2015-11-08T15:10:28Z</time>
      </trkpt>
      <trkpt lat="48.92868" lon="0.1798">
        <ele>206.9</ele>
        <time>2015-11-08T15:10:30Z</time>
      </trkpt>
      <trkpt lat="48.9287" lon="0.17976">
        <ele>206.83</ele>
        <time>2015-11-08T15:10:32Z</time>
      </trkpt>
      <trkpt lat="48.92872" lon="0.17973">
        <ele>206.76</ele>
        <time>2015-11-08T15:10:34Z</time>
      </trkpt>
      <trkpt lat="48.92875" lon="0.1797">
        <ele>206.45</ele>
        <time>2015-11-08T15:10:36Z</time>
      </trkpt>
      <trkpt lat="48.92877" lon="0.17967">
        <ele>206.19</ele>
        <time>2015-11-08T15:10:38Z</time>
      </trkpt>
      <trkpt lat="48.9288" lon="0.17965">
        <ele>206.07</ele>
        <time>2015-11-08T15:10:40Z</time>
      </trkpt>
      <trkpt lat="48.92884" lon="0.17964">
        <ele>205.99</ele>
        <time>2015-11-08T15:10:42Z</time>
      </trkpt>
      <trkpt lat="48.92887" lon="0.17964">
        <ele>205.97</ele>
        <time>2015-11-08T15:10:44Z</time>
      </trkpt>
      <trkpt lat="48.9289" lon="0.17961">
        <ele>206.12</ele>
        <time>2015-11-08T15:10:46Z</time>
      </trkpt>
      <trkpt lat="48.92893" lon="0.1796">
        <ele>206.18</ele>
        <time>2015-11-08T15:10:48Z</time>
      </trkpt>
      <trkpt lat="48.92895" lon="0.17958">
        <ele>206.21</ele>
        <time>2015-11-08T15:10:50Z</time>
      </trkpt>
      <trkpt lat="48.92898" lon="0.17956">
        <ele>206.28</ele>
        <time>2015-11-08T15:10:52Z</time>
      </trkpt>
      <trkpt lat="48.92901" lon="0.17953">
        <ele>206.37</ele>
        <time>2015-11-08T15:10:54Z</time>
      </trkpt>
      <trkpt lat="48.92903" lon="0.1795">
        <ele>206.49</ele>
        <time>2015-11-08T15:10:56Z</time>
      </trkpt>
      <trkpt lat="48.92906" lon="0.17947">
        <ele>206.61</ele>
        <time>2015-11-08T15:10:58Z</time>
      </trkpt>
      <trkpt lat="48.92908" lon="0.17942">
        <ele>206.9</ele>
        <time>2015-11-08T15:11:00Z</time>
      </trkpt>
      <trkpt lat="48.9291" lon="0.17938">
        <ele>207.13</ele>
        <time>2015-11-08T15:11:02Z</time>
      </trkpt>
      <trkpt lat="48.92913" lon="0.17936">
        <ele>207.12</ele>
        <time>2015-11-08T15:11:04Z</time>
      </trkpt>
      <trkpt lat="48.92915" lon="0.17932">
        <ele>207.16</ele>
        <time>2015-11-08T15:11:06Z</time>
      </trkpt>
      <trkpt lat="48.92917" lon="0.17927">
        <ele>207.27</ele>
        <time>2015-11-08T15:11:08Z</time>
      </trkpt>
      <trkpt lat="48.92918" lon="0.17923">
        <ele>207.88</ele>
        <time>2015-11-08T15:11:10Z</time>
      </trkpt>
      <trkpt lat="48.9292" lon="0.17918">
        <ele>208.5</ele>
        <time>2015-11-08T15:11:12Z</time>
      </trkpt>
      <trkpt lat="48.92921" lon="0.17913">
        <ele>208.94</ele>
        <time>2015-11-08T15:11:14Z</time>
      </trkpt>
      <trkpt lat="48.92923" lon="0.17909">
        <ele>209.34</ele>
        <time>2015-11-08T15:11:16Z</time>
      </trkpt>
      <trkpt lat="48.92924" lon="0.17904">
        <ele>209.72</ele>
        <time>2015-11-08T15:11:18Z</time>
      </trkpt>
      <trkpt lat="48.92926" lon="0.179">
        <ele>210.02</ele>
        <time>2015-11-08T15:11:20Z</time>
      </trkpt>
      <trkpt lat="48.92926" lon="0.17895">
        <ele>210.26</ele>
        <time>2015-11-08T15:11:22Z</time>
      </trkpt>
      <trkpt lat="48.92927" lon="0.1789">
        <ele>210.53</ele>
        <time>2015-11-08T15:11:24Z</time>
      </trkpt>
      <trkpt lat="48.92929" lon="0.17885">
        <ele>210.98</ele>
        <time>2015-11-08T15:11:26Z</time>
      </trkpt>
      <trkpt lat="48.9293" lon="0.17879">
        <ele>211.42</ele>
        <time>2015-11-08T15:11:28Z</time>
      </trkpt>
      <trkpt lat="48.9293" lon="0.17873">
        <ele>211.79</ele>
        <time>2015-11-08T15:11:30Z</time>
      </trkpt>
      <trkpt lat="48.9293" lon="0.17867">
        <ele>212.13</ele>
        <time>2015-11-08T15:11:32Z</time>
      </trkpt>
      <trkpt lat="48.92929" lon="0.17861">
        <ele>212.42</ele>
        <time>2015-11-08T15:11:34Z</time>
      </trkpt>
      <trkpt lat="48.92928" lon="0.17855">
        <ele>212.98</ele>
        <time>2015-11-08T15:11:36Z</time>
      </trkpt>
      <trkpt lat="48.92926" lon="0.17849">
        <ele>213.55</ele>
        <time>2015-11-08T15:11:38Z</time>
      </trkpt>
      <trkpt lat="48.92924" lon="0.17844">
        <ele>214.19</ele>
        <time>2015-11-08T15:11:40Z</time>
      </trkpt>
      <trkpt lat="48.92922" lon="0.17839">
        <ele>214.9</ele>
        <time>2015-11-08T15:11:42Z</time>
      </trkpt>
      <trkpt lat="48.92919" lon="0.17835">
        <ele>215.71</ele>
        <time>2015-11-08T15:11:44Z</time>
      </trkpt>
      <trkpt lat="48.92917" lon="0.1783">
        <ele>215.39</ele>
        <time>2015-11-08T15:11:46Z</time>
      </trkpt>
      <trkpt lat="48.92914" lon="0.17826">
        <ele>213.61</ele>
        <time>2015-11-08T15:11:48Z</time>
      </trkpt>
      <trkpt lat="48.9291" lon="0.17824">
        <ele>211.96</ele>
        <time>2015-11-08T15:11:50Z</time>
      </trkpt>
      <trkpt lat="48.92906" lon="0.17823">
        <ele>210.56</ele>
        <time>2015-11-08T15:11:52Z</time>
      </trkpt>
      <trkpt lat="48.92903" lon="0.17824">
        <ele>209.46</ele>
        <time>2015-11-08T15:11:54Z</time>
      </trkpt>
      <trkpt lat="48.929" lon="0.17825">
        <ele>208.45</ele>
        <time>2015-11-08T15:11:56Z</time>
      </trkpt>
      <trkpt lat="48.92898" lon="0.17827">
        <ele>207.57</ele>
        <time>2015-11-08T15:12:32Z</time>
      </trkpt>
      <trkpt lat="48.92895" lon="0.17829">
        <ele>206.4</ele>
        <time>2015-11-08T15:12:38Z</time>
      </trkpt>
      <trkpt lat="48.92892" lon="0.17831">
        <ele>205.3</ele>
        <time>2015-11-08T15:12:40Z</time>
      </trkpt>
      <trkpt lat="48.92889" lon="0.17832">
        <ele>204.01</ele>
        <time>2015-11-08T15:12:42Z</time>
      </trkpt>
      <trkpt lat="48.92885" lon="0.17834">
        <ele>203.74</ele>
        <time>2015-11-08T15:12:44Z</time>
      </trkpt>
      <trkpt lat="48.92881" lon="0.17836">
        <ele>203.49</ele>
        <time>2015-11-08T15:12:46Z</time>
      </trkpt>
      <trkpt lat="48.92877" lon="0.17839">
        <ele>203.2</ele>
        <time>2015-11-08T15:12:48Z</time>
      </trkpt>
      <trkpt lat="48.92874" lon="0.17841">
        <ele>203.06</ele>
        <time>2015-11-08T15:12:49Z</time>
      </trkpt>
      <trkpt lat="48.92871" lon="0.17843">
        <ele>202.93</ele>
        <time>2015-11-08T15:12:50Z</time>
      </trkpt>
      <trkpt lat="48.92868" lon="0.17846">
        <ele>202.82</ele>
        <time>2015-11-08T15:12:51Z</time>
      </trkpt>
      <trkpt lat="48.92865" lon="0.17848">
        <ele>202.72</ele>
        <time>2015-11-08T15:12:52Z</time>
      </trkpt>
      <trkpt lat="48.92862" lon="0.17849">
        <ele>202.63</ele>
        <time>2015-11-08T15:12:53Z</time>
      </trkpt>
      <trkpt lat="48.92858" lon="0.17852">
        <ele>202.54</ele>
        <time>2015-11-08T15:12:55Z</time>
      </trkpt>
      <trkpt lat="48.92855" lon="0.17854">
        <ele>202.47</ele>
        <time>2015-11-08T15:12:56Z</time>
      </trkpt>
      <trkpt lat="48.92852" lon="0.17856">
        <ele>202.35</ele>
        <time>2015-11-08T15:12:57Z</time>
      </trkpt>
      <trkpt lat="48.92849" lon="0.17858">
        <ele>202.18</ele>
        <time>2015-11-08T15:12:58Z</time>
      </trkpt>
      <trkpt lat="48.92846" lon="0.1786">
        <ele>201.94</ele>
        <time>2015-11-08T15:12:59Z</time>
      </trkpt>
      <trkpt lat="48.92841" lon="0.17863">
        <ele>201.53</ele>
        <time>2015-11-08T15:13:00Z</time>
      </trkpt>
      <trkpt lat="48.92836" lon="0.17866">
        <ele>201.04</ele>
        <time>2015-11-08T15:13:01Z</time>
      </trkpt>
      <trkpt lat="48.9283" lon="0.1787">
        <ele>200.47</ele>
        <time>2015-11-08T15:13:02Z</time>
      </trkpt>
      <trkpt lat="48.92823" lon="0.17874">
        <ele>199.68</ele>
        <time>2015-11-08T15:13:03Z</time>
      </trkpt>
      <trkpt lat="48.92805" lon="0.17886">
        <ele>196.38</ele>
        <time>2015-11-08T15:13:04Z</time>
      </trkpt>
      <trkpt lat="48.928" lon="0.17889">
        <ele>196.23</ele>
        <time>2015-11-08T15:13:05Z</time>
      </trkpt>
      <trkpt lat="48.92794" lon="0.17891">
        <ele>196.45</ele>
        <time>2015-11-08T15:13:06Z</time>
      </trkpt>
      <trkpt lat="48.92789" lon="0.17894">
        <ele>196.73</ele>
        <time>2015-11-08T15:13:07Z</time>
      </trkpt>
      <trkpt lat="48.92784" lon="0.17896">
        <ele>196.98</ele>
        <time>2015-11-08T15:13:08Z</time>
      </trkpt>
      <trkpt lat="48.9278" lon="0.17897">
        <ele>197.18</ele>
        <time>2015-11-08T15:13:09Z</time>
      </trkpt>
      <trkpt lat="48.92772" lon="0.179">
        <ele>197.45</ele>
        <time>2015-11-08T15:13:11Z</time>
      </trkpt>
      <trkpt lat="48.92767" lon="0.17901">
        <ele>197.48</ele>
        <time>2015-11-08T15:13:12Z</time>
      </trkpt>
      <trkpt lat="48.92763" lon="0.17902">
        <ele>197.5</ele>
        <time>2015-11-08T15:13:13Z</time>
      </trkpt>
      <trkpt lat="48.9276" lon="0.17903">
        <ele>197.5</ele>
        <time>2015-11-08T15:13:14Z</time>
      </trkpt>
      <trkpt lat="48.92756" lon="0.17904">
        <ele>197.47</ele>
        <time>2015-11-08T15:13:15Z</time>
      </trkpt>
      <trkpt lat="48.92753" lon="0.17904">
        <ele>197.47</ele>
        <time>2015-11-08T15:13:16Z</time>
      </trkpt>
      <trkpt lat="48.92749" lon="0.17904">
        <ele>197.41</ele>
        <time>2015-11-08T15:13:17Z</time>
      </trkpt>
      <trkpt lat="48.92746" lon="0.17905">
        <ele>197.24</ele>
        <time>2015-11-08T15:13:18Z</time>
      </trkpt>
      <trkpt lat="48.92742" lon="0.17905">
        <ele>197.07</ele>
        <time>2015-11-08T15:13:19Z</time>
      </trkpt>
      <trkpt lat="48.92739" lon="0.17906">
        <ele>196.91</ele>
        <time>2015-11-08T15:13:20Z</time>
      </trkpt>
      <trkpt lat="48.92735" lon="0.17905">
        <ele>196.76</ele>
        <time>2015-11-08T15:13:21Z</time>
      </trkpt>
      <trkpt lat="48.92732" lon="0.17904">
        <ele>196.6</ele>
        <time>2015-11-08T15:13:22Z</time>
      </trkpt>
      <trkpt lat="48.92729" lon="0.17905">
        <ele>196.45</ele>
        <time>2015-11-08T15:13:23Z</time>
      </trkpt>
      <trkpt lat="48.92725" lon="0.17906">
        <ele>196.34</ele>
        <time>2015-11-08T15:13:24Z</time>
      </trkpt>
      <trkpt lat="48.92722" lon="0.17907">
        <ele>196.32</ele>
        <time>2015-11-08T15:13:25Z</time>
      </trkpt>
      <trkpt lat="48.92718" lon="0.17909">
        <ele>196.39</ele>
        <time>2015-11-08T15:13:26Z</time>
      </trkpt>
      <trkpt lat="48.92714" lon="0.17911">
        <ele>196.36</ele>
        <time>2015-11-08T15:13:27Z</time>
      </trkpt>
      <trkpt lat="48.9271" lon="0.17913">
        <ele>196.22</ele>
        <time>2015-11-08T15:13:28Z</time>
      </trkpt>
      <trkpt lat="48.92707" lon="0.17914">
        <ele>195.98</ele>
        <time>2015-11-08T15:13:29Z</time>
      </trkpt>
      <trkpt lat="48.92703" lon="0.17916">
        <ele>195.65</ele>
        <time>2015-11-08T15:13:30Z</time>
      </trkpt>
      <trkpt lat="48.92699" lon="0.17917">
        <ele>195.42</ele>
        <time>2015-11-08T15:13:31Z</time>
      </trkpt>
      <trkpt lat="48.92695" lon="0.17918">
        <ele>195.29</ele>
        <time>2015-11-08T15:13:32Z</time>
      </trkpt>
      <trkpt lat="48.92691" lon="0.17919">
        <ele>196.43</ele>
        <time>2015-11-08T15:13:33Z</time>
      </trkpt>
      <trkpt lat="48.92688" lon="0.1792">
        <ele>197.61</ele>
        <time>2015-11-08T15:13:34Z</time>
      </trkpt>
      <trkpt lat="48.92684" lon="0.1792">
        <ele>198.71</ele>
        <time>2015-11-08T15:13:35Z</time>
      </trkpt>
      <trkpt lat="48.92681" lon="0.17921">
        <ele>199.76</ele>
        <time>2015-11-08T15:13:36Z</time>
      </trkpt>
      <trkpt lat="48.92677" lon="0.17923">
        <ele>200.71</ele>
        <time>2015-11-08T15:13:37Z</time>
      </trkpt>
      <trkpt lat="48.92674" lon="0.17925">
        <ele>201.48</ele>
        <time>2015-11-08T15:13:38Z</time>
      </trkpt>
      <trkpt lat="48.9267" lon="0.17926">
        <ele>202.18</ele>
        <time>2015-11-08T15:13:39Z</time>
      </trkpt>
      <trkpt lat="48.92666" lon="0.17927">
        <ele>202.8</ele>
        <time>2015-11-08T15:13:40Z</time>
      </trkpt>
      <trkpt lat="48.92663" lon="0.17928">
        <ele>203.78</ele>
        <time>2015-11-08T15:13:41Z</time>
      </trkpt>
      <trkpt lat="48.9266" lon="0.17929">
        <ele>204.78</ele>
        <time>2015-11-08T15:13:42Z</time>
      </trkpt>
      <trkpt lat="48.92656" lon="0.1793">
        <ele>205.91</ele>
        <time>2015-11-08T15:13:43Z</time>
      </trkpt>
      <trkpt lat="48.92653" lon="0.17932">
        <ele>206.94</ele>
        <time>2015-11-08T15:13:44Z</time>
      </trkpt>
      <trkpt lat="48.92649" lon="0.17933">
        <ele>208.02</ele>
        <time>2015-11-08T15:13:45Z</time>
      </trkpt>
      <trkpt lat="48.92646" lon="0.17935">
        <ele>209.17</ele>
        <time>2015-11-08T15:13:46Z</time>
      </trkpt>
      <trkpt lat="48.92643" lon="0.17936">
        <ele>210.47</ele>
        <time>2015-11-08T15:13:47Z</time>
      </trkpt>
      <trkpt lat="48.9264" lon="0.17937">
        <ele>211.74</ele>
        <time>2015-11-08T15:13:48Z</time>
      </trkpt>
      <trkpt lat="48.92636" lon="0.17937">
        <ele>212.07</ele>
        <time>2015-11-08T15:13:49Z</time>
      </trkpt>
      <trkpt lat="48.92633" lon="0.17938">
        <ele>212.15</ele>
        <time>2015-11-08T15:13:50Z</time>
      </trkpt>
      <trkpt lat="48.92629" lon="0.17939">
        <ele>212.2</ele>
        <time>2015-11-08T15:13:51Z</time>
      </trkpt>
      <trkpt lat="48.92626" lon="0.1794">
        <ele>212.22</ele>
        <time>2015-11-08T15:13:52Z</time>
      </trkpt>
      <trkpt lat="48.92623" lon="0.17941">
        <ele>212.24</ele>
        <time>2015-11-08T15:13:53Z</time>
      </trkpt>
      <trkpt lat="48.9262" lon="0.17941">
        <ele>212.24</ele>
        <time>2015-11-08T15:13:54Z</time>
      </trkpt>
      <trkpt lat="48.92617" lon="0.17942">
        <ele>212.25</ele>
        <time>2015-11-08T15:13:55Z</time>
      </trkpt>
      <trkpt lat="48.92615" lon="0.17941">
        <ele>212.29</ele>
        <time>2015-11-08T15:13:56Z</time>
      </trkpt>
      <trkpt lat="48.92611" lon="0.1794">
        <ele>212.49</ele>
        <time>2015-11-08T15:13:58Z</time>
      </trkpt>
      <trkpt lat="48.92606" lon="0.17939">
        <ele>212.35</ele>
        <time>2015-11-08T15:14:00Z</time>
      </trkpt>
      <trkpt lat="48.92603" lon="0.17939">
        <ele>212.18</ele>
        <time>2015-11-08T15:14:01Z</time>
      </trkpt>
      <trkpt lat="48.926" lon="0.17939">
        <ele>211.99</ele>
        <time>2015-11-08T15:14:02Z</time>
      </trkpt>
      <trkpt lat="48.92596" lon="0.1794">
        <ele>211.73</ele>
        <time>2015-11-08T15:14:03Z</time>
      </trkpt>
      <trkpt lat="48.92591" lon="0.17942">
        <ele>211.42</ele>
        <time>2015-11-08T15:14:04Z</time>
      </trkpt>
      <trkpt lat="48.92587" lon="0.17945">
        <ele>211.15</ele>
        <time>2015-11-08T15:14:05Z</time>
      </trkpt>
      <trkpt lat="48.92584" lon="0.17948">
        <ele>211.01</ele>
        <time>2015-11-08T15:14:06Z</time>
      </trkpt>
      <trkpt lat="48.9258" lon="0.17951">
        <ele>210.42</ele>
        <time>2015-11-08T15:14:07Z</time>
      </trkpt>
      <trkpt lat="48.92577" lon="0.17955">
        <ele>209.91</ele>
        <time>2015-11-08T15:14:08Z</time>
      </trkpt>
      <trkpt lat="48.92574" lon="0.1796">
        <ele>209.4</ele>
        <time>2015-11-08T15:14:09Z</time>
      </trkpt>
      <trkpt lat="48.92572" lon="0.17965">
        <ele>208.91</ele>
        <time>2015-11-08T15:14:10Z</time>
      </trkpt>
      <trkpt lat="48.92564" lon="0.1798">
        <ele>208.13</ele>
        <time>2015-11-08T15:14:11Z</time>
      </trkpt>
      <trkpt lat="48.92562" lon="0.17985">
        <ele>208.23</ele>
        <time>2015-11-08T15:14:12Z</time>
      </trkpt>
      <trkpt lat="48.92558" lon="0.17993">
        <ele>207.97</ele>
        <time>2015-11-08T15:14:13Z</time>
      </trkpt>
      <trkpt lat="48.92554" lon="0.18">
        <ele>208.08</ele>
        <time>2015-11-08T15:14:14Z</time>
      </trkpt>
      <trkpt lat="48.92549" lon="0.18007">
        <ele>209.3</ele>
        <time>2015-11-08T15:14:15Z</time>
      </trkpt>
      <trkpt lat="48.92548" lon="0.18013">
        <ele>210.03</ele>
        <time>2015-11-08T15:14:16Z</time>
      </trkpt>
      <trkpt lat="48.92546" lon="0.1802">
        <ele>210.6</ele>
        <time>2015-11-08T15:14:17Z</time>
      </trkpt>
      <trkpt lat="48.92545" lon="0.18024">
        <ele>210.59</ele>
        <time>2015-11-08T15:14:18Z</time>
      </trkpt>
      <trkpt lat="48.92542" lon="0.1803">
        <ele>209.63</ele>
        <time>2015-11-08T15:14:20Z</time>
      </trkpt>
      <trkpt lat="48.9254" lon="0.18035">
        <ele>208.29</ele>
        <time>2015-11-08T15:14:22Z</time>
      </trkpt>
      <trkpt lat="48.92539" lon="0.18041">
        <ele>207.64</ele>
        <time>2015-11-08T15:14:24Z</time>
      </trkpt>
      <trkpt lat="48.92538" lon="0.18045">
        <ele>207.09</ele>
        <time>2015-11-08T15:14:25Z</time>
      </trkpt>
      <trkpt lat="48.92535" lon="0.18051">
        <ele>206.38</ele>
        <time>2015-11-08T15:14:27Z</time>
      </trkpt>
      <trkpt lat="48.92489" lon="0.1818">
        <ele>207.15</ele>
        <time>2015-11-08T15:14:58Z</time>
      </trkpt>
      <trkpt lat="48.92487" lon="0.18182">
        <ele>206.94</ele>
        <time>2015-11-08T15:14:59Z</time>
      </trkpt>
      <trkpt lat="48.92485" lon="0.18187">
        <ele>206.87</ele>
        <time>2015-11-08T15:15:01Z</time>
      </trkpt>
      <trkpt lat="48.92481" lon="0.18192">
        <ele>206.48</ele>
        <time>2015-11-08T15:15:03Z</time>
      </trkpt>
      <trkpt lat="48.9248" lon="0.18197">
        <ele>206.61</ele>
        <time>2015-11-08T15:15:05Z</time>
      </trkpt>
      <trkpt lat="48.92482" lon="0.18201">
        <ele>207.18</ele>
        <time>2015-11-08T15:15:09Z</time>
      </trkpt>
      <trkpt lat="48.92481" lon="0.18197">
        <ele>206.77</ele>
        <time>2015-11-08T15:15:18Z</time>
      </trkpt>
      <trkpt lat="48.92481" lon="0.18191">
        <ele>206.42</ele>
        <time>2015-11-08T15:15:20Z</time>
      </trkpt>
      <trkpt lat="48.92481" lon="0.18185">
        <ele>206.08</ele>
        <time>2015-11-08T15:15:22Z</time>
      </trkpt>
      <trkpt lat="48.92478" lon="0.18181">
        <ele>205.49</ele>
        <time>2015-11-08T15:15:24Z</time>
      </trkpt>
      <trkpt lat="48.92476" lon="0.18175">
        <ele>204.87</ele>
        <time>2015-11-08T15:15:26Z</time>
      </trkpt>
      <trkpt lat="48.92474" lon="0.18169">
        <ele>204.29</ele>
        <time>2015-11-08T15:15:28Z</time>
      </trkpt>
      <trkpt lat="48.92472" lon="0.18161">
        <ele>204.16</ele>
        <time>2015-11-08T15:15:30Z</time>
      </trkpt>
      <trkpt lat="48.92471" lon="0.18157">
        <ele>204.13</ele>
        <time>2015-11-08T15:15:31Z</time>
      </trkpt>
      <trkpt lat="48.92471" lon="0.1815">
        <ele>204.2</ele>
        <time>2015-11-08T15:15:33Z</time>
      </trkpt>
      <trkpt lat="48.92469" lon="0.18143">
        <ele>204.05</ele>
        <time>2015-11-08T15:15:35Z</time>
      </trkpt>
      <trkpt lat="48.92468" lon="0.18139">
        <ele>203.94</ele>
        <time>2015-11-08T15:15:36Z</time>
      </trkpt>
      <trkpt lat="48.92467" lon="0.18135">
        <ele>203.55</ele>
        <time>2015-11-08T15:15:37Z</time>
      </trkpt>
      <trkpt lat="48.92465" lon="0.1813">
        <ele>203.09</ele>
        <time>2015-11-08T15:15:38Z</time>
      </trkpt>
      <trkpt lat="48.92463" lon="0.18125">
        <ele>202.58</ele>
        <time>2015-11-08T15:15:39Z</time>
      </trkpt>
      <trkpt lat="48.92461" lon="0.18119">
        <ele>202.09</ele>
        <time>2015-11-08T15:15:40Z</time>
      </trkpt>
      <trkpt lat="48.92459" lon="0.18113">
        <ele>201.69</ele>
        <time>2015-11-08T15:15:41Z</time>
      </trkpt>
      <trkpt lat="48.92458" lon="0.18108">
        <ele>201.48</ele>
        <time>2015-11-08T15:15:42Z</time>
      </trkpt>
      <trkpt lat="48.92456" lon="0.18102">
        <ele>201.42</ele>
        <time>2015-11-08T15:15:43Z</time>
      </trkpt>
      <trkpt lat="48.92455" lon="0.18097">
        <ele>201.51</ele>
        <time>2015-11-08T15:15:44Z</time>
      </trkpt>
      <trkpt lat="48.92455" lon="0.18091">
        <ele>201.69</ele>
        <time>2015-11-08T15:15:45Z</time>
      </trkpt>
      <trkpt lat="48.92455" lon="0.18086">
        <ele>201.89</ele>
        <time>2015-11-08T15:15:46Z</time>
      </trkpt>
      <trkpt lat="48.92455" lon="0.18081">
        <ele>202.06</ele>
        <time>2015-11-08T15:15:47Z</time>
      </trkpt>
      <trkpt lat="48.92455" lon="0.18076">
        <ele>202.18</ele>
        <time>2015-11-08T15:15:48Z</time>
      </trkpt>
      <trkpt lat="48.92454" lon="0.18071">
        <ele>202.29</ele>
        <time>2015-11-08T15:15:49Z</time>
      </trkpt>
      <trkpt lat="48.92454" lon="0.18066">
        <ele>202.43</ele>
        <time>2015-11-08T15:15:50Z</time>
      </trkpt>
      <trkpt lat="48.92453" lon="0.1806">
        <ele>202.59</ele>
        <time>2015-11-08T15:15:51Z</time>
      </trkpt>
      <trkpt lat="48.92452" lon="0.18047">
        <ele>202.51</ele>
        <time>2015-11-08T15:15:52Z</time>
      </trkpt>
      <trkpt lat="48.9245" lon="0.1804">
        <ele>202.35</ele>
        <time>2015-11-08T15:15:53Z</time>
      </trkpt>
      <trkpt lat="48.92449" lon="0.18032">
        <ele>202.13</ele>
        <time>2015-11-08T15:15:54Z</time>
      </trkpt>
      <trkpt lat="48.92448" lon="0.18023">
        <ele>201.56</ele>
        <time>2015-11-08T15:15:55Z</time>
      </trkpt>
      <trkpt lat="48.92446" lon="0.18014">
        <ele>200.58</ele>
        <time>2015-11-08T15:15:56Z</time>
      </trkpt>
      <trkpt lat="48.92447" lon="0.18003">
        <ele>199.58</ele>
        <time>2015-11-08T15:15:57Z</time>
      </trkpt>
      <trkpt lat="48.92448" lon="0.17992">
        <ele>198.34</ele>
        <time>2015-11-08T15:15:58Z</time>
      </trkpt>
      <trkpt lat="48.92449" lon="0.1798">
        <ele>196.99</ele>
        <time>2015-11-08T15:15:59Z</time>
      </trkpt>
      <trkpt lat="48.9245" lon="0.17967">
        <ele>195.83</ele>
        <time>2015-11-08T15:16:00Z</time>
      </trkpt>
      <trkpt lat="48.9245" lon="0.17955">
        <ele>194.62</ele>
        <time>2015-11-08T15:16:01Z</time>
      </trkpt>
      <trkpt lat="48.92451" lon="0.17944">
        <ele>193.88</ele>
        <time>2015-11-08T15:16:02Z</time>
      </trkpt>
      <trkpt lat="48.9245" lon="0.17938">
        <ele>193.58</ele>
        <time>2015-11-08T15:16:03Z</time>
      </trkpt>
      <trkpt lat="48.9245" lon="0.17929">
        <ele>193.47</ele>
        <time>2015-11-08T15:16:04Z</time>
      </trkpt>
      <trkpt lat="48.9245" lon="0.1792">
        <ele>193.37</ele>
        <time>2015-11-08T15:16:05Z</time>
      </trkpt>
      <trkpt lat="48.92447" lon="0.17915">
        <ele>192.83</ele>
        <time>2015-11-08T15:16:06Z</time>
      </trkpt>
      <trkpt lat="48.92447" lon="0.17909">
        <ele>192.94</ele>
        <time>2015-11-08T15:16:07Z</time>
      </trkpt>
      <trkpt lat="48.92446" lon="0.17902">
        <ele>192.84</ele>
        <time>2015-11-08T15:16:09Z</time>
      </trkpt>
      <trkpt lat="48.92443" lon="0.17897">
        <ele>192.46</ele>
        <time>2015-11-08T15:16:17Z</time>
      </trkpt>
      <trkpt lat="48.92442" lon="0.17894">
        <ele>192.23</ele>
        <time>2015-11-08T15:16:18Z</time>
      </trkpt>
      <trkpt lat="48.9244" lon="0.17888">
        <ele>191.96</ele>
        <time>2015-11-08T15:16:19Z</time>
      </trkpt>
      <trkpt lat="48.92439" lon="0.1788">
        <ele>192.19</ele>
        <time>2015-11-08T15:16:20Z</time>
      </trkpt>
      <trkpt lat="48.92436" lon="0.17871">
        <ele>191.77</ele>
        <time>2015-11-08T15:16:21Z</time>
      </trkpt>
      <trkpt lat="48.92433" lon="0.1786">
        <ele>191.19</ele>
        <time>2015-11-08T15:16:22Z</time>
      </trkpt>
      <trkpt lat="48.92429" lon="0.17847">
        <ele>189.84</ele>
        <time>2015-11-08T15:16:23Z</time>
      </trkpt>
      <trkpt lat="48.92426" lon="0.17832">
        <ele>188.43</ele>
        <time>2015-11-08T15:16:24Z</time>
      </trkpt>
      <trkpt lat="48.92422" lon="0.1782">
        <ele>185.8</ele>
        <time>2015-11-08T15:16:25Z</time>
      </trkpt>
      <trkpt lat="48.92419" lon="0.17804">
        <ele>183.48</ele>
        <time>2015-11-08T15:16:26Z</time>
      </trkpt>
      <trkpt lat="48.92416" lon="0.17788">
        <ele>180.63</ele>
        <time>2015-11-08T15:16:27Z</time>
      </trkpt>
      <trkpt lat="48.92412" lon="0.17768">
        <ele>177.2</ele>
        <time>2015-11-08T15:16:28Z</time>
      </trkpt>
      <trkpt lat="48.92405" lon="0.1775">
        <ele>175.13</ele>
        <time>2015-11-08T15:16:29Z</time>
      </trkpt>
      <trkpt lat="48.92401" lon="0.17733">
        <ele>173.9</ele>
        <time>2015-11-08T15:16:30Z</time>
      </trkpt>
      <trkpt lat="48.92394" lon="0.17715">
        <ele>173.51</ele>
        <time>2015-11-08T15:16:31Z</time>
      </trkpt>
      <trkpt lat="48.92389" lon="0.17697">
        <ele>173.8</ele>
        <time>2015-11-08T15:16:32Z</time>
      </trkpt>
      <trkpt lat="48.92376" lon="0.17685">
        <ele>171.99</ele>
        <time>2015-11-08T15:16:33Z</time>
      </trkpt>
      <trkpt lat="48.92368" lon="0.1767">
        <ele>171.5</ele>
        <time>2015-11-08T15:16:34Z</time>
      </trkpt>
      <trkpt lat="48.92361" lon="0.17658">
        <ele>171.15</ele>
        <time>2015-11-08T15:16:35Z</time>
      </trkpt>
      <trkpt lat="48.92354" lon="0.17646">
        <ele>171.72</ele>
        <time>2015-11-08T15:16:36Z</time>
      </trkpt>
      <trkpt lat="48.92347" lon="0.17634">
        <ele>172.64</ele>
        <time>2015-11-08T15:16:37Z</time>
      </trkpt>
      <trkpt lat="48.92339" lon="0.17623">
        <ele>171.87</ele>
        <time>2015-11-08T15:16:38Z</time>
      </trkpt>
      <trkpt lat="48.92332" lon="0.17613">
        <ele>169.66</ele>
        <time>2015-11-08T15:16:39Z</time>
      </trkpt>
      <trkpt lat="48.92326" lon="0.17601">
        <ele>166.83</ele>
        <time>2015-11-08T15:16:40Z</time>
      </trkpt>
      <trkpt lat="48.92319" lon="0.17589">
        <ele>164.46</ele>
        <time>2015-11-08T15:16:41Z</time>
      </trkpt>
      <trkpt lat="48.92315" lon="0.17575">
        <ele>162.99</ele>
        <time>2015-11-08T15:16:42Z</time>
      </trkpt>
      <trkpt lat="48.92308" lon="0.17564">
        <ele>160.95</ele>
        <time>2015-11-08T15:16:43Z</time>
      </trkpt>
      <trkpt lat="48.92304" lon="0.17551">
        <ele>160.05</ele>
        <time>2015-11-08T15:16:44Z</time>
      </trkpt>
      <trkpt lat="48.923" lon="0.1754">
        <ele>160.33</ele>
        <time>2015-11-08T15:16:45Z</time>
      </trkpt>
      <trkpt lat="48.92295" lon="0.17529">
        <ele>160.78</ele>
        <time>2015-11-08T15:16:46Z</time>
      </trkpt>
      <trkpt lat="48.92287" lon="0.17518">
        <ele>162.19</ele>
        <time>2015-11-08T15:16:47Z</time>
      </trkpt>
      <trkpt lat="48.92281" lon="0.17508">
        <ele>163.71</ele>
        <time>2015-11-08T15:16:48Z</time>
      </trkpt>
      <trkpt lat="48.92275" lon="0.17499">
        <ele>164.68</ele>
        <time>2015-11-08T15:16:49Z</time>
      </trkpt>
      <trkpt lat="48.9227" lon="0.17491">
        <ele>164.12</ele>
        <time>2015-11-08T15:16:50Z</time>
      </trkpt>
      <trkpt lat="48.92266" lon="0.17483">
        <ele>163.68</ele>
        <time>2015-11-08T15:16:51Z</time>
      </trkpt>
      <trkpt lat="48.92261" lon="0.17477">
        <ele>163.22</ele>
        <time>2015-11-08T15:16:52Z</time>
      </trkpt>
      <trkpt lat="48.92257" lon="0.17474">
        <ele>162.78</ele>
        <time>2015-11-08T15:16:53Z</time>
      </trkpt>
      <trkpt lat="48.92252" lon="0.17472">
        <ele>162.21</ele>
        <time>2015-11-08T15:16:55Z</time>
      </trkpt>
      <trkpt lat="48.92249" lon="0.17474">
        <ele>161.94</ele>
        <time>2015-11-08T15:16:56Z</time>
      </trkpt>
      <trkpt lat="48.92252" lon="0.17476">
        <ele>162.18</ele>
        <time>2015-11-08T15:16:58Z</time>
      </trkpt>
      <trkpt lat="48.9225" lon="0.1748">
        <ele>162</ele>
        <time>2015-11-08T15:17:07Z</time>
      </trkpt>
      <trkpt lat="48.92251" lon="0.17487">
        <ele>162.12</ele>
        <time>2015-11-08T15:17:21Z</time>
      </trkpt>
      <trkpt lat="48.9225" lon="0.17492">
        <ele>162.02</ele>
        <time>2015-11-08T15:17:23Z</time>
      </trkpt>
      <trkpt lat="48.92249" lon="0.17498">
        <ele>161.95</ele>
        <time>2015-11-08T15:17:25Z</time>
      </trkpt>
      <trkpt lat="48.92249" lon="0.17505">
        <ele>161.59</ele>
        <time>2015-11-08T15:17:27Z</time>
      </trkpt>
      <trkpt lat="48.9225" lon="0.17512">
        <ele>161.18</ele>
        <time>2015-11-08T15:17:29Z</time>
      </trkpt>
      <trkpt lat="48.92251" lon="0.17519">
        <ele>160.75</ele>
        <time>2015-11-08T15:17:31Z</time>
      </trkpt>
      <trkpt lat="48.9225" lon="0.17526">
        <ele>160.14</ele>
        <time>2015-11-08T15:17:33Z</time>
      </trkpt>
      <trkpt lat="48.92248" lon="0.17534">
        <ele>159.21</ele>
        <time>2015-11-08T15:17:35Z</time>
      </trkpt>
      <trkpt lat="48.92248" lon="0.17538">
        <ele>158.7</ele>
        <time>2015-11-08T15:17:36Z</time>
      </trkpt>
      <trkpt lat="48.92247" lon="0.17543">
        <ele>158.18</ele>
        <time>2015-11-08T15:17:37Z</time>
      </trkpt>
      <trkpt lat="48.92246" lon="0.17548">
        <ele>157.64</ele>
        <time>2015-11-08T15:17:38Z</time>
      </trkpt>
      <trkpt lat="48.92245" lon="0.17553">
        <ele>157.12</ele>
        <time>2015-11-08T15:17:39Z</time>
      </trkpt>
      <trkpt lat="48.92244" lon="0.17557">
        <ele>156.75</ele>
        <time>2015-11-08T15:17:40Z</time>
      </trkpt>
      <trkpt lat="48.92244" lon="0.17562">
        <ele>156.59</ele>
        <time>2015-11-08T15:17:41Z</time>
      </trkpt>
      <trkpt lat="48.92243" lon="0.17567">
        <ele>156.44</ele>
        <time>2015-11-08T15:17:42Z</time>
      </trkpt>
      <trkpt lat="48.92242" lon="0.17572">
        <ele>156.3</ele>
        <time>2015-11-08T15:17:43Z</time>
      </trkpt>
      <trkpt lat="48.92242" lon="0.17577">
        <ele>156.17</ele>
        <time>2015-11-08T15:17:44Z</time>
      </trkpt>
      <trkpt lat="48.92241" lon="0.17581">
        <ele>156.05</ele>
        <time>2015-11-08T15:17:45Z</time>
      </trkpt>
      <trkpt lat="48.92241" lon="0.17586">
        <ele>156.17</ele>
        <time>2015-11-08T15:17:46Z</time>
      </trkpt>
      <trkpt lat="48.92241" lon="0.17591">
        <ele>156.47</ele>
        <time>2015-11-08T15:17:47Z</time>
      </trkpt>
      <trkpt lat="48.92242" lon="0.17596">
        <ele>156.77</ele>
        <time>2015-11-08T15:17:48Z</time>
      </trkpt>
      <trkpt lat="48.92244" lon="0.176">
        <ele>157.09</ele>
        <time>2015-11-08T15:17:49Z</time>
      </trkpt>
      <trkpt lat="48.92245" lon="0.17605">
        <ele>157.4</ele>
        <time>2015-11-08T15:17:50Z</time>
      </trkpt>
      <trkpt lat="48.92245" lon="0.17609">
        <ele>157.68</ele>
        <time>2015-11-08T15:17:51Z</time>
      </trkpt>
      <trkpt lat="48.92244" lon="0.17613">
        <ele>157.94</ele>
        <time>2015-11-08T15:17:52Z</time>
      </trkpt>
      <trkpt lat="48.92244" lon="0.17618">
        <ele>158.19</ele>
        <time>2015-11-08T15:17:53Z</time>
      </trkpt>
      <trkpt lat="48.92244" lon="0.17622">
        <ele>158.48</ele>
        <time>2015-11-08T15:17:54Z</time>
      </trkpt>
      <trkpt lat="48.92245" lon="0.17626">
        <ele>158.8</ele>
        <time>2015-11-08T15:17:55Z</time>
      </trkpt>
      <trkpt lat="48.92245" lon="0.17631">
        <ele>159.12</ele>
        <time>2015-11-08T15:17:56Z</time>
      </trkpt>
      <trkpt lat="48.92246" lon="0.17635">
        <ele>159.45</ele>
        <time>2015-11-08T15:17:57Z</time>
      </trkpt>
      <trkpt lat="48.92246" lon="0.17639">
        <ele>159.74</ele>
        <time>2015-11-08T15:17:58Z</time>
      </trkpt>
      <trkpt lat="48.92246" lon="0.17644">
        <ele>159.96</ele>
        <time>2015-11-08T15:17:59Z</time>
      </trkpt>
      <trkpt lat="48.92245" lon="0.17648">
        <ele>160.16</ele>
        <time>2015-11-08T15:18:00Z</time>
      </trkpt>
      <trkpt lat="48.92245" lon="0.17652">
        <ele>160.37</ele>
        <time>2015-11-08T15:18:01Z</time>
      </trkpt>
      <trkpt lat="48.92244" lon="0.17656">
        <ele>160.6</ele>
        <time>2015-11-08T15:18:02Z</time>
      </trkpt>
      <trkpt lat="48.92244" lon="0.1766">
        <ele>160.84</ele>
        <time>2015-11-08T15:18:03Z</time>
      </trkpt>
      <trkpt lat="48.92242" lon="0.17668">
        <ele>161.38</ele>
        <time>2015-11-08T15:18:05Z</time>
      </trkpt>
      <trkpt lat="48.92239" lon="0.17674">
        <ele>162.09</ele>
        <time>2015-11-08T15:18:07Z</time>
      </trkpt>
      <trkpt lat="48.92237" lon="0.17681">
        <ele>162.97</ele>
        <time>2015-11-08T15:18:09Z</time>
      </trkpt>
      <trkpt lat="48.92237" lon="0.17686">
        <ele>163.42</ele>
        <time>2015-11-08T15:18:10Z</time>
      </trkpt>
      <trkpt lat="48.92237" lon="0.1769">
        <ele>163.84</ele>
        <time>2015-11-08T15:18:11Z</time>
      </trkpt>
      <trkpt lat="48.92238" lon="0.17694">
        <ele>164.19</ele>
        <time>2015-11-08T15:18:12Z</time>
      </trkpt>
      <trkpt lat="48.92239" lon="0.17699">
        <ele>164.49</ele>
        <time>2015-11-08T15:18:13Z</time>
      </trkpt>
      <trkpt lat="48.92239" lon="0.17703">
        <ele>164.77</ele>
        <time>2015-11-08T15:18:14Z</time>
      </trkpt>
      <trkpt lat="48.9224" lon="0.17707">
        <ele>165.04</ele>
        <time>2015-11-08T15:18:15Z</time>
      </trkpt>
      <trkpt lat="48.92241" lon="0.17712">
        <ele>165.29</ele>
        <time>2015-11-08T15:18:16Z</time>
      </trkpt>
      <trkpt lat="48.92242" lon="0.17716">
        <ele>165.51</ele>
        <time>2015-11-08T15:18:17Z</time>
      </trkpt>
      <trkpt lat="48.92242" lon="0.1772">
        <ele>165.74</ele>
        <time>2015-11-08T15:18:18Z</time>
      </trkpt>
      <trkpt lat="48.92243" lon="0.17728">
        <ele>165.4</ele>
        <time>2015-11-08T15:18:20Z</time>
      </trkpt>
      <trkpt lat="48.92244" lon="0.17733">
        <ele>164.99</ele>
        <time>2015-11-08T15:18:21Z</time>
      </trkpt>
      <trkpt lat="48.92245" lon="0.17737">
        <ele>164.55</ele>
        <time>2015-11-08T15:18:22Z</time>
      </trkpt>
      <trkpt lat="48.92246" lon="0.17742">
        <ele>164.16</ele>
        <time>2015-11-08T15:18:23Z</time>
      </trkpt>
      <trkpt lat="48.92247" lon="0.17747">
        <ele>163.84</ele>
        <time>2015-11-08T15:18:24Z</time>
      </trkpt>
      <trkpt lat="48.92247" lon="0.17752">
        <ele>163.46</ele>
        <time>2015-11-08T15:18:25Z</time>
      </trkpt>
      <trkpt lat="48.92248" lon="0.17757">
        <ele>162.91</ele>
        <time>2015-11-08T15:18:26Z</time>
      </trkpt>
      <trkpt lat="48.92249" lon="0.17763">
        <ele>162.3</ele>
        <time>2015-11-08T15:18:27Z</time>
      </trkpt>
      <trkpt lat="48.9225" lon="0.17769">
        <ele>161.68</ele>
        <time>2015-11-08T15:18:28Z</time>
      </trkpt>
      <trkpt lat="48.9225" lon="0.17775">
        <ele>161.24</ele>
        <time>2015-11-08T15:18:29Z</time>
      </trkpt>
      <trkpt lat="48.9225" lon="0.17781">
        <ele>160.92</ele>
        <time>2015-11-08T15:18:30Z</time>
      </trkpt>
      <trkpt lat="48.9225" lon="0.17787">
        <ele>160.7</ele>
        <time>2015-11-08T15:18:31Z</time>
      </trkpt>
      <trkpt lat="48.92249" lon="0.17792">
        <ele>160.5</ele>
        <time>2015-11-08T15:18:32Z</time>
      </trkpt>
      <trkpt lat="48.92249" lon="0.17798">
        <ele>160.3</ele>
        <time>2015-11-08T15:18:33Z</time>
      </trkpt>
      <trkpt lat="48.92248" lon="0.17803">
        <ele>160.09</ele>
        <time>2015-11-08T15:18:34Z</time>
      </trkpt>
      <trkpt lat="48.92247" lon="0.17809">
        <ele>159.74</ele>
        <time>2015-11-08T15:18:35Z</time>
      </trkpt>
      <trkpt lat="48.92247" lon="0.17814">
        <ele>159.31</ele>
        <time>2015-11-08T15:18:36Z</time>
      </trkpt>
      <trkpt lat="48.92246" lon="0.17819">
        <ele>158.88</ele>
        <time>2015-11-08T15:18:37Z</time>
      </trkpt>
      <trkpt lat="48.92246" lon="0.17824">
        <ele>158.5</ele>
        <time>2015-11-08T15:18:38Z</time>
      </trkpt>
      <trkpt lat="48.92248" lon="0.17826">
        <ele>158.46</ele>
        <time>2015-11-08T15:18:45Z</time>
      </trkpt>
      <trkpt lat="48.92247" lon="0.17831">
        <ele>157.93</ele>
        <time>2015-11-08T15:18:53Z</time>
      </trkpt>
      <trkpt lat="48.92246" lon="0.17837">
        <ele>157.16</ele>
        <time>2015-11-08T15:18:55Z</time>
      </trkpt>
      <trkpt lat="48.92245" lon="0.17841">
        <ele>156.54</ele>
        <time>2015-11-08T15:18:56Z</time>
      </trkpt>
      <trkpt lat="48.92244" lon="0.17846">
        <ele>155.83</ele>
        <time>2015-11-08T15:18:57Z</time>
      </trkpt>
      <trkpt lat="48.92243" lon="0.17851">
        <ele>155.09</ele>
        <time>2015-11-08T15:18:58Z</time>
      </trkpt>
      <trkpt lat="48.92242" lon="0.17856">
        <ele>154.32</ele>
        <time>2015-11-08T15:18:59Z</time>
      </trkpt>
      <trkpt lat="48.9224" lon="0.17862">
        <ele>153.61</ele>
        <time>2015-11-08T15:19:00Z</time>
      </trkpt>
      <trkpt lat="48.92238" lon="0.17868">
        <ele>153.32</ele>
        <time>2015-11-08T15:19:01Z</time>
      </trkpt>
      <trkpt lat="48.92236" lon="0.17874">
        <ele>153.04</ele>
        <time>2015-11-08T15:19:02Z</time>
      </trkpt>
      <trkpt lat="48.92234" lon="0.17879">
        <ele>152.76</ele>
        <time>2015-11-08T15:19:03Z</time>
      </trkpt>
      <trkpt lat="48.92232" lon="0.17885">
        <ele>152.51</ele>
        <time>2015-11-08T15:19:04Z</time>
      </trkpt>
      <trkpt lat="48.92231" lon="0.1789">
        <ele>152.26</ele>
        <time>2015-11-08T15:19:05Z</time>
      </trkpt>
      <trkpt lat="48.9223" lon="0.17896">
        <ele>152.01</ele>
        <time>2015-11-08T15:19:06Z</time>
      </trkpt>
      <trkpt lat="48.92228" lon="0.17902">
        <ele>151.76</ele>
        <time>2015-11-08T15:19:07Z</time>
      </trkpt>
      <trkpt lat="48.92227" lon="0.17907">
        <ele>151.52</ele>
        <time>2015-11-08T15:19:08Z</time>
      </trkpt>
      <trkpt lat="48.92226" lon="0.17913">
        <ele>151.26</ele>
        <time>2015-11-08T15:19:09Z</time>
      </trkpt>
      <trkpt lat="48.92224" lon="0.17918">
        <ele>151</ele>
        <time>2015-11-08T15:19:10Z</time>
      </trkpt>
      <trkpt lat="48.92221" lon="0.17923">
        <ele>150.75</ele>
        <time>2015-11-08T15:19:11Z</time>
      </trkpt>
      <trkpt lat="48.92215" lon="0.17931">
        <ele>150.74</ele>
        <time>2015-11-08T15:19:12Z</time>
      </trkpt>
      <trkpt lat="48.92213" lon="0.17937">
        <ele>150.92</ele>
        <time>2015-11-08T15:19:13Z</time>
      </trkpt>
      <trkpt lat="48.9221" lon="0.17943">
        <ele>151.29</ele>
        <time>2015-11-08T15:19:14Z</time>
      </trkpt>
      <trkpt lat="48.92207" lon="0.17949">
        <ele>152.4</ele>
        <time>2015-11-08T15:19:15Z</time>
      </trkpt>
      <trkpt lat="48.92206" lon="0.17955">
        <ele>153.36</ele>
        <time>2015-11-08T15:19:16Z</time>
      </trkpt>
      <trkpt lat="48.92203" lon="0.17961">
        <ele>154.57</ele>
        <time>2015-11-08T15:19:17Z</time>
      </trkpt>
      <trkpt lat="48.92202" lon="0.17967">
        <ele>155.63</ele>
        <time>2015-11-08T15:19:18Z</time>
      </trkpt>
      <trkpt lat="48.92201" lon="0.17972">
        <ele>156.51</ele>
        <time>2015-11-08T15:19:19Z</time>
      </trkpt>
      <trkpt lat="48.92201" lon="0.17979">
        <ele>156.16</ele>
        <time>2015-11-08T15:19:20Z</time>
      </trkpt>
      <trkpt lat="48.92199" lon="0.17986">
        <ele>155.87</ele>
        <time>2015-11-08T15:19:21Z</time>
      </trkpt>
      <trkpt lat="48.92199" lon="0.17992">
        <ele>155.5</ele>
        <time>2015-11-08T15:19:22Z</time>
      </trkpt>
      <trkpt lat="48.92198" lon="0.17999">
        <ele>155.05</ele>
        <time>2015-11-08T15:19:23Z</time>
      </trkpt>
      <trkpt lat="48.92196" lon="0.18008">
        <ele>154.18</ele>
        <time>2015-11-08T15:19:24Z</time>
      </trkpt>
      <trkpt lat="48.92193" lon="0.18016">
        <ele>153.37</ele>
        <time>2015-11-08T15:19:25Z</time>
      </trkpt>
      <trkpt lat="48.92189" lon="0.18021">
        <ele>152.98</ele>
        <time>2015-11-08T15:19:26Z</time>
      </trkpt>
      <trkpt lat="48.92186" lon="0.18029">
        <ele>152.49</ele>
        <time>2015-11-08T15:19:27Z</time>
      </trkpt>
      <trkpt lat="48.92136" lon="0.1812">
        <ele>148.36</ele>
        <time>2015-11-08T15:19:58Z</time>
      </trkpt>
      <trkpt lat="48.92133" lon="0.18124">
        <ele>148.48</ele>
        <time>2015-11-08T15:19:59Z</time>
      </trkpt>
      <trkpt lat="48.92135" lon="0.1813">
        <ele>148.62</ele>
        <time>2015-11-08T15:20:00Z</time>
      </trkpt>
      <trkpt lat="48.92133" lon="0.18134">
        <ele>148.69</ele>
        <time>2015-11-08T15:20:01Z</time>
      </trkpt>
      <trkpt lat="48.92136" lon="0.18139">
        <ele>148.9</ele>
        <time>2015-11-08T15:20:02Z</time>
      </trkpt>
      <trkpt lat="48.92136" lon="0.18143">
        <ele>148.77</ele>
        <time>2015-11-08T15:20:03Z</time>
      </trkpt>
      <trkpt lat="48.92139" lon="0.18147">
        <ele>148.69</ele>
        <time>2015-11-08T15:20:04Z</time>
      </trkpt>
      <trkpt lat="48.92139" lon="0.18153">
        <ele>148.46</ele>
        <time>2015-11-08T15:20:05Z</time>
      </trkpt>
      <trkpt lat="48.9214" lon="0.18158">
        <ele>148.26</ele>
        <time>2015-11-08T15:20:06Z</time>
      </trkpt>
      <trkpt lat="48.92139" lon="0.18163">
        <ele>148.14</ele>
        <time>2015-11-08T15:20:07Z</time>
      </trkpt>
      <trkpt lat="48.92136" lon="0.18168">
        <ele>148.03</ele>
        <time>2015-11-08T15:20:08Z</time>
      </trkpt>
      <trkpt lat="48.92134" lon="0.18172">
        <ele>147.79</ele>
        <time>2015-11-08T15:20:09Z</time>
      </trkpt>
      <trkpt lat="48.92131" lon="0.18176">
        <ele>147.7</ele>
        <time>2015-11-08T15:20:10Z</time>
      </trkpt>
      <trkpt lat="48.92128" lon="0.1818">
        <ele>147.65</ele>
        <time>2015-11-08T15:20:11Z</time>
      </trkpt>
      <trkpt lat="48.92125" lon="0.18183">
        <ele>147.61</ele>
        <time>2015-11-08T15:20:12Z</time>
      </trkpt>
      <trkpt lat="48.92122" lon="0.18187">
        <ele>147.55</ele>
        <time>2015-11-08T15:20:13Z</time>
      </trkpt>
      <trkpt lat="48.9212" lon="0.18192">
        <ele>147.51</ele>
        <time>2015-11-08T15:20:14Z</time>
      </trkpt>
      <trkpt lat="48.92118" lon="0.18196">
        <ele>147.47</ele>
        <time>2015-11-08T15:20:15Z</time>
      </trkpt>
      <trkpt lat="48.92116" lon="0.182">
        <ele>147.49</ele>
        <time>2015-11-08T15:20:16Z</time>
      </trkpt>
      <trkpt lat="48.92114" lon="0.18204">
        <ele>147.51</ele>
        <time>2015-11-08T15:20:17Z</time>
      </trkpt>
      <trkpt lat="48.92111" lon="0.18208">
        <ele>147.51</ele>
        <time>2015-11-08T15:20:18Z</time>
      </trkpt>
      <trkpt lat="48.92109" lon="0.18211">
        <ele>147.38</ele>
        <time>2015-11-08T15:20:19Z</time>
      </trkpt>
      <trkpt lat="48.92108" lon="0.18215">
        <ele>147.24</ele>
        <time>2015-11-08T15:20:20Z</time>
      </trkpt>
      <trkpt lat="48.92106" lon="0.18218">
        <ele>147.12</ele>
        <time>2015-11-08T15:20:21Z</time>
      </trkpt>
      <trkpt lat="48.92103" lon="0.18223">
        <ele>147.01</ele>
        <time>2015-11-08T15:20:23Z</time>
      </trkpt>
      <trkpt lat="48.921" lon="0.18225">
        <ele>147.04</ele>
        <time>2015-11-08T15:20:25Z</time>
      </trkpt>
      <trkpt lat="48.92095" lon="0.18224">
        <ele>147.04</ele>
        <time>2015-11-08T15:20:27Z</time>
      </trkpt>
      <trkpt lat="48.9209" lon="0.18223">
        <ele>147.03</ele>
        <time>2015-11-08T15:20:29Z</time>
      </trkpt>
      <trkpt lat="48.92085" lon="0.18223">
        <ele>147.03</ele>
        <time>2015-11-08T15:20:31Z</time>
      </trkpt>
      <trkpt lat="48.92083" lon="0.18224">
        <ele>147.06</ele>
        <time>2015-11-08T15:20:32Z</time>
      </trkpt>
      <trkpt lat="48.9208" lon="0.18226">
        <ele>147.09</ele>
        <time>2015-11-08T15:20:33Z</time>
      </trkpt>
      <trkpt lat="48.92078" lon="0.18229">
        <ele>147.08</ele>
        <time>2015-11-08T15:20:34Z</time>
      </trkpt>
      <trkpt lat="48.92075" lon="0.18231">
        <ele>147.04</ele>
        <time>2015-11-08T15:20:35Z</time>
      </trkpt>
      <trkpt lat="48.92073" lon="0.18234">
        <ele>146.95</ele>
        <time>2015-11-08T15:20:36Z</time>
      </trkpt>
      <trkpt lat="48.92071" lon="0.18237">
        <ele>146.81</ele>
        <time>2015-11-08T15:20:37Z</time>
      </trkpt>
      <trkpt lat="48.92068" lon="0.18243">
        <ele>146.52</ele>
        <time>2015-11-08T15:20:39Z</time>
      </trkpt>
      <trkpt lat="48.92067" lon="0.18239">
        <ele>146.54</ele>
        <time>2015-11-08T15:20:55Z</time>
      </trkpt>
      <trkpt lat="48.92069" lon="0.18236">
        <ele>146.74</ele>
        <time>2015-11-08T15:20:58Z</time>
      </trkpt>
      <trkpt lat="48.92072" lon="0.18236">
        <ele>146.91</ele>
        <time>2015-11-08T15:21:00Z</time>
      </trkpt>
      <trkpt lat="48.92076" lon="0.18241">
        <ele>147.14</ele>
        <time>2015-11-08T15:21:02Z</time>
      </trkpt>
      <trkpt lat="48.9208" lon="0.18247">
        <ele>147.54</ele>
        <time>2015-11-08T15:21:04Z</time>
      </trkpt>
      <trkpt lat="48.92082" lon="0.1825">
        <ele>147.78</ele>
        <time>2015-11-08T15:21:05Z</time>
      </trkpt>
      <trkpt lat="48.92083" lon="0.18254">
        <ele>147.46</ele>
        <time>2015-11-08T15:21:06Z</time>
      </trkpt>
      <trkpt lat="48.92084" lon="0.18257">
        <ele>146.93</ele>
        <time>2015-11-08T15:21:07Z</time>
      </trkpt>
      <trkpt lat="48.92086" lon="0.18261">
        <ele>146.42</ele>
        <time>2015-11-08T15:21:08Z</time>
      </trkpt>
      <trkpt lat="48.92087" lon="0.18265">
        <ele>145.98</ele>
        <time>2015-11-08T15:21:09Z</time>
      </trkpt>
      <trkpt lat="48.92091" lon="0.1827">
        <ele>145.56</ele>
        <time>2015-11-08T15:21:11Z</time>
      </trkpt>
      <trkpt lat="48.92095" lon="0.18271">
        <ele>145.87</ele>
        <time>2015-11-08T15:21:13Z</time>
      </trkpt>
      <trkpt lat="48.921" lon="0.18267">
        <ele>146.45</ele>
        <time>2015-11-08T15:21:15Z</time>
      </trkpt>
      <trkpt lat="48.92102" lon="0.18264">
        <ele>146.68</ele>
        <time>2015-11-08T15:21:16Z</time>
      </trkpt>
      <trkpt lat="48.92106" lon="0.18259">
        <ele>146.96</ele>
        <time>2015-11-08T15:21:18Z</time>
      </trkpt>
      <trkpt lat="48.92109" lon="0.18254">
        <ele>147.03</ele>
        <time>2015-11-08T15:21:20Z</time>
      </trkpt>
      <trkpt lat="48.92112" lon="0.1825">
        <ele>147</ele>
        <time>2015-11-08T15:21:22Z</time>
      </trkpt>
      <trkpt lat="48.92115" lon="0.18247">
        <ele>146.98</ele>
        <time>2015-11-08T15:21:24Z</time>
      </trkpt>
      <trkpt lat="48.92118" lon="0.18243">
        <ele>146.94</ele>
        <time>2015-11-08T15:21:26Z</time>
      </trkpt>
      <trkpt lat="48.92121" lon="0.1824">
        <ele>146.88</ele>
        <time>2015-11-08T15:21:28Z</time>
      </trkpt>
      <trkpt lat="48.92124" lon="0.18239">
        <ele>146.82</ele>
        <time>2015-11-08T15:21:30Z</time>
      </trkpt>
      <trkpt lat="48.92127" lon="0.18239">
        <ele>146.76</ele>
        <time>2015-11-08T15:21:32Z</time>
      </trkpt>
      <trkpt lat="48.92131" lon="0.1824">
        <ele>146.74</ele>
        <time>2015-11-08T15:21:34Z</time>
      </trkpt>
      <trkpt lat="48.92135" lon="0.18242">
        <ele>146.77</ele>
        <time>2015-11-08T15:21:36Z</time>
      </trkpt>
      <trkpt lat="48.92138" lon="0.18243">
        <ele>146.77</ele>
        <time>2015-11-08T15:21:38Z</time>
      </trkpt>
      <trkpt lat="48.92142" lon="0.18246">
        <ele>147.26</ele>
        <time>2015-11-08T15:21:40Z</time>
      </trkpt>
      <trkpt lat="48.92145" lon="0.18249">
        <ele>148.1</ele>
        <time>2015-11-08T15:21:42Z</time>
      </trkpt>
      <trkpt lat="48.92148" lon="0.18255">
        <ele>149.23</ele>
        <time>2015-11-08T15:21:44Z</time>
      </trkpt>
      <trkpt lat="48.9215" lon="0.1826">
        <ele>150.5</ele>
        <time>2015-11-08T15:21:46Z</time>
      </trkpt>
      <trkpt lat="48.92151" lon="0.18266">
        <ele>151.72</ele>
        <time>2015-11-08T15:21:48Z</time>
      </trkpt>
      <trkpt lat="48.92152" lon="0.18273">
        <ele>152.75</ele>
        <time>2015-11-08T15:21:50Z</time>
      </trkpt>
      <trkpt lat="48.92151" lon="0.18279">
        <ele>153.42</ele>
        <time>2015-11-08T15:21:52Z</time>
      </trkpt>
      <trkpt lat="48.9215" lon="0.18284">
        <ele>153.69</ele>
        <time>2015-11-08T15:21:54Z</time>
      </trkpt>
      <trkpt lat="48.92149" lon="0.1829">
        <ele>154</ele>
        <time>2015-11-08T15:21:56Z</time>
      </trkpt>
      <trkpt lat="48.92149" lon="0.18295">
        <ele>154.37</ele>
        <time>2015-11-08T15:21:58Z</time>
      </trkpt>
      <trkpt lat="48.92148" lon="0.183">
        <ele>154.73</ele>
        <time>2015-11-08T15:22:00Z</time>
      </trkpt>
      <trkpt lat="48.92148" lon="0.18306">
        <ele>155.33</ele>
        <time>2015-11-08T15:22:02Z</time>
      </trkpt>
      <trkpt lat="48.92147" lon="0.18312">
        <ele>155.98</ele>
        <time>2015-11-08T15:22:04Z</time>
      </trkpt>
      <trkpt lat="48.92146" lon="0.18317">
        <ele>156.55</ele>
        <time>2015-11-08T15:22:06Z</time>
      </trkpt>
      <trkpt lat="48.92145" lon="0.18322">
        <ele>157.09</ele>
        <time>2015-11-08T15:22:08Z</time>
      </trkpt>
      <trkpt lat="48.92143" lon="0.18327">
        <ele>157.59</ele>
        <time>2015-11-08T15:22:10Z</time>
      </trkpt>
      <trkpt lat="48.92141" lon="0.18333">
        <ele>158.19</ele>
        <time>2015-11-08T15:22:12Z</time>
      </trkpt>
      <trkpt lat="48.92139" lon="0.18337">
        <ele>158.51</ele>
        <time>2015-11-08T15:22:14Z</time>
      </trkpt>
      <trkpt lat="48.92136" lon="0.18342">
        <ele>158.58</ele>
        <time>2015-11-08T15:22:16Z</time>
      </trkpt>
      <trkpt lat="48.92133" lon="0.18345">
        <ele>158.48</ele>
        <time>2015-11-08T15:22:18Z</time>
      </trkpt>
      <trkpt lat="48.9213" lon="0.18349">
        <ele>158.39</ele>
        <time>2015-11-08T15:22:20Z</time>
      </trkpt>
      <trkpt lat="48.92127" lon="0.18352">
        <ele>158.46</ele>
        <time>2015-11-08T15:22:22Z</time>
      </trkpt>
      <trkpt lat="48.92126" lon="0.18357">
        <ele>158.89</ele>
        <time>2015-11-08T15:22:24Z</time>
      </trkpt>
      <trkpt lat="48.92124" lon="0.18362">
        <ele>159.36</ele>
        <time>2015-11-08T15:22:26Z</time>
      </trkpt>
      <trkpt lat="48.92122" lon="0.18366">
        <ele>159.63</ele>
        <time>2015-11-08T15:22:28Z</time>
      </trkpt>
      <trkpt lat="48.92119" lon="0.18368">
        <ele>159.5</ele>
        <time>2015-11-08T15:22:30Z</time>
      </trkpt>
      <trkpt lat="48.92115" lon="0.18366">
        <ele>158.58</ele>
        <time>2015-11-08T15:22:32Z</time>
      </trkpt>
      <trkpt lat="48.92114" lon="0.18362">
        <ele>157.54</ele>
        <time>2015-11-08T15:22:34Z</time>
      </trkpt>
      <trkpt lat="48.92112" lon="0.18358">
        <ele>156.66</ele>
        <time>2015-11-08T15:22:49Z</time>
      </trkpt>
      <trkpt lat="48.92112" lon="0.18358">
        <ele>156.65</ele>
        <time>2015-11-08T15:22:57Z</time>
      </trkpt>
    </trkseg>
  </trk>
</gpx>